<?xml version="1.0" encoding="UTF-8" standalone="no" ?>
<gpx xmlns="http://www.topografix.com/GPX/1/1" xmlns:xsi="http://www.w3.org/2001/XMLSchema-instance" xsi:schemaLocation="http://www.topografix.com/GPX/1/1 http://www.topografix.com/GPX/1/1/gpx.xsd" version="1.1" creator="VisuGPX - https://www.visugpx.com">
  <metadata>
    <name>Mtp_St_Paul_et_Valmale</name>
  </metadata>
  <trk>
    <name><![CDATA[Mtp_St_Paul_et_Valmale_1]]></name>
    <trkseg>
      <trkpt lat="43.61139" lon="3.8774">
        <ele>47</ele>
        <time>2021-02-07T11:06:22Z</time>
      </trkpt>
      <trkpt lat="43.61143" lon="3.87732">
        <ele>47</ele>
        <time>2021-02-07T11:06:52Z</time>
      </trkpt>
      <trkpt lat="43.61144" lon="3.87732">
        <ele>97</ele>
        <time>2021-02-07T11:06:55Z</time>
      </trkpt>
      <trkpt lat="43.61148" lon="3.87727">
        <ele>93</ele>
        <time>2021-02-07T11:06:58Z</time>
      </trkpt>
      <trkpt lat="43.61149" lon="3.87726">
        <ele>47</ele>
        <time>2021-02-07T11:06:59Z</time>
      </trkpt>
      <trkpt lat="43.61153" lon="3.87722">
        <ele>47</ele>
        <time>2021-02-07T11:07:01Z</time>
      </trkpt>
      <trkpt lat="43.61155" lon="3.8772">
        <ele>47</ele>
        <time>2021-02-07T11:07:02Z</time>
      </trkpt>
      <trkpt lat="43.61157" lon="3.87718">
        <ele>47.1</ele>
        <time>2021-02-07T11:07:03Z</time>
      </trkpt>
      <trkpt lat="43.61159" lon="3.87716">
        <ele>47.1</ele>
        <time>2021-02-07T11:07:04Z</time>
      </trkpt>
      <trkpt lat="43.61161" lon="3.87713">
        <ele>47.1</ele>
        <time>2021-02-07T11:07:05Z</time>
      </trkpt>
      <trkpt lat="43.61163" lon="3.87709">
        <ele>47.1</ele>
        <time>2021-02-07T11:07:06Z</time>
      </trkpt>
      <trkpt lat="43.61165" lon="3.87706">
        <ele>81</ele>
        <time>2021-02-07T11:07:07Z</time>
      </trkpt>
      <trkpt lat="43.61167" lon="3.87702">
        <ele>47</ele>
        <time>2021-02-07T11:07:08Z</time>
      </trkpt>
      <trkpt lat="43.61169" lon="3.87698">
        <ele>46.8</ele>
        <time>2021-02-07T11:07:09Z</time>
      </trkpt>
      <trkpt lat="43.61171" lon="3.87694">
        <ele>46.7</ele>
        <time>2021-02-07T11:07:10Z</time>
      </trkpt>
      <trkpt lat="43.61174" lon="3.8769">
        <ele>46.4</ele>
        <time>2021-02-07T11:07:11Z</time>
      </trkpt>
      <trkpt lat="43.61176" lon="3.87685">
        <ele>46.2</ele>
        <time>2021-02-07T11:07:12Z</time>
      </trkpt>
      <trkpt lat="43.61178" lon="3.87681">
        <ele>46</ele>
        <time>2021-02-07T11:07:13Z</time>
      </trkpt>
      <trkpt lat="43.61181" lon="3.87677">
        <ele>45.6</ele>
        <time>2021-02-07T11:07:14Z</time>
      </trkpt>
      <trkpt lat="43.61183" lon="3.87672">
        <ele>45.3</ele>
        <time>2021-02-07T11:07:15Z</time>
      </trkpt>
      <trkpt lat="43.61184" lon="3.87667">
        <ele>45.1</ele>
        <time>2021-02-07T11:07:16Z</time>
      </trkpt>
      <trkpt lat="43.61185" lon="3.8766">
        <ele>44.8</ele>
        <time>2021-02-07T11:07:17Z</time>
      </trkpt>
      <trkpt lat="43.61186" lon="3.87654">
        <ele>76</ele>
        <time>2021-02-07T11:07:18Z</time>
      </trkpt>
      <trkpt lat="43.61187" lon="3.87647">
        <ele>44.1</ele>
        <time>2021-02-07T11:07:19Z</time>
      </trkpt>
      <trkpt lat="43.61187" lon="3.87641">
        <ele>43.9</ele>
        <time>2021-02-07T11:07:20Z</time>
      </trkpt>
      <trkpt lat="43.61183" lon="3.87635">
        <ele>44.5</ele>
        <time>2021-02-07T11:07:21Z</time>
      </trkpt>
      <trkpt lat="43.61179" lon="3.87632">
        <ele>45</ele>
        <time>2021-02-07T11:07:22Z</time>
      </trkpt>
      <trkpt lat="43.61176" lon="3.8763">
        <ele>45.4</ele>
        <time>2021-02-07T11:07:23Z</time>
      </trkpt>
      <trkpt lat="43.61174" lon="3.87629">
        <ele>45.7</ele>
        <time>2021-02-07T11:07:24Z</time>
      </trkpt>
      <trkpt lat="43.61172" lon="3.87629">
        <ele>73</ele>
        <time>2021-02-07T11:07:27Z</time>
      </trkpt>
      <trkpt lat="43.61168" lon="3.87627">
        <ele>46.3</ele>
        <time>2021-02-07T11:07:29Z</time>
      </trkpt>
      <trkpt lat="43.61159" lon="3.87618">
        <ele>47.1</ele>
        <time>2021-02-07T11:07:33Z</time>
      </trkpt>
      <trkpt lat="43.61152" lon="3.8761">
        <ele>47.5</ele>
        <time>2021-02-07T11:07:36Z</time>
      </trkpt>
      <trkpt lat="43.61141" lon="3.87604">
        <ele>47.9</ele>
        <time>2021-02-07T11:07:39Z</time>
      </trkpt>
      <trkpt lat="43.61139" lon="3.87597">
        <ele>48</ele>
        <time>2021-02-07T11:07:40Z</time>
      </trkpt>
      <trkpt lat="43.61133" lon="3.87582">
        <ele>48</ele>
        <time>2021-02-07T11:07:43Z</time>
      </trkpt>
      <trkpt lat="43.61132" lon="3.87565">
        <ele>48</ele>
        <time>2021-02-07T11:07:46Z</time>
      </trkpt>
      <trkpt lat="43.61131" lon="3.87551">
        <ele>48.2</ele>
        <time>2021-02-07T11:07:48Z</time>
      </trkpt>
      <trkpt lat="43.61134" lon="3.87536">
        <ele>48.7</ele>
        <time>2021-02-07T11:07:50Z</time>
      </trkpt>
      <trkpt lat="43.61136" lon="3.8753">
        <ele>48.9</ele>
        <time>2021-02-07T11:07:51Z</time>
      </trkpt>
      <trkpt lat="43.61137" lon="3.87524">
        <ele>49</ele>
        <time>2021-02-07T11:07:52Z</time>
      </trkpt>
      <trkpt lat="43.61139" lon="3.87519">
        <ele>49</ele>
        <time>2021-02-07T11:07:53Z</time>
      </trkpt>
      <trkpt lat="43.61141" lon="3.87514">
        <ele>49</ele>
        <time>2021-02-07T11:07:54Z</time>
      </trkpt>
      <trkpt lat="43.61143" lon="3.8751">
        <ele>49</ele>
        <time>2021-02-07T11:07:55Z</time>
      </trkpt>
      <trkpt lat="43.61144" lon="3.87505">
        <ele>49</ele>
        <time>2021-02-07T11:07:56Z</time>
      </trkpt>
      <trkpt lat="43.61149" lon="3.87491">
        <ele>49</ele>
        <time>2021-02-07T11:07:59Z</time>
      </trkpt>
      <trkpt lat="43.61151" lon="3.87474">
        <ele>49</ele>
        <time>2021-02-07T11:08:02Z</time>
      </trkpt>
      <trkpt lat="43.61152" lon="3.87469">
        <ele>49.1</ele>
        <time>2021-02-07T11:08:03Z</time>
      </trkpt>
      <trkpt lat="43.61155" lon="3.87453">
        <ele>49.7</ele>
        <time>2021-02-07T11:08:06Z</time>
      </trkpt>
      <trkpt lat="43.61158" lon="3.87444">
        <ele>50</ele>
        <time>2021-02-07T11:08:08Z</time>
      </trkpt>
      <trkpt lat="43.61157" lon="3.87438">
        <ele>50</ele>
        <time>2021-02-07T11:08:09Z</time>
      </trkpt>
      <trkpt lat="43.61157" lon="3.87432">
        <ele>50</ele>
        <time>2021-02-07T11:08:10Z</time>
      </trkpt>
      <trkpt lat="43.61156" lon="3.87426">
        <ele>50</ele>
        <time>2021-02-07T11:08:11Z</time>
      </trkpt>
      <trkpt lat="43.61156" lon="3.87422">
        <ele>50</ele>
        <time>2021-02-07T11:08:12Z</time>
      </trkpt>
      <trkpt lat="43.61156" lon="3.87418">
        <ele>50</ele>
        <time>2021-02-07T11:08:13Z</time>
      </trkpt>
      <trkpt lat="43.61156" lon="3.87415">
        <ele>50</ele>
        <time>2021-02-07T11:08:14Z</time>
      </trkpt>
      <trkpt lat="43.61156" lon="3.87412">
        <ele>50</ele>
        <time>2021-02-07T11:08:15Z</time>
      </trkpt>
      <trkpt lat="43.61157" lon="3.87408">
        <ele>50</ele>
        <time>2021-02-07T11:08:16Z</time>
      </trkpt>
      <trkpt lat="43.61158" lon="3.87403">
        <ele>70</ele>
        <time>2021-02-07T11:08:17Z</time>
      </trkpt>
      <trkpt lat="43.61159" lon="3.87398">
        <ele>50</ele>
        <time>2021-02-07T11:08:18Z</time>
      </trkpt>
      <trkpt lat="43.61159" lon="3.87393">
        <ele>50</ele>
        <time>2021-02-07T11:08:19Z</time>
      </trkpt>
      <trkpt lat="43.61158" lon="3.87387">
        <ele>50</ele>
        <time>2021-02-07T11:08:20Z</time>
      </trkpt>
      <trkpt lat="43.61158" lon="3.87383">
        <ele>50</ele>
        <time>2021-02-07T11:08:21Z</time>
      </trkpt>
      <trkpt lat="43.61157" lon="3.87379">
        <ele>50</ele>
        <time>2021-02-07T11:08:22Z</time>
      </trkpt>
      <trkpt lat="43.61156" lon="3.87376">
        <ele>50</ele>
        <time>2021-02-07T11:08:23Z</time>
      </trkpt>
      <trkpt lat="43.61153" lon="3.87374">
        <ele>50</ele>
        <time>2021-02-07T11:08:24Z</time>
      </trkpt>
      <trkpt lat="43.61149" lon="3.87371">
        <ele>50</ele>
        <time>2021-02-07T11:08:25Z</time>
      </trkpt>
      <trkpt lat="43.61147" lon="3.87369">
        <ele>50</ele>
        <time>2021-02-07T11:08:26Z</time>
      </trkpt>
      <trkpt lat="43.61146" lon="3.87364">
        <ele>69</ele>
        <time>2021-02-07T11:08:27Z</time>
      </trkpt>
      <trkpt lat="43.61146" lon="3.87359">
        <ele>50.1</ele>
        <time>2021-02-07T11:08:28Z</time>
      </trkpt>
      <trkpt lat="43.61147" lon="3.87353">
        <ele>50.2</ele>
        <time>2021-02-07T11:08:29Z</time>
      </trkpt>
      <trkpt lat="43.6115" lon="3.87348">
        <ele>50.3</ele>
        <time>2021-02-07T11:08:30Z</time>
      </trkpt>
      <trkpt lat="43.61152" lon="3.87343">
        <ele>50.3</ele>
        <time>2021-02-07T11:08:31Z</time>
      </trkpt>
      <trkpt lat="43.61152" lon="3.87339">
        <ele>50.4</ele>
        <time>2021-02-07T11:08:32Z</time>
      </trkpt>
      <trkpt lat="43.6115" lon="3.87335">
        <ele>50.6</ele>
        <time>2021-02-07T11:08:33Z</time>
      </trkpt>
      <trkpt lat="43.61147" lon="3.87332">
        <ele>50.7</ele>
        <time>2021-02-07T11:08:34Z</time>
      </trkpt>
      <trkpt lat="43.61143" lon="3.8733">
        <ele>50.9</ele>
        <time>2021-02-07T11:08:35Z</time>
      </trkpt>
      <trkpt lat="43.61138" lon="3.87328">
        <ele>51</ele>
        <time>2021-02-07T11:08:36Z</time>
      </trkpt>
      <trkpt lat="43.61134" lon="3.87327">
        <ele>67</ele>
        <time>2021-02-07T11:08:37Z</time>
      </trkpt>
      <trkpt lat="43.61131" lon="3.87326">
        <ele>50.8</ele>
        <time>2021-02-07T11:08:38Z</time>
      </trkpt>
      <trkpt lat="43.61127" lon="3.87326">
        <ele>50.7</ele>
        <time>2021-02-07T11:08:39Z</time>
      </trkpt>
      <trkpt lat="43.61123" lon="3.87326">
        <ele>50.6</ele>
        <time>2021-02-07T11:08:40Z</time>
      </trkpt>
      <trkpt lat="43.6112" lon="3.87326">
        <ele>50.5</ele>
        <time>2021-02-07T11:08:41Z</time>
      </trkpt>
      <trkpt lat="43.61117" lon="3.87326">
        <ele>50.4</ele>
        <time>2021-02-07T11:08:42Z</time>
      </trkpt>
      <trkpt lat="43.61116" lon="3.87323">
        <ele>50.5</ele>
        <time>2021-02-07T11:08:43Z</time>
      </trkpt>
      <trkpt lat="43.61116" lon="3.87318">
        <ele>50.6</ele>
        <time>2021-02-07T11:08:44Z</time>
      </trkpt>
      <trkpt lat="43.61117" lon="3.87313">
        <ele>50.8</ele>
        <time>2021-02-07T11:08:45Z</time>
      </trkpt>
      <trkpt lat="43.61118" lon="3.87307">
        <ele>51</ele>
        <time>2021-02-07T11:08:46Z</time>
      </trkpt>
      <trkpt lat="43.6112" lon="3.87302">
        <ele>66</ele>
        <time>2021-02-07T11:08:47Z</time>
      </trkpt>
      <trkpt lat="43.61121" lon="3.87298">
        <ele>51</ele>
        <time>2021-02-07T11:08:48Z</time>
      </trkpt>
      <trkpt lat="43.61122" lon="3.87294">
        <ele>51</ele>
        <time>2021-02-07T11:08:49Z</time>
      </trkpt>
      <trkpt lat="43.61124" lon="3.8729">
        <ele>51</ele>
        <time>2021-02-07T11:08:50Z</time>
      </trkpt>
      <trkpt lat="43.61126" lon="3.87286">
        <ele>51</ele>
        <time>2021-02-07T11:08:51Z</time>
      </trkpt>
      <trkpt lat="43.61127" lon="3.87281">
        <ele>51</ele>
        <time>2021-02-07T11:08:52Z</time>
      </trkpt>
      <trkpt lat="43.61128" lon="3.87276">
        <ele>50.9</ele>
        <time>2021-02-07T11:08:53Z</time>
      </trkpt>
      <trkpt lat="43.61128" lon="3.87271">
        <ele>50.6</ele>
        <time>2021-02-07T11:08:54Z</time>
      </trkpt>
      <trkpt lat="43.61129" lon="3.87266">
        <ele>50.3</ele>
        <time>2021-02-07T11:08:55Z</time>
      </trkpt>
      <trkpt lat="43.61129" lon="3.87261">
        <ele>50</ele>
        <time>2021-02-07T11:08:56Z</time>
      </trkpt>
      <trkpt lat="43.61129" lon="3.87256">
        <ele>67</ele>
        <time>2021-02-07T11:08:57Z</time>
      </trkpt>
      <trkpt lat="43.61129" lon="3.87251">
        <ele>49.4</ele>
        <time>2021-02-07T11:08:58Z</time>
      </trkpt>
      <trkpt lat="43.61129" lon="3.87246">
        <ele>48.7</ele>
        <time>2021-02-07T11:08:59Z</time>
      </trkpt>
      <trkpt lat="43.61129" lon="3.8724">
        <ele>47.7</ele>
        <time>2021-02-07T11:09:00Z</time>
      </trkpt>
      <trkpt lat="43.6113" lon="3.87235">
        <ele>46.8</ele>
        <time>2021-02-07T11:09:01Z</time>
      </trkpt>
      <trkpt lat="43.61131" lon="3.87229">
        <ele>45.8</ele>
        <time>2021-02-07T11:09:02Z</time>
      </trkpt>
      <trkpt lat="43.61132" lon="3.87224">
        <ele>45</ele>
        <time>2021-02-07T11:09:03Z</time>
      </trkpt>
      <trkpt lat="43.61133" lon="3.87218">
        <ele>45.6</ele>
        <time>2021-02-07T11:09:04Z</time>
      </trkpt>
      <trkpt lat="43.61134" lon="3.87213">
        <ele>46.6</ele>
        <time>2021-02-07T11:09:05Z</time>
      </trkpt>
      <trkpt lat="43.61136" lon="3.87208">
        <ele>47.6</ele>
        <time>2021-02-07T11:09:06Z</time>
      </trkpt>
      <trkpt lat="43.61139" lon="3.87204">
        <ele>64</ele>
        <time>2021-02-07T11:09:07Z</time>
      </trkpt>
      <trkpt lat="43.61143" lon="3.87202">
        <ele>48.4</ele>
        <time>2021-02-07T11:09:08Z</time>
      </trkpt>
      <trkpt lat="43.61148" lon="3.87202">
        <ele>48.2</ele>
        <time>2021-02-07T11:09:09Z</time>
      </trkpt>
      <trkpt lat="43.61153" lon="3.87202">
        <ele>47.9</ele>
        <time>2021-02-07T11:09:10Z</time>
      </trkpt>
      <trkpt lat="43.61158" lon="3.87202">
        <ele>47.6</ele>
        <time>2021-02-07T11:09:11Z</time>
      </trkpt>
      <trkpt lat="43.61163" lon="3.87202">
        <ele>47.4</ele>
        <time>2021-02-07T11:09:12Z</time>
      </trkpt>
      <trkpt lat="43.61169" lon="3.87201">
        <ele>47.2</ele>
        <time>2021-02-07T11:09:13Z</time>
      </trkpt>
      <trkpt lat="43.61176" lon="3.87201">
        <ele>46.8</ele>
        <time>2021-02-07T11:09:14Z</time>
      </trkpt>
      <trkpt lat="43.61182" lon="3.87201">
        <ele>46.4</ele>
        <time>2021-02-07T11:09:15Z</time>
      </trkpt>
      <trkpt lat="43.61188" lon="3.872">
        <ele>46.2</ele>
        <time>2021-02-07T11:09:16Z</time>
      </trkpt>
      <trkpt lat="43.61192" lon="3.87199">
        <ele>59</ele>
        <time>2021-02-07T11:09:17Z</time>
      </trkpt>
      <trkpt lat="43.61195" lon="3.87199">
        <ele>45.8</ele>
        <time>2021-02-07T11:09:18Z</time>
      </trkpt>
      <trkpt lat="43.61198" lon="3.87197">
        <ele>45.5</ele>
        <time>2021-02-07T11:09:19Z</time>
      </trkpt>
      <trkpt lat="43.612" lon="3.87194">
        <ele>45.4</ele>
        <time>2021-02-07T11:09:20Z</time>
      </trkpt>
      <trkpt lat="43.61202" lon="3.8719">
        <ele>45</ele>
        <time>2021-02-07T11:09:21Z</time>
      </trkpt>
      <trkpt lat="43.61203" lon="3.87184">
        <ele>44.6</ele>
        <time>2021-02-07T11:09:22Z</time>
      </trkpt>
      <trkpt lat="43.61204" lon="3.87178">
        <ele>44.2</ele>
        <time>2021-02-07T11:09:23Z</time>
      </trkpt>
      <trkpt lat="43.61204" lon="3.87171">
        <ele>43.8</ele>
        <time>2021-02-07T11:09:24Z</time>
      </trkpt>
      <trkpt lat="43.61205" lon="3.87163">
        <ele>43.5</ele>
        <time>2021-02-07T11:09:25Z</time>
      </trkpt>
      <trkpt lat="43.61205" lon="3.87156">
        <ele>43.5</ele>
        <time>2021-02-07T11:09:26Z</time>
      </trkpt>
      <trkpt lat="43.61206" lon="3.87148">
        <ele>56</ele>
        <time>2021-02-07T11:09:27Z</time>
      </trkpt>
      <trkpt lat="43.61206" lon="3.8714">
        <ele>43.3</ele>
        <time>2021-02-07T11:09:28Z</time>
      </trkpt>
      <trkpt lat="43.61206" lon="3.87132">
        <ele>43.4</ele>
        <time>2021-02-07T11:09:29Z</time>
      </trkpt>
      <trkpt lat="43.61207" lon="3.87125">
        <ele>43.4</ele>
        <time>2021-02-07T11:09:30Z</time>
      </trkpt>
      <trkpt lat="43.61207" lon="3.87117">
        <ele>43.5</ele>
        <time>2021-02-07T11:09:31Z</time>
      </trkpt>
      <trkpt lat="43.61208" lon="3.8711">
        <ele>43.5</ele>
        <time>2021-02-07T11:09:32Z</time>
      </trkpt>
      <trkpt lat="43.61208" lon="3.87102">
        <ele>43.6</ele>
        <time>2021-02-07T11:09:33Z</time>
      </trkpt>
      <trkpt lat="43.61209" lon="3.87095">
        <ele>43.3</ele>
        <time>2021-02-07T11:09:34Z</time>
      </trkpt>
      <trkpt lat="43.6121" lon="3.87087">
        <ele>43</ele>
        <time>2021-02-07T11:09:35Z</time>
      </trkpt>
      <trkpt lat="43.6121" lon="3.8708">
        <ele>43.1</ele>
        <time>2021-02-07T11:09:36Z</time>
      </trkpt>
      <trkpt lat="43.61211" lon="3.87073">
        <ele>54</ele>
        <time>2021-02-07T11:09:37Z</time>
      </trkpt>
      <trkpt lat="43.61212" lon="3.87065">
        <ele>43</ele>
        <time>2021-02-07T11:09:38Z</time>
      </trkpt>
      <trkpt lat="43.61212" lon="3.87058">
        <ele>43.2</ele>
        <time>2021-02-07T11:09:39Z</time>
      </trkpt>
      <trkpt lat="43.61212" lon="3.8705">
        <ele>43.3</ele>
        <time>2021-02-07T11:09:40Z</time>
      </trkpt>
      <trkpt lat="43.61213" lon="3.87043">
        <ele>43</ele>
        <time>2021-02-07T11:09:41Z</time>
      </trkpt>
      <trkpt lat="43.61213" lon="3.87035">
        <ele>43</ele>
        <time>2021-02-07T11:09:42Z</time>
      </trkpt>
      <trkpt lat="43.61213" lon="3.87028">
        <ele>43</ele>
        <time>2021-02-07T11:09:43Z</time>
      </trkpt>
      <trkpt lat="43.61213" lon="3.8702">
        <ele>43.2</ele>
        <time>2021-02-07T11:09:44Z</time>
      </trkpt>
      <trkpt lat="43.61214" lon="3.87012">
        <ele>43.1</ele>
        <time>2021-02-07T11:09:45Z</time>
      </trkpt>
      <trkpt lat="43.61214" lon="3.87005">
        <ele>43.2</ele>
        <time>2021-02-07T11:09:46Z</time>
      </trkpt>
      <trkpt lat="43.61215" lon="3.86997">
        <ele>43.1</ele>
        <time>2021-02-07T11:09:47Z</time>
      </trkpt>
      <trkpt lat="43.61215" lon="3.8699">
        <ele>53</ele>
        <time>2021-02-07T11:09:48Z</time>
      </trkpt>
      <trkpt lat="43.61216" lon="3.86982">
        <ele>42.8</ele>
        <time>2021-02-07T11:09:49Z</time>
      </trkpt>
      <trkpt lat="43.61216" lon="3.86975">
        <ele>42.8</ele>
        <time>2021-02-07T11:09:50Z</time>
      </trkpt>
      <trkpt lat="43.61216" lon="3.86967">
        <ele>42.8</ele>
        <time>2021-02-07T11:09:51Z</time>
      </trkpt>
      <trkpt lat="43.61217" lon="3.86959">
        <ele>42.5</ele>
        <time>2021-02-07T11:09:52Z</time>
      </trkpt>
      <trkpt lat="43.61217" lon="3.86952">
        <ele>42.5</ele>
        <time>2021-02-07T11:09:53Z</time>
      </trkpt>
      <trkpt lat="43.61218" lon="3.86944">
        <ele>42.2</ele>
        <time>2021-02-07T11:09:54Z</time>
      </trkpt>
      <trkpt lat="43.61218" lon="3.86937">
        <ele>42.2</ele>
        <time>2021-02-07T11:09:55Z</time>
      </trkpt>
      <trkpt lat="43.61219" lon="3.86929">
        <ele>41.9</ele>
        <time>2021-02-07T11:09:56Z</time>
      </trkpt>
      <trkpt lat="43.6122" lon="3.86921">
        <ele>53</ele>
        <time>2021-02-07T11:09:57Z</time>
      </trkpt>
      <trkpt lat="43.61221" lon="3.86913">
        <ele>41.3</ele>
        <time>2021-02-07T11:09:58Z</time>
      </trkpt>
      <trkpt lat="43.61222" lon="3.86905">
        <ele>41.1</ele>
        <time>2021-02-07T11:09:59Z</time>
      </trkpt>
      <trkpt lat="43.61223" lon="3.86897">
        <ele>40.9</ele>
        <time>2021-02-07T11:10:00Z</time>
      </trkpt>
      <trkpt lat="43.61223" lon="3.86888">
        <ele>40.9</ele>
        <time>2021-02-07T11:10:01Z</time>
      </trkpt>
      <trkpt lat="43.61223" lon="3.8688">
        <ele>40.9</ele>
        <time>2021-02-07T11:10:02Z</time>
      </trkpt>
      <trkpt lat="43.61224" lon="3.86871">
        <ele>40.8</ele>
        <time>2021-02-07T11:10:03Z</time>
      </trkpt>
      <trkpt lat="43.61224" lon="3.86863">
        <ele>40.8</ele>
        <time>2021-02-07T11:10:04Z</time>
      </trkpt>
      <trkpt lat="43.61225" lon="3.86855">
        <ele>40.5</ele>
        <time>2021-02-07T11:10:05Z</time>
      </trkpt>
      <trkpt lat="43.61225" lon="3.86848">
        <ele>40.3</ele>
        <time>2021-02-07T11:10:06Z</time>
      </trkpt>
      <trkpt lat="43.61226" lon="3.86842">
        <ele>52</ele>
        <time>2021-02-07T11:10:07Z</time>
      </trkpt>
      <trkpt lat="43.61226" lon="3.86837">
        <ele>39.8</ele>
        <time>2021-02-07T11:10:08Z</time>
      </trkpt>
      <trkpt lat="43.61226" lon="3.86834">
        <ele>39.7</ele>
        <time>2021-02-07T11:10:09Z</time>
      </trkpt>
      <trkpt lat="43.61227" lon="3.8683">
        <ele>39.4</ele>
        <time>2021-02-07T11:10:11Z</time>
      </trkpt>
      <trkpt lat="43.61228" lon="3.86828">
        <ele>39.2</ele>
        <time>2021-02-07T11:10:12Z</time>
      </trkpt>
      <trkpt lat="43.61229" lon="3.86825">
        <ele>39</ele>
        <time>2021-02-07T11:10:13Z</time>
      </trkpt>
      <trkpt lat="43.6123" lon="3.86822">
        <ele>38.7</ele>
        <time>2021-02-07T11:10:14Z</time>
      </trkpt>
      <trkpt lat="43.61231" lon="3.86818">
        <ele>38.4</ele>
        <time>2021-02-07T11:10:15Z</time>
      </trkpt>
      <trkpt lat="43.61233" lon="3.86814">
        <ele>38.1</ele>
        <time>2021-02-07T11:10:16Z</time>
      </trkpt>
      <trkpt lat="43.61235" lon="3.86809">
        <ele>49</ele>
        <time>2021-02-07T11:10:17Z</time>
      </trkpt>
      <trkpt lat="43.61237" lon="3.86804">
        <ele>37.4</ele>
        <time>2021-02-07T11:10:18Z</time>
      </trkpt>
      <trkpt lat="43.61241" lon="3.86798">
        <ele>37.1</ele>
        <time>2021-02-07T11:10:19Z</time>
      </trkpt>
      <trkpt lat="43.61245" lon="3.86792">
        <ele>36.7</ele>
        <time>2021-02-07T11:10:20Z</time>
      </trkpt>
      <trkpt lat="43.61249" lon="3.86786">
        <ele>36.3</ele>
        <time>2021-02-07T11:10:21Z</time>
      </trkpt>
      <trkpt lat="43.61255" lon="3.86781">
        <ele>35.8</ele>
        <time>2021-02-07T11:10:22Z</time>
      </trkpt>
      <trkpt lat="43.61261" lon="3.86776">
        <ele>35.2</ele>
        <time>2021-02-07T11:10:23Z</time>
      </trkpt>
      <trkpt lat="43.61266" lon="3.86769">
        <ele>34.7</ele>
        <time>2021-02-07T11:10:24Z</time>
      </trkpt>
      <trkpt lat="43.6127" lon="3.86763">
        <ele>34.2</ele>
        <time>2021-02-07T11:10:25Z</time>
      </trkpt>
      <trkpt lat="43.61274" lon="3.86757">
        <ele>33.6</ele>
        <time>2021-02-07T11:10:26Z</time>
      </trkpt>
      <trkpt lat="43.61277" lon="3.86753">
        <ele>33.2</ele>
        <time>2021-02-07T11:10:27Z</time>
      </trkpt>
      <trkpt lat="43.6128" lon="3.86748">
        <ele>49</ele>
        <time>2021-02-07T11:10:28Z</time>
      </trkpt>
      <trkpt lat="43.61281" lon="3.86746">
        <ele>33</ele>
        <time>2021-02-07T11:10:29Z</time>
      </trkpt>
      <trkpt lat="43.61283" lon="3.86742">
        <ele>33</ele>
        <time>2021-02-07T11:10:31Z</time>
      </trkpt>
      <trkpt lat="43.61286" lon="3.86738">
        <ele>33</ele>
        <time>2021-02-07T11:10:33Z</time>
      </trkpt>
      <trkpt lat="43.61289" lon="3.86734">
        <ele>33</ele>
        <time>2021-02-07T11:10:34Z</time>
      </trkpt>
      <trkpt lat="43.61292" lon="3.86729">
        <ele>33</ele>
        <time>2021-02-07T11:10:35Z</time>
      </trkpt>
      <trkpt lat="43.61296" lon="3.86724">
        <ele>33</ele>
        <time>2021-02-07T11:10:36Z</time>
      </trkpt>
      <trkpt lat="43.613" lon="3.8672">
        <ele>33</ele>
        <time>2021-02-07T11:10:38Z</time>
      </trkpt>
      <trkpt lat="43.61302" lon="3.86715">
        <ele>33</ele>
        <time>2021-02-07T11:10:39Z</time>
      </trkpt>
      <trkpt lat="43.61305" lon="3.8671">
        <ele>33</ele>
        <time>2021-02-07T11:10:40Z</time>
      </trkpt>
      <trkpt lat="43.61308" lon="3.86704">
        <ele>33</ele>
        <time>2021-02-07T11:10:41Z</time>
      </trkpt>
      <trkpt lat="43.61312" lon="3.86699">
        <ele>33</ele>
        <time>2021-02-07T11:10:42Z</time>
      </trkpt>
      <trkpt lat="43.61315" lon="3.86694">
        <ele>33</ele>
        <time>2021-02-07T11:10:43Z</time>
      </trkpt>
      <trkpt lat="43.61319" lon="3.86689">
        <ele>32.9</ele>
        <time>2021-02-07T11:10:44Z</time>
      </trkpt>
      <trkpt lat="43.61321" lon="3.86683">
        <ele>32.8</ele>
        <time>2021-02-07T11:10:45Z</time>
      </trkpt>
      <trkpt lat="43.61324" lon="3.86678">
        <ele>32.6</ele>
        <time>2021-02-07T11:10:46Z</time>
      </trkpt>
      <trkpt lat="43.61326" lon="3.86673">
        <ele>50</ele>
        <time>2021-02-07T11:10:47Z</time>
      </trkpt>
      <trkpt lat="43.61329" lon="3.86668">
        <ele>32.2</ele>
        <time>2021-02-07T11:10:48Z</time>
      </trkpt>
      <trkpt lat="43.61331" lon="3.86665">
        <ele>32.1</ele>
        <time>2021-02-07T11:10:49Z</time>
      </trkpt>
      <trkpt lat="43.61333" lon="3.86662">
        <ele>32.2</ele>
        <time>2021-02-07T11:10:50Z</time>
      </trkpt>
      <trkpt lat="43.61336" lon="3.86659">
        <ele>32.3</ele>
        <time>2021-02-07T11:10:51Z</time>
      </trkpt>
      <trkpt lat="43.61338" lon="3.86655">
        <ele>32.4</ele>
        <time>2021-02-07T11:10:52Z</time>
      </trkpt>
      <trkpt lat="43.61341" lon="3.86651">
        <ele>32.6</ele>
        <time>2021-02-07T11:10:53Z</time>
      </trkpt>
      <trkpt lat="43.61344" lon="3.86646">
        <ele>32.7</ele>
        <time>2021-02-07T11:10:54Z</time>
      </trkpt>
      <trkpt lat="43.61347" lon="3.86641">
        <ele>32.9</ele>
        <time>2021-02-07T11:10:55Z</time>
      </trkpt>
      <trkpt lat="43.61349" lon="3.86636">
        <ele>32.9</ele>
        <time>2021-02-07T11:10:56Z</time>
      </trkpt>
      <trkpt lat="43.61352" lon="3.86632">
        <ele>52</ele>
        <time>2021-02-07T11:10:57Z</time>
      </trkpt>
      <trkpt lat="43.61355" lon="3.86628">
        <ele>32.7</ele>
        <time>2021-02-07T11:10:58Z</time>
      </trkpt>
      <trkpt lat="43.61359" lon="3.86624">
        <ele>32.5</ele>
        <time>2021-02-07T11:10:59Z</time>
      </trkpt>
      <trkpt lat="43.61362" lon="3.8662">
        <ele>32.4</ele>
        <time>2021-02-07T11:11:00Z</time>
      </trkpt>
      <trkpt lat="43.61366" lon="3.86615">
        <ele>32.5</ele>
        <time>2021-02-07T11:11:01Z</time>
      </trkpt>
      <trkpt lat="43.61369" lon="3.86611">
        <ele>32.6</ele>
        <time>2021-02-07T11:11:02Z</time>
      </trkpt>
      <trkpt lat="43.61372" lon="3.86606">
        <ele>32.8</ele>
        <time>2021-02-07T11:11:03Z</time>
      </trkpt>
      <trkpt lat="43.61375" lon="3.86601">
        <ele>32.8</ele>
        <time>2021-02-07T11:11:04Z</time>
      </trkpt>
      <trkpt lat="43.61377" lon="3.86596">
        <ele>32.8</ele>
        <time>2021-02-07T11:11:05Z</time>
      </trkpt>
      <trkpt lat="43.6138" lon="3.8659">
        <ele>32.6</ele>
        <time>2021-02-07T11:11:06Z</time>
      </trkpt>
      <trkpt lat="43.61383" lon="3.86585">
        <ele>50</ele>
        <time>2021-02-07T11:11:07Z</time>
      </trkpt>
      <trkpt lat="43.61387" lon="3.8658">
        <ele>32.2</ele>
        <time>2021-02-07T11:11:08Z</time>
      </trkpt>
      <trkpt lat="43.6139" lon="3.86576">
        <ele>32.3</ele>
        <time>2021-02-07T11:11:09Z</time>
      </trkpt>
      <trkpt lat="43.61394" lon="3.86572">
        <ele>32.6</ele>
        <time>2021-02-07T11:11:10Z</time>
      </trkpt>
      <trkpt lat="43.61398" lon="3.86568">
        <ele>32.8</ele>
        <time>2021-02-07T11:11:11Z</time>
      </trkpt>
      <trkpt lat="43.61402" lon="3.86564">
        <ele>33</ele>
        <time>2021-02-07T11:11:12Z</time>
      </trkpt>
      <trkpt lat="43.61405" lon="3.86559">
        <ele>33</ele>
        <time>2021-02-07T11:11:13Z</time>
      </trkpt>
      <trkpt lat="43.61408" lon="3.86554">
        <ele>33</ele>
        <time>2021-02-07T11:11:14Z</time>
      </trkpt>
      <trkpt lat="43.61412" lon="3.8655">
        <ele>33</ele>
        <time>2021-02-07T11:11:15Z</time>
      </trkpt>
      <trkpt lat="43.61415" lon="3.86545">
        <ele>33</ele>
        <time>2021-02-07T11:11:16Z</time>
      </trkpt>
      <trkpt lat="43.61418" lon="3.8654">
        <ele>33.1</ele>
        <time>2021-02-07T11:11:17Z</time>
      </trkpt>
      <trkpt lat="43.61425" lon="3.86531">
        <ele>50</ele>
        <time>2021-02-07T11:11:18Z</time>
      </trkpt>
      <trkpt lat="43.61428" lon="3.86527">
        <ele>33.4</ele>
        <time>2021-02-07T11:11:19Z</time>
      </trkpt>
      <trkpt lat="43.61431" lon="3.86522">
        <ele>33.5</ele>
        <time>2021-02-07T11:11:20Z</time>
      </trkpt>
      <trkpt lat="43.61434" lon="3.86517">
        <ele>33.6</ele>
        <time>2021-02-07T11:11:21Z</time>
      </trkpt>
      <trkpt lat="43.61437" lon="3.86512">
        <ele>33.7</ele>
        <time>2021-02-07T11:11:22Z</time>
      </trkpt>
      <trkpt lat="43.61439" lon="3.86507">
        <ele>33.8</ele>
        <time>2021-02-07T11:11:23Z</time>
      </trkpt>
      <trkpt lat="43.61442" lon="3.86502">
        <ele>33.9</ele>
        <time>2021-02-07T11:11:24Z</time>
      </trkpt>
      <trkpt lat="43.61446" lon="3.86497">
        <ele>34.1</ele>
        <time>2021-02-07T11:11:25Z</time>
      </trkpt>
      <trkpt lat="43.6145" lon="3.86493">
        <ele>34.2</ele>
        <time>2021-02-07T11:11:26Z</time>
      </trkpt>
      <trkpt lat="43.61453" lon="3.86488">
        <ele>34.3</ele>
        <time>2021-02-07T11:11:28Z</time>
      </trkpt>
      <trkpt lat="43.61457" lon="3.86483">
        <ele>34.3</ele>
        <time>2021-02-07T11:11:29Z</time>
      </trkpt>
      <trkpt lat="43.6146" lon="3.86479">
        <ele>34.3</ele>
        <time>2021-02-07T11:11:30Z</time>
      </trkpt>
      <trkpt lat="43.61462" lon="3.86475">
        <ele>34.3</ele>
        <time>2021-02-07T11:11:31Z</time>
      </trkpt>
      <trkpt lat="43.61465" lon="3.86471">
        <ele>34.3</ele>
        <time>2021-02-07T11:11:32Z</time>
      </trkpt>
      <trkpt lat="43.61468" lon="3.86467">
        <ele>34.3</ele>
        <time>2021-02-07T11:11:33Z</time>
      </trkpt>
      <trkpt lat="43.61471" lon="3.86462">
        <ele>34.4</ele>
        <time>2021-02-07T11:11:34Z</time>
      </trkpt>
      <trkpt lat="43.61475" lon="3.86456">
        <ele>34.6</ele>
        <time>2021-02-07T11:11:35Z</time>
      </trkpt>
      <trkpt lat="43.61478" lon="3.86452">
        <ele>34.8</ele>
        <time>2021-02-07T11:11:36Z</time>
      </trkpt>
      <trkpt lat="43.61482" lon="3.86447">
        <ele>48</ele>
        <time>2021-02-07T11:11:37Z</time>
      </trkpt>
      <trkpt lat="43.61486" lon="3.86442">
        <ele>35</ele>
        <time>2021-02-07T11:11:38Z</time>
      </trkpt>
      <trkpt lat="43.61489" lon="3.86437">
        <ele>35</ele>
        <time>2021-02-07T11:11:39Z</time>
      </trkpt>
      <trkpt lat="43.61491" lon="3.86432">
        <ele>35</ele>
        <time>2021-02-07T11:11:40Z</time>
      </trkpt>
      <trkpt lat="43.61494" lon="3.86428">
        <ele>35</ele>
        <time>2021-02-07T11:11:41Z</time>
      </trkpt>
      <trkpt lat="43.61499" lon="3.86424">
        <ele>35</ele>
        <time>2021-02-07T11:11:42Z</time>
      </trkpt>
      <trkpt lat="43.61503" lon="3.8642">
        <ele>35.1</ele>
        <time>2021-02-07T11:11:43Z</time>
      </trkpt>
      <trkpt lat="43.61506" lon="3.86416">
        <ele>35.2</ele>
        <time>2021-02-07T11:11:44Z</time>
      </trkpt>
      <trkpt lat="43.61509" lon="3.86411">
        <ele>35.5</ele>
        <time>2021-02-07T11:11:45Z</time>
      </trkpt>
      <trkpt lat="43.61512" lon="3.86407">
        <ele>35.6</ele>
        <time>2021-02-07T11:11:46Z</time>
      </trkpt>
      <trkpt lat="43.61515" lon="3.86402">
        <ele>48</ele>
        <time>2021-02-07T11:11:47Z</time>
      </trkpt>
      <trkpt lat="43.61517" lon="3.86397">
        <ele>35.9</ele>
        <time>2021-02-07T11:11:48Z</time>
      </trkpt>
      <trkpt lat="43.61521" lon="3.86393">
        <ele>36</ele>
        <time>2021-02-07T11:11:49Z</time>
      </trkpt>
      <trkpt lat="43.61524" lon="3.86389">
        <ele>36</ele>
        <time>2021-02-07T11:11:50Z</time>
      </trkpt>
      <trkpt lat="43.61527" lon="3.86385">
        <ele>36</ele>
        <time>2021-02-07T11:11:51Z</time>
      </trkpt>
      <trkpt lat="43.6153" lon="3.8638">
        <ele>36</ele>
        <time>2021-02-07T11:11:52Z</time>
      </trkpt>
      <trkpt lat="43.61533" lon="3.86377">
        <ele>36</ele>
        <time>2021-02-07T11:11:53Z</time>
      </trkpt>
      <trkpt lat="43.61536" lon="3.86372">
        <ele>36</ele>
        <time>2021-02-07T11:11:54Z</time>
      </trkpt>
      <trkpt lat="43.61539" lon="3.86368">
        <ele>36</ele>
        <time>2021-02-07T11:11:55Z</time>
      </trkpt>
      <trkpt lat="43.61542" lon="3.86364">
        <ele>36</ele>
        <time>2021-02-07T11:11:56Z</time>
      </trkpt>
      <trkpt lat="43.61545" lon="3.86359">
        <ele>47</ele>
        <time>2021-02-07T11:11:57Z</time>
      </trkpt>
      <trkpt lat="43.61548" lon="3.86355">
        <ele>36</ele>
        <time>2021-02-07T11:11:58Z</time>
      </trkpt>
      <trkpt lat="43.61551" lon="3.86351">
        <ele>36</ele>
        <time>2021-02-07T11:11:59Z</time>
      </trkpt>
      <trkpt lat="43.61554" lon="3.86347">
        <ele>36</ele>
        <time>2021-02-07T11:12:00Z</time>
      </trkpt>
      <trkpt lat="43.61557" lon="3.86343">
        <ele>36.1</ele>
        <time>2021-02-07T11:12:01Z</time>
      </trkpt>
      <trkpt lat="43.6156" lon="3.86339">
        <ele>36.2</ele>
        <time>2021-02-07T11:12:02Z</time>
      </trkpt>
      <trkpt lat="43.61563" lon="3.86334">
        <ele>36.3</ele>
        <time>2021-02-07T11:12:03Z</time>
      </trkpt>
      <trkpt lat="43.61566" lon="3.8633">
        <ele>36.5</ele>
        <time>2021-02-07T11:12:04Z</time>
      </trkpt>
      <trkpt lat="43.61569" lon="3.86326">
        <ele>36.6</ele>
        <time>2021-02-07T11:12:05Z</time>
      </trkpt>
      <trkpt lat="43.61572" lon="3.86322">
        <ele>36.8</ele>
        <time>2021-02-07T11:12:06Z</time>
      </trkpt>
      <trkpt lat="43.61575" lon="3.86318">
        <ele>46</ele>
        <time>2021-02-07T11:12:07Z</time>
      </trkpt>
      <trkpt lat="43.61578" lon="3.86313">
        <ele>36.9</ele>
        <time>2021-02-07T11:12:08Z</time>
      </trkpt>
      <trkpt lat="43.61581" lon="3.86309">
        <ele>37</ele>
        <time>2021-02-07T11:12:09Z</time>
      </trkpt>
      <trkpt lat="43.61584" lon="3.86305">
        <ele>37</ele>
        <time>2021-02-07T11:12:10Z</time>
      </trkpt>
      <trkpt lat="43.61587" lon="3.863">
        <ele>37.1</ele>
        <time>2021-02-07T11:12:11Z</time>
      </trkpt>
      <trkpt lat="43.6159" lon="3.86296">
        <ele>37.2</ele>
        <time>2021-02-07T11:12:12Z</time>
      </trkpt>
      <trkpt lat="43.61592" lon="3.86291">
        <ele>37.3</ele>
        <time>2021-02-07T11:12:13Z</time>
      </trkpt>
      <trkpt lat="43.61596" lon="3.86288">
        <ele>37.5</ele>
        <time>2021-02-07T11:12:14Z</time>
      </trkpt>
      <trkpt lat="43.61598" lon="3.86284">
        <ele>37.5</ele>
        <time>2021-02-07T11:12:15Z</time>
      </trkpt>
      <trkpt lat="43.61602" lon="3.8628">
        <ele>37.7</ele>
        <time>2021-02-07T11:12:16Z</time>
      </trkpt>
      <trkpt lat="43.61605" lon="3.86275">
        <ele>37.8</ele>
        <time>2021-02-07T11:12:17Z</time>
      </trkpt>
      <trkpt lat="43.61608" lon="3.86271">
        <ele>46</ele>
        <time>2021-02-07T11:12:18Z</time>
      </trkpt>
      <trkpt lat="43.61611" lon="3.86267">
        <ele>38</ele>
        <time>2021-02-07T11:12:19Z</time>
      </trkpt>
      <trkpt lat="43.61613" lon="3.86263">
        <ele>38</ele>
        <time>2021-02-07T11:12:20Z</time>
      </trkpt>
      <trkpt lat="43.61616" lon="3.86259">
        <ele>38</ele>
        <time>2021-02-07T11:12:21Z</time>
      </trkpt>
      <trkpt lat="43.61619" lon="3.86255">
        <ele>38</ele>
        <time>2021-02-07T11:12:22Z</time>
      </trkpt>
      <trkpt lat="43.61622" lon="3.8625">
        <ele>38</ele>
        <time>2021-02-07T11:12:23Z</time>
      </trkpt>
      <trkpt lat="43.61625" lon="3.86246">
        <ele>38.1</ele>
        <time>2021-02-07T11:12:24Z</time>
      </trkpt>
      <trkpt lat="43.61628" lon="3.86241">
        <ele>38.3</ele>
        <time>2021-02-07T11:12:25Z</time>
      </trkpt>
      <trkpt lat="43.61631" lon="3.86237">
        <ele>38.5</ele>
        <time>2021-02-07T11:12:26Z</time>
      </trkpt>
      <trkpt lat="43.61634" lon="3.86233">
        <ele>46</ele>
        <time>2021-02-07T11:12:27Z</time>
      </trkpt>
      <trkpt lat="43.61637" lon="3.86229">
        <ele>38.8</ele>
        <time>2021-02-07T11:12:28Z</time>
      </trkpt>
      <trkpt lat="43.61639" lon="3.86224">
        <ele>38.9</ele>
        <time>2021-02-07T11:12:29Z</time>
      </trkpt>
      <trkpt lat="43.61642" lon="3.8622">
        <ele>38.9</ele>
        <time>2021-02-07T11:12:30Z</time>
      </trkpt>
      <trkpt lat="43.61645" lon="3.86217">
        <ele>38.9</ele>
        <time>2021-02-07T11:12:31Z</time>
      </trkpt>
      <trkpt lat="43.61648" lon="3.86213">
        <ele>38.8</ele>
        <time>2021-02-07T11:12:32Z</time>
      </trkpt>
      <trkpt lat="43.6165" lon="3.86208">
        <ele>38.7</ele>
        <time>2021-02-07T11:12:33Z</time>
      </trkpt>
      <trkpt lat="43.61652" lon="3.86204">
        <ele>38.7</ele>
        <time>2021-02-07T11:12:34Z</time>
      </trkpt>
      <trkpt lat="43.61655" lon="3.86199">
        <ele>38.6</ele>
        <time>2021-02-07T11:12:35Z</time>
      </trkpt>
      <trkpt lat="43.61658" lon="3.86196">
        <ele>38.7</ele>
        <time>2021-02-07T11:12:36Z</time>
      </trkpt>
      <trkpt lat="43.61661" lon="3.86192">
        <ele>46</ele>
        <time>2021-02-07T11:12:37Z</time>
      </trkpt>
      <trkpt lat="43.61663" lon="3.86188">
        <ele>38.9</ele>
        <time>2021-02-07T11:12:38Z</time>
      </trkpt>
      <trkpt lat="43.61666" lon="3.86184">
        <ele>39</ele>
        <time>2021-02-07T11:12:39Z</time>
      </trkpt>
      <trkpt lat="43.61669" lon="3.86179">
        <ele>39.1</ele>
        <time>2021-02-07T11:12:40Z</time>
      </trkpt>
      <trkpt lat="43.61671" lon="3.86175">
        <ele>39.2</ele>
        <time>2021-02-07T11:12:41Z</time>
      </trkpt>
      <trkpt lat="43.61674" lon="3.86171">
        <ele>39.3</ele>
        <time>2021-02-07T11:12:42Z</time>
      </trkpt>
      <trkpt lat="43.61676" lon="3.86167">
        <ele>39.3</ele>
        <time>2021-02-07T11:12:43Z</time>
      </trkpt>
      <trkpt lat="43.61679" lon="3.86163">
        <ele>39.4</ele>
        <time>2021-02-07T11:12:44Z</time>
      </trkpt>
      <trkpt lat="43.61682" lon="3.8616">
        <ele>39.6</ele>
        <time>2021-02-07T11:12:45Z</time>
      </trkpt>
      <trkpt lat="43.61685" lon="3.86156">
        <ele>39.7</ele>
        <time>2021-02-07T11:12:46Z</time>
      </trkpt>
      <trkpt lat="43.61688" lon="3.86152">
        <ele>46</ele>
        <time>2021-02-07T11:12:47Z</time>
      </trkpt>
      <trkpt lat="43.6169" lon="3.86148">
        <ele>39.8</ele>
        <time>2021-02-07T11:12:48Z</time>
      </trkpt>
      <trkpt lat="43.61692" lon="3.86145">
        <ele>39.9</ele>
        <time>2021-02-07T11:12:49Z</time>
      </trkpt>
      <trkpt lat="43.61694" lon="3.86142">
        <ele>40</ele>
        <time>2021-02-07T11:12:50Z</time>
      </trkpt>
      <trkpt lat="43.61696" lon="3.8614">
        <ele>40.1</ele>
        <time>2021-02-07T11:12:51Z</time>
      </trkpt>
      <trkpt lat="43.61697" lon="3.86137">
        <ele>40.2</ele>
        <time>2021-02-07T11:12:52Z</time>
      </trkpt>
      <trkpt lat="43.617" lon="3.86135">
        <ele>40.4</ele>
        <time>2021-02-07T11:12:54Z</time>
      </trkpt>
      <trkpt lat="43.61702" lon="3.86133">
        <ele>40.5</ele>
        <time>2021-02-07T11:12:58Z</time>
      </trkpt>
      <trkpt lat="43.61704" lon="3.86132">
        <ele>40.6</ele>
        <time>2021-02-07T11:13:00Z</time>
      </trkpt>
      <trkpt lat="43.61706" lon="3.8613">
        <ele>40.7</ele>
        <time>2021-02-07T11:13:01Z</time>
      </trkpt>
      <trkpt lat="43.61708" lon="3.86127">
        <ele>40.8</ele>
        <time>2021-02-07T11:13:02Z</time>
      </trkpt>
      <trkpt lat="43.61709" lon="3.86123">
        <ele>40.7</ele>
        <time>2021-02-07T11:13:03Z</time>
      </trkpt>
      <trkpt lat="43.61711" lon="3.86118">
        <ele>40.7</ele>
        <time>2021-02-07T11:13:04Z</time>
      </trkpt>
      <trkpt lat="43.61713" lon="3.86114">
        <ele>40.7</ele>
        <time>2021-02-07T11:13:05Z</time>
      </trkpt>
      <trkpt lat="43.61715" lon="3.86109">
        <ele>40.8</ele>
        <time>2021-02-07T11:13:06Z</time>
      </trkpt>
      <trkpt lat="43.61718" lon="3.86105">
        <ele>46</ele>
        <time>2021-02-07T11:13:07Z</time>
      </trkpt>
      <trkpt lat="43.6172" lon="3.86101">
        <ele>40.9</ele>
        <time>2021-02-07T11:13:08Z</time>
      </trkpt>
      <trkpt lat="43.61723" lon="3.86098">
        <ele>41.1</ele>
        <time>2021-02-07T11:13:09Z</time>
      </trkpt>
      <trkpt lat="43.61726" lon="3.86094">
        <ele>41.3</ele>
        <time>2021-02-07T11:13:10Z</time>
      </trkpt>
      <trkpt lat="43.61728" lon="3.8609">
        <ele>41.4</ele>
        <time>2021-02-07T11:13:11Z</time>
      </trkpt>
      <trkpt lat="43.61731" lon="3.86086">
        <ele>41.6</ele>
        <time>2021-02-07T11:13:12Z</time>
      </trkpt>
      <trkpt lat="43.61734" lon="3.86082">
        <ele>41.9</ele>
        <time>2021-02-07T11:13:13Z</time>
      </trkpt>
      <trkpt lat="43.61736" lon="3.86079">
        <ele>42</ele>
        <time>2021-02-07T11:13:14Z</time>
      </trkpt>
      <trkpt lat="43.61739" lon="3.86075">
        <ele>42.1</ele>
        <time>2021-02-07T11:13:15Z</time>
      </trkpt>
      <trkpt lat="43.61742" lon="3.86071">
        <ele>42.2</ele>
        <time>2021-02-07T11:13:16Z</time>
      </trkpt>
      <trkpt lat="43.61744" lon="3.86067">
        <ele>46</ele>
        <time>2021-02-07T11:13:17Z</time>
      </trkpt>
      <trkpt lat="43.61747" lon="3.86064">
        <ele>42.2</ele>
        <time>2021-02-07T11:13:18Z</time>
      </trkpt>
      <trkpt lat="43.61749" lon="3.8606">
        <ele>42.1</ele>
        <time>2021-02-07T11:13:19Z</time>
      </trkpt>
      <trkpt lat="43.61752" lon="3.86056">
        <ele>42.2</ele>
        <time>2021-02-07T11:13:20Z</time>
      </trkpt>
      <trkpt lat="43.61754" lon="3.86052">
        <ele>42.3</ele>
        <time>2021-02-07T11:13:21Z</time>
      </trkpt>
      <trkpt lat="43.61757" lon="3.86049">
        <ele>42.4</ele>
        <time>2021-02-07T11:13:22Z</time>
      </trkpt>
      <trkpt lat="43.61759" lon="3.86045">
        <ele>42.5</ele>
        <time>2021-02-07T11:13:23Z</time>
      </trkpt>
      <trkpt lat="43.61762" lon="3.86041">
        <ele>42.6</ele>
        <time>2021-02-07T11:13:24Z</time>
      </trkpt>
      <trkpt lat="43.61765" lon="3.86037">
        <ele>42.7</ele>
        <time>2021-02-07T11:13:25Z</time>
      </trkpt>
      <trkpt lat="43.61768" lon="3.86033">
        <ele>42.8</ele>
        <time>2021-02-07T11:13:26Z</time>
      </trkpt>
      <trkpt lat="43.61771" lon="3.8603">
        <ele>42.8</ele>
        <time>2021-02-07T11:13:27Z</time>
      </trkpt>
      <trkpt lat="43.61773" lon="3.86026">
        <ele>47</ele>
        <time>2021-02-07T11:13:28Z</time>
      </trkpt>
      <trkpt lat="43.61776" lon="3.86022">
        <ele>42.7</ele>
        <time>2021-02-07T11:13:29Z</time>
      </trkpt>
      <trkpt lat="43.61779" lon="3.86017">
        <ele>42.7</ele>
        <time>2021-02-07T11:13:30Z</time>
      </trkpt>
      <trkpt lat="43.61782" lon="3.86013">
        <ele>42.7</ele>
        <time>2021-02-07T11:13:31Z</time>
      </trkpt>
      <trkpt lat="43.61785" lon="3.86009">
        <ele>42.7</ele>
        <time>2021-02-07T11:13:32Z</time>
      </trkpt>
      <trkpt lat="43.61788" lon="3.86005">
        <ele>42.6</ele>
        <time>2021-02-07T11:13:33Z</time>
      </trkpt>
      <trkpt lat="43.61791" lon="3.86">
        <ele>42.5</ele>
        <time>2021-02-07T11:13:34Z</time>
      </trkpt>
      <trkpt lat="43.61794" lon="3.85995">
        <ele>42.4</ele>
        <time>2021-02-07T11:13:35Z</time>
      </trkpt>
      <trkpt lat="43.61797" lon="3.8599">
        <ele>42.2</ele>
        <time>2021-02-07T11:13:36Z</time>
      </trkpt>
      <trkpt lat="43.618" lon="3.85985">
        <ele>41.9</ele>
        <time>2021-02-07T11:13:37Z</time>
      </trkpt>
      <trkpt lat="43.61807" lon="3.85974">
        <ele>47</ele>
        <time>2021-02-07T11:13:38Z</time>
      </trkpt>
      <trkpt lat="43.61811" lon="3.85969">
        <ele>41.1</ele>
        <time>2021-02-07T11:13:39Z</time>
      </trkpt>
      <trkpt lat="43.61815" lon="3.85964">
        <ele>41.1</ele>
        <time>2021-02-07T11:13:40Z</time>
      </trkpt>
      <trkpt lat="43.61819" lon="3.85958">
        <ele>41</ele>
        <time>2021-02-07T11:13:41Z</time>
      </trkpt>
      <trkpt lat="43.61823" lon="3.85952">
        <ele>40.8</ele>
        <time>2021-02-07T11:13:42Z</time>
      </trkpt>
      <trkpt lat="43.61827" lon="3.85947">
        <ele>40.5</ele>
        <time>2021-02-07T11:13:43Z</time>
      </trkpt>
      <trkpt lat="43.6183" lon="3.85941">
        <ele>40.1</ele>
        <time>2021-02-07T11:13:44Z</time>
      </trkpt>
      <trkpt lat="43.61835" lon="3.85934">
        <ele>39.6</ele>
        <time>2021-02-07T11:13:45Z</time>
      </trkpt>
      <trkpt lat="43.61839" lon="3.85928">
        <ele>39.4</ele>
        <time>2021-02-07T11:13:46Z</time>
      </trkpt>
      <trkpt lat="43.61844" lon="3.85922">
        <ele>46</ele>
        <time>2021-02-07T11:13:48Z</time>
      </trkpt>
      <trkpt lat="43.61848" lon="3.85916">
        <ele>39.5</ele>
        <time>2021-02-07T11:13:49Z</time>
      </trkpt>
      <trkpt lat="43.61853" lon="3.8591">
        <ele>39.5</ele>
        <time>2021-02-07T11:13:50Z</time>
      </trkpt>
      <trkpt lat="43.61857" lon="3.85905">
        <ele>39.5</ele>
        <time>2021-02-07T11:13:51Z</time>
      </trkpt>
      <trkpt lat="43.61862" lon="3.859">
        <ele>39.4</ele>
        <time>2021-02-07T11:13:52Z</time>
      </trkpt>
      <trkpt lat="43.61867" lon="3.85896">
        <ele>39.1</ele>
        <time>2021-02-07T11:13:53Z</time>
      </trkpt>
      <trkpt lat="43.61871" lon="3.85891">
        <ele>38.7</ele>
        <time>2021-02-07T11:13:54Z</time>
      </trkpt>
      <trkpt lat="43.61877" lon="3.85888">
        <ele>38.4</ele>
        <time>2021-02-07T11:13:55Z</time>
      </trkpt>
      <trkpt lat="43.61883" lon="3.85884">
        <ele>38.2</ele>
        <time>2021-02-07T11:13:56Z</time>
      </trkpt>
      <trkpt lat="43.61889" lon="3.85881">
        <ele>46</ele>
        <time>2021-02-07T11:13:57Z</time>
      </trkpt>
      <trkpt lat="43.61895" lon="3.85879">
        <ele>37.8</ele>
        <time>2021-02-07T11:13:58Z</time>
      </trkpt>
      <trkpt lat="43.61902" lon="3.85876">
        <ele>37.5</ele>
        <time>2021-02-07T11:13:59Z</time>
      </trkpt>
      <trkpt lat="43.61907" lon="3.85875">
        <ele>37.3</ele>
        <time>2021-02-07T11:14:00Z</time>
      </trkpt>
      <trkpt lat="43.61913" lon="3.85873">
        <ele>37.1</ele>
        <time>2021-02-07T11:14:01Z</time>
      </trkpt>
      <trkpt lat="43.61919" lon="3.85871">
        <ele>36.9</ele>
        <time>2021-02-07T11:14:02Z</time>
      </trkpt>
      <trkpt lat="43.61925" lon="3.85868">
        <ele>36.7</ele>
        <time>2021-02-07T11:14:03Z</time>
      </trkpt>
      <trkpt lat="43.6193" lon="3.85864">
        <ele>36.5</ele>
        <time>2021-02-07T11:14:04Z</time>
      </trkpt>
      <trkpt lat="43.61935" lon="3.85861">
        <ele>36.3</ele>
        <time>2021-02-07T11:14:05Z</time>
      </trkpt>
      <trkpt lat="43.61941" lon="3.8586">
        <ele>36.1</ele>
        <time>2021-02-07T11:14:06Z</time>
      </trkpt>
      <trkpt lat="43.61946" lon="3.85861">
        <ele>45</ele>
        <time>2021-02-07T11:14:07Z</time>
      </trkpt>
      <trkpt lat="43.61952" lon="3.85863">
        <ele>35.7</ele>
        <time>2021-02-07T11:14:08Z</time>
      </trkpt>
      <trkpt lat="43.61957" lon="3.85864">
        <ele>35.5</ele>
        <time>2021-02-07T11:14:09Z</time>
      </trkpt>
      <trkpt lat="43.61962" lon="3.85865">
        <ele>35.4</ele>
        <time>2021-02-07T11:14:10Z</time>
      </trkpt>
      <trkpt lat="43.61967" lon="3.85866">
        <ele>35.2</ele>
        <time>2021-02-07T11:14:11Z</time>
      </trkpt>
      <trkpt lat="43.61972" lon="3.85868">
        <ele>35</ele>
        <time>2021-02-07T11:14:12Z</time>
      </trkpt>
      <trkpt lat="43.61977" lon="3.85868">
        <ele>35</ele>
        <time>2021-02-07T11:14:13Z</time>
      </trkpt>
      <trkpt lat="43.61982" lon="3.85869">
        <ele>35</ele>
        <time>2021-02-07T11:14:14Z</time>
      </trkpt>
      <trkpt lat="43.61988" lon="3.85869">
        <ele>35</ele>
        <time>2021-02-07T11:14:15Z</time>
      </trkpt>
      <trkpt lat="43.61993" lon="3.85868">
        <ele>35</ele>
        <time>2021-02-07T11:14:16Z</time>
      </trkpt>
      <trkpt lat="43.61998" lon="3.85867">
        <ele>46</ele>
        <time>2021-02-07T11:14:17Z</time>
      </trkpt>
      <trkpt lat="43.62003" lon="3.85865">
        <ele>34.9</ele>
        <time>2021-02-07T11:14:18Z</time>
      </trkpt>
      <trkpt lat="43.62008" lon="3.85864">
        <ele>34.7</ele>
        <time>2021-02-07T11:14:19Z</time>
      </trkpt>
      <trkpt lat="43.62013" lon="3.85862">
        <ele>34.5</ele>
        <time>2021-02-07T11:14:20Z</time>
      </trkpt>
      <trkpt lat="43.62019" lon="3.85858">
        <ele>34.3</ele>
        <time>2021-02-07T11:14:21Z</time>
      </trkpt>
      <trkpt lat="43.62024" lon="3.85855">
        <ele>34.1</ele>
        <time>2021-02-07T11:14:22Z</time>
      </trkpt>
      <trkpt lat="43.62028" lon="3.85851">
        <ele>34</ele>
        <time>2021-02-07T11:14:23Z</time>
      </trkpt>
      <trkpt lat="43.62033" lon="3.85846">
        <ele>34</ele>
        <time>2021-02-07T11:14:24Z</time>
      </trkpt>
      <trkpt lat="43.62037" lon="3.85842">
        <ele>34</ele>
        <time>2021-02-07T11:14:25Z</time>
      </trkpt>
      <trkpt lat="43.62041" lon="3.85837">
        <ele>34</ele>
        <time>2021-02-07T11:14:26Z</time>
      </trkpt>
      <trkpt lat="43.62045" lon="3.85831">
        <ele>43</ele>
        <time>2021-02-07T11:14:27Z</time>
      </trkpt>
      <trkpt lat="43.62047" lon="3.85825">
        <ele>33.8</ele>
        <time>2021-02-07T11:14:28Z</time>
      </trkpt>
      <trkpt lat="43.6205" lon="3.85819">
        <ele>33.6</ele>
        <time>2021-02-07T11:14:29Z</time>
      </trkpt>
      <trkpt lat="43.62052" lon="3.85813">
        <ele>33.4</ele>
        <time>2021-02-07T11:14:30Z</time>
      </trkpt>
      <trkpt lat="43.62055" lon="3.85807">
        <ele>33.1</ele>
        <time>2021-02-07T11:14:31Z</time>
      </trkpt>
      <trkpt lat="43.62057" lon="3.85801">
        <ele>33</ele>
        <time>2021-02-07T11:14:32Z</time>
      </trkpt>
      <trkpt lat="43.6206" lon="3.85795">
        <ele>33</ele>
        <time>2021-02-07T11:14:33Z</time>
      </trkpt>
      <trkpt lat="43.62062" lon="3.85789">
        <ele>33</ele>
        <time>2021-02-07T11:14:34Z</time>
      </trkpt>
      <trkpt lat="43.62064" lon="3.85783">
        <ele>33</ele>
        <time>2021-02-07T11:14:35Z</time>
      </trkpt>
      <trkpt lat="43.62065" lon="3.85778">
        <ele>33</ele>
        <time>2021-02-07T11:14:36Z</time>
      </trkpt>
      <trkpt lat="43.62066" lon="3.85774">
        <ele>42</ele>
        <time>2021-02-07T11:14:37Z</time>
      </trkpt>
      <trkpt lat="43.62066" lon="3.8577">
        <ele>33.2</ele>
        <time>2021-02-07T11:14:39Z</time>
      </trkpt>
      <trkpt lat="43.62065" lon="3.85767">
        <ele>33.3</ele>
        <time>2021-02-07T11:14:41Z</time>
      </trkpt>
      <trkpt lat="43.62066" lon="3.85764">
        <ele>33.3</ele>
        <time>2021-02-07T11:14:43Z</time>
      </trkpt>
      <trkpt lat="43.62066" lon="3.85762">
        <ele>33.4</ele>
        <time>2021-02-07T11:14:46Z</time>
      </trkpt>
      <trkpt lat="43.62066" lon="3.85762">
        <ele>42</ele>
        <time>2021-02-07T11:14:50Z</time>
      </trkpt>
      <trkpt lat="43.62074" lon="3.85755">
        <ele>42</ele>
        <time>2021-02-07T11:15:00Z</time>
      </trkpt>
      <trkpt lat="43.62076" lon="3.85752">
        <ele>33.2</ele>
        <time>2021-02-07T11:15:01Z</time>
      </trkpt>
      <trkpt lat="43.62078" lon="3.8575">
        <ele>33.2</ele>
        <time>2021-02-07T11:15:02Z</time>
      </trkpt>
      <trkpt lat="43.62078" lon="3.85746">
        <ele>33.3</ele>
        <time>2021-02-07T11:15:03Z</time>
      </trkpt>
      <trkpt lat="43.62079" lon="3.85741">
        <ele>33.4</ele>
        <time>2021-02-07T11:15:04Z</time>
      </trkpt>
      <trkpt lat="43.6208" lon="3.85737">
        <ele>33.5</ele>
        <time>2021-02-07T11:15:05Z</time>
      </trkpt>
      <trkpt lat="43.62083" lon="3.85735">
        <ele>33.5</ele>
        <time>2021-02-07T11:15:06Z</time>
      </trkpt>
      <trkpt lat="43.62086" lon="3.85734">
        <ele>33.6</ele>
        <time>2021-02-07T11:15:07Z</time>
      </trkpt>
      <trkpt lat="43.62088" lon="3.85731">
        <ele>33.6</ele>
        <time>2021-02-07T11:15:08Z</time>
      </trkpt>
      <trkpt lat="43.62091" lon="3.85727">
        <ele>41</ele>
        <time>2021-02-07T11:15:09Z</time>
      </trkpt>
      <trkpt lat="43.62094" lon="3.85722">
        <ele>33.6</ele>
        <time>2021-02-07T11:15:10Z</time>
      </trkpt>
      <trkpt lat="43.62096" lon="3.85717">
        <ele>33.6</ele>
        <time>2021-02-07T11:15:11Z</time>
      </trkpt>
      <trkpt lat="43.62098" lon="3.85711">
        <ele>33.7</ele>
        <time>2021-02-07T11:15:12Z</time>
      </trkpt>
      <trkpt lat="43.621" lon="3.85706">
        <ele>33.8</ele>
        <time>2021-02-07T11:15:13Z</time>
      </trkpt>
      <trkpt lat="43.62102" lon="3.85702">
        <ele>33.8</ele>
        <time>2021-02-07T11:15:14Z</time>
      </trkpt>
      <trkpt lat="43.62103" lon="3.85698">
        <ele>33.9</ele>
        <time>2021-02-07T11:15:15Z</time>
      </trkpt>
      <trkpt lat="43.62105" lon="3.85694">
        <ele>34</ele>
        <time>2021-02-07T11:15:16Z</time>
      </trkpt>
      <trkpt lat="43.62107" lon="3.85688">
        <ele>34</ele>
        <time>2021-02-07T11:15:17Z</time>
      </trkpt>
      <trkpt lat="43.62109" lon="3.85683">
        <ele>34</ele>
        <time>2021-02-07T11:15:18Z</time>
      </trkpt>
      <trkpt lat="43.62111" lon="3.85677">
        <ele>34</ele>
        <time>2021-02-07T11:15:19Z</time>
      </trkpt>
      <trkpt lat="43.62116" lon="3.85667">
        <ele>41</ele>
        <time>2021-02-07T11:15:20Z</time>
      </trkpt>
      <trkpt lat="43.62118" lon="3.85662">
        <ele>34.2</ele>
        <time>2021-02-07T11:15:21Z</time>
      </trkpt>
      <trkpt lat="43.62121" lon="3.85658">
        <ele>34.2</ele>
        <time>2021-02-07T11:15:22Z</time>
      </trkpt>
      <trkpt lat="43.62124" lon="3.85655">
        <ele>34.3</ele>
        <time>2021-02-07T11:15:23Z</time>
      </trkpt>
      <trkpt lat="43.62127" lon="3.85651">
        <ele>34.2</ele>
        <time>2021-02-07T11:15:24Z</time>
      </trkpt>
      <trkpt lat="43.62129" lon="3.85647">
        <ele>34.2</ele>
        <time>2021-02-07T11:15:25Z</time>
      </trkpt>
      <trkpt lat="43.62134" lon="3.85639">
        <ele>34</ele>
        <time>2021-02-07T11:15:27Z</time>
      </trkpt>
      <trkpt lat="43.62137" lon="3.85636">
        <ele>34.1</ele>
        <time>2021-02-07T11:15:28Z</time>
      </trkpt>
      <trkpt lat="43.62141" lon="3.85632">
        <ele>34.3</ele>
        <time>2021-02-07T11:15:30Z</time>
      </trkpt>
      <trkpt lat="43.62144" lon="3.85628">
        <ele>34.5</ele>
        <time>2021-02-07T11:15:31Z</time>
      </trkpt>
      <trkpt lat="43.62147" lon="3.85624">
        <ele>34.7</ele>
        <time>2021-02-07T11:15:32Z</time>
      </trkpt>
      <trkpt lat="43.6215" lon="3.8562">
        <ele>34.8</ele>
        <time>2021-02-07T11:15:33Z</time>
      </trkpt>
      <trkpt lat="43.62153" lon="3.85615">
        <ele>34.9</ele>
        <time>2021-02-07T11:15:34Z</time>
      </trkpt>
      <trkpt lat="43.62156" lon="3.85611">
        <ele>35</ele>
        <time>2021-02-07T11:15:35Z</time>
      </trkpt>
      <trkpt lat="43.62159" lon="3.85607">
        <ele>35</ele>
        <time>2021-02-07T11:15:36Z</time>
      </trkpt>
      <trkpt lat="43.62162" lon="3.85602">
        <ele>35</ele>
        <time>2021-02-07T11:15:37Z</time>
      </trkpt>
      <trkpt lat="43.62165" lon="3.85598">
        <ele>35</ele>
        <time>2021-02-07T11:15:38Z</time>
      </trkpt>
      <trkpt lat="43.62167" lon="3.85593">
        <ele>41</ele>
        <time>2021-02-07T11:15:39Z</time>
      </trkpt>
      <trkpt lat="43.6217" lon="3.85589">
        <ele>35</ele>
        <time>2021-02-07T11:15:40Z</time>
      </trkpt>
      <trkpt lat="43.62173" lon="3.85584">
        <ele>35</ele>
        <time>2021-02-07T11:15:41Z</time>
      </trkpt>
      <trkpt lat="43.62176" lon="3.85579">
        <ele>35</ele>
        <time>2021-02-07T11:15:42Z</time>
      </trkpt>
      <trkpt lat="43.62179" lon="3.85575">
        <ele>35</ele>
        <time>2021-02-07T11:15:43Z</time>
      </trkpt>
      <trkpt lat="43.62182" lon="3.8557">
        <ele>35</ele>
        <time>2021-02-07T11:15:44Z</time>
      </trkpt>
      <trkpt lat="43.62185" lon="3.85566">
        <ele>35</ele>
        <time>2021-02-07T11:15:45Z</time>
      </trkpt>
      <trkpt lat="43.62188" lon="3.85561">
        <ele>35</ele>
        <time>2021-02-07T11:15:46Z</time>
      </trkpt>
      <trkpt lat="43.62191" lon="3.85557">
        <ele>35</ele>
        <time>2021-02-07T11:15:47Z</time>
      </trkpt>
      <trkpt lat="43.62194" lon="3.85552">
        <ele>35.1</ele>
        <time>2021-02-07T11:15:48Z</time>
      </trkpt>
      <trkpt lat="43.62197" lon="3.85548">
        <ele>41</ele>
        <time>2021-02-07T11:15:49Z</time>
      </trkpt>
      <trkpt lat="43.622" lon="3.85543">
        <ele>35.4</ele>
        <time>2021-02-07T11:15:50Z</time>
      </trkpt>
      <trkpt lat="43.62202" lon="3.85538">
        <ele>35.5</ele>
        <time>2021-02-07T11:15:51Z</time>
      </trkpt>
      <trkpt lat="43.62205" lon="3.85534">
        <ele>35.5</ele>
        <time>2021-02-07T11:15:52Z</time>
      </trkpt>
      <trkpt lat="43.62208" lon="3.85529">
        <ele>35.5</ele>
        <time>2021-02-07T11:15:53Z</time>
      </trkpt>
      <trkpt lat="43.62211" lon="3.85524">
        <ele>35.5</ele>
        <time>2021-02-07T11:15:54Z</time>
      </trkpt>
      <trkpt lat="43.62213" lon="3.8552">
        <ele>35.4</ele>
        <time>2021-02-07T11:15:55Z</time>
      </trkpt>
      <trkpt lat="43.62216" lon="3.85515">
        <ele>35.3</ele>
        <time>2021-02-07T11:15:56Z</time>
      </trkpt>
      <trkpt lat="43.62219" lon="3.85511">
        <ele>35.2</ele>
        <time>2021-02-07T11:15:57Z</time>
      </trkpt>
      <trkpt lat="43.62222" lon="3.85506">
        <ele>35</ele>
        <time>2021-02-07T11:15:58Z</time>
      </trkpt>
      <trkpt lat="43.62225" lon="3.85502">
        <ele>41</ele>
        <time>2021-02-07T11:15:59Z</time>
      </trkpt>
      <trkpt lat="43.62228" lon="3.85497">
        <ele>35.4</ele>
        <time>2021-02-07T11:16:00Z</time>
      </trkpt>
      <trkpt lat="43.62231" lon="3.85492">
        <ele>35.7</ele>
        <time>2021-02-07T11:16:01Z</time>
      </trkpt>
      <trkpt lat="43.62234" lon="3.85488">
        <ele>35.9</ele>
        <time>2021-02-07T11:16:02Z</time>
      </trkpt>
      <trkpt lat="43.62237" lon="3.85483">
        <ele>36.1</ele>
        <time>2021-02-07T11:16:03Z</time>
      </trkpt>
      <trkpt lat="43.62242" lon="3.8548">
        <ele>36.1</ele>
        <time>2021-02-07T11:16:04Z</time>
      </trkpt>
      <trkpt lat="43.62246" lon="3.85476">
        <ele>36.1</ele>
        <time>2021-02-07T11:16:05Z</time>
      </trkpt>
      <trkpt lat="43.6225" lon="3.85472">
        <ele>36</ele>
        <time>2021-02-07T11:16:06Z</time>
      </trkpt>
      <trkpt lat="43.62253" lon="3.85468">
        <ele>36.2</ele>
        <time>2021-02-07T11:16:07Z</time>
      </trkpt>
      <trkpt lat="43.62257" lon="3.85465">
        <ele>36.3</ele>
        <time>2021-02-07T11:16:08Z</time>
      </trkpt>
      <trkpt lat="43.62261" lon="3.85462">
        <ele>44</ele>
        <time>2021-02-07T11:16:09Z</time>
      </trkpt>
      <trkpt lat="43.62264" lon="3.85458">
        <ele>36.5</ele>
        <time>2021-02-07T11:16:10Z</time>
      </trkpt>
      <trkpt lat="43.62268" lon="3.85455">
        <ele>36.6</ele>
        <time>2021-02-07T11:16:11Z</time>
      </trkpt>
      <trkpt lat="43.62271" lon="3.85451">
        <ele>36.8</ele>
        <time>2021-02-07T11:16:12Z</time>
      </trkpt>
      <trkpt lat="43.62272" lon="3.85446">
        <ele>36.9</ele>
        <time>2021-02-07T11:16:13Z</time>
      </trkpt>
      <trkpt lat="43.62273" lon="3.85441">
        <ele>37.2</ele>
        <time>2021-02-07T11:16:14Z</time>
      </trkpt>
      <trkpt lat="43.62273" lon="3.85437">
        <ele>37.4</ele>
        <time>2021-02-07T11:16:15Z</time>
      </trkpt>
      <trkpt lat="43.62272" lon="3.85432">
        <ele>37.7</ele>
        <time>2021-02-07T11:16:16Z</time>
      </trkpt>
      <trkpt lat="43.62271" lon="3.85427">
        <ele>37.9</ele>
        <time>2021-02-07T11:16:17Z</time>
      </trkpt>
      <trkpt lat="43.6227" lon="3.85422">
        <ele>38.2</ele>
        <time>2021-02-07T11:16:18Z</time>
      </trkpt>
      <trkpt lat="43.62269" lon="3.85418">
        <ele>44</ele>
        <time>2021-02-07T11:16:19Z</time>
      </trkpt>
      <trkpt lat="43.62269" lon="3.85413">
        <ele>38.5</ele>
        <time>2021-02-07T11:16:20Z</time>
      </trkpt>
      <trkpt lat="43.62269" lon="3.85409">
        <ele>38.7</ele>
        <time>2021-02-07T11:16:21Z</time>
      </trkpt>
      <trkpt lat="43.62269" lon="3.85404">
        <ele>39</ele>
        <time>2021-02-07T11:16:22Z</time>
      </trkpt>
      <trkpt lat="43.62268" lon="3.85399">
        <ele>39.2</ele>
        <time>2021-02-07T11:16:23Z</time>
      </trkpt>
      <trkpt lat="43.62269" lon="3.85394">
        <ele>39.4</ele>
        <time>2021-02-07T11:16:24Z</time>
      </trkpt>
      <trkpt lat="43.62269" lon="3.8539">
        <ele>39.6</ele>
        <time>2021-02-07T11:16:25Z</time>
      </trkpt>
      <trkpt lat="43.6227" lon="3.85385">
        <ele>39.7</ele>
        <time>2021-02-07T11:16:26Z</time>
      </trkpt>
      <trkpt lat="43.62271" lon="3.85381">
        <ele>39.8</ele>
        <time>2021-02-07T11:16:27Z</time>
      </trkpt>
      <trkpt lat="43.62272" lon="3.85377">
        <ele>39.8</ele>
        <time>2021-02-07T11:16:28Z</time>
      </trkpt>
      <trkpt lat="43.62274" lon="3.85374">
        <ele>44</ele>
        <time>2021-02-07T11:16:29Z</time>
      </trkpt>
      <trkpt lat="43.62276" lon="3.8537">
        <ele>39.9</ele>
        <time>2021-02-07T11:16:30Z</time>
      </trkpt>
      <trkpt lat="43.62277" lon="3.85366">
        <ele>40</ele>
        <time>2021-02-07T11:16:31Z</time>
      </trkpt>
      <trkpt lat="43.62278" lon="3.85362">
        <ele>40</ele>
        <time>2021-02-07T11:16:32Z</time>
      </trkpt>
      <trkpt lat="43.62279" lon="3.85358">
        <ele>40.2</ele>
        <time>2021-02-07T11:16:33Z</time>
      </trkpt>
      <trkpt lat="43.62279" lon="3.85354">
        <ele>40.5</ele>
        <time>2021-02-07T11:16:34Z</time>
      </trkpt>
      <trkpt lat="43.6228" lon="3.8535">
        <ele>40.8</ele>
        <time>2021-02-07T11:16:35Z</time>
      </trkpt>
      <trkpt lat="43.6228" lon="3.85346">
        <ele>41</ele>
        <time>2021-02-07T11:16:36Z</time>
      </trkpt>
      <trkpt lat="43.6228" lon="3.85342">
        <ele>41.3</ele>
        <time>2021-02-07T11:16:37Z</time>
      </trkpt>
      <trkpt lat="43.62281" lon="3.85338">
        <ele>41.6</ele>
        <time>2021-02-07T11:16:38Z</time>
      </trkpt>
      <trkpt lat="43.62281" lon="3.85334">
        <ele>46</ele>
        <time>2021-02-07T11:16:39Z</time>
      </trkpt>
      <trkpt lat="43.62281" lon="3.8533">
        <ele>42</ele>
        <time>2021-02-07T11:16:40Z</time>
      </trkpt>
      <trkpt lat="43.62281" lon="3.85326">
        <ele>42.2</ele>
        <time>2021-02-07T11:16:41Z</time>
      </trkpt>
      <trkpt lat="43.62281" lon="3.85323">
        <ele>42.3</ele>
        <time>2021-02-07T11:16:42Z</time>
      </trkpt>
      <trkpt lat="43.6228" lon="3.85319">
        <ele>42.5</ele>
        <time>2021-02-07T11:16:43Z</time>
      </trkpt>
      <trkpt lat="43.6228" lon="3.85315">
        <ele>42.6</ele>
        <time>2021-02-07T11:16:44Z</time>
      </trkpt>
      <trkpt lat="43.6228" lon="3.85311">
        <ele>42.8</ele>
        <time>2021-02-07T11:16:45Z</time>
      </trkpt>
      <trkpt lat="43.6228" lon="3.85307">
        <ele>42.9</ele>
        <time>2021-02-07T11:16:46Z</time>
      </trkpt>
      <trkpt lat="43.6228" lon="3.85304">
        <ele>43.1</ele>
        <time>2021-02-07T11:16:47Z</time>
      </trkpt>
      <trkpt lat="43.6228" lon="3.853">
        <ele>43.2</ele>
        <time>2021-02-07T11:16:48Z</time>
      </trkpt>
      <trkpt lat="43.62279" lon="3.85296">
        <ele>43.3</ele>
        <time>2021-02-07T11:16:49Z</time>
      </trkpt>
      <trkpt lat="43.6228" lon="3.85292">
        <ele>48</ele>
        <time>2021-02-07T11:16:50Z</time>
      </trkpt>
      <trkpt lat="43.62281" lon="3.85289">
        <ele>43.5</ele>
        <time>2021-02-07T11:16:51Z</time>
      </trkpt>
      <trkpt lat="43.62282" lon="3.85286">
        <ele>43.6</ele>
        <time>2021-02-07T11:16:52Z</time>
      </trkpt>
      <trkpt lat="43.62283" lon="3.85282">
        <ele>43.7</ele>
        <time>2021-02-07T11:16:53Z</time>
      </trkpt>
      <trkpt lat="43.62284" lon="3.85279">
        <ele>43.7</ele>
        <time>2021-02-07T11:16:54Z</time>
      </trkpt>
      <trkpt lat="43.62285" lon="3.85276">
        <ele>43.8</ele>
        <time>2021-02-07T11:16:55Z</time>
      </trkpt>
      <trkpt lat="43.62285" lon="3.85272">
        <ele>43.9</ele>
        <time>2021-02-07T11:16:56Z</time>
      </trkpt>
      <trkpt lat="43.62286" lon="3.85269">
        <ele>43.9</ele>
        <time>2021-02-07T11:16:57Z</time>
      </trkpt>
      <trkpt lat="43.62286" lon="3.85265">
        <ele>44</ele>
        <time>2021-02-07T11:16:58Z</time>
      </trkpt>
      <trkpt lat="43.62286" lon="3.85261">
        <ele>48</ele>
        <time>2021-02-07T11:16:59Z</time>
      </trkpt>
      <trkpt lat="43.62286" lon="3.85257">
        <ele>44.2</ele>
        <time>2021-02-07T11:17:00Z</time>
      </trkpt>
      <trkpt lat="43.62287" lon="3.85254">
        <ele>44.2</ele>
        <time>2021-02-07T11:17:01Z</time>
      </trkpt>
      <trkpt lat="43.62287" lon="3.8525">
        <ele>44.3</ele>
        <time>2021-02-07T11:17:02Z</time>
      </trkpt>
      <trkpt lat="43.62288" lon="3.85246">
        <ele>44.7</ele>
        <time>2021-02-07T11:17:03Z</time>
      </trkpt>
      <trkpt lat="43.62289" lon="3.85243">
        <ele>45</ele>
        <time>2021-02-07T11:17:04Z</time>
      </trkpt>
      <trkpt lat="43.6229" lon="3.8524">
        <ele>45.2</ele>
        <time>2021-02-07T11:17:05Z</time>
      </trkpt>
      <trkpt lat="43.62291" lon="3.85238">
        <ele>45.4</ele>
        <time>2021-02-07T11:17:06Z</time>
      </trkpt>
      <trkpt lat="43.62292" lon="3.85235">
        <ele>45.6</ele>
        <time>2021-02-07T11:17:07Z</time>
      </trkpt>
      <trkpt lat="43.62293" lon="3.85232">
        <ele>45.8</ele>
        <time>2021-02-07T11:17:08Z</time>
      </trkpt>
      <trkpt lat="43.62295" lon="3.85229">
        <ele>45.8</ele>
        <time>2021-02-07T11:17:09Z</time>
      </trkpt>
      <trkpt lat="43.62296" lon="3.85227">
        <ele>49</ele>
        <time>2021-02-07T11:17:10Z</time>
      </trkpt>
      <trkpt lat="43.62298" lon="3.85224">
        <ele>45.9</ele>
        <time>2021-02-07T11:17:11Z</time>
      </trkpt>
      <trkpt lat="43.62299" lon="3.85221">
        <ele>46</ele>
        <time>2021-02-07T11:17:12Z</time>
      </trkpt>
      <trkpt lat="43.62301" lon="3.85218">
        <ele>46</ele>
        <time>2021-02-07T11:17:13Z</time>
      </trkpt>
      <trkpt lat="43.62302" lon="3.85215">
        <ele>46.2</ele>
        <time>2021-02-07T11:17:14Z</time>
      </trkpt>
      <trkpt lat="43.62304" lon="3.85212">
        <ele>46.3</ele>
        <time>2021-02-07T11:17:15Z</time>
      </trkpt>
      <trkpt lat="43.62305" lon="3.85209">
        <ele>46.5</ele>
        <time>2021-02-07T11:17:16Z</time>
      </trkpt>
      <trkpt lat="43.62307" lon="3.85207">
        <ele>46.7</ele>
        <time>2021-02-07T11:17:17Z</time>
      </trkpt>
      <trkpt lat="43.62309" lon="3.85204">
        <ele>47.1</ele>
        <time>2021-02-07T11:17:18Z</time>
      </trkpt>
      <trkpt lat="43.62311" lon="3.85201">
        <ele>50</ele>
        <time>2021-02-07T11:17:19Z</time>
      </trkpt>
      <trkpt lat="43.62312" lon="3.85198">
        <ele>47.7</ele>
        <time>2021-02-07T11:17:20Z</time>
      </trkpt>
      <trkpt lat="43.62314" lon="3.85195">
        <ele>48</ele>
        <time>2021-02-07T11:17:21Z</time>
      </trkpt>
      <trkpt lat="43.62316" lon="3.85192">
        <ele>48.1</ele>
        <time>2021-02-07T11:17:22Z</time>
      </trkpt>
      <trkpt lat="43.62318" lon="3.85189">
        <ele>48.1</ele>
        <time>2021-02-07T11:17:23Z</time>
      </trkpt>
      <trkpt lat="43.6232" lon="3.85186">
        <ele>48.1</ele>
        <time>2021-02-07T11:17:24Z</time>
      </trkpt>
      <trkpt lat="43.62322" lon="3.85183">
        <ele>48.2</ele>
        <time>2021-02-07T11:17:25Z</time>
      </trkpt>
      <trkpt lat="43.62324" lon="3.8518">
        <ele>48.2</ele>
        <time>2021-02-07T11:17:26Z</time>
      </trkpt>
      <trkpt lat="43.62327" lon="3.85177">
        <ele>48.1</ele>
        <time>2021-02-07T11:17:27Z</time>
      </trkpt>
      <trkpt lat="43.62329" lon="3.85174">
        <ele>48.1</ele>
        <time>2021-02-07T11:17:28Z</time>
      </trkpt>
      <trkpt lat="43.62329" lon="3.8517">
        <ele>50</ele>
        <time>2021-02-07T11:17:29Z</time>
      </trkpt>
      <trkpt lat="43.62331" lon="3.85167">
        <ele>48.1</ele>
        <time>2021-02-07T11:17:30Z</time>
      </trkpt>
      <trkpt lat="43.62333" lon="3.85163">
        <ele>48</ele>
        <time>2021-02-07T11:17:31Z</time>
      </trkpt>
      <trkpt lat="43.62336" lon="3.8516">
        <ele>48</ele>
        <time>2021-02-07T11:17:32Z</time>
      </trkpt>
      <trkpt lat="43.62338" lon="3.85158">
        <ele>48.1</ele>
        <time>2021-02-07T11:17:33Z</time>
      </trkpt>
      <trkpt lat="43.62341" lon="3.85155">
        <ele>48.1</ele>
        <time>2021-02-07T11:17:34Z</time>
      </trkpt>
      <trkpt lat="43.62343" lon="3.85152">
        <ele>48.2</ele>
        <time>2021-02-07T11:17:35Z</time>
      </trkpt>
      <trkpt lat="43.62346" lon="3.85149">
        <ele>48.3</ele>
        <time>2021-02-07T11:17:36Z</time>
      </trkpt>
      <trkpt lat="43.62348" lon="3.85146">
        <ele>48.4</ele>
        <time>2021-02-07T11:17:37Z</time>
      </trkpt>
      <trkpt lat="43.62351" lon="3.85144">
        <ele>48.5</ele>
        <time>2021-02-07T11:17:38Z</time>
      </trkpt>
      <trkpt lat="43.62354" lon="3.85141">
        <ele>51</ele>
        <time>2021-02-07T11:17:39Z</time>
      </trkpt>
      <trkpt lat="43.62356" lon="3.85139">
        <ele>48.8</ele>
        <time>2021-02-07T11:17:40Z</time>
      </trkpt>
      <trkpt lat="43.62359" lon="3.85136">
        <ele>48.9</ele>
        <time>2021-02-07T11:17:41Z</time>
      </trkpt>
      <trkpt lat="43.62362" lon="3.85134">
        <ele>49</ele>
        <time>2021-02-07T11:17:42Z</time>
      </trkpt>
      <trkpt lat="43.62364" lon="3.85132">
        <ele>48.9</ele>
        <time>2021-02-07T11:17:43Z</time>
      </trkpt>
      <trkpt lat="43.62367" lon="3.85129">
        <ele>48.8</ele>
        <time>2021-02-07T11:17:44Z</time>
      </trkpt>
      <trkpt lat="43.6237" lon="3.85126">
        <ele>48.7</ele>
        <time>2021-02-07T11:17:45Z</time>
      </trkpt>
      <trkpt lat="43.62372" lon="3.85123">
        <ele>48.6</ele>
        <time>2021-02-07T11:17:46Z</time>
      </trkpt>
      <trkpt lat="43.62374" lon="3.8512">
        <ele>48.5</ele>
        <time>2021-02-07T11:17:47Z</time>
      </trkpt>
      <trkpt lat="43.62376" lon="3.85116">
        <ele>48.5</ele>
        <time>2021-02-07T11:17:48Z</time>
      </trkpt>
      <trkpt lat="43.62376" lon="3.85112">
        <ele>51</ele>
        <time>2021-02-07T11:17:49Z</time>
      </trkpt>
      <trkpt lat="43.62376" lon="3.85107">
        <ele>48.5</ele>
        <time>2021-02-07T11:17:50Z</time>
      </trkpt>
      <trkpt lat="43.62374" lon="3.85103">
        <ele>48.7</ele>
        <time>2021-02-07T11:17:51Z</time>
      </trkpt>
      <trkpt lat="43.62372" lon="3.85099">
        <ele>48.8</ele>
        <time>2021-02-07T11:17:52Z</time>
      </trkpt>
      <trkpt lat="43.6237" lon="3.85096">
        <ele>48.9</ele>
        <time>2021-02-07T11:17:53Z</time>
      </trkpt>
      <trkpt lat="43.62367" lon="3.85093">
        <ele>48.9</ele>
        <time>2021-02-07T11:17:54Z</time>
      </trkpt>
      <trkpt lat="43.62364" lon="3.8509">
        <ele>49</ele>
        <time>2021-02-07T11:17:55Z</time>
      </trkpt>
      <trkpt lat="43.62361" lon="3.85088">
        <ele>49</ele>
        <time>2021-02-07T11:17:56Z</time>
      </trkpt>
      <trkpt lat="43.62358" lon="3.85085">
        <ele>49</ele>
        <time>2021-02-07T11:17:57Z</time>
      </trkpt>
      <trkpt lat="43.62355" lon="3.85083">
        <ele>49</ele>
        <time>2021-02-07T11:17:58Z</time>
      </trkpt>
      <trkpt lat="43.62352" lon="3.85081">
        <ele>51</ele>
        <time>2021-02-07T11:17:59Z</time>
      </trkpt>
      <trkpt lat="43.62349" lon="3.85079">
        <ele>49.1</ele>
        <time>2021-02-07T11:18:00Z</time>
      </trkpt>
      <trkpt lat="43.62346" lon="3.85077">
        <ele>49.1</ele>
        <time>2021-02-07T11:18:01Z</time>
      </trkpt>
      <trkpt lat="43.62344" lon="3.85074">
        <ele>49.2</ele>
        <time>2021-02-07T11:18:02Z</time>
      </trkpt>
      <trkpt lat="43.62341" lon="3.85072">
        <ele>49.3</ele>
        <time>2021-02-07T11:18:03Z</time>
      </trkpt>
      <trkpt lat="43.62338" lon="3.8507">
        <ele>49.4</ele>
        <time>2021-02-07T11:18:04Z</time>
      </trkpt>
      <trkpt lat="43.62335" lon="3.85067">
        <ele>49.6</ele>
        <time>2021-02-07T11:18:05Z</time>
      </trkpt>
      <trkpt lat="43.62332" lon="3.85065">
        <ele>49.6</ele>
        <time>2021-02-07T11:18:06Z</time>
      </trkpt>
      <trkpt lat="43.62329" lon="3.85062">
        <ele>49.6</ele>
        <time>2021-02-07T11:18:07Z</time>
      </trkpt>
      <trkpt lat="43.62326" lon="3.8506">
        <ele>49.6</ele>
        <time>2021-02-07T11:18:08Z</time>
      </trkpt>
      <trkpt lat="43.62324" lon="3.85057">
        <ele>52</ele>
        <time>2021-02-07T11:18:09Z</time>
      </trkpt>
      <trkpt lat="43.62318" lon="3.85052">
        <ele>49.5</ele>
        <time>2021-02-07T11:18:10Z</time>
      </trkpt>
      <trkpt lat="43.62315" lon="3.8505">
        <ele>49.5</ele>
        <time>2021-02-07T11:18:11Z</time>
      </trkpt>
      <trkpt lat="43.62312" lon="3.85047">
        <ele>49.5</ele>
        <time>2021-02-07T11:18:12Z</time>
      </trkpt>
      <trkpt lat="43.62309" lon="3.85044">
        <ele>49.5</ele>
        <time>2021-02-07T11:18:13Z</time>
      </trkpt>
      <trkpt lat="43.62307" lon="3.85041">
        <ele>49.5</ele>
        <time>2021-02-07T11:18:14Z</time>
      </trkpt>
      <trkpt lat="43.62304" lon="3.85038">
        <ele>49.6</ele>
        <time>2021-02-07T11:18:15Z</time>
      </trkpt>
      <trkpt lat="43.62301" lon="3.85036">
        <ele>49.5</ele>
        <time>2021-02-07T11:18:16Z</time>
      </trkpt>
      <trkpt lat="43.62298" lon="3.85034">
        <ele>49.5</ele>
        <time>2021-02-07T11:18:17Z</time>
      </trkpt>
      <trkpt lat="43.62296" lon="3.85032">
        <ele>49.5</ele>
        <time>2021-02-07T11:18:18Z</time>
      </trkpt>
      <trkpt lat="43.62293" lon="3.85029">
        <ele>49.5</ele>
        <time>2021-02-07T11:18:20Z</time>
      </trkpt>
      <trkpt lat="43.6229" lon="3.85027">
        <ele>49.5</ele>
        <time>2021-02-07T11:18:21Z</time>
      </trkpt>
      <trkpt lat="43.62288" lon="3.85025">
        <ele>49.5</ele>
        <time>2021-02-07T11:18:22Z</time>
      </trkpt>
      <trkpt lat="43.62286" lon="3.85022">
        <ele>49.5</ele>
        <time>2021-02-07T11:18:23Z</time>
      </trkpt>
      <trkpt lat="43.62284" lon="3.85018">
        <ele>49.6</ele>
        <time>2021-02-07T11:18:24Z</time>
      </trkpt>
      <trkpt lat="43.62283" lon="3.85015">
        <ele>49.6</ele>
        <time>2021-02-07T11:18:25Z</time>
      </trkpt>
      <trkpt lat="43.62283" lon="3.85011">
        <ele>49.8</ele>
        <time>2021-02-07T11:18:26Z</time>
      </trkpt>
      <trkpt lat="43.62284" lon="3.85008">
        <ele>49.9</ele>
        <time>2021-02-07T11:18:27Z</time>
      </trkpt>
      <trkpt lat="43.62284" lon="3.85004">
        <ele>50.1</ele>
        <time>2021-02-07T11:18:28Z</time>
      </trkpt>
      <trkpt lat="43.62285" lon="3.85001">
        <ele>50.2</ele>
        <time>2021-02-07T11:18:29Z</time>
      </trkpt>
      <trkpt lat="43.62285" lon="3.84994">
        <ele>54</ele>
        <time>2021-02-07T11:18:30Z</time>
      </trkpt>
      <trkpt lat="43.62284" lon="3.84991">
        <ele>50.9</ele>
        <time>2021-02-07T11:18:31Z</time>
      </trkpt>
      <trkpt lat="43.62284" lon="3.84988">
        <ele>51.1</ele>
        <time>2021-02-07T11:18:32Z</time>
      </trkpt>
      <trkpt lat="43.62283" lon="3.84985">
        <ele>51.3</ele>
        <time>2021-02-07T11:18:33Z</time>
      </trkpt>
      <trkpt lat="43.62283" lon="3.84982">
        <ele>51.5</ele>
        <time>2021-02-07T11:18:34Z</time>
      </trkpt>
      <trkpt lat="43.62281" lon="3.84975">
        <ele>51.9</ele>
        <time>2021-02-07T11:18:36Z</time>
      </trkpt>
      <trkpt lat="43.6228" lon="3.84972">
        <ele>52.1</ele>
        <time>2021-02-07T11:18:37Z</time>
      </trkpt>
      <trkpt lat="43.62279" lon="3.84969">
        <ele>52.3</ele>
        <time>2021-02-07T11:18:38Z</time>
      </trkpt>
      <trkpt lat="43.62279" lon="3.84965">
        <ele>52.6</ele>
        <time>2021-02-07T11:18:40Z</time>
      </trkpt>
      <trkpt lat="43.62278" lon="3.84962">
        <ele>52.7</ele>
        <time>2021-02-07T11:18:41Z</time>
      </trkpt>
      <trkpt lat="43.62277" lon="3.84959">
        <ele>52.9</ele>
        <time>2021-02-07T11:18:42Z</time>
      </trkpt>
      <trkpt lat="43.62276" lon="3.84956">
        <ele>53.1</ele>
        <time>2021-02-07T11:18:43Z</time>
      </trkpt>
      <trkpt lat="43.62275" lon="3.84953">
        <ele>53.3</ele>
        <time>2021-02-07T11:18:44Z</time>
      </trkpt>
      <trkpt lat="43.62275" lon="3.8495">
        <ele>53.5</ele>
        <time>2021-02-07T11:18:45Z</time>
      </trkpt>
      <trkpt lat="43.62274" lon="3.84948">
        <ele>53.6</ele>
        <time>2021-02-07T11:18:46Z</time>
      </trkpt>
      <trkpt lat="43.62273" lon="3.84945">
        <ele>53.8</ele>
        <time>2021-02-07T11:18:47Z</time>
      </trkpt>
      <trkpt lat="43.62272" lon="3.84942">
        <ele>54.1</ele>
        <time>2021-02-07T11:18:48Z</time>
      </trkpt>
      <trkpt lat="43.62272" lon="3.84939">
        <ele>59</ele>
        <time>2021-02-07T11:18:49Z</time>
      </trkpt>
      <trkpt lat="43.62272" lon="3.84936">
        <ele>54.8</ele>
        <time>2021-02-07T11:18:50Z</time>
      </trkpt>
      <trkpt lat="43.62271" lon="3.84933">
        <ele>55.1</ele>
        <time>2021-02-07T11:18:51Z</time>
      </trkpt>
      <trkpt lat="43.62271" lon="3.8493">
        <ele>55.5</ele>
        <time>2021-02-07T11:18:52Z</time>
      </trkpt>
      <trkpt lat="43.62271" lon="3.84926">
        <ele>55.9</ele>
        <time>2021-02-07T11:18:53Z</time>
      </trkpt>
      <trkpt lat="43.6227" lon="3.84923">
        <ele>56.2</ele>
        <time>2021-02-07T11:18:54Z</time>
      </trkpt>
      <trkpt lat="43.6227" lon="3.8492">
        <ele>56.5</ele>
        <time>2021-02-07T11:18:55Z</time>
      </trkpt>
      <trkpt lat="43.6227" lon="3.84916">
        <ele>56.9</ele>
        <time>2021-02-07T11:18:57Z</time>
      </trkpt>
      <trkpt lat="43.62271" lon="3.84912">
        <ele>60</ele>
        <time>2021-02-07T11:18:59Z</time>
      </trkpt>
      <trkpt lat="43.62271" lon="3.84909">
        <ele>57.3</ele>
        <time>2021-02-07T11:19:00Z</time>
      </trkpt>
      <trkpt lat="43.62271" lon="3.84907">
        <ele>57.4</ele>
        <time>2021-02-07T11:19:01Z</time>
      </trkpt>
      <trkpt lat="43.62273" lon="3.84905">
        <ele>57.7</ele>
        <time>2021-02-07T11:19:02Z</time>
      </trkpt>
      <trkpt lat="43.62274" lon="3.84902">
        <ele>58</ele>
        <time>2021-02-07T11:19:03Z</time>
      </trkpt>
      <trkpt lat="43.62275" lon="3.849">
        <ele>58.2</ele>
        <time>2021-02-07T11:19:04Z</time>
      </trkpt>
      <trkpt lat="43.62276" lon="3.84897">
        <ele>58.5</ele>
        <time>2021-02-07T11:19:05Z</time>
      </trkpt>
      <trkpt lat="43.62276" lon="3.84894">
        <ele>58.6</ele>
        <time>2021-02-07T11:19:07Z</time>
      </trkpt>
      <trkpt lat="43.62275" lon="3.84892">
        <ele>58.5</ele>
        <time>2021-02-07T11:19:14Z</time>
      </trkpt>
      <trkpt lat="43.62257" lon="3.84906">
        <ele>74</ele>
        <time>2021-02-07T11:56:14Z</time>
      </trkpt>
      <trkpt lat="43.62259" lon="3.84908">
        <ele>55.6</ele>
        <time>2021-02-07T11:56:15Z</time>
      </trkpt>
      <trkpt lat="43.62261" lon="3.84906">
        <ele>56</ele>
        <time>2021-02-07T11:56:17Z</time>
      </trkpt>
      <trkpt lat="43.62263" lon="3.84906">
        <ele>56.3</ele>
        <time>2021-02-07T11:56:19Z</time>
      </trkpt>
      <trkpt lat="43.62264" lon="3.84909">
        <ele>56.3</ele>
        <time>2021-02-07T11:56:21Z</time>
      </trkpt>
      <trkpt lat="43.6226" lon="3.84908">
        <ele>71</ele>
        <time>2021-02-07T11:56:23Z</time>
      </trkpt>
      <trkpt lat="43.62259" lon="3.84905">
        <ele>55.7</ele>
        <time>2021-02-07T11:56:24Z</time>
      </trkpt>
      <trkpt lat="43.62258" lon="3.84903">
        <ele>55.6</ele>
        <time>2021-02-07T11:56:26Z</time>
      </trkpt>
      <trkpt lat="43.62256" lon="3.84906">
        <ele>55.2</ele>
        <time>2021-02-07T11:56:28Z</time>
      </trkpt>
      <trkpt lat="43.6226" lon="3.84906">
        <ele>55.8</ele>
        <time>2021-02-07T11:56:31Z</time>
      </trkpt>
      <trkpt lat="43.62262" lon="3.84906">
        <ele>56.1</ele>
        <time>2021-02-07T11:56:32Z</time>
      </trkpt>
      <trkpt lat="43.62264" lon="3.84906">
        <ele>68</ele>
        <time>2021-02-07T11:56:34Z</time>
      </trkpt>
      <trkpt lat="43.62267" lon="3.84907">
        <ele>56.8</ele>
        <time>2021-02-07T11:56:35Z</time>
      </trkpt>
      <trkpt lat="43.62269" lon="3.8491">
        <ele>57</ele>
        <time>2021-02-07T11:56:37Z</time>
      </trkpt>
      <trkpt lat="43.62271" lon="3.84912">
        <ele>57.2</ele>
        <time>2021-02-07T11:56:40Z</time>
      </trkpt>
      <trkpt lat="43.62271" lon="3.84916">
        <ele>67</ele>
        <time>2021-02-07T11:56:44Z</time>
      </trkpt>
      <trkpt lat="43.6227" lon="3.8492">
        <ele>56.5</ele>
        <time>2021-02-07T11:56:45Z</time>
      </trkpt>
      <trkpt lat="43.62269" lon="3.84924">
        <ele>55.9</ele>
        <time>2021-02-07T11:56:46Z</time>
      </trkpt>
      <trkpt lat="43.62269" lon="3.84929">
        <ele>55.4</ele>
        <time>2021-02-07T11:56:47Z</time>
      </trkpt>
      <trkpt lat="43.62271" lon="3.84935">
        <ele>54.9</ele>
        <time>2021-02-07T11:56:48Z</time>
      </trkpt>
      <trkpt lat="43.62273" lon="3.84942">
        <ele>54.1</ele>
        <time>2021-02-07T11:56:49Z</time>
      </trkpt>
      <trkpt lat="43.62275" lon="3.84949">
        <ele>53.6</ele>
        <time>2021-02-07T11:56:50Z</time>
      </trkpt>
      <trkpt lat="43.62278" lon="3.84956">
        <ele>53.2</ele>
        <time>2021-02-07T11:56:51Z</time>
      </trkpt>
      <trkpt lat="43.62281" lon="3.84965">
        <ele>52.7</ele>
        <time>2021-02-07T11:56:52Z</time>
      </trkpt>
      <trkpt lat="43.62284" lon="3.84975">
        <ele>65</ele>
        <time>2021-02-07T11:56:53Z</time>
      </trkpt>
      <trkpt lat="43.62286" lon="3.84985">
        <ele>51.4</ele>
        <time>2021-02-07T11:56:54Z</time>
      </trkpt>
      <trkpt lat="43.62287" lon="3.84995">
        <ele>50.7</ele>
        <time>2021-02-07T11:56:55Z</time>
      </trkpt>
      <trkpt lat="43.62287" lon="3.85005">
        <ele>50.2</ele>
        <time>2021-02-07T11:56:56Z</time>
      </trkpt>
      <trkpt lat="43.62284" lon="3.85012">
        <ele>49.8</ele>
        <time>2021-02-07T11:56:57Z</time>
      </trkpt>
      <trkpt lat="43.62279" lon="3.85016">
        <ele>49.5</ele>
        <time>2021-02-07T11:56:58Z</time>
      </trkpt>
      <trkpt lat="43.62273" lon="3.85015">
        <ele>49.2</ele>
        <time>2021-02-07T11:56:59Z</time>
      </trkpt>
      <trkpt lat="43.62267" lon="3.85011">
        <ele>49</ele>
        <time>2021-02-07T11:57:00Z</time>
      </trkpt>
      <trkpt lat="43.62261" lon="3.85007">
        <ele>48.7</ele>
        <time>2021-02-07T11:57:01Z</time>
      </trkpt>
      <trkpt lat="43.62255" lon="3.85003">
        <ele>48.3</ele>
        <time>2021-02-07T11:57:02Z</time>
      </trkpt>
      <trkpt lat="43.6225" lon="3.85">
        <ele>61</ele>
        <time>2021-02-07T11:57:03Z</time>
      </trkpt>
      <trkpt lat="43.62244" lon="3.84998">
        <ele>48.2</ele>
        <time>2021-02-07T11:57:04Z</time>
      </trkpt>
      <trkpt lat="43.62237" lon="3.84998">
        <ele>48.2</ele>
        <time>2021-02-07T11:57:05Z</time>
      </trkpt>
      <trkpt lat="43.62231" lon="3.84999">
        <ele>48</ele>
        <time>2021-02-07T11:57:06Z</time>
      </trkpt>
      <trkpt lat="43.62225" lon="3.84999">
        <ele>48</ele>
        <time>2021-02-07T11:57:07Z</time>
      </trkpt>
      <trkpt lat="43.6222" lon="3.85">
        <ele>47.8</ele>
        <time>2021-02-07T11:57:08Z</time>
      </trkpt>
      <trkpt lat="43.62213" lon="3.85">
        <ele>47.3</ele>
        <time>2021-02-07T11:57:09Z</time>
      </trkpt>
      <trkpt lat="43.62207" lon="3.85001">
        <ele>46.9</ele>
        <time>2021-02-07T11:57:10Z</time>
      </trkpt>
      <trkpt lat="43.622" lon="3.85001">
        <ele>46.4</ele>
        <time>2021-02-07T11:57:11Z</time>
      </trkpt>
      <trkpt lat="43.62193" lon="3.85002">
        <ele>45.9</ele>
        <time>2021-02-07T11:57:12Z</time>
      </trkpt>
      <trkpt lat="43.62186" lon="3.85003">
        <ele>45.7</ele>
        <time>2021-02-07T11:57:13Z</time>
      </trkpt>
      <trkpt lat="43.62179" lon="3.85004">
        <ele>59</ele>
        <time>2021-02-07T11:57:14Z</time>
      </trkpt>
      <trkpt lat="43.62172" lon="3.85005">
        <ele>45.2</ele>
        <time>2021-02-07T11:57:15Z</time>
      </trkpt>
      <trkpt lat="43.62165" lon="3.85006">
        <ele>44.9</ele>
        <time>2021-02-07T11:57:16Z</time>
      </trkpt>
      <trkpt lat="43.62158" lon="3.85006">
        <ele>44.7</ele>
        <time>2021-02-07T11:57:17Z</time>
      </trkpt>
      <trkpt lat="43.62152" lon="3.85007">
        <ele>44.5</ele>
        <time>2021-02-07T11:57:18Z</time>
      </trkpt>
      <trkpt lat="43.62144" lon="3.85008">
        <ele>44.2</ele>
        <time>2021-02-07T11:57:19Z</time>
      </trkpt>
      <trkpt lat="43.62137" lon="3.85009">
        <ele>44</ele>
        <time>2021-02-07T11:57:20Z</time>
      </trkpt>
      <trkpt lat="43.6213" lon="3.8501">
        <ele>43.8</ele>
        <time>2021-02-07T11:57:21Z</time>
      </trkpt>
      <trkpt lat="43.62123" lon="3.85011">
        <ele>43.7</ele>
        <time>2021-02-07T11:57:22Z</time>
      </trkpt>
      <trkpt lat="43.62115" lon="3.85013">
        <ele>58</ele>
        <time>2021-02-07T11:57:23Z</time>
      </trkpt>
      <trkpt lat="43.62108" lon="3.85014">
        <ele>43.6</ele>
        <time>2021-02-07T11:57:24Z</time>
      </trkpt>
      <trkpt lat="43.62101" lon="3.85014">
        <ele>43.7</ele>
        <time>2021-02-07T11:57:25Z</time>
      </trkpt>
      <trkpt lat="43.62095" lon="3.85015">
        <ele>43.8</ele>
        <time>2021-02-07T11:57:26Z</time>
      </trkpt>
      <trkpt lat="43.62089" lon="3.85016">
        <ele>43.9</ele>
        <time>2021-02-07T11:57:27Z</time>
      </trkpt>
      <trkpt lat="43.62084" lon="3.85016">
        <ele>44</ele>
        <time>2021-02-07T11:57:28Z</time>
      </trkpt>
      <trkpt lat="43.62079" lon="3.85015">
        <ele>44.2</ele>
        <time>2021-02-07T11:57:29Z</time>
      </trkpt>
      <trkpt lat="43.62075" lon="3.85015">
        <ele>44.3</ele>
        <time>2021-02-07T11:57:30Z</time>
      </trkpt>
      <trkpt lat="43.62072" lon="3.85015">
        <ele>44.4</ele>
        <time>2021-02-07T11:57:31Z</time>
      </trkpt>
      <trkpt lat="43.62068" lon="3.85014">
        <ele>44.6</ele>
        <time>2021-02-07T11:57:32Z</time>
      </trkpt>
      <trkpt lat="43.62065" lon="3.85014">
        <ele>56</ele>
        <time>2021-02-07T11:57:33Z</time>
      </trkpt>
      <trkpt lat="43.62062" lon="3.85013">
        <ele>44.8</ele>
        <time>2021-02-07T11:57:34Z</time>
      </trkpt>
      <trkpt lat="43.6206" lon="3.85014">
        <ele>44.8</ele>
        <time>2021-02-07T11:57:35Z</time>
      </trkpt>
      <trkpt lat="43.62058" lon="3.85014">
        <ele>44.9</ele>
        <time>2021-02-07T11:57:36Z</time>
      </trkpt>
      <trkpt lat="43.62055" lon="3.85014">
        <ele>45</ele>
        <time>2021-02-07T11:57:38Z</time>
      </trkpt>
      <trkpt lat="43.62052" lon="3.85012">
        <ele>45.1</ele>
        <time>2021-02-07T11:57:40Z</time>
      </trkpt>
      <trkpt lat="43.6205" lon="3.85011">
        <ele>45.2</ele>
        <time>2021-02-07T11:57:42Z</time>
      </trkpt>
      <trkpt lat="43.62048" lon="3.8501">
        <ele>45.3</ele>
        <time>2021-02-07T11:57:44Z</time>
      </trkpt>
      <trkpt lat="43.62046" lon="3.85008">
        <ele>45.3</ele>
        <time>2021-02-07T11:57:46Z</time>
      </trkpt>
      <trkpt lat="43.62045" lon="3.85005">
        <ele>45.4</ele>
        <time>2021-02-07T11:57:48Z</time>
      </trkpt>
      <trkpt lat="43.62042" lon="3.85003">
        <ele>45.5</ele>
        <time>2021-02-07T11:57:50Z</time>
      </trkpt>
      <trkpt lat="43.62041" lon="3.85002">
        <ele>45.5</ele>
        <time>2021-02-07T11:57:52Z</time>
      </trkpt>
      <trkpt lat="43.62028" lon="3.85">
        <ele>53</ele>
        <time>2021-02-07T11:58:12Z</time>
      </trkpt>
      <trkpt lat="43.62025" lon="3.85002">
        <ele>46.2</ele>
        <time>2021-02-07T11:58:13Z</time>
      </trkpt>
      <trkpt lat="43.62023" lon="3.85006">
        <ele>46.3</ele>
        <time>2021-02-07T11:58:14Z</time>
      </trkpt>
      <trkpt lat="43.6202" lon="3.8501">
        <ele>46.5</ele>
        <time>2021-02-07T11:58:15Z</time>
      </trkpt>
      <trkpt lat="43.62017" lon="3.85013">
        <ele>46.6</ele>
        <time>2021-02-07T11:58:16Z</time>
      </trkpt>
      <trkpt lat="43.62014" lon="3.85015">
        <ele>46.7</ele>
        <time>2021-02-07T11:58:17Z</time>
      </trkpt>
      <trkpt lat="43.62011" lon="3.85015">
        <ele>46.9</ele>
        <time>2021-02-07T11:58:18Z</time>
      </trkpt>
      <trkpt lat="43.62008" lon="3.85015">
        <ele>47</ele>
        <time>2021-02-07T11:58:19Z</time>
      </trkpt>
      <trkpt lat="43.62005" lon="3.85015">
        <ele>47.2</ele>
        <time>2021-02-07T11:58:20Z</time>
      </trkpt>
      <trkpt lat="43.62002" lon="3.85013">
        <ele>53</ele>
        <time>2021-02-07T11:58:21Z</time>
      </trkpt>
      <trkpt lat="43.62001" lon="3.85009">
        <ele>47.6</ele>
        <time>2021-02-07T11:58:22Z</time>
      </trkpt>
      <trkpt lat="43.61999" lon="3.85006">
        <ele>47.9</ele>
        <time>2021-02-07T11:58:23Z</time>
      </trkpt>
      <trkpt lat="43.61998" lon="3.85002">
        <ele>48.1</ele>
        <time>2021-02-07T11:58:24Z</time>
      </trkpt>
      <trkpt lat="43.61997" lon="3.84999">
        <ele>48.3</ele>
        <time>2021-02-07T11:58:25Z</time>
      </trkpt>
      <trkpt lat="43.61996" lon="3.84995">
        <ele>48.5</ele>
        <time>2021-02-07T11:58:26Z</time>
      </trkpt>
      <trkpt lat="43.61995" lon="3.84992">
        <ele>48.6</ele>
        <time>2021-02-07T11:58:27Z</time>
      </trkpt>
      <trkpt lat="43.61994" lon="3.84988">
        <ele>48.9</ele>
        <time>2021-02-07T11:58:28Z</time>
      </trkpt>
      <trkpt lat="43.61993" lon="3.84985">
        <ele>49</ele>
        <time>2021-02-07T11:58:29Z</time>
      </trkpt>
      <trkpt lat="43.61992" lon="3.84982">
        <ele>49.2</ele>
        <time>2021-02-07T11:58:30Z</time>
      </trkpt>
      <trkpt lat="43.61991" lon="3.84978">
        <ele>49.4</ele>
        <time>2021-02-07T11:58:31Z</time>
      </trkpt>
      <trkpt lat="43.61988" lon="3.84972">
        <ele>52</ele>
        <time>2021-02-07T11:58:32Z</time>
      </trkpt>
      <trkpt lat="43.61986" lon="3.84965">
        <ele>50.1</ele>
        <time>2021-02-07T11:58:34Z</time>
      </trkpt>
      <trkpt lat="43.61985" lon="3.84961">
        <ele>50.3</ele>
        <time>2021-02-07T11:58:35Z</time>
      </trkpt>
      <trkpt lat="43.61984" lon="3.84958">
        <ele>50.4</ele>
        <time>2021-02-07T11:58:36Z</time>
      </trkpt>
      <trkpt lat="43.61981" lon="3.84952">
        <ele>50.6</ele>
        <time>2021-02-07T11:58:38Z</time>
      </trkpt>
      <trkpt lat="43.6198" lon="3.8495">
        <ele>50.7</ele>
        <time>2021-02-07T11:58:39Z</time>
      </trkpt>
      <trkpt lat="43.61979" lon="3.84948">
        <ele>50.7</ele>
        <time>2021-02-07T11:58:40Z</time>
      </trkpt>
      <trkpt lat="43.61977" lon="3.84945">
        <ele>50.8</ele>
        <time>2021-02-07T11:58:42Z</time>
      </trkpt>
      <trkpt lat="43.61976" lon="3.84942">
        <ele>50.9</ele>
        <time>2021-02-07T11:58:43Z</time>
      </trkpt>
      <trkpt lat="43.61975" lon="3.8494">
        <ele>51</ele>
        <time>2021-02-07T11:58:44Z</time>
      </trkpt>
      <trkpt lat="43.61974" lon="3.84938">
        <ele>51.2</ele>
        <time>2021-02-07T11:58:45Z</time>
      </trkpt>
      <trkpt lat="43.61973" lon="3.84936">
        <ele>51.3</ele>
        <time>2021-02-07T11:58:46Z</time>
      </trkpt>
      <trkpt lat="43.61972" lon="3.84934">
        <ele>51.4</ele>
        <time>2021-02-07T11:58:47Z</time>
      </trkpt>
      <trkpt lat="43.61971" lon="3.84932">
        <ele>51.6</ele>
        <time>2021-02-07T11:58:48Z</time>
      </trkpt>
      <trkpt lat="43.61969" lon="3.84928">
        <ele>51.9</ele>
        <time>2021-02-07T11:58:50Z</time>
      </trkpt>
      <trkpt lat="43.61967" lon="3.84925">
        <ele>56</ele>
        <time>2021-02-07T11:58:51Z</time>
      </trkpt>
      <trkpt lat="43.61966" lon="3.84923">
        <ele>52.3</ele>
        <time>2021-02-07T11:58:52Z</time>
      </trkpt>
      <trkpt lat="43.61965" lon="3.8492">
        <ele>52.4</ele>
        <time>2021-02-07T11:58:53Z</time>
      </trkpt>
      <trkpt lat="43.61964" lon="3.84918">
        <ele>52.6</ele>
        <time>2021-02-07T11:58:54Z</time>
      </trkpt>
      <trkpt lat="43.61963" lon="3.84916">
        <ele>52.7</ele>
        <time>2021-02-07T11:58:55Z</time>
      </trkpt>
      <trkpt lat="43.61961" lon="3.84914">
        <ele>53.1</ele>
        <time>2021-02-07T11:58:56Z</time>
      </trkpt>
      <trkpt lat="43.6196" lon="3.84912">
        <ele>53.3</ele>
        <time>2021-02-07T11:58:57Z</time>
      </trkpt>
      <trkpt lat="43.61959" lon="3.8491">
        <ele>53.6</ele>
        <time>2021-02-07T11:58:58Z</time>
      </trkpt>
      <trkpt lat="43.61958" lon="3.84907">
        <ele>53.9</ele>
        <time>2021-02-07T11:58:59Z</time>
      </trkpt>
      <trkpt lat="43.61957" lon="3.84905">
        <ele>54.1</ele>
        <time>2021-02-07T11:59:00Z</time>
      </trkpt>
      <trkpt lat="43.61956" lon="3.84903">
        <ele>58</ele>
        <time>2021-02-07T11:59:01Z</time>
      </trkpt>
      <trkpt lat="43.61954" lon="3.84901">
        <ele>54.6</ele>
        <time>2021-02-07T11:59:02Z</time>
      </trkpt>
      <trkpt lat="43.61953" lon="3.84899">
        <ele>54.9</ele>
        <time>2021-02-07T11:59:03Z</time>
      </trkpt>
      <trkpt lat="43.61952" lon="3.84897">
        <ele>55.1</ele>
        <time>2021-02-07T11:59:04Z</time>
      </trkpt>
      <trkpt lat="43.61951" lon="3.84894">
        <ele>55.4</ele>
        <time>2021-02-07T11:59:05Z</time>
      </trkpt>
      <trkpt lat="43.6195" lon="3.84892">
        <ele>55.6</ele>
        <time>2021-02-07T11:59:06Z</time>
      </trkpt>
      <trkpt lat="43.61949" lon="3.84889">
        <ele>55.8</ele>
        <time>2021-02-07T11:59:07Z</time>
      </trkpt>
      <trkpt lat="43.61948" lon="3.84886">
        <ele>56</ele>
        <time>2021-02-07T11:59:08Z</time>
      </trkpt>
      <trkpt lat="43.61947" lon="3.84884">
        <ele>56.1</ele>
        <time>2021-02-07T11:59:09Z</time>
      </trkpt>
      <trkpt lat="43.61946" lon="3.84881">
        <ele>56.2</ele>
        <time>2021-02-07T11:59:10Z</time>
      </trkpt>
      <trkpt lat="43.61945" lon="3.84879">
        <ele>59</ele>
        <time>2021-02-07T11:59:11Z</time>
      </trkpt>
      <trkpt lat="43.61943" lon="3.84876">
        <ele>56.6</ele>
        <time>2021-02-07T11:59:12Z</time>
      </trkpt>
      <trkpt lat="43.61942" lon="3.84873">
        <ele>56.8</ele>
        <time>2021-02-07T11:59:13Z</time>
      </trkpt>
      <trkpt lat="43.61941" lon="3.84871">
        <ele>56.9</ele>
        <time>2021-02-07T11:59:14Z</time>
      </trkpt>
      <trkpt lat="43.6194" lon="3.84868">
        <ele>57.1</ele>
        <time>2021-02-07T11:59:15Z</time>
      </trkpt>
      <trkpt lat="43.61938" lon="3.84866">
        <ele>57.3</ele>
        <time>2021-02-07T11:59:16Z</time>
      </trkpt>
      <trkpt lat="43.61937" lon="3.84863">
        <ele>57.5</ele>
        <time>2021-02-07T11:59:17Z</time>
      </trkpt>
      <trkpt lat="43.61935" lon="3.84861">
        <ele>57.7</ele>
        <time>2021-02-07T11:59:18Z</time>
      </trkpt>
      <trkpt lat="43.61934" lon="3.84858">
        <ele>58</ele>
        <time>2021-02-07T11:59:19Z</time>
      </trkpt>
      <trkpt lat="43.61933" lon="3.84856">
        <ele>58.1</ele>
        <time>2021-02-07T11:59:20Z</time>
      </trkpt>
      <trkpt lat="43.61932" lon="3.84854">
        <ele>61</ele>
        <time>2021-02-07T11:59:21Z</time>
      </trkpt>
      <trkpt lat="43.61931" lon="3.84851">
        <ele>58.5</ele>
        <time>2021-02-07T11:59:22Z</time>
      </trkpt>
      <trkpt lat="43.6193" lon="3.84849">
        <ele>58.7</ele>
        <time>2021-02-07T11:59:23Z</time>
      </trkpt>
      <trkpt lat="43.61929" lon="3.84846">
        <ele>58.8</ele>
        <time>2021-02-07T11:59:24Z</time>
      </trkpt>
      <trkpt lat="43.61928" lon="3.84844">
        <ele>58.9</ele>
        <time>2021-02-07T11:59:25Z</time>
      </trkpt>
      <trkpt lat="43.61927" lon="3.84841">
        <ele>59.1</ele>
        <time>2021-02-07T11:59:26Z</time>
      </trkpt>
      <trkpt lat="43.61925" lon="3.84839">
        <ele>59.1</ele>
        <time>2021-02-07T11:59:27Z</time>
      </trkpt>
      <trkpt lat="43.61924" lon="3.84837">
        <ele>59.2</ele>
        <time>2021-02-07T11:59:28Z</time>
      </trkpt>
      <trkpt lat="43.61923" lon="3.84834">
        <ele>59.2</ele>
        <time>2021-02-07T11:59:29Z</time>
      </trkpt>
      <trkpt lat="43.61922" lon="3.84832">
        <ele>59.2</ele>
        <time>2021-02-07T11:59:30Z</time>
      </trkpt>
      <trkpt lat="43.6192" lon="3.8483">
        <ele>63</ele>
        <time>2021-02-07T11:59:31Z</time>
      </trkpt>
      <trkpt lat="43.61919" lon="3.84826">
        <ele>59.1</ele>
        <time>2021-02-07T11:59:32Z</time>
      </trkpt>
      <trkpt lat="43.61918" lon="3.84823">
        <ele>59</ele>
        <time>2021-02-07T11:59:33Z</time>
      </trkpt>
      <trkpt lat="43.61916" lon="3.8482">
        <ele>59</ele>
        <time>2021-02-07T11:59:34Z</time>
      </trkpt>
      <trkpt lat="43.61915" lon="3.84817">
        <ele>59</ele>
        <time>2021-02-07T11:59:35Z</time>
      </trkpt>
      <trkpt lat="43.61914" lon="3.84813">
        <ele>59</ele>
        <time>2021-02-07T11:59:36Z</time>
      </trkpt>
      <trkpt lat="43.61913" lon="3.8481">
        <ele>59</ele>
        <time>2021-02-07T11:59:37Z</time>
      </trkpt>
      <trkpt lat="43.61911" lon="3.84807">
        <ele>59</ele>
        <time>2021-02-07T11:59:38Z</time>
      </trkpt>
      <trkpt lat="43.6191" lon="3.84803">
        <ele>58.9</ele>
        <time>2021-02-07T11:59:39Z</time>
      </trkpt>
      <trkpt lat="43.61909" lon="3.84798">
        <ele>58.7</ele>
        <time>2021-02-07T11:59:40Z</time>
      </trkpt>
      <trkpt lat="43.61908" lon="3.84794">
        <ele>62</ele>
        <time>2021-02-07T11:59:41Z</time>
      </trkpt>
      <trkpt lat="43.61907" lon="3.84789">
        <ele>58.2</ele>
        <time>2021-02-07T11:59:42Z</time>
      </trkpt>
      <trkpt lat="43.61905" lon="3.84784">
        <ele>57.9</ele>
        <time>2021-02-07T11:59:43Z</time>
      </trkpt>
      <trkpt lat="43.61904" lon="3.84779">
        <ele>57.6</ele>
        <time>2021-02-07T11:59:44Z</time>
      </trkpt>
      <trkpt lat="43.61902" lon="3.84774">
        <ele>57.3</ele>
        <time>2021-02-07T11:59:45Z</time>
      </trkpt>
      <trkpt lat="43.61901" lon="3.84769">
        <ele>57.2</ele>
        <time>2021-02-07T11:59:46Z</time>
      </trkpt>
      <trkpt lat="43.619" lon="3.84764">
        <ele>57</ele>
        <time>2021-02-07T11:59:47Z</time>
      </trkpt>
      <trkpt lat="43.61899" lon="3.84758">
        <ele>56.8</ele>
        <time>2021-02-07T11:59:48Z</time>
      </trkpt>
      <trkpt lat="43.61898" lon="3.84752">
        <ele>56.7</ele>
        <time>2021-02-07T11:59:49Z</time>
      </trkpt>
      <trkpt lat="43.61897" lon="3.84745">
        <ele>56.4</ele>
        <time>2021-02-07T11:59:50Z</time>
      </trkpt>
      <trkpt lat="43.61895" lon="3.84739">
        <ele>61</ele>
        <time>2021-02-07T11:59:51Z</time>
      </trkpt>
      <trkpt lat="43.61894" lon="3.84732">
        <ele>55.9</ele>
        <time>2021-02-07T11:59:52Z</time>
      </trkpt>
      <trkpt lat="43.61893" lon="3.84725">
        <ele>55.7</ele>
        <time>2021-02-07T11:59:53Z</time>
      </trkpt>
      <trkpt lat="43.61892" lon="3.84718">
        <ele>55.4</ele>
        <time>2021-02-07T11:59:54Z</time>
      </trkpt>
      <trkpt lat="43.6189" lon="3.84711">
        <ele>55.1</ele>
        <time>2021-02-07T11:59:55Z</time>
      </trkpt>
      <trkpt lat="43.61889" lon="3.84703">
        <ele>54.6</ele>
        <time>2021-02-07T11:59:56Z</time>
      </trkpt>
      <trkpt lat="43.61888" lon="3.84695">
        <ele>54</ele>
        <time>2021-02-07T11:59:57Z</time>
      </trkpt>
      <trkpt lat="43.61886" lon="3.84687">
        <ele>53.8</ele>
        <time>2021-02-07T11:59:58Z</time>
      </trkpt>
      <trkpt lat="43.61885" lon="3.8468">
        <ele>53.6</ele>
        <time>2021-02-07T11:59:59Z</time>
      </trkpt>
      <trkpt lat="43.61883" lon="3.84672">
        <ele>53.5</ele>
        <time>2021-02-07T12:00:00Z</time>
      </trkpt>
      <trkpt lat="43.61882" lon="3.84664">
        <ele>58</ele>
        <time>2021-02-07T12:00:01Z</time>
      </trkpt>
      <trkpt lat="43.6188" lon="3.84657">
        <ele>53.3</ele>
        <time>2021-02-07T12:00:02Z</time>
      </trkpt>
      <trkpt lat="43.61879" lon="3.8465">
        <ele>53.1</ele>
        <time>2021-02-07T12:00:03Z</time>
      </trkpt>
      <trkpt lat="43.61878" lon="3.84643">
        <ele>52.9</ele>
        <time>2021-02-07T12:00:04Z</time>
      </trkpt>
      <trkpt lat="43.61876" lon="3.84636">
        <ele>53</ele>
        <time>2021-02-07T12:00:05Z</time>
      </trkpt>
      <trkpt lat="43.61875" lon="3.84629">
        <ele>53.2</ele>
        <time>2021-02-07T12:00:06Z</time>
      </trkpt>
      <trkpt lat="43.61874" lon="3.84623">
        <ele>53.3</ele>
        <time>2021-02-07T12:00:07Z</time>
      </trkpt>
      <trkpt lat="43.61873" lon="3.84617">
        <ele>53.5</ele>
        <time>2021-02-07T12:00:08Z</time>
      </trkpt>
      <trkpt lat="43.61871" lon="3.84611">
        <ele>53.6</ele>
        <time>2021-02-07T12:00:09Z</time>
      </trkpt>
      <trkpt lat="43.6187" lon="3.84605">
        <ele>53.7</ele>
        <time>2021-02-07T12:00:10Z</time>
      </trkpt>
      <trkpt lat="43.61869" lon="3.84599">
        <ele>58</ele>
        <time>2021-02-07T12:00:11Z</time>
      </trkpt>
      <trkpt lat="43.61868" lon="3.84593">
        <ele>53.8</ele>
        <time>2021-02-07T12:00:12Z</time>
      </trkpt>
      <trkpt lat="43.61867" lon="3.84587">
        <ele>53.8</ele>
        <time>2021-02-07T12:00:13Z</time>
      </trkpt>
      <trkpt lat="43.61866" lon="3.84581">
        <ele>53.9</ele>
        <time>2021-02-07T12:00:14Z</time>
      </trkpt>
      <trkpt lat="43.61865" lon="3.84575">
        <ele>54.2</ele>
        <time>2021-02-07T12:00:15Z</time>
      </trkpt>
      <trkpt lat="43.61864" lon="3.8457">
        <ele>54.4</ele>
        <time>2021-02-07T12:00:16Z</time>
      </trkpt>
      <trkpt lat="43.61862" lon="3.84564">
        <ele>54.7</ele>
        <time>2021-02-07T12:00:17Z</time>
      </trkpt>
      <trkpt lat="43.61861" lon="3.84559">
        <ele>54.9</ele>
        <time>2021-02-07T12:00:18Z</time>
      </trkpt>
      <trkpt lat="43.6186" lon="3.84553">
        <ele>55</ele>
        <time>2021-02-07T12:00:19Z</time>
      </trkpt>
      <trkpt lat="43.61858" lon="3.84547">
        <ele>55.1</ele>
        <time>2021-02-07T12:00:20Z</time>
      </trkpt>
      <trkpt lat="43.61856" lon="3.84541">
        <ele>58</ele>
        <time>2021-02-07T12:00:21Z</time>
      </trkpt>
      <trkpt lat="43.61855" lon="3.84535">
        <ele>55.2</ele>
        <time>2021-02-07T12:00:22Z</time>
      </trkpt>
      <trkpt lat="43.61854" lon="3.84529">
        <ele>55.3</ele>
        <time>2021-02-07T12:00:23Z</time>
      </trkpt>
      <trkpt lat="43.61853" lon="3.84523">
        <ele>55.5</ele>
        <time>2021-02-07T12:00:24Z</time>
      </trkpt>
      <trkpt lat="43.61852" lon="3.84516">
        <ele>55.8</ele>
        <time>2021-02-07T12:00:25Z</time>
      </trkpt>
      <trkpt lat="43.61851" lon="3.8451">
        <ele>56</ele>
        <time>2021-02-07T12:00:26Z</time>
      </trkpt>
      <trkpt lat="43.6185" lon="3.84504">
        <ele>56.3</ele>
        <time>2021-02-07T12:00:27Z</time>
      </trkpt>
      <trkpt lat="43.61849" lon="3.84498">
        <ele>56.4</ele>
        <time>2021-02-07T12:00:28Z</time>
      </trkpt>
      <trkpt lat="43.61847" lon="3.84492">
        <ele>56.5</ele>
        <time>2021-02-07T12:00:29Z</time>
      </trkpt>
      <trkpt lat="43.61846" lon="3.84486">
        <ele>56.5</ele>
        <time>2021-02-07T12:00:30Z</time>
      </trkpt>
      <trkpt lat="43.61845" lon="3.8448">
        <ele>56.6</ele>
        <time>2021-02-07T12:00:31Z</time>
      </trkpt>
      <trkpt lat="43.61843" lon="3.84474">
        <ele>59</ele>
        <time>2021-02-07T12:00:32Z</time>
      </trkpt>
      <trkpt lat="43.61842" lon="3.84468">
        <ele>56.8</ele>
        <time>2021-02-07T12:00:33Z</time>
      </trkpt>
      <trkpt lat="43.6184" lon="3.84462">
        <ele>57.1</ele>
        <time>2021-02-07T12:00:34Z</time>
      </trkpt>
      <trkpt lat="43.61839" lon="3.84457">
        <ele>57.3</ele>
        <time>2021-02-07T12:00:35Z</time>
      </trkpt>
      <trkpt lat="43.61837" lon="3.84451">
        <ele>57.6</ele>
        <time>2021-02-07T12:00:36Z</time>
      </trkpt>
      <trkpt lat="43.61835" lon="3.84445">
        <ele>57.9</ele>
        <time>2021-02-07T12:00:37Z</time>
      </trkpt>
      <trkpt lat="43.61833" lon="3.8444">
        <ele>58.2</ele>
        <time>2021-02-07T12:00:38Z</time>
      </trkpt>
      <trkpt lat="43.61832" lon="3.84435">
        <ele>58.4</ele>
        <time>2021-02-07T12:00:39Z</time>
      </trkpt>
      <trkpt lat="43.6183" lon="3.8443">
        <ele>58.6</ele>
        <time>2021-02-07T12:00:40Z</time>
      </trkpt>
      <trkpt lat="43.61828" lon="3.84425">
        <ele>60</ele>
        <time>2021-02-07T12:00:41Z</time>
      </trkpt>
      <trkpt lat="43.61827" lon="3.8442">
        <ele>59.1</ele>
        <time>2021-02-07T12:00:42Z</time>
      </trkpt>
      <trkpt lat="43.61825" lon="3.84416">
        <ele>59.3</ele>
        <time>2021-02-07T12:00:43Z</time>
      </trkpt>
      <trkpt lat="43.61823" lon="3.84412">
        <ele>59.6</ele>
        <time>2021-02-07T12:00:44Z</time>
      </trkpt>
      <trkpt lat="43.61821" lon="3.84407">
        <ele>60</ele>
        <time>2021-02-07T12:00:45Z</time>
      </trkpt>
      <trkpt lat="43.61819" lon="3.84403">
        <ele>60.2</ele>
        <time>2021-02-07T12:00:46Z</time>
      </trkpt>
      <trkpt lat="43.61817" lon="3.84399">
        <ele>60.5</ele>
        <time>2021-02-07T12:00:47Z</time>
      </trkpt>
      <trkpt lat="43.61816" lon="3.84394">
        <ele>60.7</ele>
        <time>2021-02-07T12:00:48Z</time>
      </trkpt>
      <trkpt lat="43.61814" lon="3.8439">
        <ele>60.9</ele>
        <time>2021-02-07T12:00:49Z</time>
      </trkpt>
      <trkpt lat="43.61812" lon="3.84386">
        <ele>61.1</ele>
        <time>2021-02-07T12:00:50Z</time>
      </trkpt>
      <trkpt lat="43.6181" lon="3.84383">
        <ele>61</ele>
        <time>2021-02-07T12:00:51Z</time>
      </trkpt>
      <trkpt lat="43.61809" lon="3.84379">
        <ele>61.4</ele>
        <time>2021-02-07T12:00:52Z</time>
      </trkpt>
      <trkpt lat="43.61807" lon="3.84376">
        <ele>61.5</ele>
        <time>2021-02-07T12:00:53Z</time>
      </trkpt>
      <trkpt lat="43.61805" lon="3.84372">
        <ele>61.6</ele>
        <time>2021-02-07T12:00:54Z</time>
      </trkpt>
      <trkpt lat="43.61803" lon="3.84369">
        <ele>61.8</ele>
        <time>2021-02-07T12:00:55Z</time>
      </trkpt>
      <trkpt lat="43.61801" lon="3.84366">
        <ele>62</ele>
        <time>2021-02-07T12:00:56Z</time>
      </trkpt>
      <trkpt lat="43.61799" lon="3.84363">
        <ele>62.2</ele>
        <time>2021-02-07T12:00:57Z</time>
      </trkpt>
      <trkpt lat="43.61798" lon="3.84361">
        <ele>62.3</ele>
        <time>2021-02-07T12:00:58Z</time>
      </trkpt>
      <trkpt lat="43.61796" lon="3.84359">
        <ele>62.5</ele>
        <time>2021-02-07T12:00:59Z</time>
      </trkpt>
      <trkpt lat="43.61793" lon="3.84356">
        <ele>62.9</ele>
        <time>2021-02-07T12:01:00Z</time>
      </trkpt>
      <trkpt lat="43.61791" lon="3.84354">
        <ele>63</ele>
        <time>2021-02-07T12:01:01Z</time>
      </trkpt>
      <trkpt lat="43.6179" lon="3.84351">
        <ele>63.4</ele>
        <time>2021-02-07T12:01:02Z</time>
      </trkpt>
      <trkpt lat="43.61788" lon="3.84349">
        <ele>63.7</ele>
        <time>2021-02-07T12:01:03Z</time>
      </trkpt>
      <trkpt lat="43.61786" lon="3.84346">
        <ele>64</ele>
        <time>2021-02-07T12:01:04Z</time>
      </trkpt>
      <trkpt lat="43.61784" lon="3.84343">
        <ele>64.2</ele>
        <time>2021-02-07T12:01:05Z</time>
      </trkpt>
      <trkpt lat="43.61782" lon="3.84341">
        <ele>64.4</ele>
        <time>2021-02-07T12:01:06Z</time>
      </trkpt>
      <trkpt lat="43.6178" lon="3.84338">
        <ele>64.7</ele>
        <time>2021-02-07T12:01:07Z</time>
      </trkpt>
      <trkpt lat="43.61778" lon="3.84336">
        <ele>64.8</ele>
        <time>2021-02-07T12:01:08Z</time>
      </trkpt>
      <trkpt lat="43.61776" lon="3.84333">
        <ele>65.2</ele>
        <time>2021-02-07T12:01:09Z</time>
      </trkpt>
      <trkpt lat="43.61774" lon="3.84331">
        <ele>65.5</ele>
        <time>2021-02-07T12:01:10Z</time>
      </trkpt>
      <trkpt lat="43.61772" lon="3.84328">
        <ele>65</ele>
        <time>2021-02-07T12:01:11Z</time>
      </trkpt>
      <trkpt lat="43.6177" lon="3.84326">
        <ele>66</ele>
        <time>2021-02-07T12:01:12Z</time>
      </trkpt>
      <trkpt lat="43.61768" lon="3.84324">
        <ele>66.3</ele>
        <time>2021-02-07T12:01:13Z</time>
      </trkpt>
      <trkpt lat="43.61766" lon="3.84321">
        <ele>66.5</ele>
        <time>2021-02-07T12:01:14Z</time>
      </trkpt>
      <trkpt lat="43.61764" lon="3.84319">
        <ele>66.7</ele>
        <time>2021-02-07T12:01:15Z</time>
      </trkpt>
      <trkpt lat="43.61762" lon="3.84316">
        <ele>67</ele>
        <time>2021-02-07T12:01:16Z</time>
      </trkpt>
      <trkpt lat="43.6176" lon="3.84314">
        <ele>67.2</ele>
        <time>2021-02-07T12:01:17Z</time>
      </trkpt>
      <trkpt lat="43.61759" lon="3.84312">
        <ele>67.3</ele>
        <time>2021-02-07T12:01:18Z</time>
      </trkpt>
      <trkpt lat="43.61757" lon="3.84309">
        <ele>67.5</ele>
        <time>2021-02-07T12:01:19Z</time>
      </trkpt>
      <trkpt lat="43.61755" lon="3.84307">
        <ele>67.6</ele>
        <time>2021-02-07T12:01:20Z</time>
      </trkpt>
      <trkpt lat="43.61753" lon="3.84304">
        <ele>67</ele>
        <time>2021-02-07T12:01:21Z</time>
      </trkpt>
      <trkpt lat="43.61751" lon="3.84302">
        <ele>68.1</ele>
        <time>2021-02-07T12:01:22Z</time>
      </trkpt>
      <trkpt lat="43.61749" lon="3.84299">
        <ele>68.3</ele>
        <time>2021-02-07T12:01:23Z</time>
      </trkpt>
      <trkpt lat="43.61747" lon="3.84297">
        <ele>68.5</ele>
        <time>2021-02-07T12:01:24Z</time>
      </trkpt>
      <trkpt lat="43.61745" lon="3.84294">
        <ele>68.8</ele>
        <time>2021-02-07T12:01:25Z</time>
      </trkpt>
      <trkpt lat="43.61744" lon="3.84292">
        <ele>68.9</ele>
        <time>2021-02-07T12:01:26Z</time>
      </trkpt>
      <trkpt lat="43.61742" lon="3.8429">
        <ele>69.1</ele>
        <time>2021-02-07T12:01:27Z</time>
      </trkpt>
      <trkpt lat="43.6174" lon="3.84287">
        <ele>69.4</ele>
        <time>2021-02-07T12:01:28Z</time>
      </trkpt>
      <trkpt lat="43.61739" lon="3.84285">
        <ele>69.5</ele>
        <time>2021-02-07T12:01:29Z</time>
      </trkpt>
      <trkpt lat="43.61737" lon="3.84282">
        <ele>69.8</ele>
        <time>2021-02-07T12:01:30Z</time>
      </trkpt>
      <trkpt lat="43.61735" lon="3.8428">
        <ele>70</ele>
        <time>2021-02-07T12:01:31Z</time>
      </trkpt>
      <trkpt lat="43.61734" lon="3.84277">
        <ele>70.2</ele>
        <time>2021-02-07T12:01:32Z</time>
      </trkpt>
      <trkpt lat="43.61732" lon="3.84275">
        <ele>70.4</ele>
        <time>2021-02-07T12:01:33Z</time>
      </trkpt>
      <trkpt lat="43.6173" lon="3.84272">
        <ele>70.7</ele>
        <time>2021-02-07T12:01:34Z</time>
      </trkpt>
      <trkpt lat="43.61729" lon="3.8427">
        <ele>70.9</ele>
        <time>2021-02-07T12:01:35Z</time>
      </trkpt>
      <trkpt lat="43.61727" lon="3.84267">
        <ele>71.1</ele>
        <time>2021-02-07T12:01:36Z</time>
      </trkpt>
      <trkpt lat="43.61725" lon="3.84265">
        <ele>71.3</ele>
        <time>2021-02-07T12:01:37Z</time>
      </trkpt>
      <trkpt lat="43.61724" lon="3.84263">
        <ele>71.4</ele>
        <time>2021-02-07T12:01:38Z</time>
      </trkpt>
      <trkpt lat="43.61722" lon="3.8426">
        <ele>71.7</ele>
        <time>2021-02-07T12:01:39Z</time>
      </trkpt>
      <trkpt lat="43.61721" lon="3.84257">
        <ele>71.9</ele>
        <time>2021-02-07T12:01:40Z</time>
      </trkpt>
      <trkpt lat="43.61719" lon="3.84255">
        <ele>72.1</ele>
        <time>2021-02-07T12:01:41Z</time>
      </trkpt>
      <trkpt lat="43.61716" lon="3.8425">
        <ele>72</ele>
        <time>2021-02-07T12:01:42Z</time>
      </trkpt>
      <trkpt lat="43.61714" lon="3.84247">
        <ele>73.1</ele>
        <time>2021-02-07T12:01:43Z</time>
      </trkpt>
      <trkpt lat="43.61713" lon="3.84245">
        <ele>73.4</ele>
        <time>2021-02-07T12:01:44Z</time>
      </trkpt>
      <trkpt lat="43.61711" lon="3.84242">
        <ele>73.7</ele>
        <time>2021-02-07T12:01:46Z</time>
      </trkpt>
      <trkpt lat="43.6171" lon="3.8424">
        <ele>73.9</ele>
        <time>2021-02-07T12:01:47Z</time>
      </trkpt>
      <trkpt lat="43.61708" lon="3.84237">
        <ele>74.2</ele>
        <time>2021-02-07T12:01:48Z</time>
      </trkpt>
      <trkpt lat="43.61707" lon="3.84235">
        <ele>74.4</ele>
        <time>2021-02-07T12:01:49Z</time>
      </trkpt>
      <trkpt lat="43.61705" lon="3.84233">
        <ele>74.6</ele>
        <time>2021-02-07T12:01:50Z</time>
      </trkpt>
      <trkpt lat="43.61703" lon="3.84231">
        <ele>77</ele>
        <time>2021-02-07T12:01:51Z</time>
      </trkpt>
      <trkpt lat="43.61702" lon="3.84229">
        <ele>74.8</ele>
        <time>2021-02-07T12:01:52Z</time>
      </trkpt>
      <trkpt lat="43.617" lon="3.84226">
        <ele>74.9</ele>
        <time>2021-02-07T12:01:53Z</time>
      </trkpt>
      <trkpt lat="43.61698" lon="3.84224">
        <ele>75</ele>
        <time>2021-02-07T12:01:54Z</time>
      </trkpt>
      <trkpt lat="43.61697" lon="3.84221">
        <ele>75.1</ele>
        <time>2021-02-07T12:01:55Z</time>
      </trkpt>
      <trkpt lat="43.61695" lon="3.84219">
        <ele>75.3</ele>
        <time>2021-02-07T12:01:56Z</time>
      </trkpt>
      <trkpt lat="43.61694" lon="3.84216">
        <ele>75.7</ele>
        <time>2021-02-07T12:01:57Z</time>
      </trkpt>
      <trkpt lat="43.61692" lon="3.84214">
        <ele>75.9</ele>
        <time>2021-02-07T12:01:58Z</time>
      </trkpt>
      <trkpt lat="43.61691" lon="3.84211">
        <ele>76.2</ele>
        <time>2021-02-07T12:01:59Z</time>
      </trkpt>
      <trkpt lat="43.61689" lon="3.84208">
        <ele>76.5</ele>
        <time>2021-02-07T12:02:00Z</time>
      </trkpt>
      <trkpt lat="43.61687" lon="3.84206">
        <ele>80</ele>
        <time>2021-02-07T12:02:01Z</time>
      </trkpt>
      <trkpt lat="43.61686" lon="3.84203">
        <ele>77</ele>
        <time>2021-02-07T12:02:02Z</time>
      </trkpt>
      <trkpt lat="43.61685" lon="3.842">
        <ele>77.2</ele>
        <time>2021-02-07T12:02:03Z</time>
      </trkpt>
      <trkpt lat="43.61683" lon="3.84198">
        <ele>77.3</ele>
        <time>2021-02-07T12:02:04Z</time>
      </trkpt>
      <trkpt lat="43.61682" lon="3.84195">
        <ele>77.5</ele>
        <time>2021-02-07T12:02:05Z</time>
      </trkpt>
      <trkpt lat="43.6168" lon="3.84192">
        <ele>77.6</ele>
        <time>2021-02-07T12:02:06Z</time>
      </trkpt>
      <trkpt lat="43.61678" lon="3.8419">
        <ele>77.6</ele>
        <time>2021-02-07T12:02:07Z</time>
      </trkpt>
      <trkpt lat="43.61677" lon="3.84187">
        <ele>77.7</ele>
        <time>2021-02-07T12:02:08Z</time>
      </trkpt>
      <trkpt lat="43.61675" lon="3.84184">
        <ele>77.8</ele>
        <time>2021-02-07T12:02:09Z</time>
      </trkpt>
      <trkpt lat="43.61674" lon="3.84181">
        <ele>78</ele>
        <time>2021-02-07T12:02:10Z</time>
      </trkpt>
      <trkpt lat="43.61672" lon="3.84179">
        <ele>81</ele>
        <time>2021-02-07T12:02:11Z</time>
      </trkpt>
      <trkpt lat="43.61671" lon="3.84176">
        <ele>78.3</ele>
        <time>2021-02-07T12:02:12Z</time>
      </trkpt>
      <trkpt lat="43.61669" lon="3.84174">
        <ele>78.4</ele>
        <time>2021-02-07T12:02:13Z</time>
      </trkpt>
      <trkpt lat="43.61667" lon="3.84171">
        <ele>78.7</ele>
        <time>2021-02-07T12:02:14Z</time>
      </trkpt>
      <trkpt lat="43.61665" lon="3.84168">
        <ele>78.9</ele>
        <time>2021-02-07T12:02:15Z</time>
      </trkpt>
      <trkpt lat="43.61664" lon="3.84166">
        <ele>79</ele>
        <time>2021-02-07T12:02:16Z</time>
      </trkpt>
      <trkpt lat="43.61663" lon="3.84163">
        <ele>79</ele>
        <time>2021-02-07T12:02:17Z</time>
      </trkpt>
      <trkpt lat="43.61661" lon="3.84161">
        <ele>79</ele>
        <time>2021-02-07T12:02:18Z</time>
      </trkpt>
      <trkpt lat="43.61659" lon="3.84159">
        <ele>79.1</ele>
        <time>2021-02-07T12:02:19Z</time>
      </trkpt>
      <trkpt lat="43.61658" lon="3.84157">
        <ele>79.1</ele>
        <time>2021-02-07T12:02:20Z</time>
      </trkpt>
      <trkpt lat="43.61656" lon="3.84154">
        <ele>82</ele>
        <time>2021-02-07T12:02:21Z</time>
      </trkpt>
      <trkpt lat="43.61654" lon="3.84152">
        <ele>79.2</ele>
        <time>2021-02-07T12:02:22Z</time>
      </trkpt>
      <trkpt lat="43.61653" lon="3.84149">
        <ele>79.3</ele>
        <time>2021-02-07T12:02:23Z</time>
      </trkpt>
      <trkpt lat="43.61651" lon="3.84147">
        <ele>79.4</ele>
        <time>2021-02-07T12:02:24Z</time>
      </trkpt>
      <trkpt lat="43.61649" lon="3.84144">
        <ele>79.5</ele>
        <time>2021-02-07T12:02:25Z</time>
      </trkpt>
      <trkpt lat="43.61648" lon="3.84142">
        <ele>79.6</ele>
        <time>2021-02-07T12:02:26Z</time>
      </trkpt>
      <trkpt lat="43.61646" lon="3.84139">
        <ele>79.7</ele>
        <time>2021-02-07T12:02:27Z</time>
      </trkpt>
      <trkpt lat="43.61645" lon="3.84136">
        <ele>79.8</ele>
        <time>2021-02-07T12:02:28Z</time>
      </trkpt>
      <trkpt lat="43.61643" lon="3.84133">
        <ele>79.9</ele>
        <time>2021-02-07T12:02:29Z</time>
      </trkpt>
      <trkpt lat="43.61641" lon="3.84131">
        <ele>80</ele>
        <time>2021-02-07T12:02:30Z</time>
      </trkpt>
      <trkpt lat="43.6164" lon="3.84128">
        <ele>83</ele>
        <time>2021-02-07T12:02:31Z</time>
      </trkpt>
      <trkpt lat="43.61638" lon="3.84126">
        <ele>80</ele>
        <time>2021-02-07T12:02:32Z</time>
      </trkpt>
      <trkpt lat="43.61636" lon="3.84123">
        <ele>80</ele>
        <time>2021-02-07T12:02:33Z</time>
      </trkpt>
      <trkpt lat="43.61635" lon="3.8412">
        <ele>80</ele>
        <time>2021-02-07T12:02:34Z</time>
      </trkpt>
      <trkpt lat="43.61635" lon="3.84117">
        <ele>80</ele>
        <time>2021-02-07T12:02:35Z</time>
      </trkpt>
      <trkpt lat="43.61635" lon="3.84113">
        <ele>80</ele>
        <time>2021-02-07T12:02:36Z</time>
      </trkpt>
      <trkpt lat="43.61635" lon="3.84111">
        <ele>80</ele>
        <time>2021-02-07T12:02:37Z</time>
      </trkpt>
      <trkpt lat="43.61635" lon="3.84108">
        <ele>80</ele>
        <time>2021-02-07T12:02:38Z</time>
      </trkpt>
      <trkpt lat="43.61635" lon="3.84105">
        <ele>80</ele>
        <time>2021-02-07T12:02:39Z</time>
      </trkpt>
      <trkpt lat="43.61635" lon="3.84103">
        <ele>83</ele>
        <time>2021-02-07T12:02:41Z</time>
      </trkpt>
      <trkpt lat="43.61632" lon="3.84091">
        <ele>85</ele>
        <time>2021-02-07T12:03:39Z</time>
      </trkpt>
      <trkpt lat="43.6163" lon="3.84088">
        <ele>80</ele>
        <time>2021-02-07T12:03:40Z</time>
      </trkpt>
      <trkpt lat="43.61629" lon="3.84084">
        <ele>80</ele>
        <time>2021-02-07T12:03:41Z</time>
      </trkpt>
      <trkpt lat="43.61628" lon="3.84081">
        <ele>80</ele>
        <time>2021-02-07T12:03:42Z</time>
      </trkpt>
      <trkpt lat="43.61628" lon="3.84077">
        <ele>80</ele>
        <time>2021-02-07T12:03:43Z</time>
      </trkpt>
      <trkpt lat="43.61628" lon="3.84073">
        <ele>80</ele>
        <time>2021-02-07T12:03:44Z</time>
      </trkpt>
      <trkpt lat="43.61629" lon="3.84069">
        <ele>80</ele>
        <time>2021-02-07T12:03:45Z</time>
      </trkpt>
      <trkpt lat="43.61629" lon="3.84065">
        <ele>80</ele>
        <time>2021-02-07T12:03:46Z</time>
      </trkpt>
      <trkpt lat="43.61628" lon="3.84063">
        <ele>80</ele>
        <time>2021-02-07T12:03:47Z</time>
      </trkpt>
      <trkpt lat="43.61626" lon="3.84061">
        <ele>84</ele>
        <time>2021-02-07T12:03:48Z</time>
      </trkpt>
      <trkpt lat="43.61624" lon="3.84059">
        <ele>80</ele>
        <time>2021-02-07T12:03:49Z</time>
      </trkpt>
      <trkpt lat="43.61622" lon="3.84058">
        <ele>80</ele>
        <time>2021-02-07T12:03:50Z</time>
      </trkpt>
      <trkpt lat="43.6162" lon="3.84057">
        <ele>80</ele>
        <time>2021-02-07T12:03:51Z</time>
      </trkpt>
      <trkpt lat="43.61619" lon="3.84056">
        <ele>80</ele>
        <time>2021-02-07T12:03:52Z</time>
      </trkpt>
      <trkpt lat="43.61617" lon="3.84055">
        <ele>80</ele>
        <time>2021-02-07T12:03:53Z</time>
      </trkpt>
      <trkpt lat="43.61615" lon="3.84054">
        <ele>79.9</ele>
        <time>2021-02-07T12:03:54Z</time>
      </trkpt>
      <trkpt lat="43.61614" lon="3.84052">
        <ele>79.7</ele>
        <time>2021-02-07T12:03:55Z</time>
      </trkpt>
      <trkpt lat="43.61613" lon="3.8405">
        <ele>79.6</ele>
        <time>2021-02-07T12:03:56Z</time>
      </trkpt>
      <trkpt lat="43.61611" lon="3.84048">
        <ele>79.4</ele>
        <time>2021-02-07T12:03:57Z</time>
      </trkpt>
      <trkpt lat="43.6161" lon="3.84046">
        <ele>79.2</ele>
        <time>2021-02-07T12:03:58Z</time>
      </trkpt>
      <trkpt lat="43.61608" lon="3.84045">
        <ele>83</ele>
        <time>2021-02-07T12:03:59Z</time>
      </trkpt>
      <trkpt lat="43.61607" lon="3.84043">
        <ele>78.9</ele>
        <time>2021-02-07T12:04:00Z</time>
      </trkpt>
      <trkpt lat="43.61605" lon="3.84041">
        <ele>78.6</ele>
        <time>2021-02-07T12:04:01Z</time>
      </trkpt>
      <trkpt lat="43.61603" lon="3.84037">
        <ele>78.3</ele>
        <time>2021-02-07T12:04:03Z</time>
      </trkpt>
      <trkpt lat="43.61603" lon="3.84035">
        <ele>78.2</ele>
        <time>2021-02-07T12:04:05Z</time>
      </trkpt>
      <trkpt lat="43.61601" lon="3.84033">
        <ele>77.9</ele>
        <time>2021-02-07T12:04:09Z</time>
      </trkpt>
      <trkpt lat="43.616" lon="3.84031">
        <ele>77.8</ele>
        <time>2021-02-07T12:04:14Z</time>
      </trkpt>
      <trkpt lat="43.61598" lon="3.84029">
        <ele>77.6</ele>
        <time>2021-02-07T12:04:17Z</time>
      </trkpt>
      <trkpt lat="43.61597" lon="3.84027">
        <ele>77.5</ele>
        <time>2021-02-07T12:04:21Z</time>
      </trkpt>
      <trkpt lat="43.61595" lon="3.84025">
        <ele>77.4</ele>
        <time>2021-02-07T12:04:23Z</time>
      </trkpt>
      <trkpt lat="43.61594" lon="3.84023">
        <ele>77.4</ele>
        <time>2021-02-07T12:04:24Z</time>
      </trkpt>
      <trkpt lat="43.61592" lon="3.84021">
        <ele>77.3</ele>
        <time>2021-02-07T12:04:25Z</time>
      </trkpt>
      <trkpt lat="43.6159" lon="3.84019">
        <ele>77.2</ele>
        <time>2021-02-07T12:04:26Z</time>
      </trkpt>
      <trkpt lat="43.61587" lon="3.84016">
        <ele>77.1</ele>
        <time>2021-02-07T12:04:27Z</time>
      </trkpt>
      <trkpt lat="43.61585" lon="3.84013">
        <ele>77.1</ele>
        <time>2021-02-07T12:04:28Z</time>
      </trkpt>
      <trkpt lat="43.61583" lon="3.84009">
        <ele>81</ele>
        <time>2021-02-07T12:04:29Z</time>
      </trkpt>
      <trkpt lat="43.6158" lon="3.84005">
        <ele>76.8</ele>
        <time>2021-02-07T12:04:30Z</time>
      </trkpt>
      <trkpt lat="43.61578" lon="3.84002">
        <ele>76.6</ele>
        <time>2021-02-07T12:04:31Z</time>
      </trkpt>
      <trkpt lat="43.61575" lon="3.83998">
        <ele>76.3</ele>
        <time>2021-02-07T12:04:32Z</time>
      </trkpt>
      <trkpt lat="43.61573" lon="3.83995">
        <ele>76.1</ele>
        <time>2021-02-07T12:04:33Z</time>
      </trkpt>
      <trkpt lat="43.6157" lon="3.83992">
        <ele>75.9</ele>
        <time>2021-02-07T12:04:34Z</time>
      </trkpt>
      <trkpt lat="43.61568" lon="3.83989">
        <ele>75.7</ele>
        <time>2021-02-07T12:04:35Z</time>
      </trkpt>
      <trkpt lat="43.61564" lon="3.83987">
        <ele>75.5</ele>
        <time>2021-02-07T12:04:36Z</time>
      </trkpt>
      <trkpt lat="43.61561" lon="3.83984">
        <ele>75.3</ele>
        <time>2021-02-07T12:04:37Z</time>
      </trkpt>
      <trkpt lat="43.61558" lon="3.83983">
        <ele>79</ele>
        <time>2021-02-07T12:04:38Z</time>
      </trkpt>
      <trkpt lat="43.61554" lon="3.83981">
        <ele>74.9</ele>
        <time>2021-02-07T12:04:39Z</time>
      </trkpt>
      <trkpt lat="43.61551" lon="3.8398">
        <ele>74.8</ele>
        <time>2021-02-07T12:04:40Z</time>
      </trkpt>
      <trkpt lat="43.61547" lon="3.83978">
        <ele>74.7</ele>
        <time>2021-02-07T12:04:41Z</time>
      </trkpt>
      <trkpt lat="43.61544" lon="3.83976">
        <ele>74.6</ele>
        <time>2021-02-07T12:04:42Z</time>
      </trkpt>
      <trkpt lat="43.61541" lon="3.83974">
        <ele>74.5</ele>
        <time>2021-02-07T12:04:43Z</time>
      </trkpt>
      <trkpt lat="43.61538" lon="3.83972">
        <ele>74.4</ele>
        <time>2021-02-07T12:04:44Z</time>
      </trkpt>
      <trkpt lat="43.61535" lon="3.8397">
        <ele>74.2</ele>
        <time>2021-02-07T12:04:45Z</time>
      </trkpt>
      <trkpt lat="43.61532" lon="3.8397">
        <ele>74.1</ele>
        <time>2021-02-07T12:04:46Z</time>
      </trkpt>
      <trkpt lat="43.6153" lon="3.83969">
        <ele>74.1</ele>
        <time>2021-02-07T12:04:47Z</time>
      </trkpt>
      <trkpt lat="43.61526" lon="3.83968">
        <ele>77</ele>
        <time>2021-02-07T12:04:48Z</time>
      </trkpt>
      <trkpt lat="43.61523" lon="3.83967">
        <ele>73.8</ele>
        <time>2021-02-07T12:04:49Z</time>
      </trkpt>
      <trkpt lat="43.6152" lon="3.83965">
        <ele>73.7</ele>
        <time>2021-02-07T12:04:50Z</time>
      </trkpt>
      <trkpt lat="43.61517" lon="3.83963">
        <ele>73.6</ele>
        <time>2021-02-07T12:04:51Z</time>
      </trkpt>
      <trkpt lat="43.61514" lon="3.83962">
        <ele>73.5</ele>
        <time>2021-02-07T12:04:52Z</time>
      </trkpt>
      <trkpt lat="43.61511" lon="3.83961">
        <ele>73.4</ele>
        <time>2021-02-07T12:04:53Z</time>
      </trkpt>
      <trkpt lat="43.61508" lon="3.83959">
        <ele>73.3</ele>
        <time>2021-02-07T12:04:54Z</time>
      </trkpt>
      <trkpt lat="43.61504" lon="3.83958">
        <ele>73.1</ele>
        <time>2021-02-07T12:04:55Z</time>
      </trkpt>
      <trkpt lat="43.61501" lon="3.83956">
        <ele>73</ele>
        <time>2021-02-07T12:04:56Z</time>
      </trkpt>
      <trkpt lat="43.61498" lon="3.83955">
        <ele>72.9</ele>
        <time>2021-02-07T12:04:57Z</time>
      </trkpt>
      <trkpt lat="43.61495" lon="3.83953">
        <ele>77</ele>
        <time>2021-02-07T12:04:58Z</time>
      </trkpt>
      <trkpt lat="43.61492" lon="3.83952">
        <ele>72.7</ele>
        <time>2021-02-07T12:04:59Z</time>
      </trkpt>
      <trkpt lat="43.61489" lon="3.8395">
        <ele>72.6</ele>
        <time>2021-02-07T12:05:00Z</time>
      </trkpt>
      <trkpt lat="43.61486" lon="3.83949">
        <ele>72.5</ele>
        <time>2021-02-07T12:05:01Z</time>
      </trkpt>
      <trkpt lat="43.61483" lon="3.83947">
        <ele>72.4</ele>
        <time>2021-02-07T12:05:02Z</time>
      </trkpt>
      <trkpt lat="43.6148" lon="3.83946">
        <ele>72.3</ele>
        <time>2021-02-07T12:05:03Z</time>
      </trkpt>
      <trkpt lat="43.61477" lon="3.83944">
        <ele>72.2</ele>
        <time>2021-02-07T12:05:04Z</time>
      </trkpt>
      <trkpt lat="43.61473" lon="3.83943">
        <ele>72</ele>
        <time>2021-02-07T12:05:05Z</time>
      </trkpt>
      <trkpt lat="43.6147" lon="3.83941">
        <ele>71.8</ele>
        <time>2021-02-07T12:05:06Z</time>
      </trkpt>
      <trkpt lat="43.61467" lon="3.83939">
        <ele>71.6</ele>
        <time>2021-02-07T12:05:07Z</time>
      </trkpt>
      <trkpt lat="43.61463" lon="3.83937">
        <ele>76</ele>
        <time>2021-02-07T12:05:08Z</time>
      </trkpt>
      <trkpt lat="43.61459" lon="3.83936">
        <ele>71</ele>
        <time>2021-02-07T12:05:09Z</time>
      </trkpt>
      <trkpt lat="43.61455" lon="3.83934">
        <ele>70.8</ele>
        <time>2021-02-07T12:05:10Z</time>
      </trkpt>
      <trkpt lat="43.61451" lon="3.83932">
        <ele>70.5</ele>
        <time>2021-02-07T12:05:11Z</time>
      </trkpt>
      <trkpt lat="43.61447" lon="3.8393">
        <ele>70.2</ele>
        <time>2021-02-07T12:05:12Z</time>
      </trkpt>
      <trkpt lat="43.61443" lon="3.83927">
        <ele>70</ele>
        <time>2021-02-07T12:05:13Z</time>
      </trkpt>
      <trkpt lat="43.61439" lon="3.83925">
        <ele>69.9</ele>
        <time>2021-02-07T12:05:14Z</time>
      </trkpt>
      <trkpt lat="43.61436" lon="3.83923">
        <ele>69.9</ele>
        <time>2021-02-07T12:05:15Z</time>
      </trkpt>
      <trkpt lat="43.61432" lon="3.8392">
        <ele>69.9</ele>
        <time>2021-02-07T12:05:16Z</time>
      </trkpt>
      <trkpt lat="43.61427" lon="3.83918">
        <ele>69.9</ele>
        <time>2021-02-07T12:05:17Z</time>
      </trkpt>
      <trkpt lat="43.61423" lon="3.83915">
        <ele>75</ele>
        <time>2021-02-07T12:05:18Z</time>
      </trkpt>
      <trkpt lat="43.61419" lon="3.83912">
        <ele>70</ele>
        <time>2021-02-07T12:05:19Z</time>
      </trkpt>
      <trkpt lat="43.61414" lon="3.83909">
        <ele>69.6</ele>
        <time>2021-02-07T12:05:20Z</time>
      </trkpt>
      <trkpt lat="43.61409" lon="3.83907">
        <ele>68.8</ele>
        <time>2021-02-07T12:05:21Z</time>
      </trkpt>
      <trkpt lat="43.61404" lon="3.83904">
        <ele>68.3</ele>
        <time>2021-02-07T12:05:22Z</time>
      </trkpt>
      <trkpt lat="43.614" lon="3.83901">
        <ele>68.1</ele>
        <time>2021-02-07T12:05:23Z</time>
      </trkpt>
      <trkpt lat="43.61395" lon="3.83898">
        <ele>67.9</ele>
        <time>2021-02-07T12:05:24Z</time>
      </trkpt>
      <trkpt lat="43.61391" lon="3.83895">
        <ele>68.1</ele>
        <time>2021-02-07T12:05:25Z</time>
      </trkpt>
      <trkpt lat="43.61386" lon="3.83892">
        <ele>68.4</ele>
        <time>2021-02-07T12:05:26Z</time>
      </trkpt>
      <trkpt lat="43.61382" lon="3.83888">
        <ele>68.7</ele>
        <time>2021-02-07T12:05:27Z</time>
      </trkpt>
      <trkpt lat="43.61378" lon="3.83883">
        <ele>73</ele>
        <time>2021-02-07T12:05:28Z</time>
      </trkpt>
      <trkpt lat="43.61374" lon="3.8388">
        <ele>68.1</ele>
        <time>2021-02-07T12:05:29Z</time>
      </trkpt>
      <trkpt lat="43.6137" lon="3.8388">
        <ele>68</ele>
        <time>2021-02-07T12:05:30Z</time>
      </trkpt>
      <trkpt lat="43.61367" lon="3.83882">
        <ele>68</ele>
        <time>2021-02-07T12:05:31Z</time>
      </trkpt>
      <trkpt lat="43.61365" lon="3.83886">
        <ele>68</ele>
        <time>2021-02-07T12:05:32Z</time>
      </trkpt>
      <trkpt lat="43.61363" lon="3.83889">
        <ele>68.1</ele>
        <time>2021-02-07T12:05:33Z</time>
      </trkpt>
      <trkpt lat="43.6136" lon="3.83892">
        <ele>67.9</ele>
        <time>2021-02-07T12:05:34Z</time>
      </trkpt>
      <trkpt lat="43.61356" lon="3.83893">
        <ele>67.7</ele>
        <time>2021-02-07T12:05:35Z</time>
      </trkpt>
      <trkpt lat="43.61352" lon="3.83895">
        <ele>67.5</ele>
        <time>2021-02-07T12:05:36Z</time>
      </trkpt>
      <trkpt lat="43.61348" lon="3.83895">
        <ele>67.4</ele>
        <time>2021-02-07T12:05:37Z</time>
      </trkpt>
      <trkpt lat="43.61344" lon="3.83895">
        <ele>67.3</ele>
        <time>2021-02-07T12:05:38Z</time>
      </trkpt>
      <trkpt lat="43.6134" lon="3.83894">
        <ele>73</ele>
        <time>2021-02-07T12:05:39Z</time>
      </trkpt>
      <trkpt lat="43.61335" lon="3.83892">
        <ele>67.1</ele>
        <time>2021-02-07T12:05:40Z</time>
      </trkpt>
      <trkpt lat="43.61329" lon="3.83891">
        <ele>66.7</ele>
        <time>2021-02-07T12:05:41Z</time>
      </trkpt>
      <trkpt lat="43.61323" lon="3.83889">
        <ele>66.3</ele>
        <time>2021-02-07T12:05:42Z</time>
      </trkpt>
      <trkpt lat="43.61317" lon="3.83887">
        <ele>65.8</ele>
        <time>2021-02-07T12:05:43Z</time>
      </trkpt>
      <trkpt lat="43.61311" lon="3.83885">
        <ele>65.4</ele>
        <time>2021-02-07T12:05:44Z</time>
      </trkpt>
      <trkpt lat="43.61305" lon="3.83884">
        <ele>65</ele>
        <time>2021-02-07T12:05:45Z</time>
      </trkpt>
      <trkpt lat="43.61298" lon="3.83882">
        <ele>65</ele>
        <time>2021-02-07T12:05:46Z</time>
      </trkpt>
      <trkpt lat="43.61291" lon="3.83881">
        <ele>65</ele>
        <time>2021-02-07T12:05:47Z</time>
      </trkpt>
      <trkpt lat="43.61285" lon="3.83879">
        <ele>72</ele>
        <time>2021-02-07T12:05:48Z</time>
      </trkpt>
      <trkpt lat="43.61278" lon="3.83878">
        <ele>65</ele>
        <time>2021-02-07T12:05:49Z</time>
      </trkpt>
      <trkpt lat="43.61272" lon="3.83877">
        <ele>64.8</ele>
        <time>2021-02-07T12:05:50Z</time>
      </trkpt>
      <trkpt lat="43.61266" lon="3.83876">
        <ele>64.6</ele>
        <time>2021-02-07T12:05:51Z</time>
      </trkpt>
      <trkpt lat="43.61261" lon="3.83873">
        <ele>64.4</ele>
        <time>2021-02-07T12:05:52Z</time>
      </trkpt>
      <trkpt lat="43.61256" lon="3.83869">
        <ele>64.2</ele>
        <time>2021-02-07T12:05:53Z</time>
      </trkpt>
      <trkpt lat="43.61253" lon="3.83864">
        <ele>64.1</ele>
        <time>2021-02-07T12:05:54Z</time>
      </trkpt>
      <trkpt lat="43.6125" lon="3.83858">
        <ele>64.1</ele>
        <time>2021-02-07T12:05:55Z</time>
      </trkpt>
      <trkpt lat="43.61247" lon="3.83852">
        <ele>64.3</ele>
        <time>2021-02-07T12:05:56Z</time>
      </trkpt>
      <trkpt lat="43.61245" lon="3.83845">
        <ele>64.5</ele>
        <time>2021-02-07T12:05:57Z</time>
      </trkpt>
      <trkpt lat="43.61243" lon="3.83839">
        <ele>72</ele>
        <time>2021-02-07T12:05:58Z</time>
      </trkpt>
      <trkpt lat="43.61242" lon="3.83833">
        <ele>64.7</ele>
        <time>2021-02-07T12:05:59Z</time>
      </trkpt>
      <trkpt lat="43.6124" lon="3.83826">
        <ele>64.6</ele>
        <time>2021-02-07T12:06:00Z</time>
      </trkpt>
      <trkpt lat="43.61237" lon="3.8382">
        <ele>64.5</ele>
        <time>2021-02-07T12:06:01Z</time>
      </trkpt>
      <trkpt lat="43.61235" lon="3.83813">
        <ele>64.5</ele>
        <time>2021-02-07T12:06:02Z</time>
      </trkpt>
      <trkpt lat="43.61232" lon="3.83807">
        <ele>64.4</ele>
        <time>2021-02-07T12:06:03Z</time>
      </trkpt>
      <trkpt lat="43.6123" lon="3.838">
        <ele>64.3</ele>
        <time>2021-02-07T12:06:04Z</time>
      </trkpt>
      <trkpt lat="43.61228" lon="3.83793">
        <ele>64.2</ele>
        <time>2021-02-07T12:06:05Z</time>
      </trkpt>
      <trkpt lat="43.61225" lon="3.83786">
        <ele>64.1</ele>
        <time>2021-02-07T12:06:06Z</time>
      </trkpt>
      <trkpt lat="43.61223" lon="3.83779">
        <ele>64</ele>
        <time>2021-02-07T12:06:07Z</time>
      </trkpt>
      <trkpt lat="43.61221" lon="3.83771">
        <ele>64</ele>
        <time>2021-02-07T12:06:08Z</time>
      </trkpt>
      <trkpt lat="43.6122" lon="3.83764">
        <ele>71</ele>
        <time>2021-02-07T12:06:09Z</time>
      </trkpt>
      <trkpt lat="43.61218" lon="3.83757">
        <ele>64</ele>
        <time>2021-02-07T12:06:10Z</time>
      </trkpt>
      <trkpt lat="43.61216" lon="3.8375">
        <ele>64</ele>
        <time>2021-02-07T12:06:11Z</time>
      </trkpt>
      <trkpt lat="43.61213" lon="3.83743">
        <ele>64</ele>
        <time>2021-02-07T12:06:12Z</time>
      </trkpt>
      <trkpt lat="43.61211" lon="3.83736">
        <ele>64</ele>
        <time>2021-02-07T12:06:13Z</time>
      </trkpt>
      <trkpt lat="43.6121" lon="3.83728">
        <ele>64</ele>
        <time>2021-02-07T12:06:14Z</time>
      </trkpt>
      <trkpt lat="43.61209" lon="3.83721">
        <ele>63.9</ele>
        <time>2021-02-07T12:06:15Z</time>
      </trkpt>
      <trkpt lat="43.61207" lon="3.83713">
        <ele>63.5</ele>
        <time>2021-02-07T12:06:16Z</time>
      </trkpt>
      <trkpt lat="43.61205" lon="3.83705">
        <ele>63</ele>
        <time>2021-02-07T12:06:17Z</time>
      </trkpt>
      <trkpt lat="43.61203" lon="3.83697">
        <ele>69</ele>
        <time>2021-02-07T12:06:18Z</time>
      </trkpt>
      <trkpt lat="43.612" lon="3.8369">
        <ele>62.2</ele>
        <time>2021-02-07T12:06:19Z</time>
      </trkpt>
      <trkpt lat="43.61198" lon="3.83682">
        <ele>62.1</ele>
        <time>2021-02-07T12:06:20Z</time>
      </trkpt>
      <trkpt lat="43.61196" lon="3.83675">
        <ele>62.1</ele>
        <time>2021-02-07T12:06:21Z</time>
      </trkpt>
      <trkpt lat="43.61193" lon="3.83668">
        <ele>62</ele>
        <time>2021-02-07T12:06:22Z</time>
      </trkpt>
      <trkpt lat="43.61192" lon="3.83661">
        <ele>62.2</ele>
        <time>2021-02-07T12:06:23Z</time>
      </trkpt>
      <trkpt lat="43.6119" lon="3.83654">
        <ele>62.3</ele>
        <time>2021-02-07T12:06:24Z</time>
      </trkpt>
      <trkpt lat="43.61188" lon="3.83648">
        <ele>62.4</ele>
        <time>2021-02-07T12:06:25Z</time>
      </trkpt>
      <trkpt lat="43.61186" lon="3.83641">
        <ele>62.4</ele>
        <time>2021-02-07T12:06:26Z</time>
      </trkpt>
      <trkpt lat="43.61184" lon="3.83635">
        <ele>62.2</ele>
        <time>2021-02-07T12:06:27Z</time>
      </trkpt>
      <trkpt lat="43.61182" lon="3.83629">
        <ele>68</ele>
        <time>2021-02-07T12:06:28Z</time>
      </trkpt>
      <trkpt lat="43.6118" lon="3.83622">
        <ele>62</ele>
        <time>2021-02-07T12:06:29Z</time>
      </trkpt>
      <trkpt lat="43.61177" lon="3.83616">
        <ele>61.7</ele>
        <time>2021-02-07T12:06:30Z</time>
      </trkpt>
      <trkpt lat="43.61175" lon="3.8361">
        <ele>61.6</ele>
        <time>2021-02-07T12:06:31Z</time>
      </trkpt>
      <trkpt lat="43.61173" lon="3.83604">
        <ele>61.4</ele>
        <time>2021-02-07T12:06:32Z</time>
      </trkpt>
      <trkpt lat="43.6117" lon="3.83598">
        <ele>61.2</ele>
        <time>2021-02-07T12:06:33Z</time>
      </trkpt>
      <trkpt lat="43.61168" lon="3.83592">
        <ele>61.1</ele>
        <time>2021-02-07T12:06:34Z</time>
      </trkpt>
      <trkpt lat="43.61166" lon="3.83586">
        <ele>61</ele>
        <time>2021-02-07T12:06:35Z</time>
      </trkpt>
      <trkpt lat="43.61164" lon="3.83579">
        <ele>61</ele>
        <time>2021-02-07T12:06:36Z</time>
      </trkpt>
      <trkpt lat="43.61162" lon="3.83573">
        <ele>61</ele>
        <time>2021-02-07T12:06:37Z</time>
      </trkpt>
      <trkpt lat="43.61159" lon="3.83566">
        <ele>66</ele>
        <time>2021-02-07T12:06:38Z</time>
      </trkpt>
      <trkpt lat="43.61157" lon="3.8356">
        <ele>61</ele>
        <time>2021-02-07T12:06:39Z</time>
      </trkpt>
      <trkpt lat="43.61154" lon="3.83554">
        <ele>61</ele>
        <time>2021-02-07T12:06:40Z</time>
      </trkpt>
      <trkpt lat="43.61152" lon="3.83548">
        <ele>61</ele>
        <time>2021-02-07T12:06:41Z</time>
      </trkpt>
      <trkpt lat="43.6115" lon="3.83542">
        <ele>61</ele>
        <time>2021-02-07T12:06:42Z</time>
      </trkpt>
      <trkpt lat="43.61148" lon="3.83536">
        <ele>61</ele>
        <time>2021-02-07T12:06:43Z</time>
      </trkpt>
      <trkpt lat="43.61147" lon="3.83529">
        <ele>61</ele>
        <time>2021-02-07T12:06:44Z</time>
      </trkpt>
      <trkpt lat="43.61145" lon="3.83523">
        <ele>61</ele>
        <time>2021-02-07T12:06:45Z</time>
      </trkpt>
      <trkpt lat="43.61143" lon="3.83517">
        <ele>61</ele>
        <time>2021-02-07T12:06:46Z</time>
      </trkpt>
      <trkpt lat="43.61141" lon="3.83511">
        <ele>61</ele>
        <time>2021-02-07T12:06:47Z</time>
      </trkpt>
      <trkpt lat="43.6114" lon="3.83505">
        <ele>64</ele>
        <time>2021-02-07T12:06:48Z</time>
      </trkpt>
      <trkpt lat="43.61138" lon="3.835">
        <ele>61</ele>
        <time>2021-02-07T12:06:49Z</time>
      </trkpt>
      <trkpt lat="43.61136" lon="3.83494">
        <ele>61</ele>
        <time>2021-02-07T12:06:50Z</time>
      </trkpt>
      <trkpt lat="43.61134" lon="3.83489">
        <ele>61</ele>
        <time>2021-02-07T12:06:51Z</time>
      </trkpt>
      <trkpt lat="43.61132" lon="3.83484">
        <ele>61</ele>
        <time>2021-02-07T12:06:52Z</time>
      </trkpt>
      <trkpt lat="43.6113" lon="3.83478">
        <ele>61</ele>
        <time>2021-02-07T12:06:53Z</time>
      </trkpt>
      <trkpt lat="43.61128" lon="3.83472">
        <ele>61</ele>
        <time>2021-02-07T12:06:54Z</time>
      </trkpt>
      <trkpt lat="43.61127" lon="3.83466">
        <ele>61</ele>
        <time>2021-02-07T12:06:55Z</time>
      </trkpt>
      <trkpt lat="43.61125" lon="3.83461">
        <ele>61</ele>
        <time>2021-02-07T12:06:56Z</time>
      </trkpt>
      <trkpt lat="43.61122" lon="3.83455">
        <ele>61</ele>
        <time>2021-02-07T12:06:57Z</time>
      </trkpt>
      <trkpt lat="43.6112" lon="3.8345">
        <ele>64</ele>
        <time>2021-02-07T12:06:58Z</time>
      </trkpt>
      <trkpt lat="43.61118" lon="3.83444">
        <ele>61</ele>
        <time>2021-02-07T12:06:59Z</time>
      </trkpt>
      <trkpt lat="43.61115" lon="3.83438">
        <ele>61</ele>
        <time>2021-02-07T12:07:00Z</time>
      </trkpt>
      <trkpt lat="43.61113" lon="3.83433">
        <ele>61</ele>
        <time>2021-02-07T12:07:01Z</time>
      </trkpt>
      <trkpt lat="43.61111" lon="3.83427">
        <ele>61</ele>
        <time>2021-02-07T12:07:02Z</time>
      </trkpt>
      <trkpt lat="43.6111" lon="3.83421">
        <ele>61</ele>
        <time>2021-02-07T12:07:03Z</time>
      </trkpt>
      <trkpt lat="43.61108" lon="3.83415">
        <ele>61.1</ele>
        <time>2021-02-07T12:07:04Z</time>
      </trkpt>
      <trkpt lat="43.61106" lon="3.83409">
        <ele>61.2</ele>
        <time>2021-02-07T12:07:05Z</time>
      </trkpt>
      <trkpt lat="43.61104" lon="3.83403">
        <ele>61.4</ele>
        <time>2021-02-07T12:07:06Z</time>
      </trkpt>
      <trkpt lat="43.61102" lon="3.83398">
        <ele>61.5</ele>
        <time>2021-02-07T12:07:07Z</time>
      </trkpt>
      <trkpt lat="43.611" lon="3.83392">
        <ele>61.5</ele>
        <time>2021-02-07T12:07:08Z</time>
      </trkpt>
      <trkpt lat="43.61098" lon="3.83387">
        <ele>64</ele>
        <time>2021-02-07T12:07:09Z</time>
      </trkpt>
      <trkpt lat="43.61097" lon="3.83382">
        <ele>61.5</ele>
        <time>2021-02-07T12:07:10Z</time>
      </trkpt>
      <trkpt lat="43.61095" lon="3.83377">
        <ele>61.4</ele>
        <time>2021-02-07T12:07:11Z</time>
      </trkpt>
      <trkpt lat="43.61094" lon="3.83372">
        <ele>61.4</ele>
        <time>2021-02-07T12:07:12Z</time>
      </trkpt>
      <trkpt lat="43.61093" lon="3.83368">
        <ele>61.3</ele>
        <time>2021-02-07T12:07:13Z</time>
      </trkpt>
      <trkpt lat="43.61093" lon="3.83363">
        <ele>61.3</ele>
        <time>2021-02-07T12:07:14Z</time>
      </trkpt>
      <trkpt lat="43.61093" lon="3.83359">
        <ele>61.3</ele>
        <time>2021-02-07T12:07:15Z</time>
      </trkpt>
      <trkpt lat="43.61092" lon="3.83354">
        <ele>61.3</ele>
        <time>2021-02-07T12:07:16Z</time>
      </trkpt>
      <trkpt lat="43.61091" lon="3.83344">
        <ele>61.3</ele>
        <time>2021-02-07T12:07:17Z</time>
      </trkpt>
      <trkpt lat="43.6109" lon="3.83339">
        <ele>61.2</ele>
        <time>2021-02-07T12:07:19Z</time>
      </trkpt>
      <trkpt lat="43.61089" lon="3.83334">
        <ele>61.2</ele>
        <time>2021-02-07T12:07:20Z</time>
      </trkpt>
      <trkpt lat="43.61089" lon="3.83328">
        <ele>61.2</ele>
        <time>2021-02-07T12:07:21Z</time>
      </trkpt>
      <trkpt lat="43.61091" lon="3.83323">
        <ele>61.4</ele>
        <time>2021-02-07T12:07:22Z</time>
      </trkpt>
      <trkpt lat="43.61092" lon="3.83318">
        <ele>61.5</ele>
        <time>2021-02-07T12:07:23Z</time>
      </trkpt>
      <trkpt lat="43.61093" lon="3.83313">
        <ele>61.6</ele>
        <time>2021-02-07T12:07:24Z</time>
      </trkpt>
      <trkpt lat="43.61095" lon="3.83307">
        <ele>61.8</ele>
        <time>2021-02-07T12:07:25Z</time>
      </trkpt>
      <trkpt lat="43.61096" lon="3.83302">
        <ele>61.7</ele>
        <time>2021-02-07T12:07:26Z</time>
      </trkpt>
      <trkpt lat="43.61098" lon="3.83297">
        <ele>61.6</ele>
        <time>2021-02-07T12:07:27Z</time>
      </trkpt>
      <trkpt lat="43.611" lon="3.83292">
        <ele>63</ele>
        <time>2021-02-07T12:07:28Z</time>
      </trkpt>
      <trkpt lat="43.61101" lon="3.83287">
        <ele>61.2</ele>
        <time>2021-02-07T12:07:29Z</time>
      </trkpt>
      <trkpt lat="43.61103" lon="3.83281">
        <ele>60.9</ele>
        <time>2021-02-07T12:07:30Z</time>
      </trkpt>
      <trkpt lat="43.61104" lon="3.83276">
        <ele>60.7</ele>
        <time>2021-02-07T12:07:31Z</time>
      </trkpt>
      <trkpt lat="43.61105" lon="3.83271">
        <ele>60.8</ele>
        <time>2021-02-07T12:07:32Z</time>
      </trkpt>
      <trkpt lat="43.61106" lon="3.83266">
        <ele>60.8</ele>
        <time>2021-02-07T12:07:33Z</time>
      </trkpt>
      <trkpt lat="43.61108" lon="3.83261">
        <ele>60.9</ele>
        <time>2021-02-07T12:07:34Z</time>
      </trkpt>
      <trkpt lat="43.61109" lon="3.83257">
        <ele>60.9</ele>
        <time>2021-02-07T12:07:35Z</time>
      </trkpt>
      <trkpt lat="43.61111" lon="3.83253">
        <ele>61</ele>
        <time>2021-02-07T12:07:36Z</time>
      </trkpt>
      <trkpt lat="43.61112" lon="3.83248">
        <ele>61</ele>
        <time>2021-02-07T12:07:37Z</time>
      </trkpt>
      <trkpt lat="43.61113" lon="3.83244">
        <ele>64</ele>
        <time>2021-02-07T12:07:38Z</time>
      </trkpt>
      <trkpt lat="43.61114" lon="3.8324">
        <ele>60.7</ele>
        <time>2021-02-07T12:07:39Z</time>
      </trkpt>
      <trkpt lat="43.61115" lon="3.83236">
        <ele>60.6</ele>
        <time>2021-02-07T12:07:40Z</time>
      </trkpt>
      <trkpt lat="43.61116" lon="3.83231">
        <ele>60.5</ele>
        <time>2021-02-07T12:07:41Z</time>
      </trkpt>
      <trkpt lat="43.61116" lon="3.83227">
        <ele>60.3</ele>
        <time>2021-02-07T12:07:42Z</time>
      </trkpt>
      <trkpt lat="43.61118" lon="3.83222">
        <ele>60.2</ele>
        <time>2021-02-07T12:07:43Z</time>
      </trkpt>
      <trkpt lat="43.61119" lon="3.83217">
        <ele>60.3</ele>
        <time>2021-02-07T12:07:44Z</time>
      </trkpt>
      <trkpt lat="43.61121" lon="3.83212">
        <ele>60.4</ele>
        <time>2021-02-07T12:07:45Z</time>
      </trkpt>
      <trkpt lat="43.61122" lon="3.83206">
        <ele>60.4</ele>
        <time>2021-02-07T12:07:46Z</time>
      </trkpt>
      <trkpt lat="43.61125" lon="3.83201">
        <ele>60.5</ele>
        <time>2021-02-07T12:07:47Z</time>
      </trkpt>
      <trkpt lat="43.61127" lon="3.83195">
        <ele>64</ele>
        <time>2021-02-07T12:07:48Z</time>
      </trkpt>
      <trkpt lat="43.61129" lon="3.8319">
        <ele>60.5</ele>
        <time>2021-02-07T12:07:49Z</time>
      </trkpt>
      <trkpt lat="43.6113" lon="3.83184">
        <ele>60.3</ele>
        <time>2021-02-07T12:07:50Z</time>
      </trkpt>
      <trkpt lat="43.61132" lon="3.83177">
        <ele>60</ele>
        <time>2021-02-07T12:07:51Z</time>
      </trkpt>
      <trkpt lat="43.61134" lon="3.83171">
        <ele>59.6</ele>
        <time>2021-02-07T12:07:52Z</time>
      </trkpt>
      <trkpt lat="43.61135" lon="3.83164">
        <ele>59.3</ele>
        <time>2021-02-07T12:07:53Z</time>
      </trkpt>
      <trkpt lat="43.61137" lon="3.83157">
        <ele>59.1</ele>
        <time>2021-02-07T12:07:54Z</time>
      </trkpt>
      <trkpt lat="43.61138" lon="3.8315">
        <ele>59</ele>
        <time>2021-02-07T12:07:55Z</time>
      </trkpt>
      <trkpt lat="43.6114" lon="3.83143">
        <ele>59</ele>
        <time>2021-02-07T12:07:56Z</time>
      </trkpt>
      <trkpt lat="43.61141" lon="3.83137">
        <ele>59.1</ele>
        <time>2021-02-07T12:07:57Z</time>
      </trkpt>
      <trkpt lat="43.61143" lon="3.8313">
        <ele>64</ele>
        <time>2021-02-07T12:07:58Z</time>
      </trkpt>
      <trkpt lat="43.61145" lon="3.83122">
        <ele>59.1</ele>
        <time>2021-02-07T12:07:59Z</time>
      </trkpt>
      <trkpt lat="43.61147" lon="3.83115">
        <ele>59</ele>
        <time>2021-02-07T12:08:00Z</time>
      </trkpt>
      <trkpt lat="43.61149" lon="3.83107">
        <ele>59</ele>
        <time>2021-02-07T12:08:01Z</time>
      </trkpt>
      <trkpt lat="43.61151" lon="3.831">
        <ele>59</ele>
        <time>2021-02-07T12:08:02Z</time>
      </trkpt>
      <trkpt lat="43.61152" lon="3.83092">
        <ele>59</ele>
        <time>2021-02-07T12:08:03Z</time>
      </trkpt>
      <trkpt lat="43.61154" lon="3.83084">
        <ele>59</ele>
        <time>2021-02-07T12:08:04Z</time>
      </trkpt>
      <trkpt lat="43.61155" lon="3.83076">
        <ele>58.8</ele>
        <time>2021-02-07T12:08:05Z</time>
      </trkpt>
      <trkpt lat="43.61157" lon="3.83069">
        <ele>58.7</ele>
        <time>2021-02-07T12:08:06Z</time>
      </trkpt>
      <trkpt lat="43.61159" lon="3.83061">
        <ele>58.4</ele>
        <time>2021-02-07T12:08:07Z</time>
      </trkpt>
      <trkpt lat="43.61161" lon="3.83053">
        <ele>63</ele>
        <time>2021-02-07T12:08:08Z</time>
      </trkpt>
      <trkpt lat="43.61163" lon="3.83045">
        <ele>57.8</ele>
        <time>2021-02-07T12:08:09Z</time>
      </trkpt>
      <trkpt lat="43.61165" lon="3.83038">
        <ele>57.5</ele>
        <time>2021-02-07T12:08:10Z</time>
      </trkpt>
      <trkpt lat="43.61168" lon="3.83031">
        <ele>57.2</ele>
        <time>2021-02-07T12:08:11Z</time>
      </trkpt>
      <trkpt lat="43.6117" lon="3.83023">
        <ele>57.3</ele>
        <time>2021-02-07T12:08:12Z</time>
      </trkpt>
      <trkpt lat="43.61173" lon="3.83016">
        <ele>57.5</ele>
        <time>2021-02-07T12:08:13Z</time>
      </trkpt>
      <trkpt lat="43.61175" lon="3.83009">
        <ele>57.6</ele>
        <time>2021-02-07T12:08:14Z</time>
      </trkpt>
      <trkpt lat="43.61178" lon="3.83001">
        <ele>57.6</ele>
        <time>2021-02-07T12:08:15Z</time>
      </trkpt>
      <trkpt lat="43.61181" lon="3.82995">
        <ele>57.4</ele>
        <time>2021-02-07T12:08:16Z</time>
      </trkpt>
      <trkpt lat="43.61184" lon="3.82989">
        <ele>57.2</ele>
        <time>2021-02-07T12:08:17Z</time>
      </trkpt>
      <trkpt lat="43.61187" lon="3.82982">
        <ele>61</ele>
        <time>2021-02-07T12:08:18Z</time>
      </trkpt>
      <trkpt lat="43.61189" lon="3.82975">
        <ele>57</ele>
        <time>2021-02-07T12:08:19Z</time>
      </trkpt>
      <trkpt lat="43.61191" lon="3.82968">
        <ele>57</ele>
        <time>2021-02-07T12:08:20Z</time>
      </trkpt>
      <trkpt lat="43.61192" lon="3.8296">
        <ele>57</ele>
        <time>2021-02-07T12:08:21Z</time>
      </trkpt>
      <trkpt lat="43.61191" lon="3.82952">
        <ele>57</ele>
        <time>2021-02-07T12:08:22Z</time>
      </trkpt>
      <trkpt lat="43.6119" lon="3.82945">
        <ele>57</ele>
        <time>2021-02-07T12:08:23Z</time>
      </trkpt>
      <trkpt lat="43.6119" lon="3.82937">
        <ele>57</ele>
        <time>2021-02-07T12:08:24Z</time>
      </trkpt>
      <trkpt lat="43.61189" lon="3.8293">
        <ele>57</ele>
        <time>2021-02-07T12:08:25Z</time>
      </trkpt>
      <trkpt lat="43.61188" lon="3.82923">
        <ele>57</ele>
        <time>2021-02-07T12:08:26Z</time>
      </trkpt>
      <trkpt lat="43.61186" lon="3.82916">
        <ele>57</ele>
        <time>2021-02-07T12:08:27Z</time>
      </trkpt>
      <trkpt lat="43.61185" lon="3.82909">
        <ele>61</ele>
        <time>2021-02-07T12:08:28Z</time>
      </trkpt>
      <trkpt lat="43.61184" lon="3.82902">
        <ele>56.7</ele>
        <time>2021-02-07T12:08:29Z</time>
      </trkpt>
      <trkpt lat="43.61182" lon="3.82896">
        <ele>56.6</ele>
        <time>2021-02-07T12:08:30Z</time>
      </trkpt>
      <trkpt lat="43.6118" lon="3.82889">
        <ele>56.5</ele>
        <time>2021-02-07T12:08:31Z</time>
      </trkpt>
      <trkpt lat="43.61178" lon="3.82882">
        <ele>56.6</ele>
        <time>2021-02-07T12:08:32Z</time>
      </trkpt>
      <trkpt lat="43.61176" lon="3.82875">
        <ele>56.7</ele>
        <time>2021-02-07T12:08:33Z</time>
      </trkpt>
      <trkpt lat="43.61175" lon="3.82868">
        <ele>56.7</ele>
        <time>2021-02-07T12:08:34Z</time>
      </trkpt>
      <trkpt lat="43.61173" lon="3.82861">
        <ele>56.8</ele>
        <time>2021-02-07T12:08:35Z</time>
      </trkpt>
      <trkpt lat="43.61171" lon="3.82853">
        <ele>56.6</ele>
        <time>2021-02-07T12:08:36Z</time>
      </trkpt>
      <trkpt lat="43.61169" lon="3.82846">
        <ele>56.4</ele>
        <time>2021-02-07T12:08:37Z</time>
      </trkpt>
      <trkpt lat="43.61167" lon="3.82839">
        <ele>61</ele>
        <time>2021-02-07T12:08:38Z</time>
      </trkpt>
      <trkpt lat="43.61166" lon="3.82832">
        <ele>56</ele>
        <time>2021-02-07T12:08:39Z</time>
      </trkpt>
      <trkpt lat="43.61164" lon="3.82824">
        <ele>56.1</ele>
        <time>2021-02-07T12:08:40Z</time>
      </trkpt>
      <trkpt lat="43.61163" lon="3.82817">
        <ele>56.1</ele>
        <time>2021-02-07T12:08:41Z</time>
      </trkpt>
      <trkpt lat="43.61162" lon="3.82809">
        <ele>56.2</ele>
        <time>2021-02-07T12:08:42Z</time>
      </trkpt>
      <trkpt lat="43.61162" lon="3.82801">
        <ele>56</ele>
        <time>2021-02-07T12:08:43Z</time>
      </trkpt>
      <trkpt lat="43.61163" lon="3.82794">
        <ele>55.8</ele>
        <time>2021-02-07T12:08:44Z</time>
      </trkpt>
      <trkpt lat="43.61165" lon="3.82787">
        <ele>55.4</ele>
        <time>2021-02-07T12:08:45Z</time>
      </trkpt>
      <trkpt lat="43.61166" lon="3.8278">
        <ele>55.1</ele>
        <time>2021-02-07T12:08:46Z</time>
      </trkpt>
      <trkpt lat="43.61168" lon="3.82774">
        <ele>55.1</ele>
        <time>2021-02-07T12:08:47Z</time>
      </trkpt>
      <trkpt lat="43.61171" lon="3.82769">
        <ele>60</ele>
        <time>2021-02-07T12:08:48Z</time>
      </trkpt>
      <trkpt lat="43.61175" lon="3.82766">
        <ele>55.3</ele>
        <time>2021-02-07T12:08:49Z</time>
      </trkpt>
      <trkpt lat="43.61178" lon="3.82763">
        <ele>55.3</ele>
        <time>2021-02-07T12:08:50Z</time>
      </trkpt>
      <trkpt lat="43.6118" lon="3.82759">
        <ele>55.4</ele>
        <time>2021-02-07T12:08:51Z</time>
      </trkpt>
      <trkpt lat="43.61179" lon="3.82754">
        <ele>55.5</ele>
        <time>2021-02-07T12:08:52Z</time>
      </trkpt>
      <trkpt lat="43.61177" lon="3.82752">
        <ele>55.6</ele>
        <time>2021-02-07T12:08:53Z</time>
      </trkpt>
      <trkpt lat="43.61178" lon="3.82753">
        <ele>60</ele>
        <time>2021-02-07T12:09:01Z</time>
      </trkpt>
      <trkpt lat="43.6118" lon="3.82765">
        <ele>59</ele>
        <time>2021-02-07T12:11:04Z</time>
      </trkpt>
      <trkpt lat="43.61177" lon="3.82765">
        <ele>55.3</ele>
        <time>2021-02-07T12:11:05Z</time>
      </trkpt>
      <trkpt lat="43.61174" lon="3.82763">
        <ele>55.4</ele>
        <time>2021-02-07T12:11:06Z</time>
      </trkpt>
      <trkpt lat="43.61172" lon="3.82758">
        <ele>55.6</ele>
        <time>2021-02-07T12:11:07Z</time>
      </trkpt>
      <trkpt lat="43.61171" lon="3.82753">
        <ele>55.8</ele>
        <time>2021-02-07T12:11:08Z</time>
      </trkpt>
      <trkpt lat="43.61172" lon="3.82747">
        <ele>55.7</ele>
        <time>2021-02-07T12:11:09Z</time>
      </trkpt>
      <trkpt lat="43.61173" lon="3.8274">
        <ele>55.4</ele>
        <time>2021-02-07T12:11:10Z</time>
      </trkpt>
      <trkpt lat="43.61174" lon="3.82734">
        <ele>55.2</ele>
        <time>2021-02-07T12:11:11Z</time>
      </trkpt>
      <trkpt lat="43.61175" lon="3.82728">
        <ele>54.9</ele>
        <time>2021-02-07T12:11:12Z</time>
      </trkpt>
      <trkpt lat="43.61176" lon="3.82721">
        <ele>57</ele>
        <time>2021-02-07T12:11:13Z</time>
      </trkpt>
      <trkpt lat="43.61177" lon="3.82715">
        <ele>54.7</ele>
        <time>2021-02-07T12:11:14Z</time>
      </trkpt>
      <trkpt lat="43.61179" lon="3.8271">
        <ele>54.8</ele>
        <time>2021-02-07T12:11:15Z</time>
      </trkpt>
      <trkpt lat="43.6118" lon="3.82706">
        <ele>54.8</ele>
        <time>2021-02-07T12:11:16Z</time>
      </trkpt>
      <trkpt lat="43.6118" lon="3.82702">
        <ele>54.9</ele>
        <time>2021-02-07T12:11:17Z</time>
      </trkpt>
      <trkpt lat="43.6118" lon="3.827">
        <ele>54.9</ele>
        <time>2021-02-07T12:11:18Z</time>
      </trkpt>
      <trkpt lat="43.6118" lon="3.82696">
        <ele>55</ele>
        <time>2021-02-07T12:11:19Z</time>
      </trkpt>
      <trkpt lat="43.6118" lon="3.82692">
        <ele>55</ele>
        <time>2021-02-07T12:11:20Z</time>
      </trkpt>
      <trkpt lat="43.61181" lon="3.82688">
        <ele>54.9</ele>
        <time>2021-02-07T12:11:21Z</time>
      </trkpt>
      <trkpt lat="43.61181" lon="3.82683">
        <ele>54.8</ele>
        <time>2021-02-07T12:11:22Z</time>
      </trkpt>
      <trkpt lat="43.61182" lon="3.82679">
        <ele>54.8</ele>
        <time>2021-02-07T12:11:23Z</time>
      </trkpt>
      <trkpt lat="43.61185" lon="3.82669">
        <ele>56</ele>
        <time>2021-02-07T12:11:24Z</time>
      </trkpt>
      <trkpt lat="43.61185" lon="3.82663">
        <ele>54.7</ele>
        <time>2021-02-07T12:11:25Z</time>
      </trkpt>
      <trkpt lat="43.61186" lon="3.82658">
        <ele>54.7</ele>
        <time>2021-02-07T12:11:26Z</time>
      </trkpt>
      <trkpt lat="43.61187" lon="3.82652">
        <ele>54.7</ele>
        <time>2021-02-07T12:11:27Z</time>
      </trkpt>
      <trkpt lat="43.61188" lon="3.82646">
        <ele>54.8</ele>
        <time>2021-02-07T12:11:28Z</time>
      </trkpt>
      <trkpt lat="43.61189" lon="3.82634">
        <ele>54.8</ele>
        <time>2021-02-07T12:11:30Z</time>
      </trkpt>
      <trkpt lat="43.6119" lon="3.82628">
        <ele>54.8</ele>
        <time>2021-02-07T12:11:31Z</time>
      </trkpt>
      <trkpt lat="43.61191" lon="3.82622">
        <ele>54.9</ele>
        <time>2021-02-07T12:11:32Z</time>
      </trkpt>
      <trkpt lat="43.61192" lon="3.82616">
        <ele>54.9</ele>
        <time>2021-02-07T12:11:34Z</time>
      </trkpt>
      <trkpt lat="43.61192" lon="3.8261">
        <ele>54.9</ele>
        <time>2021-02-07T12:11:35Z</time>
      </trkpt>
      <trkpt lat="43.61193" lon="3.82604">
        <ele>54.7</ele>
        <time>2021-02-07T12:11:36Z</time>
      </trkpt>
      <trkpt lat="43.61193" lon="3.82599">
        <ele>54.5</ele>
        <time>2021-02-07T12:11:37Z</time>
      </trkpt>
      <trkpt lat="43.61193" lon="3.82594">
        <ele>54.3</ele>
        <time>2021-02-07T12:11:38Z</time>
      </trkpt>
      <trkpt lat="43.61194" lon="3.82589">
        <ele>54.2</ele>
        <time>2021-02-07T12:11:39Z</time>
      </trkpt>
      <trkpt lat="43.61194" lon="3.82584">
        <ele>54</ele>
        <time>2021-02-07T12:11:40Z</time>
      </trkpt>
      <trkpt lat="43.61195" lon="3.82579">
        <ele>53.9</ele>
        <time>2021-02-07T12:11:41Z</time>
      </trkpt>
      <trkpt lat="43.61196" lon="3.82574">
        <ele>53.8</ele>
        <time>2021-02-07T12:11:42Z</time>
      </trkpt>
      <trkpt lat="43.61197" lon="3.82568">
        <ele>56</ele>
        <time>2021-02-07T12:11:43Z</time>
      </trkpt>
      <trkpt lat="43.61198" lon="3.82563">
        <ele>53.6</ele>
        <time>2021-02-07T12:11:44Z</time>
      </trkpt>
      <trkpt lat="43.61199" lon="3.82558">
        <ele>53.6</ele>
        <time>2021-02-07T12:11:45Z</time>
      </trkpt>
      <trkpt lat="43.61201" lon="3.82553">
        <ele>53.5</ele>
        <time>2021-02-07T12:11:46Z</time>
      </trkpt>
      <trkpt lat="43.61203" lon="3.82549">
        <ele>53.4</ele>
        <time>2021-02-07T12:11:47Z</time>
      </trkpt>
      <trkpt lat="43.61205" lon="3.82546">
        <ele>53.3</ele>
        <time>2021-02-07T12:11:48Z</time>
      </trkpt>
      <trkpt lat="43.61207" lon="3.82542">
        <ele>53.2</ele>
        <time>2021-02-07T12:11:49Z</time>
      </trkpt>
      <trkpt lat="43.6121" lon="3.8254">
        <ele>53.2</ele>
        <time>2021-02-07T12:11:50Z</time>
      </trkpt>
      <trkpt lat="43.61213" lon="3.82537">
        <ele>53.2</ele>
        <time>2021-02-07T12:11:51Z</time>
      </trkpt>
      <trkpt lat="43.61217" lon="3.82535">
        <ele>53.4</ele>
        <time>2021-02-07T12:11:52Z</time>
      </trkpt>
      <trkpt lat="43.61219" lon="3.82533">
        <ele>56</ele>
        <time>2021-02-07T12:11:53Z</time>
      </trkpt>
      <trkpt lat="43.61223" lon="3.82531">
        <ele>53.3</ele>
        <time>2021-02-07T12:11:54Z</time>
      </trkpt>
      <trkpt lat="43.61226" lon="3.82529">
        <ele>53.1</ele>
        <time>2021-02-07T12:11:55Z</time>
      </trkpt>
      <trkpt lat="43.6123" lon="3.82527">
        <ele>52.9</ele>
        <time>2021-02-07T12:11:56Z</time>
      </trkpt>
      <trkpt lat="43.61234" lon="3.82525">
        <ele>52.6</ele>
        <time>2021-02-07T12:11:57Z</time>
      </trkpt>
      <trkpt lat="43.61238" lon="3.82523">
        <ele>52.3</ele>
        <time>2021-02-07T12:11:58Z</time>
      </trkpt>
      <trkpt lat="43.61242" lon="3.82522">
        <ele>52.2</ele>
        <time>2021-02-07T12:11:59Z</time>
      </trkpt>
      <trkpt lat="43.61247" lon="3.8252">
        <ele>51.9</ele>
        <time>2021-02-07T12:12:00Z</time>
      </trkpt>
      <trkpt lat="43.61251" lon="3.82519">
        <ele>51.8</ele>
        <time>2021-02-07T12:12:01Z</time>
      </trkpt>
      <trkpt lat="43.61255" lon="3.82518">
        <ele>51.8</ele>
        <time>2021-02-07T12:12:02Z</time>
      </trkpt>
      <trkpt lat="43.61259" lon="3.82515">
        <ele>57</ele>
        <time>2021-02-07T12:12:03Z</time>
      </trkpt>
      <trkpt lat="43.61263" lon="3.82512">
        <ele>51.5</ele>
        <time>2021-02-07T12:12:04Z</time>
      </trkpt>
      <trkpt lat="43.61267" lon="3.82509">
        <ele>51.5</ele>
        <time>2021-02-07T12:12:05Z</time>
      </trkpt>
      <trkpt lat="43.6127" lon="3.82506">
        <ele>51.6</ele>
        <time>2021-02-07T12:12:06Z</time>
      </trkpt>
      <trkpt lat="43.61274" lon="3.82503">
        <ele>51.7</ele>
        <time>2021-02-07T12:12:07Z</time>
      </trkpt>
      <trkpt lat="43.61279" lon="3.825">
        <ele>52</ele>
        <time>2021-02-07T12:12:08Z</time>
      </trkpt>
      <trkpt lat="43.61283" lon="3.82496">
        <ele>51.1</ele>
        <time>2021-02-07T12:12:09Z</time>
      </trkpt>
      <trkpt lat="43.61286" lon="3.82491">
        <ele>50.3</ele>
        <time>2021-02-07T12:12:10Z</time>
      </trkpt>
      <trkpt lat="43.61289" lon="3.82486">
        <ele>49.8</ele>
        <time>2021-02-07T12:12:11Z</time>
      </trkpt>
      <trkpt lat="43.61292" lon="3.82481">
        <ele>49.5</ele>
        <time>2021-02-07T12:12:12Z</time>
      </trkpt>
      <trkpt lat="43.61296" lon="3.82476">
        <ele>56</ele>
        <time>2021-02-07T12:12:13Z</time>
      </trkpt>
      <trkpt lat="43.613" lon="3.8247">
        <ele>50</ele>
        <time>2021-02-07T12:12:14Z</time>
      </trkpt>
      <trkpt lat="43.61303" lon="3.82464">
        <ele>50.5</ele>
        <time>2021-02-07T12:12:15Z</time>
      </trkpt>
      <trkpt lat="43.61306" lon="3.82458">
        <ele>51</ele>
        <time>2021-02-07T12:12:16Z</time>
      </trkpt>
      <trkpt lat="43.61309" lon="3.82453">
        <ele>50.9</ele>
        <time>2021-02-07T12:12:17Z</time>
      </trkpt>
      <trkpt lat="43.61311" lon="3.82447">
        <ele>50.8</ele>
        <time>2021-02-07T12:12:18Z</time>
      </trkpt>
      <trkpt lat="43.61312" lon="3.82441">
        <ele>50.6</ele>
        <time>2021-02-07T12:12:19Z</time>
      </trkpt>
      <trkpt lat="43.61313" lon="3.82435">
        <ele>50.3</ele>
        <time>2021-02-07T12:12:20Z</time>
      </trkpt>
      <trkpt lat="43.61313" lon="3.82428">
        <ele>50</ele>
        <time>2021-02-07T12:12:21Z</time>
      </trkpt>
      <trkpt lat="43.61314" lon="3.82421">
        <ele>49.8</ele>
        <time>2021-02-07T12:12:22Z</time>
      </trkpt>
      <trkpt lat="43.61314" lon="3.82415">
        <ele>54</ele>
        <time>2021-02-07T12:12:23Z</time>
      </trkpt>
      <trkpt lat="43.61314" lon="3.82408">
        <ele>49.5</ele>
        <time>2021-02-07T12:12:24Z</time>
      </trkpt>
      <trkpt lat="43.61314" lon="3.82402">
        <ele>49.4</ele>
        <time>2021-02-07T12:12:25Z</time>
      </trkpt>
      <trkpt lat="43.61313" lon="3.82396">
        <ele>49.3</ele>
        <time>2021-02-07T12:12:26Z</time>
      </trkpt>
      <trkpt lat="43.61312" lon="3.82389">
        <ele>49.2</ele>
        <time>2021-02-07T12:12:27Z</time>
      </trkpt>
      <trkpt lat="43.61311" lon="3.82383">
        <ele>49.7</ele>
        <time>2021-02-07T12:12:28Z</time>
      </trkpt>
      <trkpt lat="43.6131" lon="3.82377">
        <ele>50.1</ele>
        <time>2021-02-07T12:12:29Z</time>
      </trkpt>
      <trkpt lat="43.61308" lon="3.8237">
        <ele>50.5</ele>
        <time>2021-02-07T12:12:30Z</time>
      </trkpt>
      <trkpt lat="43.61307" lon="3.82363">
        <ele>51</ele>
        <time>2021-02-07T12:12:31Z</time>
      </trkpt>
      <trkpt lat="43.61306" lon="3.82356">
        <ele>51</ele>
        <time>2021-02-07T12:12:32Z</time>
      </trkpt>
      <trkpt lat="43.61306" lon="3.82349">
        <ele>54</ele>
        <time>2021-02-07T12:12:33Z</time>
      </trkpt>
      <trkpt lat="43.61307" lon="3.82345">
        <ele>51.1</ele>
        <time>2021-02-07T12:12:34Z</time>
      </trkpt>
      <trkpt lat="43.61309" lon="3.82341">
        <ele>51.3</ele>
        <time>2021-02-07T12:12:35Z</time>
      </trkpt>
      <trkpt lat="43.61311" lon="3.82338">
        <ele>51.6</ele>
        <time>2021-02-07T12:12:36Z</time>
      </trkpt>
      <trkpt lat="43.61312" lon="3.82336">
        <ele>51.7</ele>
        <time>2021-02-07T12:12:37Z</time>
      </trkpt>
      <trkpt lat="43.61313" lon="3.82334">
        <ele>51.8</ele>
        <time>2021-02-07T12:12:38Z</time>
      </trkpt>
      <trkpt lat="43.61315" lon="3.82332">
        <ele>51.9</ele>
        <time>2021-02-07T12:12:39Z</time>
      </trkpt>
      <trkpt lat="43.61318" lon="3.82329">
        <ele>52.1</ele>
        <time>2021-02-07T12:12:41Z</time>
      </trkpt>
      <trkpt lat="43.6132" lon="3.82325">
        <ele>52.1</ele>
        <time>2021-02-07T12:12:43Z</time>
      </trkpt>
      <trkpt lat="43.61323" lon="3.82322">
        <ele>52.4</ele>
        <time>2021-02-07T12:12:45Z</time>
      </trkpt>
      <trkpt lat="43.61325" lon="3.82319">
        <ele>52.6</ele>
        <time>2021-02-07T12:12:47Z</time>
      </trkpt>
      <trkpt lat="43.61327" lon="3.82316">
        <ele>52.9</ele>
        <time>2021-02-07T12:12:49Z</time>
      </trkpt>
      <trkpt lat="43.61329" lon="3.82314">
        <ele>53.2</ele>
        <time>2021-02-07T12:12:51Z</time>
      </trkpt>
      <trkpt lat="43.61331" lon="3.82312">
        <ele>56</ele>
        <time>2021-02-07T12:12:53Z</time>
      </trkpt>
      <trkpt lat="43.61333" lon="3.82309">
        <ele>53.9</ele>
        <time>2021-02-07T12:12:55Z</time>
      </trkpt>
      <trkpt lat="43.61336" lon="3.82307">
        <ele>53.8</ele>
        <time>2021-02-07T12:12:57Z</time>
      </trkpt>
      <trkpt lat="43.61338" lon="3.82305">
        <ele>53.5</ele>
        <time>2021-02-07T12:12:59Z</time>
      </trkpt>
      <trkpt lat="43.61339" lon="3.82303">
        <ele>53</ele>
        <time>2021-02-07T12:13:01Z</time>
      </trkpt>
      <trkpt lat="43.61341" lon="3.82301">
        <ele>55</ele>
        <time>2021-02-07T12:13:03Z</time>
      </trkpt>
      <trkpt lat="43.61342" lon="3.823">
        <ele>52.2</ele>
        <time>2021-02-07T12:13:05Z</time>
      </trkpt>
      <trkpt lat="43.61345" lon="3.82297">
        <ele>51.5</ele>
        <time>2021-02-07T12:13:07Z</time>
      </trkpt>
      <trkpt lat="43.61347" lon="3.82296">
        <ele>51.3</ele>
        <time>2021-02-07T12:13:08Z</time>
      </trkpt>
      <trkpt lat="43.61351" lon="3.82295">
        <ele>51</ele>
        <time>2021-02-07T12:13:09Z</time>
      </trkpt>
      <trkpt lat="43.61355" lon="3.82295">
        <ele>51</ele>
        <time>2021-02-07T12:13:10Z</time>
      </trkpt>
      <trkpt lat="43.61359" lon="3.82296">
        <ele>51</ele>
        <time>2021-02-07T12:13:11Z</time>
      </trkpt>
      <trkpt lat="43.61364" lon="3.82296">
        <ele>50.6</ele>
        <time>2021-02-07T12:13:12Z</time>
      </trkpt>
      <trkpt lat="43.6137" lon="3.82295">
        <ele>54</ele>
        <time>2021-02-07T12:13:13Z</time>
      </trkpt>
      <trkpt lat="43.61375" lon="3.82291">
        <ele>49</ele>
        <time>2021-02-07T12:13:14Z</time>
      </trkpt>
      <trkpt lat="43.6138" lon="3.82284">
        <ele>48</ele>
        <time>2021-02-07T12:13:15Z</time>
      </trkpt>
      <trkpt lat="43.61384" lon="3.82277">
        <ele>47.3</ele>
        <time>2021-02-07T12:13:16Z</time>
      </trkpt>
      <trkpt lat="43.61389" lon="3.82269">
        <ele>46.4</ele>
        <time>2021-02-07T12:13:17Z</time>
      </trkpt>
      <trkpt lat="43.61393" lon="3.8226">
        <ele>45.7</ele>
        <time>2021-02-07T12:13:18Z</time>
      </trkpt>
      <trkpt lat="43.61399" lon="3.82253">
        <ele>45.2</ele>
        <time>2021-02-07T12:13:19Z</time>
      </trkpt>
      <trkpt lat="43.61405" lon="3.82247">
        <ele>44.8</ele>
        <time>2021-02-07T12:13:20Z</time>
      </trkpt>
      <trkpt lat="43.61412" lon="3.82242">
        <ele>44.4</ele>
        <time>2021-02-07T12:13:21Z</time>
      </trkpt>
      <trkpt lat="43.61418" lon="3.82236">
        <ele>44</ele>
        <time>2021-02-07T12:13:22Z</time>
      </trkpt>
      <trkpt lat="43.61424" lon="3.82232">
        <ele>50</ele>
        <time>2021-02-07T12:13:23Z</time>
      </trkpt>
      <trkpt lat="43.6143" lon="3.82229">
        <ele>43.5</ele>
        <time>2021-02-07T12:13:24Z</time>
      </trkpt>
      <trkpt lat="43.61437" lon="3.82226">
        <ele>43.3</ele>
        <time>2021-02-07T12:13:25Z</time>
      </trkpt>
      <trkpt lat="43.61444" lon="3.82222">
        <ele>43</ele>
        <time>2021-02-07T12:13:26Z</time>
      </trkpt>
      <trkpt lat="43.61451" lon="3.82217">
        <ele>43.2</ele>
        <time>2021-02-07T12:13:27Z</time>
      </trkpt>
      <trkpt lat="43.61458" lon="3.82214">
        <ele>43.3</ele>
        <time>2021-02-07T12:13:28Z</time>
      </trkpt>
      <trkpt lat="43.61464" lon="3.82211">
        <ele>43.4</ele>
        <time>2021-02-07T12:13:29Z</time>
      </trkpt>
      <trkpt lat="43.6147" lon="3.82209">
        <ele>43.5</ele>
        <time>2021-02-07T12:13:30Z</time>
      </trkpt>
      <trkpt lat="43.61476" lon="3.82207">
        <ele>43.5</ele>
        <time>2021-02-07T12:13:31Z</time>
      </trkpt>
      <trkpt lat="43.61481" lon="3.82206">
        <ele>43.6</ele>
        <time>2021-02-07T12:13:32Z</time>
      </trkpt>
      <trkpt lat="43.61486" lon="3.82206">
        <ele>48</ele>
        <time>2021-02-07T12:13:33Z</time>
      </trkpt>
      <trkpt lat="43.61491" lon="3.82206">
        <ele>43.8</ele>
        <time>2021-02-07T12:13:34Z</time>
      </trkpt>
      <trkpt lat="43.61494" lon="3.82206">
        <ele>43.9</ele>
        <time>2021-02-07T12:13:35Z</time>
      </trkpt>
      <trkpt lat="43.61498" lon="3.82207">
        <ele>44</ele>
        <time>2021-02-07T12:13:36Z</time>
      </trkpt>
      <trkpt lat="43.61501" lon="3.82207">
        <ele>44</ele>
        <time>2021-02-07T12:13:37Z</time>
      </trkpt>
      <trkpt lat="43.61503" lon="3.82207">
        <ele>44</ele>
        <time>2021-02-07T12:13:38Z</time>
      </trkpt>
      <trkpt lat="43.61506" lon="3.82207">
        <ele>44.1</ele>
        <time>2021-02-07T12:13:39Z</time>
      </trkpt>
      <trkpt lat="43.61508" lon="3.82207">
        <ele>44.1</ele>
        <time>2021-02-07T12:13:40Z</time>
      </trkpt>
      <trkpt lat="43.6151" lon="3.82206">
        <ele>44.1</ele>
        <time>2021-02-07T12:13:42Z</time>
      </trkpt>
      <trkpt lat="43.61513" lon="3.82204">
        <ele>44.2</ele>
        <time>2021-02-07T12:13:44Z</time>
      </trkpt>
      <trkpt lat="43.61515" lon="3.82202">
        <ele>44.1</ele>
        <time>2021-02-07T12:13:45Z</time>
      </trkpt>
      <trkpt lat="43.61516" lon="3.822">
        <ele>44.1</ele>
        <time>2021-02-07T12:13:46Z</time>
      </trkpt>
      <trkpt lat="43.61517" lon="3.82196">
        <ele>44</ele>
        <time>2021-02-07T12:13:48Z</time>
      </trkpt>
      <trkpt lat="43.61517" lon="3.82191">
        <ele>43.9</ele>
        <time>2021-02-07T12:13:50Z</time>
      </trkpt>
      <trkpt lat="43.61518" lon="3.82188">
        <ele>43.8</ele>
        <time>2021-02-07T12:13:51Z</time>
      </trkpt>
      <trkpt lat="43.61519" lon="3.82185">
        <ele>43.7</ele>
        <time>2021-02-07T12:13:53Z</time>
      </trkpt>
      <trkpt lat="43.61522" lon="3.82185">
        <ele>43.7</ele>
        <time>2021-02-07T12:13:55Z</time>
      </trkpt>
      <trkpt lat="43.61524" lon="3.82185">
        <ele>43.7</ele>
        <time>2021-02-07T12:13:56Z</time>
      </trkpt>
      <trkpt lat="43.61526" lon="3.82186">
        <ele>43.7</ele>
        <time>2021-02-07T12:13:57Z</time>
      </trkpt>
      <trkpt lat="43.61528" lon="3.82187">
        <ele>43.7</ele>
        <time>2021-02-07T12:13:58Z</time>
      </trkpt>
      <trkpt lat="43.61531" lon="3.82188">
        <ele>43.9</ele>
        <time>2021-02-07T12:13:59Z</time>
      </trkpt>
      <trkpt lat="43.61534" lon="3.82189">
        <ele>44.2</ele>
        <time>2021-02-07T12:14:00Z</time>
      </trkpt>
      <trkpt lat="43.61536" lon="3.82189">
        <ele>44.3</ele>
        <time>2021-02-07T12:14:01Z</time>
      </trkpt>
      <trkpt lat="43.61539" lon="3.82187">
        <ele>44.3</ele>
        <time>2021-02-07T12:14:02Z</time>
      </trkpt>
      <trkpt lat="43.61541" lon="3.82184">
        <ele>46</ele>
        <time>2021-02-07T12:14:03Z</time>
      </trkpt>
      <trkpt lat="43.61542" lon="3.82181">
        <ele>44</ele>
        <time>2021-02-07T12:14:04Z</time>
      </trkpt>
      <trkpt lat="43.61542" lon="3.82177">
        <ele>43.8</ele>
        <time>2021-02-07T12:14:06Z</time>
      </trkpt>
      <trkpt lat="43.61544" lon="3.82173">
        <ele>43.5</ele>
        <time>2021-02-07T12:14:08Z</time>
      </trkpt>
      <trkpt lat="43.61545" lon="3.8217">
        <ele>43.3</ele>
        <time>2021-02-07T12:14:09Z</time>
      </trkpt>
      <trkpt lat="43.61546" lon="3.82167">
        <ele>43</ele>
        <time>2021-02-07T12:14:10Z</time>
      </trkpt>
      <trkpt lat="43.61547" lon="3.82165">
        <ele>42.9</ele>
        <time>2021-02-07T12:14:11Z</time>
      </trkpt>
      <trkpt lat="43.61547" lon="3.82162">
        <ele>42.8</ele>
        <time>2021-02-07T12:14:12Z</time>
      </trkpt>
      <trkpt lat="43.61547" lon="3.82159">
        <ele>46</ele>
        <time>2021-02-07T12:14:13Z</time>
      </trkpt>
      <trkpt lat="43.61546" lon="3.82156">
        <ele>42.6</ele>
        <time>2021-02-07T12:14:14Z</time>
      </trkpt>
      <trkpt lat="43.61545" lon="3.82154">
        <ele>42.5</ele>
        <time>2021-02-07T12:14:15Z</time>
      </trkpt>
      <trkpt lat="43.61544" lon="3.82151">
        <ele>42.4</ele>
        <time>2021-02-07T12:14:16Z</time>
      </trkpt>
      <trkpt lat="43.61543" lon="3.82149">
        <ele>42.4</ele>
        <time>2021-02-07T12:14:17Z</time>
      </trkpt>
      <trkpt lat="43.61543" lon="3.82145">
        <ele>42.2</ele>
        <time>2021-02-07T12:14:18Z</time>
      </trkpt>
      <trkpt lat="43.61543" lon="3.82142">
        <ele>42.1</ele>
        <time>2021-02-07T12:14:19Z</time>
      </trkpt>
      <trkpt lat="43.61545" lon="3.8214">
        <ele>42</ele>
        <time>2021-02-07T12:14:20Z</time>
      </trkpt>
      <trkpt lat="43.61545" lon="3.82137">
        <ele>42</ele>
        <time>2021-02-07T12:14:21Z</time>
      </trkpt>
      <trkpt lat="43.61546" lon="3.82134">
        <ele>42</ele>
        <time>2021-02-07T12:14:22Z</time>
      </trkpt>
      <trkpt lat="43.61546" lon="3.8213">
        <ele>44</ele>
        <time>2021-02-07T12:14:23Z</time>
      </trkpt>
      <trkpt lat="43.61547" lon="3.82127">
        <ele>42</ele>
        <time>2021-02-07T12:14:24Z</time>
      </trkpt>
      <trkpt lat="43.61548" lon="3.82124">
        <ele>42</ele>
        <time>2021-02-07T12:14:25Z</time>
      </trkpt>
      <trkpt lat="43.6155" lon="3.82121">
        <ele>42</ele>
        <time>2021-02-07T12:14:26Z</time>
      </trkpt>
      <trkpt lat="43.61551" lon="3.82118">
        <ele>42</ele>
        <time>2021-02-07T12:14:27Z</time>
      </trkpt>
      <trkpt lat="43.61551" lon="3.82115">
        <ele>42</ele>
        <time>2021-02-07T12:14:28Z</time>
      </trkpt>
      <trkpt lat="43.61551" lon="3.82112">
        <ele>42</ele>
        <time>2021-02-07T12:14:29Z</time>
      </trkpt>
      <trkpt lat="43.61551" lon="3.82109">
        <ele>42.2</ele>
        <time>2021-02-07T12:14:30Z</time>
      </trkpt>
      <trkpt lat="43.61551" lon="3.82106">
        <ele>42.5</ele>
        <time>2021-02-07T12:14:31Z</time>
      </trkpt>
      <trkpt lat="43.61552" lon="3.82103">
        <ele>42.8</ele>
        <time>2021-02-07T12:14:32Z</time>
      </trkpt>
      <trkpt lat="43.61552" lon="3.821">
        <ele>43</ele>
        <time>2021-02-07T12:14:33Z</time>
      </trkpt>
      <trkpt lat="43.61553" lon="3.82095">
        <ele>44</ele>
        <time>2021-02-07T12:14:34Z</time>
      </trkpt>
      <trkpt lat="43.61554" lon="3.8209">
        <ele>44.2</ele>
        <time>2021-02-07T12:14:36Z</time>
      </trkpt>
      <trkpt lat="43.61554" lon="3.82088">
        <ele>44.4</ele>
        <time>2021-02-07T12:14:37Z</time>
      </trkpt>
      <trkpt lat="43.61554" lon="3.82085">
        <ele>44.7</ele>
        <time>2021-02-07T12:14:38Z</time>
      </trkpt>
      <trkpt lat="43.61554" lon="3.82082">
        <ele>44.7</ele>
        <time>2021-02-07T12:14:39Z</time>
      </trkpt>
      <trkpt lat="43.61554" lon="3.82078">
        <ele>44.3</ele>
        <time>2021-02-07T12:14:40Z</time>
      </trkpt>
      <trkpt lat="43.61554" lon="3.82075">
        <ele>44</ele>
        <time>2021-02-07T12:14:41Z</time>
      </trkpt>
      <trkpt lat="43.61556" lon="3.82072">
        <ele>43.8</ele>
        <time>2021-02-07T12:14:42Z</time>
      </trkpt>
      <trkpt lat="43.61557" lon="3.82068">
        <ele>43.6</ele>
        <time>2021-02-07T12:14:44Z</time>
      </trkpt>
      <trkpt lat="43.61558" lon="3.82063">
        <ele>43.2</ele>
        <time>2021-02-07T12:14:45Z</time>
      </trkpt>
      <trkpt lat="43.6156" lon="3.82058">
        <ele>43.2</ele>
        <time>2021-02-07T12:14:46Z</time>
      </trkpt>
      <trkpt lat="43.61561" lon="3.82053">
        <ele>42.9</ele>
        <time>2021-02-07T12:14:47Z</time>
      </trkpt>
      <trkpt lat="43.61561" lon="3.82048">
        <ele>42.4</ele>
        <time>2021-02-07T12:14:48Z</time>
      </trkpt>
      <trkpt lat="43.6156" lon="3.82043">
        <ele>41.8</ele>
        <time>2021-02-07T12:14:49Z</time>
      </trkpt>
      <trkpt lat="43.61559" lon="3.82038">
        <ele>41.2</ele>
        <time>2021-02-07T12:14:50Z</time>
      </trkpt>
      <trkpt lat="43.61557" lon="3.82034">
        <ele>40.6</ele>
        <time>2021-02-07T12:14:51Z</time>
      </trkpt>
      <trkpt lat="43.61555" lon="3.82031">
        <ele>40.2</ele>
        <time>2021-02-07T12:14:52Z</time>
      </trkpt>
      <trkpt lat="43.61554" lon="3.82027">
        <ele>43</ele>
        <time>2021-02-07T12:14:53Z</time>
      </trkpt>
      <trkpt lat="43.61553" lon="3.82022">
        <ele>39.8</ele>
        <time>2021-02-07T12:14:54Z</time>
      </trkpt>
      <trkpt lat="43.61554" lon="3.82019">
        <ele>39.7</ele>
        <time>2021-02-07T12:14:55Z</time>
      </trkpt>
      <trkpt lat="43.61555" lon="3.82015">
        <ele>39.5</ele>
        <time>2021-02-07T12:14:56Z</time>
      </trkpt>
      <trkpt lat="43.61555" lon="3.82011">
        <ele>39.4</ele>
        <time>2021-02-07T12:14:57Z</time>
      </trkpt>
      <trkpt lat="43.61556" lon="3.82007">
        <ele>39.3</ele>
        <time>2021-02-07T12:14:58Z</time>
      </trkpt>
      <trkpt lat="43.61556" lon="3.82002">
        <ele>39.1</ele>
        <time>2021-02-07T12:14:59Z</time>
      </trkpt>
      <trkpt lat="43.61557" lon="3.81998">
        <ele>39.1</ele>
        <time>2021-02-07T12:15:00Z</time>
      </trkpt>
      <trkpt lat="43.61558" lon="3.81993">
        <ele>39.1</ele>
        <time>2021-02-07T12:15:01Z</time>
      </trkpt>
      <trkpt lat="43.61559" lon="3.81989">
        <ele>39.1</ele>
        <time>2021-02-07T12:15:02Z</time>
      </trkpt>
      <trkpt lat="43.61562" lon="3.81986">
        <ele>42</ele>
        <time>2021-02-07T12:15:03Z</time>
      </trkpt>
      <trkpt lat="43.61565" lon="3.81983">
        <ele>39.3</ele>
        <time>2021-02-07T12:15:04Z</time>
      </trkpt>
      <trkpt lat="43.61568" lon="3.81982">
        <ele>39.4</ele>
        <time>2021-02-07T12:15:05Z</time>
      </trkpt>
      <trkpt lat="43.61572" lon="3.8198">
        <ele>39.6</ele>
        <time>2021-02-07T12:15:06Z</time>
      </trkpt>
      <trkpt lat="43.61575" lon="3.81978">
        <ele>39.7</ele>
        <time>2021-02-07T12:15:07Z</time>
      </trkpt>
      <trkpt lat="43.61578" lon="3.81977">
        <ele>39.8</ele>
        <time>2021-02-07T12:15:08Z</time>
      </trkpt>
      <trkpt lat="43.6158" lon="3.81975">
        <ele>39.9</ele>
        <time>2021-02-07T12:15:09Z</time>
      </trkpt>
      <trkpt lat="43.61584" lon="3.81974">
        <ele>40</ele>
        <time>2021-02-07T12:15:10Z</time>
      </trkpt>
      <trkpt lat="43.61586" lon="3.81972">
        <ele>40</ele>
        <time>2021-02-07T12:15:11Z</time>
      </trkpt>
      <trkpt lat="43.61589" lon="3.8197">
        <ele>39.9</ele>
        <time>2021-02-07T12:15:12Z</time>
      </trkpt>
      <trkpt lat="43.61591" lon="3.81968">
        <ele>39.9</ele>
        <time>2021-02-07T12:15:13Z</time>
      </trkpt>
      <trkpt lat="43.61593" lon="3.81965">
        <ele>42</ele>
        <time>2021-02-07T12:15:14Z</time>
      </trkpt>
      <trkpt lat="43.61595" lon="3.81962">
        <ele>39.8</ele>
        <time>2021-02-07T12:15:15Z</time>
      </trkpt>
      <trkpt lat="43.61595" lon="3.8196">
        <ele>39.7</ele>
        <time>2021-02-07T12:15:16Z</time>
      </trkpt>
      <trkpt lat="43.61594" lon="3.81957">
        <ele>39.7</ele>
        <time>2021-02-07T12:15:17Z</time>
      </trkpt>
      <trkpt lat="43.61593" lon="3.81954">
        <ele>39.6</ele>
        <time>2021-02-07T12:15:18Z</time>
      </trkpt>
      <trkpt lat="43.61592" lon="3.81951">
        <ele>39.5</ele>
        <time>2021-02-07T12:15:19Z</time>
      </trkpt>
      <trkpt lat="43.61591" lon="3.81949">
        <ele>39.4</ele>
        <time>2021-02-07T12:15:20Z</time>
      </trkpt>
      <trkpt lat="43.6159" lon="3.81945">
        <ele>39.3</ele>
        <time>2021-02-07T12:15:21Z</time>
      </trkpt>
      <trkpt lat="43.61589" lon="3.8194">
        <ele>39.2</ele>
        <time>2021-02-07T12:15:22Z</time>
      </trkpt>
      <trkpt lat="43.61587" lon="3.81935">
        <ele>42</ele>
        <time>2021-02-07T12:15:23Z</time>
      </trkpt>
      <trkpt lat="43.61586" lon="3.81931">
        <ele>39</ele>
        <time>2021-02-07T12:15:24Z</time>
      </trkpt>
      <trkpt lat="43.61585" lon="3.81927">
        <ele>39</ele>
        <time>2021-02-07T12:15:25Z</time>
      </trkpt>
      <trkpt lat="43.61584" lon="3.81923">
        <ele>39</ele>
        <time>2021-02-07T12:15:26Z</time>
      </trkpt>
      <trkpt lat="43.61583" lon="3.81919">
        <ele>39</ele>
        <time>2021-02-07T12:15:27Z</time>
      </trkpt>
      <trkpt lat="43.61582" lon="3.81915">
        <ele>39</ele>
        <time>2021-02-07T12:15:28Z</time>
      </trkpt>
      <trkpt lat="43.61581" lon="3.81912">
        <ele>38.9</ele>
        <time>2021-02-07T12:15:29Z</time>
      </trkpt>
      <trkpt lat="43.6158" lon="3.81908">
        <ele>38.9</ele>
        <time>2021-02-07T12:15:30Z</time>
      </trkpt>
      <trkpt lat="43.61579" lon="3.81904">
        <ele>38.8</ele>
        <time>2021-02-07T12:15:31Z</time>
      </trkpt>
      <trkpt lat="43.61578" lon="3.819">
        <ele>38.8</ele>
        <time>2021-02-07T12:15:32Z</time>
      </trkpt>
      <trkpt lat="43.61577" lon="3.81896">
        <ele>41</ele>
        <time>2021-02-07T12:15:33Z</time>
      </trkpt>
      <trkpt lat="43.61576" lon="3.81891">
        <ele>38.7</ele>
        <time>2021-02-07T12:15:34Z</time>
      </trkpt>
      <trkpt lat="43.61575" lon="3.81887">
        <ele>38.6</ele>
        <time>2021-02-07T12:15:35Z</time>
      </trkpt>
      <trkpt lat="43.61574" lon="3.81882">
        <ele>38.3</ele>
        <time>2021-02-07T12:15:36Z</time>
      </trkpt>
      <trkpt lat="43.61572" lon="3.81877">
        <ele>37.9</ele>
        <time>2021-02-07T12:15:37Z</time>
      </trkpt>
      <trkpt lat="43.61571" lon="3.81872">
        <ele>37.6</ele>
        <time>2021-02-07T12:15:38Z</time>
      </trkpt>
      <trkpt lat="43.61569" lon="3.81867">
        <ele>37.3</ele>
        <time>2021-02-07T12:15:39Z</time>
      </trkpt>
      <trkpt lat="43.61568" lon="3.81861">
        <ele>37</ele>
        <time>2021-02-07T12:15:40Z</time>
      </trkpt>
      <trkpt lat="43.61566" lon="3.81856">
        <ele>37.1</ele>
        <time>2021-02-07T12:15:41Z</time>
      </trkpt>
      <trkpt lat="43.61565" lon="3.8185">
        <ele>37.3</ele>
        <time>2021-02-07T12:15:42Z</time>
      </trkpt>
      <trkpt lat="43.61563" lon="3.81845">
        <ele>41</ele>
        <time>2021-02-07T12:15:43Z</time>
      </trkpt>
      <trkpt lat="43.61562" lon="3.8184">
        <ele>37.6</ele>
        <time>2021-02-07T12:15:44Z</time>
      </trkpt>
      <trkpt lat="43.6156" lon="3.81835">
        <ele>37.8</ele>
        <time>2021-02-07T12:15:45Z</time>
      </trkpt>
      <trkpt lat="43.61559" lon="3.81831">
        <ele>37.8</ele>
        <time>2021-02-07T12:15:46Z</time>
      </trkpt>
      <trkpt lat="43.61557" lon="3.81826">
        <ele>37.7</ele>
        <time>2021-02-07T12:15:47Z</time>
      </trkpt>
      <trkpt lat="43.61556" lon="3.81821">
        <ele>37.5</ele>
        <time>2021-02-07T12:15:48Z</time>
      </trkpt>
      <trkpt lat="43.61554" lon="3.81815">
        <ele>37.3</ele>
        <time>2021-02-07T12:15:49Z</time>
      </trkpt>
      <trkpt lat="43.61553" lon="3.8181">
        <ele>37.1</ele>
        <time>2021-02-07T12:15:50Z</time>
      </trkpt>
      <trkpt lat="43.61552" lon="3.81805">
        <ele>37</ele>
        <time>2021-02-07T12:15:51Z</time>
      </trkpt>
      <trkpt lat="43.61551" lon="3.818">
        <ele>36.7</ele>
        <time>2021-02-07T12:15:52Z</time>
      </trkpt>
      <trkpt lat="43.61549" lon="3.81795">
        <ele>41</ele>
        <time>2021-02-07T12:15:53Z</time>
      </trkpt>
      <trkpt lat="43.61548" lon="3.8179">
        <ele>36.3</ele>
        <time>2021-02-07T12:15:54Z</time>
      </trkpt>
      <trkpt lat="43.61546" lon="3.81785">
        <ele>36.3</ele>
        <time>2021-02-07T12:15:55Z</time>
      </trkpt>
      <trkpt lat="43.61545" lon="3.81781">
        <ele>36.2</ele>
        <time>2021-02-07T12:15:56Z</time>
      </trkpt>
      <trkpt lat="43.61544" lon="3.81776">
        <ele>36.2</ele>
        <time>2021-02-07T12:15:57Z</time>
      </trkpt>
      <trkpt lat="43.61543" lon="3.81771">
        <ele>36.2</ele>
        <time>2021-02-07T12:15:58Z</time>
      </trkpt>
      <trkpt lat="43.61541" lon="3.81766">
        <ele>36.4</ele>
        <time>2021-02-07T12:15:59Z</time>
      </trkpt>
      <trkpt lat="43.6154" lon="3.81762">
        <ele>36.4</ele>
        <time>2021-02-07T12:16:00Z</time>
      </trkpt>
      <trkpt lat="43.61539" lon="3.81757">
        <ele>36.5</ele>
        <time>2021-02-07T12:16:01Z</time>
      </trkpt>
      <trkpt lat="43.61538" lon="3.81752">
        <ele>36.6</ele>
        <time>2021-02-07T12:16:02Z</time>
      </trkpt>
      <trkpt lat="43.61536" lon="3.81747">
        <ele>36.3</ele>
        <time>2021-02-07T12:16:03Z</time>
      </trkpt>
      <trkpt lat="43.61534" lon="3.81738">
        <ele>41</ele>
        <time>2021-02-07T12:16:04Z</time>
      </trkpt>
      <trkpt lat="43.61533" lon="3.81733">
        <ele>34.2</ele>
        <time>2021-02-07T12:16:05Z</time>
      </trkpt>
      <trkpt lat="43.61531" lon="3.81729">
        <ele>33.4</ele>
        <time>2021-02-07T12:16:06Z</time>
      </trkpt>
      <trkpt lat="43.6153" lon="3.81724">
        <ele>32.4</ele>
        <time>2021-02-07T12:16:08Z</time>
      </trkpt>
      <trkpt lat="43.61529" lon="3.8172">
        <ele>32.1</ele>
        <time>2021-02-07T12:16:09Z</time>
      </trkpt>
      <trkpt lat="43.61527" lon="3.81715">
        <ele>32.2</ele>
        <time>2021-02-07T12:16:10Z</time>
      </trkpt>
      <trkpt lat="43.61526" lon="3.8171">
        <ele>32.4</ele>
        <time>2021-02-07T12:16:11Z</time>
      </trkpt>
      <trkpt lat="43.61525" lon="3.81705">
        <ele>32.6</ele>
        <time>2021-02-07T12:16:12Z</time>
      </trkpt>
      <trkpt lat="43.61523" lon="3.817">
        <ele>41</ele>
        <time>2021-02-07T12:16:13Z</time>
      </trkpt>
      <trkpt lat="43.61522" lon="3.81695">
        <ele>33</ele>
        <time>2021-02-07T12:16:14Z</time>
      </trkpt>
      <trkpt lat="43.6152" lon="3.81689">
        <ele>33.4</ele>
        <time>2021-02-07T12:16:15Z</time>
      </trkpt>
      <trkpt lat="43.61519" lon="3.81684">
        <ele>33.9</ele>
        <time>2021-02-07T12:16:16Z</time>
      </trkpt>
      <trkpt lat="43.61517" lon="3.81678">
        <ele>34.5</ele>
        <time>2021-02-07T12:16:17Z</time>
      </trkpt>
      <trkpt lat="43.61516" lon="3.81672">
        <ele>35.2</ele>
        <time>2021-02-07T12:16:18Z</time>
      </trkpt>
      <trkpt lat="43.61514" lon="3.81667">
        <ele>35.9</ele>
        <time>2021-02-07T12:16:19Z</time>
      </trkpt>
      <trkpt lat="43.61513" lon="3.81661">
        <ele>36.3</ele>
        <time>2021-02-07T12:16:20Z</time>
      </trkpt>
      <trkpt lat="43.61512" lon="3.81655">
        <ele>36.6</ele>
        <time>2021-02-07T12:16:21Z</time>
      </trkpt>
      <trkpt lat="43.6151" lon="3.8165">
        <ele>37</ele>
        <time>2021-02-07T12:16:22Z</time>
      </trkpt>
      <trkpt lat="43.61509" lon="3.81644">
        <ele>41</ele>
        <time>2021-02-07T12:16:23Z</time>
      </trkpt>
      <trkpt lat="43.61507" lon="3.81638">
        <ele>37.5</ele>
        <time>2021-02-07T12:16:24Z</time>
      </trkpt>
      <trkpt lat="43.61505" lon="3.81632">
        <ele>37.8</ele>
        <time>2021-02-07T12:16:25Z</time>
      </trkpt>
      <trkpt lat="43.61503" lon="3.81626">
        <ele>37.9</ele>
        <time>2021-02-07T12:16:26Z</time>
      </trkpt>
      <trkpt lat="43.61502" lon="3.81619">
        <ele>38</ele>
        <time>2021-02-07T12:16:27Z</time>
      </trkpt>
      <trkpt lat="43.615" lon="3.81613">
        <ele>38</ele>
        <time>2021-02-07T12:16:28Z</time>
      </trkpt>
      <trkpt lat="43.61498" lon="3.81607">
        <ele>37.9</ele>
        <time>2021-02-07T12:16:29Z</time>
      </trkpt>
      <trkpt lat="43.61497" lon="3.81601">
        <ele>37.9</ele>
        <time>2021-02-07T12:16:30Z</time>
      </trkpt>
      <trkpt lat="43.61496" lon="3.81594">
        <ele>37.9</ele>
        <time>2021-02-07T12:16:31Z</time>
      </trkpt>
      <trkpt lat="43.61495" lon="3.81588">
        <ele>37.9</ele>
        <time>2021-02-07T12:16:32Z</time>
      </trkpt>
      <trkpt lat="43.61494" lon="3.81582">
        <ele>42</ele>
        <time>2021-02-07T12:16:33Z</time>
      </trkpt>
      <trkpt lat="43.61494" lon="3.81577">
        <ele>38.4</ele>
        <time>2021-02-07T12:16:34Z</time>
      </trkpt>
      <trkpt lat="43.61493" lon="3.81571">
        <ele>38.7</ele>
        <time>2021-02-07T12:16:35Z</time>
      </trkpt>
      <trkpt lat="43.61493" lon="3.81566">
        <ele>38.9</ele>
        <time>2021-02-07T12:16:36Z</time>
      </trkpt>
      <trkpt lat="43.61492" lon="3.81561">
        <ele>39.1</ele>
        <time>2021-02-07T12:16:37Z</time>
      </trkpt>
      <trkpt lat="43.61492" lon="3.81557">
        <ele>39.3</ele>
        <time>2021-02-07T12:16:38Z</time>
      </trkpt>
      <trkpt lat="43.6149" lon="3.81554">
        <ele>39.3</ele>
        <time>2021-02-07T12:16:39Z</time>
      </trkpt>
      <trkpt lat="43.61489" lon="3.81551">
        <ele>39.3</ele>
        <time>2021-02-07T12:16:40Z</time>
      </trkpt>
      <trkpt lat="43.61487" lon="3.81549">
        <ele>39.2</ele>
        <time>2021-02-07T12:16:41Z</time>
      </trkpt>
      <trkpt lat="43.61485" lon="3.81546">
        <ele>39.1</ele>
        <time>2021-02-07T12:16:42Z</time>
      </trkpt>
      <trkpt lat="43.61483" lon="3.81543">
        <ele>42</ele>
        <time>2021-02-07T12:16:43Z</time>
      </trkpt>
      <trkpt lat="43.61482" lon="3.81539">
        <ele>39.1</ele>
        <time>2021-02-07T12:16:44Z</time>
      </trkpt>
      <trkpt lat="43.6148" lon="3.81535">
        <ele>39.1</ele>
        <time>2021-02-07T12:16:45Z</time>
      </trkpt>
      <trkpt lat="43.61478" lon="3.81533">
        <ele>39.1</ele>
        <time>2021-02-07T12:16:46Z</time>
      </trkpt>
      <trkpt lat="43.61476" lon="3.81531">
        <ele>39</ele>
        <time>2021-02-07T12:16:47Z</time>
      </trkpt>
      <trkpt lat="43.61474" lon="3.81528">
        <ele>39.1</ele>
        <time>2021-02-07T12:16:48Z</time>
      </trkpt>
      <trkpt lat="43.61473" lon="3.81526">
        <ele>39.3</ele>
        <time>2021-02-07T12:16:49Z</time>
      </trkpt>
      <trkpt lat="43.61472" lon="3.81523">
        <ele>39.7</ele>
        <time>2021-02-07T12:16:50Z</time>
      </trkpt>
      <trkpt lat="43.6147" lon="3.8152">
        <ele>40.1</ele>
        <time>2021-02-07T12:16:51Z</time>
      </trkpt>
      <trkpt lat="43.61469" lon="3.81517">
        <ele>40.4</ele>
        <time>2021-02-07T12:16:52Z</time>
      </trkpt>
      <trkpt lat="43.61468" lon="3.81514">
        <ele>42</ele>
        <time>2021-02-07T12:16:53Z</time>
      </trkpt>
      <trkpt lat="43.61467" lon="3.8151">
        <ele>41.2</ele>
        <time>2021-02-07T12:16:54Z</time>
      </trkpt>
      <trkpt lat="43.61466" lon="3.81507">
        <ele>41.5</ele>
        <time>2021-02-07T12:16:55Z</time>
      </trkpt>
      <trkpt lat="43.61464" lon="3.81503">
        <ele>41.8</ele>
        <time>2021-02-07T12:16:56Z</time>
      </trkpt>
      <trkpt lat="43.61463" lon="3.815">
        <ele>42</ele>
        <time>2021-02-07T12:16:57Z</time>
      </trkpt>
      <trkpt lat="43.61462" lon="3.81496">
        <ele>42</ele>
        <time>2021-02-07T12:16:58Z</time>
      </trkpt>
      <trkpt lat="43.6146" lon="3.81492">
        <ele>41.8</ele>
        <time>2021-02-07T12:16:59Z</time>
      </trkpt>
      <trkpt lat="43.61459" lon="3.81489">
        <ele>41.8</ele>
        <time>2021-02-07T12:17:00Z</time>
      </trkpt>
      <trkpt lat="43.61457" lon="3.81485">
        <ele>41.6</ele>
        <time>2021-02-07T12:17:01Z</time>
      </trkpt>
      <trkpt lat="43.61456" lon="3.81481">
        <ele>41.5</ele>
        <time>2021-02-07T12:17:02Z</time>
      </trkpt>
      <trkpt lat="43.61454" lon="3.81477">
        <ele>42</ele>
        <time>2021-02-07T12:17:03Z</time>
      </trkpt>
      <trkpt lat="43.61453" lon="3.81472">
        <ele>41.2</ele>
        <time>2021-02-07T12:17:04Z</time>
      </trkpt>
      <trkpt lat="43.61452" lon="3.81469">
        <ele>41.2</ele>
        <time>2021-02-07T12:17:05Z</time>
      </trkpt>
      <trkpt lat="43.61451" lon="3.81466">
        <ele>41.2</ele>
        <time>2021-02-07T12:17:06Z</time>
      </trkpt>
      <trkpt lat="43.61449" lon="3.81462">
        <ele>41</ele>
        <time>2021-02-07T12:17:07Z</time>
      </trkpt>
      <trkpt lat="43.61448" lon="3.81459">
        <ele>41</ele>
        <time>2021-02-07T12:17:08Z</time>
      </trkpt>
      <trkpt lat="43.61447" lon="3.81456">
        <ele>41</ele>
        <time>2021-02-07T12:17:09Z</time>
      </trkpt>
      <trkpt lat="43.61446" lon="3.81452">
        <ele>41</ele>
        <time>2021-02-07T12:17:10Z</time>
      </trkpt>
      <trkpt lat="43.61444" lon="3.81448">
        <ele>40.9</ele>
        <time>2021-02-07T12:17:11Z</time>
      </trkpt>
      <trkpt lat="43.61443" lon="3.81444">
        <ele>41</ele>
        <time>2021-02-07T12:17:12Z</time>
      </trkpt>
      <trkpt lat="43.61442" lon="3.8144">
        <ele>44</ele>
        <time>2021-02-07T12:17:13Z</time>
      </trkpt>
      <trkpt lat="43.6144" lon="3.81436">
        <ele>41.8</ele>
        <time>2021-02-07T12:17:14Z</time>
      </trkpt>
      <trkpt lat="43.61439" lon="3.81432">
        <ele>42.1</ele>
        <time>2021-02-07T12:17:15Z</time>
      </trkpt>
      <trkpt lat="43.61438" lon="3.81429">
        <ele>42.3</ele>
        <time>2021-02-07T12:17:16Z</time>
      </trkpt>
      <trkpt lat="43.61437" lon="3.81425">
        <ele>42.5</ele>
        <time>2021-02-07T12:17:17Z</time>
      </trkpt>
      <trkpt lat="43.61435" lon="3.81421">
        <ele>42.7</ele>
        <time>2021-02-07T12:17:18Z</time>
      </trkpt>
      <trkpt lat="43.61434" lon="3.81417">
        <ele>42.8</ele>
        <time>2021-02-07T12:17:19Z</time>
      </trkpt>
      <trkpt lat="43.61433" lon="3.81414">
        <ele>42.9</ele>
        <time>2021-02-07T12:17:20Z</time>
      </trkpt>
      <trkpt lat="43.61432" lon="3.81411">
        <ele>42.9</ele>
        <time>2021-02-07T12:17:21Z</time>
      </trkpt>
      <trkpt lat="43.61431" lon="3.81408">
        <ele>42.9</ele>
        <time>2021-02-07T12:17:22Z</time>
      </trkpt>
      <trkpt lat="43.6143" lon="3.81405">
        <ele>44</ele>
        <time>2021-02-07T12:17:23Z</time>
      </trkpt>
      <trkpt lat="43.61429" lon="3.81402">
        <ele>42.9</ele>
        <time>2021-02-07T12:17:24Z</time>
      </trkpt>
      <trkpt lat="43.61428" lon="3.81399">
        <ele>42.9</ele>
        <time>2021-02-07T12:17:25Z</time>
      </trkpt>
      <trkpt lat="43.61427" lon="3.81396">
        <ele>42.9</ele>
        <time>2021-02-07T12:17:26Z</time>
      </trkpt>
      <trkpt lat="43.61426" lon="3.81393">
        <ele>42.9</ele>
        <time>2021-02-07T12:17:27Z</time>
      </trkpt>
      <trkpt lat="43.61425" lon="3.8139">
        <ele>42.9</ele>
        <time>2021-02-07T12:17:28Z</time>
      </trkpt>
      <trkpt lat="43.61425" lon="3.81386">
        <ele>43</ele>
        <time>2021-02-07T12:17:29Z</time>
      </trkpt>
      <trkpt lat="43.61425" lon="3.81384">
        <ele>43</ele>
        <time>2021-02-07T12:17:30Z</time>
      </trkpt>
      <trkpt lat="43.61424" lon="3.81381">
        <ele>43</ele>
        <time>2021-02-07T12:17:31Z</time>
      </trkpt>
      <trkpt lat="43.61423" lon="3.81379">
        <ele>43</ele>
        <time>2021-02-07T12:17:32Z</time>
      </trkpt>
      <trkpt lat="43.61421" lon="3.81374">
        <ele>42.9</ele>
        <time>2021-02-07T12:17:34Z</time>
      </trkpt>
      <trkpt lat="43.6142" lon="3.8137">
        <ele>43</ele>
        <time>2021-02-07T12:17:35Z</time>
      </trkpt>
      <trkpt lat="43.61418" lon="3.81367">
        <ele>42.9</ele>
        <time>2021-02-07T12:17:36Z</time>
      </trkpt>
      <trkpt lat="43.61417" lon="3.81363">
        <ele>43</ele>
        <time>2021-02-07T12:17:37Z</time>
      </trkpt>
      <trkpt lat="43.61416" lon="3.8136">
        <ele>43</ele>
        <time>2021-02-07T12:17:38Z</time>
      </trkpt>
      <trkpt lat="43.61416" lon="3.81355">
        <ele>43.2</ele>
        <time>2021-02-07T12:17:39Z</time>
      </trkpt>
      <trkpt lat="43.61415" lon="3.8135">
        <ele>43.4</ele>
        <time>2021-02-07T12:17:40Z</time>
      </trkpt>
      <trkpt lat="43.61414" lon="3.81346">
        <ele>43.5</ele>
        <time>2021-02-07T12:17:41Z</time>
      </trkpt>
      <trkpt lat="43.61414" lon="3.81342">
        <ele>43.6</ele>
        <time>2021-02-07T12:17:42Z</time>
      </trkpt>
      <trkpt lat="43.61412" lon="3.81338">
        <ele>43.7</ele>
        <time>2021-02-07T12:17:43Z</time>
      </trkpt>
      <trkpt lat="43.61411" lon="3.81334">
        <ele>46</ele>
        <time>2021-02-07T12:17:44Z</time>
      </trkpt>
      <trkpt lat="43.6141" lon="3.8133">
        <ele>43.9</ele>
        <time>2021-02-07T12:17:45Z</time>
      </trkpt>
      <trkpt lat="43.6141" lon="3.81326">
        <ele>44</ele>
        <time>2021-02-07T12:17:46Z</time>
      </trkpt>
      <trkpt lat="43.61409" lon="3.81322">
        <ele>44.1</ele>
        <time>2021-02-07T12:17:47Z</time>
      </trkpt>
      <trkpt lat="43.61409" lon="3.81318">
        <ele>44.3</ele>
        <time>2021-02-07T12:17:48Z</time>
      </trkpt>
      <trkpt lat="43.61409" lon="3.81314">
        <ele>44.4</ele>
        <time>2021-02-07T12:17:49Z</time>
      </trkpt>
      <trkpt lat="43.61408" lon="3.81309">
        <ele>44.6</ele>
        <time>2021-02-07T12:17:50Z</time>
      </trkpt>
      <trkpt lat="43.61407" lon="3.81305">
        <ele>44.7</ele>
        <time>2021-02-07T12:17:51Z</time>
      </trkpt>
      <trkpt lat="43.61406" lon="3.81301">
        <ele>44.8</ele>
        <time>2021-02-07T12:17:52Z</time>
      </trkpt>
      <trkpt lat="43.61406" lon="3.81297">
        <ele>46</ele>
        <time>2021-02-07T12:17:53Z</time>
      </trkpt>
      <trkpt lat="43.61405" lon="3.81293">
        <ele>45</ele>
        <time>2021-02-07T12:17:54Z</time>
      </trkpt>
      <trkpt lat="43.61405" lon="3.81289">
        <ele>45.2</ele>
        <time>2021-02-07T12:17:55Z</time>
      </trkpt>
      <trkpt lat="43.61405" lon="3.81285">
        <ele>45.3</ele>
        <time>2021-02-07T12:17:56Z</time>
      </trkpt>
      <trkpt lat="43.61405" lon="3.8128">
        <ele>45.5</ele>
        <time>2021-02-07T12:17:57Z</time>
      </trkpt>
      <trkpt lat="43.61405" lon="3.81276">
        <ele>45.6</ele>
        <time>2021-02-07T12:17:58Z</time>
      </trkpt>
      <trkpt lat="43.61404" lon="3.81272">
        <ele>45.8</ele>
        <time>2021-02-07T12:17:59Z</time>
      </trkpt>
      <trkpt lat="43.61404" lon="3.81268">
        <ele>45.9</ele>
        <time>2021-02-07T12:18:00Z</time>
      </trkpt>
      <trkpt lat="43.61404" lon="3.81264">
        <ele>46</ele>
        <time>2021-02-07T12:18:01Z</time>
      </trkpt>
      <trkpt lat="43.61404" lon="3.8126">
        <ele>46.2</ele>
        <time>2021-02-07T12:18:02Z</time>
      </trkpt>
      <trkpt lat="43.61403" lon="3.81256">
        <ele>47</ele>
        <time>2021-02-07T12:18:03Z</time>
      </trkpt>
      <trkpt lat="43.61404" lon="3.81252">
        <ele>46.5</ele>
        <time>2021-02-07T12:18:04Z</time>
      </trkpt>
      <trkpt lat="43.61403" lon="3.81248">
        <ele>46.5</ele>
        <time>2021-02-07T12:18:05Z</time>
      </trkpt>
      <trkpt lat="43.61403" lon="3.81244">
        <ele>46.6</ele>
        <time>2021-02-07T12:18:06Z</time>
      </trkpt>
      <trkpt lat="43.61403" lon="3.8124">
        <ele>46.7</ele>
        <time>2021-02-07T12:18:07Z</time>
      </trkpt>
      <trkpt lat="43.61403" lon="3.81236">
        <ele>46.8</ele>
        <time>2021-02-07T12:18:08Z</time>
      </trkpt>
      <trkpt lat="43.61403" lon="3.81232">
        <ele>46.8</ele>
        <time>2021-02-07T12:18:09Z</time>
      </trkpt>
      <trkpt lat="43.61403" lon="3.81228">
        <ele>46.9</ele>
        <time>2021-02-07T12:18:10Z</time>
      </trkpt>
      <trkpt lat="43.61403" lon="3.81224">
        <ele>47</ele>
        <time>2021-02-07T12:18:11Z</time>
      </trkpt>
      <trkpt lat="43.61403" lon="3.81221">
        <ele>47</ele>
        <time>2021-02-07T12:18:12Z</time>
      </trkpt>
      <trkpt lat="43.61403" lon="3.81217">
        <ele>48</ele>
        <time>2021-02-07T12:18:13Z</time>
      </trkpt>
      <trkpt lat="43.61403" lon="3.81213">
        <ele>47.2</ele>
        <time>2021-02-07T12:18:14Z</time>
      </trkpt>
      <trkpt lat="43.61403" lon="3.81209">
        <ele>47.3</ele>
        <time>2021-02-07T12:18:15Z</time>
      </trkpt>
      <trkpt lat="43.61403" lon="3.81206">
        <ele>47.3</ele>
        <time>2021-02-07T12:18:16Z</time>
      </trkpt>
      <trkpt lat="43.61404" lon="3.81202">
        <ele>47.4</ele>
        <time>2021-02-07T12:18:17Z</time>
      </trkpt>
      <trkpt lat="43.61404" lon="3.81198">
        <ele>47.5</ele>
        <time>2021-02-07T12:18:18Z</time>
      </trkpt>
      <trkpt lat="43.61404" lon="3.81194">
        <ele>47.6</ele>
        <time>2021-02-07T12:18:19Z</time>
      </trkpt>
      <trkpt lat="43.61404" lon="3.8119">
        <ele>47.6</ele>
        <time>2021-02-07T12:18:20Z</time>
      </trkpt>
      <trkpt lat="43.61404" lon="3.81186">
        <ele>47.7</ele>
        <time>2021-02-07T12:18:21Z</time>
      </trkpt>
      <trkpt lat="43.61404" lon="3.81183">
        <ele>47.8</ele>
        <time>2021-02-07T12:18:22Z</time>
      </trkpt>
      <trkpt lat="43.61404" lon="3.81179">
        <ele>49</ele>
        <time>2021-02-07T12:18:23Z</time>
      </trkpt>
      <trkpt lat="43.61404" lon="3.81175">
        <ele>47.9</ele>
        <time>2021-02-07T12:18:24Z</time>
      </trkpt>
      <trkpt lat="43.61404" lon="3.81171">
        <ele>48</ele>
        <time>2021-02-07T12:18:25Z</time>
      </trkpt>
      <trkpt lat="43.61404" lon="3.81168">
        <ele>48.1</ele>
        <time>2021-02-07T12:18:26Z</time>
      </trkpt>
      <trkpt lat="43.61404" lon="3.81164">
        <ele>48.2</ele>
        <time>2021-02-07T12:18:27Z</time>
      </trkpt>
      <trkpt lat="43.61405" lon="3.8116">
        <ele>48.4</ele>
        <time>2021-02-07T12:18:28Z</time>
      </trkpt>
      <trkpt lat="43.61405" lon="3.81157">
        <ele>48.5</ele>
        <time>2021-02-07T12:18:29Z</time>
      </trkpt>
      <trkpt lat="43.61405" lon="3.81153">
        <ele>48.7</ele>
        <time>2021-02-07T12:18:30Z</time>
      </trkpt>
      <trkpt lat="43.61405" lon="3.81149">
        <ele>48.8</ele>
        <time>2021-02-07T12:18:31Z</time>
      </trkpt>
      <trkpt lat="43.61405" lon="3.81145">
        <ele>48.9</ele>
        <time>2021-02-07T12:18:32Z</time>
      </trkpt>
      <trkpt lat="43.61406" lon="3.81142">
        <ele>49.1</ele>
        <time>2021-02-07T12:18:33Z</time>
      </trkpt>
      <trkpt lat="43.61406" lon="3.81138">
        <ele>50</ele>
        <time>2021-02-07T12:18:34Z</time>
      </trkpt>
      <trkpt lat="43.61406" lon="3.81134">
        <ele>49.3</ele>
        <time>2021-02-07T12:18:35Z</time>
      </trkpt>
      <trkpt lat="43.61406" lon="3.81131">
        <ele>49.3</ele>
        <time>2021-02-07T12:18:36Z</time>
      </trkpt>
      <trkpt lat="43.61405" lon="3.81127">
        <ele>49.3</ele>
        <time>2021-02-07T12:18:37Z</time>
      </trkpt>
      <trkpt lat="43.61405" lon="3.81123">
        <ele>49.4</ele>
        <time>2021-02-07T12:18:38Z</time>
      </trkpt>
      <trkpt lat="43.61404" lon="3.81119">
        <ele>49.4</ele>
        <time>2021-02-07T12:18:39Z</time>
      </trkpt>
      <trkpt lat="43.61404" lon="3.81116">
        <ele>49.5</ele>
        <time>2021-02-07T12:18:40Z</time>
      </trkpt>
      <trkpt lat="43.61404" lon="3.81112">
        <ele>49.5</ele>
        <time>2021-02-07T12:18:41Z</time>
      </trkpt>
      <trkpt lat="43.61403" lon="3.81108">
        <ele>49.5</ele>
        <time>2021-02-07T12:18:42Z</time>
      </trkpt>
      <trkpt lat="43.61403" lon="3.81105">
        <ele>51</ele>
        <time>2021-02-07T12:18:43Z</time>
      </trkpt>
      <trkpt lat="43.61403" lon="3.81101">
        <ele>49.5</ele>
        <time>2021-02-07T12:18:44Z</time>
      </trkpt>
      <trkpt lat="43.61403" lon="3.81098">
        <ele>49.5</ele>
        <time>2021-02-07T12:18:45Z</time>
      </trkpt>
      <trkpt lat="43.61404" lon="3.81094">
        <ele>49.5</ele>
        <time>2021-02-07T12:18:46Z</time>
      </trkpt>
      <trkpt lat="43.61404" lon="3.8109">
        <ele>49.5</ele>
        <time>2021-02-07T12:18:47Z</time>
      </trkpt>
      <trkpt lat="43.61405" lon="3.81087">
        <ele>49.6</ele>
        <time>2021-02-07T12:18:48Z</time>
      </trkpt>
      <trkpt lat="43.61405" lon="3.81083">
        <ele>49.6</ele>
        <time>2021-02-07T12:18:49Z</time>
      </trkpt>
      <trkpt lat="43.61407" lon="3.8108">
        <ele>49.8</ele>
        <time>2021-02-07T12:18:50Z</time>
      </trkpt>
      <trkpt lat="43.61408" lon="3.81077">
        <ele>49.9</ele>
        <time>2021-02-07T12:18:51Z</time>
      </trkpt>
      <trkpt lat="43.61409" lon="3.81074">
        <ele>50.1</ele>
        <time>2021-02-07T12:18:52Z</time>
      </trkpt>
      <trkpt lat="43.61413" lon="3.8107">
        <ele>52</ele>
        <time>2021-02-07T12:18:53Z</time>
      </trkpt>
      <trkpt lat="43.61415" lon="3.81068">
        <ele>50.5</ele>
        <time>2021-02-07T12:18:54Z</time>
      </trkpt>
      <trkpt lat="43.61416" lon="3.81066">
        <ele>50.6</ele>
        <time>2021-02-07T12:18:55Z</time>
      </trkpt>
      <trkpt lat="43.61416" lon="3.81063">
        <ele>50.7</ele>
        <time>2021-02-07T12:18:56Z</time>
      </trkpt>
      <trkpt lat="43.61415" lon="3.81059">
        <ele>50.8</ele>
        <time>2021-02-07T12:18:58Z</time>
      </trkpt>
      <trkpt lat="43.61414" lon="3.81056">
        <ele>50.9</ele>
        <time>2021-02-07T12:18:59Z</time>
      </trkpt>
      <trkpt lat="43.61412" lon="3.81054">
        <ele>50.9</ele>
        <time>2021-02-07T12:19:00Z</time>
      </trkpt>
      <trkpt lat="43.61409" lon="3.81053">
        <ele>50.8</ele>
        <time>2021-02-07T12:19:01Z</time>
      </trkpt>
      <trkpt lat="43.61406" lon="3.81051">
        <ele>50.8</ele>
        <time>2021-02-07T12:19:02Z</time>
      </trkpt>
      <trkpt lat="43.61403" lon="3.81048">
        <ele>52</ele>
        <time>2021-02-07T12:19:03Z</time>
      </trkpt>
      <trkpt lat="43.61401" lon="3.81045">
        <ele>50.8</ele>
        <time>2021-02-07T12:19:04Z</time>
      </trkpt>
      <trkpt lat="43.61399" lon="3.81041">
        <ele>50.9</ele>
        <time>2021-02-07T12:19:05Z</time>
      </trkpt>
      <trkpt lat="43.61398" lon="3.81036">
        <ele>51</ele>
        <time>2021-02-07T12:19:06Z</time>
      </trkpt>
      <trkpt lat="43.61398" lon="3.81032">
        <ele>51.2</ele>
        <time>2021-02-07T12:19:07Z</time>
      </trkpt>
      <trkpt lat="43.61397" lon="3.81028">
        <ele>51.3</ele>
        <time>2021-02-07T12:19:08Z</time>
      </trkpt>
      <trkpt lat="43.61396" lon="3.81023">
        <ele>51.3</ele>
        <time>2021-02-07T12:19:09Z</time>
      </trkpt>
      <trkpt lat="43.61396" lon="3.81019">
        <ele>51.3</ele>
        <time>2021-02-07T12:19:10Z</time>
      </trkpt>
      <trkpt lat="43.61395" lon="3.81015">
        <ele>51.3</ele>
        <time>2021-02-07T12:19:11Z</time>
      </trkpt>
      <trkpt lat="43.61395" lon="3.8101">
        <ele>51.4</ele>
        <time>2021-02-07T12:19:12Z</time>
      </trkpt>
      <trkpt lat="43.61395" lon="3.81006">
        <ele>52</ele>
        <time>2021-02-07T12:19:13Z</time>
      </trkpt>
      <trkpt lat="43.61394" lon="3.81002">
        <ele>51.4</ele>
        <time>2021-02-07T12:19:14Z</time>
      </trkpt>
      <trkpt lat="43.61394" lon="3.80999">
        <ele>51.4</ele>
        <time>2021-02-07T12:19:15Z</time>
      </trkpt>
      <trkpt lat="43.61394" lon="3.80995">
        <ele>51.5</ele>
        <time>2021-02-07T12:19:16Z</time>
      </trkpt>
      <trkpt lat="43.61393" lon="3.80991">
        <ele>51.6</ele>
        <time>2021-02-07T12:19:17Z</time>
      </trkpt>
      <trkpt lat="43.61393" lon="3.80987">
        <ele>51.8</ele>
        <time>2021-02-07T12:19:18Z</time>
      </trkpt>
      <trkpt lat="43.61393" lon="3.80983">
        <ele>51.9</ele>
        <time>2021-02-07T12:19:19Z</time>
      </trkpt>
      <trkpt lat="43.61392" lon="3.80979">
        <ele>52</ele>
        <time>2021-02-07T12:19:20Z</time>
      </trkpt>
      <trkpt lat="43.61392" lon="3.80976">
        <ele>52.1</ele>
        <time>2021-02-07T12:19:21Z</time>
      </trkpt>
      <trkpt lat="43.61391" lon="3.80972">
        <ele>52.2</ele>
        <time>2021-02-07T12:19:22Z</time>
      </trkpt>
      <trkpt lat="43.61391" lon="3.80968">
        <ele>54</ele>
        <time>2021-02-07T12:19:23Z</time>
      </trkpt>
      <trkpt lat="43.6139" lon="3.80964">
        <ele>52.4</ele>
        <time>2021-02-07T12:19:24Z</time>
      </trkpt>
      <trkpt lat="43.61389" lon="3.8096">
        <ele>52.4</ele>
        <time>2021-02-07T12:19:25Z</time>
      </trkpt>
      <trkpt lat="43.61389" lon="3.80956">
        <ele>52.6</ele>
        <time>2021-02-07T12:19:26Z</time>
      </trkpt>
      <trkpt lat="43.61389" lon="3.80952">
        <ele>52.7</ele>
        <time>2021-02-07T12:19:27Z</time>
      </trkpt>
      <trkpt lat="43.61388" lon="3.80948">
        <ele>52.9</ele>
        <time>2021-02-07T12:19:28Z</time>
      </trkpt>
      <trkpt lat="43.61388" lon="3.80944">
        <ele>53</ele>
        <time>2021-02-07T12:19:29Z</time>
      </trkpt>
      <trkpt lat="43.61387" lon="3.80939">
        <ele>53.2</ele>
        <time>2021-02-07T12:19:30Z</time>
      </trkpt>
      <trkpt lat="43.61387" lon="3.80935">
        <ele>53.3</ele>
        <time>2021-02-07T12:19:31Z</time>
      </trkpt>
      <trkpt lat="43.61386" lon="3.80932">
        <ele>53.4</ele>
        <time>2021-02-07T12:19:32Z</time>
      </trkpt>
      <trkpt lat="43.61386" lon="3.80928">
        <ele>55</ele>
        <time>2021-02-07T12:19:33Z</time>
      </trkpt>
      <trkpt lat="43.61385" lon="3.80924">
        <ele>53.6</ele>
        <time>2021-02-07T12:19:34Z</time>
      </trkpt>
      <trkpt lat="43.61385" lon="3.8092">
        <ele>53.8</ele>
        <time>2021-02-07T12:19:35Z</time>
      </trkpt>
      <trkpt lat="43.61384" lon="3.80916">
        <ele>53.8</ele>
        <time>2021-02-07T12:19:36Z</time>
      </trkpt>
      <trkpt lat="43.61384" lon="3.80912">
        <ele>54</ele>
        <time>2021-02-07T12:19:37Z</time>
      </trkpt>
      <trkpt lat="43.61383" lon="3.80907">
        <ele>54.1</ele>
        <time>2021-02-07T12:19:38Z</time>
      </trkpt>
      <trkpt lat="43.61383" lon="3.80903">
        <ele>54.3</ele>
        <time>2021-02-07T12:19:39Z</time>
      </trkpt>
      <trkpt lat="43.61382" lon="3.80898">
        <ele>54.4</ele>
        <time>2021-02-07T12:19:40Z</time>
      </trkpt>
      <trkpt lat="43.61382" lon="3.80894">
        <ele>54.6</ele>
        <time>2021-02-07T12:19:41Z</time>
      </trkpt>
      <trkpt lat="43.61381" lon="3.8089">
        <ele>54.7</ele>
        <time>2021-02-07T12:19:42Z</time>
      </trkpt>
      <trkpt lat="43.61381" lon="3.80885">
        <ele>54.8</ele>
        <time>2021-02-07T12:19:43Z</time>
      </trkpt>
      <trkpt lat="43.61381" lon="3.80881">
        <ele>55</ele>
        <time>2021-02-07T12:19:44Z</time>
      </trkpt>
      <trkpt lat="43.61381" lon="3.80877">
        <ele>54.9</ele>
        <time>2021-02-07T12:19:45Z</time>
      </trkpt>
      <trkpt lat="43.6138" lon="3.80872">
        <ele>54.9</ele>
        <time>2021-02-07T12:19:46Z</time>
      </trkpt>
      <trkpt lat="43.6138" lon="3.80868">
        <ele>55</ele>
        <time>2021-02-07T12:19:47Z</time>
      </trkpt>
      <trkpt lat="43.61381" lon="3.80864">
        <ele>55.1</ele>
        <time>2021-02-07T12:19:48Z</time>
      </trkpt>
      <trkpt lat="43.61381" lon="3.8086">
        <ele>55.1</ele>
        <time>2021-02-07T12:19:49Z</time>
      </trkpt>
      <trkpt lat="43.61381" lon="3.80856">
        <ele>55</ele>
        <time>2021-02-07T12:19:50Z</time>
      </trkpt>
      <trkpt lat="43.6138" lon="3.80852">
        <ele>54.7</ele>
        <time>2021-02-07T12:19:51Z</time>
      </trkpt>
      <trkpt lat="43.6138" lon="3.80848">
        <ele>54.6</ele>
        <time>2021-02-07T12:19:52Z</time>
      </trkpt>
      <trkpt lat="43.6138" lon="3.80844">
        <ele>54.4</ele>
        <time>2021-02-07T12:19:53Z</time>
      </trkpt>
      <trkpt lat="43.6138" lon="3.8084">
        <ele>55</ele>
        <time>2021-02-07T12:19:54Z</time>
      </trkpt>
      <trkpt lat="43.6138" lon="3.80836">
        <ele>54.1</ele>
        <time>2021-02-07T12:19:55Z</time>
      </trkpt>
      <trkpt lat="43.61379" lon="3.80832">
        <ele>54</ele>
        <time>2021-02-07T12:19:56Z</time>
      </trkpt>
      <trkpt lat="43.61379" lon="3.80828">
        <ele>54.1</ele>
        <time>2021-02-07T12:19:57Z</time>
      </trkpt>
      <trkpt lat="43.61379" lon="3.80824">
        <ele>54.1</ele>
        <time>2021-02-07T12:19:58Z</time>
      </trkpt>
      <trkpt lat="43.61379" lon="3.8082">
        <ele>54.2</ele>
        <time>2021-02-07T12:19:59Z</time>
      </trkpt>
      <trkpt lat="43.61379" lon="3.80816">
        <ele>54.3</ele>
        <time>2021-02-07T12:20:00Z</time>
      </trkpt>
      <trkpt lat="43.61379" lon="3.80812">
        <ele>54.4</ele>
        <time>2021-02-07T12:20:01Z</time>
      </trkpt>
      <trkpt lat="43.61379" lon="3.80808">
        <ele>54.5</ele>
        <time>2021-02-07T12:20:02Z</time>
      </trkpt>
      <trkpt lat="43.61379" lon="3.80804">
        <ele>55</ele>
        <time>2021-02-07T12:20:03Z</time>
      </trkpt>
      <trkpt lat="43.61379" lon="3.808">
        <ele>54.6</ele>
        <time>2021-02-07T12:20:04Z</time>
      </trkpt>
      <trkpt lat="43.61379" lon="3.80796">
        <ele>54.6</ele>
        <time>2021-02-07T12:20:05Z</time>
      </trkpt>
      <trkpt lat="43.61379" lon="3.80792">
        <ele>54.6</ele>
        <time>2021-02-07T12:20:06Z</time>
      </trkpt>
      <trkpt lat="43.61379" lon="3.80787">
        <ele>54.6</ele>
        <time>2021-02-07T12:20:07Z</time>
      </trkpt>
      <trkpt lat="43.61379" lon="3.80783">
        <ele>54.6</ele>
        <time>2021-02-07T12:20:08Z</time>
      </trkpt>
      <trkpt lat="43.61379" lon="3.80778">
        <ele>54.6</ele>
        <time>2021-02-07T12:20:09Z</time>
      </trkpt>
      <trkpt lat="43.61379" lon="3.80774">
        <ele>54.5</ele>
        <time>2021-02-07T12:20:10Z</time>
      </trkpt>
      <trkpt lat="43.61379" lon="3.8077">
        <ele>54.5</ele>
        <time>2021-02-07T12:20:11Z</time>
      </trkpt>
      <trkpt lat="43.61379" lon="3.80765">
        <ele>54.4</ele>
        <time>2021-02-07T12:20:12Z</time>
      </trkpt>
      <trkpt lat="43.61379" lon="3.80761">
        <ele>55</ele>
        <time>2021-02-07T12:20:13Z</time>
      </trkpt>
      <trkpt lat="43.6138" lon="3.80756">
        <ele>54.4</ele>
        <time>2021-02-07T12:20:14Z</time>
      </trkpt>
      <trkpt lat="43.6138" lon="3.80752">
        <ele>54.4</ele>
        <time>2021-02-07T12:20:15Z</time>
      </trkpt>
      <trkpt lat="43.6138" lon="3.80748">
        <ele>54.4</ele>
        <time>2021-02-07T12:20:16Z</time>
      </trkpt>
      <trkpt lat="43.61381" lon="3.80743">
        <ele>54.4</ele>
        <time>2021-02-07T12:20:17Z</time>
      </trkpt>
      <trkpt lat="43.61381" lon="3.80739">
        <ele>54.4</ele>
        <time>2021-02-07T12:20:18Z</time>
      </trkpt>
      <trkpt lat="43.61382" lon="3.80735">
        <ele>54.5</ele>
        <time>2021-02-07T12:20:19Z</time>
      </trkpt>
      <trkpt lat="43.61382" lon="3.8073">
        <ele>54.5</ele>
        <time>2021-02-07T12:20:20Z</time>
      </trkpt>
      <trkpt lat="43.61382" lon="3.80726">
        <ele>54.5</ele>
        <time>2021-02-07T12:20:21Z</time>
      </trkpt>
      <trkpt lat="43.61383" lon="3.80721">
        <ele>54.6</ele>
        <time>2021-02-07T12:20:22Z</time>
      </trkpt>
      <trkpt lat="43.61383" lon="3.80716">
        <ele>55</ele>
        <time>2021-02-07T12:20:23Z</time>
      </trkpt>
      <trkpt lat="43.61384" lon="3.80712">
        <ele>54.6</ele>
        <time>2021-02-07T12:20:24Z</time>
      </trkpt>
      <trkpt lat="43.61384" lon="3.80707">
        <ele>54.6</ele>
        <time>2021-02-07T12:20:25Z</time>
      </trkpt>
      <trkpt lat="43.61385" lon="3.80702">
        <ele>54.7</ele>
        <time>2021-02-07T12:20:26Z</time>
      </trkpt>
      <trkpt lat="43.61386" lon="3.80698">
        <ele>54.8</ele>
        <time>2021-02-07T12:20:27Z</time>
      </trkpt>
      <trkpt lat="43.61387" lon="3.80693">
        <ele>54.9</ele>
        <time>2021-02-07T12:20:28Z</time>
      </trkpt>
      <trkpt lat="43.61388" lon="3.80688">
        <ele>54.9</ele>
        <time>2021-02-07T12:20:29Z</time>
      </trkpt>
      <trkpt lat="43.61388" lon="3.80683">
        <ele>54.9</ele>
        <time>2021-02-07T12:20:30Z</time>
      </trkpt>
      <trkpt lat="43.61389" lon="3.80677">
        <ele>55</ele>
        <time>2021-02-07T12:20:31Z</time>
      </trkpt>
      <trkpt lat="43.61389" lon="3.80672">
        <ele>55</ele>
        <time>2021-02-07T12:20:32Z</time>
      </trkpt>
      <trkpt lat="43.61389" lon="3.80666">
        <ele>55</ele>
        <time>2021-02-07T12:20:33Z</time>
      </trkpt>
      <trkpt lat="43.61389" lon="3.80661">
        <ele>55</ele>
        <time>2021-02-07T12:20:34Z</time>
      </trkpt>
      <trkpt lat="43.6139" lon="3.80656">
        <ele>55</ele>
        <time>2021-02-07T12:20:35Z</time>
      </trkpt>
      <trkpt lat="43.6139" lon="3.80651">
        <ele>55</ele>
        <time>2021-02-07T12:20:36Z</time>
      </trkpt>
      <trkpt lat="43.61391" lon="3.80646">
        <ele>55.1</ele>
        <time>2021-02-07T12:20:37Z</time>
      </trkpt>
      <trkpt lat="43.61391" lon="3.80641">
        <ele>55.1</ele>
        <time>2021-02-07T12:20:38Z</time>
      </trkpt>
      <trkpt lat="43.61392" lon="3.80636">
        <ele>55.2</ele>
        <time>2021-02-07T12:20:39Z</time>
      </trkpt>
      <trkpt lat="43.61393" lon="3.80631">
        <ele>55.4</ele>
        <time>2021-02-07T12:20:40Z</time>
      </trkpt>
      <trkpt lat="43.61394" lon="3.80627">
        <ele>55.6</ele>
        <time>2021-02-07T12:20:41Z</time>
      </trkpt>
      <trkpt lat="43.61396" lon="3.80622">
        <ele>55.9</ele>
        <time>2021-02-07T12:20:42Z</time>
      </trkpt>
      <trkpt lat="43.61397" lon="3.80617">
        <ele>55</ele>
        <time>2021-02-07T12:20:43Z</time>
      </trkpt>
      <trkpt lat="43.61397" lon="3.80612">
        <ele>56.3</ele>
        <time>2021-02-07T12:20:44Z</time>
      </trkpt>
      <trkpt lat="43.61397" lon="3.80607">
        <ele>56.3</ele>
        <time>2021-02-07T12:20:45Z</time>
      </trkpt>
      <trkpt lat="43.61397" lon="3.80602">
        <ele>56.3</ele>
        <time>2021-02-07T12:20:46Z</time>
      </trkpt>
      <trkpt lat="43.61396" lon="3.80597">
        <ele>56.3</ele>
        <time>2021-02-07T12:20:47Z</time>
      </trkpt>
      <trkpt lat="43.61395" lon="3.80592">
        <ele>56.2</ele>
        <time>2021-02-07T12:20:48Z</time>
      </trkpt>
      <trkpt lat="43.61394" lon="3.80588">
        <ele>56.2</ele>
        <time>2021-02-07T12:20:49Z</time>
      </trkpt>
      <trkpt lat="43.61394" lon="3.80583">
        <ele>56.2</ele>
        <time>2021-02-07T12:20:50Z</time>
      </trkpt>
      <trkpt lat="43.61395" lon="3.80579">
        <ele>56.3</ele>
        <time>2021-02-07T12:20:51Z</time>
      </trkpt>
      <trkpt lat="43.61395" lon="3.80575">
        <ele>56.5</ele>
        <time>2021-02-07T12:20:52Z</time>
      </trkpt>
      <trkpt lat="43.61396" lon="3.8057">
        <ele>56.6</ele>
        <time>2021-02-07T12:20:53Z</time>
      </trkpt>
      <trkpt lat="43.61397" lon="3.80567">
        <ele>57</ele>
        <time>2021-02-07T12:20:54Z</time>
      </trkpt>
      <trkpt lat="43.61398" lon="3.80563">
        <ele>56.8</ele>
        <time>2021-02-07T12:20:55Z</time>
      </trkpt>
      <trkpt lat="43.61399" lon="3.8056">
        <ele>56.9</ele>
        <time>2021-02-07T12:20:56Z</time>
      </trkpt>
      <trkpt lat="43.614" lon="3.80556">
        <ele>57</ele>
        <time>2021-02-07T12:20:57Z</time>
      </trkpt>
      <trkpt lat="43.614" lon="3.80552">
        <ele>57.1</ele>
        <time>2021-02-07T12:20:58Z</time>
      </trkpt>
      <trkpt lat="43.61401" lon="3.80549">
        <ele>57.1</ele>
        <time>2021-02-07T12:20:59Z</time>
      </trkpt>
      <trkpt lat="43.61401" lon="3.80541">
        <ele>57.3</ele>
        <time>2021-02-07T12:21:00Z</time>
      </trkpt>
      <trkpt lat="43.61401" lon="3.80537">
        <ele>57.4</ele>
        <time>2021-02-07T12:21:01Z</time>
      </trkpt>
      <trkpt lat="43.61402" lon="3.80534">
        <ele>57.4</ele>
        <time>2021-02-07T12:21:02Z</time>
      </trkpt>
      <trkpt lat="43.61402" lon="3.8053">
        <ele>57.5</ele>
        <time>2021-02-07T12:21:04Z</time>
      </trkpt>
      <trkpt lat="43.61402" lon="3.80527">
        <ele>57.5</ele>
        <time>2021-02-07T12:21:05Z</time>
      </trkpt>
      <trkpt lat="43.61403" lon="3.80523">
        <ele>57.6</ele>
        <time>2021-02-07T12:21:06Z</time>
      </trkpt>
      <trkpt lat="43.61403" lon="3.80519">
        <ele>57.7</ele>
        <time>2021-02-07T12:21:07Z</time>
      </trkpt>
      <trkpt lat="43.61403" lon="3.80515">
        <ele>57.7</ele>
        <time>2021-02-07T12:21:08Z</time>
      </trkpt>
      <trkpt lat="43.61403" lon="3.80511">
        <ele>57.8</ele>
        <time>2021-02-07T12:21:09Z</time>
      </trkpt>
      <trkpt lat="43.61404" lon="3.80507">
        <ele>57.9</ele>
        <time>2021-02-07T12:21:10Z</time>
      </trkpt>
      <trkpt lat="43.61404" lon="3.80503">
        <ele>57.9</ele>
        <time>2021-02-07T12:21:11Z</time>
      </trkpt>
      <trkpt lat="43.61405" lon="3.80499">
        <ele>58</ele>
        <time>2021-02-07T12:21:12Z</time>
      </trkpt>
      <trkpt lat="43.61405" lon="3.80494">
        <ele>59</ele>
        <time>2021-02-07T12:21:13Z</time>
      </trkpt>
      <trkpt lat="43.61405" lon="3.8049">
        <ele>58</ele>
        <time>2021-02-07T12:21:14Z</time>
      </trkpt>
      <trkpt lat="43.61405" lon="3.80485">
        <ele>58</ele>
        <time>2021-02-07T12:21:15Z</time>
      </trkpt>
      <trkpt lat="43.61405" lon="3.80481">
        <ele>58</ele>
        <time>2021-02-07T12:21:16Z</time>
      </trkpt>
      <trkpt lat="43.61406" lon="3.80476">
        <ele>58</ele>
        <time>2021-02-07T12:21:17Z</time>
      </trkpt>
      <trkpt lat="43.61406" lon="3.80472">
        <ele>58</ele>
        <time>2021-02-07T12:21:18Z</time>
      </trkpt>
      <trkpt lat="43.61407" lon="3.80468">
        <ele>58.1</ele>
        <time>2021-02-07T12:21:19Z</time>
      </trkpt>
      <trkpt lat="43.61406" lon="3.80463">
        <ele>58.1</ele>
        <time>2021-02-07T12:21:20Z</time>
      </trkpt>
      <trkpt lat="43.61406" lon="3.80459">
        <ele>58.2</ele>
        <time>2021-02-07T12:21:21Z</time>
      </trkpt>
      <trkpt lat="43.61406" lon="3.80455">
        <ele>58.2</ele>
        <time>2021-02-07T12:21:22Z</time>
      </trkpt>
      <trkpt lat="43.61405" lon="3.80447">
        <ele>58</ele>
        <time>2021-02-07T12:21:23Z</time>
      </trkpt>
      <trkpt lat="43.61405" lon="3.80443">
        <ele>58.4</ele>
        <time>2021-02-07T12:21:24Z</time>
      </trkpt>
      <trkpt lat="43.61405" lon="3.8044">
        <ele>58.5</ele>
        <time>2021-02-07T12:21:25Z</time>
      </trkpt>
      <trkpt lat="43.61405" lon="3.80436">
        <ele>58.5</ele>
        <time>2021-02-07T12:21:26Z</time>
      </trkpt>
      <trkpt lat="43.61406" lon="3.80432">
        <ele>58.6</ele>
        <time>2021-02-07T12:21:28Z</time>
      </trkpt>
      <trkpt lat="43.61407" lon="3.80428">
        <ele>58.6</ele>
        <time>2021-02-07T12:21:29Z</time>
      </trkpt>
      <trkpt lat="43.61407" lon="3.80424">
        <ele>58.6</ele>
        <time>2021-02-07T12:21:30Z</time>
      </trkpt>
      <trkpt lat="43.61407" lon="3.80419">
        <ele>58.7</ele>
        <time>2021-02-07T12:21:31Z</time>
      </trkpt>
      <trkpt lat="43.61407" lon="3.80415">
        <ele>58.8</ele>
        <time>2021-02-07T12:21:32Z</time>
      </trkpt>
      <trkpt lat="43.61408" lon="3.80411">
        <ele>59</ele>
        <time>2021-02-07T12:21:33Z</time>
      </trkpt>
      <trkpt lat="43.61408" lon="3.80407">
        <ele>59</ele>
        <time>2021-02-07T12:21:34Z</time>
      </trkpt>
      <trkpt lat="43.61408" lon="3.80402">
        <ele>59.2</ele>
        <time>2021-02-07T12:21:35Z</time>
      </trkpt>
      <trkpt lat="43.61409" lon="3.80398">
        <ele>59.2</ele>
        <time>2021-02-07T12:21:36Z</time>
      </trkpt>
      <trkpt lat="43.61409" lon="3.80394">
        <ele>59.4</ele>
        <time>2021-02-07T12:21:37Z</time>
      </trkpt>
      <trkpt lat="43.61409" lon="3.80389">
        <ele>59.5</ele>
        <time>2021-02-07T12:21:38Z</time>
      </trkpt>
      <trkpt lat="43.61409" lon="3.80385">
        <ele>59.7</ele>
        <time>2021-02-07T12:21:39Z</time>
      </trkpt>
      <trkpt lat="43.61408" lon="3.80381">
        <ele>59.9</ele>
        <time>2021-02-07T12:21:40Z</time>
      </trkpt>
      <trkpt lat="43.61406" lon="3.80378">
        <ele>60.2</ele>
        <time>2021-02-07T12:21:41Z</time>
      </trkpt>
      <trkpt lat="43.61406" lon="3.80374">
        <ele>60.3</ele>
        <time>2021-02-07T12:21:42Z</time>
      </trkpt>
      <trkpt lat="43.61405" lon="3.80371">
        <ele>59</ele>
        <time>2021-02-07T12:21:43Z</time>
      </trkpt>
      <trkpt lat="43.61406" lon="3.80367">
        <ele>60.6</ele>
        <time>2021-02-07T12:21:44Z</time>
      </trkpt>
      <trkpt lat="43.61406" lon="3.80362">
        <ele>60.7</ele>
        <time>2021-02-07T12:21:45Z</time>
      </trkpt>
      <trkpt lat="43.61406" lon="3.80358">
        <ele>60.8</ele>
        <time>2021-02-07T12:21:46Z</time>
      </trkpt>
      <trkpt lat="43.61406" lon="3.80354">
        <ele>60.8</ele>
        <time>2021-02-07T12:21:47Z</time>
      </trkpt>
      <trkpt lat="43.61407" lon="3.8035">
        <ele>60.7</ele>
        <time>2021-02-07T12:21:48Z</time>
      </trkpt>
      <trkpt lat="43.61407" lon="3.80346">
        <ele>60.7</ele>
        <time>2021-02-07T12:21:49Z</time>
      </trkpt>
      <trkpt lat="43.61408" lon="3.80342">
        <ele>60.6</ele>
        <time>2021-02-07T12:21:50Z</time>
      </trkpt>
      <trkpt lat="43.61408" lon="3.80338">
        <ele>60.6</ele>
        <time>2021-02-07T12:21:51Z</time>
      </trkpt>
      <trkpt lat="43.61409" lon="3.80333">
        <ele>60.6</ele>
        <time>2021-02-07T12:21:52Z</time>
      </trkpt>
      <trkpt lat="43.61409" lon="3.80329">
        <ele>60.7</ele>
        <time>2021-02-07T12:21:53Z</time>
      </trkpt>
      <trkpt lat="43.61409" lon="3.80325">
        <ele>61</ele>
        <time>2021-02-07T12:21:54Z</time>
      </trkpt>
      <trkpt lat="43.6141" lon="3.80321">
        <ele>60.8</ele>
        <time>2021-02-07T12:21:55Z</time>
      </trkpt>
      <trkpt lat="43.6141" lon="3.80317">
        <ele>60.9</ele>
        <time>2021-02-07T12:21:56Z</time>
      </trkpt>
      <trkpt lat="43.6141" lon="3.80312">
        <ele>61.1</ele>
        <time>2021-02-07T12:21:57Z</time>
      </trkpt>
      <trkpt lat="43.6141" lon="3.80308">
        <ele>61.2</ele>
        <time>2021-02-07T12:21:58Z</time>
      </trkpt>
      <trkpt lat="43.61411" lon="3.80304">
        <ele>61.2</ele>
        <time>2021-02-07T12:21:59Z</time>
      </trkpt>
      <trkpt lat="43.61411" lon="3.803">
        <ele>61.2</ele>
        <time>2021-02-07T12:22:00Z</time>
      </trkpt>
      <trkpt lat="43.61411" lon="3.80295">
        <ele>61.3</ele>
        <time>2021-02-07T12:22:01Z</time>
      </trkpt>
      <trkpt lat="43.61412" lon="3.80291">
        <ele>61.3</ele>
        <time>2021-02-07T12:22:02Z</time>
      </trkpt>
      <trkpt lat="43.61412" lon="3.80287">
        <ele>62</ele>
        <time>2021-02-07T12:22:03Z</time>
      </trkpt>
      <trkpt lat="43.61413" lon="3.80283">
        <ele>61.2</ele>
        <time>2021-02-07T12:22:04Z</time>
      </trkpt>
      <trkpt lat="43.61413" lon="3.80279">
        <ele>61.3</ele>
        <time>2021-02-07T12:22:05Z</time>
      </trkpt>
      <trkpt lat="43.61414" lon="3.80275">
        <ele>61.3</ele>
        <time>2021-02-07T12:22:06Z</time>
      </trkpt>
      <trkpt lat="43.61414" lon="3.8027">
        <ele>61.4</ele>
        <time>2021-02-07T12:22:07Z</time>
      </trkpt>
      <trkpt lat="43.61414" lon="3.80266">
        <ele>61.6</ele>
        <time>2021-02-07T12:22:08Z</time>
      </trkpt>
      <trkpt lat="43.61415" lon="3.80262">
        <ele>61.7</ele>
        <time>2021-02-07T12:22:09Z</time>
      </trkpt>
      <trkpt lat="43.61415" lon="3.80258">
        <ele>61.8</ele>
        <time>2021-02-07T12:22:10Z</time>
      </trkpt>
      <trkpt lat="43.61416" lon="3.80254">
        <ele>61.9</ele>
        <time>2021-02-07T12:22:11Z</time>
      </trkpt>
      <trkpt lat="43.61416" lon="3.8025">
        <ele>62</ele>
        <time>2021-02-07T12:22:12Z</time>
      </trkpt>
      <trkpt lat="43.61417" lon="3.80246">
        <ele>63</ele>
        <time>2021-02-07T12:22:13Z</time>
      </trkpt>
      <trkpt lat="43.61418" lon="3.80242">
        <ele>62.3</ele>
        <time>2021-02-07T12:22:14Z</time>
      </trkpt>
      <trkpt lat="43.61419" lon="3.80237">
        <ele>62.4</ele>
        <time>2021-02-07T12:22:15Z</time>
      </trkpt>
      <trkpt lat="43.61419" lon="3.80233">
        <ele>62.6</ele>
        <time>2021-02-07T12:22:16Z</time>
      </trkpt>
      <trkpt lat="43.6142" lon="3.80229">
        <ele>62.7</ele>
        <time>2021-02-07T12:22:17Z</time>
      </trkpt>
      <trkpt lat="43.6142" lon="3.80225">
        <ele>62.8</ele>
        <time>2021-02-07T12:22:18Z</time>
      </trkpt>
      <trkpt lat="43.61421" lon="3.80221">
        <ele>62.9</ele>
        <time>2021-02-07T12:22:19Z</time>
      </trkpt>
      <trkpt lat="43.61422" lon="3.80216">
        <ele>62.9</ele>
        <time>2021-02-07T12:22:20Z</time>
      </trkpt>
      <trkpt lat="43.61423" lon="3.80212">
        <ele>62.9</ele>
        <time>2021-02-07T12:22:21Z</time>
      </trkpt>
      <trkpt lat="43.61424" lon="3.80208">
        <ele>62.9</ele>
        <time>2021-02-07T12:22:22Z</time>
      </trkpt>
      <trkpt lat="43.61424" lon="3.80204">
        <ele>62.9</ele>
        <time>2021-02-07T12:22:23Z</time>
      </trkpt>
      <trkpt lat="43.61425" lon="3.802">
        <ele>65</ele>
        <time>2021-02-07T12:22:24Z</time>
      </trkpt>
      <trkpt lat="43.61425" lon="3.80196">
        <ele>63</ele>
        <time>2021-02-07T12:22:25Z</time>
      </trkpt>
      <trkpt lat="43.61426" lon="3.80192">
        <ele>63.1</ele>
        <time>2021-02-07T12:22:26Z</time>
      </trkpt>
      <trkpt lat="43.61426" lon="3.80187">
        <ele>63.3</ele>
        <time>2021-02-07T12:22:27Z</time>
      </trkpt>
      <trkpt lat="43.61427" lon="3.80183">
        <ele>63.4</ele>
        <time>2021-02-07T12:22:28Z</time>
      </trkpt>
      <trkpt lat="43.61427" lon="3.80179">
        <ele>63.6</ele>
        <time>2021-02-07T12:22:29Z</time>
      </trkpt>
      <trkpt lat="43.61428" lon="3.80175">
        <ele>63.7</ele>
        <time>2021-02-07T12:22:30Z</time>
      </trkpt>
      <trkpt lat="43.61429" lon="3.8017">
        <ele>63.9</ele>
        <time>2021-02-07T12:22:31Z</time>
      </trkpt>
      <trkpt lat="43.6143" lon="3.80166">
        <ele>64</ele>
        <time>2021-02-07T12:22:32Z</time>
      </trkpt>
      <trkpt lat="43.61431" lon="3.80162">
        <ele>65</ele>
        <time>2021-02-07T12:22:33Z</time>
      </trkpt>
      <trkpt lat="43.61432" lon="3.80158">
        <ele>64</ele>
        <time>2021-02-07T12:22:34Z</time>
      </trkpt>
      <trkpt lat="43.61433" lon="3.80153">
        <ele>64</ele>
        <time>2021-02-07T12:22:35Z</time>
      </trkpt>
      <trkpt lat="43.61434" lon="3.80149">
        <ele>64</ele>
        <time>2021-02-07T12:22:36Z</time>
      </trkpt>
      <trkpt lat="43.61435" lon="3.80145">
        <ele>64</ele>
        <time>2021-02-07T12:22:37Z</time>
      </trkpt>
      <trkpt lat="43.61436" lon="3.80141">
        <ele>64</ele>
        <time>2021-02-07T12:22:38Z</time>
      </trkpt>
      <trkpt lat="43.61436" lon="3.80137">
        <ele>64</ele>
        <time>2021-02-07T12:22:39Z</time>
      </trkpt>
      <trkpt lat="43.61437" lon="3.80132">
        <ele>64.2</ele>
        <time>2021-02-07T12:22:40Z</time>
      </trkpt>
      <trkpt lat="43.61438" lon="3.80128">
        <ele>64.3</ele>
        <time>2021-02-07T12:22:41Z</time>
      </trkpt>
      <trkpt lat="43.61439" lon="3.80124">
        <ele>64.4</ele>
        <time>2021-02-07T12:22:42Z</time>
      </trkpt>
      <trkpt lat="43.6144" lon="3.8012">
        <ele>66</ele>
        <time>2021-02-07T12:22:43Z</time>
      </trkpt>
      <trkpt lat="43.61441" lon="3.80115">
        <ele>64.8</ele>
        <time>2021-02-07T12:22:44Z</time>
      </trkpt>
      <trkpt lat="43.61442" lon="3.80111">
        <ele>64.9</ele>
        <time>2021-02-07T12:22:45Z</time>
      </trkpt>
      <trkpt lat="43.61444" lon="3.80107">
        <ele>65</ele>
        <time>2021-02-07T12:22:46Z</time>
      </trkpt>
      <trkpt lat="43.61445" lon="3.80103">
        <ele>65</ele>
        <time>2021-02-07T12:22:47Z</time>
      </trkpt>
      <trkpt lat="43.61446" lon="3.80099">
        <ele>65</ele>
        <time>2021-02-07T12:22:48Z</time>
      </trkpt>
      <trkpt lat="43.61447" lon="3.80095">
        <ele>65.1</ele>
        <time>2021-02-07T12:22:49Z</time>
      </trkpt>
      <trkpt lat="43.61448" lon="3.80091">
        <ele>65.1</ele>
        <time>2021-02-07T12:22:50Z</time>
      </trkpt>
      <trkpt lat="43.61449" lon="3.80087">
        <ele>65.1</ele>
        <time>2021-02-07T12:22:51Z</time>
      </trkpt>
      <trkpt lat="43.6145" lon="3.80083">
        <ele>65.2</ele>
        <time>2021-02-07T12:22:52Z</time>
      </trkpt>
      <trkpt lat="43.61451" lon="3.80078">
        <ele>65.4</ele>
        <time>2021-02-07T12:22:53Z</time>
      </trkpt>
      <trkpt lat="43.61452" lon="3.80074">
        <ele>66</ele>
        <time>2021-02-07T12:22:54Z</time>
      </trkpt>
      <trkpt lat="43.61453" lon="3.8007">
        <ele>65.6</ele>
        <time>2021-02-07T12:22:55Z</time>
      </trkpt>
      <trkpt lat="43.61454" lon="3.80066">
        <ele>65.8</ele>
        <time>2021-02-07T12:22:56Z</time>
      </trkpt>
      <trkpt lat="43.61456" lon="3.80063">
        <ele>65.8</ele>
        <time>2021-02-07T12:22:57Z</time>
      </trkpt>
      <trkpt lat="43.61459" lon="3.8006">
        <ele>65.9</ele>
        <time>2021-02-07T12:22:58Z</time>
      </trkpt>
      <trkpt lat="43.61462" lon="3.80059">
        <ele>66</ele>
        <time>2021-02-07T12:22:59Z</time>
      </trkpt>
      <trkpt lat="43.61465" lon="3.80058">
        <ele>66</ele>
        <time>2021-02-07T12:23:00Z</time>
      </trkpt>
      <trkpt lat="43.61467" lon="3.80055">
        <ele>66</ele>
        <time>2021-02-07T12:23:01Z</time>
      </trkpt>
      <trkpt lat="43.61467" lon="3.80047">
        <ele>66.3</ele>
        <time>2021-02-07T12:23:02Z</time>
      </trkpt>
      <trkpt lat="43.61465" lon="3.80043">
        <ele>66.3</ele>
        <time>2021-02-07T12:23:04Z</time>
      </trkpt>
      <trkpt lat="43.61464" lon="3.8004">
        <ele>66.4</ele>
        <time>2021-02-07T12:23:05Z</time>
      </trkpt>
      <trkpt lat="43.61462" lon="3.80037">
        <ele>66.4</ele>
        <time>2021-02-07T12:23:06Z</time>
      </trkpt>
      <trkpt lat="43.6146" lon="3.80034">
        <ele>66.4</ele>
        <time>2021-02-07T12:23:07Z</time>
      </trkpt>
      <trkpt lat="43.61457" lon="3.80032">
        <ele>66.4</ele>
        <time>2021-02-07T12:23:08Z</time>
      </trkpt>
      <trkpt lat="43.61455" lon="3.8003">
        <ele>66.3</ele>
        <time>2021-02-07T12:23:09Z</time>
      </trkpt>
      <trkpt lat="43.61452" lon="3.8003">
        <ele>66.3</ele>
        <time>2021-02-07T12:23:10Z</time>
      </trkpt>
      <trkpt lat="43.61449" lon="3.80029">
        <ele>66.2</ele>
        <time>2021-02-07T12:23:11Z</time>
      </trkpt>
      <trkpt lat="43.61446" lon="3.80027">
        <ele>66.1</ele>
        <time>2021-02-07T12:23:12Z</time>
      </trkpt>
      <trkpt lat="43.61444" lon="3.80026">
        <ele>66</ele>
        <time>2021-02-07T12:23:13Z</time>
      </trkpt>
      <trkpt lat="43.61442" lon="3.80024">
        <ele>65.8</ele>
        <time>2021-02-07T12:23:14Z</time>
      </trkpt>
      <trkpt lat="43.6144" lon="3.8002">
        <ele>65.7</ele>
        <time>2021-02-07T12:23:15Z</time>
      </trkpt>
      <trkpt lat="43.61438" lon="3.80015">
        <ele>65.5</ele>
        <time>2021-02-07T12:23:16Z</time>
      </trkpt>
      <trkpt lat="43.61436" lon="3.80009">
        <ele>65.4</ele>
        <time>2021-02-07T12:23:17Z</time>
      </trkpt>
      <trkpt lat="43.61435" lon="3.80003">
        <ele>65.3</ele>
        <time>2021-02-07T12:23:18Z</time>
      </trkpt>
      <trkpt lat="43.61434" lon="3.79997">
        <ele>65.2</ele>
        <time>2021-02-07T12:23:19Z</time>
      </trkpt>
      <trkpt lat="43.61433" lon="3.79992">
        <ele>64.9</ele>
        <time>2021-02-07T12:23:20Z</time>
      </trkpt>
      <trkpt lat="43.61431" lon="3.79986">
        <ele>64.5</ele>
        <time>2021-02-07T12:23:21Z</time>
      </trkpt>
      <trkpt lat="43.61429" lon="3.7998">
        <ele>64.1</ele>
        <time>2021-02-07T12:23:22Z</time>
      </trkpt>
      <trkpt lat="43.61427" lon="3.79973">
        <ele>63</ele>
        <time>2021-02-07T12:23:23Z</time>
      </trkpt>
      <trkpt lat="43.61424" lon="3.79966">
        <ele>63</ele>
        <time>2021-02-07T12:23:24Z</time>
      </trkpt>
      <trkpt lat="43.6142" lon="3.79959">
        <ele>62.4</ele>
        <time>2021-02-07T12:23:25Z</time>
      </trkpt>
      <trkpt lat="43.61417" lon="3.79953">
        <ele>62</ele>
        <time>2021-02-07T12:23:26Z</time>
      </trkpt>
      <trkpt lat="43.61414" lon="3.79946">
        <ele>62.3</ele>
        <time>2021-02-07T12:23:27Z</time>
      </trkpt>
      <trkpt lat="43.61411" lon="3.79939">
        <ele>63</ele>
        <time>2021-02-07T12:23:28Z</time>
      </trkpt>
      <trkpt lat="43.61409" lon="3.79933">
        <ele>63.5</ele>
        <time>2021-02-07T12:23:29Z</time>
      </trkpt>
      <trkpt lat="43.61406" lon="3.79928">
        <ele>63.8</ele>
        <time>2021-02-07T12:23:30Z</time>
      </trkpt>
      <trkpt lat="43.61404" lon="3.79923">
        <ele>63.9</ele>
        <time>2021-02-07T12:23:31Z</time>
      </trkpt>
      <trkpt lat="43.61401" lon="3.79919">
        <ele>63.9</ele>
        <time>2021-02-07T12:23:32Z</time>
      </trkpt>
      <trkpt lat="43.61399" lon="3.79915">
        <ele>64</ele>
        <time>2021-02-07T12:23:33Z</time>
      </trkpt>
      <trkpt lat="43.61395" lon="3.79908">
        <ele>63.3</ele>
        <time>2021-02-07T12:23:34Z</time>
      </trkpt>
      <trkpt lat="43.61393" lon="3.79905">
        <ele>63.2</ele>
        <time>2021-02-07T12:23:35Z</time>
      </trkpt>
      <trkpt lat="43.61392" lon="3.79902">
        <ele>63.1</ele>
        <time>2021-02-07T12:23:36Z</time>
      </trkpt>
      <trkpt lat="43.6139" lon="3.79899">
        <ele>63</ele>
        <time>2021-02-07T12:23:38Z</time>
      </trkpt>
      <trkpt lat="43.61389" lon="3.79896">
        <ele>63</ele>
        <time>2021-02-07T12:23:39Z</time>
      </trkpt>
      <trkpt lat="43.61387" lon="3.79893">
        <ele>63.1</ele>
        <time>2021-02-07T12:23:40Z</time>
      </trkpt>
      <trkpt lat="43.61386" lon="3.79891">
        <ele>63.1</ele>
        <time>2021-02-07T12:23:41Z</time>
      </trkpt>
      <trkpt lat="43.61386" lon="3.79888">
        <ele>63.1</ele>
        <time>2021-02-07T12:23:42Z</time>
      </trkpt>
      <trkpt lat="43.61386" lon="3.79885">
        <ele>65</ele>
        <time>2021-02-07T12:23:43Z</time>
      </trkpt>
      <trkpt lat="43.61385" lon="3.79882">
        <ele>62.9</ele>
        <time>2021-02-07T12:23:44Z</time>
      </trkpt>
      <trkpt lat="43.61385" lon="3.79879">
        <ele>62.8</ele>
        <time>2021-02-07T12:23:45Z</time>
      </trkpt>
      <trkpt lat="43.61384" lon="3.79876">
        <ele>62.8</ele>
        <time>2021-02-07T12:23:46Z</time>
      </trkpt>
      <trkpt lat="43.61384" lon="3.79874">
        <ele>62.7</ele>
        <time>2021-02-07T12:23:47Z</time>
      </trkpt>
      <trkpt lat="43.61383" lon="3.7987">
        <ele>62.7</ele>
        <time>2021-02-07T12:23:48Z</time>
      </trkpt>
      <trkpt lat="43.61384" lon="3.79867">
        <ele>62.5</ele>
        <time>2021-02-07T12:23:49Z</time>
      </trkpt>
      <trkpt lat="43.61385" lon="3.79863">
        <ele>62.3</ele>
        <time>2021-02-07T12:23:50Z</time>
      </trkpt>
      <trkpt lat="43.61386" lon="3.7986">
        <ele>62.2</ele>
        <time>2021-02-07T12:23:51Z</time>
      </trkpt>
      <trkpt lat="43.61387" lon="3.79857">
        <ele>62.1</ele>
        <time>2021-02-07T12:23:52Z</time>
      </trkpt>
      <trkpt lat="43.61389" lon="3.79854">
        <ele>65</ele>
        <time>2021-02-07T12:23:53Z</time>
      </trkpt>
      <trkpt lat="43.6139" lon="3.7985">
        <ele>62</ele>
        <time>2021-02-07T12:23:54Z</time>
      </trkpt>
      <trkpt lat="43.61391" lon="3.79847">
        <ele>62</ele>
        <time>2021-02-07T12:23:55Z</time>
      </trkpt>
      <trkpt lat="43.61392" lon="3.79842">
        <ele>61.9</ele>
        <time>2021-02-07T12:23:56Z</time>
      </trkpt>
      <trkpt lat="43.61393" lon="3.79837">
        <ele>61.9</ele>
        <time>2021-02-07T12:23:57Z</time>
      </trkpt>
      <trkpt lat="43.61394" lon="3.79832">
        <ele>61.8</ele>
        <time>2021-02-07T12:23:58Z</time>
      </trkpt>
      <trkpt lat="43.61395" lon="3.79826">
        <ele>61.5</ele>
        <time>2021-02-07T12:23:59Z</time>
      </trkpt>
      <trkpt lat="43.61395" lon="3.79822">
        <ele>61.4</ele>
        <time>2021-02-07T12:24:00Z</time>
      </trkpt>
      <trkpt lat="43.61396" lon="3.79817">
        <ele>61.2</ele>
        <time>2021-02-07T12:24:01Z</time>
      </trkpt>
      <trkpt lat="43.61396" lon="3.79811">
        <ele>60.9</ele>
        <time>2021-02-07T12:24:02Z</time>
      </trkpt>
      <trkpt lat="43.61396" lon="3.79804">
        <ele>60.7</ele>
        <time>2021-02-07T12:24:03Z</time>
      </trkpt>
      <trkpt lat="43.61397" lon="3.79797">
        <ele>64</ele>
        <time>2021-02-07T12:24:04Z</time>
      </trkpt>
      <trkpt lat="43.61399" lon="3.7979">
        <ele>60.3</ele>
        <time>2021-02-07T12:24:05Z</time>
      </trkpt>
      <trkpt lat="43.614" lon="3.79783">
        <ele>60.1</ele>
        <time>2021-02-07T12:24:06Z</time>
      </trkpt>
      <trkpt lat="43.61402" lon="3.79776">
        <ele>59.9</ele>
        <time>2021-02-07T12:24:07Z</time>
      </trkpt>
      <trkpt lat="43.61405" lon="3.79769">
        <ele>59.5</ele>
        <time>2021-02-07T12:24:08Z</time>
      </trkpt>
      <trkpt lat="43.61407" lon="3.79761">
        <ele>59</ele>
        <time>2021-02-07T12:24:09Z</time>
      </trkpt>
      <trkpt lat="43.61409" lon="3.79754">
        <ele>58.5</ele>
        <time>2021-02-07T12:24:10Z</time>
      </trkpt>
      <trkpt lat="43.61411" lon="3.79747">
        <ele>58.1</ele>
        <time>2021-02-07T12:24:11Z</time>
      </trkpt>
      <trkpt lat="43.61414" lon="3.79735">
        <ele>57.6</ele>
        <time>2021-02-07T12:24:12Z</time>
      </trkpt>
      <trkpt lat="43.61416" lon="3.79729">
        <ele>57.3</ele>
        <time>2021-02-07T12:24:14Z</time>
      </trkpt>
      <trkpt lat="43.61417" lon="3.79724">
        <ele>57.1</ele>
        <time>2021-02-07T12:24:15Z</time>
      </trkpt>
      <trkpt lat="43.61419" lon="3.79718">
        <ele>57.1</ele>
        <time>2021-02-07T12:24:16Z</time>
      </trkpt>
      <trkpt lat="43.6142" lon="3.79712">
        <ele>57.1</ele>
        <time>2021-02-07T12:24:17Z</time>
      </trkpt>
      <trkpt lat="43.61422" lon="3.79706">
        <ele>57.2</ele>
        <time>2021-02-07T12:24:18Z</time>
      </trkpt>
      <trkpt lat="43.61424" lon="3.797">
        <ele>57.3</ele>
        <time>2021-02-07T12:24:19Z</time>
      </trkpt>
      <trkpt lat="43.61426" lon="3.79693">
        <ele>57.2</ele>
        <time>2021-02-07T12:24:20Z</time>
      </trkpt>
      <trkpt lat="43.61428" lon="3.79687">
        <ele>56.9</ele>
        <time>2021-02-07T12:24:21Z</time>
      </trkpt>
      <trkpt lat="43.6143" lon="3.7968">
        <ele>56.4</ele>
        <time>2021-02-07T12:24:22Z</time>
      </trkpt>
      <trkpt lat="43.61432" lon="3.79673">
        <ele>60</ele>
        <time>2021-02-07T12:24:23Z</time>
      </trkpt>
      <trkpt lat="43.61434" lon="3.79666">
        <ele>55.6</ele>
        <time>2021-02-07T12:24:24Z</time>
      </trkpt>
      <trkpt lat="43.61437" lon="3.79659">
        <ele>55.2</ele>
        <time>2021-02-07T12:24:25Z</time>
      </trkpt>
      <trkpt lat="43.61439" lon="3.79652">
        <ele>54.7</ele>
        <time>2021-02-07T12:24:26Z</time>
      </trkpt>
      <trkpt lat="43.61442" lon="3.79646">
        <ele>54.4</ele>
        <time>2021-02-07T12:24:27Z</time>
      </trkpt>
      <trkpt lat="43.61444" lon="3.79639">
        <ele>54</ele>
        <time>2021-02-07T12:24:28Z</time>
      </trkpt>
      <trkpt lat="43.61445" lon="3.79632">
        <ele>53.8</ele>
        <time>2021-02-07T12:24:29Z</time>
      </trkpt>
      <trkpt lat="43.61446" lon="3.79624">
        <ele>53.5</ele>
        <time>2021-02-07T12:24:30Z</time>
      </trkpt>
      <trkpt lat="43.61447" lon="3.79617">
        <ele>53.3</ele>
        <time>2021-02-07T12:24:31Z</time>
      </trkpt>
      <trkpt lat="43.61448" lon="3.7961">
        <ele>53.1</ele>
        <time>2021-02-07T12:24:32Z</time>
      </trkpt>
      <trkpt lat="43.6145" lon="3.79603">
        <ele>59</ele>
        <time>2021-02-07T12:24:33Z</time>
      </trkpt>
      <trkpt lat="43.61451" lon="3.79596">
        <ele>53.2</ele>
        <time>2021-02-07T12:24:34Z</time>
      </trkpt>
      <trkpt lat="43.61452" lon="3.7959">
        <ele>53.3</ele>
        <time>2021-02-07T12:24:35Z</time>
      </trkpt>
      <trkpt lat="43.61453" lon="3.79583">
        <ele>53.3</ele>
        <time>2021-02-07T12:24:36Z</time>
      </trkpt>
      <trkpt lat="43.61454" lon="3.79577">
        <ele>53.1</ele>
        <time>2021-02-07T12:24:37Z</time>
      </trkpt>
      <trkpt lat="43.61455" lon="3.7957">
        <ele>52.9</ele>
        <time>2021-02-07T12:24:38Z</time>
      </trkpt>
      <trkpt lat="43.61455" lon="3.79564">
        <ele>52.7</ele>
        <time>2021-02-07T12:24:39Z</time>
      </trkpt>
      <trkpt lat="43.61455" lon="3.79558">
        <ele>52.5</ele>
        <time>2021-02-07T12:24:40Z</time>
      </trkpt>
      <trkpt lat="43.61455" lon="3.79552">
        <ele>52.4</ele>
        <time>2021-02-07T12:24:41Z</time>
      </trkpt>
      <trkpt lat="43.61455" lon="3.79546">
        <ele>52.4</ele>
        <time>2021-02-07T12:24:42Z</time>
      </trkpt>
      <trkpt lat="43.61455" lon="3.79535">
        <ele>57</ele>
        <time>2021-02-07T12:24:43Z</time>
      </trkpt>
      <trkpt lat="43.61456" lon="3.79529">
        <ele>52.4</ele>
        <time>2021-02-07T12:24:44Z</time>
      </trkpt>
      <trkpt lat="43.61456" lon="3.79523">
        <ele>52.4</ele>
        <time>2021-02-07T12:24:45Z</time>
      </trkpt>
      <trkpt lat="43.61456" lon="3.79517">
        <ele>52.4</ele>
        <time>2021-02-07T12:24:46Z</time>
      </trkpt>
      <trkpt lat="43.61457" lon="3.79511">
        <ele>52.5</ele>
        <time>2021-02-07T12:24:48Z</time>
      </trkpt>
      <trkpt lat="43.61457" lon="3.79506">
        <ele>52.5</ele>
        <time>2021-02-07T12:24:49Z</time>
      </trkpt>
      <trkpt lat="43.61457" lon="3.79501">
        <ele>52.5</ele>
        <time>2021-02-07T12:24:50Z</time>
      </trkpt>
      <trkpt lat="43.61458" lon="3.79496">
        <ele>52.5</ele>
        <time>2021-02-07T12:24:51Z</time>
      </trkpt>
      <trkpt lat="43.61458" lon="3.79486">
        <ele>52.5</ele>
        <time>2021-02-07T12:24:52Z</time>
      </trkpt>
      <trkpt lat="43.61459" lon="3.79481">
        <ele>52.5</ele>
        <time>2021-02-07T12:24:54Z</time>
      </trkpt>
      <trkpt lat="43.61459" lon="3.79476">
        <ele>52.5</ele>
        <time>2021-02-07T12:24:55Z</time>
      </trkpt>
      <trkpt lat="43.61459" lon="3.79472">
        <ele>52.5</ele>
        <time>2021-02-07T12:24:56Z</time>
      </trkpt>
      <trkpt lat="43.6146" lon="3.79467">
        <ele>52.5</ele>
        <time>2021-02-07T12:24:57Z</time>
      </trkpt>
      <trkpt lat="43.6146" lon="3.79462">
        <ele>52.4</ele>
        <time>2021-02-07T12:24:58Z</time>
      </trkpt>
      <trkpt lat="43.6146" lon="3.79458">
        <ele>52.3</ele>
        <time>2021-02-07T12:24:59Z</time>
      </trkpt>
      <trkpt lat="43.61461" lon="3.79454">
        <ele>52.3</ele>
        <time>2021-02-07T12:25:00Z</time>
      </trkpt>
      <trkpt lat="43.61461" lon="3.7945">
        <ele>52.3</ele>
        <time>2021-02-07T12:25:01Z</time>
      </trkpt>
      <trkpt lat="43.61462" lon="3.79446">
        <ele>52.3</ele>
        <time>2021-02-07T12:25:02Z</time>
      </trkpt>
      <trkpt lat="43.61462" lon="3.79441">
        <ele>56</ele>
        <time>2021-02-07T12:25:03Z</time>
      </trkpt>
      <trkpt lat="43.61463" lon="3.79437">
        <ele>52.5</ele>
        <time>2021-02-07T12:25:04Z</time>
      </trkpt>
      <trkpt lat="43.61463" lon="3.79433">
        <ele>52.6</ele>
        <time>2021-02-07T12:25:05Z</time>
      </trkpt>
      <trkpt lat="43.61464" lon="3.79428">
        <ele>52.8</ele>
        <time>2021-02-07T12:25:06Z</time>
      </trkpt>
      <trkpt lat="43.61465" lon="3.79424">
        <ele>52.9</ele>
        <time>2021-02-07T12:25:07Z</time>
      </trkpt>
      <trkpt lat="43.61465" lon="3.7942">
        <ele>52.9</ele>
        <time>2021-02-07T12:25:08Z</time>
      </trkpt>
      <trkpt lat="43.61466" lon="3.79415">
        <ele>53</ele>
        <time>2021-02-07T12:25:09Z</time>
      </trkpt>
      <trkpt lat="43.61466" lon="3.7941">
        <ele>52.9</ele>
        <time>2021-02-07T12:25:10Z</time>
      </trkpt>
      <trkpt lat="43.61467" lon="3.79405">
        <ele>52.7</ele>
        <time>2021-02-07T12:25:11Z</time>
      </trkpt>
      <trkpt lat="43.61468" lon="3.794">
        <ele>52.6</ele>
        <time>2021-02-07T12:25:12Z</time>
      </trkpt>
      <trkpt lat="43.61469" lon="3.79396">
        <ele>56</ele>
        <time>2021-02-07T12:25:13Z</time>
      </trkpt>
      <trkpt lat="43.6147" lon="3.79391">
        <ele>52.2</ele>
        <time>2021-02-07T12:25:14Z</time>
      </trkpt>
      <trkpt lat="43.61472" lon="3.79386">
        <ele>52</ele>
        <time>2021-02-07T12:25:15Z</time>
      </trkpt>
      <trkpt lat="43.61473" lon="3.79381">
        <ele>52.1</ele>
        <time>2021-02-07T12:25:16Z</time>
      </trkpt>
      <trkpt lat="43.61475" lon="3.79377">
        <ele>52.2</ele>
        <time>2021-02-07T12:25:17Z</time>
      </trkpt>
      <trkpt lat="43.61476" lon="3.79372">
        <ele>52.3</ele>
        <time>2021-02-07T12:25:18Z</time>
      </trkpt>
      <trkpt lat="43.61478" lon="3.79368">
        <ele>52.4</ele>
        <time>2021-02-07T12:25:19Z</time>
      </trkpt>
      <trkpt lat="43.61479" lon="3.79363">
        <ele>52.5</ele>
        <time>2021-02-07T12:25:20Z</time>
      </trkpt>
      <trkpt lat="43.61481" lon="3.79358">
        <ele>52.7</ele>
        <time>2021-02-07T12:25:21Z</time>
      </trkpt>
      <trkpt lat="43.61482" lon="3.79353">
        <ele>52.9</ele>
        <time>2021-02-07T12:25:22Z</time>
      </trkpt>
      <trkpt lat="43.61484" lon="3.79349">
        <ele>55</ele>
        <time>2021-02-07T12:25:23Z</time>
      </trkpt>
      <trkpt lat="43.61485" lon="3.79344">
        <ele>53.3</ele>
        <time>2021-02-07T12:25:24Z</time>
      </trkpt>
      <trkpt lat="43.61487" lon="3.79339">
        <ele>53.4</ele>
        <time>2021-02-07T12:25:25Z</time>
      </trkpt>
      <trkpt lat="43.61488" lon="3.79335">
        <ele>53.5</ele>
        <time>2021-02-07T12:25:26Z</time>
      </trkpt>
      <trkpt lat="43.6149" lon="3.7933">
        <ele>53.7</ele>
        <time>2021-02-07T12:25:27Z</time>
      </trkpt>
      <trkpt lat="43.61491" lon="3.79325">
        <ele>53.8</ele>
        <time>2021-02-07T12:25:28Z</time>
      </trkpt>
      <trkpt lat="43.61493" lon="3.79321">
        <ele>53.9</ele>
        <time>2021-02-07T12:25:29Z</time>
      </trkpt>
      <trkpt lat="43.61494" lon="3.79316">
        <ele>53.9</ele>
        <time>2021-02-07T12:25:30Z</time>
      </trkpt>
      <trkpt lat="43.61496" lon="3.79312">
        <ele>54</ele>
        <time>2021-02-07T12:25:31Z</time>
      </trkpt>
      <trkpt lat="43.61497" lon="3.79307">
        <ele>54</ele>
        <time>2021-02-07T12:25:32Z</time>
      </trkpt>
      <trkpt lat="43.61498" lon="3.79303">
        <ele>56</ele>
        <time>2021-02-07T12:25:33Z</time>
      </trkpt>
      <trkpt lat="43.615" lon="3.79298">
        <ele>53.7</ele>
        <time>2021-02-07T12:25:34Z</time>
      </trkpt>
      <trkpt lat="43.61501" lon="3.79294">
        <ele>53.6</ele>
        <time>2021-02-07T12:25:35Z</time>
      </trkpt>
      <trkpt lat="43.61502" lon="3.79289">
        <ele>53.6</ele>
        <time>2021-02-07T12:25:36Z</time>
      </trkpt>
      <trkpt lat="43.61504" lon="3.79285">
        <ele>53.6</ele>
        <time>2021-02-07T12:25:37Z</time>
      </trkpt>
      <trkpt lat="43.61505" lon="3.7928">
        <ele>53.6</ele>
        <time>2021-02-07T12:25:38Z</time>
      </trkpt>
      <trkpt lat="43.61507" lon="3.79275">
        <ele>53.8</ele>
        <time>2021-02-07T12:25:39Z</time>
      </trkpt>
      <trkpt lat="43.61508" lon="3.79271">
        <ele>54</ele>
        <time>2021-02-07T12:25:40Z</time>
      </trkpt>
      <trkpt lat="43.6151" lon="3.79266">
        <ele>54.2</ele>
        <time>2021-02-07T12:25:41Z</time>
      </trkpt>
      <trkpt lat="43.61511" lon="3.79261">
        <ele>54.3</ele>
        <time>2021-02-07T12:25:42Z</time>
      </trkpt>
      <trkpt lat="43.61512" lon="3.79257">
        <ele>56</ele>
        <time>2021-02-07T12:25:43Z</time>
      </trkpt>
      <trkpt lat="43.61513" lon="3.79253">
        <ele>54.5</ele>
        <time>2021-02-07T12:25:44Z</time>
      </trkpt>
      <trkpt lat="43.61515" lon="3.79248">
        <ele>54.6</ele>
        <time>2021-02-07T12:25:45Z</time>
      </trkpt>
      <trkpt lat="43.61516" lon="3.79244">
        <ele>54.9</ele>
        <time>2021-02-07T12:25:46Z</time>
      </trkpt>
      <trkpt lat="43.61518" lon="3.7924">
        <ele>55.1</ele>
        <time>2021-02-07T12:25:47Z</time>
      </trkpt>
      <trkpt lat="43.61519" lon="3.79235">
        <ele>55.4</ele>
        <time>2021-02-07T12:25:48Z</time>
      </trkpt>
      <trkpt lat="43.6152" lon="3.79231">
        <ele>55.6</ele>
        <time>2021-02-07T12:25:49Z</time>
      </trkpt>
      <trkpt lat="43.61521" lon="3.79227">
        <ele>55.8</ele>
        <time>2021-02-07T12:25:50Z</time>
      </trkpt>
      <trkpt lat="43.61522" lon="3.79223">
        <ele>56</ele>
        <time>2021-02-07T12:25:51Z</time>
      </trkpt>
      <trkpt lat="43.61523" lon="3.79219">
        <ele>55.8</ele>
        <time>2021-02-07T12:25:52Z</time>
      </trkpt>
      <trkpt lat="43.61524" lon="3.79214">
        <ele>56</ele>
        <time>2021-02-07T12:25:53Z</time>
      </trkpt>
      <trkpt lat="43.61525" lon="3.7921">
        <ele>55.3</ele>
        <time>2021-02-07T12:25:54Z</time>
      </trkpt>
      <trkpt lat="43.61526" lon="3.79206">
        <ele>54.9</ele>
        <time>2021-02-07T12:25:55Z</time>
      </trkpt>
      <trkpt lat="43.61527" lon="3.79202">
        <ele>54.6</ele>
        <time>2021-02-07T12:25:56Z</time>
      </trkpt>
      <trkpt lat="43.61528" lon="3.79198">
        <ele>54.3</ele>
        <time>2021-02-07T12:25:57Z</time>
      </trkpt>
      <trkpt lat="43.61529" lon="3.79195">
        <ele>54.2</ele>
        <time>2021-02-07T12:25:58Z</time>
      </trkpt>
      <trkpt lat="43.6153" lon="3.79191">
        <ele>54.2</ele>
        <time>2021-02-07T12:25:59Z</time>
      </trkpt>
      <trkpt lat="43.6153" lon="3.79187">
        <ele>54.2</ele>
        <time>2021-02-07T12:26:00Z</time>
      </trkpt>
      <trkpt lat="43.61531" lon="3.79183">
        <ele>54.3</ele>
        <time>2021-02-07T12:26:01Z</time>
      </trkpt>
      <trkpt lat="43.61532" lon="3.79179">
        <ele>54.5</ele>
        <time>2021-02-07T12:26:02Z</time>
      </trkpt>
      <trkpt lat="43.61533" lon="3.79176">
        <ele>57</ele>
        <time>2021-02-07T12:26:03Z</time>
      </trkpt>
      <trkpt lat="43.61534" lon="3.79172">
        <ele>54.7</ele>
        <time>2021-02-07T12:26:04Z</time>
      </trkpt>
      <trkpt lat="43.61535" lon="3.79169">
        <ele>54.8</ele>
        <time>2021-02-07T12:26:05Z</time>
      </trkpt>
      <trkpt lat="43.61536" lon="3.79165">
        <ele>55</ele>
        <time>2021-02-07T12:26:06Z</time>
      </trkpt>
      <trkpt lat="43.61538" lon="3.79162">
        <ele>55.3</ele>
        <time>2021-02-07T12:26:07Z</time>
      </trkpt>
      <trkpt lat="43.61539" lon="3.79159">
        <ele>55.5</ele>
        <time>2021-02-07T12:26:08Z</time>
      </trkpt>
      <trkpt lat="43.61541" lon="3.79156">
        <ele>55.8</ele>
        <time>2021-02-07T12:26:09Z</time>
      </trkpt>
      <trkpt lat="43.61542" lon="3.79152">
        <ele>56.1</ele>
        <time>2021-02-07T12:26:10Z</time>
      </trkpt>
      <trkpt lat="43.61543" lon="3.79149">
        <ele>56.2</ele>
        <time>2021-02-07T12:26:11Z</time>
      </trkpt>
      <trkpt lat="43.61543" lon="3.79145">
        <ele>56.3</ele>
        <time>2021-02-07T12:26:12Z</time>
      </trkpt>
      <trkpt lat="43.61544" lon="3.79142">
        <ele>58</ele>
        <time>2021-02-07T12:26:13Z</time>
      </trkpt>
      <trkpt lat="43.61544" lon="3.79137">
        <ele>56.6</ele>
        <time>2021-02-07T12:26:14Z</time>
      </trkpt>
      <trkpt lat="43.61544" lon="3.79134">
        <ele>56.5</ele>
        <time>2021-02-07T12:26:15Z</time>
      </trkpt>
      <trkpt lat="43.61545" lon="3.7913">
        <ele>56.5</ele>
        <time>2021-02-07T12:26:16Z</time>
      </trkpt>
      <trkpt lat="43.61546" lon="3.79126">
        <ele>56.4</ele>
        <time>2021-02-07T12:26:17Z</time>
      </trkpt>
      <trkpt lat="43.61546" lon="3.79123">
        <ele>56.3</ele>
        <time>2021-02-07T12:26:18Z</time>
      </trkpt>
      <trkpt lat="43.61547" lon="3.79119">
        <ele>56.1</ele>
        <time>2021-02-07T12:26:19Z</time>
      </trkpt>
      <trkpt lat="43.61548" lon="3.79115">
        <ele>55.9</ele>
        <time>2021-02-07T12:26:20Z</time>
      </trkpt>
      <trkpt lat="43.61549" lon="3.79111">
        <ele>55.7</ele>
        <time>2021-02-07T12:26:21Z</time>
      </trkpt>
      <trkpt lat="43.6155" lon="3.79107">
        <ele>55.8</ele>
        <time>2021-02-07T12:26:22Z</time>
      </trkpt>
      <trkpt lat="43.6155" lon="3.79103">
        <ele>58</ele>
        <time>2021-02-07T12:26:23Z</time>
      </trkpt>
      <trkpt lat="43.61551" lon="3.79099">
        <ele>56</ele>
        <time>2021-02-07T12:26:24Z</time>
      </trkpt>
      <trkpt lat="43.61552" lon="3.79095">
        <ele>56</ele>
        <time>2021-02-07T12:26:25Z</time>
      </trkpt>
      <trkpt lat="43.61553" lon="3.79091">
        <ele>56.1</ele>
        <time>2021-02-07T12:26:26Z</time>
      </trkpt>
      <trkpt lat="43.61553" lon="3.79088">
        <ele>56.2</ele>
        <time>2021-02-07T12:26:27Z</time>
      </trkpt>
      <trkpt lat="43.61554" lon="3.79084">
        <ele>56.2</ele>
        <time>2021-02-07T12:26:28Z</time>
      </trkpt>
      <trkpt lat="43.61555" lon="3.79081">
        <ele>56.2</ele>
        <time>2021-02-07T12:26:29Z</time>
      </trkpt>
      <trkpt lat="43.61555" lon="3.79077">
        <ele>56.5</ele>
        <time>2021-02-07T12:26:30Z</time>
      </trkpt>
      <trkpt lat="43.61556" lon="3.79074">
        <ele>56.7</ele>
        <time>2021-02-07T12:26:31Z</time>
      </trkpt>
      <trkpt lat="43.61556" lon="3.7907">
        <ele>56.9</ele>
        <time>2021-02-07T12:26:32Z</time>
      </trkpt>
      <trkpt lat="43.61557" lon="3.79067">
        <ele>57.1</ele>
        <time>2021-02-07T12:26:33Z</time>
      </trkpt>
      <trkpt lat="43.61557" lon="3.79064">
        <ele>59</ele>
        <time>2021-02-07T12:26:34Z</time>
      </trkpt>
      <trkpt lat="43.61558" lon="3.7906">
        <ele>57.5</ele>
        <time>2021-02-07T12:26:35Z</time>
      </trkpt>
      <trkpt lat="43.61559" lon="3.79057">
        <ele>57.7</ele>
        <time>2021-02-07T12:26:36Z</time>
      </trkpt>
      <trkpt lat="43.61559" lon="3.79054">
        <ele>57.9</ele>
        <time>2021-02-07T12:26:37Z</time>
      </trkpt>
      <trkpt lat="43.6156" lon="3.7905">
        <ele>58</ele>
        <time>2021-02-07T12:26:38Z</time>
      </trkpt>
      <trkpt lat="43.61561" lon="3.79046">
        <ele>58.2</ele>
        <time>2021-02-07T12:26:39Z</time>
      </trkpt>
      <trkpt lat="43.61562" lon="3.79043">
        <ele>58.2</ele>
        <time>2021-02-07T12:26:40Z</time>
      </trkpt>
      <trkpt lat="43.61562" lon="3.79039">
        <ele>58.5</ele>
        <time>2021-02-07T12:26:41Z</time>
      </trkpt>
      <trkpt lat="43.61563" lon="3.79036">
        <ele>58.5</ele>
        <time>2021-02-07T12:26:42Z</time>
      </trkpt>
      <trkpt lat="43.61563" lon="3.79033">
        <ele>59</ele>
        <time>2021-02-07T12:26:43Z</time>
      </trkpt>
      <trkpt lat="43.61564" lon="3.79029">
        <ele>58.7</ele>
        <time>2021-02-07T12:26:44Z</time>
      </trkpt>
      <trkpt lat="43.61564" lon="3.79026">
        <ele>58.8</ele>
        <time>2021-02-07T12:26:45Z</time>
      </trkpt>
      <trkpt lat="43.61565" lon="3.79022">
        <ele>58.7</ele>
        <time>2021-02-07T12:26:46Z</time>
      </trkpt>
      <trkpt lat="43.61565" lon="3.79019">
        <ele>58.7</ele>
        <time>2021-02-07T12:26:47Z</time>
      </trkpt>
      <trkpt lat="43.61565" lon="3.79015">
        <ele>58.8</ele>
        <time>2021-02-07T12:26:48Z</time>
      </trkpt>
      <trkpt lat="43.61565" lon="3.79012">
        <ele>58.8</ele>
        <time>2021-02-07T12:26:49Z</time>
      </trkpt>
      <trkpt lat="43.61565" lon="3.79008">
        <ele>58.9</ele>
        <time>2021-02-07T12:26:50Z</time>
      </trkpt>
      <trkpt lat="43.61565" lon="3.79004">
        <ele>58.9</ele>
        <time>2021-02-07T12:26:51Z</time>
      </trkpt>
      <trkpt lat="43.61565" lon="3.79001">
        <ele>59</ele>
        <time>2021-02-07T12:26:52Z</time>
      </trkpt>
      <trkpt lat="43.61565" lon="3.78997">
        <ele>58.9</ele>
        <time>2021-02-07T12:26:53Z</time>
      </trkpt>
      <trkpt lat="43.61565" lon="3.78993">
        <ele>60</ele>
        <time>2021-02-07T12:26:54Z</time>
      </trkpt>
      <trkpt lat="43.61565" lon="3.78989">
        <ele>58.8</ele>
        <time>2021-02-07T12:26:55Z</time>
      </trkpt>
      <trkpt lat="43.61565" lon="3.78985">
        <ele>58.8</ele>
        <time>2021-02-07T12:26:56Z</time>
      </trkpt>
      <trkpt lat="43.61564" lon="3.78981">
        <ele>58.9</ele>
        <time>2021-02-07T12:26:57Z</time>
      </trkpt>
      <trkpt lat="43.61564" lon="3.78978">
        <ele>58.8</ele>
        <time>2021-02-07T12:26:58Z</time>
      </trkpt>
      <trkpt lat="43.61564" lon="3.78975">
        <ele>58.8</ele>
        <time>2021-02-07T12:26:59Z</time>
      </trkpt>
      <trkpt lat="43.61563" lon="3.78971">
        <ele>58.9</ele>
        <time>2021-02-07T12:27:00Z</time>
      </trkpt>
      <trkpt lat="43.61563" lon="3.78968">
        <ele>58.9</ele>
        <time>2021-02-07T12:27:01Z</time>
      </trkpt>
      <trkpt lat="43.61563" lon="3.78964">
        <ele>58.9</ele>
        <time>2021-02-07T12:27:02Z</time>
      </trkpt>
      <trkpt lat="43.61563" lon="3.78961">
        <ele>60</ele>
        <time>2021-02-07T12:27:03Z</time>
      </trkpt>
      <trkpt lat="43.61563" lon="3.78957">
        <ele>58.8</ele>
        <time>2021-02-07T12:27:04Z</time>
      </trkpt>
      <trkpt lat="43.61563" lon="3.78953">
        <ele>58.8</ele>
        <time>2021-02-07T12:27:05Z</time>
      </trkpt>
      <trkpt lat="43.61563" lon="3.78949">
        <ele>58.8</ele>
        <time>2021-02-07T12:27:06Z</time>
      </trkpt>
      <trkpt lat="43.61563" lon="3.78946">
        <ele>58.7</ele>
        <time>2021-02-07T12:27:07Z</time>
      </trkpt>
      <trkpt lat="43.61562" lon="3.78944">
        <ele>58.7</ele>
        <time>2021-02-07T12:27:08Z</time>
      </trkpt>
      <trkpt lat="43.61561" lon="3.7894">
        <ele>58.5</ele>
        <time>2021-02-07T12:27:10Z</time>
      </trkpt>
      <trkpt lat="43.61559" lon="3.78937">
        <ele>58.3</ele>
        <time>2021-02-07T12:27:12Z</time>
      </trkpt>
      <trkpt lat="43.61557" lon="3.78934">
        <ele>60</ele>
        <time>2021-02-07T12:27:13Z</time>
      </trkpt>
      <trkpt lat="43.61557" lon="3.78931">
        <ele>57.6</ele>
        <time>2021-02-07T12:27:14Z</time>
      </trkpt>
      <trkpt lat="43.61556" lon="3.78924">
        <ele>56.8</ele>
        <time>2021-02-07T12:27:16Z</time>
      </trkpt>
      <trkpt lat="43.61557" lon="3.78918">
        <ele>56.4</ele>
        <time>2021-02-07T12:27:18Z</time>
      </trkpt>
      <trkpt lat="43.61558" lon="3.78914">
        <ele>56.6</ele>
        <time>2021-02-07T12:27:20Z</time>
      </trkpt>
      <trkpt lat="43.61557" lon="3.78909">
        <ele>56.8</ele>
        <time>2021-02-07T12:27:22Z</time>
      </trkpt>
      <trkpt lat="43.61556" lon="3.78905">
        <ele>56.9</ele>
        <time>2021-02-07T12:27:25Z</time>
      </trkpt>
      <trkpt lat="43.61554" lon="3.78902">
        <ele>57.3</ele>
        <time>2021-02-07T12:27:27Z</time>
      </trkpt>
      <trkpt lat="43.61553" lon="3.78899">
        <ele>57.5</ele>
        <time>2021-02-07T12:27:29Z</time>
      </trkpt>
      <trkpt lat="43.61551" lon="3.78896">
        <ele>57.8</ele>
        <time>2021-02-07T12:27:31Z</time>
      </trkpt>
      <trkpt lat="43.6155" lon="3.78892">
        <ele>60</ele>
        <time>2021-02-07T12:27:33Z</time>
      </trkpt>
      <trkpt lat="43.61549" lon="3.7889">
        <ele>58</ele>
        <time>2021-02-07T12:27:34Z</time>
      </trkpt>
      <trkpt lat="43.61548" lon="3.78887">
        <ele>58.1</ele>
        <time>2021-02-07T12:27:35Z</time>
      </trkpt>
      <trkpt lat="43.61548" lon="3.78885">
        <ele>58.2</ele>
        <time>2021-02-07T12:27:36Z</time>
      </trkpt>
      <trkpt lat="43.61547" lon="3.78882">
        <ele>58.3</ele>
        <time>2021-02-07T12:27:37Z</time>
      </trkpt>
      <trkpt lat="43.61547" lon="3.7888">
        <ele>58.4</ele>
        <time>2021-02-07T12:27:38Z</time>
      </trkpt>
      <trkpt lat="43.61547" lon="3.78875">
        <ele>58.7</ele>
        <time>2021-02-07T12:27:40Z</time>
      </trkpt>
      <trkpt lat="43.61546" lon="3.78873">
        <ele>58.8</ele>
        <time>2021-02-07T12:27:41Z</time>
      </trkpt>
      <trkpt lat="43.61546" lon="3.7887">
        <ele>58.9</ele>
        <time>2021-02-07T12:27:42Z</time>
      </trkpt>
      <trkpt lat="43.61546" lon="3.78866">
        <ele>59.1</ele>
        <time>2021-02-07T12:27:44Z</time>
      </trkpt>
      <trkpt lat="43.61546" lon="3.78863">
        <ele>59.2</ele>
        <time>2021-02-07T12:27:45Z</time>
      </trkpt>
      <trkpt lat="43.61546" lon="3.7886">
        <ele>59.4</ele>
        <time>2021-02-07T12:27:46Z</time>
      </trkpt>
      <trkpt lat="43.61545" lon="3.78857">
        <ele>59.4</ele>
        <time>2021-02-07T12:27:47Z</time>
      </trkpt>
      <trkpt lat="43.61545" lon="3.78854">
        <ele>59.6</ele>
        <time>2021-02-07T12:27:48Z</time>
      </trkpt>
      <trkpt lat="43.61545" lon="3.78851">
        <ele>59.7</ele>
        <time>2021-02-07T12:27:49Z</time>
      </trkpt>
      <trkpt lat="43.61545" lon="3.78849">
        <ele>59.8</ele>
        <time>2021-02-07T12:27:50Z</time>
      </trkpt>
      <trkpt lat="43.61545" lon="3.78846">
        <ele>59.9</ele>
        <time>2021-02-07T12:27:51Z</time>
      </trkpt>
      <trkpt lat="43.61545" lon="3.78843">
        <ele>60</ele>
        <time>2021-02-07T12:27:52Z</time>
      </trkpt>
      <trkpt lat="43.61545" lon="3.7884">
        <ele>60</ele>
        <time>2021-02-07T12:27:53Z</time>
      </trkpt>
      <trkpt lat="43.61545" lon="3.78837">
        <ele>60.3</ele>
        <time>2021-02-07T12:27:54Z</time>
      </trkpt>
      <trkpt lat="43.61544" lon="3.78834">
        <ele>60.3</ele>
        <time>2021-02-07T12:27:55Z</time>
      </trkpt>
      <trkpt lat="43.61544" lon="3.78831">
        <ele>60.2</ele>
        <time>2021-02-07T12:27:56Z</time>
      </trkpt>
      <trkpt lat="43.61544" lon="3.78828">
        <ele>60.1</ele>
        <time>2021-02-07T12:27:57Z</time>
      </trkpt>
      <trkpt lat="43.61543" lon="3.78825">
        <ele>59.9</ele>
        <time>2021-02-07T12:27:58Z</time>
      </trkpt>
      <trkpt lat="43.61543" lon="3.78822">
        <ele>59.7</ele>
        <time>2021-02-07T12:27:59Z</time>
      </trkpt>
      <trkpt lat="43.61543" lon="3.78818">
        <ele>59.6</ele>
        <time>2021-02-07T12:28:00Z</time>
      </trkpt>
      <trkpt lat="43.61543" lon="3.78815">
        <ele>59.5</ele>
        <time>2021-02-07T12:28:01Z</time>
      </trkpt>
      <trkpt lat="43.61544" lon="3.78812">
        <ele>59.4</ele>
        <time>2021-02-07T12:28:02Z</time>
      </trkpt>
      <trkpt lat="43.61545" lon="3.7881">
        <ele>61</ele>
        <time>2021-02-07T12:28:03Z</time>
      </trkpt>
      <trkpt lat="43.61545" lon="3.78807">
        <ele>59.3</ele>
        <time>2021-02-07T12:28:04Z</time>
      </trkpt>
      <trkpt lat="43.61546" lon="3.78804">
        <ele>59.3</ele>
        <time>2021-02-07T12:28:05Z</time>
      </trkpt>
      <trkpt lat="43.61547" lon="3.78802">
        <ele>59.4</ele>
        <time>2021-02-07T12:28:06Z</time>
      </trkpt>
      <trkpt lat="43.61549" lon="3.78799">
        <ele>59.4</ele>
        <time>2021-02-07T12:28:07Z</time>
      </trkpt>
      <trkpt lat="43.6155" lon="3.78797">
        <ele>59.4</ele>
        <time>2021-02-07T12:28:08Z</time>
      </trkpt>
      <trkpt lat="43.61551" lon="3.78795">
        <ele>59.3</ele>
        <time>2021-02-07T12:28:09Z</time>
      </trkpt>
      <trkpt lat="43.61552" lon="3.78793">
        <ele>59.2</ele>
        <time>2021-02-07T12:28:10Z</time>
      </trkpt>
      <trkpt lat="43.61555" lon="3.7879">
        <ele>58.9</ele>
        <time>2021-02-07T12:28:12Z</time>
      </trkpt>
      <trkpt lat="43.61557" lon="3.78788">
        <ele>61</ele>
        <time>2021-02-07T12:28:13Z</time>
      </trkpt>
      <trkpt lat="43.61558" lon="3.78785">
        <ele>58.8</ele>
        <time>2021-02-07T12:28:14Z</time>
      </trkpt>
      <trkpt lat="43.61559" lon="3.78781">
        <ele>58.5</ele>
        <time>2021-02-07T12:28:15Z</time>
      </trkpt>
      <trkpt lat="43.6156" lon="3.78778">
        <ele>58.3</ele>
        <time>2021-02-07T12:28:16Z</time>
      </trkpt>
      <trkpt lat="43.61562" lon="3.78775">
        <ele>58.8</ele>
        <time>2021-02-07T12:28:17Z</time>
      </trkpt>
      <trkpt lat="43.61564" lon="3.78771">
        <ele>59.4</ele>
        <time>2021-02-07T12:28:18Z</time>
      </trkpt>
      <trkpt lat="43.61565" lon="3.78767">
        <ele>59.8</ele>
        <time>2021-02-07T12:28:19Z</time>
      </trkpt>
      <trkpt lat="43.61567" lon="3.78764">
        <ele>60.1</ele>
        <time>2021-02-07T12:28:20Z</time>
      </trkpt>
      <trkpt lat="43.61568" lon="3.78762">
        <ele>60.2</ele>
        <time>2021-02-07T12:28:21Z</time>
      </trkpt>
      <trkpt lat="43.6157" lon="3.78759">
        <ele>60.3</ele>
        <time>2021-02-07T12:28:22Z</time>
      </trkpt>
      <trkpt lat="43.61572" lon="3.78757">
        <ele>63</ele>
        <time>2021-02-07T12:28:23Z</time>
      </trkpt>
      <trkpt lat="43.61574" lon="3.78755">
        <ele>60.2</ele>
        <time>2021-02-07T12:28:24Z</time>
      </trkpt>
      <trkpt lat="43.61575" lon="3.78752">
        <ele>60.1</ele>
        <time>2021-02-07T12:28:25Z</time>
      </trkpt>
      <trkpt lat="43.61576" lon="3.78749">
        <ele>60.2</ele>
        <time>2021-02-07T12:28:26Z</time>
      </trkpt>
      <trkpt lat="43.61579" lon="3.78746">
        <ele>60.3</ele>
        <time>2021-02-07T12:28:27Z</time>
      </trkpt>
      <trkpt lat="43.6158" lon="3.78744">
        <ele>60.5</ele>
        <time>2021-02-07T12:28:28Z</time>
      </trkpt>
      <trkpt lat="43.61582" lon="3.78743">
        <ele>60.4</ele>
        <time>2021-02-07T12:28:29Z</time>
      </trkpt>
      <trkpt lat="43.61584" lon="3.7874">
        <ele>60.8</ele>
        <time>2021-02-07T12:28:31Z</time>
      </trkpt>
      <trkpt lat="43.61586" lon="3.78738">
        <ele>61.1</ele>
        <time>2021-02-07T12:28:32Z</time>
      </trkpt>
      <trkpt lat="43.61587" lon="3.78735">
        <ele>63</ele>
        <time>2021-02-07T12:28:33Z</time>
      </trkpt>
      <trkpt lat="43.61589" lon="3.78733">
        <ele>61.8</ele>
        <time>2021-02-07T12:28:34Z</time>
      </trkpt>
      <trkpt lat="43.6159" lon="3.78731">
        <ele>62.1</ele>
        <time>2021-02-07T12:28:35Z</time>
      </trkpt>
      <trkpt lat="43.61592" lon="3.78729">
        <ele>62.3</ele>
        <time>2021-02-07T12:28:36Z</time>
      </trkpt>
      <trkpt lat="43.61594" lon="3.78727">
        <ele>62.5</ele>
        <time>2021-02-07T12:28:37Z</time>
      </trkpt>
      <trkpt lat="43.61596" lon="3.78723">
        <ele>63</ele>
        <time>2021-02-07T12:28:39Z</time>
      </trkpt>
      <trkpt lat="43.61598" lon="3.78721">
        <ele>63.1</ele>
        <time>2021-02-07T12:28:40Z</time>
      </trkpt>
      <trkpt lat="43.61599" lon="3.78719">
        <ele>63.2</ele>
        <time>2021-02-07T12:28:41Z</time>
      </trkpt>
      <trkpt lat="43.616" lon="3.78718">
        <ele>63.2</ele>
        <time>2021-02-07T12:28:42Z</time>
      </trkpt>
      <trkpt lat="43.61603" lon="3.78714">
        <ele>63.3</ele>
        <time>2021-02-07T12:28:44Z</time>
      </trkpt>
      <trkpt lat="43.61604" lon="3.78712">
        <ele>63.4</ele>
        <time>2021-02-07T12:28:45Z</time>
      </trkpt>
      <trkpt lat="43.61606" lon="3.78709">
        <ele>63.5</ele>
        <time>2021-02-07T12:28:46Z</time>
      </trkpt>
      <trkpt lat="43.61607" lon="3.78707">
        <ele>63.6</ele>
        <time>2021-02-07T12:28:47Z</time>
      </trkpt>
      <trkpt lat="43.61609" lon="3.78705">
        <ele>63.5</ele>
        <time>2021-02-07T12:28:48Z</time>
      </trkpt>
      <trkpt lat="43.6161" lon="3.78703">
        <ele>63.5</ele>
        <time>2021-02-07T12:28:49Z</time>
      </trkpt>
      <trkpt lat="43.61612" lon="3.78701">
        <ele>63.5</ele>
        <time>2021-02-07T12:28:50Z</time>
      </trkpt>
      <trkpt lat="43.61613" lon="3.78699">
        <ele>63.6</ele>
        <time>2021-02-07T12:28:51Z</time>
      </trkpt>
      <trkpt lat="43.61614" lon="3.78697">
        <ele>63.7</ele>
        <time>2021-02-07T12:28:52Z</time>
      </trkpt>
      <trkpt lat="43.61615" lon="3.78694">
        <ele>65</ele>
        <time>2021-02-07T12:28:53Z</time>
      </trkpt>
      <trkpt lat="43.61617" lon="3.78692">
        <ele>64.2</ele>
        <time>2021-02-07T12:28:54Z</time>
      </trkpt>
      <trkpt lat="43.61618" lon="3.7869">
        <ele>64.5</ele>
        <time>2021-02-07T12:28:55Z</time>
      </trkpt>
      <trkpt lat="43.61619" lon="3.78688">
        <ele>64.7</ele>
        <time>2021-02-07T12:28:56Z</time>
      </trkpt>
      <trkpt lat="43.61621" lon="3.78687">
        <ele>64.8</ele>
        <time>2021-02-07T12:28:57Z</time>
      </trkpt>
      <trkpt lat="43.61622" lon="3.78685">
        <ele>65</ele>
        <time>2021-02-07T12:28:58Z</time>
      </trkpt>
      <trkpt lat="43.61623" lon="3.78682">
        <ele>65.4</ele>
        <time>2021-02-07T12:28:59Z</time>
      </trkpt>
      <trkpt lat="43.61624" lon="3.7868">
        <ele>65.7</ele>
        <time>2021-02-07T12:29:00Z</time>
      </trkpt>
      <trkpt lat="43.61626" lon="3.78679">
        <ele>65.6</ele>
        <time>2021-02-07T12:29:01Z</time>
      </trkpt>
      <trkpt lat="43.61627" lon="3.78677">
        <ele>65.8</ele>
        <time>2021-02-07T12:29:02Z</time>
      </trkpt>
      <trkpt lat="43.61628" lon="3.78675">
        <ele>66</ele>
        <time>2021-02-07T12:29:03Z</time>
      </trkpt>
      <trkpt lat="43.61629" lon="3.78673">
        <ele>66.2</ele>
        <time>2021-02-07T12:29:04Z</time>
      </trkpt>
      <trkpt lat="43.61631" lon="3.78671">
        <ele>66.3</ele>
        <time>2021-02-07T12:29:05Z</time>
      </trkpt>
      <trkpt lat="43.61632" lon="3.78669">
        <ele>66.5</ele>
        <time>2021-02-07T12:29:06Z</time>
      </trkpt>
      <trkpt lat="43.61633" lon="3.78668">
        <ele>66.5</ele>
        <time>2021-02-07T12:29:07Z</time>
      </trkpt>
      <trkpt lat="43.61635" lon="3.78666">
        <ele>66.5</ele>
        <time>2021-02-07T12:29:08Z</time>
      </trkpt>
      <trkpt lat="43.61636" lon="3.78664">
        <ele>66.7</ele>
        <time>2021-02-07T12:29:09Z</time>
      </trkpt>
      <trkpt lat="43.61638" lon="3.78663">
        <ele>66.6</ele>
        <time>2021-02-07T12:29:10Z</time>
      </trkpt>
      <trkpt lat="43.61641" lon="3.78661">
        <ele>66.7</ele>
        <time>2021-02-07T12:29:12Z</time>
      </trkpt>
      <trkpt lat="43.61642" lon="3.78658">
        <ele>67</ele>
        <time>2021-02-07T12:29:14Z</time>
      </trkpt>
      <trkpt lat="43.61642" lon="3.78655">
        <ele>67.5</ele>
        <time>2021-02-07T12:29:16Z</time>
      </trkpt>
      <trkpt lat="43.61642" lon="3.78652">
        <ele>67.9</ele>
        <time>2021-02-07T12:29:18Z</time>
      </trkpt>
      <trkpt lat="43.61642" lon="3.78649">
        <ele>68.3</ele>
        <time>2021-02-07T12:29:20Z</time>
      </trkpt>
      <trkpt lat="43.61643" lon="3.78647">
        <ele>68.5</ele>
        <time>2021-02-07T12:29:22Z</time>
      </trkpt>
      <trkpt lat="43.61645" lon="3.78644">
        <ele>68.8</ele>
        <time>2021-02-07T12:29:25Z</time>
      </trkpt>
      <trkpt lat="43.61647" lon="3.78643">
        <ele>68.8</ele>
        <time>2021-02-07T12:29:28Z</time>
      </trkpt>
      <trkpt lat="43.61649" lon="3.78641">
        <ele>69</ele>
        <time>2021-02-07T12:29:31Z</time>
      </trkpt>
      <trkpt lat="43.61651" lon="3.78639">
        <ele>69.1</ele>
        <time>2021-02-07T12:29:34Z</time>
      </trkpt>
      <trkpt lat="43.61652" lon="3.78636">
        <ele>69.4</ele>
        <time>2021-02-07T12:29:36Z</time>
      </trkpt>
      <trkpt lat="43.61653" lon="3.78634">
        <ele>69.5</ele>
        <time>2021-02-07T12:29:38Z</time>
      </trkpt>
      <trkpt lat="43.61655" lon="3.78632">
        <ele>69.6</ele>
        <time>2021-02-07T12:29:40Z</time>
      </trkpt>
      <trkpt lat="43.61657" lon="3.78629">
        <ele>69.8</ele>
        <time>2021-02-07T12:29:42Z</time>
      </trkpt>
      <trkpt lat="43.61658" lon="3.78627">
        <ele>69.9</ele>
        <time>2021-02-07T12:29:44Z</time>
      </trkpt>
      <trkpt lat="43.6166" lon="3.78624">
        <ele>70.1</ele>
        <time>2021-02-07T12:29:46Z</time>
      </trkpt>
      <trkpt lat="43.61662" lon="3.78621">
        <ele>70.3</ele>
        <time>2021-02-07T12:29:48Z</time>
      </trkpt>
      <trkpt lat="43.61664" lon="3.78619">
        <ele>70.3</ele>
        <time>2021-02-07T12:29:50Z</time>
      </trkpt>
      <trkpt lat="43.61665" lon="3.78616">
        <ele>70.6</ele>
        <time>2021-02-07T12:29:52Z</time>
      </trkpt>
      <trkpt lat="43.61667" lon="3.78614">
        <ele>70</ele>
        <time>2021-02-07T12:29:53Z</time>
      </trkpt>
      <trkpt lat="43.61669" lon="3.78611">
        <ele>70.9</ele>
        <time>2021-02-07T12:29:55Z</time>
      </trkpt>
      <trkpt lat="43.61671" lon="3.78608">
        <ele>71.3</ele>
        <time>2021-02-07T12:29:58Z</time>
      </trkpt>
      <trkpt lat="43.61672" lon="3.78606">
        <ele>71.5</ele>
        <time>2021-02-07T12:29:59Z</time>
      </trkpt>
      <trkpt lat="43.61673" lon="3.78602">
        <ele>72</ele>
        <time>2021-02-07T12:30:01Z</time>
      </trkpt>
      <trkpt lat="43.61675" lon="3.786">
        <ele>71</ele>
        <time>2021-02-07T12:30:03Z</time>
      </trkpt>
      <trkpt lat="43.61676" lon="3.78596">
        <ele>72.7</ele>
        <time>2021-02-07T12:30:05Z</time>
      </trkpt>
      <trkpt lat="43.61678" lon="3.78593">
        <ele>72.9</ele>
        <time>2021-02-07T12:30:08Z</time>
      </trkpt>
      <trkpt lat="43.61679" lon="3.78589">
        <ele>73.4</ele>
        <time>2021-02-07T12:30:10Z</time>
      </trkpt>
      <trkpt lat="43.61681" lon="3.78585">
        <ele>73.8</ele>
        <time>2021-02-07T12:30:11Z</time>
      </trkpt>
      <trkpt lat="43.61682" lon="3.78581">
        <ele>74.1</ele>
        <time>2021-02-07T12:30:14Z</time>
      </trkpt>
      <trkpt lat="43.61684" lon="3.78578">
        <ele>74.3</ele>
        <time>2021-02-07T12:30:16Z</time>
      </trkpt>
      <trkpt lat="43.61686" lon="3.78574">
        <ele>74.5</ele>
        <time>2021-02-07T12:30:18Z</time>
      </trkpt>
      <trkpt lat="43.61688" lon="3.7857">
        <ele>74.8</ele>
        <time>2021-02-07T12:30:20Z</time>
      </trkpt>
      <trkpt lat="43.61691" lon="3.78567">
        <ele>74.9</ele>
        <time>2021-02-07T12:30:22Z</time>
      </trkpt>
      <trkpt lat="43.61692" lon="3.78563">
        <ele>74</ele>
        <time>2021-02-07T12:30:24Z</time>
      </trkpt>
      <trkpt lat="43.61694" lon="3.78559">
        <ele>75.6</ele>
        <time>2021-02-07T12:30:25Z</time>
      </trkpt>
      <trkpt lat="43.61696" lon="3.78556">
        <ele>76</ele>
        <time>2021-02-07T12:30:27Z</time>
      </trkpt>
      <trkpt lat="43.61698" lon="3.78552">
        <ele>76.3</ele>
        <time>2021-02-07T12:30:30Z</time>
      </trkpt>
      <trkpt lat="43.61699" lon="3.78549">
        <ele>76.5</ele>
        <time>2021-02-07T12:30:31Z</time>
      </trkpt>
      <trkpt lat="43.61701" lon="3.78546">
        <ele>76.7</ele>
        <time>2021-02-07T12:30:34Z</time>
      </trkpt>
      <trkpt lat="43.61702" lon="3.78543">
        <ele>76.9</ele>
        <time>2021-02-07T12:30:36Z</time>
      </trkpt>
      <trkpt lat="43.61704" lon="3.7854">
        <ele>77.1</ele>
        <time>2021-02-07T12:30:38Z</time>
      </trkpt>
      <trkpt lat="43.61706" lon="3.78537">
        <ele>77.3</ele>
        <time>2021-02-07T12:30:40Z</time>
      </trkpt>
      <trkpt lat="43.61707" lon="3.78534">
        <ele>77.6</ele>
        <time>2021-02-07T12:30:42Z</time>
      </trkpt>
      <trkpt lat="43.61709" lon="3.78531">
        <ele>77.8</ele>
        <time>2021-02-07T12:30:44Z</time>
      </trkpt>
      <trkpt lat="43.6171" lon="3.78527">
        <ele>78.1</ele>
        <time>2021-02-07T12:30:46Z</time>
      </trkpt>
      <trkpt lat="43.61712" lon="3.78523">
        <ele>78.4</ele>
        <time>2021-02-07T12:30:47Z</time>
      </trkpt>
      <trkpt lat="43.61713" lon="3.7852">
        <ele>78.7</ele>
        <time>2021-02-07T12:30:49Z</time>
      </trkpt>
      <trkpt lat="43.61714" lon="3.78516">
        <ele>79</ele>
        <time>2021-02-07T12:30:51Z</time>
      </trkpt>
      <trkpt lat="43.61715" lon="3.78512">
        <ele>79.3</ele>
        <time>2021-02-07T12:30:54Z</time>
      </trkpt>
      <trkpt lat="43.61716" lon="3.78508">
        <ele>79.6</ele>
        <time>2021-02-07T12:30:56Z</time>
      </trkpt>
      <trkpt lat="43.61717" lon="3.78504">
        <ele>79.9</ele>
        <time>2021-02-07T12:30:58Z</time>
      </trkpt>
      <trkpt lat="43.61718" lon="3.785">
        <ele>80.2</ele>
        <time>2021-02-07T12:31:00Z</time>
      </trkpt>
      <trkpt lat="43.6172" lon="3.78496">
        <ele>80.2</ele>
        <time>2021-02-07T12:31:02Z</time>
      </trkpt>
      <trkpt lat="43.61721" lon="3.78492">
        <ele>80</ele>
        <time>2021-02-07T12:31:03Z</time>
      </trkpt>
      <trkpt lat="43.61722" lon="3.78489">
        <ele>80.4</ele>
        <time>2021-02-07T12:31:05Z</time>
      </trkpt>
      <trkpt lat="43.61724" lon="3.78485">
        <ele>80.4</ele>
        <time>2021-02-07T12:31:08Z</time>
      </trkpt>
      <trkpt lat="43.61725" lon="3.78481">
        <ele>80.5</ele>
        <time>2021-02-07T12:31:10Z</time>
      </trkpt>
      <trkpt lat="43.61726" lon="3.78477">
        <ele>80.6</ele>
        <time>2021-02-07T12:31:12Z</time>
      </trkpt>
      <trkpt lat="43.61727" lon="3.78473">
        <ele>80.6</ele>
        <time>2021-02-07T12:31:14Z</time>
      </trkpt>
      <trkpt lat="43.61727" lon="3.78469">
        <ele>80.8</ele>
        <time>2021-02-07T12:31:16Z</time>
      </trkpt>
      <trkpt lat="43.61728" lon="3.78464">
        <ele>80.8</ele>
        <time>2021-02-07T12:31:18Z</time>
      </trkpt>
      <trkpt lat="43.61728" lon="3.7846">
        <ele>80.9</ele>
        <time>2021-02-07T12:31:20Z</time>
      </trkpt>
      <trkpt lat="43.61728" lon="3.78455">
        <ele>81.1</ele>
        <time>2021-02-07T12:31:22Z</time>
      </trkpt>
      <trkpt lat="43.61728" lon="3.78452">
        <ele>81</ele>
        <time>2021-02-07T12:31:23Z</time>
      </trkpt>
      <trkpt lat="43.61728" lon="3.7845">
        <ele>81.2</ele>
        <time>2021-02-07T12:31:24Z</time>
      </trkpt>
      <trkpt lat="43.61728" lon="3.78447">
        <ele>81.3</ele>
        <time>2021-02-07T12:31:25Z</time>
      </trkpt>
      <trkpt lat="43.61728" lon="3.78445">
        <ele>81.4</ele>
        <time>2021-02-07T12:31:26Z</time>
      </trkpt>
      <trkpt lat="43.61729" lon="3.78442">
        <ele>81.2</ele>
        <time>2021-02-07T12:31:27Z</time>
      </trkpt>
      <trkpt lat="43.61729" lon="3.78439">
        <ele>81.2</ele>
        <time>2021-02-07T12:31:28Z</time>
      </trkpt>
      <trkpt lat="43.61728" lon="3.78436">
        <ele>81.2</ele>
        <time>2021-02-07T12:31:29Z</time>
      </trkpt>
      <trkpt lat="43.61728" lon="3.78433">
        <ele>81.2</ele>
        <time>2021-02-07T12:31:30Z</time>
      </trkpt>
      <trkpt lat="43.61727" lon="3.78431">
        <ele>81.3</ele>
        <time>2021-02-07T12:31:31Z</time>
      </trkpt>
      <trkpt lat="43.61727" lon="3.78426">
        <ele>81</ele>
        <time>2021-02-07T12:31:33Z</time>
      </trkpt>
      <trkpt lat="43.61727" lon="3.78423">
        <ele>81.2</ele>
        <time>2021-02-07T12:31:34Z</time>
      </trkpt>
      <trkpt lat="43.61727" lon="3.7842">
        <ele>81.2</ele>
        <time>2021-02-07T12:31:35Z</time>
      </trkpt>
      <trkpt lat="43.61727" lon="3.78418">
        <ele>81.2</ele>
        <time>2021-02-07T12:31:36Z</time>
      </trkpt>
      <trkpt lat="43.61726" lon="3.78415">
        <ele>81.2</ele>
        <time>2021-02-07T12:31:37Z</time>
      </trkpt>
      <trkpt lat="43.61726" lon="3.78412">
        <ele>81</ele>
        <time>2021-02-07T12:31:38Z</time>
      </trkpt>
      <trkpt lat="43.61725" lon="3.78409">
        <ele>81</ele>
        <time>2021-02-07T12:31:39Z</time>
      </trkpt>
      <trkpt lat="43.61724" lon="3.78405">
        <ele>80.9</ele>
        <time>2021-02-07T12:31:40Z</time>
      </trkpt>
      <trkpt lat="43.61723" lon="3.78401">
        <ele>80.7</ele>
        <time>2021-02-07T12:31:41Z</time>
      </trkpt>
      <trkpt lat="43.61722" lon="3.78397">
        <ele>80.6</ele>
        <time>2021-02-07T12:31:42Z</time>
      </trkpt>
      <trkpt lat="43.61721" lon="3.78393">
        <ele>81</ele>
        <time>2021-02-07T12:31:43Z</time>
      </trkpt>
      <trkpt lat="43.6172" lon="3.78389">
        <ele>80.2</ele>
        <time>2021-02-07T12:31:44Z</time>
      </trkpt>
      <trkpt lat="43.61719" lon="3.78383">
        <ele>80</ele>
        <time>2021-02-07T12:31:45Z</time>
      </trkpt>
      <trkpt lat="43.61718" lon="3.78378">
        <ele>79.9</ele>
        <time>2021-02-07T12:31:46Z</time>
      </trkpt>
      <trkpt lat="43.61717" lon="3.78372">
        <ele>79.8</ele>
        <time>2021-02-07T12:31:47Z</time>
      </trkpt>
      <trkpt lat="43.61715" lon="3.78366">
        <ele>79.7</ele>
        <time>2021-02-07T12:31:48Z</time>
      </trkpt>
      <trkpt lat="43.61714" lon="3.78359">
        <ele>79.6</ele>
        <time>2021-02-07T12:31:49Z</time>
      </trkpt>
      <trkpt lat="43.61714" lon="3.78353">
        <ele>79.7</ele>
        <time>2021-02-07T12:31:50Z</time>
      </trkpt>
      <trkpt lat="43.61714" lon="3.78346">
        <ele>79.8</ele>
        <time>2021-02-07T12:31:51Z</time>
      </trkpt>
      <trkpt lat="43.61715" lon="3.78341">
        <ele>79.7</ele>
        <time>2021-02-07T12:31:52Z</time>
      </trkpt>
      <trkpt lat="43.61716" lon="3.78336">
        <ele>80</ele>
        <time>2021-02-07T12:31:53Z</time>
      </trkpt>
      <trkpt lat="43.61716" lon="3.78331">
        <ele>79.7</ele>
        <time>2021-02-07T12:31:54Z</time>
      </trkpt>
      <trkpt lat="43.61717" lon="3.78327">
        <ele>79.7</ele>
        <time>2021-02-07T12:31:55Z</time>
      </trkpt>
      <trkpt lat="43.61717" lon="3.78324">
        <ele>79.8</ele>
        <time>2021-02-07T12:31:56Z</time>
      </trkpt>
      <trkpt lat="43.61717" lon="3.78321">
        <ele>79.9</ele>
        <time>2021-02-07T12:31:57Z</time>
      </trkpt>
      <trkpt lat="43.61718" lon="3.78318">
        <ele>79.9</ele>
        <time>2021-02-07T12:31:58Z</time>
      </trkpt>
      <trkpt lat="43.61718" lon="3.78314">
        <ele>80</ele>
        <time>2021-02-07T12:31:59Z</time>
      </trkpt>
      <trkpt lat="43.61719" lon="3.78311">
        <ele>80.1</ele>
        <time>2021-02-07T12:32:00Z</time>
      </trkpt>
      <trkpt lat="43.61719" lon="3.78308">
        <ele>80.2</ele>
        <time>2021-02-07T12:32:01Z</time>
      </trkpt>
      <trkpt lat="43.61719" lon="3.78305">
        <ele>80.3</ele>
        <time>2021-02-07T12:32:02Z</time>
      </trkpt>
      <trkpt lat="43.61719" lon="3.78301">
        <ele>80</ele>
        <time>2021-02-07T12:32:03Z</time>
      </trkpt>
      <trkpt lat="43.61719" lon="3.78298">
        <ele>80.5</ele>
        <time>2021-02-07T12:32:04Z</time>
      </trkpt>
      <trkpt lat="43.61719" lon="3.78295">
        <ele>80.7</ele>
        <time>2021-02-07T12:32:05Z</time>
      </trkpt>
      <trkpt lat="43.61719" lon="3.78292">
        <ele>80.8</ele>
        <time>2021-02-07T12:32:06Z</time>
      </trkpt>
      <trkpt lat="43.61719" lon="3.78289">
        <ele>80.9</ele>
        <time>2021-02-07T12:32:07Z</time>
      </trkpt>
      <trkpt lat="43.6172" lon="3.78287">
        <ele>80.9</ele>
        <time>2021-02-07T12:32:08Z</time>
      </trkpt>
      <trkpt lat="43.6172" lon="3.78284">
        <ele>81</ele>
        <time>2021-02-07T12:32:09Z</time>
      </trkpt>
      <trkpt lat="43.61721" lon="3.78281">
        <ele>81</ele>
        <time>2021-02-07T12:32:10Z</time>
      </trkpt>
      <trkpt lat="43.61722" lon="3.78278">
        <ele>81</ele>
        <time>2021-02-07T12:32:11Z</time>
      </trkpt>
      <trkpt lat="43.61723" lon="3.78276">
        <ele>81.1</ele>
        <time>2021-02-07T12:32:12Z</time>
      </trkpt>
      <trkpt lat="43.61723" lon="3.78273">
        <ele>81.3</ele>
        <time>2021-02-07T12:32:13Z</time>
      </trkpt>
      <trkpt lat="43.61724" lon="3.7827">
        <ele>82</ele>
        <time>2021-02-07T12:32:14Z</time>
      </trkpt>
      <trkpt lat="43.61724" lon="3.78267">
        <ele>81.6</ele>
        <time>2021-02-07T12:32:15Z</time>
      </trkpt>
      <trkpt lat="43.61725" lon="3.78265">
        <ele>81.7</ele>
        <time>2021-02-07T12:32:16Z</time>
      </trkpt>
      <trkpt lat="43.61726" lon="3.78262">
        <ele>81.8</ele>
        <time>2021-02-07T12:32:17Z</time>
      </trkpt>
      <trkpt lat="43.61726" lon="3.78259">
        <ele>82</ele>
        <time>2021-02-07T12:32:18Z</time>
      </trkpt>
      <trkpt lat="43.61727" lon="3.78256">
        <ele>82.1</ele>
        <time>2021-02-07T12:32:19Z</time>
      </trkpt>
      <trkpt lat="43.61728" lon="3.78253">
        <ele>82.2</ele>
        <time>2021-02-07T12:32:20Z</time>
      </trkpt>
      <trkpt lat="43.61729" lon="3.7825">
        <ele>82.3</ele>
        <time>2021-02-07T12:32:21Z</time>
      </trkpt>
      <trkpt lat="43.61729" lon="3.78246">
        <ele>82.5</ele>
        <time>2021-02-07T12:32:22Z</time>
      </trkpt>
      <trkpt lat="43.6173" lon="3.78243">
        <ele>84</ele>
        <time>2021-02-07T12:32:23Z</time>
      </trkpt>
      <trkpt lat="43.6173" lon="3.78239">
        <ele>82.8</ele>
        <time>2021-02-07T12:32:24Z</time>
      </trkpt>
      <trkpt lat="43.61731" lon="3.78236">
        <ele>82.9</ele>
        <time>2021-02-07T12:32:25Z</time>
      </trkpt>
      <trkpt lat="43.61732" lon="3.78233">
        <ele>83</ele>
        <time>2021-02-07T12:32:26Z</time>
      </trkpt>
      <trkpt lat="43.61733" lon="3.78229">
        <ele>83.1</ele>
        <time>2021-02-07T12:32:27Z</time>
      </trkpt>
      <trkpt lat="43.61733" lon="3.78226">
        <ele>83.2</ele>
        <time>2021-02-07T12:32:28Z</time>
      </trkpt>
      <trkpt lat="43.61734" lon="3.78223">
        <ele>83.3</ele>
        <time>2021-02-07T12:32:29Z</time>
      </trkpt>
      <trkpt lat="43.61735" lon="3.78219">
        <ele>83.2</ele>
        <time>2021-02-07T12:32:30Z</time>
      </trkpt>
      <trkpt lat="43.61736" lon="3.78216">
        <ele>83.1</ele>
        <time>2021-02-07T12:32:31Z</time>
      </trkpt>
      <trkpt lat="43.61737" lon="3.78212">
        <ele>83.1</ele>
        <time>2021-02-07T12:32:32Z</time>
      </trkpt>
      <trkpt lat="43.61738" lon="3.78209">
        <ele>84</ele>
        <time>2021-02-07T12:32:33Z</time>
      </trkpt>
      <trkpt lat="43.61739" lon="3.78206">
        <ele>82.9</ele>
        <time>2021-02-07T12:32:34Z</time>
      </trkpt>
      <trkpt lat="43.6174" lon="3.78202">
        <ele>82.9</ele>
        <time>2021-02-07T12:32:35Z</time>
      </trkpt>
      <trkpt lat="43.61741" lon="3.78199">
        <ele>82.9</ele>
        <time>2021-02-07T12:32:36Z</time>
      </trkpt>
      <trkpt lat="43.61741" lon="3.78196">
        <ele>82.9</ele>
        <time>2021-02-07T12:32:37Z</time>
      </trkpt>
      <trkpt lat="43.61742" lon="3.78192">
        <ele>83</ele>
        <time>2021-02-07T12:32:38Z</time>
      </trkpt>
      <trkpt lat="43.61743" lon="3.78189">
        <ele>83.1</ele>
        <time>2021-02-07T12:32:39Z</time>
      </trkpt>
      <trkpt lat="43.61744" lon="3.78186">
        <ele>83.2</ele>
        <time>2021-02-07T12:32:40Z</time>
      </trkpt>
      <trkpt lat="43.61744" lon="3.78183">
        <ele>83.4</ele>
        <time>2021-02-07T12:32:41Z</time>
      </trkpt>
      <trkpt lat="43.61745" lon="3.7818">
        <ele>83.5</ele>
        <time>2021-02-07T12:32:42Z</time>
      </trkpt>
      <trkpt lat="43.61746" lon="3.78176">
        <ele>85</ele>
        <time>2021-02-07T12:32:43Z</time>
      </trkpt>
      <trkpt lat="43.61746" lon="3.78173">
        <ele>83.9</ele>
        <time>2021-02-07T12:32:44Z</time>
      </trkpt>
      <trkpt lat="43.61747" lon="3.78169">
        <ele>84.1</ele>
        <time>2021-02-07T12:32:45Z</time>
      </trkpt>
      <trkpt lat="43.61747" lon="3.78166">
        <ele>84.2</ele>
        <time>2021-02-07T12:32:46Z</time>
      </trkpt>
      <trkpt lat="43.61748" lon="3.78163">
        <ele>84.3</ele>
        <time>2021-02-07T12:32:47Z</time>
      </trkpt>
      <trkpt lat="43.61749" lon="3.78159">
        <ele>84.4</ele>
        <time>2021-02-07T12:32:48Z</time>
      </trkpt>
      <trkpt lat="43.6175" lon="3.78156">
        <ele>84.4</ele>
        <time>2021-02-07T12:32:49Z</time>
      </trkpt>
      <trkpt lat="43.6175" lon="3.78152">
        <ele>84.5</ele>
        <time>2021-02-07T12:32:50Z</time>
      </trkpt>
      <trkpt lat="43.61751" lon="3.78149">
        <ele>84.5</ele>
        <time>2021-02-07T12:32:51Z</time>
      </trkpt>
      <trkpt lat="43.61752" lon="3.78145">
        <ele>84.5</ele>
        <time>2021-02-07T12:32:52Z</time>
      </trkpt>
      <trkpt lat="43.61753" lon="3.78142">
        <ele>84.5</ele>
        <time>2021-02-07T12:32:53Z</time>
      </trkpt>
      <trkpt lat="43.61754" lon="3.78139">
        <ele>86</ele>
        <time>2021-02-07T12:32:54Z</time>
      </trkpt>
      <trkpt lat="43.61755" lon="3.78136">
        <ele>84.5</ele>
        <time>2021-02-07T12:32:55Z</time>
      </trkpt>
      <trkpt lat="43.61756" lon="3.78132">
        <ele>84.6</ele>
        <time>2021-02-07T12:32:56Z</time>
      </trkpt>
      <trkpt lat="43.61757" lon="3.78129">
        <ele>84.7</ele>
        <time>2021-02-07T12:32:57Z</time>
      </trkpt>
      <trkpt lat="43.61758" lon="3.78125">
        <ele>84.8</ele>
        <time>2021-02-07T12:32:58Z</time>
      </trkpt>
      <trkpt lat="43.61759" lon="3.78122">
        <ele>84.9</ele>
        <time>2021-02-07T12:32:59Z</time>
      </trkpt>
      <trkpt lat="43.6176" lon="3.78119">
        <ele>85</ele>
        <time>2021-02-07T12:33:00Z</time>
      </trkpt>
      <trkpt lat="43.61761" lon="3.78116">
        <ele>85.1</ele>
        <time>2021-02-07T12:33:01Z</time>
      </trkpt>
      <trkpt lat="43.61763" lon="3.78113">
        <ele>85</ele>
        <time>2021-02-07T12:33:02Z</time>
      </trkpt>
      <trkpt lat="43.61764" lon="3.7811">
        <ele>86</ele>
        <time>2021-02-07T12:33:03Z</time>
      </trkpt>
      <trkpt lat="43.61765" lon="3.78107">
        <ele>85.1</ele>
        <time>2021-02-07T12:33:04Z</time>
      </trkpt>
      <trkpt lat="43.61767" lon="3.78104">
        <ele>85.1</ele>
        <time>2021-02-07T12:33:05Z</time>
      </trkpt>
      <trkpt lat="43.61768" lon="3.78101">
        <ele>85.2</ele>
        <time>2021-02-07T12:33:06Z</time>
      </trkpt>
      <trkpt lat="43.6177" lon="3.78098">
        <ele>85.3</ele>
        <time>2021-02-07T12:33:07Z</time>
      </trkpt>
      <trkpt lat="43.61771" lon="3.78095">
        <ele>85.4</ele>
        <time>2021-02-07T12:33:08Z</time>
      </trkpt>
      <trkpt lat="43.61773" lon="3.78092">
        <ele>85.5</ele>
        <time>2021-02-07T12:33:09Z</time>
      </trkpt>
      <trkpt lat="43.61774" lon="3.78089">
        <ele>85.7</ele>
        <time>2021-02-07T12:33:10Z</time>
      </trkpt>
      <trkpt lat="43.61776" lon="3.78086">
        <ele>85.9</ele>
        <time>2021-02-07T12:33:11Z</time>
      </trkpt>
      <trkpt lat="43.61778" lon="3.78084">
        <ele>85.9</ele>
        <time>2021-02-07T12:33:12Z</time>
      </trkpt>
      <trkpt lat="43.6178" lon="3.78082">
        <ele>86</ele>
        <time>2021-02-07T12:33:13Z</time>
      </trkpt>
      <trkpt lat="43.61782" lon="3.78079">
        <ele>85.9</ele>
        <time>2021-02-07T12:33:14Z</time>
      </trkpt>
      <trkpt lat="43.61784" lon="3.78077">
        <ele>85.8</ele>
        <time>2021-02-07T12:33:15Z</time>
      </trkpt>
      <trkpt lat="43.61786" lon="3.78074">
        <ele>85.8</ele>
        <time>2021-02-07T12:33:16Z</time>
      </trkpt>
      <trkpt lat="43.61788" lon="3.78072">
        <ele>85.7</ele>
        <time>2021-02-07T12:33:17Z</time>
      </trkpt>
      <trkpt lat="43.6179" lon="3.7807">
        <ele>85.6</ele>
        <time>2021-02-07T12:33:18Z</time>
      </trkpt>
      <trkpt lat="43.61792" lon="3.78068">
        <ele>85.6</ele>
        <time>2021-02-07T12:33:19Z</time>
      </trkpt>
      <trkpt lat="43.61795" lon="3.78066">
        <ele>85.4</ele>
        <time>2021-02-07T12:33:20Z</time>
      </trkpt>
      <trkpt lat="43.61797" lon="3.78064">
        <ele>85.3</ele>
        <time>2021-02-07T12:33:21Z</time>
      </trkpt>
      <trkpt lat="43.61799" lon="3.78062">
        <ele>85.2</ele>
        <time>2021-02-07T12:33:22Z</time>
      </trkpt>
      <trkpt lat="43.61801" lon="3.7806">
        <ele>86</ele>
        <time>2021-02-07T12:33:23Z</time>
      </trkpt>
      <trkpt lat="43.61804" lon="3.78058">
        <ele>85</ele>
        <time>2021-02-07T12:33:24Z</time>
      </trkpt>
      <trkpt lat="43.61806" lon="3.78055">
        <ele>85</ele>
        <time>2021-02-07T12:33:25Z</time>
      </trkpt>
      <trkpt lat="43.61808" lon="3.78052">
        <ele>85.1</ele>
        <time>2021-02-07T12:33:26Z</time>
      </trkpt>
      <trkpt lat="43.6181" lon="3.78049">
        <ele>85.2</ele>
        <time>2021-02-07T12:33:27Z</time>
      </trkpt>
      <trkpt lat="43.61812" lon="3.78046">
        <ele>85.2</ele>
        <time>2021-02-07T12:33:28Z</time>
      </trkpt>
      <trkpt lat="43.61814" lon="3.78043">
        <ele>85.3</ele>
        <time>2021-02-07T12:33:29Z</time>
      </trkpt>
      <trkpt lat="43.61816" lon="3.7804">
        <ele>85.4</ele>
        <time>2021-02-07T12:33:30Z</time>
      </trkpt>
      <trkpt lat="43.61818" lon="3.78037">
        <ele>85.4</ele>
        <time>2021-02-07T12:33:31Z</time>
      </trkpt>
      <trkpt lat="43.6182" lon="3.78033">
        <ele>85.6</ele>
        <time>2021-02-07T12:33:32Z</time>
      </trkpt>
      <trkpt lat="43.61822" lon="3.7803">
        <ele>85.7</ele>
        <time>2021-02-07T12:33:33Z</time>
      </trkpt>
      <trkpt lat="43.61824" lon="3.78023">
        <ele>86</ele>
        <time>2021-02-07T12:33:34Z</time>
      </trkpt>
      <trkpt lat="43.61826" lon="3.78017">
        <ele>86.2</ele>
        <time>2021-02-07T12:33:36Z</time>
      </trkpt>
      <trkpt lat="43.61826" lon="3.78013">
        <ele>86.5</ele>
        <time>2021-02-07T12:33:37Z</time>
      </trkpt>
      <trkpt lat="43.61827" lon="3.7801">
        <ele>86.6</ele>
        <time>2021-02-07T12:33:38Z</time>
      </trkpt>
      <trkpt lat="43.61829" lon="3.78003">
        <ele>87</ele>
        <time>2021-02-07T12:33:40Z</time>
      </trkpt>
      <trkpt lat="43.6183" lon="3.78">
        <ele>87.1</ele>
        <time>2021-02-07T12:33:41Z</time>
      </trkpt>
      <trkpt lat="43.61831" lon="3.77997">
        <ele>87.2</ele>
        <time>2021-02-07T12:33:42Z</time>
      </trkpt>
      <trkpt lat="43.61832" lon="3.77993">
        <ele>87.3</ele>
        <time>2021-02-07T12:33:44Z</time>
      </trkpt>
      <trkpt lat="43.61833" lon="3.7799">
        <ele>87.4</ele>
        <time>2021-02-07T12:33:45Z</time>
      </trkpt>
      <trkpt lat="43.61833" lon="3.77987">
        <ele>87.5</ele>
        <time>2021-02-07T12:33:46Z</time>
      </trkpt>
      <trkpt lat="43.61834" lon="3.77984">
        <ele>87.6</ele>
        <time>2021-02-07T12:33:47Z</time>
      </trkpt>
      <trkpt lat="43.61835" lon="3.7798">
        <ele>87.7</ele>
        <time>2021-02-07T12:33:48Z</time>
      </trkpt>
      <trkpt lat="43.61836" lon="3.77977">
        <ele>87.8</ele>
        <time>2021-02-07T12:33:49Z</time>
      </trkpt>
      <trkpt lat="43.61836" lon="3.77974">
        <ele>87.9</ele>
        <time>2021-02-07T12:33:50Z</time>
      </trkpt>
      <trkpt lat="43.61837" lon="3.77971">
        <ele>88.1</ele>
        <time>2021-02-07T12:33:51Z</time>
      </trkpt>
      <trkpt lat="43.61837" lon="3.77967">
        <ele>88.4</ele>
        <time>2021-02-07T12:33:52Z</time>
      </trkpt>
      <trkpt lat="43.61837" lon="3.77964">
        <ele>87</ele>
        <time>2021-02-07T12:33:53Z</time>
      </trkpt>
      <trkpt lat="43.61837" lon="3.77961">
        <ele>88.8</ele>
        <time>2021-02-07T12:33:54Z</time>
      </trkpt>
      <trkpt lat="43.61837" lon="3.77957">
        <ele>89</ele>
        <time>2021-02-07T12:33:55Z</time>
      </trkpt>
      <trkpt lat="43.61838" lon="3.77954">
        <ele>89.2</ele>
        <time>2021-02-07T12:33:56Z</time>
      </trkpt>
      <trkpt lat="43.61838" lon="3.77951">
        <ele>89.4</ele>
        <time>2021-02-07T12:33:57Z</time>
      </trkpt>
      <trkpt lat="43.61838" lon="3.77947">
        <ele>89.7</ele>
        <time>2021-02-07T12:33:58Z</time>
      </trkpt>
      <trkpt lat="43.61837" lon="3.77944">
        <ele>89.9</ele>
        <time>2021-02-07T12:33:59Z</time>
      </trkpt>
      <trkpt lat="43.61837" lon="3.77941">
        <ele>90</ele>
        <time>2021-02-07T12:34:00Z</time>
      </trkpt>
      <trkpt lat="43.61837" lon="3.77937">
        <ele>90.1</ele>
        <time>2021-02-07T12:34:01Z</time>
      </trkpt>
      <trkpt lat="43.61838" lon="3.77934">
        <ele>90.1</ele>
        <time>2021-02-07T12:34:02Z</time>
      </trkpt>
      <trkpt lat="43.61838" lon="3.77931">
        <ele>87</ele>
        <time>2021-02-07T12:34:03Z</time>
      </trkpt>
      <trkpt lat="43.61838" lon="3.77927">
        <ele>90.4</ele>
        <time>2021-02-07T12:34:04Z</time>
      </trkpt>
      <trkpt lat="43.61838" lon="3.77924">
        <ele>90.4</ele>
        <time>2021-02-07T12:34:05Z</time>
      </trkpt>
      <trkpt lat="43.61838" lon="3.77921">
        <ele>90.5</ele>
        <time>2021-02-07T12:34:06Z</time>
      </trkpt>
      <trkpt lat="43.61838" lon="3.77917">
        <ele>90.7</ele>
        <time>2021-02-07T12:34:07Z</time>
      </trkpt>
      <trkpt lat="43.61838" lon="3.77914">
        <ele>90.7</ele>
        <time>2021-02-07T12:34:08Z</time>
      </trkpt>
      <trkpt lat="43.61838" lon="3.77911">
        <ele>90.7</ele>
        <time>2021-02-07T12:34:09Z</time>
      </trkpt>
      <trkpt lat="43.61837" lon="3.77907">
        <ele>90.8</ele>
        <time>2021-02-07T12:34:10Z</time>
      </trkpt>
      <trkpt lat="43.61837" lon="3.77904">
        <ele>90.8</ele>
        <time>2021-02-07T12:34:11Z</time>
      </trkpt>
      <trkpt lat="43.61837" lon="3.779">
        <ele>90.8</ele>
        <time>2021-02-07T12:34:12Z</time>
      </trkpt>
      <trkpt lat="43.61837" lon="3.77897">
        <ele>90.8</ele>
        <time>2021-02-07T12:34:13Z</time>
      </trkpt>
      <trkpt lat="43.61837" lon="3.77894">
        <ele>88</ele>
        <time>2021-02-07T12:34:14Z</time>
      </trkpt>
      <trkpt lat="43.61837" lon="3.7789">
        <ele>90.9</ele>
        <time>2021-02-07T12:34:15Z</time>
      </trkpt>
      <trkpt lat="43.61837" lon="3.77887">
        <ele>90.9</ele>
        <time>2021-02-07T12:34:16Z</time>
      </trkpt>
      <trkpt lat="43.61837" lon="3.77883">
        <ele>90.8</ele>
        <time>2021-02-07T12:34:17Z</time>
      </trkpt>
      <trkpt lat="43.61837" lon="3.7788">
        <ele>90.8</ele>
        <time>2021-02-07T12:34:18Z</time>
      </trkpt>
      <trkpt lat="43.61837" lon="3.77877">
        <ele>90.8</ele>
        <time>2021-02-07T12:34:19Z</time>
      </trkpt>
      <trkpt lat="43.61837" lon="3.77875">
        <ele>90.8</ele>
        <time>2021-02-07T12:34:20Z</time>
      </trkpt>
      <trkpt lat="43.61836" lon="3.77872">
        <ele>90.8</ele>
        <time>2021-02-07T12:34:21Z</time>
      </trkpt>
      <trkpt lat="43.61834" lon="3.7787">
        <ele>91</ele>
        <time>2021-02-07T12:34:22Z</time>
      </trkpt>
      <trkpt lat="43.61832" lon="3.77868">
        <ele>89</ele>
        <time>2021-02-07T12:34:23Z</time>
      </trkpt>
      <trkpt lat="43.6183" lon="3.77867">
        <ele>91.3</ele>
        <time>2021-02-07T12:34:24Z</time>
      </trkpt>
      <trkpt lat="43.61828" lon="3.77867">
        <ele>91.5</ele>
        <time>2021-02-07T12:34:25Z</time>
      </trkpt>
      <trkpt lat="43.61826" lon="3.77866">
        <ele>91.7</ele>
        <time>2021-02-07T12:34:26Z</time>
      </trkpt>
      <trkpt lat="43.61824" lon="3.77865">
        <ele>92</ele>
        <time>2021-02-07T12:34:27Z</time>
      </trkpt>
      <trkpt lat="43.61822" lon="3.77865">
        <ele>92.2</ele>
        <time>2021-02-07T12:34:28Z</time>
      </trkpt>
      <trkpt lat="43.6182" lon="3.77865">
        <ele>92.4</ele>
        <time>2021-02-07T12:34:29Z</time>
      </trkpt>
      <trkpt lat="43.61818" lon="3.77865">
        <ele>92.6</ele>
        <time>2021-02-07T12:34:30Z</time>
      </trkpt>
      <trkpt lat="43.61816" lon="3.77865">
        <ele>92.8</ele>
        <time>2021-02-07T12:34:31Z</time>
      </trkpt>
      <trkpt lat="43.61814" lon="3.77865">
        <ele>93</ele>
        <time>2021-02-07T12:34:32Z</time>
      </trkpt>
      <trkpt lat="43.61812" lon="3.77865">
        <ele>90</ele>
        <time>2021-02-07T12:34:33Z</time>
      </trkpt>
      <trkpt lat="43.6181" lon="3.77865">
        <ele>93.4</ele>
        <time>2021-02-07T12:34:34Z</time>
      </trkpt>
      <trkpt lat="43.61808" lon="3.77865">
        <ele>93.6</ele>
        <time>2021-02-07T12:34:35Z</time>
      </trkpt>
      <trkpt lat="43.61806" lon="3.77865">
        <ele>93.8</ele>
        <time>2021-02-07T12:34:36Z</time>
      </trkpt>
      <trkpt lat="43.61804" lon="3.77865">
        <ele>93.9</ele>
        <time>2021-02-07T12:34:37Z</time>
      </trkpt>
      <trkpt lat="43.61802" lon="3.77866">
        <ele>94</ele>
        <time>2021-02-07T12:34:38Z</time>
      </trkpt>
      <trkpt lat="43.618" lon="3.77866">
        <ele>94</ele>
        <time>2021-02-07T12:34:39Z</time>
      </trkpt>
      <trkpt lat="43.61798" lon="3.77866">
        <ele>94.1</ele>
        <time>2021-02-07T12:34:40Z</time>
      </trkpt>
      <trkpt lat="43.61796" lon="3.77865">
        <ele>94.2</ele>
        <time>2021-02-07T12:34:41Z</time>
      </trkpt>
      <trkpt lat="43.61794" lon="3.77863">
        <ele>94.3</ele>
        <time>2021-02-07T12:34:42Z</time>
      </trkpt>
      <trkpt lat="43.61793" lon="3.77861">
        <ele>91</ele>
        <time>2021-02-07T12:34:43Z</time>
      </trkpt>
      <trkpt lat="43.61792" lon="3.77858">
        <ele>94.7</ele>
        <time>2021-02-07T12:34:44Z</time>
      </trkpt>
      <trkpt lat="43.61791" lon="3.77855">
        <ele>95</ele>
        <time>2021-02-07T12:34:45Z</time>
      </trkpt>
      <trkpt lat="43.6179" lon="3.77852">
        <ele>95.3</ele>
        <time>2021-02-07T12:34:46Z</time>
      </trkpt>
      <trkpt lat="43.6179" lon="3.77849">
        <ele>95.5</ele>
        <time>2021-02-07T12:34:47Z</time>
      </trkpt>
      <trkpt lat="43.6179" lon="3.77846">
        <ele>95.8</ele>
        <time>2021-02-07T12:34:48Z</time>
      </trkpt>
      <trkpt lat="43.61789" lon="3.77844">
        <ele>96.1</ele>
        <time>2021-02-07T12:34:49Z</time>
      </trkpt>
      <trkpt lat="43.61789" lon="3.77841">
        <ele>96.3</ele>
        <time>2021-02-07T12:34:50Z</time>
      </trkpt>
      <trkpt lat="43.6179" lon="3.77838">
        <ele>96.4</ele>
        <time>2021-02-07T12:34:51Z</time>
      </trkpt>
      <trkpt lat="43.6179" lon="3.77835">
        <ele>96.7</ele>
        <time>2021-02-07T12:34:52Z</time>
      </trkpt>
      <trkpt lat="43.61791" lon="3.77832">
        <ele>91</ele>
        <time>2021-02-07T12:34:53Z</time>
      </trkpt>
      <trkpt lat="43.61792" lon="3.77829">
        <ele>96.5</ele>
        <time>2021-02-07T12:34:54Z</time>
      </trkpt>
      <trkpt lat="43.61793" lon="3.77827">
        <ele>96.4</ele>
        <time>2021-02-07T12:34:55Z</time>
      </trkpt>
      <trkpt lat="43.61793" lon="3.77824">
        <ele>96.4</ele>
        <time>2021-02-07T12:34:56Z</time>
      </trkpt>
      <trkpt lat="43.61794" lon="3.77821">
        <ele>96.3</ele>
        <time>2021-02-07T12:34:57Z</time>
      </trkpt>
      <trkpt lat="43.61795" lon="3.77819">
        <ele>96.2</ele>
        <time>2021-02-07T12:34:58Z</time>
      </trkpt>
      <trkpt lat="43.61795" lon="3.77816">
        <ele>96.3</ele>
        <time>2021-02-07T12:34:59Z</time>
      </trkpt>
      <trkpt lat="43.61796" lon="3.77813">
        <ele>96.2</ele>
        <time>2021-02-07T12:35:00Z</time>
      </trkpt>
      <trkpt lat="43.61797" lon="3.7781">
        <ele>96.1</ele>
        <time>2021-02-07T12:35:01Z</time>
      </trkpt>
      <trkpt lat="43.61797" lon="3.77807">
        <ele>96.2</ele>
        <time>2021-02-07T12:35:02Z</time>
      </trkpt>
      <trkpt lat="43.61798" lon="3.77804">
        <ele>92</ele>
        <time>2021-02-07T12:35:03Z</time>
      </trkpt>
      <trkpt lat="43.61799" lon="3.77801">
        <ele>96.1</ele>
        <time>2021-02-07T12:35:04Z</time>
      </trkpt>
      <trkpt lat="43.61799" lon="3.77798">
        <ele>96.2</ele>
        <time>2021-02-07T12:35:05Z</time>
      </trkpt>
      <trkpt lat="43.618" lon="3.77795">
        <ele>96.1</ele>
        <time>2021-02-07T12:35:06Z</time>
      </trkpt>
      <trkpt lat="43.618" lon="3.77792">
        <ele>96.2</ele>
        <time>2021-02-07T12:35:07Z</time>
      </trkpt>
      <trkpt lat="43.61801" lon="3.77788">
        <ele>96.2</ele>
        <time>2021-02-07T12:35:08Z</time>
      </trkpt>
      <trkpt lat="43.61802" lon="3.77785">
        <ele>96.2</ele>
        <time>2021-02-07T12:35:09Z</time>
      </trkpt>
      <trkpt lat="43.61802" lon="3.77782">
        <ele>96.3</ele>
        <time>2021-02-07T12:35:10Z</time>
      </trkpt>
      <trkpt lat="43.61803" lon="3.77779">
        <ele>96.2</ele>
        <time>2021-02-07T12:35:11Z</time>
      </trkpt>
      <trkpt lat="43.61804" lon="3.77776">
        <ele>96.2</ele>
        <time>2021-02-07T12:35:12Z</time>
      </trkpt>
      <trkpt lat="43.61804" lon="3.77772">
        <ele>93</ele>
        <time>2021-02-07T12:35:13Z</time>
      </trkpt>
      <trkpt lat="43.61805" lon="3.77769">
        <ele>96.4</ele>
        <time>2021-02-07T12:35:14Z</time>
      </trkpt>
      <trkpt lat="43.61806" lon="3.77766">
        <ele>96.4</ele>
        <time>2021-02-07T12:35:15Z</time>
      </trkpt>
      <trkpt lat="43.61807" lon="3.77763">
        <ele>96.4</ele>
        <time>2021-02-07T12:35:16Z</time>
      </trkpt>
      <trkpt lat="43.61808" lon="3.77759">
        <ele>96.4</ele>
        <time>2021-02-07T12:35:17Z</time>
      </trkpt>
      <trkpt lat="43.61809" lon="3.77756">
        <ele>96.4</ele>
        <time>2021-02-07T12:35:18Z</time>
      </trkpt>
      <trkpt lat="43.61809" lon="3.77753">
        <ele>96.5</ele>
        <time>2021-02-07T12:35:19Z</time>
      </trkpt>
      <trkpt lat="43.6181" lon="3.77749">
        <ele>96.6</ele>
        <time>2021-02-07T12:35:20Z</time>
      </trkpt>
      <trkpt lat="43.61811" lon="3.77746">
        <ele>96.6</ele>
        <time>2021-02-07T12:35:21Z</time>
      </trkpt>
      <trkpt lat="43.61812" lon="3.77743">
        <ele>96.6</ele>
        <time>2021-02-07T12:35:22Z</time>
      </trkpt>
      <trkpt lat="43.61812" lon="3.77739">
        <ele>95</ele>
        <time>2021-02-07T12:35:23Z</time>
      </trkpt>
      <trkpt lat="43.61813" lon="3.77736">
        <ele>96.7</ele>
        <time>2021-02-07T12:35:24Z</time>
      </trkpt>
      <trkpt lat="43.61814" lon="3.77733">
        <ele>96.7</ele>
        <time>2021-02-07T12:35:25Z</time>
      </trkpt>
      <trkpt lat="43.61814" lon="3.7773">
        <ele>96.8</ele>
        <time>2021-02-07T12:35:26Z</time>
      </trkpt>
      <trkpt lat="43.61815" lon="3.77727">
        <ele>96.8</ele>
        <time>2021-02-07T12:35:27Z</time>
      </trkpt>
      <trkpt lat="43.61816" lon="3.77724">
        <ele>96.8</ele>
        <time>2021-02-07T12:35:28Z</time>
      </trkpt>
      <trkpt lat="43.61818" lon="3.77721">
        <ele>96.7</ele>
        <time>2021-02-07T12:35:29Z</time>
      </trkpt>
      <trkpt lat="43.61819" lon="3.77718">
        <ele>96.8</ele>
        <time>2021-02-07T12:35:30Z</time>
      </trkpt>
      <trkpt lat="43.6182" lon="3.77716">
        <ele>96.8</ele>
        <time>2021-02-07T12:35:31Z</time>
      </trkpt>
      <trkpt lat="43.61821" lon="3.77713">
        <ele>96.8</ele>
        <time>2021-02-07T12:35:32Z</time>
      </trkpt>
      <trkpt lat="43.61821" lon="3.7771">
        <ele>96</ele>
        <time>2021-02-07T12:35:33Z</time>
      </trkpt>
      <trkpt lat="43.61822" lon="3.77707">
        <ele>97.1</ele>
        <time>2021-02-07T12:35:34Z</time>
      </trkpt>
      <trkpt lat="43.61823" lon="3.77704">
        <ele>97.2</ele>
        <time>2021-02-07T12:35:35Z</time>
      </trkpt>
      <trkpt lat="43.61824" lon="3.77701">
        <ele>97.3</ele>
        <time>2021-02-07T12:35:36Z</time>
      </trkpt>
      <trkpt lat="43.61825" lon="3.77698">
        <ele>97.4</ele>
        <time>2021-02-07T12:35:37Z</time>
      </trkpt>
      <trkpt lat="43.61825" lon="3.77695">
        <ele>97.6</ele>
        <time>2021-02-07T12:35:38Z</time>
      </trkpt>
      <trkpt lat="43.61826" lon="3.77691">
        <ele>97.7</ele>
        <time>2021-02-07T12:35:39Z</time>
      </trkpt>
      <trkpt lat="43.61827" lon="3.77688">
        <ele>97.7</ele>
        <time>2021-02-07T12:35:40Z</time>
      </trkpt>
      <trkpt lat="43.61827" lon="3.77684">
        <ele>97.8</ele>
        <time>2021-02-07T12:35:41Z</time>
      </trkpt>
      <trkpt lat="43.61828" lon="3.77681">
        <ele>97.9</ele>
        <time>2021-02-07T12:35:42Z</time>
      </trkpt>
      <trkpt lat="43.61828" lon="3.77678">
        <ele>97</ele>
        <time>2021-02-07T12:35:43Z</time>
      </trkpt>
      <trkpt lat="43.61829" lon="3.77674">
        <ele>98</ele>
        <time>2021-02-07T12:35:44Z</time>
      </trkpt>
      <trkpt lat="43.61829" lon="3.77671">
        <ele>98.2</ele>
        <time>2021-02-07T12:35:45Z</time>
      </trkpt>
      <trkpt lat="43.6183" lon="3.77667">
        <ele>98.2</ele>
        <time>2021-02-07T12:35:46Z</time>
      </trkpt>
      <trkpt lat="43.6183" lon="3.77664">
        <ele>98.2</ele>
        <time>2021-02-07T12:35:47Z</time>
      </trkpt>
      <trkpt lat="43.61832" lon="3.77661">
        <ele>98.1</ele>
        <time>2021-02-07T12:35:48Z</time>
      </trkpt>
      <trkpt lat="43.61833" lon="3.77659">
        <ele>98</ele>
        <time>2021-02-07T12:35:49Z</time>
      </trkpt>
      <trkpt lat="43.61835" lon="3.77656">
        <ele>97.8</ele>
        <time>2021-02-07T12:35:50Z</time>
      </trkpt>
      <trkpt lat="43.61836" lon="3.77654">
        <ele>97.8</ele>
        <time>2021-02-07T12:35:51Z</time>
      </trkpt>
      <trkpt lat="43.61837" lon="3.77651">
        <ele>97.7</ele>
        <time>2021-02-07T12:35:52Z</time>
      </trkpt>
      <trkpt lat="43.61838" lon="3.77649">
        <ele>98</ele>
        <time>2021-02-07T12:35:53Z</time>
      </trkpt>
      <trkpt lat="43.61839" lon="3.77646">
        <ele>97.5</ele>
        <time>2021-02-07T12:35:54Z</time>
      </trkpt>
      <trkpt lat="43.61839" lon="3.77643">
        <ele>97.6</ele>
        <time>2021-02-07T12:35:55Z</time>
      </trkpt>
      <trkpt lat="43.6184" lon="3.7764">
        <ele>97.5</ele>
        <time>2021-02-07T12:35:56Z</time>
      </trkpt>
      <trkpt lat="43.61841" lon="3.77638">
        <ele>97.5</ele>
        <time>2021-02-07T12:35:57Z</time>
      </trkpt>
      <trkpt lat="43.61842" lon="3.77635">
        <ele>97.6</ele>
        <time>2021-02-07T12:35:58Z</time>
      </trkpt>
      <trkpt lat="43.61843" lon="3.77633">
        <ele>97.7</ele>
        <time>2021-02-07T12:35:59Z</time>
      </trkpt>
      <trkpt lat="43.61845" lon="3.77629">
        <ele>97.7</ele>
        <time>2021-02-07T12:36:00Z</time>
      </trkpt>
      <trkpt lat="43.61846" lon="3.77626">
        <ele>97.8</ele>
        <time>2021-02-07T12:36:01Z</time>
      </trkpt>
      <trkpt lat="43.61847" lon="3.77623">
        <ele>97.9</ele>
        <time>2021-02-07T12:36:02Z</time>
      </trkpt>
      <trkpt lat="43.61849" lon="3.7762">
        <ele>99</ele>
        <time>2021-02-07T12:36:03Z</time>
      </trkpt>
      <trkpt lat="43.6185" lon="3.77617">
        <ele>97.9</ele>
        <time>2021-02-07T12:36:04Z</time>
      </trkpt>
      <trkpt lat="43.6185" lon="3.77613">
        <ele>98.1</ele>
        <time>2021-02-07T12:36:05Z</time>
      </trkpt>
      <trkpt lat="43.61851" lon="3.7761">
        <ele>98.2</ele>
        <time>2021-02-07T12:36:06Z</time>
      </trkpt>
      <trkpt lat="43.61852" lon="3.77607">
        <ele>98.2</ele>
        <time>2021-02-07T12:36:07Z</time>
      </trkpt>
      <trkpt lat="43.61852" lon="3.77604">
        <ele>98.4</ele>
        <time>2021-02-07T12:36:08Z</time>
      </trkpt>
      <trkpt lat="43.61853" lon="3.77601">
        <ele>98.5</ele>
        <time>2021-02-07T12:36:09Z</time>
      </trkpt>
      <trkpt lat="43.61854" lon="3.77598">
        <ele>98.6</ele>
        <time>2021-02-07T12:36:10Z</time>
      </trkpt>
      <trkpt lat="43.61854" lon="3.77595">
        <ele>98.8</ele>
        <time>2021-02-07T12:36:11Z</time>
      </trkpt>
      <trkpt lat="43.61855" lon="3.77592">
        <ele>98.9</ele>
        <time>2021-02-07T12:36:12Z</time>
      </trkpt>
      <trkpt lat="43.61856" lon="3.77589">
        <ele>100</ele>
        <time>2021-02-07T12:36:13Z</time>
      </trkpt>
      <trkpt lat="43.61856" lon="3.77586">
        <ele>99.2</ele>
        <time>2021-02-07T12:36:14Z</time>
      </trkpt>
      <trkpt lat="43.61857" lon="3.77583">
        <ele>99.3</ele>
        <time>2021-02-07T12:36:15Z</time>
      </trkpt>
      <trkpt lat="43.61858" lon="3.7758">
        <ele>99.4</ele>
        <time>2021-02-07T12:36:16Z</time>
      </trkpt>
      <trkpt lat="43.61858" lon="3.77577">
        <ele>99.6</ele>
        <time>2021-02-07T12:36:17Z</time>
      </trkpt>
      <trkpt lat="43.61859" lon="3.77574">
        <ele>99.8</ele>
        <time>2021-02-07T12:36:18Z</time>
      </trkpt>
      <trkpt lat="43.6186" lon="3.77571">
        <ele>99.9</ele>
        <time>2021-02-07T12:36:19Z</time>
      </trkpt>
      <trkpt lat="43.61861" lon="3.77568">
        <ele>100.1</ele>
        <time>2021-02-07T12:36:20Z</time>
      </trkpt>
      <trkpt lat="43.61862" lon="3.77566">
        <ele>100.1</ele>
        <time>2021-02-07T12:36:21Z</time>
      </trkpt>
      <trkpt lat="43.61863" lon="3.77563">
        <ele>100.2</ele>
        <time>2021-02-07T12:36:22Z</time>
      </trkpt>
      <trkpt lat="43.61864" lon="3.7756">
        <ele>100</ele>
        <time>2021-02-07T12:36:23Z</time>
      </trkpt>
      <trkpt lat="43.61864" lon="3.77557">
        <ele>100.5</ele>
        <time>2021-02-07T12:36:24Z</time>
      </trkpt>
      <trkpt lat="43.61865" lon="3.77555">
        <ele>100.5</ele>
        <time>2021-02-07T12:36:25Z</time>
      </trkpt>
      <trkpt lat="43.61865" lon="3.77552">
        <ele>100.6</ele>
        <time>2021-02-07T12:36:26Z</time>
      </trkpt>
      <trkpt lat="43.61866" lon="3.77549">
        <ele>100.5</ele>
        <time>2021-02-07T12:36:27Z</time>
      </trkpt>
      <trkpt lat="43.61867" lon="3.77546">
        <ele>100.5</ele>
        <time>2021-02-07T12:36:28Z</time>
      </trkpt>
      <trkpt lat="43.61868" lon="3.77544">
        <ele>100.4</ele>
        <time>2021-02-07T12:36:29Z</time>
      </trkpt>
      <trkpt lat="43.61869" lon="3.7754">
        <ele>100.4</ele>
        <time>2021-02-07T12:36:31Z</time>
      </trkpt>
      <trkpt lat="43.6187" lon="3.77537">
        <ele>100.4</ele>
        <time>2021-02-07T12:36:32Z</time>
      </trkpt>
      <trkpt lat="43.61871" lon="3.77535">
        <ele>101</ele>
        <time>2021-02-07T12:36:33Z</time>
      </trkpt>
      <trkpt lat="43.61872" lon="3.77532">
        <ele>100.3</ele>
        <time>2021-02-07T12:36:34Z</time>
      </trkpt>
      <trkpt lat="43.61873" lon="3.77529">
        <ele>100.2</ele>
        <time>2021-02-07T12:36:35Z</time>
      </trkpt>
      <trkpt lat="43.61873" lon="3.77526">
        <ele>100.4</ele>
        <time>2021-02-07T12:36:36Z</time>
      </trkpt>
      <trkpt lat="43.61874" lon="3.77523">
        <ele>100.4</ele>
        <time>2021-02-07T12:36:37Z</time>
      </trkpt>
      <trkpt lat="43.61875" lon="3.7752">
        <ele>100.4</ele>
        <time>2021-02-07T12:36:38Z</time>
      </trkpt>
      <trkpt lat="43.61876" lon="3.77517">
        <ele>100.5</ele>
        <time>2021-02-07T12:36:39Z</time>
      </trkpt>
      <trkpt lat="43.61877" lon="3.77515">
        <ele>100.4</ele>
        <time>2021-02-07T12:36:40Z</time>
      </trkpt>
      <trkpt lat="43.61878" lon="3.77512">
        <ele>100.5</ele>
        <time>2021-02-07T12:36:41Z</time>
      </trkpt>
      <trkpt lat="43.61879" lon="3.77509">
        <ele>100.5</ele>
        <time>2021-02-07T12:36:42Z</time>
      </trkpt>
      <trkpt lat="43.61879" lon="3.77507">
        <ele>100.7</ele>
        <time>2021-02-07T12:36:43Z</time>
      </trkpt>
      <trkpt lat="43.6188" lon="3.77504">
        <ele>101</ele>
        <time>2021-02-07T12:36:44Z</time>
      </trkpt>
      <trkpt lat="43.61882" lon="3.77498">
        <ele>100.9</ele>
        <time>2021-02-07T12:36:45Z</time>
      </trkpt>
      <trkpt lat="43.61882" lon="3.77495">
        <ele>101</ele>
        <time>2021-02-07T12:36:46Z</time>
      </trkpt>
      <trkpt lat="43.61883" lon="3.77492">
        <ele>101.1</ele>
        <time>2021-02-07T12:36:47Z</time>
      </trkpt>
      <trkpt lat="43.61884" lon="3.77489">
        <ele>101.2</ele>
        <time>2021-02-07T12:36:48Z</time>
      </trkpt>
      <trkpt lat="43.61886" lon="3.77483">
        <ele>101.4</ele>
        <time>2021-02-07T12:36:50Z</time>
      </trkpt>
      <trkpt lat="43.61887" lon="3.7748">
        <ele>101.5</ele>
        <time>2021-02-07T12:36:51Z</time>
      </trkpt>
      <trkpt lat="43.61888" lon="3.77477">
        <ele>101.7</ele>
        <time>2021-02-07T12:36:52Z</time>
      </trkpt>
      <trkpt lat="43.61889" lon="3.77475">
        <ele>101.8</ele>
        <time>2021-02-07T12:36:54Z</time>
      </trkpt>
      <trkpt lat="43.6189" lon="3.77472">
        <ele>101.9</ele>
        <time>2021-02-07T12:36:55Z</time>
      </trkpt>
      <trkpt lat="43.61891" lon="3.77469">
        <ele>101.9</ele>
        <time>2021-02-07T12:36:56Z</time>
      </trkpt>
      <trkpt lat="43.61892" lon="3.77466">
        <ele>101.9</ele>
        <time>2021-02-07T12:36:57Z</time>
      </trkpt>
      <trkpt lat="43.61893" lon="3.77463">
        <ele>101.9</ele>
        <time>2021-02-07T12:36:58Z</time>
      </trkpt>
      <trkpt lat="43.61894" lon="3.7746">
        <ele>101.9</ele>
        <time>2021-02-07T12:36:59Z</time>
      </trkpt>
      <trkpt lat="43.61895" lon="3.77457">
        <ele>101.9</ele>
        <time>2021-02-07T12:37:00Z</time>
      </trkpt>
      <trkpt lat="43.61896" lon="3.77454">
        <ele>101.9</ele>
        <time>2021-02-07T12:37:01Z</time>
      </trkpt>
      <trkpt lat="43.61897" lon="3.77452">
        <ele>101.9</ele>
        <time>2021-02-07T12:37:02Z</time>
      </trkpt>
      <trkpt lat="43.61898" lon="3.77449">
        <ele>103</ele>
        <time>2021-02-07T12:37:03Z</time>
      </trkpt>
      <trkpt lat="43.61899" lon="3.77445">
        <ele>101.9</ele>
        <time>2021-02-07T12:37:05Z</time>
      </trkpt>
      <trkpt lat="43.61901" lon="3.77443">
        <ele>101.8</ele>
        <time>2021-02-07T12:37:07Z</time>
      </trkpt>
      <trkpt lat="43.61901" lon="3.7744">
        <ele>102</ele>
        <time>2021-02-07T12:37:09Z</time>
      </trkpt>
      <trkpt lat="43.619" lon="3.77438">
        <ele>102.3</ele>
        <time>2021-02-07T12:37:11Z</time>
      </trkpt>
      <trkpt lat="43.61899" lon="3.77435">
        <ele>102.6</ele>
        <time>2021-02-07T12:37:12Z</time>
      </trkpt>
      <trkpt lat="43.619" lon="3.77433">
        <ele>104</ele>
        <time>2021-02-07T12:37:13Z</time>
      </trkpt>
      <trkpt lat="43.61902" lon="3.7743">
        <ele>102.6</ele>
        <time>2021-02-07T12:37:14Z</time>
      </trkpt>
      <trkpt lat="43.61904" lon="3.77428">
        <ele>102.6</ele>
        <time>2021-02-07T12:37:15Z</time>
      </trkpt>
      <trkpt lat="43.61906" lon="3.77426">
        <ele>102.5</ele>
        <time>2021-02-07T12:37:16Z</time>
      </trkpt>
      <trkpt lat="43.61907" lon="3.77423">
        <ele>102.6</ele>
        <time>2021-02-07T12:37:17Z</time>
      </trkpt>
      <trkpt lat="43.61908" lon="3.77421">
        <ele>102.6</ele>
        <time>2021-02-07T12:37:18Z</time>
      </trkpt>
      <trkpt lat="43.61909" lon="3.77419">
        <ele>102.7</ele>
        <time>2021-02-07T12:37:19Z</time>
      </trkpt>
      <trkpt lat="43.6191" lon="3.77417">
        <ele>102.7</ele>
        <time>2021-02-07T12:37:20Z</time>
      </trkpt>
      <trkpt lat="43.61911" lon="3.77415">
        <ele>102.7</ele>
        <time>2021-02-07T12:37:21Z</time>
      </trkpt>
      <trkpt lat="43.61912" lon="3.77412">
        <ele>102.8</ele>
        <time>2021-02-07T12:37:22Z</time>
      </trkpt>
      <trkpt lat="43.61914" lon="3.7741">
        <ele>102.8</ele>
        <time>2021-02-07T12:37:23Z</time>
      </trkpt>
      <trkpt lat="43.61915" lon="3.77408">
        <ele>104</ele>
        <time>2021-02-07T12:37:24Z</time>
      </trkpt>
      <trkpt lat="43.61916" lon="3.77406">
        <ele>102.8</ele>
        <time>2021-02-07T12:37:25Z</time>
      </trkpt>
      <trkpt lat="43.61917" lon="3.77404">
        <ele>102.9</ele>
        <time>2021-02-07T12:37:26Z</time>
      </trkpt>
      <trkpt lat="43.61917" lon="3.77401">
        <ele>103.1</ele>
        <time>2021-02-07T12:37:27Z</time>
      </trkpt>
      <trkpt lat="43.61918" lon="3.77398">
        <ele>103.2</ele>
        <time>2021-02-07T12:37:28Z</time>
      </trkpt>
      <trkpt lat="43.61919" lon="3.77395">
        <ele>103.4</ele>
        <time>2021-02-07T12:37:29Z</time>
      </trkpt>
      <trkpt lat="43.6192" lon="3.77393">
        <ele>103.5</ele>
        <time>2021-02-07T12:37:30Z</time>
      </trkpt>
      <trkpt lat="43.61922" lon="3.77389">
        <ele>103.6</ele>
        <time>2021-02-07T12:37:32Z</time>
      </trkpt>
      <trkpt lat="43.61923" lon="3.77386">
        <ele>104</ele>
        <time>2021-02-07T12:37:33Z</time>
      </trkpt>
      <trkpt lat="43.61924" lon="3.77383">
        <ele>104.1</ele>
        <time>2021-02-07T12:37:34Z</time>
      </trkpt>
      <trkpt lat="43.61925" lon="3.7738">
        <ele>104.3</ele>
        <time>2021-02-07T12:37:35Z</time>
      </trkpt>
      <trkpt lat="43.61926" lon="3.77377">
        <ele>104.5</ele>
        <time>2021-02-07T12:37:36Z</time>
      </trkpt>
      <trkpt lat="43.61927" lon="3.77374">
        <ele>104.7</ele>
        <time>2021-02-07T12:37:37Z</time>
      </trkpt>
      <trkpt lat="43.61929" lon="3.77371">
        <ele>104.8</ele>
        <time>2021-02-07T12:37:38Z</time>
      </trkpt>
      <trkpt lat="43.6193" lon="3.77368">
        <ele>104.9</ele>
        <time>2021-02-07T12:37:39Z</time>
      </trkpt>
      <trkpt lat="43.61931" lon="3.77366">
        <ele>105</ele>
        <time>2021-02-07T12:37:40Z</time>
      </trkpt>
      <trkpt lat="43.61933" lon="3.77363">
        <ele>105.1</ele>
        <time>2021-02-07T12:37:41Z</time>
      </trkpt>
      <trkpt lat="43.61934" lon="3.7736">
        <ele>105.2</ele>
        <time>2021-02-07T12:37:42Z</time>
      </trkpt>
      <trkpt lat="43.61935" lon="3.77357">
        <ele>105</ele>
        <time>2021-02-07T12:37:43Z</time>
      </trkpt>
      <trkpt lat="43.61936" lon="3.77354">
        <ele>105.1</ele>
        <time>2021-02-07T12:37:44Z</time>
      </trkpt>
      <trkpt lat="43.61937" lon="3.77351">
        <ele>105.1</ele>
        <time>2021-02-07T12:37:45Z</time>
      </trkpt>
      <trkpt lat="43.61939" lon="3.77349">
        <ele>104.8</ele>
        <time>2021-02-07T12:37:46Z</time>
      </trkpt>
      <trkpt lat="43.6194" lon="3.77346">
        <ele>104.7</ele>
        <time>2021-02-07T12:37:47Z</time>
      </trkpt>
      <trkpt lat="43.61941" lon="3.77343">
        <ele>104.6</ele>
        <time>2021-02-07T12:37:48Z</time>
      </trkpt>
      <trkpt lat="43.61943" lon="3.7734">
        <ele>104.3</ele>
        <time>2021-02-07T12:37:49Z</time>
      </trkpt>
      <trkpt lat="43.61944" lon="3.77337">
        <ele>104.1</ele>
        <time>2021-02-07T12:37:50Z</time>
      </trkpt>
      <trkpt lat="43.61945" lon="3.77334">
        <ele>104</ele>
        <time>2021-02-07T12:37:51Z</time>
      </trkpt>
      <trkpt lat="43.61946" lon="3.77331">
        <ele>104.2</ele>
        <time>2021-02-07T12:37:52Z</time>
      </trkpt>
      <trkpt lat="43.61947" lon="3.77329">
        <ele>105</ele>
        <time>2021-02-07T12:37:53Z</time>
      </trkpt>
      <trkpt lat="43.61948" lon="3.77326">
        <ele>104.8</ele>
        <time>2021-02-07T12:37:54Z</time>
      </trkpt>
      <trkpt lat="43.6195" lon="3.77323">
        <ele>105</ele>
        <time>2021-02-07T12:37:55Z</time>
      </trkpt>
      <trkpt lat="43.61951" lon="3.7732">
        <ele>105.3</ele>
        <time>2021-02-07T12:37:56Z</time>
      </trkpt>
      <trkpt lat="43.61952" lon="3.77317">
        <ele>105.6</ele>
        <time>2021-02-07T12:37:57Z</time>
      </trkpt>
      <trkpt lat="43.61953" lon="3.77315">
        <ele>105.8</ele>
        <time>2021-02-07T12:37:58Z</time>
      </trkpt>
      <trkpt lat="43.61954" lon="3.77312">
        <ele>106.1</ele>
        <time>2021-02-07T12:37:59Z</time>
      </trkpt>
      <trkpt lat="43.61956" lon="3.77309">
        <ele>106.3</ele>
        <time>2021-02-07T12:38:00Z</time>
      </trkpt>
      <trkpt lat="43.61957" lon="3.77306">
        <ele>106.6</ele>
        <time>2021-02-07T12:38:01Z</time>
      </trkpt>
      <trkpt lat="43.61958" lon="3.77303">
        <ele>106.7</ele>
        <time>2021-02-07T12:38:02Z</time>
      </trkpt>
      <trkpt lat="43.61959" lon="3.773">
        <ele>106</ele>
        <time>2021-02-07T12:38:03Z</time>
      </trkpt>
      <trkpt lat="43.6196" lon="3.77297">
        <ele>106.8</ele>
        <time>2021-02-07T12:38:04Z</time>
      </trkpt>
      <trkpt lat="43.61961" lon="3.77295">
        <ele>106.7</ele>
        <time>2021-02-07T12:38:05Z</time>
      </trkpt>
      <trkpt lat="43.61962" lon="3.77292">
        <ele>106.8</ele>
        <time>2021-02-07T12:38:06Z</time>
      </trkpt>
      <trkpt lat="43.61963" lon="3.77289">
        <ele>106.8</ele>
        <time>2021-02-07T12:38:07Z</time>
      </trkpt>
      <trkpt lat="43.61965" lon="3.77286">
        <ele>106.7</ele>
        <time>2021-02-07T12:38:08Z</time>
      </trkpt>
      <trkpt lat="43.61966" lon="3.77283">
        <ele>106.7</ele>
        <time>2021-02-07T12:38:09Z</time>
      </trkpt>
      <trkpt lat="43.61967" lon="3.7728">
        <ele>106.7</ele>
        <time>2021-02-07T12:38:10Z</time>
      </trkpt>
      <trkpt lat="43.61968" lon="3.77277">
        <ele>106.6</ele>
        <time>2021-02-07T12:38:11Z</time>
      </trkpt>
      <trkpt lat="43.61969" lon="3.77274">
        <ele>106.6</ele>
        <time>2021-02-07T12:38:12Z</time>
      </trkpt>
      <trkpt lat="43.6197" lon="3.77272">
        <ele>107</ele>
        <time>2021-02-07T12:38:13Z</time>
      </trkpt>
      <trkpt lat="43.61972" lon="3.77269">
        <ele>106.4</ele>
        <time>2021-02-07T12:38:14Z</time>
      </trkpt>
      <trkpt lat="43.61973" lon="3.77266">
        <ele>106.3</ele>
        <time>2021-02-07T12:38:15Z</time>
      </trkpt>
      <trkpt lat="43.61975" lon="3.77263">
        <ele>106.1</ele>
        <time>2021-02-07T12:38:16Z</time>
      </trkpt>
      <trkpt lat="43.61977" lon="3.77261">
        <ele>105.9</ele>
        <time>2021-02-07T12:38:17Z</time>
      </trkpt>
      <trkpt lat="43.61979" lon="3.77258">
        <ele>105.7</ele>
        <time>2021-02-07T12:38:18Z</time>
      </trkpt>
      <trkpt lat="43.6198" lon="3.77255">
        <ele>105.7</ele>
        <time>2021-02-07T12:38:19Z</time>
      </trkpt>
      <trkpt lat="43.61981" lon="3.77251">
        <ele>105.7</ele>
        <time>2021-02-07T12:38:20Z</time>
      </trkpt>
      <trkpt lat="43.61982" lon="3.77248">
        <ele>105.7</ele>
        <time>2021-02-07T12:38:21Z</time>
      </trkpt>
      <trkpt lat="43.61983" lon="3.77245">
        <ele>105.7</ele>
        <time>2021-02-07T12:38:22Z</time>
      </trkpt>
      <trkpt lat="43.61984" lon="3.77242">
        <ele>108</ele>
        <time>2021-02-07T12:38:23Z</time>
      </trkpt>
      <trkpt lat="43.61986" lon="3.77239">
        <ele>105.6</ele>
        <time>2021-02-07T12:38:24Z</time>
      </trkpt>
      <trkpt lat="43.61987" lon="3.77236">
        <ele>105.6</ele>
        <time>2021-02-07T12:38:25Z</time>
      </trkpt>
      <trkpt lat="43.61988" lon="3.77233">
        <ele>105.6</ele>
        <time>2021-02-07T12:38:26Z</time>
      </trkpt>
      <trkpt lat="43.61989" lon="3.7723">
        <ele>105.6</ele>
        <time>2021-02-07T12:38:27Z</time>
      </trkpt>
      <trkpt lat="43.6199" lon="3.77227">
        <ele>105.6</ele>
        <time>2021-02-07T12:38:28Z</time>
      </trkpt>
      <trkpt lat="43.61991" lon="3.77224">
        <ele>105.5</ele>
        <time>2021-02-07T12:38:29Z</time>
      </trkpt>
      <trkpt lat="43.61992" lon="3.77221">
        <ele>105.5</ele>
        <time>2021-02-07T12:38:30Z</time>
      </trkpt>
      <trkpt lat="43.61993" lon="3.77218">
        <ele>105.5</ele>
        <time>2021-02-07T12:38:31Z</time>
      </trkpt>
      <trkpt lat="43.61994" lon="3.77215">
        <ele>105.5</ele>
        <time>2021-02-07T12:38:32Z</time>
      </trkpt>
      <trkpt lat="43.61995" lon="3.77212">
        <ele>108</ele>
        <time>2021-02-07T12:38:33Z</time>
      </trkpt>
      <trkpt lat="43.61996" lon="3.77209">
        <ele>105.6</ele>
        <time>2021-02-07T12:38:34Z</time>
      </trkpt>
      <trkpt lat="43.61997" lon="3.77206">
        <ele>105.6</ele>
        <time>2021-02-07T12:38:35Z</time>
      </trkpt>
      <trkpt lat="43.61998" lon="3.77203">
        <ele>105.7</ele>
        <time>2021-02-07T12:38:36Z</time>
      </trkpt>
      <trkpt lat="43.62" lon="3.772">
        <ele>105.6</ele>
        <time>2021-02-07T12:38:37Z</time>
      </trkpt>
      <trkpt lat="43.62001" lon="3.77198">
        <ele>105.5</ele>
        <time>2021-02-07T12:38:38Z</time>
      </trkpt>
      <trkpt lat="43.62002" lon="3.77195">
        <ele>105.5</ele>
        <time>2021-02-07T12:38:39Z</time>
      </trkpt>
      <trkpt lat="43.62003" lon="3.77191">
        <ele>105.3</ele>
        <time>2021-02-07T12:38:40Z</time>
      </trkpt>
      <trkpt lat="43.62004" lon="3.77188">
        <ele>105</ele>
        <time>2021-02-07T12:38:41Z</time>
      </trkpt>
      <trkpt lat="43.62005" lon="3.77185">
        <ele>104.7</ele>
        <time>2021-02-07T12:38:42Z</time>
      </trkpt>
      <trkpt lat="43.62006" lon="3.77182">
        <ele>108</ele>
        <time>2021-02-07T12:38:43Z</time>
      </trkpt>
      <trkpt lat="43.62007" lon="3.7718">
        <ele>104.2</ele>
        <time>2021-02-07T12:38:44Z</time>
      </trkpt>
      <trkpt lat="43.62008" lon="3.77177">
        <ele>104</ele>
        <time>2021-02-07T12:38:45Z</time>
      </trkpt>
      <trkpt lat="43.6201" lon="3.77174">
        <ele>103.6</ele>
        <time>2021-02-07T12:38:46Z</time>
      </trkpt>
      <trkpt lat="43.62011" lon="3.77171">
        <ele>103.4</ele>
        <time>2021-02-07T12:38:47Z</time>
      </trkpt>
      <trkpt lat="43.62012" lon="3.77168">
        <ele>103.3</ele>
        <time>2021-02-07T12:38:48Z</time>
      </trkpt>
      <trkpt lat="43.62013" lon="3.77165">
        <ele>103.3</ele>
        <time>2021-02-07T12:38:49Z</time>
      </trkpt>
      <trkpt lat="43.62015" lon="3.77162">
        <ele>103.3</ele>
        <time>2021-02-07T12:38:50Z</time>
      </trkpt>
      <trkpt lat="43.62016" lon="3.7716">
        <ele>103.4</ele>
        <time>2021-02-07T12:38:51Z</time>
      </trkpt>
      <trkpt lat="43.62017" lon="3.77157">
        <ele>103.6</ele>
        <time>2021-02-07T12:38:52Z</time>
      </trkpt>
      <trkpt lat="43.62018" lon="3.77154">
        <ele>108</ele>
        <time>2021-02-07T12:38:53Z</time>
      </trkpt>
      <trkpt lat="43.6202" lon="3.77151">
        <ele>104.2</ele>
        <time>2021-02-07T12:38:54Z</time>
      </trkpt>
      <trkpt lat="43.62021" lon="3.77148">
        <ele>104.5</ele>
        <time>2021-02-07T12:38:55Z</time>
      </trkpt>
      <trkpt lat="43.62022" lon="3.77145">
        <ele>104.9</ele>
        <time>2021-02-07T12:38:56Z</time>
      </trkpt>
      <trkpt lat="43.62023" lon="3.77142">
        <ele>105.4</ele>
        <time>2021-02-07T12:38:57Z</time>
      </trkpt>
      <trkpt lat="43.62025" lon="3.7714">
        <ele>105.7</ele>
        <time>2021-02-07T12:38:58Z</time>
      </trkpt>
      <trkpt lat="43.62026" lon="3.77137">
        <ele>105.8</ele>
        <time>2021-02-07T12:38:59Z</time>
      </trkpt>
      <trkpt lat="43.62027" lon="3.77134">
        <ele>105.6</ele>
        <time>2021-02-07T12:39:00Z</time>
      </trkpt>
      <trkpt lat="43.62028" lon="3.77131">
        <ele>105.4</ele>
        <time>2021-02-07T12:39:01Z</time>
      </trkpt>
      <trkpt lat="43.62029" lon="3.77129">
        <ele>105</ele>
        <time>2021-02-07T12:39:02Z</time>
      </trkpt>
      <trkpt lat="43.6203" lon="3.77126">
        <ele>109</ele>
        <time>2021-02-07T12:39:03Z</time>
      </trkpt>
      <trkpt lat="43.62031" lon="3.77123">
        <ele>104.3</ele>
        <time>2021-02-07T12:39:04Z</time>
      </trkpt>
      <trkpt lat="43.62033" lon="3.7712">
        <ele>103.8</ele>
        <time>2021-02-07T12:39:05Z</time>
      </trkpt>
      <trkpt lat="43.62034" lon="3.77118">
        <ele>103.6</ele>
        <time>2021-02-07T12:39:06Z</time>
      </trkpt>
      <trkpt lat="43.62035" lon="3.77115">
        <ele>103.4</ele>
        <time>2021-02-07T12:39:07Z</time>
      </trkpt>
      <trkpt lat="43.62036" lon="3.77112">
        <ele>103.1</ele>
        <time>2021-02-07T12:39:08Z</time>
      </trkpt>
      <trkpt lat="43.62038" lon="3.77109">
        <ele>103</ele>
        <time>2021-02-07T12:39:09Z</time>
      </trkpt>
      <trkpt lat="43.62039" lon="3.77106">
        <ele>103.1</ele>
        <time>2021-02-07T12:39:10Z</time>
      </trkpt>
      <trkpt lat="43.6204" lon="3.77103">
        <ele>103.2</ele>
        <time>2021-02-07T12:39:11Z</time>
      </trkpt>
      <trkpt lat="43.62041" lon="3.771">
        <ele>103.3</ele>
        <time>2021-02-07T12:39:12Z</time>
      </trkpt>
      <trkpt lat="43.62043" lon="3.77097">
        <ele>109</ele>
        <time>2021-02-07T12:39:13Z</time>
      </trkpt>
      <trkpt lat="43.62044" lon="3.77094">
        <ele>103.7</ele>
        <time>2021-02-07T12:39:14Z</time>
      </trkpt>
      <trkpt lat="43.62045" lon="3.77091">
        <ele>103.9</ele>
        <time>2021-02-07T12:39:15Z</time>
      </trkpt>
      <trkpt lat="43.62046" lon="3.77088">
        <ele>104.2</ele>
        <time>2021-02-07T12:39:16Z</time>
      </trkpt>
      <trkpt lat="43.62047" lon="3.77085">
        <ele>104.5</ele>
        <time>2021-02-07T12:39:17Z</time>
      </trkpt>
      <trkpt lat="43.62048" lon="3.77082">
        <ele>104.9</ele>
        <time>2021-02-07T12:39:18Z</time>
      </trkpt>
      <trkpt lat="43.6205" lon="3.77079">
        <ele>105.4</ele>
        <time>2021-02-07T12:39:19Z</time>
      </trkpt>
      <trkpt lat="43.62051" lon="3.77076">
        <ele>105.9</ele>
        <time>2021-02-07T12:39:20Z</time>
      </trkpt>
      <trkpt lat="43.62052" lon="3.77073">
        <ele>106.4</ele>
        <time>2021-02-07T12:39:21Z</time>
      </trkpt>
      <trkpt lat="43.62053" lon="3.7707">
        <ele>106.8</ele>
        <time>2021-02-07T12:39:22Z</time>
      </trkpt>
      <trkpt lat="43.62054" lon="3.77067">
        <ele>109</ele>
        <time>2021-02-07T12:39:23Z</time>
      </trkpt>
      <trkpt lat="43.62055" lon="3.77064">
        <ele>107.8</ele>
        <time>2021-02-07T12:39:24Z</time>
      </trkpt>
      <trkpt lat="43.62057" lon="3.77061">
        <ele>108.2</ele>
        <time>2021-02-07T12:39:25Z</time>
      </trkpt>
      <trkpt lat="43.62058" lon="3.77058">
        <ele>108.6</ele>
        <time>2021-02-07T12:39:26Z</time>
      </trkpt>
      <trkpt lat="43.62059" lon="3.77055">
        <ele>108.9</ele>
        <time>2021-02-07T12:39:27Z</time>
      </trkpt>
      <trkpt lat="43.6206" lon="3.77052">
        <ele>109.1</ele>
        <time>2021-02-07T12:39:28Z</time>
      </trkpt>
      <trkpt lat="43.62062" lon="3.77049">
        <ele>109.2</ele>
        <time>2021-02-07T12:39:29Z</time>
      </trkpt>
      <trkpt lat="43.62063" lon="3.77046">
        <ele>109.4</ele>
        <time>2021-02-07T12:39:30Z</time>
      </trkpt>
      <trkpt lat="43.62064" lon="3.77043">
        <ele>109.6</ele>
        <time>2021-02-07T12:39:31Z</time>
      </trkpt>
      <trkpt lat="43.62065" lon="3.7704">
        <ele>109.8</ele>
        <time>2021-02-07T12:39:32Z</time>
      </trkpt>
      <trkpt lat="43.62067" lon="3.77037">
        <ele>110</ele>
        <time>2021-02-07T12:39:33Z</time>
      </trkpt>
      <trkpt lat="43.62068" lon="3.77034">
        <ele>110.1</ele>
        <time>2021-02-07T12:39:34Z</time>
      </trkpt>
      <trkpt lat="43.62069" lon="3.77031">
        <ele>110.3</ele>
        <time>2021-02-07T12:39:35Z</time>
      </trkpt>
      <trkpt lat="43.62071" lon="3.77028">
        <ele>110.4</ele>
        <time>2021-02-07T12:39:36Z</time>
      </trkpt>
      <trkpt lat="43.62072" lon="3.77025">
        <ele>110.6</ele>
        <time>2021-02-07T12:39:37Z</time>
      </trkpt>
      <trkpt lat="43.62073" lon="3.77022">
        <ele>110.7</ele>
        <time>2021-02-07T12:39:38Z</time>
      </trkpt>
      <trkpt lat="43.62075" lon="3.77019">
        <ele>110.8</ele>
        <time>2021-02-07T12:39:39Z</time>
      </trkpt>
      <trkpt lat="43.62076" lon="3.77016">
        <ele>110.9</ele>
        <time>2021-02-07T12:39:40Z</time>
      </trkpt>
      <trkpt lat="43.62077" lon="3.77013">
        <ele>111</ele>
        <time>2021-02-07T12:39:41Z</time>
      </trkpt>
      <trkpt lat="43.62079" lon="3.7701">
        <ele>111</ele>
        <time>2021-02-07T12:39:42Z</time>
      </trkpt>
      <trkpt lat="43.6208" lon="3.77006">
        <ele>110</ele>
        <time>2021-02-07T12:39:43Z</time>
      </trkpt>
      <trkpt lat="43.62081" lon="3.77003">
        <ele>111.1</ele>
        <time>2021-02-07T12:39:44Z</time>
      </trkpt>
      <trkpt lat="43.62082" lon="3.77">
        <ele>111.1</ele>
        <time>2021-02-07T12:39:45Z</time>
      </trkpt>
      <trkpt lat="43.62084" lon="3.76997">
        <ele>111.3</ele>
        <time>2021-02-07T12:39:46Z</time>
      </trkpt>
      <trkpt lat="43.62085" lon="3.76994">
        <ele>111.6</ele>
        <time>2021-02-07T12:39:47Z</time>
      </trkpt>
      <trkpt lat="43.62086" lon="3.76991">
        <ele>111.9</ele>
        <time>2021-02-07T12:39:48Z</time>
      </trkpt>
      <trkpt lat="43.62087" lon="3.76988">
        <ele>112.2</ele>
        <time>2021-02-07T12:39:49Z</time>
      </trkpt>
      <trkpt lat="43.62088" lon="3.76984">
        <ele>112.5</ele>
        <time>2021-02-07T12:39:50Z</time>
      </trkpt>
      <trkpt lat="43.6209" lon="3.76981">
        <ele>112.7</ele>
        <time>2021-02-07T12:39:51Z</time>
      </trkpt>
      <trkpt lat="43.62091" lon="3.76978">
        <ele>112.9</ele>
        <time>2021-02-07T12:39:52Z</time>
      </trkpt>
      <trkpt lat="43.62093" lon="3.76975">
        <ele>113.1</ele>
        <time>2021-02-07T12:39:53Z</time>
      </trkpt>
      <trkpt lat="43.62094" lon="3.76972">
        <ele>112</ele>
        <time>2021-02-07T12:39:54Z</time>
      </trkpt>
      <trkpt lat="43.62095" lon="3.76969">
        <ele>113.4</ele>
        <time>2021-02-07T12:39:55Z</time>
      </trkpt>
      <trkpt lat="43.62097" lon="3.76966">
        <ele>113.5</ele>
        <time>2021-02-07T12:39:56Z</time>
      </trkpt>
      <trkpt lat="43.62098" lon="3.76962">
        <ele>113.7</ele>
        <time>2021-02-07T12:39:57Z</time>
      </trkpt>
      <trkpt lat="43.62099" lon="3.76959">
        <ele>113.8</ele>
        <time>2021-02-07T12:39:58Z</time>
      </trkpt>
      <trkpt lat="43.621" lon="3.76956">
        <ele>114</ele>
        <time>2021-02-07T12:39:59Z</time>
      </trkpt>
      <trkpt lat="43.62101" lon="3.76953">
        <ele>114.1</ele>
        <time>2021-02-07T12:40:00Z</time>
      </trkpt>
      <trkpt lat="43.62103" lon="3.7695">
        <ele>114.2</ele>
        <time>2021-02-07T12:40:01Z</time>
      </trkpt>
      <trkpt lat="43.62104" lon="3.76947">
        <ele>114.3</ele>
        <time>2021-02-07T12:40:02Z</time>
      </trkpt>
      <trkpt lat="43.62105" lon="3.76944">
        <ele>114.4</ele>
        <time>2021-02-07T12:40:03Z</time>
      </trkpt>
      <trkpt lat="43.62107" lon="3.76938">
        <ele>113</ele>
        <time>2021-02-07T12:40:04Z</time>
      </trkpt>
      <trkpt lat="43.62108" lon="3.76935">
        <ele>114</ele>
        <time>2021-02-07T12:40:05Z</time>
      </trkpt>
      <trkpt lat="43.62109" lon="3.76932">
        <ele>113.8</ele>
        <time>2021-02-07T12:40:06Z</time>
      </trkpt>
      <trkpt lat="43.6211" lon="3.76929">
        <ele>113.6</ele>
        <time>2021-02-07T12:40:07Z</time>
      </trkpt>
      <trkpt lat="43.62111" lon="3.76926">
        <ele>113.3</ele>
        <time>2021-02-07T12:40:08Z</time>
      </trkpt>
      <trkpt lat="43.62112" lon="3.76924">
        <ele>113.2</ele>
        <time>2021-02-07T12:40:09Z</time>
      </trkpt>
      <trkpt lat="43.62113" lon="3.76921">
        <ele>113.1</ele>
        <time>2021-02-07T12:40:10Z</time>
      </trkpt>
      <trkpt lat="43.62115" lon="3.76918">
        <ele>113</ele>
        <time>2021-02-07T12:40:11Z</time>
      </trkpt>
      <trkpt lat="43.62116" lon="3.76915">
        <ele>113</ele>
        <time>2021-02-07T12:40:13Z</time>
      </trkpt>
      <trkpt lat="43.62117" lon="3.76912">
        <ele>113.3</ele>
        <time>2021-02-07T12:40:14Z</time>
      </trkpt>
      <trkpt lat="43.62118" lon="3.76909">
        <ele>113.4</ele>
        <time>2021-02-07T12:40:15Z</time>
      </trkpt>
      <trkpt lat="43.62119" lon="3.76906">
        <ele>113.5</ele>
        <time>2021-02-07T12:40:16Z</time>
      </trkpt>
      <trkpt lat="43.6212" lon="3.76903">
        <ele>113.7</ele>
        <time>2021-02-07T12:40:17Z</time>
      </trkpt>
      <trkpt lat="43.62121" lon="3.769">
        <ele>113.8</ele>
        <time>2021-02-07T12:40:18Z</time>
      </trkpt>
      <trkpt lat="43.62123" lon="3.76897">
        <ele>113.8</ele>
        <time>2021-02-07T12:40:19Z</time>
      </trkpt>
      <trkpt lat="43.62123" lon="3.76894">
        <ele>113.9</ele>
        <time>2021-02-07T12:40:20Z</time>
      </trkpt>
      <trkpt lat="43.62124" lon="3.7689">
        <ele>114</ele>
        <time>2021-02-07T12:40:21Z</time>
      </trkpt>
      <trkpt lat="43.62125" lon="3.76887">
        <ele>114.1</ele>
        <time>2021-02-07T12:40:22Z</time>
      </trkpt>
      <trkpt lat="43.62126" lon="3.76884">
        <ele>114</ele>
        <time>2021-02-07T12:40:23Z</time>
      </trkpt>
      <trkpt lat="43.62128" lon="3.76881">
        <ele>114.3</ele>
        <time>2021-02-07T12:40:24Z</time>
      </trkpt>
      <trkpt lat="43.62129" lon="3.76878">
        <ele>114.4</ele>
        <time>2021-02-07T12:40:25Z</time>
      </trkpt>
      <trkpt lat="43.6213" lon="3.76874">
        <ele>114.5</ele>
        <time>2021-02-07T12:40:26Z</time>
      </trkpt>
      <trkpt lat="43.62131" lon="3.76871">
        <ele>114.6</ele>
        <time>2021-02-07T12:40:27Z</time>
      </trkpt>
      <trkpt lat="43.62132" lon="3.76868">
        <ele>114.6</ele>
        <time>2021-02-07T12:40:28Z</time>
      </trkpt>
      <trkpt lat="43.62133" lon="3.76865">
        <ele>114.6</ele>
        <time>2021-02-07T12:40:29Z</time>
      </trkpt>
      <trkpt lat="43.62135" lon="3.76862">
        <ele>114.5</ele>
        <time>2021-02-07T12:40:30Z</time>
      </trkpt>
      <trkpt lat="43.62136" lon="3.76859">
        <ele>114.5</ele>
        <time>2021-02-07T12:40:31Z</time>
      </trkpt>
      <trkpt lat="43.62137" lon="3.76856">
        <ele>114.5</ele>
        <time>2021-02-07T12:40:32Z</time>
      </trkpt>
      <trkpt lat="43.62138" lon="3.76851">
        <ele>114</ele>
        <time>2021-02-07T12:40:33Z</time>
      </trkpt>
      <trkpt lat="43.62139" lon="3.76848">
        <ele>114.5</ele>
        <time>2021-02-07T12:40:34Z</time>
      </trkpt>
      <trkpt lat="43.6214" lon="3.76845">
        <ele>114.5</ele>
        <time>2021-02-07T12:40:35Z</time>
      </trkpt>
      <trkpt lat="43.6214" lon="3.76841">
        <ele>114.6</ele>
        <time>2021-02-07T12:40:36Z</time>
      </trkpt>
      <trkpt lat="43.62141" lon="3.76839">
        <ele>114.6</ele>
        <time>2021-02-07T12:40:38Z</time>
      </trkpt>
      <trkpt lat="43.62142" lon="3.76833">
        <ele>114.7</ele>
        <time>2021-02-07T12:40:40Z</time>
      </trkpt>
      <trkpt lat="43.62143" lon="3.7683">
        <ele>115</ele>
        <time>2021-02-07T12:40:41Z</time>
      </trkpt>
      <trkpt lat="43.62144" lon="3.76827">
        <ele>115.2</ele>
        <time>2021-02-07T12:40:42Z</time>
      </trkpt>
      <trkpt lat="43.62145" lon="3.76824">
        <ele>116</ele>
        <time>2021-02-07T12:40:43Z</time>
      </trkpt>
      <trkpt lat="43.62146" lon="3.7682">
        <ele>115.8</ele>
        <time>2021-02-07T12:40:44Z</time>
      </trkpt>
      <trkpt lat="43.62147" lon="3.76817">
        <ele>116</ele>
        <time>2021-02-07T12:40:45Z</time>
      </trkpt>
      <trkpt lat="43.62149" lon="3.76814">
        <ele>115.9</ele>
        <time>2021-02-07T12:40:46Z</time>
      </trkpt>
      <trkpt lat="43.6215" lon="3.76811">
        <ele>116.1</ele>
        <time>2021-02-07T12:40:47Z</time>
      </trkpt>
      <trkpt lat="43.62151" lon="3.76807">
        <ele>116.2</ele>
        <time>2021-02-07T12:40:48Z</time>
      </trkpt>
      <trkpt lat="43.62152" lon="3.76804">
        <ele>116.2</ele>
        <time>2021-02-07T12:40:49Z</time>
      </trkpt>
      <trkpt lat="43.62153" lon="3.76801">
        <ele>116</ele>
        <time>2021-02-07T12:40:50Z</time>
      </trkpt>
      <trkpt lat="43.62154" lon="3.76797">
        <ele>115.8</ele>
        <time>2021-02-07T12:40:51Z</time>
      </trkpt>
      <trkpt lat="43.62155" lon="3.76794">
        <ele>115.6</ele>
        <time>2021-02-07T12:40:52Z</time>
      </trkpt>
      <trkpt lat="43.62156" lon="3.76791">
        <ele>117</ele>
        <time>2021-02-07T12:40:53Z</time>
      </trkpt>
      <trkpt lat="43.62157" lon="3.76787">
        <ele>115.3</ele>
        <time>2021-02-07T12:40:54Z</time>
      </trkpt>
      <trkpt lat="43.62158" lon="3.76784">
        <ele>115.2</ele>
        <time>2021-02-07T12:40:55Z</time>
      </trkpt>
      <trkpt lat="43.62159" lon="3.76781">
        <ele>115.1</ele>
        <time>2021-02-07T12:40:56Z</time>
      </trkpt>
      <trkpt lat="43.6216" lon="3.76778">
        <ele>115</ele>
        <time>2021-02-07T12:40:57Z</time>
      </trkpt>
      <trkpt lat="43.62161" lon="3.76774">
        <ele>115</ele>
        <time>2021-02-07T12:40:58Z</time>
      </trkpt>
      <trkpt lat="43.62162" lon="3.76771">
        <ele>114.9</ele>
        <time>2021-02-07T12:40:59Z</time>
      </trkpt>
      <trkpt lat="43.62163" lon="3.76768">
        <ele>114.9</ele>
        <time>2021-02-07T12:41:00Z</time>
      </trkpt>
      <trkpt lat="43.62164" lon="3.76765">
        <ele>114.8</ele>
        <time>2021-02-07T12:41:01Z</time>
      </trkpt>
      <trkpt lat="43.62165" lon="3.76762">
        <ele>114.8</ele>
        <time>2021-02-07T12:41:02Z</time>
      </trkpt>
      <trkpt lat="43.62166" lon="3.76758">
        <ele>118</ele>
        <time>2021-02-07T12:41:03Z</time>
      </trkpt>
      <trkpt lat="43.62166" lon="3.76754">
        <ele>115</ele>
        <time>2021-02-07T12:41:04Z</time>
      </trkpt>
      <trkpt lat="43.62167" lon="3.7675">
        <ele>115</ele>
        <time>2021-02-07T12:41:05Z</time>
      </trkpt>
      <trkpt lat="43.62168" lon="3.76747">
        <ele>115.1</ele>
        <time>2021-02-07T12:41:06Z</time>
      </trkpt>
      <trkpt lat="43.62169" lon="3.76743">
        <ele>115.2</ele>
        <time>2021-02-07T12:41:07Z</time>
      </trkpt>
      <trkpt lat="43.62169" lon="3.7674">
        <ele>115.4</ele>
        <time>2021-02-07T12:41:08Z</time>
      </trkpt>
      <trkpt lat="43.6217" lon="3.76737">
        <ele>115.5</ele>
        <time>2021-02-07T12:41:09Z</time>
      </trkpt>
      <trkpt lat="43.62171" lon="3.76734">
        <ele>115.6</ele>
        <time>2021-02-07T12:41:10Z</time>
      </trkpt>
      <trkpt lat="43.62171" lon="3.76731">
        <ele>115.8</ele>
        <time>2021-02-07T12:41:11Z</time>
      </trkpt>
      <trkpt lat="43.62172" lon="3.76728">
        <ele>115.9</ele>
        <time>2021-02-07T12:41:12Z</time>
      </trkpt>
      <trkpt lat="43.62173" lon="3.76725">
        <ele>120</ele>
        <time>2021-02-07T12:41:13Z</time>
      </trkpt>
      <trkpt lat="43.62174" lon="3.76721">
        <ele>116</ele>
        <time>2021-02-07T12:41:14Z</time>
      </trkpt>
      <trkpt lat="43.62175" lon="3.76718">
        <ele>116.1</ele>
        <time>2021-02-07T12:41:15Z</time>
      </trkpt>
      <trkpt lat="43.62176" lon="3.76714">
        <ele>116.2</ele>
        <time>2021-02-07T12:41:16Z</time>
      </trkpt>
      <trkpt lat="43.62176" lon="3.76711">
        <ele>116.5</ele>
        <time>2021-02-07T12:41:17Z</time>
      </trkpt>
      <trkpt lat="43.62177" lon="3.76707">
        <ele>116.6</ele>
        <time>2021-02-07T12:41:18Z</time>
      </trkpt>
      <trkpt lat="43.62178" lon="3.76704">
        <ele>116.7</ele>
        <time>2021-02-07T12:41:19Z</time>
      </trkpt>
      <trkpt lat="43.62179" lon="3.76701">
        <ele>116.8</ele>
        <time>2021-02-07T12:41:20Z</time>
      </trkpt>
      <trkpt lat="43.62181" lon="3.76698">
        <ele>116.7</ele>
        <time>2021-02-07T12:41:21Z</time>
      </trkpt>
      <trkpt lat="43.62182" lon="3.76695">
        <ele>116.8</ele>
        <time>2021-02-07T12:41:22Z</time>
      </trkpt>
      <trkpt lat="43.62183" lon="3.76692">
        <ele>121</ele>
        <time>2021-02-07T12:41:23Z</time>
      </trkpt>
      <trkpt lat="43.62184" lon="3.76688">
        <ele>117.1</ele>
        <time>2021-02-07T12:41:24Z</time>
      </trkpt>
      <trkpt lat="43.62185" lon="3.76685">
        <ele>117.2</ele>
        <time>2021-02-07T12:41:25Z</time>
      </trkpt>
      <trkpt lat="43.62186" lon="3.76682">
        <ele>117.2</ele>
        <time>2021-02-07T12:41:26Z</time>
      </trkpt>
      <trkpt lat="43.62187" lon="3.76678">
        <ele>117.4</ele>
        <time>2021-02-07T12:41:27Z</time>
      </trkpt>
      <trkpt lat="43.62187" lon="3.76675">
        <ele>117.7</ele>
        <time>2021-02-07T12:41:28Z</time>
      </trkpt>
      <trkpt lat="43.62188" lon="3.76671">
        <ele>117.8</ele>
        <time>2021-02-07T12:41:29Z</time>
      </trkpt>
      <trkpt lat="43.62189" lon="3.76668">
        <ele>117.9</ele>
        <time>2021-02-07T12:41:30Z</time>
      </trkpt>
      <trkpt lat="43.6219" lon="3.76664">
        <ele>117.9</ele>
        <time>2021-02-07T12:41:31Z</time>
      </trkpt>
      <trkpt lat="43.62192" lon="3.76661">
        <ele>117.7</ele>
        <time>2021-02-07T12:41:32Z</time>
      </trkpt>
      <trkpt lat="43.62192" lon="3.76658">
        <ele>120</ele>
        <time>2021-02-07T12:41:33Z</time>
      </trkpt>
      <trkpt lat="43.62193" lon="3.76654">
        <ele>117.7</ele>
        <time>2021-02-07T12:41:34Z</time>
      </trkpt>
      <trkpt lat="43.62194" lon="3.76651">
        <ele>117.7</ele>
        <time>2021-02-07T12:41:35Z</time>
      </trkpt>
      <trkpt lat="43.62195" lon="3.76647">
        <ele>117.6</ele>
        <time>2021-02-07T12:41:36Z</time>
      </trkpt>
      <trkpt lat="43.62196" lon="3.76644">
        <ele>117.6</ele>
        <time>2021-02-07T12:41:37Z</time>
      </trkpt>
      <trkpt lat="43.62197" lon="3.7664">
        <ele>117.6</ele>
        <time>2021-02-07T12:41:38Z</time>
      </trkpt>
      <trkpt lat="43.62198" lon="3.76636">
        <ele>117.7</ele>
        <time>2021-02-07T12:41:39Z</time>
      </trkpt>
      <trkpt lat="43.62199" lon="3.76633">
        <ele>117.7</ele>
        <time>2021-02-07T12:41:40Z</time>
      </trkpt>
      <trkpt lat="43.622" lon="3.76629">
        <ele>117.8</ele>
        <time>2021-02-07T12:41:41Z</time>
      </trkpt>
      <trkpt lat="43.62201" lon="3.76625">
        <ele>117.9</ele>
        <time>2021-02-07T12:41:42Z</time>
      </trkpt>
      <trkpt lat="43.62202" lon="3.76622">
        <ele>120</ele>
        <time>2021-02-07T12:41:43Z</time>
      </trkpt>
      <trkpt lat="43.62204" lon="3.76619">
        <ele>117.8</ele>
        <time>2021-02-07T12:41:44Z</time>
      </trkpt>
      <trkpt lat="43.62205" lon="3.76615">
        <ele>117.9</ele>
        <time>2021-02-07T12:41:45Z</time>
      </trkpt>
      <trkpt lat="43.62206" lon="3.76611">
        <ele>117.9</ele>
        <time>2021-02-07T12:41:46Z</time>
      </trkpt>
      <trkpt lat="43.62207" lon="3.76608">
        <ele>118</ele>
        <time>2021-02-07T12:41:47Z</time>
      </trkpt>
      <trkpt lat="43.62208" lon="3.76604">
        <ele>118.1</ele>
        <time>2021-02-07T12:41:48Z</time>
      </trkpt>
      <trkpt lat="43.6221" lon="3.76601">
        <ele>117.9</ele>
        <time>2021-02-07T12:41:49Z</time>
      </trkpt>
      <trkpt lat="43.62211" lon="3.76597">
        <ele>118</ele>
        <time>2021-02-07T12:41:50Z</time>
      </trkpt>
      <trkpt lat="43.62212" lon="3.76593">
        <ele>118.1</ele>
        <time>2021-02-07T12:41:51Z</time>
      </trkpt>
      <trkpt lat="43.62213" lon="3.76589">
        <ele>118.3</ele>
        <time>2021-02-07T12:41:52Z</time>
      </trkpt>
      <trkpt lat="43.62214" lon="3.76585">
        <ele>120</ele>
        <time>2021-02-07T12:41:53Z</time>
      </trkpt>
      <trkpt lat="43.62215" lon="3.76581">
        <ele>118.5</ele>
        <time>2021-02-07T12:41:54Z</time>
      </trkpt>
      <trkpt lat="43.62215" lon="3.76576">
        <ele>118.9</ele>
        <time>2021-02-07T12:41:55Z</time>
      </trkpt>
      <trkpt lat="43.62216" lon="3.76572">
        <ele>119</ele>
        <time>2021-02-07T12:41:56Z</time>
      </trkpt>
      <trkpt lat="43.62217" lon="3.76568">
        <ele>119.1</ele>
        <time>2021-02-07T12:41:57Z</time>
      </trkpt>
      <trkpt lat="43.62218" lon="3.76565">
        <ele>119.2</ele>
        <time>2021-02-07T12:41:58Z</time>
      </trkpt>
      <trkpt lat="43.6222" lon="3.76561">
        <ele>119.1</ele>
        <time>2021-02-07T12:41:59Z</time>
      </trkpt>
      <trkpt lat="43.62221" lon="3.76558">
        <ele>119.1</ele>
        <time>2021-02-07T12:42:00Z</time>
      </trkpt>
      <trkpt lat="43.62222" lon="3.76554">
        <ele>119.1</ele>
        <time>2021-02-07T12:42:01Z</time>
      </trkpt>
      <trkpt lat="43.62223" lon="3.76551">
        <ele>119.1</ele>
        <time>2021-02-07T12:42:02Z</time>
      </trkpt>
      <trkpt lat="43.62224" lon="3.76547">
        <ele>121</ele>
        <time>2021-02-07T12:42:03Z</time>
      </trkpt>
      <trkpt lat="43.62225" lon="3.76544">
        <ele>119</ele>
        <time>2021-02-07T12:42:04Z</time>
      </trkpt>
      <trkpt lat="43.62225" lon="3.7654">
        <ele>119.2</ele>
        <time>2021-02-07T12:42:05Z</time>
      </trkpt>
      <trkpt lat="43.62226" lon="3.76536">
        <ele>119.2</ele>
        <time>2021-02-07T12:42:06Z</time>
      </trkpt>
      <trkpt lat="43.62227" lon="3.76532">
        <ele>119.2</ele>
        <time>2021-02-07T12:42:07Z</time>
      </trkpt>
      <trkpt lat="43.62228" lon="3.76529">
        <ele>119.1</ele>
        <time>2021-02-07T12:42:08Z</time>
      </trkpt>
      <trkpt lat="43.62229" lon="3.76525">
        <ele>119.1</ele>
        <time>2021-02-07T12:42:09Z</time>
      </trkpt>
      <trkpt lat="43.6223" lon="3.76521">
        <ele>119.1</ele>
        <time>2021-02-07T12:42:10Z</time>
      </trkpt>
      <trkpt lat="43.62232" lon="3.76518">
        <ele>118.8</ele>
        <time>2021-02-07T12:42:11Z</time>
      </trkpt>
      <trkpt lat="43.62232" lon="3.76514">
        <ele>118.9</ele>
        <time>2021-02-07T12:42:12Z</time>
      </trkpt>
      <trkpt lat="43.62233" lon="3.7651">
        <ele>122</ele>
        <time>2021-02-07T12:42:13Z</time>
      </trkpt>
      <trkpt lat="43.62234" lon="3.76506">
        <ele>118.8</ele>
        <time>2021-02-07T12:42:14Z</time>
      </trkpt>
      <trkpt lat="43.62235" lon="3.76501">
        <ele>118.7</ele>
        <time>2021-02-07T12:42:15Z</time>
      </trkpt>
      <trkpt lat="43.62236" lon="3.76497">
        <ele>118.7</ele>
        <time>2021-02-07T12:42:16Z</time>
      </trkpt>
      <trkpt lat="43.62236" lon="3.76492">
        <ele>119</ele>
        <time>2021-02-07T12:42:17Z</time>
      </trkpt>
      <trkpt lat="43.62237" lon="3.76488">
        <ele>119</ele>
        <time>2021-02-07T12:42:18Z</time>
      </trkpt>
      <trkpt lat="43.62238" lon="3.76484">
        <ele>119</ele>
        <time>2021-02-07T12:42:19Z</time>
      </trkpt>
      <trkpt lat="43.62239" lon="3.7648">
        <ele>119</ele>
        <time>2021-02-07T12:42:20Z</time>
      </trkpt>
      <trkpt lat="43.6224" lon="3.76476">
        <ele>119</ele>
        <time>2021-02-07T12:42:21Z</time>
      </trkpt>
      <trkpt lat="43.6224" lon="3.76471">
        <ele>119.3</ele>
        <time>2021-02-07T12:42:22Z</time>
      </trkpt>
      <trkpt lat="43.62241" lon="3.76467">
        <ele>122</ele>
        <time>2021-02-07T12:42:23Z</time>
      </trkpt>
      <trkpt lat="43.62242" lon="3.76463">
        <ele>119.5</ele>
        <time>2021-02-07T12:42:24Z</time>
      </trkpt>
      <trkpt lat="43.62243" lon="3.76458">
        <ele>119.8</ele>
        <time>2021-02-07T12:42:25Z</time>
      </trkpt>
      <trkpt lat="43.62244" lon="3.76454">
        <ele>120</ele>
        <time>2021-02-07T12:42:26Z</time>
      </trkpt>
      <trkpt lat="43.62245" lon="3.7645">
        <ele>120.2</ele>
        <time>2021-02-07T12:42:27Z</time>
      </trkpt>
      <trkpt lat="43.62246" lon="3.76446">
        <ele>120.4</ele>
        <time>2021-02-07T12:42:28Z</time>
      </trkpt>
      <trkpt lat="43.62247" lon="3.76442">
        <ele>120.5</ele>
        <time>2021-02-07T12:42:29Z</time>
      </trkpt>
      <trkpt lat="43.62247" lon="3.76439">
        <ele>120.6</ele>
        <time>2021-02-07T12:42:30Z</time>
      </trkpt>
      <trkpt lat="43.62248" lon="3.76435">
        <ele>120.6</ele>
        <time>2021-02-07T12:42:31Z</time>
      </trkpt>
      <trkpt lat="43.62249" lon="3.76431">
        <ele>120.6</ele>
        <time>2021-02-07T12:42:32Z</time>
      </trkpt>
      <trkpt lat="43.62249" lon="3.76428">
        <ele>124</ele>
        <time>2021-02-07T12:42:33Z</time>
      </trkpt>
      <trkpt lat="43.62249" lon="3.76424">
        <ele>120.9</ele>
        <time>2021-02-07T12:42:34Z</time>
      </trkpt>
      <trkpt lat="43.6225" lon="3.7642">
        <ele>120.9</ele>
        <time>2021-02-07T12:42:35Z</time>
      </trkpt>
      <trkpt lat="43.62251" lon="3.76416">
        <ele>120.8</ele>
        <time>2021-02-07T12:42:36Z</time>
      </trkpt>
      <trkpt lat="43.62252" lon="3.76412">
        <ele>120.8</ele>
        <time>2021-02-07T12:42:37Z</time>
      </trkpt>
      <trkpt lat="43.62253" lon="3.76408">
        <ele>120.8</ele>
        <time>2021-02-07T12:42:38Z</time>
      </trkpt>
      <trkpt lat="43.62253" lon="3.76405">
        <ele>120.9</ele>
        <time>2021-02-07T12:42:39Z</time>
      </trkpt>
      <trkpt lat="43.62253" lon="3.76402">
        <ele>121</ele>
        <time>2021-02-07T12:42:40Z</time>
      </trkpt>
      <trkpt lat="43.62253" lon="3.76398">
        <ele>121.1</ele>
        <time>2021-02-07T12:42:41Z</time>
      </trkpt>
      <trkpt lat="43.62253" lon="3.76394">
        <ele>121.3</ele>
        <time>2021-02-07T12:42:42Z</time>
      </trkpt>
      <trkpt lat="43.62253" lon="3.7639">
        <ele>124</ele>
        <time>2021-02-07T12:42:43Z</time>
      </trkpt>
      <trkpt lat="43.62254" lon="3.76386">
        <ele>121.4</ele>
        <time>2021-02-07T12:42:44Z</time>
      </trkpt>
      <trkpt lat="43.62254" lon="3.76382">
        <ele>121.5</ele>
        <time>2021-02-07T12:42:45Z</time>
      </trkpt>
      <trkpt lat="43.62255" lon="3.76379">
        <ele>121.5</ele>
        <time>2021-02-07T12:42:46Z</time>
      </trkpt>
      <trkpt lat="43.62255" lon="3.76375">
        <ele>121.6</ele>
        <time>2021-02-07T12:42:47Z</time>
      </trkpt>
      <trkpt lat="43.62256" lon="3.76371">
        <ele>121.6</ele>
        <time>2021-02-07T12:42:48Z</time>
      </trkpt>
      <trkpt lat="43.62256" lon="3.76366">
        <ele>121.7</ele>
        <time>2021-02-07T12:42:49Z</time>
      </trkpt>
      <trkpt lat="43.62257" lon="3.76363">
        <ele>121.7</ele>
        <time>2021-02-07T12:42:50Z</time>
      </trkpt>
      <trkpt lat="43.62258" lon="3.76359">
        <ele>121.6</ele>
        <time>2021-02-07T12:42:51Z</time>
      </trkpt>
      <trkpt lat="43.62259" lon="3.76355">
        <ele>121.5</ele>
        <time>2021-02-07T12:42:52Z</time>
      </trkpt>
      <trkpt lat="43.6226" lon="3.76351">
        <ele>123</ele>
        <time>2021-02-07T12:42:53Z</time>
      </trkpt>
      <trkpt lat="43.6226" lon="3.76346">
        <ele>121.4</ele>
        <time>2021-02-07T12:42:54Z</time>
      </trkpt>
      <trkpt lat="43.62261" lon="3.76342">
        <ele>121.3</ele>
        <time>2021-02-07T12:42:55Z</time>
      </trkpt>
      <trkpt lat="43.62262" lon="3.76338">
        <ele>121.2</ele>
        <time>2021-02-07T12:42:56Z</time>
      </trkpt>
      <trkpt lat="43.62263" lon="3.76335">
        <ele>121.1</ele>
        <time>2021-02-07T12:42:57Z</time>
      </trkpt>
      <trkpt lat="43.62264" lon="3.76331">
        <ele>121.1</ele>
        <time>2021-02-07T12:42:58Z</time>
      </trkpt>
      <trkpt lat="43.62265" lon="3.76326">
        <ele>121.1</ele>
        <time>2021-02-07T12:42:59Z</time>
      </trkpt>
      <trkpt lat="43.62266" lon="3.76323">
        <ele>121.1</ele>
        <time>2021-02-07T12:43:00Z</time>
      </trkpt>
      <trkpt lat="43.62266" lon="3.76319">
        <ele>121.2</ele>
        <time>2021-02-07T12:43:01Z</time>
      </trkpt>
      <trkpt lat="43.62267" lon="3.76315">
        <ele>121.2</ele>
        <time>2021-02-07T12:43:02Z</time>
      </trkpt>
      <trkpt lat="43.62267" lon="3.76311">
        <ele>121.4</ele>
        <time>2021-02-07T12:43:03Z</time>
      </trkpt>
      <trkpt lat="43.62268" lon="3.76307">
        <ele>125</ele>
        <time>2021-02-07T12:43:04Z</time>
      </trkpt>
      <trkpt lat="43.62268" lon="3.76302">
        <ele>121.6</ele>
        <time>2021-02-07T12:43:05Z</time>
      </trkpt>
      <trkpt lat="43.62268" lon="3.76298">
        <ele>121.9</ele>
        <time>2021-02-07T12:43:06Z</time>
      </trkpt>
      <trkpt lat="43.62269" lon="3.76295">
        <ele>121.9</ele>
        <time>2021-02-07T12:43:07Z</time>
      </trkpt>
      <trkpt lat="43.62269" lon="3.76291">
        <ele>122.1</ele>
        <time>2021-02-07T12:43:08Z</time>
      </trkpt>
      <trkpt lat="43.6227" lon="3.76287">
        <ele>122.3</ele>
        <time>2021-02-07T12:43:09Z</time>
      </trkpt>
      <trkpt lat="43.6227" lon="3.76283">
        <ele>122.5</ele>
        <time>2021-02-07T12:43:10Z</time>
      </trkpt>
      <trkpt lat="43.62271" lon="3.7628">
        <ele>122.6</ele>
        <time>2021-02-07T12:43:11Z</time>
      </trkpt>
      <trkpt lat="43.62271" lon="3.76276">
        <ele>122.8</ele>
        <time>2021-02-07T12:43:12Z</time>
      </trkpt>
      <trkpt lat="43.62272" lon="3.76273">
        <ele>125</ele>
        <time>2021-02-07T12:43:13Z</time>
      </trkpt>
      <trkpt lat="43.62272" lon="3.76269">
        <ele>122.9</ele>
        <time>2021-02-07T12:43:14Z</time>
      </trkpt>
      <trkpt lat="43.62272" lon="3.76266">
        <ele>123</ele>
        <time>2021-02-07T12:43:15Z</time>
      </trkpt>
      <trkpt lat="43.62273" lon="3.76262">
        <ele>123</ele>
        <time>2021-02-07T12:43:16Z</time>
      </trkpt>
      <trkpt lat="43.62273" lon="3.76259">
        <ele>123.1</ele>
        <time>2021-02-07T12:43:17Z</time>
      </trkpt>
      <trkpt lat="43.62274" lon="3.76255">
        <ele>123.1</ele>
        <time>2021-02-07T12:43:18Z</time>
      </trkpt>
      <trkpt lat="43.62274" lon="3.76252">
        <ele>123.2</ele>
        <time>2021-02-07T12:43:19Z</time>
      </trkpt>
      <trkpt lat="43.62274" lon="3.76248">
        <ele>123.3</ele>
        <time>2021-02-07T12:43:20Z</time>
      </trkpt>
      <trkpt lat="43.62275" lon="3.76244">
        <ele>123.4</ele>
        <time>2021-02-07T12:43:21Z</time>
      </trkpt>
      <trkpt lat="43.62275" lon="3.7624">
        <ele>123.5</ele>
        <time>2021-02-07T12:43:22Z</time>
      </trkpt>
      <trkpt lat="43.62276" lon="3.76236">
        <ele>125</ele>
        <time>2021-02-07T12:43:23Z</time>
      </trkpt>
      <trkpt lat="43.62276" lon="3.76232">
        <ele>123.7</ele>
        <time>2021-02-07T12:43:24Z</time>
      </trkpt>
      <trkpt lat="43.62277" lon="3.76228">
        <ele>123.8</ele>
        <time>2021-02-07T12:43:25Z</time>
      </trkpt>
      <trkpt lat="43.62278" lon="3.76224">
        <ele>124</ele>
        <time>2021-02-07T12:43:26Z</time>
      </trkpt>
      <trkpt lat="43.62278" lon="3.7622">
        <ele>124</ele>
        <time>2021-02-07T12:43:27Z</time>
      </trkpt>
      <trkpt lat="43.62279" lon="3.76216">
        <ele>124.1</ele>
        <time>2021-02-07T12:43:28Z</time>
      </trkpt>
      <trkpt lat="43.6228" lon="3.76213">
        <ele>124.2</ele>
        <time>2021-02-07T12:43:29Z</time>
      </trkpt>
      <trkpt lat="43.62281" lon="3.76209">
        <ele>124.3</ele>
        <time>2021-02-07T12:43:30Z</time>
      </trkpt>
      <trkpt lat="43.62281" lon="3.76205">
        <ele>124.4</ele>
        <time>2021-02-07T12:43:31Z</time>
      </trkpt>
      <trkpt lat="43.62282" lon="3.76202">
        <ele>124.5</ele>
        <time>2021-02-07T12:43:32Z</time>
      </trkpt>
      <trkpt lat="43.62282" lon="3.76198">
        <ele>127</ele>
        <time>2021-02-07T12:43:33Z</time>
      </trkpt>
      <trkpt lat="43.62283" lon="3.76195">
        <ele>124.7</ele>
        <time>2021-02-07T12:43:34Z</time>
      </trkpt>
      <trkpt lat="43.62283" lon="3.76191">
        <ele>124.8</ele>
        <time>2021-02-07T12:43:35Z</time>
      </trkpt>
      <trkpt lat="43.62285" lon="3.76188">
        <ele>125.1</ele>
        <time>2021-02-07T12:43:36Z</time>
      </trkpt>
      <trkpt lat="43.62286" lon="3.76186">
        <ele>125.3</ele>
        <time>2021-02-07T12:43:37Z</time>
      </trkpt>
      <trkpt lat="43.62287" lon="3.76183">
        <ele>125.5</ele>
        <time>2021-02-07T12:43:38Z</time>
      </trkpt>
      <trkpt lat="43.62289" lon="3.7618">
        <ele>125.8</ele>
        <time>2021-02-07T12:43:39Z</time>
      </trkpt>
      <trkpt lat="43.6229" lon="3.76177">
        <ele>126</ele>
        <time>2021-02-07T12:43:40Z</time>
      </trkpt>
      <trkpt lat="43.6229" lon="3.76174">
        <ele>126.1</ele>
        <time>2021-02-07T12:43:41Z</time>
      </trkpt>
      <trkpt lat="43.62291" lon="3.76171">
        <ele>126.3</ele>
        <time>2021-02-07T12:43:42Z</time>
      </trkpt>
      <trkpt lat="43.62292" lon="3.76168">
        <ele>128</ele>
        <time>2021-02-07T12:43:43Z</time>
      </trkpt>
      <trkpt lat="43.62293" lon="3.76165">
        <ele>126.7</ele>
        <time>2021-02-07T12:43:44Z</time>
      </trkpt>
      <trkpt lat="43.62294" lon="3.76162">
        <ele>126.9</ele>
        <time>2021-02-07T12:43:45Z</time>
      </trkpt>
      <trkpt lat="43.62295" lon="3.7616">
        <ele>127.1</ele>
        <time>2021-02-07T12:43:46Z</time>
      </trkpt>
      <trkpt lat="43.62296" lon="3.76157">
        <ele>127.3</ele>
        <time>2021-02-07T12:43:47Z</time>
      </trkpt>
      <trkpt lat="43.62297" lon="3.76154">
        <ele>127.5</ele>
        <time>2021-02-07T12:43:48Z</time>
      </trkpt>
      <trkpt lat="43.62298" lon="3.76151">
        <ele>127.6</ele>
        <time>2021-02-07T12:43:49Z</time>
      </trkpt>
      <trkpt lat="43.62298" lon="3.76148">
        <ele>127.6</ele>
        <time>2021-02-07T12:43:50Z</time>
      </trkpt>
      <trkpt lat="43.62299" lon="3.76146">
        <ele>127.8</ele>
        <time>2021-02-07T12:43:51Z</time>
      </trkpt>
      <trkpt lat="43.623" lon="3.76143">
        <ele>128</ele>
        <time>2021-02-07T12:43:52Z</time>
      </trkpt>
      <trkpt lat="43.62301" lon="3.7614">
        <ele>129</ele>
        <time>2021-02-07T12:43:53Z</time>
      </trkpt>
      <trkpt lat="43.62302" lon="3.76138">
        <ele>128.4</ele>
        <time>2021-02-07T12:43:54Z</time>
      </trkpt>
      <trkpt lat="43.62303" lon="3.76135">
        <ele>128.7</ele>
        <time>2021-02-07T12:43:55Z</time>
      </trkpt>
      <trkpt lat="43.62304" lon="3.76132">
        <ele>129</ele>
        <time>2021-02-07T12:43:56Z</time>
      </trkpt>
      <trkpt lat="43.62305" lon="3.76129">
        <ele>129.2</ele>
        <time>2021-02-07T12:43:57Z</time>
      </trkpt>
      <trkpt lat="43.62306" lon="3.76126">
        <ele>129.5</ele>
        <time>2021-02-07T12:43:58Z</time>
      </trkpt>
      <trkpt lat="43.62307" lon="3.76123">
        <ele>129.8</ele>
        <time>2021-02-07T12:43:59Z</time>
      </trkpt>
      <trkpt lat="43.62308" lon="3.76121">
        <ele>130.1</ele>
        <time>2021-02-07T12:44:00Z</time>
      </trkpt>
      <trkpt lat="43.62309" lon="3.76118">
        <ele>130.3</ele>
        <time>2021-02-07T12:44:01Z</time>
      </trkpt>
      <trkpt lat="43.6231" lon="3.76115">
        <ele>130.6</ele>
        <time>2021-02-07T12:44:02Z</time>
      </trkpt>
      <trkpt lat="43.62311" lon="3.76112">
        <ele>131</ele>
        <time>2021-02-07T12:44:03Z</time>
      </trkpt>
      <trkpt lat="43.62311" lon="3.76109">
        <ele>131</ele>
        <time>2021-02-07T12:44:04Z</time>
      </trkpt>
      <trkpt lat="43.62311" lon="3.76106">
        <ele>131</ele>
        <time>2021-02-07T12:44:05Z</time>
      </trkpt>
      <trkpt lat="43.62311" lon="3.76103">
        <ele>131</ele>
        <time>2021-02-07T12:44:06Z</time>
      </trkpt>
      <trkpt lat="43.62311" lon="3.761">
        <ele>131.1</ele>
        <time>2021-02-07T12:44:07Z</time>
      </trkpt>
      <trkpt lat="43.62311" lon="3.76097">
        <ele>131.1</ele>
        <time>2021-02-07T12:44:08Z</time>
      </trkpt>
      <trkpt lat="43.62312" lon="3.76094">
        <ele>131.3</ele>
        <time>2021-02-07T12:44:09Z</time>
      </trkpt>
      <trkpt lat="43.62313" lon="3.76092">
        <ele>131.5</ele>
        <time>2021-02-07T12:44:10Z</time>
      </trkpt>
      <trkpt lat="43.62314" lon="3.7609">
        <ele>131.8</ele>
        <time>2021-02-07T12:44:11Z</time>
      </trkpt>
      <trkpt lat="43.62315" lon="3.76087">
        <ele>132</ele>
        <time>2021-02-07T12:44:12Z</time>
      </trkpt>
      <trkpt lat="43.62316" lon="3.76085">
        <ele>133</ele>
        <time>2021-02-07T12:44:13Z</time>
      </trkpt>
      <trkpt lat="43.62316" lon="3.76082">
        <ele>132.3</ele>
        <time>2021-02-07T12:44:14Z</time>
      </trkpt>
      <trkpt lat="43.62317" lon="3.7608">
        <ele>132.5</ele>
        <time>2021-02-07T12:44:15Z</time>
      </trkpt>
      <trkpt lat="43.62319" lon="3.76076">
        <ele>132.9</ele>
        <time>2021-02-07T12:44:17Z</time>
      </trkpt>
      <trkpt lat="43.6232" lon="3.76071">
        <ele>133.1</ele>
        <time>2021-02-07T12:44:19Z</time>
      </trkpt>
      <trkpt lat="43.62322" lon="3.76067">
        <ele>133.6</ele>
        <time>2021-02-07T12:44:21Z</time>
      </trkpt>
      <trkpt lat="43.62323" lon="3.76065">
        <ele>133.8</ele>
        <time>2021-02-07T12:44:22Z</time>
      </trkpt>
      <trkpt lat="43.62324" lon="3.76063">
        <ele>135</ele>
        <time>2021-02-07T12:44:23Z</time>
      </trkpt>
      <trkpt lat="43.62325" lon="3.7606">
        <ele>134.2</ele>
        <time>2021-02-07T12:44:24Z</time>
      </trkpt>
      <trkpt lat="43.62325" lon="3.76058">
        <ele>134.2</ele>
        <time>2021-02-07T12:44:25Z</time>
      </trkpt>
      <trkpt lat="43.62326" lon="3.76056">
        <ele>134.4</ele>
        <time>2021-02-07T12:44:26Z</time>
      </trkpt>
      <trkpt lat="43.62327" lon="3.76053">
        <ele>134.6</ele>
        <time>2021-02-07T12:44:27Z</time>
      </trkpt>
      <trkpt lat="43.62327" lon="3.76051">
        <ele>134.6</ele>
        <time>2021-02-07T12:44:28Z</time>
      </trkpt>
      <trkpt lat="43.62328" lon="3.76048">
        <ele>134.8</ele>
        <time>2021-02-07T12:44:29Z</time>
      </trkpt>
      <trkpt lat="43.62328" lon="3.76046">
        <ele>134.8</ele>
        <time>2021-02-07T12:44:30Z</time>
      </trkpt>
      <trkpt lat="43.62328" lon="3.76043">
        <ele>134.8</ele>
        <time>2021-02-07T12:44:31Z</time>
      </trkpt>
      <trkpt lat="43.62329" lon="3.76038">
        <ele>136</ele>
        <time>2021-02-07T12:44:33Z</time>
      </trkpt>
      <trkpt lat="43.62329" lon="3.76036">
        <ele>135.1</ele>
        <time>2021-02-07T12:44:34Z</time>
      </trkpt>
      <trkpt lat="43.62329" lon="3.76033">
        <ele>135.1</ele>
        <time>2021-02-07T12:44:35Z</time>
      </trkpt>
      <trkpt lat="43.6233" lon="3.7603">
        <ele>135.3</ele>
        <time>2021-02-07T12:44:36Z</time>
      </trkpt>
      <trkpt lat="43.6233" lon="3.76028">
        <ele>135.3</ele>
        <time>2021-02-07T12:44:37Z</time>
      </trkpt>
      <trkpt lat="43.62331" lon="3.76025">
        <ele>135.6</ele>
        <time>2021-02-07T12:44:38Z</time>
      </trkpt>
      <trkpt lat="43.62331" lon="3.76023">
        <ele>135.7</ele>
        <time>2021-02-07T12:44:39Z</time>
      </trkpt>
      <trkpt lat="43.62332" lon="3.7602">
        <ele>136</ele>
        <time>2021-02-07T12:44:40Z</time>
      </trkpt>
      <trkpt lat="43.62332" lon="3.76017">
        <ele>136.1</ele>
        <time>2021-02-07T12:44:41Z</time>
      </trkpt>
      <trkpt lat="43.62332" lon="3.76015">
        <ele>136.2</ele>
        <time>2021-02-07T12:44:42Z</time>
      </trkpt>
      <trkpt lat="43.62333" lon="3.76012">
        <ele>137</ele>
        <time>2021-02-07T12:44:43Z</time>
      </trkpt>
      <trkpt lat="43.62333" lon="3.76009">
        <ele>136.6</ele>
        <time>2021-02-07T12:44:44Z</time>
      </trkpt>
      <trkpt lat="43.62333" lon="3.76007">
        <ele>136.7</ele>
        <time>2021-02-07T12:44:45Z</time>
      </trkpt>
      <trkpt lat="43.62334" lon="3.76004">
        <ele>137</ele>
        <time>2021-02-07T12:44:46Z</time>
      </trkpt>
      <trkpt lat="43.62334" lon="3.76001">
        <ele>137.1</ele>
        <time>2021-02-07T12:44:47Z</time>
      </trkpt>
      <trkpt lat="43.62335" lon="3.75999">
        <ele>137.3</ele>
        <time>2021-02-07T12:44:48Z</time>
      </trkpt>
      <trkpt lat="43.62336" lon="3.75996">
        <ele>137.6</ele>
        <time>2021-02-07T12:44:49Z</time>
      </trkpt>
      <trkpt lat="43.62336" lon="3.75994">
        <ele>137.7</ele>
        <time>2021-02-07T12:44:50Z</time>
      </trkpt>
      <trkpt lat="43.62336" lon="3.75991">
        <ele>137.8</ele>
        <time>2021-02-07T12:44:51Z</time>
      </trkpt>
      <trkpt lat="43.62337" lon="3.75989">
        <ele>138</ele>
        <time>2021-02-07T12:44:52Z</time>
      </trkpt>
      <trkpt lat="43.62338" lon="3.75984">
        <ele>138.3</ele>
        <time>2021-02-07T12:44:54Z</time>
      </trkpt>
      <trkpt lat="43.6234" lon="3.7598">
        <ele>138.7</ele>
        <time>2021-02-07T12:44:56Z</time>
      </trkpt>
      <trkpt lat="43.62341" lon="3.75976">
        <ele>139</ele>
        <time>2021-02-07T12:44:58Z</time>
      </trkpt>
      <trkpt lat="43.62342" lon="3.75972">
        <ele>139.3</ele>
        <time>2021-02-07T12:45:00Z</time>
      </trkpt>
      <trkpt lat="43.62344" lon="3.75968">
        <ele>139.8</ele>
        <time>2021-02-07T12:45:02Z</time>
      </trkpt>
      <trkpt lat="43.62345" lon="3.75963">
        <ele>140.2</ele>
        <time>2021-02-07T12:45:04Z</time>
      </trkpt>
      <trkpt lat="43.62346" lon="3.75959">
        <ele>140.6</ele>
        <time>2021-02-07T12:45:06Z</time>
      </trkpt>
      <trkpt lat="43.62348" lon="3.75956">
        <ele>141</ele>
        <time>2021-02-07T12:45:08Z</time>
      </trkpt>
      <trkpt lat="43.62351" lon="3.75952">
        <ele>141.5</ele>
        <time>2021-02-07T12:45:10Z</time>
      </trkpt>
      <trkpt lat="43.62353" lon="3.75949">
        <ele>141.9</ele>
        <time>2021-02-07T12:45:12Z</time>
      </trkpt>
      <trkpt lat="43.62355" lon="3.75946">
        <ele>142</ele>
        <time>2021-02-07T12:45:13Z</time>
      </trkpt>
      <trkpt lat="43.62357" lon="3.75943">
        <ele>142.6</ele>
        <time>2021-02-07T12:45:15Z</time>
      </trkpt>
      <trkpt lat="43.62359" lon="3.7594">
        <ele>142.8</ele>
        <time>2021-02-07T12:45:18Z</time>
      </trkpt>
      <trkpt lat="43.62361" lon="3.75936">
        <ele>143</ele>
        <time>2021-02-07T12:45:20Z</time>
      </trkpt>
      <trkpt lat="43.62363" lon="3.75932">
        <ele>143.2</ele>
        <time>2021-02-07T12:45:22Z</time>
      </trkpt>
      <trkpt lat="43.62365" lon="3.75929">
        <ele>143.4</ele>
        <time>2021-02-07T12:45:24Z</time>
      </trkpt>
      <trkpt lat="43.62366" lon="3.75924">
        <ele>143.5</ele>
        <time>2021-02-07T12:45:26Z</time>
      </trkpt>
      <trkpt lat="43.62367" lon="3.7592">
        <ele>143.6</ele>
        <time>2021-02-07T12:45:28Z</time>
      </trkpt>
      <trkpt lat="43.62368" lon="3.75915">
        <ele>143.8</ele>
        <time>2021-02-07T12:45:30Z</time>
      </trkpt>
      <trkpt lat="43.62369" lon="3.75911">
        <ele>144.2</ele>
        <time>2021-02-07T12:45:32Z</time>
      </trkpt>
      <trkpt lat="43.6237" lon="3.75906">
        <ele>144.6</ele>
        <time>2021-02-07T12:45:34Z</time>
      </trkpt>
      <trkpt lat="43.6237" lon="3.75902">
        <ele>144.8</ele>
        <time>2021-02-07T12:45:36Z</time>
      </trkpt>
      <trkpt lat="43.6237" lon="3.75898">
        <ele>145.1</ele>
        <time>2021-02-07T12:45:38Z</time>
      </trkpt>
      <trkpt lat="43.62369" lon="3.75893">
        <ele>145.3</ele>
        <time>2021-02-07T12:45:40Z</time>
      </trkpt>
      <trkpt lat="43.62368" lon="3.75891">
        <ele>145.4</ele>
        <time>2021-02-07T12:45:41Z</time>
      </trkpt>
      <trkpt lat="43.62367" lon="3.75888">
        <ele>145.5</ele>
        <time>2021-02-07T12:45:42Z</time>
      </trkpt>
      <trkpt lat="43.62366" lon="3.75886">
        <ele>145</ele>
        <time>2021-02-07T12:45:43Z</time>
      </trkpt>
      <trkpt lat="43.62365" lon="3.75884">
        <ele>145.5</ele>
        <time>2021-02-07T12:45:44Z</time>
      </trkpt>
      <trkpt lat="43.62365" lon="3.75882">
        <ele>145.5</ele>
        <time>2021-02-07T12:45:45Z</time>
      </trkpt>
      <trkpt lat="43.62364" lon="3.75877">
        <ele>145.6</ele>
        <time>2021-02-07T12:45:47Z</time>
      </trkpt>
      <trkpt lat="43.62363" lon="3.75875">
        <ele>145.6</ele>
        <time>2021-02-07T12:45:48Z</time>
      </trkpt>
      <trkpt lat="43.62364" lon="3.7587">
        <ele>145.9</ele>
        <time>2021-02-07T12:45:50Z</time>
      </trkpt>
      <trkpt lat="43.62364" lon="3.75867">
        <ele>146</ele>
        <time>2021-02-07T12:45:51Z</time>
      </trkpt>
      <trkpt lat="43.62365" lon="3.75865">
        <ele>146.1</ele>
        <time>2021-02-07T12:45:52Z</time>
      </trkpt>
      <trkpt lat="43.62366" lon="3.75863">
        <ele>146</ele>
        <time>2021-02-07T12:45:53Z</time>
      </trkpt>
      <trkpt lat="43.62367" lon="3.75861">
        <ele>146.4</ele>
        <time>2021-02-07T12:45:54Z</time>
      </trkpt>
      <trkpt lat="43.62369" lon="3.75857">
        <ele>146.8</ele>
        <time>2021-02-07T12:45:56Z</time>
      </trkpt>
      <trkpt lat="43.62369" lon="3.75854">
        <ele>146.9</ele>
        <time>2021-02-07T12:45:57Z</time>
      </trkpt>
      <trkpt lat="43.6237" lon="3.75852">
        <ele>147.1</ele>
        <time>2021-02-07T12:45:58Z</time>
      </trkpt>
      <trkpt lat="43.62372" lon="3.75848">
        <ele>147.4</ele>
        <time>2021-02-07T12:46:00Z</time>
      </trkpt>
      <trkpt lat="43.62373" lon="3.75846">
        <ele>147.6</ele>
        <time>2021-02-07T12:46:01Z</time>
      </trkpt>
      <trkpt lat="43.62374" lon="3.75843">
        <ele>147.9</ele>
        <time>2021-02-07T12:46:02Z</time>
      </trkpt>
      <trkpt lat="43.62375" lon="3.75839">
        <ele>148.2</ele>
        <time>2021-02-07T12:46:04Z</time>
      </trkpt>
      <trkpt lat="43.62376" lon="3.75837">
        <ele>148.4</ele>
        <time>2021-02-07T12:46:05Z</time>
      </trkpt>
      <trkpt lat="43.62377" lon="3.75834">
        <ele>148.7</ele>
        <time>2021-02-07T12:46:06Z</time>
      </trkpt>
      <trkpt lat="43.62378" lon="3.7583">
        <ele>148.9</ele>
        <time>2021-02-07T12:46:08Z</time>
      </trkpt>
      <trkpt lat="43.62379" lon="3.75828">
        <ele>149.1</ele>
        <time>2021-02-07T12:46:09Z</time>
      </trkpt>
      <trkpt lat="43.6238" lon="3.75823">
        <ele>149.4</ele>
        <time>2021-02-07T12:46:11Z</time>
      </trkpt>
      <trkpt lat="43.62381" lon="3.75819">
        <ele>149.7</ele>
        <time>2021-02-07T12:46:13Z</time>
      </trkpt>
      <trkpt lat="43.62382" lon="3.75815">
        <ele>149.9</ele>
        <time>2021-02-07T12:46:15Z</time>
      </trkpt>
      <trkpt lat="43.62382" lon="3.75811">
        <ele>150.1</ele>
        <time>2021-02-07T12:46:17Z</time>
      </trkpt>
      <trkpt lat="43.62382" lon="3.75806">
        <ele>150.2</ele>
        <time>2021-02-07T12:46:18Z</time>
      </trkpt>
      <trkpt lat="43.62381" lon="3.75801">
        <ele>150.5</ele>
        <time>2021-02-07T12:46:20Z</time>
      </trkpt>
      <trkpt lat="43.62381" lon="3.75797">
        <ele>150.8</ele>
        <time>2021-02-07T12:46:22Z</time>
      </trkpt>
      <trkpt lat="43.62381" lon="3.75794">
        <ele>151</ele>
        <time>2021-02-07T12:46:24Z</time>
      </trkpt>
      <trkpt lat="43.6238" lon="3.75789">
        <ele>151.2</ele>
        <time>2021-02-07T12:46:26Z</time>
      </trkpt>
      <trkpt lat="43.6238" lon="3.75787">
        <ele>151.4</ele>
        <time>2021-02-07T12:46:27Z</time>
      </trkpt>
      <trkpt lat="43.6238" lon="3.75784">
        <ele>151.6</ele>
        <time>2021-02-07T12:46:28Z</time>
      </trkpt>
      <trkpt lat="43.6238" lon="3.75779">
        <ele>152</ele>
        <time>2021-02-07T12:46:30Z</time>
      </trkpt>
      <trkpt lat="43.6238" lon="3.75774">
        <ele>152.2</ele>
        <time>2021-02-07T12:46:32Z</time>
      </trkpt>
      <trkpt lat="43.62379" lon="3.75772">
        <ele>152</ele>
        <time>2021-02-07T12:46:33Z</time>
      </trkpt>
      <trkpt lat="43.62379" lon="3.75767">
        <ele>152.3</ele>
        <time>2021-02-07T12:46:35Z</time>
      </trkpt>
      <trkpt lat="43.62379" lon="3.75764">
        <ele>152.4</ele>
        <time>2021-02-07T12:46:36Z</time>
      </trkpt>
      <trkpt lat="43.62379" lon="3.75762">
        <ele>152.5</ele>
        <time>2021-02-07T12:46:37Z</time>
      </trkpt>
      <trkpt lat="43.62379" lon="3.75759">
        <ele>152.6</ele>
        <time>2021-02-07T12:46:38Z</time>
      </trkpt>
      <trkpt lat="43.62378" lon="3.75757">
        <ele>152.6</ele>
        <time>2021-02-07T12:46:39Z</time>
      </trkpt>
      <trkpt lat="43.62378" lon="3.75754">
        <ele>152.7</ele>
        <time>2021-02-07T12:46:40Z</time>
      </trkpt>
      <trkpt lat="43.62378" lon="3.75751">
        <ele>152.8</ele>
        <time>2021-02-07T12:46:41Z</time>
      </trkpt>
      <trkpt lat="43.62378" lon="3.75748">
        <ele>152.9</ele>
        <time>2021-02-07T12:46:42Z</time>
      </trkpt>
      <trkpt lat="43.62378" lon="3.75745">
        <ele>153</ele>
        <time>2021-02-07T12:46:43Z</time>
      </trkpt>
      <trkpt lat="43.62378" lon="3.75742">
        <ele>153.1</ele>
        <time>2021-02-07T12:46:44Z</time>
      </trkpt>
      <trkpt lat="43.62378" lon="3.75739">
        <ele>153.2</ele>
        <time>2021-02-07T12:46:45Z</time>
      </trkpt>
      <trkpt lat="43.62378" lon="3.75736">
        <ele>153.3</ele>
        <time>2021-02-07T12:46:46Z</time>
      </trkpt>
      <trkpt lat="43.62378" lon="3.75734">
        <ele>153.4</ele>
        <time>2021-02-07T12:46:47Z</time>
      </trkpt>
      <trkpt lat="43.62378" lon="3.75731">
        <ele>153.5</ele>
        <time>2021-02-07T12:46:48Z</time>
      </trkpt>
      <trkpt lat="43.62378" lon="3.75728">
        <ele>153.6</ele>
        <time>2021-02-07T12:46:49Z</time>
      </trkpt>
      <trkpt lat="43.62378" lon="3.75725">
        <ele>153.7</ele>
        <time>2021-02-07T12:46:50Z</time>
      </trkpt>
      <trkpt lat="43.62378" lon="3.75722">
        <ele>153.8</ele>
        <time>2021-02-07T12:46:51Z</time>
      </trkpt>
      <trkpt lat="43.62378" lon="3.75719">
        <ele>153.9</ele>
        <time>2021-02-07T12:46:52Z</time>
      </trkpt>
      <trkpt lat="43.62378" lon="3.75717">
        <ele>155</ele>
        <time>2021-02-07T12:46:53Z</time>
      </trkpt>
      <trkpt lat="43.62378" lon="3.75714">
        <ele>154.1</ele>
        <time>2021-02-07T12:46:54Z</time>
      </trkpt>
      <trkpt lat="43.62378" lon="3.75711">
        <ele>154.2</ele>
        <time>2021-02-07T12:46:55Z</time>
      </trkpt>
      <trkpt lat="43.62378" lon="3.75708">
        <ele>154.3</ele>
        <time>2021-02-07T12:46:56Z</time>
      </trkpt>
      <trkpt lat="43.62378" lon="3.75705">
        <ele>154.4</ele>
        <time>2021-02-07T12:46:57Z</time>
      </trkpt>
      <trkpt lat="43.62378" lon="3.75703">
        <ele>154.5</ele>
        <time>2021-02-07T12:46:58Z</time>
      </trkpt>
      <trkpt lat="43.62379" lon="3.757">
        <ele>154.7</ele>
        <time>2021-02-07T12:46:59Z</time>
      </trkpt>
      <trkpt lat="43.62379" lon="3.75697">
        <ele>154.8</ele>
        <time>2021-02-07T12:47:00Z</time>
      </trkpt>
      <trkpt lat="43.62379" lon="3.75695">
        <ele>154.9</ele>
        <time>2021-02-07T12:47:01Z</time>
      </trkpt>
      <trkpt lat="43.62379" lon="3.75692">
        <ele>155</ele>
        <time>2021-02-07T12:47:02Z</time>
      </trkpt>
      <trkpt lat="43.6238" lon="3.7569">
        <ele>156</ele>
        <time>2021-02-07T12:47:03Z</time>
      </trkpt>
      <trkpt lat="43.62381" lon="3.75688">
        <ele>155.3</ele>
        <time>2021-02-07T12:47:04Z</time>
      </trkpt>
      <trkpt lat="43.62383" lon="3.75684">
        <ele>155.7</ele>
        <time>2021-02-07T12:47:06Z</time>
      </trkpt>
      <trkpt lat="43.62385" lon="3.7568">
        <ele>156</ele>
        <time>2021-02-07T12:47:08Z</time>
      </trkpt>
      <trkpt lat="43.62386" lon="3.75678">
        <ele>156.2</ele>
        <time>2021-02-07T12:47:09Z</time>
      </trkpt>
      <trkpt lat="43.62387" lon="3.75674">
        <ele>156.5</ele>
        <time>2021-02-07T12:47:11Z</time>
      </trkpt>
      <trkpt lat="43.62389" lon="3.75669">
        <ele>158</ele>
        <time>2021-02-07T12:47:13Z</time>
      </trkpt>
      <trkpt lat="43.6239" lon="3.75665">
        <ele>157.2</ele>
        <time>2021-02-07T12:47:15Z</time>
      </trkpt>
      <trkpt lat="43.62391" lon="3.75662">
        <ele>157.4</ele>
        <time>2021-02-07T12:47:16Z</time>
      </trkpt>
      <trkpt lat="43.62392" lon="3.7566">
        <ele>157.6</ele>
        <time>2021-02-07T12:47:17Z</time>
      </trkpt>
      <trkpt lat="43.62393" lon="3.75655">
        <ele>157.9</ele>
        <time>2021-02-07T12:47:19Z</time>
      </trkpt>
      <trkpt lat="43.62394" lon="3.75653">
        <ele>158</ele>
        <time>2021-02-07T12:47:20Z</time>
      </trkpt>
      <trkpt lat="43.62395" lon="3.75651">
        <ele>158.2</ele>
        <time>2021-02-07T12:47:21Z</time>
      </trkpt>
      <trkpt lat="43.62396" lon="3.75646">
        <ele>159</ele>
        <time>2021-02-07T12:47:23Z</time>
      </trkpt>
      <trkpt lat="43.62397" lon="3.75642">
        <ele>158.8</ele>
        <time>2021-02-07T12:47:25Z</time>
      </trkpt>
      <trkpt lat="43.62398" lon="3.75638">
        <ele>159</ele>
        <time>2021-02-07T12:47:27Z</time>
      </trkpt>
      <trkpt lat="43.624" lon="3.75633">
        <ele>159.4</ele>
        <time>2021-02-07T12:47:29Z</time>
      </trkpt>
      <trkpt lat="43.62401" lon="3.75629">
        <ele>159.7</ele>
        <time>2021-02-07T12:47:31Z</time>
      </trkpt>
      <trkpt lat="43.62402" lon="3.75625">
        <ele>161</ele>
        <time>2021-02-07T12:47:33Z</time>
      </trkpt>
      <trkpt lat="43.62403" lon="3.7562">
        <ele>160.2</ele>
        <time>2021-02-07T12:47:35Z</time>
      </trkpt>
      <trkpt lat="43.62405" lon="3.75616">
        <ele>160.6</ele>
        <time>2021-02-07T12:47:37Z</time>
      </trkpt>
      <trkpt lat="43.62406" lon="3.75612">
        <ele>160.8</ele>
        <time>2021-02-07T12:47:39Z</time>
      </trkpt>
      <trkpt lat="43.62408" lon="3.75609">
        <ele>161.2</ele>
        <time>2021-02-07T12:47:41Z</time>
      </trkpt>
      <trkpt lat="43.6241" lon="3.75605">
        <ele>162</ele>
        <time>2021-02-07T12:47:43Z</time>
      </trkpt>
      <trkpt lat="43.62411" lon="3.75602">
        <ele>162</ele>
        <time>2021-02-07T12:47:45Z</time>
      </trkpt>
      <trkpt lat="43.62413" lon="3.75598">
        <ele>162.5</ele>
        <time>2021-02-07T12:47:47Z</time>
      </trkpt>
      <trkpt lat="43.62415" lon="3.75596">
        <ele>162.9</ele>
        <time>2021-02-07T12:47:48Z</time>
      </trkpt>
      <trkpt lat="43.62418" lon="3.75593">
        <ele>163.4</ele>
        <time>2021-02-07T12:47:50Z</time>
      </trkpt>
      <trkpt lat="43.6242" lon="3.7559">
        <ele>163.7</ele>
        <time>2021-02-07T12:47:52Z</time>
      </trkpt>
      <trkpt lat="43.62422" lon="3.75587">
        <ele>164</ele>
        <time>2021-02-07T12:47:55Z</time>
      </trkpt>
      <trkpt lat="43.62425" lon="3.75584">
        <ele>164.3</ele>
        <time>2021-02-07T12:47:57Z</time>
      </trkpt>
      <trkpt lat="43.62427" lon="3.75581">
        <ele>164.5</ele>
        <time>2021-02-07T12:47:59Z</time>
      </trkpt>
      <trkpt lat="43.6243" lon="3.75579">
        <ele>164.6</ele>
        <time>2021-02-07T12:48:01Z</time>
      </trkpt>
      <trkpt lat="43.62433" lon="3.75577">
        <ele>165</ele>
        <time>2021-02-07T12:48:03Z</time>
      </trkpt>
      <trkpt lat="43.62435" lon="3.75574">
        <ele>165</ele>
        <time>2021-02-07T12:48:05Z</time>
      </trkpt>
      <trkpt lat="43.62437" lon="3.75571">
        <ele>165.2</ele>
        <time>2021-02-07T12:48:07Z</time>
      </trkpt>
      <trkpt lat="43.6244" lon="3.75568">
        <ele>165.4</ele>
        <time>2021-02-07T12:48:09Z</time>
      </trkpt>
      <trkpt lat="43.62442" lon="3.75566">
        <ele>165.5</ele>
        <time>2021-02-07T12:48:11Z</time>
      </trkpt>
      <trkpt lat="43.62444" lon="3.75563">
        <ele>166</ele>
        <time>2021-02-07T12:48:13Z</time>
      </trkpt>
      <trkpt lat="43.62446" lon="3.75559">
        <ele>165.9</ele>
        <time>2021-02-07T12:48:15Z</time>
      </trkpt>
      <trkpt lat="43.62448" lon="3.75555">
        <ele>166.2</ele>
        <time>2021-02-07T12:48:17Z</time>
      </trkpt>
      <trkpt lat="43.6245" lon="3.75554">
        <ele>166.3</ele>
        <time>2021-02-07T12:48:19Z</time>
      </trkpt>
      <trkpt lat="43.62452" lon="3.75555">
        <ele>166.3</ele>
        <time>2021-02-07T12:48:21Z</time>
      </trkpt>
      <trkpt lat="43.62454" lon="3.75556">
        <ele>167</ele>
        <time>2021-02-07T12:48:23Z</time>
      </trkpt>
      <trkpt lat="43.62456" lon="3.75555">
        <ele>166.4</ele>
        <time>2021-02-07T12:48:25Z</time>
      </trkpt>
      <trkpt lat="43.62456" lon="3.75554">
        <ele>167</ele>
        <time>2021-02-07T12:48:31Z</time>
      </trkpt>
      <trkpt lat="43.62458" lon="3.75553">
        <ele>168</ele>
        <time>2021-02-07T12:49:11Z</time>
      </trkpt>
      <trkpt lat="43.62456" lon="3.75554">
        <ele>168</ele>
        <time>2021-02-07T12:49:22Z</time>
      </trkpt>
      <trkpt lat="43.62461" lon="3.75562">
        <ele>167</ele>
        <time>2021-02-07T12:51:03Z</time>
      </trkpt>
      <trkpt lat="43.62463" lon="3.75564">
        <ele>166.2</ele>
        <time>2021-02-07T12:51:04Z</time>
      </trkpt>
      <trkpt lat="43.62464" lon="3.75563">
        <ele>167</ele>
        <time>2021-02-07T12:51:10Z</time>
      </trkpt>
      <trkpt lat="43.62472" lon="3.75567">
        <ele>166</ele>
        <time>2021-02-07T12:51:31Z</time>
      </trkpt>
      <trkpt lat="43.62473" lon="3.75568">
        <ele>166.1</ele>
        <time>2021-02-07T12:51:32Z</time>
      </trkpt>
      <trkpt lat="43.62475" lon="3.7557">
        <ele>165.9</ele>
        <time>2021-02-07T12:51:33Z</time>
      </trkpt>
      <trkpt lat="43.62477" lon="3.75571">
        <ele>165.7</ele>
        <time>2021-02-07T12:51:34Z</time>
      </trkpt>
      <trkpt lat="43.62479" lon="3.75572">
        <ele>165.6</ele>
        <time>2021-02-07T12:51:35Z</time>
      </trkpt>
      <trkpt lat="43.62481" lon="3.75574">
        <ele>165.4</ele>
        <time>2021-02-07T12:51:36Z</time>
      </trkpt>
      <trkpt lat="43.62484" lon="3.75576">
        <ele>165.1</ele>
        <time>2021-02-07T12:51:37Z</time>
      </trkpt>
      <trkpt lat="43.62487" lon="3.75578">
        <ele>164.9</ele>
        <time>2021-02-07T12:51:38Z</time>
      </trkpt>
      <trkpt lat="43.6249" lon="3.7558">
        <ele>164.6</ele>
        <time>2021-02-07T12:51:39Z</time>
      </trkpt>
      <trkpt lat="43.62493" lon="3.75582">
        <ele>164</ele>
        <time>2021-02-07T12:51:40Z</time>
      </trkpt>
      <trkpt lat="43.62495" lon="3.75584">
        <ele>164.1</ele>
        <time>2021-02-07T12:51:41Z</time>
      </trkpt>
      <trkpt lat="43.62498" lon="3.75585">
        <ele>164</ele>
        <time>2021-02-07T12:51:42Z</time>
      </trkpt>
      <trkpt lat="43.62501" lon="3.75586">
        <ele>163.7</ele>
        <time>2021-02-07T12:51:43Z</time>
      </trkpt>
      <trkpt lat="43.62504" lon="3.75585">
        <ele>163.6</ele>
        <time>2021-02-07T12:51:44Z</time>
      </trkpt>
      <trkpt lat="43.62506" lon="3.75583">
        <ele>163.6</ele>
        <time>2021-02-07T12:51:45Z</time>
      </trkpt>
      <trkpt lat="43.62508" lon="3.7558">
        <ele>163.6</ele>
        <time>2021-02-07T12:51:46Z</time>
      </trkpt>
      <trkpt lat="43.62509" lon="3.75578">
        <ele>163.7</ele>
        <time>2021-02-07T12:51:47Z</time>
      </trkpt>
      <trkpt lat="43.62509" lon="3.75575">
        <ele>163.9</ele>
        <time>2021-02-07T12:51:48Z</time>
      </trkpt>
      <trkpt lat="43.6251" lon="3.75573">
        <ele>163.9</ele>
        <time>2021-02-07T12:51:49Z</time>
      </trkpt>
      <trkpt lat="43.6251" lon="3.7557">
        <ele>164.1</ele>
        <time>2021-02-07T12:51:50Z</time>
      </trkpt>
      <trkpt lat="43.62511" lon="3.75568">
        <ele>163</ele>
        <time>2021-02-07T12:51:51Z</time>
      </trkpt>
      <trkpt lat="43.62511" lon="3.75563">
        <ele>164.4</ele>
        <time>2021-02-07T12:51:52Z</time>
      </trkpt>
      <trkpt lat="43.62511" lon="3.75561">
        <ele>164.5</ele>
        <time>2021-02-07T12:51:53Z</time>
      </trkpt>
      <trkpt lat="43.62512" lon="3.75558">
        <ele>164.6</ele>
        <time>2021-02-07T12:51:54Z</time>
      </trkpt>
      <trkpt lat="43.62513" lon="3.75553">
        <ele>164.8</ele>
        <time>2021-02-07T12:51:56Z</time>
      </trkpt>
      <trkpt lat="43.62513" lon="3.75551">
        <ele>164.9</ele>
        <time>2021-02-07T12:51:57Z</time>
      </trkpt>
      <trkpt lat="43.62514" lon="3.75548">
        <ele>165</ele>
        <time>2021-02-07T12:51:58Z</time>
      </trkpt>
      <trkpt lat="43.62514" lon="3.75546">
        <ele>164</ele>
        <time>2021-02-07T12:52:00Z</time>
      </trkpt>
      <trkpt lat="43.62515" lon="3.75543">
        <ele>165.3</ele>
        <time>2021-02-07T12:52:01Z</time>
      </trkpt>
      <trkpt lat="43.62515" lon="3.75539">
        <ele>165.6</ele>
        <time>2021-02-07T12:52:03Z</time>
      </trkpt>
      <trkpt lat="43.62516" lon="3.75534">
        <ele>165.8</ele>
        <time>2021-02-07T12:52:05Z</time>
      </trkpt>
      <trkpt lat="43.62517" lon="3.75532">
        <ele>165.9</ele>
        <time>2021-02-07T12:52:06Z</time>
      </trkpt>
      <trkpt lat="43.62517" lon="3.75529">
        <ele>166.1</ele>
        <time>2021-02-07T12:52:07Z</time>
      </trkpt>
      <trkpt lat="43.62518" lon="3.75524">
        <ele>166.2</ele>
        <time>2021-02-07T12:52:09Z</time>
      </trkpt>
      <trkpt lat="43.62519" lon="3.7552">
        <ele>166.2</ele>
        <time>2021-02-07T12:52:11Z</time>
      </trkpt>
      <trkpt lat="43.6252" lon="3.75515">
        <ele>166.3</ele>
        <time>2021-02-07T12:52:13Z</time>
      </trkpt>
      <trkpt lat="43.62521" lon="3.75511">
        <ele>166.3</ele>
        <time>2021-02-07T12:52:15Z</time>
      </trkpt>
      <trkpt lat="43.62522" lon="3.75506">
        <ele>166.4</ele>
        <time>2021-02-07T12:52:17Z</time>
      </trkpt>
      <trkpt lat="43.62523" lon="3.75504">
        <ele>166.4</ele>
        <time>2021-02-07T12:52:18Z</time>
      </trkpt>
      <trkpt lat="43.62523" lon="3.75502">
        <ele>166.4</ele>
        <time>2021-02-07T12:52:19Z</time>
      </trkpt>
      <trkpt lat="43.62525" lon="3.75497">
        <ele>166.6</ele>
        <time>2021-02-07T12:52:21Z</time>
      </trkpt>
      <trkpt lat="43.62525" lon="3.75495">
        <ele>166.8</ele>
        <time>2021-02-07T12:52:22Z</time>
      </trkpt>
      <trkpt lat="43.62526" lon="3.75492">
        <ele>167</ele>
        <time>2021-02-07T12:52:23Z</time>
      </trkpt>
      <trkpt lat="43.62527" lon="3.7549">
        <ele>167.2</ele>
        <time>2021-02-07T12:52:24Z</time>
      </trkpt>
      <trkpt lat="43.62528" lon="3.75486">
        <ele>167.5</ele>
        <time>2021-02-07T12:52:26Z</time>
      </trkpt>
      <trkpt lat="43.6253" lon="3.75482">
        <ele>167.7</ele>
        <time>2021-02-07T12:52:28Z</time>
      </trkpt>
      <trkpt lat="43.62531" lon="3.75477">
        <ele>167</ele>
        <time>2021-02-07T12:52:30Z</time>
      </trkpt>
      <trkpt lat="43.62532" lon="3.75473">
        <ele>168.5</ele>
        <time>2021-02-07T12:52:32Z</time>
      </trkpt>
      <trkpt lat="43.62533" lon="3.75468">
        <ele>168.6</ele>
        <time>2021-02-07T12:52:34Z</time>
      </trkpt>
      <trkpt lat="43.62534" lon="3.75464">
        <ele>168.7</ele>
        <time>2021-02-07T12:52:36Z</time>
      </trkpt>
      <trkpt lat="43.62535" lon="3.75459">
        <ele>168.8</ele>
        <time>2021-02-07T12:52:38Z</time>
      </trkpt>
      <trkpt lat="43.62536" lon="3.75457">
        <ele>168.8</ele>
        <time>2021-02-07T12:52:39Z</time>
      </trkpt>
      <trkpt lat="43.62536" lon="3.75454">
        <ele>168</ele>
        <time>2021-02-07T12:52:40Z</time>
      </trkpt>
      <trkpt lat="43.62536" lon="3.75452">
        <ele>169.1</ele>
        <time>2021-02-07T12:52:41Z</time>
      </trkpt>
      <trkpt lat="43.62537" lon="3.75449">
        <ele>169.1</ele>
        <time>2021-02-07T12:52:42Z</time>
      </trkpt>
      <trkpt lat="43.62537" lon="3.75447">
        <ele>169.2</ele>
        <time>2021-02-07T12:52:43Z</time>
      </trkpt>
      <trkpt lat="43.62538" lon="3.75444">
        <ele>169.3</ele>
        <time>2021-02-07T12:52:44Z</time>
      </trkpt>
      <trkpt lat="43.62538" lon="3.75441">
        <ele>169.5</ele>
        <time>2021-02-07T12:52:45Z</time>
      </trkpt>
      <trkpt lat="43.62538" lon="3.75439">
        <ele>169.7</ele>
        <time>2021-02-07T12:52:46Z</time>
      </trkpt>
      <trkpt lat="43.62539" lon="3.75436">
        <ele>169.8</ele>
        <time>2021-02-07T12:52:47Z</time>
      </trkpt>
      <trkpt lat="43.6254" lon="3.75431">
        <ele>170.1</ele>
        <time>2021-02-07T12:52:49Z</time>
      </trkpt>
      <trkpt lat="43.6254" lon="3.75429">
        <ele>169</ele>
        <time>2021-02-07T12:52:50Z</time>
      </trkpt>
      <trkpt lat="43.6254" lon="3.75426">
        <ele>170.4</ele>
        <time>2021-02-07T12:52:51Z</time>
      </trkpt>
      <trkpt lat="43.62541" lon="3.75424">
        <ele>170.5</ele>
        <time>2021-02-07T12:52:52Z</time>
      </trkpt>
      <trkpt lat="43.62541" lon="3.75421">
        <ele>170.7</ele>
        <time>2021-02-07T12:52:53Z</time>
      </trkpt>
      <trkpt lat="43.62541" lon="3.75419">
        <ele>170.9</ele>
        <time>2021-02-07T12:52:54Z</time>
      </trkpt>
      <trkpt lat="43.62542" lon="3.75416">
        <ele>171</ele>
        <time>2021-02-07T12:52:55Z</time>
      </trkpt>
      <trkpt lat="43.62542" lon="3.75414">
        <ele>171.2</ele>
        <time>2021-02-07T12:52:56Z</time>
      </trkpt>
      <trkpt lat="43.62543" lon="3.75411">
        <ele>171.3</ele>
        <time>2021-02-07T12:52:57Z</time>
      </trkpt>
      <trkpt lat="43.62543" lon="3.75409">
        <ele>171.5</ele>
        <time>2021-02-07T12:52:58Z</time>
      </trkpt>
      <trkpt lat="43.62543" lon="3.75406">
        <ele>171.7</ele>
        <time>2021-02-07T12:52:59Z</time>
      </trkpt>
      <trkpt lat="43.62544" lon="3.75404">
        <ele>171</ele>
        <time>2021-02-07T12:53:00Z</time>
      </trkpt>
      <trkpt lat="43.62544" lon="3.75401">
        <ele>172</ele>
        <time>2021-02-07T12:53:01Z</time>
      </trkpt>
      <trkpt lat="43.62544" lon="3.75398">
        <ele>172.2</ele>
        <time>2021-02-07T12:53:02Z</time>
      </trkpt>
      <trkpt lat="43.62545" lon="3.75396">
        <ele>172.2</ele>
        <time>2021-02-07T12:53:03Z</time>
      </trkpt>
      <trkpt lat="43.62545" lon="3.75393">
        <ele>172.5</ele>
        <time>2021-02-07T12:53:04Z</time>
      </trkpt>
      <trkpt lat="43.62545" lon="3.7539">
        <ele>172.7</ele>
        <time>2021-02-07T12:53:05Z</time>
      </trkpt>
      <trkpt lat="43.62545" lon="3.75388">
        <ele>172.8</ele>
        <time>2021-02-07T12:53:06Z</time>
      </trkpt>
      <trkpt lat="43.62546" lon="3.75385">
        <ele>172.9</ele>
        <time>2021-02-07T12:53:07Z</time>
      </trkpt>
      <trkpt lat="43.62546" lon="3.75383">
        <ele>173</ele>
        <time>2021-02-07T12:53:08Z</time>
      </trkpt>
      <trkpt lat="43.62546" lon="3.7538">
        <ele>173.2</ele>
        <time>2021-02-07T12:53:09Z</time>
      </trkpt>
      <trkpt lat="43.62546" lon="3.75377">
        <ele>172</ele>
        <time>2021-02-07T12:53:10Z</time>
      </trkpt>
      <trkpt lat="43.62547" lon="3.75375">
        <ele>173.5</ele>
        <time>2021-02-07T12:53:11Z</time>
      </trkpt>
      <trkpt lat="43.62547" lon="3.75372">
        <ele>173.6</ele>
        <time>2021-02-07T12:53:12Z</time>
      </trkpt>
      <trkpt lat="43.62546" lon="3.75367">
        <ele>174</ele>
        <time>2021-02-07T12:53:14Z</time>
      </trkpt>
      <trkpt lat="43.62546" lon="3.75363">
        <ele>174.2</ele>
        <time>2021-02-07T12:53:16Z</time>
      </trkpt>
      <trkpt lat="43.62546" lon="3.75358">
        <ele>174.5</ele>
        <time>2021-02-07T12:53:18Z</time>
      </trkpt>
      <trkpt lat="43.62546" lon="3.75355">
        <ele>174.7</ele>
        <time>2021-02-07T12:53:19Z</time>
      </trkpt>
      <trkpt lat="43.62546" lon="3.75353">
        <ele>174</ele>
        <time>2021-02-07T12:53:20Z</time>
      </trkpt>
      <trkpt lat="43.62545" lon="3.75348">
        <ele>175.1</ele>
        <time>2021-02-07T12:53:22Z</time>
      </trkpt>
      <trkpt lat="43.62544" lon="3.75344">
        <ele>175.4</ele>
        <time>2021-02-07T12:53:24Z</time>
      </trkpt>
      <trkpt lat="43.62542" lon="3.75339">
        <ele>175.7</ele>
        <time>2021-02-07T12:53:26Z</time>
      </trkpt>
      <trkpt lat="43.62542" lon="3.75337">
        <ele>175.8</ele>
        <time>2021-02-07T12:53:27Z</time>
      </trkpt>
      <trkpt lat="43.62541" lon="3.75334">
        <ele>176</ele>
        <time>2021-02-07T12:53:28Z</time>
      </trkpt>
      <trkpt lat="43.62541" lon="3.75331">
        <ele>176.1</ele>
        <time>2021-02-07T12:53:29Z</time>
      </trkpt>
      <trkpt lat="43.6254" lon="3.75329">
        <ele>175</ele>
        <time>2021-02-07T12:53:30Z</time>
      </trkpt>
      <trkpt lat="43.6254" lon="3.75326">
        <ele>176.3</ele>
        <time>2021-02-07T12:53:31Z</time>
      </trkpt>
      <trkpt lat="43.62539" lon="3.75321">
        <ele>176.4</ele>
        <time>2021-02-07T12:53:33Z</time>
      </trkpt>
      <trkpt lat="43.62538" lon="3.75319">
        <ele>176.5</ele>
        <time>2021-02-07T12:53:34Z</time>
      </trkpt>
      <trkpt lat="43.62538" lon="3.75316">
        <ele>176.6</ele>
        <time>2021-02-07T12:53:35Z</time>
      </trkpt>
      <trkpt lat="43.62537" lon="3.75312">
        <ele>176.8</ele>
        <time>2021-02-07T12:53:37Z</time>
      </trkpt>
      <trkpt lat="43.62537" lon="3.75307">
        <ele>176.9</ele>
        <time>2021-02-07T12:53:39Z</time>
      </trkpt>
      <trkpt lat="43.62536" lon="3.75302">
        <ele>177.1</ele>
        <time>2021-02-07T12:53:41Z</time>
      </trkpt>
      <trkpt lat="43.62536" lon="3.753">
        <ele>177.2</ele>
        <time>2021-02-07T12:53:42Z</time>
      </trkpt>
      <trkpt lat="43.62535" lon="3.75297">
        <ele>177.3</ele>
        <time>2021-02-07T12:53:43Z</time>
      </trkpt>
      <trkpt lat="43.62535" lon="3.75294">
        <ele>177.4</ele>
        <time>2021-02-07T12:53:44Z</time>
      </trkpt>
      <trkpt lat="43.62534" lon="3.75292">
        <ele>177.5</ele>
        <time>2021-02-07T12:53:45Z</time>
      </trkpt>
      <trkpt lat="43.62534" lon="3.75289">
        <ele>177.6</ele>
        <time>2021-02-07T12:53:46Z</time>
      </trkpt>
      <trkpt lat="43.62534" lon="3.75287">
        <ele>177.7</ele>
        <time>2021-02-07T12:53:47Z</time>
      </trkpt>
      <trkpt lat="43.62533" lon="3.75284">
        <ele>177.8</ele>
        <time>2021-02-07T12:53:48Z</time>
      </trkpt>
      <trkpt lat="43.62533" lon="3.75281">
        <ele>177.9</ele>
        <time>2021-02-07T12:53:49Z</time>
      </trkpt>
      <trkpt lat="43.62532" lon="3.75278">
        <ele>177</ele>
        <time>2021-02-07T12:53:50Z</time>
      </trkpt>
      <trkpt lat="43.62532" lon="3.75275">
        <ele>178.1</ele>
        <time>2021-02-07T12:53:51Z</time>
      </trkpt>
      <trkpt lat="43.62532" lon="3.75272">
        <ele>178.2</ele>
        <time>2021-02-07T12:53:52Z</time>
      </trkpt>
      <trkpt lat="43.62532" lon="3.75269">
        <ele>178.3</ele>
        <time>2021-02-07T12:53:53Z</time>
      </trkpt>
      <trkpt lat="43.62532" lon="3.75266">
        <ele>178.4</ele>
        <time>2021-02-07T12:53:54Z</time>
      </trkpt>
      <trkpt lat="43.62532" lon="3.75263">
        <ele>178.5</ele>
        <time>2021-02-07T12:53:55Z</time>
      </trkpt>
      <trkpt lat="43.62532" lon="3.7526">
        <ele>178.6</ele>
        <time>2021-02-07T12:53:56Z</time>
      </trkpt>
      <trkpt lat="43.62533" lon="3.75257">
        <ele>178.7</ele>
        <time>2021-02-07T12:53:57Z</time>
      </trkpt>
      <trkpt lat="43.62533" lon="3.75254">
        <ele>178.9</ele>
        <time>2021-02-07T12:53:58Z</time>
      </trkpt>
      <trkpt lat="43.62533" lon="3.75251">
        <ele>179</ele>
        <time>2021-02-07T12:53:59Z</time>
      </trkpt>
      <trkpt lat="43.62532" lon="3.75248">
        <ele>177</ele>
        <time>2021-02-07T12:54:00Z</time>
      </trkpt>
      <trkpt lat="43.62532" lon="3.75244">
        <ele>179</ele>
        <time>2021-02-07T12:54:01Z</time>
      </trkpt>
      <trkpt lat="43.62532" lon="3.75241">
        <ele>179</ele>
        <time>2021-02-07T12:54:02Z</time>
      </trkpt>
      <trkpt lat="43.62532" lon="3.75238">
        <ele>178.9</ele>
        <time>2021-02-07T12:54:03Z</time>
      </trkpt>
      <trkpt lat="43.62532" lon="3.75235">
        <ele>178.9</ele>
        <time>2021-02-07T12:54:04Z</time>
      </trkpt>
      <trkpt lat="43.62533" lon="3.75232">
        <ele>178.9</ele>
        <time>2021-02-07T12:54:05Z</time>
      </trkpt>
      <trkpt lat="43.62533" lon="3.75229">
        <ele>178.9</ele>
        <time>2021-02-07T12:54:06Z</time>
      </trkpt>
      <trkpt lat="43.62534" lon="3.75226">
        <ele>178.8</ele>
        <time>2021-02-07T12:54:07Z</time>
      </trkpt>
      <trkpt lat="43.62534" lon="3.75223">
        <ele>178.8</ele>
        <time>2021-02-07T12:54:08Z</time>
      </trkpt>
      <trkpt lat="43.62534" lon="3.7522">
        <ele>178.8</ele>
        <time>2021-02-07T12:54:09Z</time>
      </trkpt>
      <trkpt lat="43.62533" lon="3.75218">
        <ele>178</ele>
        <time>2021-02-07T12:54:10Z</time>
      </trkpt>
      <trkpt lat="43.62533" lon="3.75215">
        <ele>178.8</ele>
        <time>2021-02-07T12:54:11Z</time>
      </trkpt>
      <trkpt lat="43.62533" lon="3.75212">
        <ele>178.8</ele>
        <time>2021-02-07T12:54:12Z</time>
      </trkpt>
      <trkpt lat="43.62533" lon="3.75209">
        <ele>178.8</ele>
        <time>2021-02-07T12:54:13Z</time>
      </trkpt>
      <trkpt lat="43.62532" lon="3.75206">
        <ele>178.8</ele>
        <time>2021-02-07T12:54:14Z</time>
      </trkpt>
      <trkpt lat="43.62532" lon="3.75203">
        <ele>178.8</ele>
        <time>2021-02-07T12:54:15Z</time>
      </trkpt>
      <trkpt lat="43.62532" lon="3.752">
        <ele>178.8</ele>
        <time>2021-02-07T12:54:16Z</time>
      </trkpt>
      <trkpt lat="43.62531" lon="3.75196">
        <ele>178.9</ele>
        <time>2021-02-07T12:54:18Z</time>
      </trkpt>
      <trkpt lat="43.6253" lon="3.75194">
        <ele>178</ele>
        <time>2021-02-07T12:54:20Z</time>
      </trkpt>
      <trkpt lat="43.6253" lon="3.75191">
        <ele>178.8</ele>
        <time>2021-02-07T12:54:22Z</time>
      </trkpt>
      <trkpt lat="43.62529" lon="3.75189">
        <ele>178.8</ele>
        <time>2021-02-07T12:54:24Z</time>
      </trkpt>
      <trkpt lat="43.62529" lon="3.75185">
        <ele>178.6</ele>
        <time>2021-02-07T12:54:26Z</time>
      </trkpt>
      <trkpt lat="43.6253" lon="3.75181">
        <ele>178.5</ele>
        <time>2021-02-07T12:54:28Z</time>
      </trkpt>
      <trkpt lat="43.62531" lon="3.75178">
        <ele>178.4</ele>
        <time>2021-02-07T12:54:29Z</time>
      </trkpt>
      <trkpt lat="43.62532" lon="3.75174">
        <ele>178</ele>
        <time>2021-02-07T12:54:30Z</time>
      </trkpt>
      <trkpt lat="43.62533" lon="3.7517">
        <ele>178.1</ele>
        <time>2021-02-07T12:54:32Z</time>
      </trkpt>
      <trkpt lat="43.62533" lon="3.75167">
        <ele>178</ele>
        <time>2021-02-07T12:54:34Z</time>
      </trkpt>
      <trkpt lat="43.62533" lon="3.75163">
        <ele>177.9</ele>
        <time>2021-02-07T12:54:36Z</time>
      </trkpt>
      <trkpt lat="43.62534" lon="3.75159">
        <ele>177.7</ele>
        <time>2021-02-07T12:54:39Z</time>
      </trkpt>
      <trkpt lat="43.62535" lon="3.75155">
        <ele>177.6</ele>
        <time>2021-02-07T12:54:41Z</time>
      </trkpt>
      <trkpt lat="43.62536" lon="3.75151">
        <ele>177.4</ele>
        <time>2021-02-07T12:54:43Z</time>
      </trkpt>
      <trkpt lat="43.62536" lon="3.75147">
        <ele>177.3</ele>
        <time>2021-02-07T12:54:45Z</time>
      </trkpt>
      <trkpt lat="43.62537" lon="3.75143">
        <ele>177.1</ele>
        <time>2021-02-07T12:54:47Z</time>
      </trkpt>
      <trkpt lat="43.62537" lon="3.75138">
        <ele>177</ele>
        <time>2021-02-07T12:54:49Z</time>
      </trkpt>
      <trkpt lat="43.62538" lon="3.75135">
        <ele>178</ele>
        <time>2021-02-07T12:54:50Z</time>
      </trkpt>
      <trkpt lat="43.62538" lon="3.75132">
        <ele>176.8</ele>
        <time>2021-02-07T12:54:51Z</time>
      </trkpt>
      <trkpt lat="43.62538" lon="3.75129">
        <ele>176.6</ele>
        <time>2021-02-07T12:54:52Z</time>
      </trkpt>
      <trkpt lat="43.62538" lon="3.75126">
        <ele>176.5</ele>
        <time>2021-02-07T12:54:53Z</time>
      </trkpt>
      <trkpt lat="43.62538" lon="3.75122">
        <ele>176.4</ele>
        <time>2021-02-07T12:54:55Z</time>
      </trkpt>
      <trkpt lat="43.62537" lon="3.75119">
        <ele>176.3</ele>
        <time>2021-02-07T12:54:57Z</time>
      </trkpt>
      <trkpt lat="43.62536" lon="3.75115">
        <ele>177</ele>
        <time>2021-02-07T12:55:00Z</time>
      </trkpt>
      <trkpt lat="43.62535" lon="3.75112">
        <ele>176</ele>
        <time>2021-02-07T12:55:01Z</time>
      </trkpt>
      <trkpt lat="43.62532" lon="3.75111">
        <ele>176</ele>
        <time>2021-02-07T12:55:03Z</time>
      </trkpt>
      <trkpt lat="43.62529" lon="3.7511">
        <ele>175.9</ele>
        <time>2021-02-07T12:55:06Z</time>
      </trkpt>
      <trkpt lat="43.62528" lon="3.75107">
        <ele>175.7</ele>
        <time>2021-02-07T12:55:08Z</time>
      </trkpt>
      <trkpt lat="43.62526" lon="3.75102">
        <ele>175.3</ele>
        <time>2021-02-07T12:55:09Z</time>
      </trkpt>
      <trkpt lat="43.62525" lon="3.751">
        <ele>175.2</ele>
        <time>2021-02-07T12:55:11Z</time>
      </trkpt>
      <trkpt lat="43.62523" lon="3.75097">
        <ele>175</ele>
        <time>2021-02-07T12:55:12Z</time>
      </trkpt>
      <trkpt lat="43.62521" lon="3.75094">
        <ele>174.8</ele>
        <time>2021-02-07T12:55:13Z</time>
      </trkpt>
      <trkpt lat="43.62519" lon="3.7509">
        <ele>174.5</ele>
        <time>2021-02-07T12:55:14Z</time>
      </trkpt>
      <trkpt lat="43.62517" lon="3.75086">
        <ele>174.2</ele>
        <time>2021-02-07T12:55:15Z</time>
      </trkpt>
      <trkpt lat="43.62515" lon="3.75082">
        <ele>173.9</ele>
        <time>2021-02-07T12:55:16Z</time>
      </trkpt>
      <trkpt lat="43.62513" lon="3.75077">
        <ele>173.5</ele>
        <time>2021-02-07T12:55:17Z</time>
      </trkpt>
      <trkpt lat="43.62512" lon="3.75074">
        <ele>173.3</ele>
        <time>2021-02-07T12:55:18Z</time>
      </trkpt>
      <trkpt lat="43.6251" lon="3.75072">
        <ele>173.2</ele>
        <time>2021-02-07T12:55:19Z</time>
      </trkpt>
      <trkpt lat="43.62509" lon="3.75069">
        <ele>175</ele>
        <time>2021-02-07T12:55:20Z</time>
      </trkpt>
      <trkpt lat="43.62508" lon="3.75066">
        <ele>172.8</ele>
        <time>2021-02-07T12:55:21Z</time>
      </trkpt>
      <trkpt lat="43.62507" lon="3.75063">
        <ele>172.5</ele>
        <time>2021-02-07T12:55:22Z</time>
      </trkpt>
      <trkpt lat="43.62506" lon="3.7506">
        <ele>172.3</ele>
        <time>2021-02-07T12:55:23Z</time>
      </trkpt>
      <trkpt lat="43.62505" lon="3.75057">
        <ele>172.1</ele>
        <time>2021-02-07T12:55:24Z</time>
      </trkpt>
      <trkpt lat="43.62504" lon="3.75055">
        <ele>171.9</ele>
        <time>2021-02-07T12:55:25Z</time>
      </trkpt>
      <trkpt lat="43.62503" lon="3.75051">
        <ele>171.5</ele>
        <time>2021-02-07T12:55:26Z</time>
      </trkpt>
      <trkpt lat="43.62501" lon="3.75048">
        <ele>171.2</ele>
        <time>2021-02-07T12:55:27Z</time>
      </trkpt>
      <trkpt lat="43.62498" lon="3.75045">
        <ele>170.8</ele>
        <time>2021-02-07T12:55:28Z</time>
      </trkpt>
      <trkpt lat="43.62495" lon="3.75042">
        <ele>170.4</ele>
        <time>2021-02-07T12:55:29Z</time>
      </trkpt>
      <trkpt lat="43.62491" lon="3.75041">
        <ele>172</ele>
        <time>2021-02-07T12:55:30Z</time>
      </trkpt>
      <trkpt lat="43.62488" lon="3.75042">
        <ele>170.1</ele>
        <time>2021-02-07T12:55:31Z</time>
      </trkpt>
      <trkpt lat="43.62485" lon="3.75042">
        <ele>170</ele>
        <time>2021-02-07T12:55:32Z</time>
      </trkpt>
      <trkpt lat="43.62483" lon="3.75043">
        <ele>170</ele>
        <time>2021-02-07T12:55:33Z</time>
      </trkpt>
      <trkpt lat="43.6248" lon="3.75044">
        <ele>170</ele>
        <time>2021-02-07T12:55:34Z</time>
      </trkpt>
      <trkpt lat="43.62478" lon="3.75044">
        <ele>170</ele>
        <time>2021-02-07T12:55:35Z</time>
      </trkpt>
      <trkpt lat="43.62475" lon="3.75046">
        <ele>170.1</ele>
        <time>2021-02-07T12:55:37Z</time>
      </trkpt>
      <trkpt lat="43.62474" lon="3.75047">
        <ele>170.1</ele>
        <time>2021-02-07T12:55:38Z</time>
      </trkpt>
      <trkpt lat="43.62472" lon="3.75047">
        <ele>170.1</ele>
        <time>2021-02-07T12:55:39Z</time>
      </trkpt>
      <trkpt lat="43.62469" lon="3.75048">
        <ele>170</ele>
        <time>2021-02-07T12:55:41Z</time>
      </trkpt>
      <trkpt lat="43.62466" lon="3.75049">
        <ele>169.9</ele>
        <time>2021-02-07T12:55:43Z</time>
      </trkpt>
      <trkpt lat="43.62464" lon="3.7505">
        <ele>169.9</ele>
        <time>2021-02-07T12:55:44Z</time>
      </trkpt>
      <trkpt lat="43.62461" lon="3.7505">
        <ele>169.7</ele>
        <time>2021-02-07T12:55:45Z</time>
      </trkpt>
      <trkpt lat="43.62459" lon="3.75051">
        <ele>169.6</ele>
        <time>2021-02-07T12:55:46Z</time>
      </trkpt>
      <trkpt lat="43.62456" lon="3.75053">
        <ele>169.6</ele>
        <time>2021-02-07T12:55:47Z</time>
      </trkpt>
      <trkpt lat="43.62454" lon="3.75054">
        <ele>169.6</ele>
        <time>2021-02-07T12:55:48Z</time>
      </trkpt>
      <trkpt lat="43.62452" lon="3.75056">
        <ele>169.6</ele>
        <time>2021-02-07T12:55:49Z</time>
      </trkpt>
      <trkpt lat="43.6245" lon="3.75057">
        <ele>170</ele>
        <time>2021-02-07T12:55:50Z</time>
      </trkpt>
      <trkpt lat="43.62448" lon="3.75059">
        <ele>169.5</ele>
        <time>2021-02-07T12:55:51Z</time>
      </trkpt>
      <trkpt lat="43.62446" lon="3.7506">
        <ele>169.4</ele>
        <time>2021-02-07T12:55:52Z</time>
      </trkpt>
      <trkpt lat="43.62443" lon="3.75061">
        <ele>169.3</ele>
        <time>2021-02-07T12:55:53Z</time>
      </trkpt>
      <trkpt lat="43.62441" lon="3.75062">
        <ele>169.2</ele>
        <time>2021-02-07T12:55:54Z</time>
      </trkpt>
      <trkpt lat="43.62439" lon="3.75064">
        <ele>169.2</ele>
        <time>2021-02-07T12:55:55Z</time>
      </trkpt>
      <trkpt lat="43.62437" lon="3.75065">
        <ele>169.1</ele>
        <time>2021-02-07T12:55:56Z</time>
      </trkpt>
      <trkpt lat="43.62436" lon="3.75067">
        <ele>169.2</ele>
        <time>2021-02-07T12:55:57Z</time>
      </trkpt>
      <trkpt lat="43.62433" lon="3.7507">
        <ele>169.2</ele>
        <time>2021-02-07T12:55:59Z</time>
      </trkpt>
      <trkpt lat="43.62431" lon="3.75073">
        <ele>169.3</ele>
        <time>2021-02-07T12:56:01Z</time>
      </trkpt>
      <trkpt lat="43.6243" lon="3.75074">
        <ele>169.3</ele>
        <time>2021-02-07T12:56:02Z</time>
      </trkpt>
      <trkpt lat="43.62427" lon="3.75076">
        <ele>169.2</ele>
        <time>2021-02-07T12:56:04Z</time>
      </trkpt>
      <trkpt lat="43.62424" lon="3.75077">
        <ele>169.1</ele>
        <time>2021-02-07T12:56:06Z</time>
      </trkpt>
      <trkpt lat="43.62421" lon="3.75077">
        <ele>168.9</ele>
        <time>2021-02-07T12:56:08Z</time>
      </trkpt>
      <trkpt lat="43.62419" lon="3.75077">
        <ele>168.7</ele>
        <time>2021-02-07T12:56:09Z</time>
      </trkpt>
      <trkpt lat="43.62415" lon="3.75076">
        <ele>168.3</ele>
        <time>2021-02-07T12:56:11Z</time>
      </trkpt>
      <trkpt lat="43.62413" lon="3.75076">
        <ele>168.1</ele>
        <time>2021-02-07T12:56:12Z</time>
      </trkpt>
      <trkpt lat="43.62411" lon="3.75076">
        <ele>167.9</ele>
        <time>2021-02-07T12:56:13Z</time>
      </trkpt>
      <trkpt lat="43.62409" lon="3.75076">
        <ele>167.6</ele>
        <time>2021-02-07T12:56:14Z</time>
      </trkpt>
      <trkpt lat="43.62407" lon="3.75077">
        <ele>167.5</ele>
        <time>2021-02-07T12:56:15Z</time>
      </trkpt>
      <trkpt lat="43.62404" lon="3.75076">
        <ele>167.1</ele>
        <time>2021-02-07T12:56:16Z</time>
      </trkpt>
      <trkpt lat="43.62402" lon="3.75074">
        <ele>166.7</ele>
        <time>2021-02-07T12:56:17Z</time>
      </trkpt>
      <trkpt lat="43.624" lon="3.75071">
        <ele>166.3</ele>
        <time>2021-02-07T12:56:18Z</time>
      </trkpt>
      <trkpt lat="43.62398" lon="3.75069">
        <ele>166</ele>
        <time>2021-02-07T12:56:19Z</time>
      </trkpt>
      <trkpt lat="43.62396" lon="3.75068">
        <ele>166</ele>
        <time>2021-02-07T12:56:20Z</time>
      </trkpt>
      <trkpt lat="43.62393" lon="3.75068">
        <ele>165.3</ele>
        <time>2021-02-07T12:56:22Z</time>
      </trkpt>
      <trkpt lat="43.62389" lon="3.75068">
        <ele>164.9</ele>
        <time>2021-02-07T12:56:24Z</time>
      </trkpt>
      <trkpt lat="43.62387" lon="3.75067">
        <ele>164.6</ele>
        <time>2021-02-07T12:56:25Z</time>
      </trkpt>
      <trkpt lat="43.62384" lon="3.75067">
        <ele>164.2</ele>
        <time>2021-02-07T12:56:26Z</time>
      </trkpt>
      <trkpt lat="43.62381" lon="3.75067">
        <ele>163.9</ele>
        <time>2021-02-07T12:56:27Z</time>
      </trkpt>
      <trkpt lat="43.62379" lon="3.75068">
        <ele>163.7</ele>
        <time>2021-02-07T12:56:28Z</time>
      </trkpt>
      <trkpt lat="43.62378" lon="3.7507">
        <ele>163.7</ele>
        <time>2021-02-07T12:56:29Z</time>
      </trkpt>
      <trkpt lat="43.62377" lon="3.75072">
        <ele>164</ele>
        <time>2021-02-07T12:56:30Z</time>
      </trkpt>
      <trkpt lat="43.62376" lon="3.75075">
        <ele>163.7</ele>
        <time>2021-02-07T12:56:32Z</time>
      </trkpt>
      <trkpt lat="43.62369" lon="3.75077">
        <ele>164</ele>
        <time>2021-02-07T12:56:45Z</time>
      </trkpt>
      <trkpt lat="43.62367" lon="3.75079">
        <ele>162.7</ele>
        <time>2021-02-07T12:56:46Z</time>
      </trkpt>
      <trkpt lat="43.62365" lon="3.75082">
        <ele>162.5</ele>
        <time>2021-02-07T12:56:47Z</time>
      </trkpt>
      <trkpt lat="43.62362" lon="3.75084">
        <ele>162.1</ele>
        <time>2021-02-07T12:56:48Z</time>
      </trkpt>
      <trkpt lat="43.62359" lon="3.75086">
        <ele>161.6</ele>
        <time>2021-02-07T12:56:49Z</time>
      </trkpt>
      <trkpt lat="43.62355" lon="3.75088">
        <ele>160.9</ele>
        <time>2021-02-07T12:56:50Z</time>
      </trkpt>
      <trkpt lat="43.62352" lon="3.7509">
        <ele>160.4</ele>
        <time>2021-02-07T12:56:51Z</time>
      </trkpt>
      <trkpt lat="43.62349" lon="3.75091">
        <ele>159.9</ele>
        <time>2021-02-07T12:56:52Z</time>
      </trkpt>
      <trkpt lat="43.62346" lon="3.75092">
        <ele>159.4</ele>
        <time>2021-02-07T12:56:53Z</time>
      </trkpt>
      <trkpt lat="43.62344" lon="3.75092">
        <ele>162</ele>
        <time>2021-02-07T12:56:54Z</time>
      </trkpt>
      <trkpt lat="43.62341" lon="3.75094">
        <ele>158.7</ele>
        <time>2021-02-07T12:56:56Z</time>
      </trkpt>
      <trkpt lat="43.62339" lon="3.75095">
        <ele>158.4</ele>
        <time>2021-02-07T12:56:58Z</time>
      </trkpt>
      <trkpt lat="43.62336" lon="3.75096">
        <ele>157.9</ele>
        <time>2021-02-07T12:57:00Z</time>
      </trkpt>
      <trkpt lat="43.62334" lon="3.751">
        <ele>157.7</ele>
        <time>2021-02-07T12:57:02Z</time>
      </trkpt>
      <trkpt lat="43.62333" lon="3.75102">
        <ele>157.6</ele>
        <time>2021-02-07T12:57:03Z</time>
      </trkpt>
      <trkpt lat="43.62331" lon="3.75104">
        <ele>159</ele>
        <time>2021-02-07T12:57:04Z</time>
      </trkpt>
      <trkpt lat="43.62327" lon="3.75109">
        <ele>156.8</ele>
        <time>2021-02-07T12:57:05Z</time>
      </trkpt>
      <trkpt lat="43.62325" lon="3.7511">
        <ele>156.5</ele>
        <time>2021-02-07T12:57:07Z</time>
      </trkpt>
      <trkpt lat="43.6232" lon="3.75111">
        <ele>156</ele>
        <time>2021-02-07T12:57:19Z</time>
      </trkpt>
      <trkpt lat="43.62318" lon="3.75106">
        <ele>155.1</ele>
        <time>2021-02-07T12:57:20Z</time>
      </trkpt>
      <trkpt lat="43.62318" lon="3.75103">
        <ele>154.9</ele>
        <time>2021-02-07T12:57:21Z</time>
      </trkpt>
      <trkpt lat="43.62317" lon="3.751">
        <ele>154.7</ele>
        <time>2021-02-07T12:57:22Z</time>
      </trkpt>
      <trkpt lat="43.62317" lon="3.75098">
        <ele>154.6</ele>
        <time>2021-02-07T12:57:23Z</time>
      </trkpt>
      <trkpt lat="43.62315" lon="3.75096">
        <ele>154.2</ele>
        <time>2021-02-07T12:57:25Z</time>
      </trkpt>
      <trkpt lat="43.62313" lon="3.75096">
        <ele>153.8</ele>
        <time>2021-02-07T12:57:26Z</time>
      </trkpt>
      <trkpt lat="43.6231" lon="3.75095">
        <ele>153.2</ele>
        <time>2021-02-07T12:57:27Z</time>
      </trkpt>
      <trkpt lat="43.62307" lon="3.75094">
        <ele>154</ele>
        <time>2021-02-07T12:57:28Z</time>
      </trkpt>
      <trkpt lat="43.62306" lon="3.75093">
        <ele>152.4</ele>
        <time>2021-02-07T12:57:29Z</time>
      </trkpt>
      <trkpt lat="43.62303" lon="3.75092">
        <ele>152</ele>
        <time>2021-02-07T12:57:31Z</time>
      </trkpt>
      <trkpt lat="43.623" lon="3.75093">
        <ele>151.7</ele>
        <time>2021-02-07T12:57:33Z</time>
      </trkpt>
      <trkpt lat="43.623" lon="3.75094">
        <ele>152</ele>
        <time>2021-02-07T12:57:40Z</time>
      </trkpt>
      <trkpt lat="43.62291" lon="3.75096">
        <ele>152</ele>
        <time>2021-02-07T12:57:51Z</time>
      </trkpt>
      <trkpt lat="43.62287" lon="3.75095">
        <ele>150.1</ele>
        <time>2021-02-07T12:57:52Z</time>
      </trkpt>
      <trkpt lat="43.62283" lon="3.75095">
        <ele>149.6</ele>
        <time>2021-02-07T12:57:53Z</time>
      </trkpt>
      <trkpt lat="43.6228" lon="3.75097">
        <ele>149.3</ele>
        <time>2021-02-07T12:57:54Z</time>
      </trkpt>
      <trkpt lat="43.62277" lon="3.75099">
        <ele>148.9</ele>
        <time>2021-02-07T12:57:55Z</time>
      </trkpt>
      <trkpt lat="43.62275" lon="3.75099">
        <ele>148.6</ele>
        <time>2021-02-07T12:57:56Z</time>
      </trkpt>
      <trkpt lat="43.62272" lon="3.75099">
        <ele>148.2</ele>
        <time>2021-02-07T12:57:57Z</time>
      </trkpt>
      <trkpt lat="43.62271" lon="3.75099">
        <ele>148</ele>
        <time>2021-02-07T12:57:58Z</time>
      </trkpt>
      <trkpt lat="43.62269" lon="3.75099">
        <ele>150</ele>
        <time>2021-02-07T12:58:03Z</time>
      </trkpt>
      <trkpt lat="43.62261" lon="3.75109">
        <ele>149</ele>
        <time>2021-02-07T12:58:11Z</time>
      </trkpt>
      <trkpt lat="43.62259" lon="3.75111">
        <ele>146.3</ele>
        <time>2021-02-07T12:58:12Z</time>
      </trkpt>
      <trkpt lat="43.62256" lon="3.75113">
        <ele>145.8</ele>
        <time>2021-02-07T12:58:13Z</time>
      </trkpt>
      <trkpt lat="43.62253" lon="3.75113">
        <ele>145.4</ele>
        <time>2021-02-07T12:58:14Z</time>
      </trkpt>
      <trkpt lat="43.6225" lon="3.75112">
        <ele>145</ele>
        <time>2021-02-07T12:58:15Z</time>
      </trkpt>
      <trkpt lat="43.62247" lon="3.7511">
        <ele>144.7</ele>
        <time>2021-02-07T12:58:16Z</time>
      </trkpt>
      <trkpt lat="43.62245" lon="3.75109">
        <ele>144.5</ele>
        <time>2021-02-07T12:58:17Z</time>
      </trkpt>
      <trkpt lat="43.62242" lon="3.75109">
        <ele>144.1</ele>
        <time>2021-02-07T12:58:18Z</time>
      </trkpt>
      <trkpt lat="43.6224" lon="3.75108">
        <ele>143.9</ele>
        <time>2021-02-07T12:58:19Z</time>
      </trkpt>
      <trkpt lat="43.62238" lon="3.75108">
        <ele>147</ele>
        <time>2021-02-07T12:58:20Z</time>
      </trkpt>
      <trkpt lat="43.62236" lon="3.75104">
        <ele>143.5</ele>
        <time>2021-02-07T12:58:22Z</time>
      </trkpt>
      <trkpt lat="43.62234" lon="3.751">
        <ele>143.3</ele>
        <time>2021-02-07T12:58:24Z</time>
      </trkpt>
      <trkpt lat="43.62232" lon="3.75098">
        <ele>143.1</ele>
        <time>2021-02-07T12:58:26Z</time>
      </trkpt>
      <trkpt lat="43.62229" lon="3.75097">
        <ele>142.7</ele>
        <time>2021-02-07T12:58:28Z</time>
      </trkpt>
      <trkpt lat="43.62227" lon="3.75096">
        <ele>142.5</ele>
        <time>2021-02-07T12:58:29Z</time>
      </trkpt>
      <trkpt lat="43.62225" lon="3.75095">
        <ele>142.3</ele>
        <time>2021-02-07T12:58:30Z</time>
      </trkpt>
      <trkpt lat="43.62223" lon="3.7509">
        <ele>144</ele>
        <time>2021-02-07T12:58:31Z</time>
      </trkpt>
      <trkpt lat="43.62222" lon="3.75086">
        <ele>142</ele>
        <time>2021-02-07T12:58:33Z</time>
      </trkpt>
      <trkpt lat="43.6222" lon="3.75084">
        <ele>141.7</ele>
        <time>2021-02-07T12:58:35Z</time>
      </trkpt>
      <trkpt lat="43.62217" lon="3.75083">
        <ele>141.2</ele>
        <time>2021-02-07T12:58:37Z</time>
      </trkpt>
      <trkpt lat="43.62215" lon="3.75083">
        <ele>140.9</ele>
        <time>2021-02-07T12:58:38Z</time>
      </trkpt>
      <trkpt lat="43.62213" lon="3.75082">
        <ele>143</ele>
        <time>2021-02-07T12:58:40Z</time>
      </trkpt>
      <trkpt lat="43.6221" lon="3.75082">
        <ele>140.2</ele>
        <time>2021-02-07T12:58:41Z</time>
      </trkpt>
      <trkpt lat="43.62207" lon="3.75081">
        <ele>139.7</ele>
        <time>2021-02-07T12:58:42Z</time>
      </trkpt>
      <trkpt lat="43.62204" lon="3.75081">
        <ele>139.3</ele>
        <time>2021-02-07T12:58:43Z</time>
      </trkpt>
      <trkpt lat="43.62202" lon="3.75081">
        <ele>139</ele>
        <time>2021-02-07T12:58:44Z</time>
      </trkpt>
      <trkpt lat="43.62199" lon="3.75081">
        <ele>138.6</ele>
        <time>2021-02-07T12:58:45Z</time>
      </trkpt>
      <trkpt lat="43.62197" lon="3.75081">
        <ele>138.3</ele>
        <time>2021-02-07T12:58:46Z</time>
      </trkpt>
      <trkpt lat="43.62196" lon="3.7508">
        <ele>138.1</ele>
        <time>2021-02-07T12:58:47Z</time>
      </trkpt>
      <trkpt lat="43.62194" lon="3.75079">
        <ele>137.8</ele>
        <time>2021-02-07T12:58:48Z</time>
      </trkpt>
      <trkpt lat="43.62193" lon="3.75077">
        <ele>137.6</ele>
        <time>2021-02-07T12:58:49Z</time>
      </trkpt>
      <trkpt lat="43.62191" lon="3.75076">
        <ele>140</ele>
        <time>2021-02-07T12:58:50Z</time>
      </trkpt>
      <trkpt lat="43.6219" lon="3.75074">
        <ele>137</ele>
        <time>2021-02-07T12:58:51Z</time>
      </trkpt>
      <trkpt lat="43.62188" lon="3.75072">
        <ele>136.7</ele>
        <time>2021-02-07T12:58:52Z</time>
      </trkpt>
      <trkpt lat="43.62186" lon="3.7507">
        <ele>136.3</ele>
        <time>2021-02-07T12:58:53Z</time>
      </trkpt>
      <trkpt lat="43.62185" lon="3.75067">
        <ele>136.1</ele>
        <time>2021-02-07T12:58:54Z</time>
      </trkpt>
      <trkpt lat="43.62183" lon="3.75065">
        <ele>135.7</ele>
        <time>2021-02-07T12:58:55Z</time>
      </trkpt>
      <trkpt lat="43.62182" lon="3.75063">
        <ele>135.5</ele>
        <time>2021-02-07T12:58:56Z</time>
      </trkpt>
      <trkpt lat="43.6218" lon="3.75062">
        <ele>135.2</ele>
        <time>2021-02-07T12:58:57Z</time>
      </trkpt>
      <trkpt lat="43.62177" lon="3.75059">
        <ele>134.6</ele>
        <time>2021-02-07T12:58:58Z</time>
      </trkpt>
      <trkpt lat="43.62176" lon="3.75057">
        <ele>134.4</ele>
        <time>2021-02-07T12:58:59Z</time>
      </trkpt>
      <trkpt lat="43.62174" lon="3.75054">
        <ele>133.9</ele>
        <time>2021-02-07T12:59:01Z</time>
      </trkpt>
      <trkpt lat="43.62173" lon="3.75053">
        <ele>136</ele>
        <time>2021-02-07T12:59:07Z</time>
      </trkpt>
      <trkpt lat="43.62166" lon="3.75038">
        <ele>134</ele>
        <time>2021-02-07T12:59:17Z</time>
      </trkpt>
      <trkpt lat="43.62164" lon="3.75032">
        <ele>130.1</ele>
        <time>2021-02-07T12:59:18Z</time>
      </trkpt>
      <trkpt lat="43.62163" lon="3.75027">
        <ele>129.4</ele>
        <time>2021-02-07T12:59:19Z</time>
      </trkpt>
      <trkpt lat="43.62162" lon="3.75024">
        <ele>128.8</ele>
        <time>2021-02-07T12:59:20Z</time>
      </trkpt>
      <trkpt lat="43.62161" lon="3.75022">
        <ele>128.4</ele>
        <time>2021-02-07T12:59:21Z</time>
      </trkpt>
      <trkpt lat="43.62159" lon="3.75019">
        <ele>127.6</ele>
        <time>2021-02-07T12:59:23Z</time>
      </trkpt>
      <trkpt lat="43.62157" lon="3.75015">
        <ele>126.8</ele>
        <time>2021-02-07T12:59:25Z</time>
      </trkpt>
      <trkpt lat="43.62157" lon="3.75012">
        <ele>130</ele>
        <time>2021-02-07T12:59:26Z</time>
      </trkpt>
      <trkpt lat="43.62156" lon="3.7501">
        <ele>125.9</ele>
        <time>2021-02-07T12:59:27Z</time>
      </trkpt>
      <trkpt lat="43.62156" lon="3.75007">
        <ele>125.5</ele>
        <time>2021-02-07T12:59:28Z</time>
      </trkpt>
      <trkpt lat="43.62157" lon="3.75003">
        <ele>125</ele>
        <time>2021-02-07T12:59:29Z</time>
      </trkpt>
      <trkpt lat="43.62157" lon="3.75">
        <ele>124.6</ele>
        <time>2021-02-07T12:59:30Z</time>
      </trkpt>
      <trkpt lat="43.62156" lon="3.74998">
        <ele>124.2</ele>
        <time>2021-02-07T12:59:31Z</time>
      </trkpt>
      <trkpt lat="43.62156" lon="3.74993">
        <ele>123.5</ele>
        <time>2021-02-07T12:59:33Z</time>
      </trkpt>
      <trkpt lat="43.62155" lon="3.7499">
        <ele>122.9</ele>
        <time>2021-02-07T12:59:34Z</time>
      </trkpt>
      <trkpt lat="43.62154" lon="3.74986">
        <ele>122.2</ele>
        <time>2021-02-07T12:59:35Z</time>
      </trkpt>
      <trkpt lat="43.62153" lon="3.74982">
        <ele>121.4</ele>
        <time>2021-02-07T12:59:36Z</time>
      </trkpt>
      <trkpt lat="43.62152" lon="3.74979">
        <ele>127</ele>
        <time>2021-02-07T12:59:37Z</time>
      </trkpt>
      <trkpt lat="43.62151" lon="3.74976">
        <ele>120.3</ele>
        <time>2021-02-07T12:59:38Z</time>
      </trkpt>
      <trkpt lat="43.6215" lon="3.74974">
        <ele>119.9</ele>
        <time>2021-02-07T12:59:39Z</time>
      </trkpt>
      <trkpt lat="43.6215" lon="3.74971">
        <ele>119.5</ele>
        <time>2021-02-07T12:59:40Z</time>
      </trkpt>
      <trkpt lat="43.62149" lon="3.74969">
        <ele>119.1</ele>
        <time>2021-02-07T12:59:41Z</time>
      </trkpt>
      <trkpt lat="43.62148" lon="3.74967">
        <ele>118.7</ele>
        <time>2021-02-07T12:59:42Z</time>
      </trkpt>
      <trkpt lat="43.62146" lon="3.74963">
        <ele>118</ele>
        <time>2021-02-07T12:59:44Z</time>
      </trkpt>
      <trkpt lat="43.62145" lon="3.74959">
        <ele>123</ele>
        <time>2021-02-07T12:59:46Z</time>
      </trkpt>
      <trkpt lat="43.62144" lon="3.74957">
        <ele>117.1</ele>
        <time>2021-02-07T12:59:47Z</time>
      </trkpt>
      <trkpt lat="43.62143" lon="3.74953">
        <ele>116.5</ele>
        <time>2021-02-07T12:59:48Z</time>
      </trkpt>
      <trkpt lat="43.62143" lon="3.74949">
        <ele>116.1</ele>
        <time>2021-02-07T12:59:49Z</time>
      </trkpt>
      <trkpt lat="43.62143" lon="3.74944">
        <ele>115.6</ele>
        <time>2021-02-07T12:59:50Z</time>
      </trkpt>
      <trkpt lat="43.62143" lon="3.74939">
        <ele>115.2</ele>
        <time>2021-02-07T12:59:51Z</time>
      </trkpt>
      <trkpt lat="43.62143" lon="3.74936">
        <ele>115</ele>
        <time>2021-02-07T12:59:52Z</time>
      </trkpt>
      <trkpt lat="43.62141" lon="3.74932">
        <ele>114.4</ele>
        <time>2021-02-07T12:59:54Z</time>
      </trkpt>
      <trkpt lat="43.6214" lon="3.74929">
        <ele>114</ele>
        <time>2021-02-07T12:59:55Z</time>
      </trkpt>
      <trkpt lat="43.62139" lon="3.74926">
        <ele>120</ele>
        <time>2021-02-07T12:59:56Z</time>
      </trkpt>
      <trkpt lat="43.62138" lon="3.74924">
        <ele>113.4</ele>
        <time>2021-02-07T12:59:57Z</time>
      </trkpt>
      <trkpt lat="43.62137" lon="3.74922">
        <ele>113.1</ele>
        <time>2021-02-07T12:59:58Z</time>
      </trkpt>
      <trkpt lat="43.62136" lon="3.74919">
        <ele>112.8</ele>
        <time>2021-02-07T12:59:59Z</time>
      </trkpt>
      <trkpt lat="43.62136" lon="3.74916">
        <ele>112.5</ele>
        <time>2021-02-07T13:00:00Z</time>
      </trkpt>
      <trkpt lat="43.62135" lon="3.74912">
        <ele>112.1</ele>
        <time>2021-02-07T13:00:01Z</time>
      </trkpt>
      <trkpt lat="43.62134" lon="3.74909">
        <ele>111.8</ele>
        <time>2021-02-07T13:00:02Z</time>
      </trkpt>
      <trkpt lat="43.62133" lon="3.74906">
        <ele>111.5</ele>
        <time>2021-02-07T13:00:03Z</time>
      </trkpt>
      <trkpt lat="43.62132" lon="3.74903">
        <ele>111.1</ele>
        <time>2021-02-07T13:00:04Z</time>
      </trkpt>
      <trkpt lat="43.62131" lon="3.749">
        <ele>110.8</ele>
        <time>2021-02-07T13:00:05Z</time>
      </trkpt>
      <trkpt lat="43.6213" lon="3.74896">
        <ele>117</ele>
        <time>2021-02-07T13:00:06Z</time>
      </trkpt>
      <trkpt lat="43.62128" lon="3.74891">
        <ele>109.9</ele>
        <time>2021-02-07T13:00:07Z</time>
      </trkpt>
      <trkpt lat="43.62127" lon="3.74887">
        <ele>109.6</ele>
        <time>2021-02-07T13:00:08Z</time>
      </trkpt>
      <trkpt lat="43.62126" lon="3.74884">
        <ele>109.4</ele>
        <time>2021-02-07T13:00:09Z</time>
      </trkpt>
      <trkpt lat="43.62124" lon="3.74882">
        <ele>109</ele>
        <time>2021-02-07T13:00:10Z</time>
      </trkpt>
      <trkpt lat="43.62123" lon="3.74878">
        <ele>108.7</ele>
        <time>2021-02-07T13:00:11Z</time>
      </trkpt>
      <trkpt lat="43.62122" lon="3.74876">
        <ele>108.4</ele>
        <time>2021-02-07T13:00:12Z</time>
      </trkpt>
      <trkpt lat="43.62121" lon="3.74874">
        <ele>108.2</ele>
        <time>2021-02-07T13:00:13Z</time>
      </trkpt>
      <trkpt lat="43.6212" lon="3.74872">
        <ele>107.9</ele>
        <time>2021-02-07T13:00:14Z</time>
      </trkpt>
      <trkpt lat="43.62118" lon="3.74868">
        <ele>107.4</ele>
        <time>2021-02-07T13:00:15Z</time>
      </trkpt>
      <trkpt lat="43.62116" lon="3.74865">
        <ele>114</ele>
        <time>2021-02-07T13:00:16Z</time>
      </trkpt>
      <trkpt lat="43.62115" lon="3.74861">
        <ele>106.6</ele>
        <time>2021-02-07T13:00:17Z</time>
      </trkpt>
      <trkpt lat="43.62115" lon="3.74857">
        <ele>106.4</ele>
        <time>2021-02-07T13:00:18Z</time>
      </trkpt>
      <trkpt lat="43.62116" lon="3.74853">
        <ele>106.4</ele>
        <time>2021-02-07T13:00:19Z</time>
      </trkpt>
      <trkpt lat="43.62116" lon="3.74849">
        <ele>106.2</ele>
        <time>2021-02-07T13:00:20Z</time>
      </trkpt>
      <trkpt lat="43.62116" lon="3.74844">
        <ele>106</ele>
        <time>2021-02-07T13:00:21Z</time>
      </trkpt>
      <trkpt lat="43.62116" lon="3.7484">
        <ele>105.8</ele>
        <time>2021-02-07T13:00:22Z</time>
      </trkpt>
      <trkpt lat="43.62114" lon="3.74837">
        <ele>105.5</ele>
        <time>2021-02-07T13:00:23Z</time>
      </trkpt>
      <trkpt lat="43.62113" lon="3.74834">
        <ele>105.2</ele>
        <time>2021-02-07T13:00:24Z</time>
      </trkpt>
      <trkpt lat="43.6211" lon="3.7483">
        <ele>110</ele>
        <time>2021-02-07T13:00:26Z</time>
      </trkpt>
      <trkpt lat="43.62108" lon="3.74828">
        <ele>104.8</ele>
        <time>2021-02-07T13:00:27Z</time>
      </trkpt>
      <trkpt lat="43.62106" lon="3.74826">
        <ele>104.7</ele>
        <time>2021-02-07T13:00:28Z</time>
      </trkpt>
      <trkpt lat="43.62103" lon="3.74824">
        <ele>104.4</ele>
        <time>2021-02-07T13:00:29Z</time>
      </trkpt>
      <trkpt lat="43.62101" lon="3.74824">
        <ele>104.1</ele>
        <time>2021-02-07T13:00:30Z</time>
      </trkpt>
      <trkpt lat="43.62098" lon="3.74823">
        <ele>103.8</ele>
        <time>2021-02-07T13:00:31Z</time>
      </trkpt>
      <trkpt lat="43.62096" lon="3.74823">
        <ele>103.5</ele>
        <time>2021-02-07T13:00:32Z</time>
      </trkpt>
      <trkpt lat="43.62093" lon="3.74824">
        <ele>103.2</ele>
        <time>2021-02-07T13:00:33Z</time>
      </trkpt>
      <trkpt lat="43.62091" lon="3.74825">
        <ele>102.9</ele>
        <time>2021-02-07T13:00:34Z</time>
      </trkpt>
      <trkpt lat="43.62089" lon="3.74827">
        <ele>102.7</ele>
        <time>2021-02-07T13:00:35Z</time>
      </trkpt>
      <trkpt lat="43.62088" lon="3.74829">
        <ele>108</ele>
        <time>2021-02-07T13:00:36Z</time>
      </trkpt>
      <trkpt lat="43.62086" lon="3.74831">
        <ele>102.3</ele>
        <time>2021-02-07T13:00:37Z</time>
      </trkpt>
      <trkpt lat="43.62084" lon="3.74833">
        <ele>102.1</ele>
        <time>2021-02-07T13:00:38Z</time>
      </trkpt>
      <trkpt lat="43.62082" lon="3.74836">
        <ele>102</ele>
        <time>2021-02-07T13:00:39Z</time>
      </trkpt>
      <trkpt lat="43.62079" lon="3.74838">
        <ele>101.8</ele>
        <time>2021-02-07T13:00:40Z</time>
      </trkpt>
      <trkpt lat="43.62077" lon="3.7484">
        <ele>101.7</ele>
        <time>2021-02-07T13:00:41Z</time>
      </trkpt>
      <trkpt lat="43.62074" lon="3.74843">
        <ele>101.6</ele>
        <time>2021-02-07T13:00:42Z</time>
      </trkpt>
      <trkpt lat="43.62071" lon="3.74847">
        <ele>101.4</ele>
        <time>2021-02-07T13:00:43Z</time>
      </trkpt>
      <trkpt lat="43.62068" lon="3.74851">
        <ele>101.3</ele>
        <time>2021-02-07T13:00:44Z</time>
      </trkpt>
      <trkpt lat="43.62067" lon="3.74855">
        <ele>101.3</ele>
        <time>2021-02-07T13:00:45Z</time>
      </trkpt>
      <trkpt lat="43.62066" lon="3.74858">
        <ele>105</ele>
        <time>2021-02-07T13:00:46Z</time>
      </trkpt>
      <trkpt lat="43.62065" lon="3.74861">
        <ele>101.4</ele>
        <time>2021-02-07T13:00:47Z</time>
      </trkpt>
      <trkpt lat="43.62064" lon="3.74863">
        <ele>101.3</ele>
        <time>2021-02-07T13:00:48Z</time>
      </trkpt>
      <trkpt lat="43.62062" lon="3.74865">
        <ele>101</ele>
        <time>2021-02-07T13:00:49Z</time>
      </trkpt>
      <trkpt lat="43.6206" lon="3.74867">
        <ele>100.7</ele>
        <time>2021-02-07T13:00:50Z</time>
      </trkpt>
      <trkpt lat="43.62058" lon="3.74868">
        <ele>100.4</ele>
        <time>2021-02-07T13:00:51Z</time>
      </trkpt>
      <trkpt lat="43.62057" lon="3.74871">
        <ele>100.2</ele>
        <time>2021-02-07T13:00:52Z</time>
      </trkpt>
      <trkpt lat="43.62057" lon="3.74874">
        <ele>100.3</ele>
        <time>2021-02-07T13:00:53Z</time>
      </trkpt>
      <trkpt lat="43.62057" lon="3.74877">
        <ele>100.3</ele>
        <time>2021-02-07T13:00:54Z</time>
      </trkpt>
      <trkpt lat="43.62057" lon="3.74881">
        <ele>100.3</ele>
        <time>2021-02-07T13:00:55Z</time>
      </trkpt>
      <trkpt lat="43.62058" lon="3.74884">
        <ele>100.5</ele>
        <time>2021-02-07T13:00:56Z</time>
      </trkpt>
      <trkpt lat="43.62058" lon="3.74887">
        <ele>103</ele>
        <time>2021-02-07T13:00:57Z</time>
      </trkpt>
      <trkpt lat="43.62058" lon="3.7489">
        <ele>100.5</ele>
        <time>2021-02-07T13:00:58Z</time>
      </trkpt>
      <trkpt lat="43.62059" lon="3.74893">
        <ele>100.6</ele>
        <time>2021-02-07T13:00:59Z</time>
      </trkpt>
      <trkpt lat="43.62059" lon="3.74896">
        <ele>100.6</ele>
        <time>2021-02-07T13:01:00Z</time>
      </trkpt>
      <trkpt lat="43.62059" lon="3.74898">
        <ele>100.5</ele>
        <time>2021-02-07T13:01:01Z</time>
      </trkpt>
      <trkpt lat="43.62059" lon="3.74901">
        <ele>100.4</ele>
        <time>2021-02-07T13:01:02Z</time>
      </trkpt>
      <trkpt lat="43.62059" lon="3.74904">
        <ele>100.3</ele>
        <time>2021-02-07T13:01:03Z</time>
      </trkpt>
      <trkpt lat="43.62059" lon="3.74907">
        <ele>100.3</ele>
        <time>2021-02-07T13:01:04Z</time>
      </trkpt>
      <trkpt lat="43.62058" lon="3.74909">
        <ele>99.9</ele>
        <time>2021-02-07T13:01:05Z</time>
      </trkpt>
      <trkpt lat="43.62058" lon="3.74912">
        <ele>101</ele>
        <time>2021-02-07T13:01:06Z</time>
      </trkpt>
      <trkpt lat="43.62058" lon="3.74916">
        <ele>99.7</ele>
        <time>2021-02-07T13:01:07Z</time>
      </trkpt>
      <trkpt lat="43.62057" lon="3.7492">
        <ele>99.5</ele>
        <time>2021-02-07T13:01:08Z</time>
      </trkpt>
      <trkpt lat="43.62057" lon="3.74923">
        <ele>99.6</ele>
        <time>2021-02-07T13:01:09Z</time>
      </trkpt>
      <trkpt lat="43.62055" lon="3.74926">
        <ele>99.4</ele>
        <time>2021-02-07T13:01:11Z</time>
      </trkpt>
      <trkpt lat="43.62052" lon="3.74928">
        <ele>99.8</ele>
        <time>2021-02-07T13:01:13Z</time>
      </trkpt>
      <trkpt lat="43.6205" lon="3.74928">
        <ele>100</ele>
        <time>2021-02-07T13:01:14Z</time>
      </trkpt>
      <trkpt lat="43.62047" lon="3.74929">
        <ele>100.3</ele>
        <time>2021-02-07T13:01:15Z</time>
      </trkpt>
      <trkpt lat="43.62045" lon="3.7493">
        <ele>100</ele>
        <time>2021-02-07T13:01:16Z</time>
      </trkpt>
      <trkpt lat="43.62043" lon="3.74932">
        <ele>100.6</ele>
        <time>2021-02-07T13:01:17Z</time>
      </trkpt>
      <trkpt lat="43.62042" lon="3.74934">
        <ele>100.7</ele>
        <time>2021-02-07T13:01:18Z</time>
      </trkpt>
      <trkpt lat="43.62041" lon="3.74937">
        <ele>100.7</ele>
        <time>2021-02-07T13:01:19Z</time>
      </trkpt>
      <trkpt lat="43.6204" lon="3.7494">
        <ele>100.7</ele>
        <time>2021-02-07T13:01:20Z</time>
      </trkpt>
      <trkpt lat="43.62039" lon="3.74944">
        <ele>100.6</ele>
        <time>2021-02-07T13:01:21Z</time>
      </trkpt>
      <trkpt lat="43.62038" lon="3.74947">
        <ele>100.6</ele>
        <time>2021-02-07T13:01:22Z</time>
      </trkpt>
      <trkpt lat="43.62037" lon="3.7495">
        <ele>100.6</ele>
        <time>2021-02-07T13:01:23Z</time>
      </trkpt>
      <trkpt lat="43.62036" lon="3.74952">
        <ele>100.6</ele>
        <time>2021-02-07T13:01:24Z</time>
      </trkpt>
      <trkpt lat="43.62035" lon="3.74955">
        <ele>100.5</ele>
        <time>2021-02-07T13:01:25Z</time>
      </trkpt>
      <trkpt lat="43.62034" lon="3.74958">
        <ele>100</ele>
        <time>2021-02-07T13:01:26Z</time>
      </trkpt>
      <trkpt lat="43.62034" lon="3.74961">
        <ele>100.3</ele>
        <time>2021-02-07T13:01:27Z</time>
      </trkpt>
      <trkpt lat="43.62032" lon="3.74964">
        <ele>100</ele>
        <time>2021-02-07T13:01:28Z</time>
      </trkpt>
      <trkpt lat="43.62031" lon="3.74967">
        <ele>99.7</ele>
        <time>2021-02-07T13:01:29Z</time>
      </trkpt>
      <trkpt lat="43.6203" lon="3.74971">
        <ele>99.4</ele>
        <time>2021-02-07T13:01:30Z</time>
      </trkpt>
      <trkpt lat="43.62029" lon="3.74975">
        <ele>99.1</ele>
        <time>2021-02-07T13:01:31Z</time>
      </trkpt>
      <trkpt lat="43.62027" lon="3.74978">
        <ele>98.9</ele>
        <time>2021-02-07T13:01:32Z</time>
      </trkpt>
      <trkpt lat="43.62025" lon="3.7498">
        <ele>99.1</ele>
        <time>2021-02-07T13:01:33Z</time>
      </trkpt>
      <trkpt lat="43.62023" lon="3.74982">
        <ele>99.2</ele>
        <time>2021-02-07T13:01:34Z</time>
      </trkpt>
      <trkpt lat="43.62021" lon="3.74984">
        <ele>99.3</ele>
        <time>2021-02-07T13:01:35Z</time>
      </trkpt>
      <trkpt lat="43.6202" lon="3.74986">
        <ele>100</ele>
        <time>2021-02-07T13:01:36Z</time>
      </trkpt>
      <trkpt lat="43.62019" lon="3.7499">
        <ele>99.2</ele>
        <time>2021-02-07T13:01:37Z</time>
      </trkpt>
      <trkpt lat="43.62018" lon="3.74993">
        <ele>99.1</ele>
        <time>2021-02-07T13:01:38Z</time>
      </trkpt>
      <trkpt lat="43.62017" lon="3.74998">
        <ele>98.9</ele>
        <time>2021-02-07T13:01:39Z</time>
      </trkpt>
      <trkpt lat="43.62015" lon="3.75003">
        <ele>99.1</ele>
        <time>2021-02-07T13:01:40Z</time>
      </trkpt>
      <trkpt lat="43.62013" lon="3.75006">
        <ele>99.2</ele>
        <time>2021-02-07T13:01:41Z</time>
      </trkpt>
      <trkpt lat="43.62012" lon="3.75009">
        <ele>99.3</ele>
        <time>2021-02-07T13:01:42Z</time>
      </trkpt>
      <trkpt lat="43.62011" lon="3.75011">
        <ele>99.4</ele>
        <time>2021-02-07T13:01:43Z</time>
      </trkpt>
      <trkpt lat="43.62009" lon="3.75014">
        <ele>99.3</ele>
        <time>2021-02-07T13:01:44Z</time>
      </trkpt>
      <trkpt lat="43.62007" lon="3.75017">
        <ele>99.2</ele>
        <time>2021-02-07T13:01:45Z</time>
      </trkpt>
      <trkpt lat="43.62004" lon="3.75019">
        <ele>99</ele>
        <time>2021-02-07T13:01:46Z</time>
      </trkpt>
      <trkpt lat="43.62002" lon="3.7502">
        <ele>98.7</ele>
        <time>2021-02-07T13:01:47Z</time>
      </trkpt>
      <trkpt lat="43.62" lon="3.75022">
        <ele>98.4</ele>
        <time>2021-02-07T13:01:48Z</time>
      </trkpt>
      <trkpt lat="43.61998" lon="3.75024">
        <ele>98.4</ele>
        <time>2021-02-07T13:01:49Z</time>
      </trkpt>
      <trkpt lat="43.61996" lon="3.75025">
        <ele>98.4</ele>
        <time>2021-02-07T13:01:50Z</time>
      </trkpt>
      <trkpt lat="43.61994" lon="3.75026">
        <ele>98.4</ele>
        <time>2021-02-07T13:01:51Z</time>
      </trkpt>
      <trkpt lat="43.61992" lon="3.75028">
        <ele>98.3</ele>
        <time>2021-02-07T13:01:52Z</time>
      </trkpt>
      <trkpt lat="43.61989" lon="3.75029">
        <ele>98.5</ele>
        <time>2021-02-07T13:01:53Z</time>
      </trkpt>
      <trkpt lat="43.61988" lon="3.7503">
        <ele>99</ele>
        <time>2021-02-07T13:01:56Z</time>
      </trkpt>
      <trkpt lat="43.61986" lon="3.75032">
        <ele>98.7</ele>
        <time>2021-02-07T13:01:58Z</time>
      </trkpt>
      <trkpt lat="43.61982" lon="3.75033">
        <ele>98.8</ele>
        <time>2021-02-07T13:02:00Z</time>
      </trkpt>
      <trkpt lat="43.61979" lon="3.75035">
        <ele>98.9</ele>
        <time>2021-02-07T13:02:01Z</time>
      </trkpt>
      <trkpt lat="43.61976" lon="3.75037">
        <ele>99</ele>
        <time>2021-02-07T13:02:02Z</time>
      </trkpt>
      <trkpt lat="43.61972" lon="3.75039">
        <ele>99</ele>
        <time>2021-02-07T13:02:03Z</time>
      </trkpt>
      <trkpt lat="43.61968" lon="3.7504">
        <ele>98.9</ele>
        <time>2021-02-07T13:02:04Z</time>
      </trkpt>
      <trkpt lat="43.61964" lon="3.75041">
        <ele>98.7</ele>
        <time>2021-02-07T13:02:05Z</time>
      </trkpt>
      <trkpt lat="43.61961" lon="3.75043">
        <ele>99</ele>
        <time>2021-02-07T13:02:06Z</time>
      </trkpt>
      <trkpt lat="43.61957" lon="3.75046">
        <ele>98.3</ele>
        <time>2021-02-07T13:02:07Z</time>
      </trkpt>
      <trkpt lat="43.61954" lon="3.75048">
        <ele>98</ele>
        <time>2021-02-07T13:02:08Z</time>
      </trkpt>
      <trkpt lat="43.6195" lon="3.75051">
        <ele>97.7</ele>
        <time>2021-02-07T13:02:09Z</time>
      </trkpt>
      <trkpt lat="43.61948" lon="3.75053">
        <ele>97.4</ele>
        <time>2021-02-07T13:02:10Z</time>
      </trkpt>
      <trkpt lat="43.61946" lon="3.75055">
        <ele>97.1</ele>
        <time>2021-02-07T13:02:11Z</time>
      </trkpt>
      <trkpt lat="43.61944" lon="3.75056">
        <ele>97.1</ele>
        <time>2021-02-07T13:02:12Z</time>
      </trkpt>
      <trkpt lat="43.61941" lon="3.75058">
        <ele>97.3</ele>
        <time>2021-02-07T13:02:13Z</time>
      </trkpt>
      <trkpt lat="43.61939" lon="3.75059">
        <ele>97.5</ele>
        <time>2021-02-07T13:02:14Z</time>
      </trkpt>
      <trkpt lat="43.61935" lon="3.75061">
        <ele>97.7</ele>
        <time>2021-02-07T13:02:15Z</time>
      </trkpt>
      <trkpt lat="43.61933" lon="3.75063">
        <ele>97.8</ele>
        <time>2021-02-07T13:02:16Z</time>
      </trkpt>
      <trkpt lat="43.6193" lon="3.75065">
        <ele>99</ele>
        <time>2021-02-07T13:02:17Z</time>
      </trkpt>
      <trkpt lat="43.61927" lon="3.75067">
        <ele>97.8</ele>
        <time>2021-02-07T13:02:18Z</time>
      </trkpt>
      <trkpt lat="43.61923" lon="3.75069">
        <ele>97.7</ele>
        <time>2021-02-07T13:02:19Z</time>
      </trkpt>
      <trkpt lat="43.6192" lon="3.75071">
        <ele>97.6</ele>
        <time>2021-02-07T13:02:20Z</time>
      </trkpt>
      <trkpt lat="43.61916" lon="3.75073">
        <ele>97.4</ele>
        <time>2021-02-07T13:02:21Z</time>
      </trkpt>
      <trkpt lat="43.61913" lon="3.75075">
        <ele>97.3</ele>
        <time>2021-02-07T13:02:22Z</time>
      </trkpt>
      <trkpt lat="43.61909" lon="3.75076">
        <ele>97.3</ele>
        <time>2021-02-07T13:02:23Z</time>
      </trkpt>
      <trkpt lat="43.61904" lon="3.75077">
        <ele>97.3</ele>
        <time>2021-02-07T13:02:24Z</time>
      </trkpt>
      <trkpt lat="43.619" lon="3.75078">
        <ele>97.3</ele>
        <time>2021-02-07T13:02:25Z</time>
      </trkpt>
      <trkpt lat="43.61895" lon="3.75079">
        <ele>98</ele>
        <time>2021-02-07T13:02:26Z</time>
      </trkpt>
      <trkpt lat="43.6189" lon="3.7508">
        <ele>97.2</ele>
        <time>2021-02-07T13:02:27Z</time>
      </trkpt>
      <trkpt lat="43.61886" lon="3.75082">
        <ele>97</ele>
        <time>2021-02-07T13:02:28Z</time>
      </trkpt>
      <trkpt lat="43.61881" lon="3.75083">
        <ele>96.7</ele>
        <time>2021-02-07T13:02:29Z</time>
      </trkpt>
      <trkpt lat="43.61876" lon="3.75083">
        <ele>96.6</ele>
        <time>2021-02-07T13:02:30Z</time>
      </trkpt>
      <trkpt lat="43.61871" lon="3.75084">
        <ele>96.4</ele>
        <time>2021-02-07T13:02:31Z</time>
      </trkpt>
      <trkpt lat="43.61866" lon="3.75085">
        <ele>96.2</ele>
        <time>2021-02-07T13:02:32Z</time>
      </trkpt>
      <trkpt lat="43.61862" lon="3.75086">
        <ele>96.1</ele>
        <time>2021-02-07T13:02:33Z</time>
      </trkpt>
      <trkpt lat="43.61857" lon="3.75087">
        <ele>96.2</ele>
        <time>2021-02-07T13:02:34Z</time>
      </trkpt>
      <trkpt lat="43.61853" lon="3.75088">
        <ele>96.4</ele>
        <time>2021-02-07T13:02:35Z</time>
      </trkpt>
      <trkpt lat="43.61849" lon="3.7509">
        <ele>98</ele>
        <time>2021-02-07T13:02:36Z</time>
      </trkpt>
      <trkpt lat="43.61844" lon="3.75092">
        <ele>96.5</ele>
        <time>2021-02-07T13:02:37Z</time>
      </trkpt>
      <trkpt lat="43.6184" lon="3.75094">
        <ele>96.6</ele>
        <time>2021-02-07T13:02:38Z</time>
      </trkpt>
      <trkpt lat="43.61836" lon="3.75096">
        <ele>96.5</ele>
        <time>2021-02-07T13:02:39Z</time>
      </trkpt>
      <trkpt lat="43.61832" lon="3.75099">
        <ele>96.4</ele>
        <time>2021-02-07T13:02:40Z</time>
      </trkpt>
      <trkpt lat="43.61828" lon="3.75101">
        <ele>96.4</ele>
        <time>2021-02-07T13:02:41Z</time>
      </trkpt>
      <trkpt lat="43.61825" lon="3.75103">
        <ele>96.3</ele>
        <time>2021-02-07T13:02:42Z</time>
      </trkpt>
      <trkpt lat="43.61822" lon="3.75106">
        <ele>96.2</ele>
        <time>2021-02-07T13:02:43Z</time>
      </trkpt>
      <trkpt lat="43.61818" lon="3.75109">
        <ele>96.1</ele>
        <time>2021-02-07T13:02:44Z</time>
      </trkpt>
      <trkpt lat="43.61816" lon="3.75112">
        <ele>96.1</ele>
        <time>2021-02-07T13:02:45Z</time>
      </trkpt>
      <trkpt lat="43.61814" lon="3.75113">
        <ele>96.2</ele>
        <time>2021-02-07T13:02:46Z</time>
      </trkpt>
      <trkpt lat="43.61812" lon="3.75116">
        <ele>96.5</ele>
        <time>2021-02-07T13:02:48Z</time>
      </trkpt>
      <trkpt lat="43.61808" lon="3.75118">
        <ele>96.6</ele>
        <time>2021-02-07T13:02:50Z</time>
      </trkpt>
      <trkpt lat="43.61807" lon="3.7512">
        <ele>96.7</ele>
        <time>2021-02-07T13:02:51Z</time>
      </trkpt>
      <trkpt lat="43.61805" lon="3.75121">
        <ele>96.7</ele>
        <time>2021-02-07T13:02:52Z</time>
      </trkpt>
      <trkpt lat="43.61803" lon="3.75121">
        <ele>96.6</ele>
        <time>2021-02-07T13:02:53Z</time>
      </trkpt>
      <trkpt lat="43.61801" lon="3.75122">
        <ele>96.6</ele>
        <time>2021-02-07T13:02:54Z</time>
      </trkpt>
      <trkpt lat="43.61798" lon="3.75122">
        <ele>96.5</ele>
        <time>2021-02-07T13:02:55Z</time>
      </trkpt>
      <trkpt lat="43.61797" lon="3.75119">
        <ele>98</ele>
        <time>2021-02-07T13:02:56Z</time>
      </trkpt>
      <trkpt lat="43.61797" lon="3.75117">
        <ele>96.4</ele>
        <time>2021-02-07T13:02:57Z</time>
      </trkpt>
      <trkpt lat="43.61798" lon="3.75112">
        <ele>96.3</ele>
        <time>2021-02-07T13:02:59Z</time>
      </trkpt>
      <trkpt lat="43.61799" lon="3.75108">
        <ele>96.3</ele>
        <time>2021-02-07T13:03:01Z</time>
      </trkpt>
      <trkpt lat="43.61798" lon="3.75104">
        <ele>96.5</ele>
        <time>2021-02-07T13:03:03Z</time>
      </trkpt>
      <trkpt lat="43.61798" lon="3.75101">
        <ele>96.5</ele>
        <time>2021-02-07T13:03:04Z</time>
      </trkpt>
      <trkpt lat="43.61799" lon="3.75098">
        <ele>96.6</ele>
        <time>2021-02-07T13:03:05Z</time>
      </trkpt>
      <trkpt lat="43.61799" lon="3.75094">
        <ele>99</ele>
        <time>2021-02-07T13:03:06Z</time>
      </trkpt>
      <trkpt lat="43.61799" lon="3.75091">
        <ele>96.8</ele>
        <time>2021-02-07T13:03:07Z</time>
      </trkpt>
      <trkpt lat="43.61799" lon="3.75086">
        <ele>96.9</ele>
        <time>2021-02-07T13:03:08Z</time>
      </trkpt>
      <trkpt lat="43.618" lon="3.75082">
        <ele>97</ele>
        <time>2021-02-07T13:03:09Z</time>
      </trkpt>
      <trkpt lat="43.61801" lon="3.75078">
        <ele>97.1</ele>
        <time>2021-02-07T13:03:10Z</time>
      </trkpt>
      <trkpt lat="43.61802" lon="3.75074">
        <ele>97.1</ele>
        <time>2021-02-07T13:03:11Z</time>
      </trkpt>
      <trkpt lat="43.61803" lon="3.75071">
        <ele>97.1</ele>
        <time>2021-02-07T13:03:12Z</time>
      </trkpt>
      <trkpt lat="43.61804" lon="3.75068">
        <ele>97.1</ele>
        <time>2021-02-07T13:03:13Z</time>
      </trkpt>
      <trkpt lat="43.61805" lon="3.75064">
        <ele>97</ele>
        <time>2021-02-07T13:03:14Z</time>
      </trkpt>
      <trkpt lat="43.61806" lon="3.7506">
        <ele>97</ele>
        <time>2021-02-07T13:03:15Z</time>
      </trkpt>
      <trkpt lat="43.61807" lon="3.75056">
        <ele>100</ele>
        <time>2021-02-07T13:03:16Z</time>
      </trkpt>
      <trkpt lat="43.61807" lon="3.75051">
        <ele>97.2</ele>
        <time>2021-02-07T13:03:18Z</time>
      </trkpt>
      <trkpt lat="43.61806" lon="3.75048">
        <ele>97.3</ele>
        <time>2021-02-07T13:03:19Z</time>
      </trkpt>
      <trkpt lat="43.61805" lon="3.75046">
        <ele>97.4</ele>
        <time>2021-02-07T13:03:20Z</time>
      </trkpt>
      <trkpt lat="43.61804" lon="3.75043">
        <ele>97.6</ele>
        <time>2021-02-07T13:03:21Z</time>
      </trkpt>
      <trkpt lat="43.61803" lon="3.75041">
        <ele>97.8</ele>
        <time>2021-02-07T13:03:22Z</time>
      </trkpt>
      <trkpt lat="43.61803" lon="3.75038">
        <ele>97.9</ele>
        <time>2021-02-07T13:03:23Z</time>
      </trkpt>
      <trkpt lat="43.61802" lon="3.75035">
        <ele>98.2</ele>
        <time>2021-02-07T13:03:24Z</time>
      </trkpt>
      <trkpt lat="43.61802" lon="3.75032">
        <ele>98.3</ele>
        <time>2021-02-07T13:03:25Z</time>
      </trkpt>
      <trkpt lat="43.61803" lon="3.75029">
        <ele>102</ele>
        <time>2021-02-07T13:03:26Z</time>
      </trkpt>
      <trkpt lat="43.61804" lon="3.75025">
        <ele>98.2</ele>
        <time>2021-02-07T13:03:27Z</time>
      </trkpt>
      <trkpt lat="43.61805" lon="3.75022">
        <ele>98.1</ele>
        <time>2021-02-07T13:03:28Z</time>
      </trkpt>
      <trkpt lat="43.61806" lon="3.75019">
        <ele>98</ele>
        <time>2021-02-07T13:03:29Z</time>
      </trkpt>
      <trkpt lat="43.61807" lon="3.75015">
        <ele>98</ele>
        <time>2021-02-07T13:03:30Z</time>
      </trkpt>
      <trkpt lat="43.61807" lon="3.75012">
        <ele>98</ele>
        <time>2021-02-07T13:03:31Z</time>
      </trkpt>
      <trkpt lat="43.61808" lon="3.75008">
        <ele>98.1</ele>
        <time>2021-02-07T13:03:32Z</time>
      </trkpt>
      <trkpt lat="43.61807" lon="3.75003">
        <ele>98</ele>
        <time>2021-02-07T13:03:33Z</time>
      </trkpt>
      <trkpt lat="43.61807" lon="3.74999">
        <ele>98.1</ele>
        <time>2021-02-07T13:03:34Z</time>
      </trkpt>
      <trkpt lat="43.61806" lon="3.74995">
        <ele>98</ele>
        <time>2021-02-07T13:03:35Z</time>
      </trkpt>
      <trkpt lat="43.61805" lon="3.74992">
        <ele>104</ele>
        <time>2021-02-07T13:03:36Z</time>
      </trkpt>
      <trkpt lat="43.61804" lon="3.74988">
        <ele>98.4</ele>
        <time>2021-02-07T13:03:37Z</time>
      </trkpt>
      <trkpt lat="43.61802" lon="3.74985">
        <ele>98.8</ele>
        <time>2021-02-07T13:03:38Z</time>
      </trkpt>
      <trkpt lat="43.61801" lon="3.74983">
        <ele>99</ele>
        <time>2021-02-07T13:03:39Z</time>
      </trkpt>
      <trkpt lat="43.61799" lon="3.7498">
        <ele>99.5</ele>
        <time>2021-02-07T13:03:40Z</time>
      </trkpt>
      <trkpt lat="43.61799" lon="3.74978">
        <ele>99.5</ele>
        <time>2021-02-07T13:03:41Z</time>
      </trkpt>
      <trkpt lat="43.61797" lon="3.74976">
        <ele>99.9</ele>
        <time>2021-02-07T13:03:42Z</time>
      </trkpt>
      <trkpt lat="43.61796" lon="3.74973">
        <ele>100.1</ele>
        <time>2021-02-07T13:03:43Z</time>
      </trkpt>
      <trkpt lat="43.61794" lon="3.7497">
        <ele>100.4</ele>
        <time>2021-02-07T13:03:44Z</time>
      </trkpt>
      <trkpt lat="43.61793" lon="3.74968">
        <ele>100.5</ele>
        <time>2021-02-07T13:03:45Z</time>
      </trkpt>
      <trkpt lat="43.61792" lon="3.74965">
        <ele>105</ele>
        <time>2021-02-07T13:03:46Z</time>
      </trkpt>
      <trkpt lat="43.61791" lon="3.74962">
        <ele>100.6</ele>
        <time>2021-02-07T13:03:47Z</time>
      </trkpt>
      <trkpt lat="43.6179" lon="3.74959">
        <ele>100.6</ele>
        <time>2021-02-07T13:03:48Z</time>
      </trkpt>
      <trkpt lat="43.61789" lon="3.74956">
        <ele>100.5</ele>
        <time>2021-02-07T13:03:49Z</time>
      </trkpt>
      <trkpt lat="43.61788" lon="3.74952">
        <ele>100.4</ele>
        <time>2021-02-07T13:03:50Z</time>
      </trkpt>
      <trkpt lat="43.61787" lon="3.74949">
        <ele>100.3</ele>
        <time>2021-02-07T13:03:51Z</time>
      </trkpt>
      <trkpt lat="43.61785" lon="3.74945">
        <ele>100.3</ele>
        <time>2021-02-07T13:03:52Z</time>
      </trkpt>
      <trkpt lat="43.61784" lon="3.74943">
        <ele>100.2</ele>
        <time>2021-02-07T13:03:53Z</time>
      </trkpt>
      <trkpt lat="43.61782" lon="3.74941">
        <ele>100.3</ele>
        <time>2021-02-07T13:03:54Z</time>
      </trkpt>
      <trkpt lat="43.6178" lon="3.74938">
        <ele>100.2</ele>
        <time>2021-02-07T13:03:55Z</time>
      </trkpt>
      <trkpt lat="43.61777" lon="3.74936">
        <ele>106</ele>
        <time>2021-02-07T13:03:56Z</time>
      </trkpt>
      <trkpt lat="43.61775" lon="3.74934">
        <ele>100.3</ele>
        <time>2021-02-07T13:03:57Z</time>
      </trkpt>
      <trkpt lat="43.61773" lon="3.74931">
        <ele>100.2</ele>
        <time>2021-02-07T13:03:58Z</time>
      </trkpt>
      <trkpt lat="43.61771" lon="3.74929">
        <ele>100.3</ele>
        <time>2021-02-07T13:03:59Z</time>
      </trkpt>
      <trkpt lat="43.6177" lon="3.74926">
        <ele>99.9</ele>
        <time>2021-02-07T13:04:00Z</time>
      </trkpt>
      <trkpt lat="43.61768" lon="3.74924">
        <ele>99.9</ele>
        <time>2021-02-07T13:04:01Z</time>
      </trkpt>
      <trkpt lat="43.61766" lon="3.74922">
        <ele>99.7</ele>
        <time>2021-02-07T13:04:02Z</time>
      </trkpt>
      <trkpt lat="43.61764" lon="3.7492">
        <ele>99.6</ele>
        <time>2021-02-07T13:04:03Z</time>
      </trkpt>
      <trkpt lat="43.61762" lon="3.74919">
        <ele>99.6</ele>
        <time>2021-02-07T13:04:04Z</time>
      </trkpt>
      <trkpt lat="43.6176" lon="3.74917">
        <ele>99.3</ele>
        <time>2021-02-07T13:04:05Z</time>
      </trkpt>
      <trkpt lat="43.61757" lon="3.74915">
        <ele>108</ele>
        <time>2021-02-07T13:04:06Z</time>
      </trkpt>
      <trkpt lat="43.61755" lon="3.74913">
        <ele>99.5</ele>
        <time>2021-02-07T13:04:07Z</time>
      </trkpt>
      <trkpt lat="43.61752" lon="3.7491">
        <ele>99.4</ele>
        <time>2021-02-07T13:04:08Z</time>
      </trkpt>
      <trkpt lat="43.6175" lon="3.74909">
        <ele>99.4</ele>
        <time>2021-02-07T13:04:09Z</time>
      </trkpt>
      <trkpt lat="43.61748" lon="3.74909">
        <ele>99.6</ele>
        <time>2021-02-07T13:04:10Z</time>
      </trkpt>
      <trkpt lat="43.61745" lon="3.74909">
        <ele>99.9</ele>
        <time>2021-02-07T13:04:11Z</time>
      </trkpt>
      <trkpt lat="43.61743" lon="3.74908">
        <ele>100.1</ele>
        <time>2021-02-07T13:04:12Z</time>
      </trkpt>
      <trkpt lat="43.61741" lon="3.74908">
        <ele>100.2</ele>
        <time>2021-02-07T13:04:13Z</time>
      </trkpt>
      <trkpt lat="43.61738" lon="3.74907">
        <ele>100.4</ele>
        <time>2021-02-07T13:04:14Z</time>
      </trkpt>
      <trkpt lat="43.61736" lon="3.74907">
        <ele>100.6</ele>
        <time>2021-02-07T13:04:15Z</time>
      </trkpt>
      <trkpt lat="43.61734" lon="3.74907">
        <ele>109</ele>
        <time>2021-02-07T13:04:16Z</time>
      </trkpt>
      <trkpt lat="43.61732" lon="3.74907">
        <ele>101</ele>
        <time>2021-02-07T13:04:18Z</time>
      </trkpt>
      <trkpt lat="43.6173" lon="3.74906">
        <ele>101.1</ele>
        <time>2021-02-07T13:04:19Z</time>
      </trkpt>
      <trkpt lat="43.61728" lon="3.74906">
        <ele>101.3</ele>
        <time>2021-02-07T13:04:20Z</time>
      </trkpt>
      <trkpt lat="43.61725" lon="3.74906">
        <ele>101.6</ele>
        <time>2021-02-07T13:04:21Z</time>
      </trkpt>
      <trkpt lat="43.61722" lon="3.74905">
        <ele>101.8</ele>
        <time>2021-02-07T13:04:22Z</time>
      </trkpt>
      <trkpt lat="43.6172" lon="3.74904">
        <ele>102.2</ele>
        <time>2021-02-07T13:04:23Z</time>
      </trkpt>
      <trkpt lat="43.61717" lon="3.74903">
        <ele>102.8</ele>
        <time>2021-02-07T13:04:24Z</time>
      </trkpt>
      <trkpt lat="43.61715" lon="3.74901">
        <ele>102.9</ele>
        <time>2021-02-07T13:04:25Z</time>
      </trkpt>
      <trkpt lat="43.61713" lon="3.749">
        <ele>110</ele>
        <time>2021-02-07T13:04:26Z</time>
      </trkpt>
      <trkpt lat="43.61711" lon="3.74898">
        <ele>103.4</ele>
        <time>2021-02-07T13:04:27Z</time>
      </trkpt>
      <trkpt lat="43.61709" lon="3.74895">
        <ele>103.4</ele>
        <time>2021-02-07T13:04:28Z</time>
      </trkpt>
      <trkpt lat="43.61707" lon="3.74894">
        <ele>103.6</ele>
        <time>2021-02-07T13:04:29Z</time>
      </trkpt>
      <trkpt lat="43.61705" lon="3.74891">
        <ele>103.5</ele>
        <time>2021-02-07T13:04:30Z</time>
      </trkpt>
      <trkpt lat="43.61704" lon="3.74887">
        <ele>103.1</ele>
        <time>2021-02-07T13:04:31Z</time>
      </trkpt>
      <trkpt lat="43.61702" lon="3.74884">
        <ele>103.3</ele>
        <time>2021-02-07T13:04:32Z</time>
      </trkpt>
      <trkpt lat="43.617" lon="3.74881">
        <ele>103.3</ele>
        <time>2021-02-07T13:04:33Z</time>
      </trkpt>
      <trkpt lat="43.61699" lon="3.74878">
        <ele>103.2</ele>
        <time>2021-02-07T13:04:34Z</time>
      </trkpt>
      <trkpt lat="43.61697" lon="3.74874">
        <ele>103.1</ele>
        <time>2021-02-07T13:04:35Z</time>
      </trkpt>
      <trkpt lat="43.61695" lon="3.7487">
        <ele>111</ele>
        <time>2021-02-07T13:04:36Z</time>
      </trkpt>
      <trkpt lat="43.61694" lon="3.74866">
        <ele>102.7</ele>
        <time>2021-02-07T13:04:37Z</time>
      </trkpt>
      <trkpt lat="43.61693" lon="3.74861">
        <ele>102.5</ele>
        <time>2021-02-07T13:04:38Z</time>
      </trkpt>
      <trkpt lat="43.61693" lon="3.74857">
        <ele>102.4</ele>
        <time>2021-02-07T13:04:39Z</time>
      </trkpt>
      <trkpt lat="43.61692" lon="3.74851">
        <ele>102.7</ele>
        <time>2021-02-07T13:04:40Z</time>
      </trkpt>
      <trkpt lat="43.61692" lon="3.74847">
        <ele>102.6</ele>
        <time>2021-02-07T13:04:41Z</time>
      </trkpt>
      <trkpt lat="43.61691" lon="3.74842">
        <ele>102.8</ele>
        <time>2021-02-07T13:04:42Z</time>
      </trkpt>
      <trkpt lat="43.61691" lon="3.74836">
        <ele>102.7</ele>
        <time>2021-02-07T13:04:43Z</time>
      </trkpt>
      <trkpt lat="43.61691" lon="3.74832">
        <ele>102.6</ele>
        <time>2021-02-07T13:04:44Z</time>
      </trkpt>
      <trkpt lat="43.61691" lon="3.74823">
        <ele>110</ele>
        <time>2021-02-07T13:04:46Z</time>
      </trkpt>
      <trkpt lat="43.6169" lon="3.74819">
        <ele>102.8</ele>
        <time>2021-02-07T13:04:47Z</time>
      </trkpt>
      <trkpt lat="43.6169" lon="3.74815">
        <ele>102.8</ele>
        <time>2021-02-07T13:04:48Z</time>
      </trkpt>
      <trkpt lat="43.6169" lon="3.74812">
        <ele>102.8</ele>
        <time>2021-02-07T13:04:49Z</time>
      </trkpt>
      <trkpt lat="43.61689" lon="3.74809">
        <ele>103</ele>
        <time>2021-02-07T13:04:50Z</time>
      </trkpt>
      <trkpt lat="43.61689" lon="3.74806">
        <ele>103</ele>
        <time>2021-02-07T13:04:51Z</time>
      </trkpt>
      <trkpt lat="43.61688" lon="3.74803">
        <ele>103.1</ele>
        <time>2021-02-07T13:04:52Z</time>
      </trkpt>
      <trkpt lat="43.61687" lon="3.74799">
        <ele>103.2</ele>
        <time>2021-02-07T13:04:53Z</time>
      </trkpt>
      <trkpt lat="43.61687" lon="3.74796">
        <ele>103.2</ele>
        <time>2021-02-07T13:04:54Z</time>
      </trkpt>
      <trkpt lat="43.61686" lon="3.74793">
        <ele>103.2</ele>
        <time>2021-02-07T13:04:55Z</time>
      </trkpt>
      <trkpt lat="43.61686" lon="3.74789">
        <ele>103.2</ele>
        <time>2021-02-07T13:04:56Z</time>
      </trkpt>
      <trkpt lat="43.61685" lon="3.74786">
        <ele>111</ele>
        <time>2021-02-07T13:04:57Z</time>
      </trkpt>
      <trkpt lat="43.61684" lon="3.74783">
        <ele>103.3</ele>
        <time>2021-02-07T13:04:58Z</time>
      </trkpt>
      <trkpt lat="43.61684" lon="3.7478">
        <ele>103.2</ele>
        <time>2021-02-07T13:04:59Z</time>
      </trkpt>
      <trkpt lat="43.61683" lon="3.74777">
        <ele>103.2</ele>
        <time>2021-02-07T13:05:00Z</time>
      </trkpt>
      <trkpt lat="43.61682" lon="3.74774">
        <ele>103.2</ele>
        <time>2021-02-07T13:05:01Z</time>
      </trkpt>
      <trkpt lat="43.6168" lon="3.74772">
        <ele>103.4</ele>
        <time>2021-02-07T13:05:02Z</time>
      </trkpt>
      <trkpt lat="43.61679" lon="3.7477">
        <ele>103.4</ele>
        <time>2021-02-07T13:05:03Z</time>
      </trkpt>
      <trkpt lat="43.61679" lon="3.74767">
        <ele>103.3</ele>
        <time>2021-02-07T13:05:04Z</time>
      </trkpt>
      <trkpt lat="43.61678" lon="3.74764">
        <ele>103.3</ele>
        <time>2021-02-07T13:05:05Z</time>
      </trkpt>
      <trkpt lat="43.61678" lon="3.74761">
        <ele>111</ele>
        <time>2021-02-07T13:05:06Z</time>
      </trkpt>
      <trkpt lat="43.61677" lon="3.74758">
        <ele>103.2</ele>
        <time>2021-02-07T13:05:07Z</time>
      </trkpt>
      <trkpt lat="43.61676" lon="3.74755">
        <ele>103.2</ele>
        <time>2021-02-07T13:05:08Z</time>
      </trkpt>
      <trkpt lat="43.61674" lon="3.74752">
        <ele>103.3</ele>
        <time>2021-02-07T13:05:10Z</time>
      </trkpt>
      <trkpt lat="43.61673" lon="3.7475">
        <ele>103.3</ele>
        <time>2021-02-07T13:05:11Z</time>
      </trkpt>
      <trkpt lat="43.61672" lon="3.74748">
        <ele>103.4</ele>
        <time>2021-02-07T13:05:12Z</time>
      </trkpt>
      <trkpt lat="43.61671" lon="3.74745">
        <ele>103.4</ele>
        <time>2021-02-07T13:05:13Z</time>
      </trkpt>
      <trkpt lat="43.6167" lon="3.74742">
        <ele>103.4</ele>
        <time>2021-02-07T13:05:14Z</time>
      </trkpt>
      <trkpt lat="43.61668" lon="3.7474">
        <ele>103.5</ele>
        <time>2021-02-07T13:05:15Z</time>
      </trkpt>
      <trkpt lat="43.61668" lon="3.74737">
        <ele>111</ele>
        <time>2021-02-07T13:05:16Z</time>
      </trkpt>
      <trkpt lat="43.61667" lon="3.74734">
        <ele>103.4</ele>
        <time>2021-02-07T13:05:17Z</time>
      </trkpt>
      <trkpt lat="43.61666" lon="3.74732">
        <ele>103.6</ele>
        <time>2021-02-07T13:05:18Z</time>
      </trkpt>
      <trkpt lat="43.61666" lon="3.74729">
        <ele>103.4</ele>
        <time>2021-02-07T13:05:19Z</time>
      </trkpt>
      <trkpt lat="43.61665" lon="3.74726">
        <ele>103.6</ele>
        <time>2021-02-07T13:05:20Z</time>
      </trkpt>
      <trkpt lat="43.61664" lon="3.74723">
        <ele>103.8</ele>
        <time>2021-02-07T13:05:21Z</time>
      </trkpt>
      <trkpt lat="43.61663" lon="3.74719">
        <ele>104</ele>
        <time>2021-02-07T13:05:22Z</time>
      </trkpt>
      <trkpt lat="43.61663" lon="3.74716">
        <ele>104</ele>
        <time>2021-02-07T13:05:23Z</time>
      </trkpt>
      <trkpt lat="43.61662" lon="3.74714">
        <ele>104.2</ele>
        <time>2021-02-07T13:05:24Z</time>
      </trkpt>
      <trkpt lat="43.61661" lon="3.74711">
        <ele>104.5</ele>
        <time>2021-02-07T13:05:25Z</time>
      </trkpt>
      <trkpt lat="43.6166" lon="3.74708">
        <ele>111</ele>
        <time>2021-02-07T13:05:26Z</time>
      </trkpt>
      <trkpt lat="43.61659" lon="3.74705">
        <ele>104.9</ele>
        <time>2021-02-07T13:05:27Z</time>
      </trkpt>
      <trkpt lat="43.61657" lon="3.74703">
        <ele>105.3</ele>
        <time>2021-02-07T13:05:28Z</time>
      </trkpt>
      <trkpt lat="43.61656" lon="3.747">
        <ele>105.5</ele>
        <time>2021-02-07T13:05:29Z</time>
      </trkpt>
      <trkpt lat="43.61655" lon="3.74697">
        <ele>105.6</ele>
        <time>2021-02-07T13:05:30Z</time>
      </trkpt>
      <trkpt lat="43.61654" lon="3.74695">
        <ele>105.8</ele>
        <time>2021-02-07T13:05:31Z</time>
      </trkpt>
      <trkpt lat="43.61653" lon="3.74692">
        <ele>105.8</ele>
        <time>2021-02-07T13:05:32Z</time>
      </trkpt>
      <trkpt lat="43.61651" lon="3.7469">
        <ele>106.1</ele>
        <time>2021-02-07T13:05:33Z</time>
      </trkpt>
      <trkpt lat="43.6165" lon="3.74687">
        <ele>106.1</ele>
        <time>2021-02-07T13:05:34Z</time>
      </trkpt>
      <trkpt lat="43.61649" lon="3.74685">
        <ele>106.2</ele>
        <time>2021-02-07T13:05:35Z</time>
      </trkpt>
      <trkpt lat="43.61648" lon="3.74683">
        <ele>112</ele>
        <time>2021-02-07T13:05:36Z</time>
      </trkpt>
      <trkpt lat="43.61647" lon="3.7468">
        <ele>106.1</ele>
        <time>2021-02-07T13:05:37Z</time>
      </trkpt>
      <trkpt lat="43.61646" lon="3.74679">
        <ele>106.2</ele>
        <time>2021-02-07T13:05:38Z</time>
      </trkpt>
      <trkpt lat="43.61644" lon="3.74675">
        <ele>106.2</ele>
        <time>2021-02-07T13:05:40Z</time>
      </trkpt>
      <trkpt lat="43.61642" lon="3.74672">
        <ele>106.2</ele>
        <time>2021-02-07T13:05:42Z</time>
      </trkpt>
      <trkpt lat="43.6164" lon="3.7467">
        <ele>106.2</ele>
        <time>2021-02-07T13:05:43Z</time>
      </trkpt>
      <trkpt lat="43.61639" lon="3.74667">
        <ele>106</ele>
        <time>2021-02-07T13:05:44Z</time>
      </trkpt>
      <trkpt lat="43.61638" lon="3.74665">
        <ele>106</ele>
        <time>2021-02-07T13:05:45Z</time>
      </trkpt>
      <trkpt lat="43.61637" lon="3.74663">
        <ele>112</ele>
        <time>2021-02-07T13:05:46Z</time>
      </trkpt>
      <trkpt lat="43.61635" lon="3.7466">
        <ele>106</ele>
        <time>2021-02-07T13:05:47Z</time>
      </trkpt>
      <trkpt lat="43.61634" lon="3.74658">
        <ele>106</ele>
        <time>2021-02-07T13:05:48Z</time>
      </trkpt>
      <trkpt lat="43.61632" lon="3.74655">
        <ele>106.1</ele>
        <time>2021-02-07T13:05:49Z</time>
      </trkpt>
      <trkpt lat="43.61631" lon="3.74653">
        <ele>106.1</ele>
        <time>2021-02-07T13:05:50Z</time>
      </trkpt>
      <trkpt lat="43.6163" lon="3.7465">
        <ele>106.1</ele>
        <time>2021-02-07T13:05:51Z</time>
      </trkpt>
      <trkpt lat="43.61629" lon="3.74648">
        <ele>106.2</ele>
        <time>2021-02-07T13:05:52Z</time>
      </trkpt>
      <trkpt lat="43.61628" lon="3.74645">
        <ele>106.2</ele>
        <time>2021-02-07T13:05:53Z</time>
      </trkpt>
      <trkpt lat="43.61627" lon="3.74642">
        <ele>106.3</ele>
        <time>2021-02-07T13:05:54Z</time>
      </trkpt>
      <trkpt lat="43.61626" lon="3.7464">
        <ele>106.4</ele>
        <time>2021-02-07T13:05:55Z</time>
      </trkpt>
      <trkpt lat="43.61626" lon="3.74637">
        <ele>106.3</ele>
        <time>2021-02-07T13:05:56Z</time>
      </trkpt>
      <trkpt lat="43.61623" lon="3.74634">
        <ele>106.7</ele>
        <time>2021-02-07T13:05:58Z</time>
      </trkpt>
      <trkpt lat="43.61621" lon="3.7463">
        <ele>106.8</ele>
        <time>2021-02-07T13:06:00Z</time>
      </trkpt>
      <trkpt lat="43.6162" lon="3.74627">
        <ele>106.8</ele>
        <time>2021-02-07T13:06:01Z</time>
      </trkpt>
      <trkpt lat="43.61619" lon="3.74624">
        <ele>106.8</ele>
        <time>2021-02-07T13:06:02Z</time>
      </trkpt>
      <trkpt lat="43.61617" lon="3.74621">
        <ele>106.9</ele>
        <time>2021-02-07T13:06:03Z</time>
      </trkpt>
      <trkpt lat="43.61615" lon="3.74617">
        <ele>106.9</ele>
        <time>2021-02-07T13:06:04Z</time>
      </trkpt>
      <trkpt lat="43.61614" lon="3.74614">
        <ele>106.9</ele>
        <time>2021-02-07T13:06:05Z</time>
      </trkpt>
      <trkpt lat="43.61613" lon="3.74611">
        <ele>113</ele>
        <time>2021-02-07T13:06:06Z</time>
      </trkpt>
      <trkpt lat="43.61611" lon="3.74609">
        <ele>106.9</ele>
        <time>2021-02-07T13:06:07Z</time>
      </trkpt>
      <trkpt lat="43.6161" lon="3.74606">
        <ele>106.9</ele>
        <time>2021-02-07T13:06:08Z</time>
      </trkpt>
      <trkpt lat="43.61609" lon="3.74603">
        <ele>107</ele>
        <time>2021-02-07T13:06:09Z</time>
      </trkpt>
      <trkpt lat="43.61608" lon="3.746">
        <ele>107.1</ele>
        <time>2021-02-07T13:06:10Z</time>
      </trkpt>
      <trkpt lat="43.61607" lon="3.74598">
        <ele>107.2</ele>
        <time>2021-02-07T13:06:11Z</time>
      </trkpt>
      <trkpt lat="43.61605" lon="3.74594">
        <ele>107.4</ele>
        <time>2021-02-07T13:06:12Z</time>
      </trkpt>
      <trkpt lat="43.61603" lon="3.74591">
        <ele>107.7</ele>
        <time>2021-02-07T13:06:13Z</time>
      </trkpt>
      <trkpt lat="43.61601" lon="3.74589">
        <ele>108</ele>
        <time>2021-02-07T13:06:14Z</time>
      </trkpt>
      <trkpt lat="43.61599" lon="3.74587">
        <ele>108.4</ele>
        <time>2021-02-07T13:06:15Z</time>
      </trkpt>
      <trkpt lat="43.61598" lon="3.74584">
        <ele>114</ele>
        <time>2021-02-07T13:06:16Z</time>
      </trkpt>
      <trkpt lat="43.61597" lon="3.74581">
        <ele>108.4</ele>
        <time>2021-02-07T13:06:17Z</time>
      </trkpt>
      <trkpt lat="43.61595" lon="3.74578">
        <ele>108.7</ele>
        <time>2021-02-07T13:06:18Z</time>
      </trkpt>
      <trkpt lat="43.61594" lon="3.74575">
        <ele>108.8</ele>
        <time>2021-02-07T13:06:19Z</time>
      </trkpt>
      <trkpt lat="43.61593" lon="3.74573">
        <ele>108.8</ele>
        <time>2021-02-07T13:06:20Z</time>
      </trkpt>
      <trkpt lat="43.61592" lon="3.74569">
        <ele>108.8</ele>
        <time>2021-02-07T13:06:21Z</time>
      </trkpt>
      <trkpt lat="43.61591" lon="3.74567">
        <ele>108.8</ele>
        <time>2021-02-07T13:06:22Z</time>
      </trkpt>
      <trkpt lat="43.61589" lon="3.74564">
        <ele>108.9</ele>
        <time>2021-02-07T13:06:23Z</time>
      </trkpt>
      <trkpt lat="43.61588" lon="3.74562">
        <ele>108.9</ele>
        <time>2021-02-07T13:06:24Z</time>
      </trkpt>
      <trkpt lat="43.61587" lon="3.74559">
        <ele>108.8</ele>
        <time>2021-02-07T13:06:25Z</time>
      </trkpt>
      <trkpt lat="43.61586" lon="3.74556">
        <ele>108.7</ele>
        <time>2021-02-07T13:06:26Z</time>
      </trkpt>
      <trkpt lat="43.61582" lon="3.74547">
        <ele>108.5</ele>
        <time>2021-02-07T13:06:30Z</time>
      </trkpt>
      <trkpt lat="43.61581" lon="3.74542">
        <ele>108.2</ele>
        <time>2021-02-07T13:06:32Z</time>
      </trkpt>
      <trkpt lat="43.61581" lon="3.74539">
        <ele>107.9</ele>
        <time>2021-02-07T13:06:33Z</time>
      </trkpt>
      <trkpt lat="43.6158" lon="3.74536">
        <ele>107.9</ele>
        <time>2021-02-07T13:06:34Z</time>
      </trkpt>
      <trkpt lat="43.61579" lon="3.74533">
        <ele>107.9</ele>
        <time>2021-02-07T13:06:35Z</time>
      </trkpt>
      <trkpt lat="43.61578" lon="3.7453">
        <ele>115</ele>
        <time>2021-02-07T13:06:36Z</time>
      </trkpt>
      <trkpt lat="43.61577" lon="3.74527">
        <ele>108</ele>
        <time>2021-02-07T13:06:37Z</time>
      </trkpt>
      <trkpt lat="43.61575" lon="3.74525">
        <ele>108.5</ele>
        <time>2021-02-07T13:06:38Z</time>
      </trkpt>
      <trkpt lat="43.61573" lon="3.74522">
        <ele>108.8</ele>
        <time>2021-02-07T13:06:39Z</time>
      </trkpt>
      <trkpt lat="43.61571" lon="3.74519">
        <ele>109.1</ele>
        <time>2021-02-07T13:06:40Z</time>
      </trkpt>
      <trkpt lat="43.6157" lon="3.74516">
        <ele>109.1</ele>
        <time>2021-02-07T13:06:41Z</time>
      </trkpt>
      <trkpt lat="43.6157" lon="3.74512">
        <ele>108.7</ele>
        <time>2021-02-07T13:06:42Z</time>
      </trkpt>
      <trkpt lat="43.61569" lon="3.74508">
        <ele>108.5</ele>
        <time>2021-02-07T13:06:43Z</time>
      </trkpt>
      <trkpt lat="43.61567" lon="3.74505">
        <ele>108.5</ele>
        <time>2021-02-07T13:06:44Z</time>
      </trkpt>
      <trkpt lat="43.61566" lon="3.74502">
        <ele>108.4</ele>
        <time>2021-02-07T13:06:45Z</time>
      </trkpt>
      <trkpt lat="43.61563" lon="3.74501">
        <ele>114</ele>
        <time>2021-02-07T13:06:46Z</time>
      </trkpt>
      <trkpt lat="43.61561" lon="3.74499">
        <ele>108.9</ele>
        <time>2021-02-07T13:06:47Z</time>
      </trkpt>
      <trkpt lat="43.6156" lon="3.74498">
        <ele>109</ele>
        <time>2021-02-07T13:06:48Z</time>
      </trkpt>
      <trkpt lat="43.61558" lon="3.74498">
        <ele>109.4</ele>
        <time>2021-02-07T13:06:49Z</time>
      </trkpt>
      <trkpt lat="43.61556" lon="3.74497">
        <ele>109.6</ele>
        <time>2021-02-07T13:06:50Z</time>
      </trkpt>
      <trkpt lat="43.61552" lon="3.74496">
        <ele>110.3</ele>
        <time>2021-02-07T13:06:52Z</time>
      </trkpt>
      <trkpt lat="43.6155" lon="3.74494">
        <ele>110.4</ele>
        <time>2021-02-07T13:06:54Z</time>
      </trkpt>
      <trkpt lat="43.61548" lon="3.74493">
        <ele>110.6</ele>
        <time>2021-02-07T13:06:55Z</time>
      </trkpt>
      <trkpt lat="43.61546" lon="3.74492">
        <ele>115</ele>
        <time>2021-02-07T13:06:56Z</time>
      </trkpt>
      <trkpt lat="43.61545" lon="3.7449">
        <ele>110.7</ele>
        <time>2021-02-07T13:06:57Z</time>
      </trkpt>
      <trkpt lat="43.61542" lon="3.74488">
        <ele>110.8</ele>
        <time>2021-02-07T13:06:59Z</time>
      </trkpt>
      <trkpt lat="43.61538" lon="3.74488">
        <ele>111.4</ele>
        <time>2021-02-07T13:07:01Z</time>
      </trkpt>
      <trkpt lat="43.61536" lon="3.74487">
        <ele>111.5</ele>
        <time>2021-02-07T13:07:02Z</time>
      </trkpt>
      <trkpt lat="43.61534" lon="3.74487">
        <ele>111.8</ele>
        <time>2021-02-07T13:07:03Z</time>
      </trkpt>
      <trkpt lat="43.61533" lon="3.74486">
        <ele>111.7</ele>
        <time>2021-02-07T13:07:04Z</time>
      </trkpt>
      <trkpt lat="43.6153" lon="3.74484">
        <ele>115</ele>
        <time>2021-02-07T13:07:06Z</time>
      </trkpt>
      <trkpt lat="43.61528" lon="3.74483">
        <ele>111.7</ele>
        <time>2021-02-07T13:07:08Z</time>
      </trkpt>
      <trkpt lat="43.61524" lon="3.74483">
        <ele>112</ele>
        <time>2021-02-07T13:07:10Z</time>
      </trkpt>
      <trkpt lat="43.6152" lon="3.74483">
        <ele>112.4</ele>
        <time>2021-02-07T13:07:12Z</time>
      </trkpt>
      <trkpt lat="43.61518" lon="3.74483">
        <ele>112.6</ele>
        <time>2021-02-07T13:07:13Z</time>
      </trkpt>
      <trkpt lat="43.61516" lon="3.74482">
        <ele>112.5</ele>
        <time>2021-02-07T13:07:15Z</time>
      </trkpt>
      <trkpt lat="43.61513" lon="3.74483">
        <ele>113</ele>
        <time>2021-02-07T13:07:16Z</time>
      </trkpt>
      <trkpt lat="43.61511" lon="3.74482">
        <ele>117</ele>
        <time>2021-02-07T13:07:17Z</time>
      </trkpt>
      <trkpt lat="43.61509" lon="3.74482">
        <ele>113.1</ele>
        <time>2021-02-07T13:07:18Z</time>
      </trkpt>
      <trkpt lat="43.61505" lon="3.74481">
        <ele>113.1</ele>
        <time>2021-02-07T13:07:19Z</time>
      </trkpt>
      <trkpt lat="43.61502" lon="3.74481">
        <ele>113.4</ele>
        <time>2021-02-07T13:07:20Z</time>
      </trkpt>
      <trkpt lat="43.61499" lon="3.74481">
        <ele>113.6</ele>
        <time>2021-02-07T13:07:21Z</time>
      </trkpt>
      <trkpt lat="43.61496" lon="3.7448">
        <ele>113.6</ele>
        <time>2021-02-07T13:07:22Z</time>
      </trkpt>
      <trkpt lat="43.61494" lon="3.74479">
        <ele>113.4</ele>
        <time>2021-02-07T13:07:23Z</time>
      </trkpt>
      <trkpt lat="43.61491" lon="3.74479">
        <ele>113.7</ele>
        <time>2021-02-07T13:07:24Z</time>
      </trkpt>
      <trkpt lat="43.61489" lon="3.74477">
        <ele>113.4</ele>
        <time>2021-02-07T13:07:25Z</time>
      </trkpt>
      <trkpt lat="43.61487" lon="3.74476">
        <ele>117</ele>
        <time>2021-02-07T13:07:26Z</time>
      </trkpt>
      <trkpt lat="43.61485" lon="3.74475">
        <ele>113.3</ele>
        <time>2021-02-07T13:07:27Z</time>
      </trkpt>
      <trkpt lat="43.61483" lon="3.74474">
        <ele>113.2</ele>
        <time>2021-02-07T13:07:28Z</time>
      </trkpt>
      <trkpt lat="43.61481" lon="3.74474">
        <ele>113.4</ele>
        <time>2021-02-07T13:07:29Z</time>
      </trkpt>
      <trkpt lat="43.61478" lon="3.74473">
        <ele>113.5</ele>
        <time>2021-02-07T13:07:30Z</time>
      </trkpt>
      <trkpt lat="43.61475" lon="3.74473">
        <ele>113.8</ele>
        <time>2021-02-07T13:07:31Z</time>
      </trkpt>
      <trkpt lat="43.61473" lon="3.74472">
        <ele>113.9</ele>
        <time>2021-02-07T13:07:32Z</time>
      </trkpt>
      <trkpt lat="43.6147" lon="3.74472">
        <ele>114</ele>
        <time>2021-02-07T13:07:33Z</time>
      </trkpt>
      <trkpt lat="43.61467" lon="3.74473">
        <ele>114.1</ele>
        <time>2021-02-07T13:07:34Z</time>
      </trkpt>
      <trkpt lat="43.61464" lon="3.74472">
        <ele>114</ele>
        <time>2021-02-07T13:07:35Z</time>
      </trkpt>
      <trkpt lat="43.61462" lon="3.74471">
        <ele>117</ele>
        <time>2021-02-07T13:07:36Z</time>
      </trkpt>
      <trkpt lat="43.61459" lon="3.74471">
        <ele>113.9</ele>
        <time>2021-02-07T13:07:37Z</time>
      </trkpt>
      <trkpt lat="43.61457" lon="3.74471">
        <ele>113.9</ele>
        <time>2021-02-07T13:07:38Z</time>
      </trkpt>
      <trkpt lat="43.61455" lon="3.7447">
        <ele>113.8</ele>
        <time>2021-02-07T13:07:39Z</time>
      </trkpt>
      <trkpt lat="43.61452" lon="3.7447">
        <ele>113.8</ele>
        <time>2021-02-07T13:07:40Z</time>
      </trkpt>
      <trkpt lat="43.61449" lon="3.74468">
        <ele>113.6</ele>
        <time>2021-02-07T13:07:41Z</time>
      </trkpt>
      <trkpt lat="43.61447" lon="3.74467">
        <ele>113.6</ele>
        <time>2021-02-07T13:07:42Z</time>
      </trkpt>
      <trkpt lat="43.61445" lon="3.74465">
        <ele>113.5</ele>
        <time>2021-02-07T13:07:43Z</time>
      </trkpt>
      <trkpt lat="43.61443" lon="3.74463">
        <ele>113.4</ele>
        <time>2021-02-07T13:07:44Z</time>
      </trkpt>
      <trkpt lat="43.61441" lon="3.74461">
        <ele>113.4</ele>
        <time>2021-02-07T13:07:45Z</time>
      </trkpt>
      <trkpt lat="43.61439" lon="3.74459">
        <ele>115</ele>
        <time>2021-02-07T13:07:46Z</time>
      </trkpt>
      <trkpt lat="43.61436" lon="3.74456">
        <ele>113.3</ele>
        <time>2021-02-07T13:07:47Z</time>
      </trkpt>
      <trkpt lat="43.61435" lon="3.74454">
        <ele>113.3</ele>
        <time>2021-02-07T13:07:48Z</time>
      </trkpt>
      <trkpt lat="43.61433" lon="3.74451">
        <ele>113.2</ele>
        <time>2021-02-07T13:07:49Z</time>
      </trkpt>
      <trkpt lat="43.6143" lon="3.74449">
        <ele>113.3</ele>
        <time>2021-02-07T13:07:50Z</time>
      </trkpt>
      <trkpt lat="43.61428" lon="3.74447">
        <ele>113.3</ele>
        <time>2021-02-07T13:07:51Z</time>
      </trkpt>
      <trkpt lat="43.61427" lon="3.74444">
        <ele>113.3</ele>
        <time>2021-02-07T13:07:52Z</time>
      </trkpt>
      <trkpt lat="43.61425" lon="3.74441">
        <ele>113.4</ele>
        <time>2021-02-07T13:07:53Z</time>
      </trkpt>
      <trkpt lat="43.61423" lon="3.74439">
        <ele>113.6</ele>
        <time>2021-02-07T13:07:54Z</time>
      </trkpt>
      <trkpt lat="43.61422" lon="3.74436">
        <ele>113.7</ele>
        <time>2021-02-07T13:07:55Z</time>
      </trkpt>
      <trkpt lat="43.6142" lon="3.74434">
        <ele>113</ele>
        <time>2021-02-07T13:07:56Z</time>
      </trkpt>
      <trkpt lat="43.61418" lon="3.74432">
        <ele>113.9</ele>
        <time>2021-02-07T13:07:57Z</time>
      </trkpt>
      <trkpt lat="43.61417" lon="3.7443">
        <ele>114</ele>
        <time>2021-02-07T13:07:58Z</time>
      </trkpt>
      <trkpt lat="43.61415" lon="3.74428">
        <ele>114.1</ele>
        <time>2021-02-07T13:07:59Z</time>
      </trkpt>
      <trkpt lat="43.61414" lon="3.74425">
        <ele>114.2</ele>
        <time>2021-02-07T13:08:00Z</time>
      </trkpt>
      <trkpt lat="43.61413" lon="3.74423">
        <ele>114.3</ele>
        <time>2021-02-07T13:08:01Z</time>
      </trkpt>
      <trkpt lat="43.6141" lon="3.7442">
        <ele>114.5</ele>
        <time>2021-02-07T13:08:03Z</time>
      </trkpt>
      <trkpt lat="43.61408" lon="3.74417">
        <ele>114.6</ele>
        <time>2021-02-07T13:08:04Z</time>
      </trkpt>
      <trkpt lat="43.61406" lon="3.74415">
        <ele>114.8</ele>
        <time>2021-02-07T13:08:05Z</time>
      </trkpt>
      <trkpt lat="43.61405" lon="3.74413">
        <ele>113</ele>
        <time>2021-02-07T13:08:06Z</time>
      </trkpt>
      <trkpt lat="43.61403" lon="3.74411">
        <ele>115.2</ele>
        <time>2021-02-07T13:08:07Z</time>
      </trkpt>
      <trkpt lat="43.61402" lon="3.74409">
        <ele>115.3</ele>
        <time>2021-02-07T13:08:08Z</time>
      </trkpt>
      <trkpt lat="43.614" lon="3.74407">
        <ele>115.5</ele>
        <time>2021-02-07T13:08:09Z</time>
      </trkpt>
      <trkpt lat="43.61399" lon="3.74405">
        <ele>115.7</ele>
        <time>2021-02-07T13:08:10Z</time>
      </trkpt>
      <trkpt lat="43.61398" lon="3.74403">
        <ele>115.8</ele>
        <time>2021-02-07T13:08:11Z</time>
      </trkpt>
      <trkpt lat="43.61397" lon="3.744">
        <ele>116</ele>
        <time>2021-02-07T13:08:12Z</time>
      </trkpt>
      <trkpt lat="43.61395" lon="3.74398">
        <ele>116.2</ele>
        <time>2021-02-07T13:08:13Z</time>
      </trkpt>
      <trkpt lat="43.61393" lon="3.74395">
        <ele>116.5</ele>
        <time>2021-02-07T13:08:14Z</time>
      </trkpt>
      <trkpt lat="43.61392" lon="3.74393">
        <ele>116.6</ele>
        <time>2021-02-07T13:08:15Z</time>
      </trkpt>
      <trkpt lat="43.61391" lon="3.74391">
        <ele>115</ele>
        <time>2021-02-07T13:08:16Z</time>
      </trkpt>
      <trkpt lat="43.6139" lon="3.74389">
        <ele>116.9</ele>
        <time>2021-02-07T13:08:17Z</time>
      </trkpt>
      <trkpt lat="43.61388" lon="3.74387">
        <ele>117.1</ele>
        <time>2021-02-07T13:08:18Z</time>
      </trkpt>
      <trkpt lat="43.61386" lon="3.74384">
        <ele>117.4</ele>
        <time>2021-02-07T13:08:19Z</time>
      </trkpt>
      <trkpt lat="43.61385" lon="3.74382">
        <ele>117.5</ele>
        <time>2021-02-07T13:08:20Z</time>
      </trkpt>
      <trkpt lat="43.61383" lon="3.74379">
        <ele>117.7</ele>
        <time>2021-02-07T13:08:21Z</time>
      </trkpt>
      <trkpt lat="43.61382" lon="3.74377">
        <ele>117.8</ele>
        <time>2021-02-07T13:08:22Z</time>
      </trkpt>
      <trkpt lat="43.61381" lon="3.74375">
        <ele>117.9</ele>
        <time>2021-02-07T13:08:23Z</time>
      </trkpt>
      <trkpt lat="43.6138" lon="3.74372">
        <ele>118.1</ele>
        <time>2021-02-07T13:08:24Z</time>
      </trkpt>
      <trkpt lat="43.61378" lon="3.7437">
        <ele>118.2</ele>
        <time>2021-02-07T13:08:25Z</time>
      </trkpt>
      <trkpt lat="43.61377" lon="3.74368">
        <ele>116</ele>
        <time>2021-02-07T13:08:26Z</time>
      </trkpt>
      <trkpt lat="43.61376" lon="3.74367">
        <ele>118.4</ele>
        <time>2021-02-07T13:08:27Z</time>
      </trkpt>
      <trkpt lat="43.61374" lon="3.74365">
        <ele>118.5</ele>
        <time>2021-02-07T13:08:28Z</time>
      </trkpt>
      <trkpt lat="43.61373" lon="3.74362">
        <ele>118.6</ele>
        <time>2021-02-07T13:08:29Z</time>
      </trkpt>
      <trkpt lat="43.61372" lon="3.7436">
        <ele>118.7</ele>
        <time>2021-02-07T13:08:30Z</time>
      </trkpt>
      <trkpt lat="43.6137" lon="3.74358">
        <ele>118.9</ele>
        <time>2021-02-07T13:08:31Z</time>
      </trkpt>
      <trkpt lat="43.61369" lon="3.74356">
        <ele>119</ele>
        <time>2021-02-07T13:08:32Z</time>
      </trkpt>
      <trkpt lat="43.61368" lon="3.74354">
        <ele>119.2</ele>
        <time>2021-02-07T13:08:33Z</time>
      </trkpt>
      <trkpt lat="43.61366" lon="3.74352">
        <ele>119.4</ele>
        <time>2021-02-07T13:08:34Z</time>
      </trkpt>
      <trkpt lat="43.61365" lon="3.7435">
        <ele>119.6</ele>
        <time>2021-02-07T13:08:35Z</time>
      </trkpt>
      <trkpt lat="43.61364" lon="3.74348">
        <ele>118</ele>
        <time>2021-02-07T13:08:36Z</time>
      </trkpt>
      <trkpt lat="43.61363" lon="3.74346">
        <ele>120</ele>
        <time>2021-02-07T13:08:37Z</time>
      </trkpt>
      <trkpt lat="43.61362" lon="3.74344">
        <ele>120.2</ele>
        <time>2021-02-07T13:08:38Z</time>
      </trkpt>
      <trkpt lat="43.61361" lon="3.74342">
        <ele>120.4</ele>
        <time>2021-02-07T13:08:39Z</time>
      </trkpt>
      <trkpt lat="43.6136" lon="3.7434">
        <ele>120.6</ele>
        <time>2021-02-07T13:08:40Z</time>
      </trkpt>
      <trkpt lat="43.61359" lon="3.74337">
        <ele>120.9</ele>
        <time>2021-02-07T13:08:41Z</time>
      </trkpt>
      <trkpt lat="43.61357" lon="3.74335">
        <ele>121.2</ele>
        <time>2021-02-07T13:08:42Z</time>
      </trkpt>
      <trkpt lat="43.61355" lon="3.74331">
        <ele>121.4</ele>
        <time>2021-02-07T13:08:44Z</time>
      </trkpt>
      <trkpt lat="43.61353" lon="3.74327">
        <ele>119</ele>
        <time>2021-02-07T13:08:46Z</time>
      </trkpt>
      <trkpt lat="43.61352" lon="3.74325">
        <ele>121.7</ele>
        <time>2021-02-07T13:08:47Z</time>
      </trkpt>
      <trkpt lat="43.61351" lon="3.74322">
        <ele>121.7</ele>
        <time>2021-02-07T13:08:48Z</time>
      </trkpt>
      <trkpt lat="43.6135" lon="3.7432">
        <ele>121.8</ele>
        <time>2021-02-07T13:08:49Z</time>
      </trkpt>
      <trkpt lat="43.61348" lon="3.74318">
        <ele>121.9</ele>
        <time>2021-02-07T13:08:50Z</time>
      </trkpt>
      <trkpt lat="43.61346" lon="3.74317">
        <ele>122.1</ele>
        <time>2021-02-07T13:08:51Z</time>
      </trkpt>
      <trkpt lat="43.61344" lon="3.74315">
        <ele>122.2</ele>
        <time>2021-02-07T13:08:52Z</time>
      </trkpt>
      <trkpt lat="43.61342" lon="3.74314">
        <ele>122.4</ele>
        <time>2021-02-07T13:08:53Z</time>
      </trkpt>
      <trkpt lat="43.61341" lon="3.74312">
        <ele>122.4</ele>
        <time>2021-02-07T13:08:54Z</time>
      </trkpt>
      <trkpt lat="43.61339" lon="3.74311">
        <ele>122.6</ele>
        <time>2021-02-07T13:08:55Z</time>
      </trkpt>
      <trkpt lat="43.61335" lon="3.74309">
        <ele>121</ele>
        <time>2021-02-07T13:08:56Z</time>
      </trkpt>
      <trkpt lat="43.61331" lon="3.74306">
        <ele>123.1</ele>
        <time>2021-02-07T13:08:58Z</time>
      </trkpt>
      <trkpt lat="43.61329" lon="3.74305">
        <ele>123.1</ele>
        <time>2021-02-07T13:08:59Z</time>
      </trkpt>
      <trkpt lat="43.61328" lon="3.74304">
        <ele>123.1</ele>
        <time>2021-02-07T13:09:00Z</time>
      </trkpt>
      <trkpt lat="43.61326" lon="3.74303">
        <ele>123.2</ele>
        <time>2021-02-07T13:09:01Z</time>
      </trkpt>
      <trkpt lat="43.61324" lon="3.74302">
        <ele>123.3</ele>
        <time>2021-02-07T13:09:02Z</time>
      </trkpt>
      <trkpt lat="43.61322" lon="3.743">
        <ele>123.3</ele>
        <time>2021-02-07T13:09:03Z</time>
      </trkpt>
      <trkpt lat="43.6132" lon="3.74299">
        <ele>123.4</ele>
        <time>2021-02-07T13:09:04Z</time>
      </trkpt>
      <trkpt lat="43.61319" lon="3.74298">
        <ele>123.4</ele>
        <time>2021-02-07T13:09:05Z</time>
      </trkpt>
      <trkpt lat="43.61315" lon="3.74296">
        <ele>122</ele>
        <time>2021-02-07T13:09:07Z</time>
      </trkpt>
      <trkpt lat="43.61313" lon="3.74293">
        <ele>123.6</ele>
        <time>2021-02-07T13:09:09Z</time>
      </trkpt>
      <trkpt lat="43.61312" lon="3.74292">
        <ele>123</ele>
        <time>2021-02-07T13:09:15Z</time>
      </trkpt>
      <trkpt lat="43.61305" lon="3.74287">
        <ele>123</ele>
        <time>2021-02-07T13:10:31Z</time>
      </trkpt>
      <trkpt lat="43.61302" lon="3.74285">
        <ele>124.2</ele>
        <time>2021-02-07T13:10:33Z</time>
      </trkpt>
      <trkpt lat="43.613" lon="3.74284">
        <ele>124.4</ele>
        <time>2021-02-07T13:10:34Z</time>
      </trkpt>
      <trkpt lat="43.61298" lon="3.74283">
        <ele>124.5</ele>
        <time>2021-02-07T13:10:35Z</time>
      </trkpt>
      <trkpt lat="43.61296" lon="3.74281">
        <ele>124.6</ele>
        <time>2021-02-07T13:10:36Z</time>
      </trkpt>
      <trkpt lat="43.61295" lon="3.74279">
        <ele>124.7</ele>
        <time>2021-02-07T13:10:37Z</time>
      </trkpt>
      <trkpt lat="43.61293" lon="3.74278">
        <ele>124.9</ele>
        <time>2021-02-07T13:10:38Z</time>
      </trkpt>
      <trkpt lat="43.61291" lon="3.74277">
        <ele>125</ele>
        <time>2021-02-07T13:10:39Z</time>
      </trkpt>
      <trkpt lat="43.61288" lon="3.74274">
        <ele>125.3</ele>
        <time>2021-02-07T13:10:41Z</time>
      </trkpt>
      <trkpt lat="43.61286" lon="3.74273">
        <ele>125.4</ele>
        <time>2021-02-07T13:10:42Z</time>
      </trkpt>
      <trkpt lat="43.61284" lon="3.74271">
        <ele>125.6</ele>
        <time>2021-02-07T13:10:43Z</time>
      </trkpt>
      <trkpt lat="43.61282" lon="3.74269">
        <ele>125.7</ele>
        <time>2021-02-07T13:10:44Z</time>
      </trkpt>
      <trkpt lat="43.6128" lon="3.74268">
        <ele>125.8</ele>
        <time>2021-02-07T13:10:45Z</time>
      </trkpt>
      <trkpt lat="43.61279" lon="3.74267">
        <ele>125.9</ele>
        <time>2021-02-07T13:10:46Z</time>
      </trkpt>
      <trkpt lat="43.61277" lon="3.74266">
        <ele>126</ele>
        <time>2021-02-07T13:10:47Z</time>
      </trkpt>
      <trkpt lat="43.61276" lon="3.74264">
        <ele>126.1</ele>
        <time>2021-02-07T13:10:48Z</time>
      </trkpt>
      <trkpt lat="43.61273" lon="3.74262">
        <ele>126.2</ele>
        <time>2021-02-07T13:10:49Z</time>
      </trkpt>
      <trkpt lat="43.61271" lon="3.7426">
        <ele>126.2</ele>
        <time>2021-02-07T13:10:50Z</time>
      </trkpt>
      <trkpt lat="43.61269" lon="3.74258">
        <ele>126</ele>
        <time>2021-02-07T13:10:51Z</time>
      </trkpt>
      <trkpt lat="43.61265" lon="3.74255">
        <ele>126.5</ele>
        <time>2021-02-07T13:10:52Z</time>
      </trkpt>
      <trkpt lat="43.61263" lon="3.74253">
        <ele>126.5</ele>
        <time>2021-02-07T13:10:53Z</time>
      </trkpt>
      <trkpt lat="43.6126" lon="3.7425">
        <ele>126.6</ele>
        <time>2021-02-07T13:10:54Z</time>
      </trkpt>
      <trkpt lat="43.61257" lon="3.74247">
        <ele>126.6</ele>
        <time>2021-02-07T13:10:56Z</time>
      </trkpt>
      <trkpt lat="43.61255" lon="3.74246">
        <ele>126.7</ele>
        <time>2021-02-07T13:10:57Z</time>
      </trkpt>
      <trkpt lat="43.61253" lon="3.74245">
        <ele>126.7</ele>
        <time>2021-02-07T13:10:58Z</time>
      </trkpt>
      <trkpt lat="43.61251" lon="3.74243">
        <ele>126.7</ele>
        <time>2021-02-07T13:10:59Z</time>
      </trkpt>
      <trkpt lat="43.61249" lon="3.74241">
        <ele>127</ele>
        <time>2021-02-07T13:11:00Z</time>
      </trkpt>
      <trkpt lat="43.61247" lon="3.74239">
        <ele>126.8</ele>
        <time>2021-02-07T13:11:01Z</time>
      </trkpt>
      <trkpt lat="43.61242" lon="3.74235">
        <ele>127.1</ele>
        <time>2021-02-07T13:11:03Z</time>
      </trkpt>
      <trkpt lat="43.6124" lon="3.74233">
        <ele>127.2</ele>
        <time>2021-02-07T13:11:05Z</time>
      </trkpt>
      <trkpt lat="43.61238" lon="3.74232">
        <ele>127.3</ele>
        <time>2021-02-07T13:11:06Z</time>
      </trkpt>
      <trkpt lat="43.61236" lon="3.7423">
        <ele>127.5</ele>
        <time>2021-02-07T13:11:07Z</time>
      </trkpt>
      <trkpt lat="43.61234" lon="3.74228">
        <ele>127.7</ele>
        <time>2021-02-07T13:11:08Z</time>
      </trkpt>
      <trkpt lat="43.61231" lon="3.74226">
        <ele>128</ele>
        <time>2021-02-07T13:11:09Z</time>
      </trkpt>
      <trkpt lat="43.61229" lon="3.74224">
        <ele>127</ele>
        <time>2021-02-07T13:11:10Z</time>
      </trkpt>
      <trkpt lat="43.61227" lon="3.74222">
        <ele>128.5</ele>
        <time>2021-02-07T13:11:11Z</time>
      </trkpt>
      <trkpt lat="43.61224" lon="3.7422">
        <ele>128.7</ele>
        <time>2021-02-07T13:11:12Z</time>
      </trkpt>
      <trkpt lat="43.61222" lon="3.74218">
        <ele>128.9</ele>
        <time>2021-02-07T13:11:13Z</time>
      </trkpt>
      <trkpt lat="43.6122" lon="3.74216">
        <ele>129</ele>
        <time>2021-02-07T13:11:14Z</time>
      </trkpt>
      <trkpt lat="43.61217" lon="3.74214">
        <ele>129.1</ele>
        <time>2021-02-07T13:11:15Z</time>
      </trkpt>
      <trkpt lat="43.61215" lon="3.74212">
        <ele>129.2</ele>
        <time>2021-02-07T13:11:16Z</time>
      </trkpt>
      <trkpt lat="43.61213" lon="3.7421">
        <ele>129.4</ele>
        <time>2021-02-07T13:11:17Z</time>
      </trkpt>
      <trkpt lat="43.61211" lon="3.74209">
        <ele>129.5</ele>
        <time>2021-02-07T13:11:18Z</time>
      </trkpt>
      <trkpt lat="43.61209" lon="3.74207">
        <ele>129.7</ele>
        <time>2021-02-07T13:11:19Z</time>
      </trkpt>
      <trkpt lat="43.61208" lon="3.74205">
        <ele>128</ele>
        <time>2021-02-07T13:11:20Z</time>
      </trkpt>
      <trkpt lat="43.61205" lon="3.74203">
        <ele>130</ele>
        <time>2021-02-07T13:11:21Z</time>
      </trkpt>
      <trkpt lat="43.61203" lon="3.74201">
        <ele>130.1</ele>
        <time>2021-02-07T13:11:22Z</time>
      </trkpt>
      <trkpt lat="43.61201" lon="3.742">
        <ele>130.3</ele>
        <time>2021-02-07T13:11:23Z</time>
      </trkpt>
      <trkpt lat="43.61199" lon="3.74198">
        <ele>130.5</ele>
        <time>2021-02-07T13:11:24Z</time>
      </trkpt>
      <trkpt lat="43.61197" lon="3.74196">
        <ele>130.7</ele>
        <time>2021-02-07T13:11:25Z</time>
      </trkpt>
      <trkpt lat="43.61195" lon="3.74194">
        <ele>130.9</ele>
        <time>2021-02-07T13:11:26Z</time>
      </trkpt>
      <trkpt lat="43.61193" lon="3.74192">
        <ele>131</ele>
        <time>2021-02-07T13:11:27Z</time>
      </trkpt>
      <trkpt lat="43.61191" lon="3.7419">
        <ele>131</ele>
        <time>2021-02-07T13:11:28Z</time>
      </trkpt>
      <trkpt lat="43.61189" lon="3.74188">
        <ele>131.1</ele>
        <time>2021-02-07T13:11:29Z</time>
      </trkpt>
      <trkpt lat="43.61187" lon="3.74186">
        <ele>131.1</ele>
        <time>2021-02-07T13:11:30Z</time>
      </trkpt>
      <trkpt lat="43.61185" lon="3.74184">
        <ele>130</ele>
        <time>2021-02-07T13:11:31Z</time>
      </trkpt>
      <trkpt lat="43.61183" lon="3.74182">
        <ele>131.3</ele>
        <time>2021-02-07T13:11:32Z</time>
      </trkpt>
      <trkpt lat="43.61181" lon="3.74181">
        <ele>131.5</ele>
        <time>2021-02-07T13:11:33Z</time>
      </trkpt>
      <trkpt lat="43.61179" lon="3.74179">
        <ele>131.6</ele>
        <time>2021-02-07T13:11:34Z</time>
      </trkpt>
      <trkpt lat="43.61178" lon="3.74176">
        <ele>131.7</ele>
        <time>2021-02-07T13:11:35Z</time>
      </trkpt>
      <trkpt lat="43.61176" lon="3.74174">
        <ele>131.9</ele>
        <time>2021-02-07T13:11:36Z</time>
      </trkpt>
      <trkpt lat="43.61174" lon="3.74172">
        <ele>132.1</ele>
        <time>2021-02-07T13:11:37Z</time>
      </trkpt>
      <trkpt lat="43.61173" lon="3.74169">
        <ele>132.3</ele>
        <time>2021-02-07T13:11:38Z</time>
      </trkpt>
      <trkpt lat="43.61171" lon="3.74167">
        <ele>132.5</ele>
        <time>2021-02-07T13:11:39Z</time>
      </trkpt>
      <trkpt lat="43.6117" lon="3.74164">
        <ele>132</ele>
        <time>2021-02-07T13:11:40Z</time>
      </trkpt>
      <trkpt lat="43.61169" lon="3.74162">
        <ele>132.7</ele>
        <time>2021-02-07T13:11:41Z</time>
      </trkpt>
      <trkpt lat="43.61168" lon="3.74159">
        <ele>132.9</ele>
        <time>2021-02-07T13:11:42Z</time>
      </trkpt>
      <trkpt lat="43.61167" lon="3.74156">
        <ele>133</ele>
        <time>2021-02-07T13:11:43Z</time>
      </trkpt>
      <trkpt lat="43.61166" lon="3.74153">
        <ele>133</ele>
        <time>2021-02-07T13:11:44Z</time>
      </trkpt>
      <trkpt lat="43.61164" lon="3.7415">
        <ele>133.2</ele>
        <time>2021-02-07T13:11:45Z</time>
      </trkpt>
      <trkpt lat="43.61163" lon="3.74147">
        <ele>133.3</ele>
        <time>2021-02-07T13:11:46Z</time>
      </trkpt>
      <trkpt lat="43.61162" lon="3.74144">
        <ele>133.3</ele>
        <time>2021-02-07T13:11:47Z</time>
      </trkpt>
      <trkpt lat="43.61161" lon="3.74141">
        <ele>133.4</ele>
        <time>2021-02-07T13:11:48Z</time>
      </trkpt>
      <trkpt lat="43.6116" lon="3.74138">
        <ele>133.5</ele>
        <time>2021-02-07T13:11:49Z</time>
      </trkpt>
      <trkpt lat="43.61159" lon="3.74135">
        <ele>133</ele>
        <time>2021-02-07T13:11:50Z</time>
      </trkpt>
      <trkpt lat="43.61158" lon="3.74132">
        <ele>133.5</ele>
        <time>2021-02-07T13:11:51Z</time>
      </trkpt>
      <trkpt lat="43.61156" lon="3.74129">
        <ele>133.5</ele>
        <time>2021-02-07T13:11:52Z</time>
      </trkpt>
      <trkpt lat="43.61155" lon="3.74127">
        <ele>133.6</ele>
        <time>2021-02-07T13:11:53Z</time>
      </trkpt>
      <trkpt lat="43.61154" lon="3.74124">
        <ele>133.6</ele>
        <time>2021-02-07T13:11:54Z</time>
      </trkpt>
      <trkpt lat="43.61152" lon="3.74121">
        <ele>133.8</ele>
        <time>2021-02-07T13:11:55Z</time>
      </trkpt>
      <trkpt lat="43.61151" lon="3.74118">
        <ele>133.8</ele>
        <time>2021-02-07T13:11:56Z</time>
      </trkpt>
      <trkpt lat="43.6115" lon="3.74115">
        <ele>133.9</ele>
        <time>2021-02-07T13:11:57Z</time>
      </trkpt>
      <trkpt lat="43.61149" lon="3.74112">
        <ele>133.9</ele>
        <time>2021-02-07T13:11:58Z</time>
      </trkpt>
      <trkpt lat="43.61147" lon="3.74109">
        <ele>134.1</ele>
        <time>2021-02-07T13:11:59Z</time>
      </trkpt>
      <trkpt lat="43.61146" lon="3.74106">
        <ele>134</ele>
        <time>2021-02-07T13:12:00Z</time>
      </trkpt>
      <trkpt lat="43.61145" lon="3.74103">
        <ele>134.1</ele>
        <time>2021-02-07T13:12:01Z</time>
      </trkpt>
      <trkpt lat="43.61143" lon="3.741">
        <ele>134.2</ele>
        <time>2021-02-07T13:12:02Z</time>
      </trkpt>
      <trkpt lat="43.61142" lon="3.74097">
        <ele>134.2</ele>
        <time>2021-02-07T13:12:03Z</time>
      </trkpt>
      <trkpt lat="43.61141" lon="3.74095">
        <ele>134.2</ele>
        <time>2021-02-07T13:12:04Z</time>
      </trkpt>
      <trkpt lat="43.61139" lon="3.74092">
        <ele>134.3</ele>
        <time>2021-02-07T13:12:05Z</time>
      </trkpt>
      <trkpt lat="43.61138" lon="3.74089">
        <ele>134.3</ele>
        <time>2021-02-07T13:12:06Z</time>
      </trkpt>
      <trkpt lat="43.61137" lon="3.74087">
        <ele>134.3</ele>
        <time>2021-02-07T13:12:07Z</time>
      </trkpt>
      <trkpt lat="43.61136" lon="3.74084">
        <ele>134.2</ele>
        <time>2021-02-07T13:12:08Z</time>
      </trkpt>
      <trkpt lat="43.61135" lon="3.74079">
        <ele>135</ele>
        <time>2021-02-07T13:12:10Z</time>
      </trkpt>
      <trkpt lat="43.61135" lon="3.74077">
        <ele>134.1</ele>
        <time>2021-02-07T13:12:11Z</time>
      </trkpt>
      <trkpt lat="43.61133" lon="3.74074">
        <ele>134.2</ele>
        <time>2021-02-07T13:12:12Z</time>
      </trkpt>
      <trkpt lat="43.61132" lon="3.74071">
        <ele>134.2</ele>
        <time>2021-02-07T13:12:13Z</time>
      </trkpt>
      <trkpt lat="43.61131" lon="3.74068">
        <ele>134.2</ele>
        <time>2021-02-07T13:12:14Z</time>
      </trkpt>
      <trkpt lat="43.61129" lon="3.74065">
        <ele>134.3</ele>
        <time>2021-02-07T13:12:15Z</time>
      </trkpt>
      <trkpt lat="43.61128" lon="3.74062">
        <ele>134.3</ele>
        <time>2021-02-07T13:12:16Z</time>
      </trkpt>
      <trkpt lat="43.61127" lon="3.7406">
        <ele>134.4</ele>
        <time>2021-02-07T13:12:17Z</time>
      </trkpt>
      <trkpt lat="43.61126" lon="3.74057">
        <ele>134.4</ele>
        <time>2021-02-07T13:12:18Z</time>
      </trkpt>
      <trkpt lat="43.61124" lon="3.74054">
        <ele>134.6</ele>
        <time>2021-02-07T13:12:19Z</time>
      </trkpt>
      <trkpt lat="43.61123" lon="3.74051">
        <ele>135</ele>
        <time>2021-02-07T13:12:20Z</time>
      </trkpt>
      <trkpt lat="43.61122" lon="3.74048">
        <ele>134.8</ele>
        <time>2021-02-07T13:12:21Z</time>
      </trkpt>
      <trkpt lat="43.6112" lon="3.74045">
        <ele>135</ele>
        <time>2021-02-07T13:12:22Z</time>
      </trkpt>
      <trkpt lat="43.61119" lon="3.74042">
        <ele>135.1</ele>
        <time>2021-02-07T13:12:23Z</time>
      </trkpt>
      <trkpt lat="43.61118" lon="3.74039">
        <ele>135.3</ele>
        <time>2021-02-07T13:12:24Z</time>
      </trkpt>
      <trkpt lat="43.61117" lon="3.74036">
        <ele>135.4</ele>
        <time>2021-02-07T13:12:25Z</time>
      </trkpt>
      <trkpt lat="43.61116" lon="3.74033">
        <ele>135.5</ele>
        <time>2021-02-07T13:12:26Z</time>
      </trkpt>
      <trkpt lat="43.61115" lon="3.7403">
        <ele>135.6</ele>
        <time>2021-02-07T13:12:27Z</time>
      </trkpt>
      <trkpt lat="43.61114" lon="3.74026">
        <ele>135.6</ele>
        <time>2021-02-07T13:12:28Z</time>
      </trkpt>
      <trkpt lat="43.61113" lon="3.74023">
        <ele>135.6</ele>
        <time>2021-02-07T13:12:29Z</time>
      </trkpt>
      <trkpt lat="43.61112" lon="3.74021">
        <ele>135</ele>
        <time>2021-02-07T13:12:30Z</time>
      </trkpt>
      <trkpt lat="43.6111" lon="3.74018">
        <ele>135.7</ele>
        <time>2021-02-07T13:12:31Z</time>
      </trkpt>
      <trkpt lat="43.61109" lon="3.74015">
        <ele>135.7</ele>
        <time>2021-02-07T13:12:32Z</time>
      </trkpt>
      <trkpt lat="43.61107" lon="3.74012">
        <ele>135.8</ele>
        <time>2021-02-07T13:12:33Z</time>
      </trkpt>
      <trkpt lat="43.61106" lon="3.74009">
        <ele>135.8</ele>
        <time>2021-02-07T13:12:34Z</time>
      </trkpt>
      <trkpt lat="43.61105" lon="3.74006">
        <ele>135.8</ele>
        <time>2021-02-07T13:12:35Z</time>
      </trkpt>
      <trkpt lat="43.61104" lon="3.74003">
        <ele>135.8</ele>
        <time>2021-02-07T13:12:36Z</time>
      </trkpt>
      <trkpt lat="43.61103" lon="3.74001">
        <ele>135.9</ele>
        <time>2021-02-07T13:12:37Z</time>
      </trkpt>
      <trkpt lat="43.61102" lon="3.73998">
        <ele>136</ele>
        <time>2021-02-07T13:12:38Z</time>
      </trkpt>
      <trkpt lat="43.61101" lon="3.73995">
        <ele>136.1</ele>
        <time>2021-02-07T13:12:39Z</time>
      </trkpt>
      <trkpt lat="43.61099" lon="3.73992">
        <ele>136</ele>
        <time>2021-02-07T13:12:40Z</time>
      </trkpt>
      <trkpt lat="43.61098" lon="3.7399">
        <ele>136.4</ele>
        <time>2021-02-07T13:12:41Z</time>
      </trkpt>
      <trkpt lat="43.61097" lon="3.73987">
        <ele>136.5</ele>
        <time>2021-02-07T13:12:42Z</time>
      </trkpt>
      <trkpt lat="43.61096" lon="3.73985">
        <ele>136.6</ele>
        <time>2021-02-07T13:12:43Z</time>
      </trkpt>
      <trkpt lat="43.61094" lon="3.73982">
        <ele>136.8</ele>
        <time>2021-02-07T13:12:44Z</time>
      </trkpt>
      <trkpt lat="43.61093" lon="3.73979">
        <ele>137</ele>
        <time>2021-02-07T13:12:45Z</time>
      </trkpt>
      <trkpt lat="43.61092" lon="3.73977">
        <ele>137.1</ele>
        <time>2021-02-07T13:12:46Z</time>
      </trkpt>
      <trkpt lat="43.61091" lon="3.73974">
        <ele>137.2</ele>
        <time>2021-02-07T13:12:47Z</time>
      </trkpt>
      <trkpt lat="43.61089" lon="3.73972">
        <ele>137.4</ele>
        <time>2021-02-07T13:12:48Z</time>
      </trkpt>
      <trkpt lat="43.61088" lon="3.7397">
        <ele>137.6</ele>
        <time>2021-02-07T13:12:49Z</time>
      </trkpt>
      <trkpt lat="43.61086" lon="3.73967">
        <ele>137</ele>
        <time>2021-02-07T13:12:50Z</time>
      </trkpt>
      <trkpt lat="43.61085" lon="3.73965">
        <ele>138.1</ele>
        <time>2021-02-07T13:12:51Z</time>
      </trkpt>
      <trkpt lat="43.61084" lon="3.73962">
        <ele>138.3</ele>
        <time>2021-02-07T13:12:52Z</time>
      </trkpt>
      <trkpt lat="43.61082" lon="3.7396">
        <ele>138.4</ele>
        <time>2021-02-07T13:12:53Z</time>
      </trkpt>
      <trkpt lat="43.61081" lon="3.73957">
        <ele>138.5</ele>
        <time>2021-02-07T13:12:54Z</time>
      </trkpt>
      <trkpt lat="43.6108" lon="3.73954">
        <ele>138.7</ele>
        <time>2021-02-07T13:12:55Z</time>
      </trkpt>
      <trkpt lat="43.61079" lon="3.73952">
        <ele>138.7</ele>
        <time>2021-02-07T13:12:56Z</time>
      </trkpt>
      <trkpt lat="43.61078" lon="3.73949">
        <ele>138.8</ele>
        <time>2021-02-07T13:12:57Z</time>
      </trkpt>
      <trkpt lat="43.61077" lon="3.73947">
        <ele>138.9</ele>
        <time>2021-02-07T13:12:58Z</time>
      </trkpt>
      <trkpt lat="43.61076" lon="3.73944">
        <ele>139</ele>
        <time>2021-02-07T13:12:59Z</time>
      </trkpt>
      <trkpt lat="43.61076" lon="3.73941">
        <ele>138</ele>
        <time>2021-02-07T13:13:00Z</time>
      </trkpt>
      <trkpt lat="43.61075" lon="3.73938">
        <ele>139.2</ele>
        <time>2021-02-07T13:13:01Z</time>
      </trkpt>
      <trkpt lat="43.61074" lon="3.73935">
        <ele>139.2</ele>
        <time>2021-02-07T13:13:02Z</time>
      </trkpt>
      <trkpt lat="43.61073" lon="3.73932">
        <ele>139.3</ele>
        <time>2021-02-07T13:13:03Z</time>
      </trkpt>
      <trkpt lat="43.61073" lon="3.73929">
        <ele>139.3</ele>
        <time>2021-02-07T13:13:04Z</time>
      </trkpt>
      <trkpt lat="43.61072" lon="3.73926">
        <ele>139.4</ele>
        <time>2021-02-07T13:13:05Z</time>
      </trkpt>
      <trkpt lat="43.61071" lon="3.73924">
        <ele>139.4</ele>
        <time>2021-02-07T13:13:06Z</time>
      </trkpt>
      <trkpt lat="43.6107" lon="3.73921">
        <ele>139.4</ele>
        <time>2021-02-07T13:13:07Z</time>
      </trkpt>
      <trkpt lat="43.6107" lon="3.73918">
        <ele>139.5</ele>
        <time>2021-02-07T13:13:08Z</time>
      </trkpt>
      <trkpt lat="43.61068" lon="3.73914">
        <ele>140</ele>
        <time>2021-02-07T13:13:10Z</time>
      </trkpt>
      <trkpt lat="43.61067" lon="3.73911">
        <ele>139.7</ele>
        <time>2021-02-07T13:13:11Z</time>
      </trkpt>
      <trkpt lat="43.61067" lon="3.73909">
        <ele>139.9</ele>
        <time>2021-02-07T13:13:12Z</time>
      </trkpt>
      <trkpt lat="43.61066" lon="3.73906">
        <ele>140</ele>
        <time>2021-02-07T13:13:13Z</time>
      </trkpt>
      <trkpt lat="43.61065" lon="3.73904">
        <ele>140.1</ele>
        <time>2021-02-07T13:13:14Z</time>
      </trkpt>
      <trkpt lat="43.61064" lon="3.73901">
        <ele>140.3</ele>
        <time>2021-02-07T13:13:15Z</time>
      </trkpt>
      <trkpt lat="43.61064" lon="3.73899">
        <ele>140.4</ele>
        <time>2021-02-07T13:13:16Z</time>
      </trkpt>
      <trkpt lat="43.61063" lon="3.73896">
        <ele>140.6</ele>
        <time>2021-02-07T13:13:17Z</time>
      </trkpt>
      <trkpt lat="43.61062" lon="3.73894">
        <ele>140.7</ele>
        <time>2021-02-07T13:13:18Z</time>
      </trkpt>
      <trkpt lat="43.61062" lon="3.73891">
        <ele>140.9</ele>
        <time>2021-02-07T13:13:19Z</time>
      </trkpt>
      <trkpt lat="43.61063" lon="3.73888">
        <ele>141</ele>
        <time>2021-02-07T13:13:20Z</time>
      </trkpt>
      <trkpt lat="43.61064" lon="3.73886">
        <ele>141.2</ele>
        <time>2021-02-07T13:13:21Z</time>
      </trkpt>
      <trkpt lat="43.61066" lon="3.73883">
        <ele>141.5</ele>
        <time>2021-02-07T13:13:23Z</time>
      </trkpt>
      <trkpt lat="43.61068" lon="3.73881">
        <ele>141.7</ele>
        <time>2021-02-07T13:13:24Z</time>
      </trkpt>
      <trkpt lat="43.61069" lon="3.7388">
        <ele>141.8</ele>
        <time>2021-02-07T13:13:25Z</time>
      </trkpt>
      <trkpt lat="43.6107" lon="3.73877">
        <ele>142.1</ele>
        <time>2021-02-07T13:13:26Z</time>
      </trkpt>
      <trkpt lat="43.61072" lon="3.73875">
        <ele>142.3</ele>
        <time>2021-02-07T13:13:27Z</time>
      </trkpt>
      <trkpt lat="43.61073" lon="3.73873">
        <ele>142.5</ele>
        <time>2021-02-07T13:13:28Z</time>
      </trkpt>
      <trkpt lat="43.61074" lon="3.73871">
        <ele>142.7</ele>
        <time>2021-02-07T13:13:29Z</time>
      </trkpt>
      <trkpt lat="43.61075" lon="3.73869">
        <ele>143</ele>
        <time>2021-02-07T13:13:30Z</time>
      </trkpt>
      <trkpt lat="43.61077" lon="3.73865">
        <ele>143.4</ele>
        <time>2021-02-07T13:13:32Z</time>
      </trkpt>
      <trkpt lat="43.6108" lon="3.73861">
        <ele>143.9</ele>
        <time>2021-02-07T13:13:34Z</time>
      </trkpt>
      <trkpt lat="43.61081" lon="3.73857">
        <ele>144.2</ele>
        <time>2021-02-07T13:13:36Z</time>
      </trkpt>
      <trkpt lat="43.61082" lon="3.73853">
        <ele>144.5</ele>
        <time>2021-02-07T13:13:38Z</time>
      </trkpt>
      <trkpt lat="43.61083" lon="3.73849">
        <ele>145</ele>
        <time>2021-02-07T13:13:40Z</time>
      </trkpt>
      <trkpt lat="43.61084" lon="3.73845">
        <ele>145.2</ele>
        <time>2021-02-07T13:13:42Z</time>
      </trkpt>
      <trkpt lat="43.61085" lon="3.73842">
        <ele>145.5</ele>
        <time>2021-02-07T13:13:44Z</time>
      </trkpt>
      <trkpt lat="43.61087" lon="3.73839">
        <ele>146</ele>
        <time>2021-02-07T13:13:46Z</time>
      </trkpt>
      <trkpt lat="43.61088" lon="3.73836">
        <ele>146.3</ele>
        <time>2021-02-07T13:13:48Z</time>
      </trkpt>
      <trkpt lat="43.61088" lon="3.73833">
        <ele>146</ele>
        <time>2021-02-07T13:13:50Z</time>
      </trkpt>
      <trkpt lat="43.61089" lon="3.73829">
        <ele>147</ele>
        <time>2021-02-07T13:13:52Z</time>
      </trkpt>
      <trkpt lat="43.6109" lon="3.73826">
        <ele>147.4</ele>
        <time>2021-02-07T13:13:54Z</time>
      </trkpt>
      <trkpt lat="43.61091" lon="3.73823">
        <ele>147.8</ele>
        <time>2021-02-07T13:13:56Z</time>
      </trkpt>
      <trkpt lat="43.61092" lon="3.7382">
        <ele>148.2</ele>
        <time>2021-02-07T13:13:58Z</time>
      </trkpt>
      <trkpt lat="43.61093" lon="3.73817">
        <ele>148.6</ele>
        <time>2021-02-07T13:14:00Z</time>
      </trkpt>
      <trkpt lat="43.61093" lon="3.73814">
        <ele>148.9</ele>
        <time>2021-02-07T13:14:02Z</time>
      </trkpt>
      <trkpt lat="43.61094" lon="3.73811">
        <ele>149.3</ele>
        <time>2021-02-07T13:14:04Z</time>
      </trkpt>
      <trkpt lat="43.61095" lon="3.73807">
        <ele>149.7</ele>
        <time>2021-02-07T13:14:06Z</time>
      </trkpt>
      <trkpt lat="43.61096" lon="3.73804">
        <ele>150.1</ele>
        <time>2021-02-07T13:14:08Z</time>
      </trkpt>
      <trkpt lat="43.61097" lon="3.73801">
        <ele>149</ele>
        <time>2021-02-07T13:14:10Z</time>
      </trkpt>
      <trkpt lat="43.61099" lon="3.73798">
        <ele>150.8</ele>
        <time>2021-02-07T13:14:12Z</time>
      </trkpt>
      <trkpt lat="43.61099" lon="3.73794">
        <ele>151.1</ele>
        <time>2021-02-07T13:14:14Z</time>
      </trkpt>
      <trkpt lat="43.611" lon="3.7379">
        <ele>151.4</ele>
        <time>2021-02-07T13:14:16Z</time>
      </trkpt>
      <trkpt lat="43.61101" lon="3.73787">
        <ele>151.7</ele>
        <time>2021-02-07T13:14:18Z</time>
      </trkpt>
      <trkpt lat="43.61103" lon="3.73782">
        <ele>150</ele>
        <time>2021-02-07T13:14:20Z</time>
      </trkpt>
      <trkpt lat="43.61104" lon="3.7378">
        <ele>152.1</ele>
        <time>2021-02-07T13:14:21Z</time>
      </trkpt>
      <trkpt lat="43.61105" lon="3.73778">
        <ele>152.2</ele>
        <time>2021-02-07T13:14:22Z</time>
      </trkpt>
      <trkpt lat="43.61107" lon="3.73775">
        <ele>152.3</ele>
        <time>2021-02-07T13:14:23Z</time>
      </trkpt>
      <trkpt lat="43.61108" lon="3.73773">
        <ele>152.5</ele>
        <time>2021-02-07T13:14:24Z</time>
      </trkpt>
      <trkpt lat="43.61109" lon="3.73771">
        <ele>152.6</ele>
        <time>2021-02-07T13:14:25Z</time>
      </trkpt>
      <trkpt lat="43.6111" lon="3.7377">
        <ele>152.6</ele>
        <time>2021-02-07T13:14:26Z</time>
      </trkpt>
      <trkpt lat="43.61112" lon="3.73768">
        <ele>152.6</ele>
        <time>2021-02-07T13:14:27Z</time>
      </trkpt>
      <trkpt lat="43.61114" lon="3.73765">
        <ele>152.7</ele>
        <time>2021-02-07T13:14:28Z</time>
      </trkpt>
      <trkpt lat="43.61116" lon="3.73763">
        <ele>152.6</ele>
        <time>2021-02-07T13:14:29Z</time>
      </trkpt>
      <trkpt lat="43.61118" lon="3.73761">
        <ele>151</ele>
        <time>2021-02-07T13:14:30Z</time>
      </trkpt>
      <trkpt lat="43.6112" lon="3.73759">
        <ele>152.5</ele>
        <time>2021-02-07T13:14:31Z</time>
      </trkpt>
      <trkpt lat="43.61121" lon="3.73758">
        <ele>152.5</ele>
        <time>2021-02-07T13:14:32Z</time>
      </trkpt>
      <trkpt lat="43.61123" lon="3.73756">
        <ele>152.4</ele>
        <time>2021-02-07T13:14:33Z</time>
      </trkpt>
      <trkpt lat="43.61125" lon="3.73755">
        <ele>152.2</ele>
        <time>2021-02-07T13:14:34Z</time>
      </trkpt>
      <trkpt lat="43.61127" lon="3.73754">
        <ele>152.1</ele>
        <time>2021-02-07T13:14:35Z</time>
      </trkpt>
      <trkpt lat="43.61129" lon="3.73752">
        <ele>152</ele>
        <time>2021-02-07T13:14:36Z</time>
      </trkpt>
      <trkpt lat="43.6113" lon="3.7375">
        <ele>152</ele>
        <time>2021-02-07T13:14:37Z</time>
      </trkpt>
      <trkpt lat="43.61132" lon="3.73748">
        <ele>151.9</ele>
        <time>2021-02-07T13:14:38Z</time>
      </trkpt>
      <trkpt lat="43.61134" lon="3.73746">
        <ele>151.9</ele>
        <time>2021-02-07T13:14:39Z</time>
      </trkpt>
      <trkpt lat="43.61136" lon="3.73744">
        <ele>152</ele>
        <time>2021-02-07T13:14:40Z</time>
      </trkpt>
      <trkpt lat="43.61138" lon="3.73742">
        <ele>152</ele>
        <time>2021-02-07T13:14:41Z</time>
      </trkpt>
      <trkpt lat="43.61139" lon="3.7374">
        <ele>152.1</ele>
        <time>2021-02-07T13:14:42Z</time>
      </trkpt>
      <trkpt lat="43.61141" lon="3.73739">
        <ele>152</ele>
        <time>2021-02-07T13:14:43Z</time>
      </trkpt>
      <trkpt lat="43.61142" lon="3.73736">
        <ele>152.2</ele>
        <time>2021-02-07T13:14:44Z</time>
      </trkpt>
      <trkpt lat="43.61144" lon="3.73734">
        <ele>152.2</ele>
        <time>2021-02-07T13:14:45Z</time>
      </trkpt>
      <trkpt lat="43.61145" lon="3.73732">
        <ele>152.3</ele>
        <time>2021-02-07T13:14:46Z</time>
      </trkpt>
      <trkpt lat="43.61147" lon="3.73731">
        <ele>152.2</ele>
        <time>2021-02-07T13:14:47Z</time>
      </trkpt>
      <trkpt lat="43.61149" lon="3.73728">
        <ele>152.3</ele>
        <time>2021-02-07T13:14:49Z</time>
      </trkpt>
      <trkpt lat="43.61152" lon="3.73725">
        <ele>152.3</ele>
        <time>2021-02-07T13:14:51Z</time>
      </trkpt>
      <trkpt lat="43.61153" lon="3.73723">
        <ele>152.4</ele>
        <time>2021-02-07T13:14:52Z</time>
      </trkpt>
      <trkpt lat="43.61155" lon="3.73721">
        <ele>152.4</ele>
        <time>2021-02-07T13:14:53Z</time>
      </trkpt>
      <trkpt lat="43.61158" lon="3.73716">
        <ele>152.6</ele>
        <time>2021-02-07T13:14:54Z</time>
      </trkpt>
      <trkpt lat="43.61159" lon="3.73714">
        <ele>152.7</ele>
        <time>2021-02-07T13:14:55Z</time>
      </trkpt>
      <trkpt lat="43.61161" lon="3.73712">
        <ele>152.7</ele>
        <time>2021-02-07T13:14:56Z</time>
      </trkpt>
      <trkpt lat="43.61163" lon="3.73708">
        <ele>152.9</ele>
        <time>2021-02-07T13:14:58Z</time>
      </trkpt>
      <trkpt lat="43.61165" lon="3.73706">
        <ele>152</ele>
        <time>2021-02-07T13:15:00Z</time>
      </trkpt>
      <trkpt lat="43.61166" lon="3.73704">
        <ele>153</ele>
        <time>2021-02-07T13:15:01Z</time>
      </trkpt>
      <trkpt lat="43.61168" lon="3.73702">
        <ele>153.1</ele>
        <time>2021-02-07T13:15:02Z</time>
      </trkpt>
      <trkpt lat="43.61169" lon="3.73699">
        <ele>153.3</ele>
        <time>2021-02-07T13:15:03Z</time>
      </trkpt>
      <trkpt lat="43.6117" lon="3.73697">
        <ele>153.5</ele>
        <time>2021-02-07T13:15:04Z</time>
      </trkpt>
      <trkpt lat="43.61171" lon="3.73695">
        <ele>153.6</ele>
        <time>2021-02-07T13:15:05Z</time>
      </trkpt>
      <trkpt lat="43.61172" lon="3.73692">
        <ele>153.7</ele>
        <time>2021-02-07T13:15:06Z</time>
      </trkpt>
      <trkpt lat="43.61173" lon="3.7369">
        <ele>153.7</ele>
        <time>2021-02-07T13:15:07Z</time>
      </trkpt>
      <trkpt lat="43.61173" lon="3.73685">
        <ele>153.9</ele>
        <time>2021-02-07T13:15:09Z</time>
      </trkpt>
      <trkpt lat="43.61173" lon="3.73682">
        <ele>152</ele>
        <time>2021-02-07T13:15:10Z</time>
      </trkpt>
      <trkpt lat="43.61171" lon="3.73678">
        <ele>154.3</ele>
        <time>2021-02-07T13:15:12Z</time>
      </trkpt>
      <trkpt lat="43.6117" lon="3.73676">
        <ele>154.4</ele>
        <time>2021-02-07T13:15:13Z</time>
      </trkpt>
      <trkpt lat="43.61169" lon="3.73674">
        <ele>154.6</ele>
        <time>2021-02-07T13:15:14Z</time>
      </trkpt>
      <trkpt lat="43.61168" lon="3.73671">
        <ele>154.7</ele>
        <time>2021-02-07T13:15:15Z</time>
      </trkpt>
      <trkpt lat="43.61167" lon="3.73667">
        <ele>155</ele>
        <time>2021-02-07T13:15:17Z</time>
      </trkpt>
      <trkpt lat="43.61165" lon="3.73665">
        <ele>155.1</ele>
        <time>2021-02-07T13:15:18Z</time>
      </trkpt>
      <trkpt lat="43.61164" lon="3.73661">
        <ele>154</ele>
        <time>2021-02-07T13:15:20Z</time>
      </trkpt>
      <trkpt lat="43.61163" lon="3.73657">
        <ele>154.9</ele>
        <time>2021-02-07T13:15:22Z</time>
      </trkpt>
      <trkpt lat="43.61161" lon="3.73653">
        <ele>154.9</ele>
        <time>2021-02-07T13:15:24Z</time>
      </trkpt>
      <trkpt lat="43.61158" lon="3.7365">
        <ele>155</ele>
        <time>2021-02-07T13:15:26Z</time>
      </trkpt>
      <trkpt lat="43.61156" lon="3.73649">
        <ele>155.1</ele>
        <time>2021-02-07T13:15:27Z</time>
      </trkpt>
      <trkpt lat="43.61154" lon="3.73647">
        <ele>155.2</ele>
        <time>2021-02-07T13:15:28Z</time>
      </trkpt>
      <trkpt lat="43.61153" lon="3.73647">
        <ele>155.3</ele>
        <time>2021-02-07T13:15:29Z</time>
      </trkpt>
      <trkpt lat="43.61151" lon="3.73646">
        <ele>155</ele>
        <time>2021-02-07T13:15:30Z</time>
      </trkpt>
      <trkpt lat="43.61149" lon="3.73644">
        <ele>155.5</ele>
        <time>2021-02-07T13:15:31Z</time>
      </trkpt>
      <trkpt lat="43.61147" lon="3.73643">
        <ele>155.6</ele>
        <time>2021-02-07T13:15:32Z</time>
      </trkpt>
      <trkpt lat="43.61145" lon="3.73641">
        <ele>155.6</ele>
        <time>2021-02-07T13:15:33Z</time>
      </trkpt>
      <trkpt lat="43.61144" lon="3.7364">
        <ele>155.7</ele>
        <time>2021-02-07T13:15:34Z</time>
      </trkpt>
      <trkpt lat="43.61142" lon="3.73639">
        <ele>155.8</ele>
        <time>2021-02-07T13:15:35Z</time>
      </trkpt>
      <trkpt lat="43.6114" lon="3.73637">
        <ele>155.8</ele>
        <time>2021-02-07T13:15:36Z</time>
      </trkpt>
      <trkpt lat="43.61138" lon="3.73636">
        <ele>155.9</ele>
        <time>2021-02-07T13:15:37Z</time>
      </trkpt>
      <trkpt lat="43.61136" lon="3.73635">
        <ele>155.9</ele>
        <time>2021-02-07T13:15:38Z</time>
      </trkpt>
      <trkpt lat="43.61135" lon="3.73633">
        <ele>155.8</ele>
        <time>2021-02-07T13:15:39Z</time>
      </trkpt>
      <trkpt lat="43.61133" lon="3.73631">
        <ele>155</ele>
        <time>2021-02-07T13:15:40Z</time>
      </trkpt>
      <trkpt lat="43.61131" lon="3.7363">
        <ele>155.8</ele>
        <time>2021-02-07T13:15:41Z</time>
      </trkpt>
      <trkpt lat="43.61129" lon="3.73628">
        <ele>155.7</ele>
        <time>2021-02-07T13:15:42Z</time>
      </trkpt>
      <trkpt lat="43.61127" lon="3.73626">
        <ele>155.7</ele>
        <time>2021-02-07T13:15:43Z</time>
      </trkpt>
      <trkpt lat="43.61126" lon="3.73624">
        <ele>155.7</ele>
        <time>2021-02-07T13:15:44Z</time>
      </trkpt>
      <trkpt lat="43.61124" lon="3.73623">
        <ele>155.7</ele>
        <time>2021-02-07T13:15:45Z</time>
      </trkpt>
      <trkpt lat="43.61122" lon="3.73621">
        <ele>155.7</ele>
        <time>2021-02-07T13:15:46Z</time>
      </trkpt>
      <trkpt lat="43.61121" lon="3.7362">
        <ele>155.8</ele>
        <time>2021-02-07T13:15:47Z</time>
      </trkpt>
      <trkpt lat="43.61119" lon="3.73618">
        <ele>155.8</ele>
        <time>2021-02-07T13:15:48Z</time>
      </trkpt>
      <trkpt lat="43.61117" lon="3.73616">
        <ele>155.8</ele>
        <time>2021-02-07T13:15:49Z</time>
      </trkpt>
      <trkpt lat="43.61115" lon="3.73614">
        <ele>155</ele>
        <time>2021-02-07T13:15:50Z</time>
      </trkpt>
      <trkpt lat="43.61114" lon="3.73612">
        <ele>155.9</ele>
        <time>2021-02-07T13:15:51Z</time>
      </trkpt>
      <trkpt lat="43.61113" lon="3.73609">
        <ele>155.9</ele>
        <time>2021-02-07T13:15:52Z</time>
      </trkpt>
      <trkpt lat="43.61113" lon="3.73606">
        <ele>155.8</ele>
        <time>2021-02-07T13:15:53Z</time>
      </trkpt>
      <trkpt lat="43.61114" lon="3.73604">
        <ele>155.7</ele>
        <time>2021-02-07T13:15:54Z</time>
      </trkpt>
      <trkpt lat="43.61115" lon="3.73602">
        <ele>155.6</ele>
        <time>2021-02-07T13:15:55Z</time>
      </trkpt>
      <trkpt lat="43.61117" lon="3.73599">
        <ele>155.4</ele>
        <time>2021-02-07T13:15:56Z</time>
      </trkpt>
      <trkpt lat="43.61118" lon="3.73597">
        <ele>155.4</ele>
        <time>2021-02-07T13:15:57Z</time>
      </trkpt>
      <trkpt lat="43.6112" lon="3.73594">
        <ele>155.3</ele>
        <time>2021-02-07T13:15:58Z</time>
      </trkpt>
      <trkpt lat="43.61121" lon="3.7359">
        <ele>155.2</ele>
        <time>2021-02-07T13:15:59Z</time>
      </trkpt>
      <trkpt lat="43.61123" lon="3.73586">
        <ele>154</ele>
        <time>2021-02-07T13:16:00Z</time>
      </trkpt>
      <trkpt lat="43.61125" lon="3.73583">
        <ele>155</ele>
        <time>2021-02-07T13:16:01Z</time>
      </trkpt>
      <trkpt lat="43.61127" lon="3.73579">
        <ele>154.9</ele>
        <time>2021-02-07T13:16:02Z</time>
      </trkpt>
      <trkpt lat="43.61129" lon="3.73576">
        <ele>154.8</ele>
        <time>2021-02-07T13:16:03Z</time>
      </trkpt>
      <trkpt lat="43.61131" lon="3.73572">
        <ele>154.7</ele>
        <time>2021-02-07T13:16:04Z</time>
      </trkpt>
      <trkpt lat="43.61133" lon="3.73568">
        <ele>154.6</ele>
        <time>2021-02-07T13:16:05Z</time>
      </trkpt>
      <trkpt lat="43.61135" lon="3.73564">
        <ele>154.4</ele>
        <time>2021-02-07T13:16:06Z</time>
      </trkpt>
      <trkpt lat="43.61138" lon="3.7356">
        <ele>154.2</ele>
        <time>2021-02-07T13:16:07Z</time>
      </trkpt>
      <trkpt lat="43.6114" lon="3.73556">
        <ele>154</ele>
        <time>2021-02-07T13:16:08Z</time>
      </trkpt>
      <trkpt lat="43.61143" lon="3.73552">
        <ele>153.7</ele>
        <time>2021-02-07T13:16:09Z</time>
      </trkpt>
      <trkpt lat="43.61145" lon="3.73547">
        <ele>153</ele>
        <time>2021-02-07T13:16:10Z</time>
      </trkpt>
      <trkpt lat="43.61148" lon="3.73542">
        <ele>153</ele>
        <time>2021-02-07T13:16:11Z</time>
      </trkpt>
      <trkpt lat="43.61149" lon="3.73536">
        <ele>152.7</ele>
        <time>2021-02-07T13:16:12Z</time>
      </trkpt>
      <trkpt lat="43.6115" lon="3.73531">
        <ele>152.4</ele>
        <time>2021-02-07T13:16:13Z</time>
      </trkpt>
      <trkpt lat="43.6115" lon="3.73525">
        <ele>152.2</ele>
        <time>2021-02-07T13:16:14Z</time>
      </trkpt>
      <trkpt lat="43.61149" lon="3.7352">
        <ele>152.2</ele>
        <time>2021-02-07T13:16:15Z</time>
      </trkpt>
      <trkpt lat="43.61148" lon="3.73516">
        <ele>152.2</ele>
        <time>2021-02-07T13:16:16Z</time>
      </trkpt>
      <trkpt lat="43.61146" lon="3.73512">
        <ele>152.3</ele>
        <time>2021-02-07T13:16:17Z</time>
      </trkpt>
      <trkpt lat="43.61145" lon="3.73508">
        <ele>152.4</ele>
        <time>2021-02-07T13:16:18Z</time>
      </trkpt>
      <trkpt lat="43.61144" lon="3.73504">
        <ele>152.5</ele>
        <time>2021-02-07T13:16:19Z</time>
      </trkpt>
      <trkpt lat="43.61143" lon="3.735">
        <ele>152</ele>
        <time>2021-02-07T13:16:20Z</time>
      </trkpt>
      <trkpt lat="43.61142" lon="3.73496">
        <ele>152.8</ele>
        <time>2021-02-07T13:16:21Z</time>
      </trkpt>
      <trkpt lat="43.6114" lon="3.73493">
        <ele>153.1</ele>
        <time>2021-02-07T13:16:22Z</time>
      </trkpt>
      <trkpt lat="43.61139" lon="3.73489">
        <ele>153.4</ele>
        <time>2021-02-07T13:16:23Z</time>
      </trkpt>
      <trkpt lat="43.61138" lon="3.73486">
        <ele>153.6</ele>
        <time>2021-02-07T13:16:24Z</time>
      </trkpt>
      <trkpt lat="43.61137" lon="3.73482">
        <ele>153.9</ele>
        <time>2021-02-07T13:16:25Z</time>
      </trkpt>
      <trkpt lat="43.61136" lon="3.73478">
        <ele>154.2</ele>
        <time>2021-02-07T13:16:26Z</time>
      </trkpt>
      <trkpt lat="43.61136" lon="3.73474">
        <ele>154.3</ele>
        <time>2021-02-07T13:16:27Z</time>
      </trkpt>
      <trkpt lat="43.61136" lon="3.73471">
        <ele>154.5</ele>
        <time>2021-02-07T13:16:28Z</time>
      </trkpt>
      <trkpt lat="43.61136" lon="3.73467">
        <ele>154.9</ele>
        <time>2021-02-07T13:16:29Z</time>
      </trkpt>
      <trkpt lat="43.61135" lon="3.73463">
        <ele>152</ele>
        <time>2021-02-07T13:16:30Z</time>
      </trkpt>
      <trkpt lat="43.61135" lon="3.7346">
        <ele>155.7</ele>
        <time>2021-02-07T13:16:31Z</time>
      </trkpt>
      <trkpt lat="43.61135" lon="3.73456">
        <ele>156.1</ele>
        <time>2021-02-07T13:16:32Z</time>
      </trkpt>
      <trkpt lat="43.61136" lon="3.73453">
        <ele>156.1</ele>
        <time>2021-02-07T13:16:33Z</time>
      </trkpt>
      <trkpt lat="43.61137" lon="3.7345">
        <ele>156.1</ele>
        <time>2021-02-07T13:16:34Z</time>
      </trkpt>
      <trkpt lat="43.61138" lon="3.73448">
        <ele>156</ele>
        <time>2021-02-07T13:16:35Z</time>
      </trkpt>
      <trkpt lat="43.61139" lon="3.73445">
        <ele>155.9</ele>
        <time>2021-02-07T13:16:36Z</time>
      </trkpt>
      <trkpt lat="43.6114" lon="3.73443">
        <ele>155.9</ele>
        <time>2021-02-07T13:16:37Z</time>
      </trkpt>
      <trkpt lat="43.61141" lon="3.73441">
        <ele>155.9</ele>
        <time>2021-02-07T13:16:38Z</time>
      </trkpt>
      <trkpt lat="43.61142" lon="3.73437">
        <ele>153</ele>
        <time>2021-02-07T13:16:40Z</time>
      </trkpt>
      <trkpt lat="43.61144" lon="3.73439">
        <ele>155.4</ele>
        <time>2021-02-07T13:16:44Z</time>
      </trkpt>
      <trkpt lat="43.61139" lon="3.73432">
        <ele>156</ele>
        <time>2021-02-07T13:17:47Z</time>
      </trkpt>
      <trkpt lat="43.61137" lon="3.7343">
        <ele>158.6</ele>
        <time>2021-02-07T13:17:51Z</time>
      </trkpt>
      <trkpt lat="43.61136" lon="3.7343">
        <ele>158.8</ele>
        <time>2021-02-07T13:17:53Z</time>
      </trkpt>
      <trkpt lat="43.61133" lon="3.7343">
        <ele>159.6</ele>
        <time>2021-02-07T13:17:55Z</time>
      </trkpt>
      <trkpt lat="43.61132" lon="3.73429">
        <ele>159.9</ele>
        <time>2021-02-07T13:17:57Z</time>
      </trkpt>
      <trkpt lat="43.61129" lon="3.73428">
        <ele>160.8</ele>
        <time>2021-02-07T13:17:59Z</time>
      </trkpt>
      <trkpt lat="43.61126" lon="3.73427">
        <ele>161.6</ele>
        <time>2021-02-07T13:18:01Z</time>
      </trkpt>
      <trkpt lat="43.61124" lon="3.73428">
        <ele>162</ele>
        <time>2021-02-07T13:18:06Z</time>
      </trkpt>
      <trkpt lat="43.61117" lon="3.73429">
        <ele>162</ele>
        <time>2021-02-07T13:18:19Z</time>
      </trkpt>
      <trkpt lat="43.61115" lon="3.73431">
        <ele>164</ele>
        <time>2021-02-07T13:18:20Z</time>
      </trkpt>
      <trkpt lat="43.61112" lon="3.73432">
        <ele>164.7</ele>
        <time>2021-02-07T13:18:22Z</time>
      </trkpt>
      <trkpt lat="43.6111" lon="3.73433">
        <ele>165</ele>
        <time>2021-02-07T13:18:24Z</time>
      </trkpt>
      <trkpt lat="43.61108" lon="3.73435">
        <ele>165.1</ele>
        <time>2021-02-07T13:18:26Z</time>
      </trkpt>
      <trkpt lat="43.61105" lon="3.73438">
        <ele>164</ele>
        <time>2021-02-07T13:18:28Z</time>
      </trkpt>
      <trkpt lat="43.61102" lon="3.73438">
        <ele>165.6</ele>
        <time>2021-02-07T13:18:29Z</time>
      </trkpt>
      <trkpt lat="43.61098" lon="3.73439">
        <ele>166</ele>
        <time>2021-02-07T13:18:30Z</time>
      </trkpt>
      <trkpt lat="43.61097" lon="3.73439">
        <ele>166.1</ele>
        <time>2021-02-07T13:18:31Z</time>
      </trkpt>
      <trkpt lat="43.61093" lon="3.73438">
        <ele>166.7</ele>
        <time>2021-02-07T13:18:34Z</time>
      </trkpt>
      <trkpt lat="43.6109" lon="3.73437">
        <ele>167.2</ele>
        <time>2021-02-07T13:18:36Z</time>
      </trkpt>
      <trkpt lat="43.61087" lon="3.73436">
        <ele>167.7</ele>
        <time>2021-02-07T13:18:38Z</time>
      </trkpt>
      <trkpt lat="43.61084" lon="3.73433">
        <ele>168.6</ele>
        <time>2021-02-07T13:18:40Z</time>
      </trkpt>
      <trkpt lat="43.61082" lon="3.7343">
        <ele>169.2</ele>
        <time>2021-02-07T13:18:42Z</time>
      </trkpt>
      <trkpt lat="43.6108" lon="3.73426">
        <ele>169.9</ele>
        <time>2021-02-07T13:18:44Z</time>
      </trkpt>
      <trkpt lat="43.61077" lon="3.73423">
        <ele>170.4</ele>
        <time>2021-02-07T13:18:46Z</time>
      </trkpt>
      <trkpt lat="43.61075" lon="3.7342">
        <ele>169</ele>
        <time>2021-02-07T13:18:48Z</time>
      </trkpt>
      <trkpt lat="43.61074" lon="3.73418">
        <ele>171.2</ele>
        <time>2021-02-07T13:18:50Z</time>
      </trkpt>
      <trkpt lat="43.61071" lon="3.73416">
        <ele>171.5</ele>
        <time>2021-02-07T13:18:52Z</time>
      </trkpt>
      <trkpt lat="43.61069" lon="3.73414">
        <ele>171.9</ele>
        <time>2021-02-07T13:18:54Z</time>
      </trkpt>
      <trkpt lat="43.61068" lon="3.7341">
        <ele>172.4</ele>
        <time>2021-02-07T13:18:56Z</time>
      </trkpt>
      <trkpt lat="43.61067" lon="3.73407">
        <ele>172</ele>
        <time>2021-02-07T13:18:58Z</time>
      </trkpt>
      <trkpt lat="43.61066" lon="3.73403">
        <ele>173.4</ele>
        <time>2021-02-07T13:19:00Z</time>
      </trkpt>
      <trkpt lat="43.61065" lon="3.73401">
        <ele>173.7</ele>
        <time>2021-02-07T13:19:02Z</time>
      </trkpt>
      <trkpt lat="43.61062" lon="3.73399">
        <ele>174.2</ele>
        <time>2021-02-07T13:19:04Z</time>
      </trkpt>
      <trkpt lat="43.6106" lon="3.73398">
        <ele>174.4</ele>
        <time>2021-02-07T13:19:06Z</time>
      </trkpt>
      <trkpt lat="43.61057" lon="3.73397">
        <ele>174</ele>
        <time>2021-02-07T13:19:08Z</time>
      </trkpt>
      <trkpt lat="43.61054" lon="3.73395">
        <ele>175.2</ele>
        <time>2021-02-07T13:19:10Z</time>
      </trkpt>
      <trkpt lat="43.61052" lon="3.73394">
        <ele>175.4</ele>
        <time>2021-02-07T13:19:12Z</time>
      </trkpt>
      <trkpt lat="43.6105" lon="3.73392">
        <ele>175.7</ele>
        <time>2021-02-07T13:19:14Z</time>
      </trkpt>
      <trkpt lat="43.61047" lon="3.7339">
        <ele>176.1</ele>
        <time>2021-02-07T13:19:16Z</time>
      </trkpt>
      <trkpt lat="43.61046" lon="3.73388">
        <ele>176</ele>
        <time>2021-02-07T13:19:18Z</time>
      </trkpt>
      <trkpt lat="43.61044" lon="3.73385">
        <ele>177</ele>
        <time>2021-02-07T13:19:20Z</time>
      </trkpt>
      <trkpt lat="43.61042" lon="3.73383">
        <ele>177.3</ele>
        <time>2021-02-07T13:19:22Z</time>
      </trkpt>
      <trkpt lat="43.61041" lon="3.7338">
        <ele>177.8</ele>
        <time>2021-02-07T13:19:24Z</time>
      </trkpt>
      <trkpt lat="43.6104" lon="3.73379">
        <ele>178</ele>
        <time>2021-02-07T13:19:26Z</time>
      </trkpt>
      <trkpt lat="43.61038" lon="3.73377">
        <ele>178</ele>
        <time>2021-02-07T13:19:28Z</time>
      </trkpt>
      <trkpt lat="43.61036" lon="3.73375">
        <ele>178.7</ele>
        <time>2021-02-07T13:19:30Z</time>
      </trkpt>
      <trkpt lat="43.61033" lon="3.73374">
        <ele>179</ele>
        <time>2021-02-07T13:19:32Z</time>
      </trkpt>
      <trkpt lat="43.61031" lon="3.73372">
        <ele>179.3</ele>
        <time>2021-02-07T13:19:34Z</time>
      </trkpt>
      <trkpt lat="43.61028" lon="3.73369">
        <ele>179.9</ele>
        <time>2021-02-07T13:19:36Z</time>
      </trkpt>
      <trkpt lat="43.61027" lon="3.73366">
        <ele>179</ele>
        <time>2021-02-07T13:19:38Z</time>
      </trkpt>
      <trkpt lat="43.61025" lon="3.73363">
        <ele>180.5</ele>
        <time>2021-02-07T13:19:40Z</time>
      </trkpt>
      <trkpt lat="43.61024" lon="3.7336">
        <ele>180.8</ele>
        <time>2021-02-07T13:19:42Z</time>
      </trkpt>
      <trkpt lat="43.61022" lon="3.73357">
        <ele>181</ele>
        <time>2021-02-07T13:19:44Z</time>
      </trkpt>
      <trkpt lat="43.6102" lon="3.73354">
        <ele>181.2</ele>
        <time>2021-02-07T13:19:46Z</time>
      </trkpt>
      <trkpt lat="43.61018" lon="3.73352">
        <ele>181</ele>
        <time>2021-02-07T13:19:48Z</time>
      </trkpt>
      <trkpt lat="43.61017" lon="3.73349">
        <ele>181.5</ele>
        <time>2021-02-07T13:19:50Z</time>
      </trkpt>
      <trkpt lat="43.61015" lon="3.73346">
        <ele>181.7</ele>
        <time>2021-02-07T13:19:52Z</time>
      </trkpt>
      <trkpt lat="43.61014" lon="3.73343">
        <ele>182</ele>
        <time>2021-02-07T13:19:54Z</time>
      </trkpt>
      <trkpt lat="43.61013" lon="3.7334">
        <ele>182.2</ele>
        <time>2021-02-07T13:19:56Z</time>
      </trkpt>
      <trkpt lat="43.61012" lon="3.73336">
        <ele>183</ele>
        <time>2021-02-07T13:19:58Z</time>
      </trkpt>
      <trkpt lat="43.61011" lon="3.73332">
        <ele>182.9</ele>
        <time>2021-02-07T13:20:00Z</time>
      </trkpt>
      <trkpt lat="43.6101" lon="3.73328">
        <ele>183</ele>
        <time>2021-02-07T13:20:02Z</time>
      </trkpt>
      <trkpt lat="43.6101" lon="3.73325">
        <ele>183.2</ele>
        <time>2021-02-07T13:20:04Z</time>
      </trkpt>
      <trkpt lat="43.61009" lon="3.73321">
        <ele>183.4</ele>
        <time>2021-02-07T13:20:06Z</time>
      </trkpt>
      <trkpt lat="43.6101" lon="3.73318">
        <ele>184</ele>
        <time>2021-02-07T13:20:08Z</time>
      </trkpt>
      <trkpt lat="43.61009" lon="3.73315">
        <ele>183.8</ele>
        <time>2021-02-07T13:20:10Z</time>
      </trkpt>
      <trkpt lat="43.61008" lon="3.73312">
        <ele>183.9</ele>
        <time>2021-02-07T13:20:12Z</time>
      </trkpt>
      <trkpt lat="43.61006" lon="3.73308">
        <ele>184.1</ele>
        <time>2021-02-07T13:20:14Z</time>
      </trkpt>
      <trkpt lat="43.61006" lon="3.73304">
        <ele>184.2</ele>
        <time>2021-02-07T13:20:16Z</time>
      </trkpt>
      <trkpt lat="43.61005" lon="3.73302">
        <ele>184</ele>
        <time>2021-02-07T13:20:18Z</time>
      </trkpt>
      <trkpt lat="43.61003" lon="3.73297">
        <ele>184.1</ele>
        <time>2021-02-07T13:20:20Z</time>
      </trkpt>
      <trkpt lat="43.61002" lon="3.73295">
        <ele>184.1</ele>
        <time>2021-02-07T13:20:21Z</time>
      </trkpt>
      <trkpt lat="43.61001" lon="3.73293">
        <ele>184</ele>
        <time>2021-02-07T13:20:22Z</time>
      </trkpt>
      <trkpt lat="43.61001" lon="3.73288">
        <ele>184</ele>
        <time>2021-02-07T13:20:24Z</time>
      </trkpt>
      <trkpt lat="43.61001" lon="3.73285">
        <ele>184</ele>
        <time>2021-02-07T13:20:25Z</time>
      </trkpt>
      <trkpt lat="43.61001" lon="3.73282">
        <ele>184</ele>
        <time>2021-02-07T13:20:26Z</time>
      </trkpt>
      <trkpt lat="43.61001" lon="3.7328">
        <ele>184</ele>
        <time>2021-02-07T13:20:27Z</time>
      </trkpt>
      <trkpt lat="43.61001" lon="3.73277">
        <ele>184</ele>
        <time>2021-02-07T13:20:28Z</time>
      </trkpt>
      <trkpt lat="43.61001" lon="3.73274">
        <ele>184.2</ele>
        <time>2021-02-07T13:20:29Z</time>
      </trkpt>
      <trkpt lat="43.61002" lon="3.73271">
        <ele>184.3</ele>
        <time>2021-02-07T13:20:30Z</time>
      </trkpt>
      <trkpt lat="43.61003" lon="3.73267">
        <ele>184.5</ele>
        <time>2021-02-07T13:20:32Z</time>
      </trkpt>
      <trkpt lat="43.61006" lon="3.73258">
        <ele>186</ele>
        <time>2021-02-07T13:21:17Z</time>
      </trkpt>
      <trkpt lat="43.61007" lon="3.73254">
        <ele>185.1</ele>
        <time>2021-02-07T13:21:18Z</time>
      </trkpt>
      <trkpt lat="43.61007" lon="3.73251">
        <ele>185.2</ele>
        <time>2021-02-07T13:21:21Z</time>
      </trkpt>
      <trkpt lat="43.61006" lon="3.73248">
        <ele>185.2</ele>
        <time>2021-02-07T13:21:23Z</time>
      </trkpt>
      <trkpt lat="43.61006" lon="3.73246">
        <ele>185.2</ele>
        <time>2021-02-07T13:21:25Z</time>
      </trkpt>
      <trkpt lat="43.61004" lon="3.73242">
        <ele>185.1</ele>
        <time>2021-02-07T13:21:27Z</time>
      </trkpt>
      <trkpt lat="43.61003" lon="3.73239">
        <ele>185.1</ele>
        <time>2021-02-07T13:21:28Z</time>
      </trkpt>
      <trkpt lat="43.61003" lon="3.73236">
        <ele>185.1</ele>
        <time>2021-02-07T13:21:29Z</time>
      </trkpt>
      <trkpt lat="43.61002" lon="3.73233">
        <ele>185.1</ele>
        <time>2021-02-07T13:21:30Z</time>
      </trkpt>
      <trkpt lat="43.61002" lon="3.73229">
        <ele>185.1</ele>
        <time>2021-02-07T13:21:31Z</time>
      </trkpt>
      <trkpt lat="43.61002" lon="3.73226">
        <ele>185.1</ele>
        <time>2021-02-07T13:21:32Z</time>
      </trkpt>
      <trkpt lat="43.61002" lon="3.73222">
        <ele>185.1</ele>
        <time>2021-02-07T13:21:33Z</time>
      </trkpt>
      <trkpt lat="43.61002" lon="3.73219">
        <ele>185.1</ele>
        <time>2021-02-07T13:21:34Z</time>
      </trkpt>
      <trkpt lat="43.61002" lon="3.73215">
        <ele>185.1</ele>
        <time>2021-02-07T13:21:35Z</time>
      </trkpt>
      <trkpt lat="43.61002" lon="3.73211">
        <ele>186</ele>
        <time>2021-02-07T13:21:36Z</time>
      </trkpt>
      <trkpt lat="43.61002" lon="3.73207">
        <ele>185.2</ele>
        <time>2021-02-07T13:21:37Z</time>
      </trkpt>
      <trkpt lat="43.61002" lon="3.73203">
        <ele>185.2</ele>
        <time>2021-02-07T13:21:38Z</time>
      </trkpt>
      <trkpt lat="43.61001" lon="3.73198">
        <ele>185.1</ele>
        <time>2021-02-07T13:21:39Z</time>
      </trkpt>
      <trkpt lat="43.61" lon="3.73194">
        <ele>185</ele>
        <time>2021-02-07T13:21:40Z</time>
      </trkpt>
      <trkpt lat="43.60999" lon="3.7319">
        <ele>184.8</ele>
        <time>2021-02-07T13:21:41Z</time>
      </trkpt>
      <trkpt lat="43.60998" lon="3.73186">
        <ele>184.6</ele>
        <time>2021-02-07T13:21:42Z</time>
      </trkpt>
      <trkpt lat="43.60997" lon="3.73182">
        <ele>184.4</ele>
        <time>2021-02-07T13:21:43Z</time>
      </trkpt>
      <trkpt lat="43.60995" lon="3.73178">
        <ele>183.9</ele>
        <time>2021-02-07T13:21:44Z</time>
      </trkpt>
      <trkpt lat="43.60994" lon="3.73174">
        <ele>183.7</ele>
        <time>2021-02-07T13:21:45Z</time>
      </trkpt>
      <trkpt lat="43.60992" lon="3.73169">
        <ele>185</ele>
        <time>2021-02-07T13:21:46Z</time>
      </trkpt>
      <trkpt lat="43.60991" lon="3.73165">
        <ele>183.3</ele>
        <time>2021-02-07T13:21:47Z</time>
      </trkpt>
      <trkpt lat="43.60989" lon="3.73161">
        <ele>183.2</ele>
        <time>2021-02-07T13:21:48Z</time>
      </trkpt>
      <trkpt lat="43.60987" lon="3.73157">
        <ele>183.1</ele>
        <time>2021-02-07T13:21:49Z</time>
      </trkpt>
      <trkpt lat="43.60985" lon="3.73153">
        <ele>183.2</ele>
        <time>2021-02-07T13:21:50Z</time>
      </trkpt>
      <trkpt lat="43.60983" lon="3.73149">
        <ele>183.3</ele>
        <time>2021-02-07T13:21:51Z</time>
      </trkpt>
      <trkpt lat="43.60981" lon="3.73145">
        <ele>183.5</ele>
        <time>2021-02-07T13:21:52Z</time>
      </trkpt>
      <trkpt lat="43.60979" lon="3.73142">
        <ele>183.7</ele>
        <time>2021-02-07T13:21:53Z</time>
      </trkpt>
      <trkpt lat="43.60976" lon="3.73138">
        <ele>183.8</ele>
        <time>2021-02-07T13:21:54Z</time>
      </trkpt>
      <trkpt lat="43.60975" lon="3.73136">
        <ele>183.9</ele>
        <time>2021-02-07T13:21:55Z</time>
      </trkpt>
      <trkpt lat="43.60973" lon="3.73132">
        <ele>186</ele>
        <time>2021-02-07T13:21:56Z</time>
      </trkpt>
      <trkpt lat="43.60971" lon="3.73129">
        <ele>184.1</ele>
        <time>2021-02-07T13:21:57Z</time>
      </trkpt>
      <trkpt lat="43.60969" lon="3.73125">
        <ele>184.2</ele>
        <time>2021-02-07T13:21:58Z</time>
      </trkpt>
      <trkpt lat="43.60967" lon="3.73121">
        <ele>184.3</ele>
        <time>2021-02-07T13:21:59Z</time>
      </trkpt>
      <trkpt lat="43.60964" lon="3.73117">
        <ele>184.1</ele>
        <time>2021-02-07T13:22:00Z</time>
      </trkpt>
      <trkpt lat="43.60962" lon="3.73113">
        <ele>184.2</ele>
        <time>2021-02-07T13:22:01Z</time>
      </trkpt>
      <trkpt lat="43.60959" lon="3.73109">
        <ele>184</ele>
        <time>2021-02-07T13:22:02Z</time>
      </trkpt>
      <trkpt lat="43.60957" lon="3.73105">
        <ele>184.2</ele>
        <time>2021-02-07T13:22:03Z</time>
      </trkpt>
      <trkpt lat="43.60955" lon="3.73101">
        <ele>184.4</ele>
        <time>2021-02-07T13:22:04Z</time>
      </trkpt>
      <trkpt lat="43.60952" lon="3.73097">
        <ele>184.5</ele>
        <time>2021-02-07T13:22:05Z</time>
      </trkpt>
      <trkpt lat="43.60951" lon="3.73093">
        <ele>188</ele>
        <time>2021-02-07T13:22:06Z</time>
      </trkpt>
      <trkpt lat="43.60949" lon="3.73089">
        <ele>185.5</ele>
        <time>2021-02-07T13:22:07Z</time>
      </trkpt>
      <trkpt lat="43.60948" lon="3.73085">
        <ele>186.2</ele>
        <time>2021-02-07T13:22:08Z</time>
      </trkpt>
      <trkpt lat="43.60947" lon="3.73082">
        <ele>186.5</ele>
        <time>2021-02-07T13:22:09Z</time>
      </trkpt>
      <trkpt lat="43.60945" lon="3.73078">
        <ele>186.7</ele>
        <time>2021-02-07T13:22:10Z</time>
      </trkpt>
      <trkpt lat="43.60943" lon="3.73075">
        <ele>186.5</ele>
        <time>2021-02-07T13:22:11Z</time>
      </trkpt>
      <trkpt lat="43.60941" lon="3.73072">
        <ele>186.2</ele>
        <time>2021-02-07T13:22:12Z</time>
      </trkpt>
      <trkpt lat="43.6094" lon="3.73069">
        <ele>186.2</ele>
        <time>2021-02-07T13:22:13Z</time>
      </trkpt>
      <trkpt lat="43.60939" lon="3.73066">
        <ele>186.2</ele>
        <time>2021-02-07T13:22:14Z</time>
      </trkpt>
      <trkpt lat="43.60938" lon="3.73063">
        <ele>186.2</ele>
        <time>2021-02-07T13:22:15Z</time>
      </trkpt>
      <trkpt lat="43.60937" lon="3.73059">
        <ele>190</ele>
        <time>2021-02-07T13:22:16Z</time>
      </trkpt>
      <trkpt lat="43.60937" lon="3.73056">
        <ele>186.5</ele>
        <time>2021-02-07T13:22:17Z</time>
      </trkpt>
      <trkpt lat="43.60936" lon="3.73053">
        <ele>186.3</ele>
        <time>2021-02-07T13:22:18Z</time>
      </trkpt>
      <trkpt lat="43.60936" lon="3.7305">
        <ele>186.3</ele>
        <time>2021-02-07T13:22:19Z</time>
      </trkpt>
      <trkpt lat="43.60936" lon="3.73046">
        <ele>186.4</ele>
        <time>2021-02-07T13:22:20Z</time>
      </trkpt>
      <trkpt lat="43.60936" lon="3.73043">
        <ele>186.4</ele>
        <time>2021-02-07T13:22:21Z</time>
      </trkpt>
      <trkpt lat="43.60936" lon="3.7304">
        <ele>186.4</ele>
        <time>2021-02-07T13:22:22Z</time>
      </trkpt>
      <trkpt lat="43.60936" lon="3.73036">
        <ele>186.5</ele>
        <time>2021-02-07T13:22:23Z</time>
      </trkpt>
      <trkpt lat="43.60935" lon="3.73033">
        <ele>186.2</ele>
        <time>2021-02-07T13:22:24Z</time>
      </trkpt>
      <trkpt lat="43.60934" lon="3.7303">
        <ele>186</ele>
        <time>2021-02-07T13:22:25Z</time>
      </trkpt>
      <trkpt lat="43.60932" lon="3.73026">
        <ele>190</ele>
        <time>2021-02-07T13:22:26Z</time>
      </trkpt>
      <trkpt lat="43.60931" lon="3.73021">
        <ele>185.2</ele>
        <time>2021-02-07T13:22:27Z</time>
      </trkpt>
      <trkpt lat="43.60931" lon="3.73016">
        <ele>185.3</ele>
        <time>2021-02-07T13:22:28Z</time>
      </trkpt>
      <trkpt lat="43.60933" lon="3.73012">
        <ele>185.9</ele>
        <time>2021-02-07T13:22:29Z</time>
      </trkpt>
      <trkpt lat="43.60935" lon="3.73007">
        <ele>186.5</ele>
        <time>2021-02-07T13:22:30Z</time>
      </trkpt>
      <trkpt lat="43.60936" lon="3.73003">
        <ele>186.8</ele>
        <time>2021-02-07T13:22:31Z</time>
      </trkpt>
      <trkpt lat="43.60937" lon="3.72998">
        <ele>187</ele>
        <time>2021-02-07T13:22:32Z</time>
      </trkpt>
      <trkpt lat="43.60939" lon="3.72994">
        <ele>187.2</ele>
        <time>2021-02-07T13:22:33Z</time>
      </trkpt>
      <trkpt lat="43.6094" lon="3.7299">
        <ele>187.2</ele>
        <time>2021-02-07T13:22:34Z</time>
      </trkpt>
      <trkpt lat="43.60941" lon="3.72987">
        <ele>187.3</ele>
        <time>2021-02-07T13:22:35Z</time>
      </trkpt>
      <trkpt lat="43.60943" lon="3.72984">
        <ele>190</ele>
        <time>2021-02-07T13:22:36Z</time>
      </trkpt>
      <trkpt lat="43.60944" lon="3.72981">
        <ele>187.5</ele>
        <time>2021-02-07T13:22:37Z</time>
      </trkpt>
      <trkpt lat="43.60944" lon="3.72979">
        <ele>187.4</ele>
        <time>2021-02-07T13:22:38Z</time>
      </trkpt>
      <trkpt lat="43.60945" lon="3.72975">
        <ele>187.3</ele>
        <time>2021-02-07T13:22:40Z</time>
      </trkpt>
      <trkpt lat="43.60945" lon="3.72973">
        <ele>187.1</ele>
        <time>2021-02-07T13:22:42Z</time>
      </trkpt>
      <trkpt lat="43.60945" lon="3.72968">
        <ele>186.5</ele>
        <time>2021-02-07T13:22:44Z</time>
      </trkpt>
      <trkpt lat="43.60945" lon="3.72963">
        <ele>189</ele>
        <time>2021-02-07T13:22:46Z</time>
      </trkpt>
      <trkpt lat="43.60943" lon="3.72961">
        <ele>185.1</ele>
        <time>2021-02-07T13:22:47Z</time>
      </trkpt>
      <trkpt lat="43.60942" lon="3.72958">
        <ele>184.4</ele>
        <time>2021-02-07T13:22:48Z</time>
      </trkpt>
      <trkpt lat="43.6094" lon="3.72956">
        <ele>183.7</ele>
        <time>2021-02-07T13:22:49Z</time>
      </trkpt>
      <trkpt lat="43.60938" lon="3.72955">
        <ele>183.1</ele>
        <time>2021-02-07T13:22:50Z</time>
      </trkpt>
      <trkpt lat="43.60935" lon="3.72953">
        <ele>182.2</ele>
        <time>2021-02-07T13:22:51Z</time>
      </trkpt>
      <trkpt lat="43.60932" lon="3.7295">
        <ele>181.1</ele>
        <time>2021-02-07T13:22:52Z</time>
      </trkpt>
      <trkpt lat="43.60929" lon="3.72946">
        <ele>179.9</ele>
        <time>2021-02-07T13:22:53Z</time>
      </trkpt>
      <trkpt lat="43.60926" lon="3.72944">
        <ele>178.9</ele>
        <time>2021-02-07T13:22:54Z</time>
      </trkpt>
      <trkpt lat="43.60923" lon="3.72941">
        <ele>177.8</ele>
        <time>2021-02-07T13:22:55Z</time>
      </trkpt>
      <trkpt lat="43.60921" lon="3.72938">
        <ele>187</ele>
        <time>2021-02-07T13:22:56Z</time>
      </trkpt>
      <trkpt lat="43.60919" lon="3.72935">
        <ele>176.1</ele>
        <time>2021-02-07T13:22:57Z</time>
      </trkpt>
      <trkpt lat="43.60916" lon="3.7293">
        <ele>174.8</ele>
        <time>2021-02-07T13:22:58Z</time>
      </trkpt>
      <trkpt lat="43.60915" lon="3.72926">
        <ele>174.1</ele>
        <time>2021-02-07T13:22:59Z</time>
      </trkpt>
      <trkpt lat="43.60913" lon="3.72922">
        <ele>173.2</ele>
        <time>2021-02-07T13:23:00Z</time>
      </trkpt>
      <trkpt lat="43.60912" lon="3.72918">
        <ele>172.5</ele>
        <time>2021-02-07T13:23:01Z</time>
      </trkpt>
      <trkpt lat="43.60911" lon="3.72913">
        <ele>171.7</ele>
        <time>2021-02-07T13:23:02Z</time>
      </trkpt>
      <trkpt lat="43.60909" lon="3.72909">
        <ele>170.9</ele>
        <time>2021-02-07T13:23:03Z</time>
      </trkpt>
      <trkpt lat="43.60907" lon="3.72905">
        <ele>170.1</ele>
        <time>2021-02-07T13:23:04Z</time>
      </trkpt>
      <trkpt lat="43.60904" lon="3.72901">
        <ele>169.2</ele>
        <time>2021-02-07T13:23:05Z</time>
      </trkpt>
      <trkpt lat="43.60902" lon="3.72897">
        <ele>184</ele>
        <time>2021-02-07T13:23:06Z</time>
      </trkpt>
      <trkpt lat="43.60899" lon="3.72894">
        <ele>167.7</ele>
        <time>2021-02-07T13:23:07Z</time>
      </trkpt>
      <trkpt lat="43.60896" lon="3.72892">
        <ele>167.1</ele>
        <time>2021-02-07T13:23:08Z</time>
      </trkpt>
      <trkpt lat="43.60892" lon="3.72892">
        <ele>166.7</ele>
        <time>2021-02-07T13:23:09Z</time>
      </trkpt>
      <trkpt lat="43.6089" lon="3.7289">
        <ele>166.2</ele>
        <time>2021-02-07T13:23:10Z</time>
      </trkpt>
      <trkpt lat="43.60889" lon="3.72886">
        <ele>165.5</ele>
        <time>2021-02-07T13:23:11Z</time>
      </trkpt>
      <trkpt lat="43.60887" lon="3.72883">
        <ele>164.6</ele>
        <time>2021-02-07T13:23:12Z</time>
      </trkpt>
      <trkpt lat="43.60887" lon="3.72878">
        <ele>163.7</ele>
        <time>2021-02-07T13:23:13Z</time>
      </trkpt>
      <trkpt lat="43.60886" lon="3.72874">
        <ele>162.9</ele>
        <time>2021-02-07T13:23:14Z</time>
      </trkpt>
      <trkpt lat="43.60886" lon="3.72868">
        <ele>161.9</ele>
        <time>2021-02-07T13:23:15Z</time>
      </trkpt>
      <trkpt lat="43.60886" lon="3.72862">
        <ele>179</ele>
        <time>2021-02-07T13:23:16Z</time>
      </trkpt>
      <trkpt lat="43.60886" lon="3.72857">
        <ele>160.5</ele>
        <time>2021-02-07T13:23:17Z</time>
      </trkpt>
      <trkpt lat="43.60887" lon="3.7285">
        <ele>160.1</ele>
        <time>2021-02-07T13:23:18Z</time>
      </trkpt>
      <trkpt lat="43.60886" lon="3.72844">
        <ele>159.6</ele>
        <time>2021-02-07T13:23:19Z</time>
      </trkpt>
      <trkpt lat="43.60886" lon="3.72838">
        <ele>159.1</ele>
        <time>2021-02-07T13:23:20Z</time>
      </trkpt>
      <trkpt lat="43.60885" lon="3.72832">
        <ele>158.5</ele>
        <time>2021-02-07T13:23:21Z</time>
      </trkpt>
      <trkpt lat="43.60884" lon="3.72828">
        <ele>158</ele>
        <time>2021-02-07T13:23:22Z</time>
      </trkpt>
      <trkpt lat="43.60884" lon="3.72824">
        <ele>157.5</ele>
        <time>2021-02-07T13:23:23Z</time>
      </trkpt>
      <trkpt lat="43.60885" lon="3.7282">
        <ele>157</ele>
        <time>2021-02-07T13:23:25Z</time>
      </trkpt>
      <trkpt lat="43.60884" lon="3.72817">
        <ele>156.6</ele>
        <time>2021-02-07T13:23:27Z</time>
      </trkpt>
      <trkpt lat="43.60884" lon="3.72814">
        <ele>156.2</ele>
        <time>2021-02-07T13:23:30Z</time>
      </trkpt>
      <trkpt lat="43.60886" lon="3.72812">
        <ele>156</ele>
        <time>2021-02-07T13:23:32Z</time>
      </trkpt>
      <trkpt lat="43.60886" lon="3.72809">
        <ele>155.6</ele>
        <time>2021-02-07T13:23:34Z</time>
      </trkpt>
      <trkpt lat="43.60883" lon="3.7281">
        <ele>171</ele>
        <time>2021-02-07T13:23:36Z</time>
      </trkpt>
      <trkpt lat="43.60881" lon="3.7281">
        <ele>155.8</ele>
        <time>2021-02-07T13:23:38Z</time>
      </trkpt>
      <trkpt lat="43.60877" lon="3.72806">
        <ele>155.5</ele>
        <time>2021-02-07T13:23:40Z</time>
      </trkpt>
      <trkpt lat="43.60875" lon="3.72802">
        <ele>155.2</ele>
        <time>2021-02-07T13:23:41Z</time>
      </trkpt>
      <trkpt lat="43.60873" lon="3.72797">
        <ele>155</ele>
        <time>2021-02-07T13:23:42Z</time>
      </trkpt>
      <trkpt lat="43.60871" lon="3.72791">
        <ele>154.6</ele>
        <time>2021-02-07T13:23:43Z</time>
      </trkpt>
      <trkpt lat="43.60869" lon="3.72786">
        <ele>154.3</ele>
        <time>2021-02-07T13:23:44Z</time>
      </trkpt>
      <trkpt lat="43.60868" lon="3.72781">
        <ele>154</ele>
        <time>2021-02-07T13:23:45Z</time>
      </trkpt>
      <trkpt lat="43.60867" lon="3.72777">
        <ele>167</ele>
        <time>2021-02-07T13:23:46Z</time>
      </trkpt>
      <trkpt lat="43.60866" lon="3.72774">
        <ele>153.6</ele>
        <time>2021-02-07T13:23:47Z</time>
      </trkpt>
      <trkpt lat="43.60863" lon="3.72774">
        <ele>153.7</ele>
        <time>2021-02-07T13:23:48Z</time>
      </trkpt>
      <trkpt lat="43.60861" lon="3.72773">
        <ele>153.7</ele>
        <time>2021-02-07T13:23:49Z</time>
      </trkpt>
      <trkpt lat="43.60858" lon="3.72773">
        <ele>153.8</ele>
        <time>2021-02-07T13:23:50Z</time>
      </trkpt>
      <trkpt lat="43.60855" lon="3.72774">
        <ele>154</ele>
        <time>2021-02-07T13:23:51Z</time>
      </trkpt>
      <trkpt lat="43.60853" lon="3.72774">
        <ele>154.1</ele>
        <time>2021-02-07T13:23:52Z</time>
      </trkpt>
      <trkpt lat="43.60851" lon="3.72775">
        <ele>154.2</ele>
        <time>2021-02-07T13:23:53Z</time>
      </trkpt>
      <trkpt lat="43.60849" lon="3.72776">
        <ele>154.3</ele>
        <time>2021-02-07T13:23:54Z</time>
      </trkpt>
      <trkpt lat="43.60846" lon="3.72777">
        <ele>154.5</ele>
        <time>2021-02-07T13:23:55Z</time>
      </trkpt>
      <trkpt lat="43.60844" lon="3.72778">
        <ele>162</ele>
        <time>2021-02-07T13:23:56Z</time>
      </trkpt>
      <trkpt lat="43.60842" lon="3.72777">
        <ele>154.7</ele>
        <time>2021-02-07T13:23:57Z</time>
      </trkpt>
      <trkpt lat="43.60839" lon="3.72776">
        <ele>154.7</ele>
        <time>2021-02-07T13:23:59Z</time>
      </trkpt>
      <trkpt lat="43.6084" lon="3.72778">
        <ele>160</ele>
        <time>2021-02-07T13:24:07Z</time>
      </trkpt>
      <trkpt lat="43.6084" lon="3.72793">
        <ele>157</ele>
        <time>2021-02-07T13:24:29Z</time>
      </trkpt>
      <trkpt lat="43.60839" lon="3.72803">
        <ele>155.2</ele>
        <time>2021-02-07T13:24:30Z</time>
      </trkpt>
      <trkpt lat="43.60838" lon="3.72807">
        <ele>155.2</ele>
        <time>2021-02-07T13:24:31Z</time>
      </trkpt>
      <trkpt lat="43.60837" lon="3.72812">
        <ele>155.2</ele>
        <time>2021-02-07T13:24:32Z</time>
      </trkpt>
      <trkpt lat="43.60836" lon="3.72816">
        <ele>155.1</ele>
        <time>2021-02-07T13:24:33Z</time>
      </trkpt>
      <trkpt lat="43.60834" lon="3.72821">
        <ele>155</ele>
        <time>2021-02-07T13:24:34Z</time>
      </trkpt>
      <trkpt lat="43.60833" lon="3.72825">
        <ele>155</ele>
        <time>2021-02-07T13:24:35Z</time>
      </trkpt>
      <trkpt lat="43.60832" lon="3.7283">
        <ele>154.9</ele>
        <time>2021-02-07T13:24:36Z</time>
      </trkpt>
      <trkpt lat="43.60832" lon="3.72835">
        <ele>155</ele>
        <time>2021-02-07T13:24:37Z</time>
      </trkpt>
      <trkpt lat="43.60831" lon="3.72841">
        <ele>155.2</ele>
        <time>2021-02-07T13:24:38Z</time>
      </trkpt>
      <trkpt lat="43.6083" lon="3.72848">
        <ele>157</ele>
        <time>2021-02-07T13:24:39Z</time>
      </trkpt>
      <trkpt lat="43.60829" lon="3.72854">
        <ele>155.7</ele>
        <time>2021-02-07T13:24:40Z</time>
      </trkpt>
      <trkpt lat="43.60828" lon="3.7286">
        <ele>155.8</ele>
        <time>2021-02-07T13:24:41Z</time>
      </trkpt>
      <trkpt lat="43.60826" lon="3.72866">
        <ele>155.4</ele>
        <time>2021-02-07T13:24:42Z</time>
      </trkpt>
      <trkpt lat="43.60825" lon="3.72872">
        <ele>155.1</ele>
        <time>2021-02-07T13:24:43Z</time>
      </trkpt>
      <trkpt lat="43.60824" lon="3.72878">
        <ele>154.8</ele>
        <time>2021-02-07T13:24:44Z</time>
      </trkpt>
      <trkpt lat="43.60824" lon="3.72885">
        <ele>154.7</ele>
        <time>2021-02-07T13:24:45Z</time>
      </trkpt>
      <trkpt lat="43.60825" lon="3.72891">
        <ele>155</ele>
        <time>2021-02-07T13:24:46Z</time>
      </trkpt>
      <trkpt lat="43.60825" lon="3.72896">
        <ele>155.1</ele>
        <time>2021-02-07T13:24:47Z</time>
      </trkpt>
      <trkpt lat="43.60826" lon="3.72899">
        <ele>155.4</ele>
        <time>2021-02-07T13:24:48Z</time>
      </trkpt>
      <trkpt lat="43.60826" lon="3.72902">
        <ele>156</ele>
        <time>2021-02-07T13:24:49Z</time>
      </trkpt>
      <trkpt lat="43.60826" lon="3.72905">
        <ele>155.6</ele>
        <time>2021-02-07T13:24:50Z</time>
      </trkpt>
      <trkpt lat="43.60826" lon="3.72908">
        <ele>155.7</ele>
        <time>2021-02-07T13:24:51Z</time>
      </trkpt>
      <trkpt lat="43.60825" lon="3.72912">
        <ele>155.5</ele>
        <time>2021-02-07T13:24:54Z</time>
      </trkpt>
      <trkpt lat="43.60826" lon="3.72915">
        <ele>155.8</ele>
        <time>2021-02-07T13:24:56Z</time>
      </trkpt>
      <trkpt lat="43.60825" lon="3.72921">
        <ele>157</ele>
        <time>2021-02-07T13:24:58Z</time>
      </trkpt>
      <trkpt lat="43.60825" lon="3.72925">
        <ele>155.5</ele>
        <time>2021-02-07T13:24:59Z</time>
      </trkpt>
      <trkpt lat="43.60826" lon="3.7293">
        <ele>155.8</ele>
        <time>2021-02-07T13:25:00Z</time>
      </trkpt>
      <trkpt lat="43.60827" lon="3.72936">
        <ele>156</ele>
        <time>2021-02-07T13:25:01Z</time>
      </trkpt>
      <trkpt lat="43.60827" lon="3.72942">
        <ele>156</ele>
        <time>2021-02-07T13:25:02Z</time>
      </trkpt>
      <trkpt lat="43.60828" lon="3.72948">
        <ele>156.2</ele>
        <time>2021-02-07T13:25:03Z</time>
      </trkpt>
      <trkpt lat="43.60829" lon="3.72954">
        <ele>156.3</ele>
        <time>2021-02-07T13:25:04Z</time>
      </trkpt>
      <trkpt lat="43.60829" lon="3.7296">
        <ele>156.1</ele>
        <time>2021-02-07T13:25:05Z</time>
      </trkpt>
      <trkpt lat="43.60829" lon="3.72966">
        <ele>155.9</ele>
        <time>2021-02-07T13:25:06Z</time>
      </trkpt>
      <trkpt lat="43.6083" lon="3.72971">
        <ele>156.1</ele>
        <time>2021-02-07T13:25:07Z</time>
      </trkpt>
      <trkpt lat="43.6083" lon="3.72976">
        <ele>155.9</ele>
        <time>2021-02-07T13:25:08Z</time>
      </trkpt>
      <trkpt lat="43.60831" lon="3.7298">
        <ele>157</ele>
        <time>2021-02-07T13:25:09Z</time>
      </trkpt>
      <trkpt lat="43.60831" lon="3.72984">
        <ele>155.9</ele>
        <time>2021-02-07T13:25:10Z</time>
      </trkpt>
      <trkpt lat="43.60831" lon="3.72988">
        <ele>155.8</ele>
        <time>2021-02-07T13:25:11Z</time>
      </trkpt>
      <trkpt lat="43.60831" lon="3.72991">
        <ele>155.7</ele>
        <time>2021-02-07T13:25:12Z</time>
      </trkpt>
      <trkpt lat="43.60831" lon="3.72995">
        <ele>155.6</ele>
        <time>2021-02-07T13:25:13Z</time>
      </trkpt>
      <trkpt lat="43.60832" lon="3.72998">
        <ele>155.7</ele>
        <time>2021-02-07T13:25:14Z</time>
      </trkpt>
      <trkpt lat="43.60832" lon="3.73001">
        <ele>155.7</ele>
        <time>2021-02-07T13:25:15Z</time>
      </trkpt>
      <trkpt lat="43.6083" lon="3.72988">
        <ele>159</ele>
        <time>2021-02-07T13:26:27Z</time>
      </trkpt>
      <trkpt lat="43.6083" lon="3.72983">
        <ele>155.7</ele>
        <time>2021-02-07T13:26:28Z</time>
      </trkpt>
      <trkpt lat="43.6083" lon="3.72977">
        <ele>155.9</ele>
        <time>2021-02-07T13:26:29Z</time>
      </trkpt>
      <trkpt lat="43.60829" lon="3.72972">
        <ele>155.8</ele>
        <time>2021-02-07T13:26:30Z</time>
      </trkpt>
      <trkpt lat="43.6083" lon="3.72967">
        <ele>156.2</ele>
        <time>2021-02-07T13:26:31Z</time>
      </trkpt>
      <trkpt lat="43.60829" lon="3.72962">
        <ele>156.1</ele>
        <time>2021-02-07T13:26:32Z</time>
      </trkpt>
      <trkpt lat="43.60829" lon="3.72957">
        <ele>156.2</ele>
        <time>2021-02-07T13:26:33Z</time>
      </trkpt>
      <trkpt lat="43.60828" lon="3.72951">
        <ele>156.1</ele>
        <time>2021-02-07T13:26:34Z</time>
      </trkpt>
      <trkpt lat="43.60828" lon="3.72945">
        <ele>156.3</ele>
        <time>2021-02-07T13:26:35Z</time>
      </trkpt>
      <trkpt lat="43.60827" lon="3.72939">
        <ele>158</ele>
        <time>2021-02-07T13:26:36Z</time>
      </trkpt>
      <trkpt lat="43.60826" lon="3.72932">
        <ele>155.7</ele>
        <time>2021-02-07T13:26:37Z</time>
      </trkpt>
      <trkpt lat="43.60826" lon="3.72926">
        <ele>155.8</ele>
        <time>2021-02-07T13:26:38Z</time>
      </trkpt>
      <trkpt lat="43.60825" lon="3.72921">
        <ele>155.6</ele>
        <time>2021-02-07T13:26:39Z</time>
      </trkpt>
      <trkpt lat="43.60825" lon="3.72918">
        <ele>155.6</ele>
        <time>2021-02-07T13:26:40Z</time>
      </trkpt>
      <trkpt lat="43.60824" lon="3.72916">
        <ele>155.3</ele>
        <time>2021-02-07T13:26:41Z</time>
      </trkpt>
      <trkpt lat="43.60822" lon="3.72914">
        <ele>154.7</ele>
        <time>2021-02-07T13:26:42Z</time>
      </trkpt>
      <trkpt lat="43.6082" lon="3.72912">
        <ele>154.1</ele>
        <time>2021-02-07T13:26:43Z</time>
      </trkpt>
      <trkpt lat="43.60818" lon="3.72912">
        <ele>153.5</ele>
        <time>2021-02-07T13:26:44Z</time>
      </trkpt>
      <trkpt lat="43.60815" lon="3.72912">
        <ele>152.7</ele>
        <time>2021-02-07T13:26:46Z</time>
      </trkpt>
      <trkpt lat="43.60813" lon="3.72913">
        <ele>152.1</ele>
        <time>2021-02-07T13:26:48Z</time>
      </trkpt>
      <trkpt lat="43.60814" lon="3.72916">
        <ele>152.4</ele>
        <time>2021-02-07T13:26:53Z</time>
      </trkpt>
      <trkpt lat="43.60819" lon="3.72912">
        <ele>156</ele>
        <time>2021-02-07T13:27:03Z</time>
      </trkpt>
      <trkpt lat="43.60819" lon="3.72909">
        <ele>153.7</ele>
        <time>2021-02-07T13:27:04Z</time>
      </trkpt>
      <trkpt lat="43.6082" lon="3.72906">
        <ele>154</ele>
        <time>2021-02-07T13:27:05Z</time>
      </trkpt>
      <trkpt lat="43.6082" lon="3.72902">
        <ele>153.9</ele>
        <time>2021-02-07T13:27:06Z</time>
      </trkpt>
      <trkpt lat="43.60821" lon="3.72898">
        <ele>154.1</ele>
        <time>2021-02-07T13:27:07Z</time>
      </trkpt>
      <trkpt lat="43.60821" lon="3.72893">
        <ele>154</ele>
        <time>2021-02-07T13:27:08Z</time>
      </trkpt>
      <trkpt lat="43.60821" lon="3.72888">
        <ele>153.9</ele>
        <time>2021-02-07T13:27:09Z</time>
      </trkpt>
      <trkpt lat="43.60822" lon="3.72884">
        <ele>154.2</ele>
        <time>2021-02-07T13:27:10Z</time>
      </trkpt>
      <trkpt lat="43.60823" lon="3.72879">
        <ele>154.5</ele>
        <time>2021-02-07T13:27:11Z</time>
      </trkpt>
      <trkpt lat="43.60824" lon="3.72875">
        <ele>155</ele>
        <time>2021-02-07T13:27:12Z</time>
      </trkpt>
      <trkpt lat="43.60825" lon="3.72871">
        <ele>155.1</ele>
        <time>2021-02-07T13:27:13Z</time>
      </trkpt>
      <trkpt lat="43.60826" lon="3.72866">
        <ele>155.4</ele>
        <time>2021-02-07T13:27:14Z</time>
      </trkpt>
      <trkpt lat="43.60826" lon="3.72861">
        <ele>155.4</ele>
        <time>2021-02-07T13:27:15Z</time>
      </trkpt>
      <trkpt lat="43.60826" lon="3.72856">
        <ele>155.2</ele>
        <time>2021-02-07T13:27:16Z</time>
      </trkpt>
      <trkpt lat="43.60827" lon="3.72852">
        <ele>155.2</ele>
        <time>2021-02-07T13:27:17Z</time>
      </trkpt>
      <trkpt lat="43.60828" lon="3.72848">
        <ele>155.2</ele>
        <time>2021-02-07T13:27:18Z</time>
      </trkpt>
      <trkpt lat="43.60828" lon="3.72845">
        <ele>155</ele>
        <time>2021-02-07T13:27:19Z</time>
      </trkpt>
      <trkpt lat="43.60829" lon="3.72842">
        <ele>155</ele>
        <time>2021-02-07T13:27:20Z</time>
      </trkpt>
      <trkpt lat="43.6083" lon="3.72839">
        <ele>155</ele>
        <time>2021-02-07T13:27:21Z</time>
      </trkpt>
      <trkpt lat="43.6083" lon="3.72836">
        <ele>154.8</ele>
        <time>2021-02-07T13:27:22Z</time>
      </trkpt>
      <trkpt lat="43.60831" lon="3.72833">
        <ele>156</ele>
        <time>2021-02-07T13:27:23Z</time>
      </trkpt>
      <trkpt lat="43.60831" lon="3.7283">
        <ele>154.8</ele>
        <time>2021-02-07T13:27:24Z</time>
      </trkpt>
      <trkpt lat="43.60831" lon="3.72828">
        <ele>154.8</ele>
        <time>2021-02-07T13:27:25Z</time>
      </trkpt>
      <trkpt lat="43.60832" lon="3.72825">
        <ele>154.9</ele>
        <time>2021-02-07T13:27:26Z</time>
      </trkpt>
      <trkpt lat="43.60833" lon="3.72823">
        <ele>155</ele>
        <time>2021-02-07T13:27:27Z</time>
      </trkpt>
      <trkpt lat="43.60833" lon="3.7282">
        <ele>155</ele>
        <time>2021-02-07T13:27:28Z</time>
      </trkpt>
      <trkpt lat="43.60834" lon="3.72817">
        <ele>155</ele>
        <time>2021-02-07T13:27:29Z</time>
      </trkpt>
      <trkpt lat="43.60834" lon="3.72814">
        <ele>155</ele>
        <time>2021-02-07T13:27:30Z</time>
      </trkpt>
      <trkpt lat="43.60835" lon="3.72812">
        <ele>155.1</ele>
        <time>2021-02-07T13:27:31Z</time>
      </trkpt>
      <trkpt lat="43.60836" lon="3.72808">
        <ele>155.1</ele>
        <time>2021-02-07T13:27:33Z</time>
      </trkpt>
      <trkpt lat="43.60836" lon="3.72803">
        <ele>155.1</ele>
        <time>2021-02-07T13:27:35Z</time>
      </trkpt>
      <trkpt lat="43.60836" lon="3.728">
        <ele>155.1</ele>
        <time>2021-02-07T13:27:37Z</time>
      </trkpt>
      <trkpt lat="43.60837" lon="3.72798">
        <ele>155.1</ele>
        <time>2021-02-07T13:27:39Z</time>
      </trkpt>
      <trkpt lat="43.60839" lon="3.72795">
        <ele>155</ele>
        <time>2021-02-07T13:27:41Z</time>
      </trkpt>
      <trkpt lat="43.60839" lon="3.72792">
        <ele>155</ele>
        <time>2021-02-07T13:27:42Z</time>
      </trkpt>
      <trkpt lat="43.6084" lon="3.7279">
        <ele>155</ele>
        <time>2021-02-07T13:27:43Z</time>
      </trkpt>
      <trkpt lat="43.60839" lon="3.72787">
        <ele>154.9</ele>
        <time>2021-02-07T13:27:44Z</time>
      </trkpt>
      <trkpt lat="43.60837" lon="3.72785">
        <ele>154.9</ele>
        <time>2021-02-07T13:27:45Z</time>
      </trkpt>
      <trkpt lat="43.60836" lon="3.72783">
        <ele>154.9</ele>
        <time>2021-02-07T13:27:46Z</time>
      </trkpt>
      <trkpt lat="43.60835" lon="3.7278">
        <ele>154.9</ele>
        <time>2021-02-07T13:27:47Z</time>
      </trkpt>
      <trkpt lat="43.60834" lon="3.72777">
        <ele>154.9</ele>
        <time>2021-02-07T13:27:48Z</time>
      </trkpt>
      <trkpt lat="43.60833" lon="3.72774">
        <ele>154.9</ele>
        <time>2021-02-07T13:27:49Z</time>
      </trkpt>
      <trkpt lat="43.60832" lon="3.72771">
        <ele>154.8</ele>
        <time>2021-02-07T13:27:50Z</time>
      </trkpt>
      <trkpt lat="43.60832" lon="3.72767">
        <ele>154.7</ele>
        <time>2021-02-07T13:27:51Z</time>
      </trkpt>
      <trkpt lat="43.60831" lon="3.72764">
        <ele>155</ele>
        <time>2021-02-07T13:27:52Z</time>
      </trkpt>
      <trkpt lat="43.6083" lon="3.72761">
        <ele>154.6</ele>
        <time>2021-02-07T13:27:53Z</time>
      </trkpt>
      <trkpt lat="43.6083" lon="3.72759">
        <ele>154.6</ele>
        <time>2021-02-07T13:27:54Z</time>
      </trkpt>
      <trkpt lat="43.60829" lon="3.72756">
        <ele>154.6</ele>
        <time>2021-02-07T13:27:55Z</time>
      </trkpt>
      <trkpt lat="43.60829" lon="3.72754">
        <ele>154.5</ele>
        <time>2021-02-07T13:27:56Z</time>
      </trkpt>
      <trkpt lat="43.60828" lon="3.72751">
        <ele>154.6</ele>
        <time>2021-02-07T13:27:57Z</time>
      </trkpt>
      <trkpt lat="43.60827" lon="3.72748">
        <ele>154.7</ele>
        <time>2021-02-07T13:27:58Z</time>
      </trkpt>
      <trkpt lat="43.60827" lon="3.72745">
        <ele>154.7</ele>
        <time>2021-02-07T13:27:59Z</time>
      </trkpt>
      <trkpt lat="43.60826" lon="3.72742">
        <ele>154.8</ele>
        <time>2021-02-07T13:28:00Z</time>
      </trkpt>
      <trkpt lat="43.60825" lon="3.72739">
        <ele>154.9</ele>
        <time>2021-02-07T13:28:01Z</time>
      </trkpt>
      <trkpt lat="43.60825" lon="3.72736">
        <ele>156</ele>
        <time>2021-02-07T13:28:02Z</time>
      </trkpt>
      <trkpt lat="43.60824" lon="3.72734">
        <ele>155</ele>
        <time>2021-02-07T13:28:03Z</time>
      </trkpt>
      <trkpt lat="43.60824" lon="3.72731">
        <ele>155</ele>
        <time>2021-02-07T13:28:04Z</time>
      </trkpt>
      <trkpt lat="43.60823" lon="3.72729">
        <ele>155.1</ele>
        <time>2021-02-07T13:28:05Z</time>
      </trkpt>
      <trkpt lat="43.60822" lon="3.72726">
        <ele>155.2</ele>
        <time>2021-02-07T13:28:06Z</time>
      </trkpt>
      <trkpt lat="43.60822" lon="3.72724">
        <ele>155.2</ele>
        <time>2021-02-07T13:28:07Z</time>
      </trkpt>
      <trkpt lat="43.60822" lon="3.72721">
        <ele>155.3</ele>
        <time>2021-02-07T13:28:08Z</time>
      </trkpt>
      <trkpt lat="43.60821" lon="3.72718">
        <ele>155.5</ele>
        <time>2021-02-07T13:28:09Z</time>
      </trkpt>
      <trkpt lat="43.6082" lon="3.72716">
        <ele>155.7</ele>
        <time>2021-02-07T13:28:10Z</time>
      </trkpt>
      <trkpt lat="43.60819" lon="3.72713">
        <ele>155.9</ele>
        <time>2021-02-07T13:28:11Z</time>
      </trkpt>
      <trkpt lat="43.60819" lon="3.7271">
        <ele>158</ele>
        <time>2021-02-07T13:28:12Z</time>
      </trkpt>
      <trkpt lat="43.60818" lon="3.72707">
        <ele>156.2</ele>
        <time>2021-02-07T13:28:13Z</time>
      </trkpt>
      <trkpt lat="43.60818" lon="3.72705">
        <ele>156.3</ele>
        <time>2021-02-07T13:28:14Z</time>
      </trkpt>
      <trkpt lat="43.60817" lon="3.72702">
        <ele>156.5</ele>
        <time>2021-02-07T13:28:15Z</time>
      </trkpt>
      <trkpt lat="43.60817" lon="3.72699">
        <ele>156.6</ele>
        <time>2021-02-07T13:28:16Z</time>
      </trkpt>
      <trkpt lat="43.60817" lon="3.72696">
        <ele>156.7</ele>
        <time>2021-02-07T13:28:17Z</time>
      </trkpt>
      <trkpt lat="43.60817" lon="3.72693">
        <ele>156.8</ele>
        <time>2021-02-07T13:28:18Z</time>
      </trkpt>
      <trkpt lat="43.60817" lon="3.7269">
        <ele>156.9</ele>
        <time>2021-02-07T13:28:19Z</time>
      </trkpt>
      <trkpt lat="43.60816" lon="3.72687">
        <ele>157</ele>
        <time>2021-02-07T13:28:20Z</time>
      </trkpt>
      <trkpt lat="43.60816" lon="3.72684">
        <ele>157.1</ele>
        <time>2021-02-07T13:28:21Z</time>
      </trkpt>
      <trkpt lat="43.60816" lon="3.72681">
        <ele>159</ele>
        <time>2021-02-07T13:28:22Z</time>
      </trkpt>
      <trkpt lat="43.60815" lon="3.72679">
        <ele>157.3</ele>
        <time>2021-02-07T13:28:23Z</time>
      </trkpt>
      <trkpt lat="43.60815" lon="3.72676">
        <ele>157.4</ele>
        <time>2021-02-07T13:28:24Z</time>
      </trkpt>
      <trkpt lat="43.60814" lon="3.72674">
        <ele>157.6</ele>
        <time>2021-02-07T13:28:25Z</time>
      </trkpt>
      <trkpt lat="43.60814" lon="3.72671">
        <ele>157.7</ele>
        <time>2021-02-07T13:28:26Z</time>
      </trkpt>
      <trkpt lat="43.60813" lon="3.72669">
        <ele>157.9</ele>
        <time>2021-02-07T13:28:27Z</time>
      </trkpt>
      <trkpt lat="43.60813" lon="3.72666">
        <ele>157.9</ele>
        <time>2021-02-07T13:28:28Z</time>
      </trkpt>
      <trkpt lat="43.60812" lon="3.72663">
        <ele>158.1</ele>
        <time>2021-02-07T13:28:29Z</time>
      </trkpt>
      <trkpt lat="43.60812" lon="3.7266">
        <ele>158.1</ele>
        <time>2021-02-07T13:28:30Z</time>
      </trkpt>
      <trkpt lat="43.60812" lon="3.72658">
        <ele>158.1</ele>
        <time>2021-02-07T13:28:31Z</time>
      </trkpt>
      <trkpt lat="43.60811" lon="3.72655">
        <ele>159</ele>
        <time>2021-02-07T13:28:32Z</time>
      </trkpt>
      <trkpt lat="43.60811" lon="3.72652">
        <ele>158.3</ele>
        <time>2021-02-07T13:28:33Z</time>
      </trkpt>
      <trkpt lat="43.60811" lon="3.72649">
        <ele>158.3</ele>
        <time>2021-02-07T13:28:34Z</time>
      </trkpt>
      <trkpt lat="43.6081" lon="3.72646">
        <ele>158.5</ele>
        <time>2021-02-07T13:28:35Z</time>
      </trkpt>
      <trkpt lat="43.6081" lon="3.72644">
        <ele>158.5</ele>
        <time>2021-02-07T13:28:36Z</time>
      </trkpt>
      <trkpt lat="43.60809" lon="3.72641">
        <ele>158.6</ele>
        <time>2021-02-07T13:28:37Z</time>
      </trkpt>
      <trkpt lat="43.60809" lon="3.72639">
        <ele>158.6</ele>
        <time>2021-02-07T13:28:38Z</time>
      </trkpt>
      <trkpt lat="43.60808" lon="3.72636">
        <ele>158.7</ele>
        <time>2021-02-07T13:28:39Z</time>
      </trkpt>
      <trkpt lat="43.60808" lon="3.72633">
        <ele>158.8</ele>
        <time>2021-02-07T13:28:40Z</time>
      </trkpt>
      <trkpt lat="43.60807" lon="3.72631">
        <ele>158.9</ele>
        <time>2021-02-07T13:28:41Z</time>
      </trkpt>
      <trkpt lat="43.60806" lon="3.72628">
        <ele>159</ele>
        <time>2021-02-07T13:28:42Z</time>
      </trkpt>
      <trkpt lat="43.60806" lon="3.72626">
        <ele>160</ele>
        <time>2021-02-07T13:28:43Z</time>
      </trkpt>
      <trkpt lat="43.60805" lon="3.72621">
        <ele>159.1</ele>
        <time>2021-02-07T13:28:45Z</time>
      </trkpt>
      <trkpt lat="43.60804" lon="3.72617">
        <ele>159.3</ele>
        <time>2021-02-07T13:28:47Z</time>
      </trkpt>
      <trkpt lat="43.60804" lon="3.72612">
        <ele>159.3</ele>
        <time>2021-02-07T13:28:49Z</time>
      </trkpt>
      <trkpt lat="43.60803" lon="3.72607">
        <ele>159.5</ele>
        <time>2021-02-07T13:28:51Z</time>
      </trkpt>
      <trkpt lat="43.60802" lon="3.72605">
        <ele>161</ele>
        <time>2021-02-07T13:28:52Z</time>
      </trkpt>
      <trkpt lat="43.60802" lon="3.72602">
        <ele>159.6</ele>
        <time>2021-02-07T13:28:53Z</time>
      </trkpt>
      <trkpt lat="43.60801" lon="3.72598">
        <ele>159.8</ele>
        <time>2021-02-07T13:28:55Z</time>
      </trkpt>
      <trkpt lat="43.608" lon="3.72593">
        <ele>160</ele>
        <time>2021-02-07T13:28:57Z</time>
      </trkpt>
      <trkpt lat="43.60799" lon="3.72589">
        <ele>160.2</ele>
        <time>2021-02-07T13:28:59Z</time>
      </trkpt>
      <trkpt lat="43.60798" lon="3.72587">
        <ele>160.4</ele>
        <time>2021-02-07T13:29:00Z</time>
      </trkpt>
      <trkpt lat="43.60796" lon="3.72583">
        <ele>161</ele>
        <time>2021-02-07T13:29:02Z</time>
      </trkpt>
      <trkpt lat="43.60795" lon="3.72579">
        <ele>161</ele>
        <time>2021-02-07T13:29:04Z</time>
      </trkpt>
      <trkpt lat="43.60794" lon="3.72575">
        <ele>161.3</ele>
        <time>2021-02-07T13:29:06Z</time>
      </trkpt>
      <trkpt lat="43.60792" lon="3.72571">
        <ele>161.7</ele>
        <time>2021-02-07T13:29:08Z</time>
      </trkpt>
      <trkpt lat="43.60791" lon="3.72566">
        <ele>161.9</ele>
        <time>2021-02-07T13:29:10Z</time>
      </trkpt>
      <trkpt lat="43.60789" lon="3.72563">
        <ele>162.3</ele>
        <time>2021-02-07T13:29:12Z</time>
      </trkpt>
      <trkpt lat="43.60788" lon="3.72559">
        <ele>162.5</ele>
        <time>2021-02-07T13:29:14Z</time>
      </trkpt>
      <trkpt lat="43.60786" lon="3.72555">
        <ele>162.8</ele>
        <time>2021-02-07T13:29:16Z</time>
      </trkpt>
      <trkpt lat="43.60785" lon="3.72551">
        <ele>162.8</ele>
        <time>2021-02-07T13:29:18Z</time>
      </trkpt>
      <trkpt lat="43.60784" lon="3.72547">
        <ele>162.9</ele>
        <time>2021-02-07T13:29:20Z</time>
      </trkpt>
      <trkpt lat="43.60783" lon="3.72543">
        <ele>163</ele>
        <time>2021-02-07T13:29:22Z</time>
      </trkpt>
      <trkpt lat="43.60781" lon="3.72539">
        <ele>163</ele>
        <time>2021-02-07T13:29:24Z</time>
      </trkpt>
      <trkpt lat="43.6078" lon="3.72535">
        <ele>163</ele>
        <time>2021-02-07T13:29:26Z</time>
      </trkpt>
      <trkpt lat="43.60779" lon="3.72531">
        <ele>163</ele>
        <time>2021-02-07T13:29:28Z</time>
      </trkpt>
      <trkpt lat="43.60778" lon="3.72528">
        <ele>163</ele>
        <time>2021-02-07T13:29:29Z</time>
      </trkpt>
      <trkpt lat="43.60777" lon="3.72526">
        <ele>163.1</ele>
        <time>2021-02-07T13:29:30Z</time>
      </trkpt>
      <trkpt lat="43.60777" lon="3.72523">
        <ele>163.1</ele>
        <time>2021-02-07T13:29:31Z</time>
      </trkpt>
      <trkpt lat="43.60776" lon="3.72521">
        <ele>163</ele>
        <time>2021-02-07T13:29:32Z</time>
      </trkpt>
      <trkpt lat="43.60775" lon="3.72518">
        <ele>163.5</ele>
        <time>2021-02-07T13:29:33Z</time>
      </trkpt>
      <trkpt lat="43.60774" lon="3.72514">
        <ele>163.6</ele>
        <time>2021-02-07T13:29:35Z</time>
      </trkpt>
      <trkpt lat="43.60773" lon="3.72511">
        <ele>163.8</ele>
        <time>2021-02-07T13:29:36Z</time>
      </trkpt>
      <trkpt lat="43.60773" lon="3.72508">
        <ele>163.7</ele>
        <time>2021-02-07T13:29:37Z</time>
      </trkpt>
      <trkpt lat="43.60772" lon="3.72506">
        <ele>163.9</ele>
        <time>2021-02-07T13:29:38Z</time>
      </trkpt>
      <trkpt lat="43.60771" lon="3.72503">
        <ele>164</ele>
        <time>2021-02-07T13:29:39Z</time>
      </trkpt>
      <trkpt lat="43.60771" lon="3.725">
        <ele>164</ele>
        <time>2021-02-07T13:29:40Z</time>
      </trkpt>
      <trkpt lat="43.6077" lon="3.72498">
        <ele>164.1</ele>
        <time>2021-02-07T13:29:41Z</time>
      </trkpt>
      <trkpt lat="43.60769" lon="3.72496">
        <ele>164</ele>
        <time>2021-02-07T13:29:42Z</time>
      </trkpt>
      <trkpt lat="43.60769" lon="3.72493">
        <ele>164.3</ele>
        <time>2021-02-07T13:29:43Z</time>
      </trkpt>
      <trkpt lat="43.60768" lon="3.72491">
        <ele>164.4</ele>
        <time>2021-02-07T13:29:44Z</time>
      </trkpt>
      <trkpt lat="43.60766" lon="3.72486">
        <ele>164.7</ele>
        <time>2021-02-07T13:29:46Z</time>
      </trkpt>
      <trkpt lat="43.60765" lon="3.72482">
        <ele>164.8</ele>
        <time>2021-02-07T13:29:48Z</time>
      </trkpt>
      <trkpt lat="43.60764" lon="3.72477">
        <ele>165</ele>
        <time>2021-02-07T13:29:50Z</time>
      </trkpt>
      <trkpt lat="43.60763" lon="3.72475">
        <ele>165.1</ele>
        <time>2021-02-07T13:29:51Z</time>
      </trkpt>
      <trkpt lat="43.60762" lon="3.72473">
        <ele>165</ele>
        <time>2021-02-07T13:29:52Z</time>
      </trkpt>
      <trkpt lat="43.60761" lon="3.72468">
        <ele>165.5</ele>
        <time>2021-02-07T13:29:54Z</time>
      </trkpt>
      <trkpt lat="43.60759" lon="3.72464">
        <ele>165.8</ele>
        <time>2021-02-07T13:29:56Z</time>
      </trkpt>
      <trkpt lat="43.60758" lon="3.72459">
        <ele>166</ele>
        <time>2021-02-07T13:29:58Z</time>
      </trkpt>
      <trkpt lat="43.60757" lon="3.72457">
        <ele>166.1</ele>
        <time>2021-02-07T13:29:59Z</time>
      </trkpt>
      <trkpt lat="43.60756" lon="3.72452">
        <ele>166.3</ele>
        <time>2021-02-07T13:30:01Z</time>
      </trkpt>
      <trkpt lat="43.60755" lon="3.72448">
        <ele>166.4</ele>
        <time>2021-02-07T13:30:03Z</time>
      </trkpt>
      <trkpt lat="43.60754" lon="3.72444">
        <ele>166.6</ele>
        <time>2021-02-07T13:30:05Z</time>
      </trkpt>
      <trkpt lat="43.60752" lon="3.72439">
        <ele>166.8</ele>
        <time>2021-02-07T13:30:07Z</time>
      </trkpt>
      <trkpt lat="43.60752" lon="3.72435">
        <ele>166.8</ele>
        <time>2021-02-07T13:30:09Z</time>
      </trkpt>
      <trkpt lat="43.6075" lon="3.7243">
        <ele>167</ele>
        <time>2021-02-07T13:30:11Z</time>
      </trkpt>
      <trkpt lat="43.60749" lon="3.72428">
        <ele>167</ele>
        <time>2021-02-07T13:30:12Z</time>
      </trkpt>
      <trkpt lat="43.60749" lon="3.72426">
        <ele>167.1</ele>
        <time>2021-02-07T13:30:13Z</time>
      </trkpt>
      <trkpt lat="43.60747" lon="3.72421">
        <ele>167.4</ele>
        <time>2021-02-07T13:30:15Z</time>
      </trkpt>
      <trkpt lat="43.60746" lon="3.72417">
        <ele>167.6</ele>
        <time>2021-02-07T13:30:17Z</time>
      </trkpt>
      <trkpt lat="43.60744" lon="3.72413">
        <ele>168</ele>
        <time>2021-02-07T13:30:19Z</time>
      </trkpt>
      <trkpt lat="43.60743" lon="3.72409">
        <ele>168.3</ele>
        <time>2021-02-07T13:30:21Z</time>
      </trkpt>
      <trkpt lat="43.60742" lon="3.72405">
        <ele>168.6</ele>
        <time>2021-02-07T13:30:23Z</time>
      </trkpt>
      <trkpt lat="43.60741" lon="3.72402">
        <ele>168.8</ele>
        <time>2021-02-07T13:30:25Z</time>
      </trkpt>
      <trkpt lat="43.60739" lon="3.72398">
        <ele>169.3</ele>
        <time>2021-02-07T13:30:27Z</time>
      </trkpt>
      <trkpt lat="43.60738" lon="3.72394">
        <ele>169.5</ele>
        <time>2021-02-07T13:30:29Z</time>
      </trkpt>
      <trkpt lat="43.60736" lon="3.72391">
        <ele>169.9</ele>
        <time>2021-02-07T13:30:31Z</time>
      </trkpt>
      <trkpt lat="43.60734" lon="3.72388">
        <ele>170.3</ele>
        <time>2021-02-07T13:30:33Z</time>
      </trkpt>
      <trkpt lat="43.60732" lon="3.72385">
        <ele>170.8</ele>
        <time>2021-02-07T13:30:35Z</time>
      </trkpt>
      <trkpt lat="43.6073" lon="3.72382">
        <ele>171.2</ele>
        <time>2021-02-07T13:30:37Z</time>
      </trkpt>
      <trkpt lat="43.60729" lon="3.72378">
        <ele>171.5</ele>
        <time>2021-02-07T13:30:39Z</time>
      </trkpt>
      <trkpt lat="43.60728" lon="3.72375">
        <ele>171.8</ele>
        <time>2021-02-07T13:30:41Z</time>
      </trkpt>
      <trkpt lat="43.60726" lon="3.72371">
        <ele>172.2</ele>
        <time>2021-02-07T13:30:43Z</time>
      </trkpt>
      <trkpt lat="43.60725" lon="3.72368">
        <ele>172.4</ele>
        <time>2021-02-07T13:30:45Z</time>
      </trkpt>
      <trkpt lat="43.60724" lon="3.72364">
        <ele>172.7</ele>
        <time>2021-02-07T13:30:47Z</time>
      </trkpt>
      <trkpt lat="43.60722" lon="3.72361">
        <ele>173</ele>
        <time>2021-02-07T13:30:49Z</time>
      </trkpt>
      <trkpt lat="43.60721" lon="3.72359">
        <ele>173.2</ele>
        <time>2021-02-07T13:30:51Z</time>
      </trkpt>
      <trkpt lat="43.60719" lon="3.72356">
        <ele>173.6</ele>
        <time>2021-02-07T13:30:53Z</time>
      </trkpt>
      <trkpt lat="43.60717" lon="3.72354">
        <ele>174</ele>
        <time>2021-02-07T13:30:55Z</time>
      </trkpt>
      <trkpt lat="43.60715" lon="3.72352">
        <ele>174.3</ele>
        <time>2021-02-07T13:30:57Z</time>
      </trkpt>
      <trkpt lat="43.60713" lon="3.7235">
        <ele>174.6</ele>
        <time>2021-02-07T13:30:59Z</time>
      </trkpt>
      <trkpt lat="43.60709" lon="3.72349">
        <ele>175.1</ele>
        <time>2021-02-07T13:31:01Z</time>
      </trkpt>
      <trkpt lat="43.60707" lon="3.7235">
        <ele>175.4</ele>
        <time>2021-02-07T13:31:03Z</time>
      </trkpt>
      <trkpt lat="43.60704" lon="3.72349">
        <ele>175.8</ele>
        <time>2021-02-07T13:31:05Z</time>
      </trkpt>
      <trkpt lat="43.60703" lon="3.72346">
        <ele>175.9</ele>
        <time>2021-02-07T13:31:07Z</time>
      </trkpt>
      <trkpt lat="43.60704" lon="3.72342">
        <ele>175.9</ele>
        <time>2021-02-07T13:31:09Z</time>
      </trkpt>
      <trkpt lat="43.60705" lon="3.72338">
        <ele>175.8</ele>
        <time>2021-02-07T13:31:11Z</time>
      </trkpt>
      <trkpt lat="43.60705" lon="3.72334">
        <ele>175.9</ele>
        <time>2021-02-07T13:31:13Z</time>
      </trkpt>
      <trkpt lat="43.60704" lon="3.72332">
        <ele>176</ele>
        <time>2021-02-07T13:31:15Z</time>
      </trkpt>
      <trkpt lat="43.60704" lon="3.72329">
        <ele>176</ele>
        <time>2021-02-07T13:31:17Z</time>
      </trkpt>
      <trkpt lat="43.60702" lon="3.72326">
        <ele>176.3</ele>
        <time>2021-02-07T13:31:19Z</time>
      </trkpt>
      <trkpt lat="43.60701" lon="3.72323">
        <ele>176.4</ele>
        <time>2021-02-07T13:31:21Z</time>
      </trkpt>
      <trkpt lat="43.607" lon="3.7232">
        <ele>176.5</ele>
        <time>2021-02-07T13:31:23Z</time>
      </trkpt>
      <trkpt lat="43.60699" lon="3.72317">
        <ele>176.6</ele>
        <time>2021-02-07T13:31:25Z</time>
      </trkpt>
      <trkpt lat="43.60701" lon="3.72317">
        <ele>178</ele>
        <time>2021-02-07T13:33:21Z</time>
      </trkpt>
      <trkpt lat="43.607" lon="3.72317">
        <ele>178</ele>
        <time>2021-02-07T13:33:25Z</time>
      </trkpt>
      <trkpt lat="43.60694" lon="3.72312">
        <ele>178</ele>
        <time>2021-02-07T13:34:15Z</time>
      </trkpt>
      <trkpt lat="43.60694" lon="3.72307">
        <ele>177</ele>
        <time>2021-02-07T13:34:17Z</time>
      </trkpt>
      <trkpt lat="43.60695" lon="3.72304">
        <ele>177</ele>
        <time>2021-02-07T13:34:18Z</time>
      </trkpt>
      <trkpt lat="43.60696" lon="3.72301">
        <ele>176.9</ele>
        <time>2021-02-07T13:34:20Z</time>
      </trkpt>
      <trkpt lat="43.60698" lon="3.72297">
        <ele>176.9</ele>
        <time>2021-02-07T13:34:22Z</time>
      </trkpt>
      <trkpt lat="43.607" lon="3.72293">
        <ele>177</ele>
        <time>2021-02-07T13:34:24Z</time>
      </trkpt>
      <trkpt lat="43.60702" lon="3.7229">
        <ele>176.9</ele>
        <time>2021-02-07T13:34:26Z</time>
      </trkpt>
      <trkpt lat="43.60703" lon="3.72287">
        <ele>177</ele>
        <time>2021-02-07T13:34:28Z</time>
      </trkpt>
      <trkpt lat="43.60704" lon="3.72284">
        <ele>177.1</ele>
        <time>2021-02-07T13:34:30Z</time>
      </trkpt>
      <trkpt lat="43.60705" lon="3.72281">
        <ele>177.2</ele>
        <time>2021-02-07T13:34:32Z</time>
      </trkpt>
      <trkpt lat="43.60706" lon="3.72277">
        <ele>177.4</ele>
        <time>2021-02-07T13:34:34Z</time>
      </trkpt>
      <trkpt lat="43.60708" lon="3.72274">
        <ele>177.4</ele>
        <time>2021-02-07T13:34:36Z</time>
      </trkpt>
      <trkpt lat="43.60708" lon="3.7227">
        <ele>177.3</ele>
        <time>2021-02-07T13:34:38Z</time>
      </trkpt>
      <trkpt lat="43.60709" lon="3.72268">
        <ele>177.4</ele>
        <time>2021-02-07T13:34:39Z</time>
      </trkpt>
      <trkpt lat="43.6071" lon="3.72266">
        <ele>177.5</ele>
        <time>2021-02-07T13:34:40Z</time>
      </trkpt>
      <trkpt lat="43.60711" lon="3.72264">
        <ele>177.6</ele>
        <time>2021-02-07T13:34:41Z</time>
      </trkpt>
      <trkpt lat="43.60712" lon="3.72262">
        <ele>177.7</ele>
        <time>2021-02-07T13:34:42Z</time>
      </trkpt>
      <trkpt lat="43.60714" lon="3.7226">
        <ele>178</ele>
        <time>2021-02-07T13:34:43Z</time>
      </trkpt>
      <trkpt lat="43.60715" lon="3.72258">
        <ele>180</ele>
        <time>2021-02-07T13:34:44Z</time>
      </trkpt>
      <trkpt lat="43.60716" lon="3.72253">
        <ele>178.6</ele>
        <time>2021-02-07T13:34:46Z</time>
      </trkpt>
      <trkpt lat="43.60717" lon="3.7225">
        <ele>178.9</ele>
        <time>2021-02-07T13:34:48Z</time>
      </trkpt>
      <trkpt lat="43.60717" lon="3.72247">
        <ele>178.9</ele>
        <time>2021-02-07T13:34:50Z</time>
      </trkpt>
      <trkpt lat="43.60717" lon="3.72244">
        <ele>179</ele>
        <time>2021-02-07T13:34:51Z</time>
      </trkpt>
      <trkpt lat="43.60718" lon="3.7224">
        <ele>179.3</ele>
        <time>2021-02-07T13:34:52Z</time>
      </trkpt>
      <trkpt lat="43.60718" lon="3.72236">
        <ele>179.4</ele>
        <time>2021-02-07T13:34:53Z</time>
      </trkpt>
      <trkpt lat="43.60718" lon="3.72232">
        <ele>181</ele>
        <time>2021-02-07T13:34:54Z</time>
      </trkpt>
      <trkpt lat="43.60718" lon="3.72227">
        <ele>179.7</ele>
        <time>2021-02-07T13:34:55Z</time>
      </trkpt>
      <trkpt lat="43.60718" lon="3.72223">
        <ele>179.8</ele>
        <time>2021-02-07T13:34:56Z</time>
      </trkpt>
      <trkpt lat="43.60718" lon="3.72219">
        <ele>179.9</ele>
        <time>2021-02-07T13:34:57Z</time>
      </trkpt>
      <trkpt lat="43.60719" lon="3.72215">
        <ele>180.3</ele>
        <time>2021-02-07T13:34:58Z</time>
      </trkpt>
      <trkpt lat="43.60719" lon="3.72212">
        <ele>180.4</ele>
        <time>2021-02-07T13:34:59Z</time>
      </trkpt>
      <trkpt lat="43.60719" lon="3.72209">
        <ele>180.5</ele>
        <time>2021-02-07T13:35:00Z</time>
      </trkpt>
      <trkpt lat="43.6072" lon="3.72206">
        <ele>180.9</ele>
        <time>2021-02-07T13:35:01Z</time>
      </trkpt>
      <trkpt lat="43.6072" lon="3.72203">
        <ele>181.1</ele>
        <time>2021-02-07T13:35:02Z</time>
      </trkpt>
      <trkpt lat="43.6072" lon="3.722">
        <ele>181.2</ele>
        <time>2021-02-07T13:35:03Z</time>
      </trkpt>
      <trkpt lat="43.6072" lon="3.72195">
        <ele>181.3</ele>
        <time>2021-02-07T13:35:05Z</time>
      </trkpt>
      <trkpt lat="43.6072" lon="3.72192">
        <ele>181.6</ele>
        <time>2021-02-07T13:35:06Z</time>
      </trkpt>
      <trkpt lat="43.6072" lon="3.72187">
        <ele>182.1</ele>
        <time>2021-02-07T13:35:08Z</time>
      </trkpt>
      <trkpt lat="43.60719" lon="3.72182">
        <ele>182.4</ele>
        <time>2021-02-07T13:35:10Z</time>
      </trkpt>
      <trkpt lat="43.60719" lon="3.7218">
        <ele>182.6</ele>
        <time>2021-02-07T13:35:11Z</time>
      </trkpt>
      <trkpt lat="43.60718" lon="3.72176">
        <ele>182.7</ele>
        <time>2021-02-07T13:35:13Z</time>
      </trkpt>
      <trkpt lat="43.60717" lon="3.72171">
        <ele>182.9</ele>
        <time>2021-02-07T13:35:15Z</time>
      </trkpt>
      <trkpt lat="43.60716" lon="3.72166">
        <ele>183</ele>
        <time>2021-02-07T13:35:17Z</time>
      </trkpt>
      <trkpt lat="43.60716" lon="3.72164">
        <ele>183.2</ele>
        <time>2021-02-07T13:35:18Z</time>
      </trkpt>
      <trkpt lat="43.60716" lon="3.72161">
        <ele>183.4</ele>
        <time>2021-02-07T13:35:19Z</time>
      </trkpt>
      <trkpt lat="43.60715" lon="3.72156">
        <ele>183.5</ele>
        <time>2021-02-07T13:35:21Z</time>
      </trkpt>
      <trkpt lat="43.60714" lon="3.72152">
        <ele>183.5</ele>
        <time>2021-02-07T13:35:23Z</time>
      </trkpt>
      <trkpt lat="43.60714" lon="3.72147">
        <ele>184</ele>
        <time>2021-02-07T13:35:25Z</time>
      </trkpt>
      <trkpt lat="43.60714" lon="3.72144">
        <ele>184.2</ele>
        <time>2021-02-07T13:35:27Z</time>
      </trkpt>
      <trkpt lat="43.60714" lon="3.7214">
        <ele>184.5</ele>
        <time>2021-02-07T13:35:29Z</time>
      </trkpt>
      <trkpt lat="43.60713" lon="3.72136">
        <ele>184.7</ele>
        <time>2021-02-07T13:35:31Z</time>
      </trkpt>
      <trkpt lat="43.60713" lon="3.72132">
        <ele>185.2</ele>
        <time>2021-02-07T13:35:33Z</time>
      </trkpt>
      <trkpt lat="43.60713" lon="3.72129">
        <ele>185.5</ele>
        <time>2021-02-07T13:35:35Z</time>
      </trkpt>
      <trkpt lat="43.60712" lon="3.72125">
        <ele>185.7</ele>
        <time>2021-02-07T13:35:37Z</time>
      </trkpt>
      <trkpt lat="43.60712" lon="3.72121">
        <ele>186.2</ele>
        <time>2021-02-07T13:35:39Z</time>
      </trkpt>
      <trkpt lat="43.60712" lon="3.72117">
        <ele>186.6</ele>
        <time>2021-02-07T13:35:41Z</time>
      </trkpt>
      <trkpt lat="43.60712" lon="3.72112">
        <ele>187.2</ele>
        <time>2021-02-07T13:35:43Z</time>
      </trkpt>
      <trkpt lat="43.60713" lon="3.72108">
        <ele>187.8</ele>
        <time>2021-02-07T13:35:45Z</time>
      </trkpt>
      <trkpt lat="43.60714" lon="3.72104">
        <ele>188.2</ele>
        <time>2021-02-07T13:35:47Z</time>
      </trkpt>
      <trkpt lat="43.60714" lon="3.721">
        <ele>188.3</ele>
        <time>2021-02-07T13:35:49Z</time>
      </trkpt>
      <trkpt lat="43.60715" lon="3.72096">
        <ele>188.8</ele>
        <time>2021-02-07T13:35:51Z</time>
      </trkpt>
      <trkpt lat="43.60715" lon="3.72092">
        <ele>188.9</ele>
        <time>2021-02-07T13:35:53Z</time>
      </trkpt>
      <trkpt lat="43.60715" lon="3.72088">
        <ele>189</ele>
        <time>2021-02-07T13:35:55Z</time>
      </trkpt>
      <trkpt lat="43.60715" lon="3.72084">
        <ele>189.1</ele>
        <time>2021-02-07T13:35:57Z</time>
      </trkpt>
      <trkpt lat="43.60715" lon="3.7208">
        <ele>189.2</ele>
        <time>2021-02-07T13:35:59Z</time>
      </trkpt>
      <trkpt lat="43.60716" lon="3.72076">
        <ele>189.7</ele>
        <time>2021-02-07T13:36:01Z</time>
      </trkpt>
      <trkpt lat="43.60716" lon="3.72072">
        <ele>189.7</ele>
        <time>2021-02-07T13:36:03Z</time>
      </trkpt>
      <trkpt lat="43.60716" lon="3.72067">
        <ele>189.8</ele>
        <time>2021-02-07T13:36:05Z</time>
      </trkpt>
      <trkpt lat="43.60717" lon="3.72063">
        <ele>190.2</ele>
        <time>2021-02-07T13:36:07Z</time>
      </trkpt>
      <trkpt lat="43.60717" lon="3.72059">
        <ele>190.3</ele>
        <time>2021-02-07T13:36:09Z</time>
      </trkpt>
      <trkpt lat="43.60717" lon="3.72056">
        <ele>190.3</ele>
        <time>2021-02-07T13:36:11Z</time>
      </trkpt>
      <trkpt lat="43.60718" lon="3.72052">
        <ele>190.9</ele>
        <time>2021-02-07T13:36:13Z</time>
      </trkpt>
      <trkpt lat="43.60718" lon="3.72048">
        <ele>191.3</ele>
        <time>2021-02-07T13:36:15Z</time>
      </trkpt>
      <trkpt lat="43.60718" lon="3.72044">
        <ele>191.7</ele>
        <time>2021-02-07T13:36:17Z</time>
      </trkpt>
      <trkpt lat="43.60717" lon="3.72041">
        <ele>191.7</ele>
        <time>2021-02-07T13:36:19Z</time>
      </trkpt>
      <trkpt lat="43.60716" lon="3.72037">
        <ele>191.8</ele>
        <time>2021-02-07T13:36:21Z</time>
      </trkpt>
      <trkpt lat="43.60716" lon="3.72034">
        <ele>192.1</ele>
        <time>2021-02-07T13:36:22Z</time>
      </trkpt>
      <trkpt lat="43.60715" lon="3.72031">
        <ele>192.1</ele>
        <time>2021-02-07T13:36:23Z</time>
      </trkpt>
      <trkpt lat="43.60715" lon="3.72029">
        <ele>195</ele>
        <time>2021-02-07T13:36:24Z</time>
      </trkpt>
      <trkpt lat="43.60714" lon="3.72025">
        <ele>192.9</ele>
        <time>2021-02-07T13:36:26Z</time>
      </trkpt>
      <trkpt lat="43.60714" lon="3.72022">
        <ele>193.5</ele>
        <time>2021-02-07T13:36:28Z</time>
      </trkpt>
      <trkpt lat="43.60713" lon="3.72018">
        <ele>194.2</ele>
        <time>2021-02-07T13:36:30Z</time>
      </trkpt>
      <trkpt lat="43.60712" lon="3.72015">
        <ele>194.7</ele>
        <time>2021-02-07T13:36:32Z</time>
      </trkpt>
      <trkpt lat="43.6071" lon="3.72013">
        <ele>197</ele>
        <time>2021-02-07T13:36:34Z</time>
      </trkpt>
      <trkpt lat="43.60708" lon="3.7201">
        <ele>195.1</ele>
        <time>2021-02-07T13:36:36Z</time>
      </trkpt>
      <trkpt lat="43.60706" lon="3.72008">
        <ele>195.2</ele>
        <time>2021-02-07T13:36:38Z</time>
      </trkpt>
      <trkpt lat="43.60704" lon="3.72005">
        <ele>195.5</ele>
        <time>2021-02-07T13:36:40Z</time>
      </trkpt>
      <trkpt lat="43.60703" lon="3.72003">
        <ele>195.8</ele>
        <time>2021-02-07T13:36:42Z</time>
      </trkpt>
      <trkpt lat="43.60701" lon="3.72001">
        <ele>198</ele>
        <time>2021-02-07T13:36:44Z</time>
      </trkpt>
      <trkpt lat="43.60699" lon="3.71998">
        <ele>196.2</ele>
        <time>2021-02-07T13:36:46Z</time>
      </trkpt>
      <trkpt lat="43.60698" lon="3.71995">
        <ele>196.7</ele>
        <time>2021-02-07T13:36:48Z</time>
      </trkpt>
      <trkpt lat="43.60696" lon="3.71993">
        <ele>196.8</ele>
        <time>2021-02-07T13:36:50Z</time>
      </trkpt>
      <trkpt lat="43.60694" lon="3.7199">
        <ele>197.1</ele>
        <time>2021-02-07T13:36:52Z</time>
      </trkpt>
      <trkpt lat="43.60692" lon="3.71988">
        <ele>200</ele>
        <time>2021-02-07T13:36:54Z</time>
      </trkpt>
      <trkpt lat="43.6069" lon="3.71985">
        <ele>197.8</ele>
        <time>2021-02-07T13:36:56Z</time>
      </trkpt>
      <trkpt lat="43.60689" lon="3.71983">
        <ele>198.1</ele>
        <time>2021-02-07T13:36:58Z</time>
      </trkpt>
      <trkpt lat="43.60687" lon="3.7198">
        <ele>198.5</ele>
        <time>2021-02-07T13:37:00Z</time>
      </trkpt>
      <trkpt lat="43.60685" lon="3.71977">
        <ele>198.9</ele>
        <time>2021-02-07T13:37:02Z</time>
      </trkpt>
      <trkpt lat="43.60683" lon="3.71974">
        <ele>202</ele>
        <time>2021-02-07T13:37:04Z</time>
      </trkpt>
      <trkpt lat="43.60682" lon="3.71971">
        <ele>199.8</ele>
        <time>2021-02-07T13:37:06Z</time>
      </trkpt>
      <trkpt lat="43.6068" lon="3.71968">
        <ele>200</ele>
        <time>2021-02-07T13:37:08Z</time>
      </trkpt>
      <trkpt lat="43.60679" lon="3.71964">
        <ele>200.5</ele>
        <time>2021-02-07T13:37:10Z</time>
      </trkpt>
      <trkpt lat="43.60679" lon="3.71961">
        <ele>200.9</ele>
        <time>2021-02-07T13:37:12Z</time>
      </trkpt>
      <trkpt lat="43.60679" lon="3.71958">
        <ele>204</ele>
        <time>2021-02-07T13:37:14Z</time>
      </trkpt>
      <trkpt lat="43.60678" lon="3.71955">
        <ele>201.7</ele>
        <time>2021-02-07T13:37:16Z</time>
      </trkpt>
      <trkpt lat="43.60676" lon="3.71951">
        <ele>202.1</ele>
        <time>2021-02-07T13:37:19Z</time>
      </trkpt>
      <trkpt lat="43.60677" lon="3.71948">
        <ele>202.6</ele>
        <time>2021-02-07T13:37:21Z</time>
      </trkpt>
      <trkpt lat="43.60677" lon="3.71947">
        <ele>205</ele>
        <time>2021-02-07T13:37:27Z</time>
      </trkpt>
      <trkpt lat="43.60675" lon="3.7194">
        <ele>206</ele>
        <time>2021-02-07T13:37:49Z</time>
      </trkpt>
      <trkpt lat="43.60674" lon="3.71936">
        <ele>203.7</ele>
        <time>2021-02-07T13:37:50Z</time>
      </trkpt>
      <trkpt lat="43.60674" lon="3.71932">
        <ele>204.1</ele>
        <time>2021-02-07T13:37:52Z</time>
      </trkpt>
      <trkpt lat="43.60673" lon="3.71928">
        <ele>204.5</ele>
        <time>2021-02-07T13:37:54Z</time>
      </trkpt>
      <trkpt lat="43.60673" lon="3.71924">
        <ele>204.9</ele>
        <time>2021-02-07T13:37:56Z</time>
      </trkpt>
      <trkpt lat="43.60672" lon="3.7192">
        <ele>207</ele>
        <time>2021-02-07T13:37:58Z</time>
      </trkpt>
      <trkpt lat="43.6067" lon="3.71916">
        <ele>205.4</ele>
        <time>2021-02-07T13:38:00Z</time>
      </trkpt>
      <trkpt lat="43.60669" lon="3.71911">
        <ele>205.5</ele>
        <time>2021-02-07T13:38:02Z</time>
      </trkpt>
      <trkpt lat="43.60668" lon="3.71907">
        <ele>205.5</ele>
        <time>2021-02-07T13:38:04Z</time>
      </trkpt>
      <trkpt lat="43.60668" lon="3.71903">
        <ele>205.6</ele>
        <time>2021-02-07T13:38:06Z</time>
      </trkpt>
      <trkpt lat="43.60667" lon="3.71899">
        <ele>205.7</ele>
        <time>2021-02-07T13:38:08Z</time>
      </trkpt>
      <trkpt lat="43.60666" lon="3.71895">
        <ele>205.7</ele>
        <time>2021-02-07T13:38:10Z</time>
      </trkpt>
      <trkpt lat="43.60665" lon="3.7189">
        <ele>205.8</ele>
        <time>2021-02-07T13:38:12Z</time>
      </trkpt>
      <trkpt lat="43.60665" lon="3.71887">
        <ele>205.8</ele>
        <time>2021-02-07T13:38:13Z</time>
      </trkpt>
      <trkpt lat="43.60665" lon="3.71885">
        <ele>205.7</ele>
        <time>2021-02-07T13:38:14Z</time>
      </trkpt>
      <trkpt lat="43.60664" lon="3.71882">
        <ele>205.5</ele>
        <time>2021-02-07T13:38:15Z</time>
      </trkpt>
      <trkpt lat="43.60664" lon="3.7188">
        <ele>205.5</ele>
        <time>2021-02-07T13:38:16Z</time>
      </trkpt>
      <trkpt lat="43.60663" lon="3.71877">
        <ele>205.3</ele>
        <time>2021-02-07T13:38:17Z</time>
      </trkpt>
      <trkpt lat="43.60662" lon="3.71873">
        <ele>205.1</ele>
        <time>2021-02-07T13:38:19Z</time>
      </trkpt>
      <trkpt lat="43.60661" lon="3.71869">
        <ele>205</ele>
        <time>2021-02-07T13:38:21Z</time>
      </trkpt>
      <trkpt lat="43.60661" lon="3.71866">
        <ele>204.9</ele>
        <time>2021-02-07T13:38:23Z</time>
      </trkpt>
      <trkpt lat="43.60661" lon="3.71863">
        <ele>204.8</ele>
        <time>2021-02-07T13:38:25Z</time>
      </trkpt>
      <trkpt lat="43.6066" lon="3.7186">
        <ele>204.7</ele>
        <time>2021-02-07T13:38:27Z</time>
      </trkpt>
      <trkpt lat="43.60661" lon="3.71857">
        <ele>204.7</ele>
        <time>2021-02-07T13:38:29Z</time>
      </trkpt>
      <trkpt lat="43.60664" lon="3.71856">
        <ele>204.7</ele>
        <time>2021-02-07T13:38:31Z</time>
      </trkpt>
      <trkpt lat="43.60666" lon="3.71859">
        <ele>204.9</ele>
        <time>2021-02-07T13:38:33Z</time>
      </trkpt>
      <trkpt lat="43.60667" lon="3.71863">
        <ele>205.1</ele>
        <time>2021-02-07T13:38:35Z</time>
      </trkpt>
      <trkpt lat="43.60666" lon="3.71866">
        <ele>205.1</ele>
        <time>2021-02-07T13:38:37Z</time>
      </trkpt>
      <trkpt lat="43.60664" lon="3.71866">
        <ele>205</ele>
        <time>2021-02-07T13:38:39Z</time>
      </trkpt>
      <trkpt lat="43.60662" lon="3.71865">
        <ele>204.9</ele>
        <time>2021-02-07T13:38:41Z</time>
      </trkpt>
      <trkpt lat="43.60661" lon="3.71862">
        <ele>204.8</ele>
        <time>2021-02-07T13:38:43Z</time>
      </trkpt>
      <trkpt lat="43.60661" lon="3.71858">
        <ele>204.7</ele>
        <time>2021-02-07T13:38:46Z</time>
      </trkpt>
      <trkpt lat="43.60662" lon="3.71855">
        <ele>205</ele>
        <time>2021-02-07T13:38:48Z</time>
      </trkpt>
      <trkpt lat="43.60661" lon="3.7185">
        <ele>204.5</ele>
        <time>2021-02-07T13:38:50Z</time>
      </trkpt>
      <trkpt lat="43.6066" lon="3.71848">
        <ele>204.4</ele>
        <time>2021-02-07T13:38:51Z</time>
      </trkpt>
      <trkpt lat="43.60658" lon="3.71846">
        <ele>204.3</ele>
        <time>2021-02-07T13:38:52Z</time>
      </trkpt>
      <trkpt lat="43.60657" lon="3.71844">
        <ele>204.3</ele>
        <time>2021-02-07T13:38:53Z</time>
      </trkpt>
      <trkpt lat="43.60656" lon="3.71841">
        <ele>204.2</ele>
        <time>2021-02-07T13:38:54Z</time>
      </trkpt>
      <trkpt lat="43.60655" lon="3.71838">
        <ele>204.1</ele>
        <time>2021-02-07T13:38:55Z</time>
      </trkpt>
      <trkpt lat="43.60654" lon="3.71835">
        <ele>204</ele>
        <time>2021-02-07T13:38:56Z</time>
      </trkpt>
      <trkpt lat="43.60653" lon="3.71831">
        <ele>203.7</ele>
        <time>2021-02-07T13:38:57Z</time>
      </trkpt>
      <trkpt lat="43.60653" lon="3.71826">
        <ele>204</ele>
        <time>2021-02-07T13:38:58Z</time>
      </trkpt>
      <trkpt lat="43.60653" lon="3.71823">
        <ele>202.5</ele>
        <time>2021-02-07T13:38:59Z</time>
      </trkpt>
      <trkpt lat="43.60654" lon="3.7182">
        <ele>202</ele>
        <time>2021-02-07T13:39:00Z</time>
      </trkpt>
      <trkpt lat="43.60653" lon="3.71818">
        <ele>201.8</ele>
        <time>2021-02-07T13:39:01Z</time>
      </trkpt>
      <trkpt lat="43.60653" lon="3.71814">
        <ele>201.2</ele>
        <time>2021-02-07T13:39:02Z</time>
      </trkpt>
      <trkpt lat="43.60652" lon="3.71811">
        <ele>200.8</ele>
        <time>2021-02-07T13:39:03Z</time>
      </trkpt>
      <trkpt lat="43.60651" lon="3.71807">
        <ele>200.3</ele>
        <time>2021-02-07T13:39:04Z</time>
      </trkpt>
      <trkpt lat="43.60649" lon="3.71802">
        <ele>199.8</ele>
        <time>2021-02-07T13:39:05Z</time>
      </trkpt>
      <trkpt lat="43.60647" lon="3.71797">
        <ele>199.3</ele>
        <time>2021-02-07T13:39:06Z</time>
      </trkpt>
      <trkpt lat="43.60645" lon="3.71791">
        <ele>198.8</ele>
        <time>2021-02-07T13:39:07Z</time>
      </trkpt>
      <trkpt lat="43.60642" lon="3.71786">
        <ele>202</ele>
        <time>2021-02-07T13:39:08Z</time>
      </trkpt>
      <trkpt lat="43.60639" lon="3.7178">
        <ele>198.2</ele>
        <time>2021-02-07T13:39:09Z</time>
      </trkpt>
      <trkpt lat="43.60637" lon="3.71775">
        <ele>197.9</ele>
        <time>2021-02-07T13:39:10Z</time>
      </trkpt>
      <trkpt lat="43.60635" lon="3.71769">
        <ele>197.3</ele>
        <time>2021-02-07T13:39:11Z</time>
      </trkpt>
      <trkpt lat="43.60632" lon="3.71765">
        <ele>197.3</ele>
        <time>2021-02-07T13:39:12Z</time>
      </trkpt>
      <trkpt lat="43.6063" lon="3.7176">
        <ele>196.9</ele>
        <time>2021-02-07T13:39:13Z</time>
      </trkpt>
      <trkpt lat="43.60628" lon="3.71756">
        <ele>196.7</ele>
        <time>2021-02-07T13:39:14Z</time>
      </trkpt>
      <trkpt lat="43.60626" lon="3.71751">
        <ele>196.4</ele>
        <time>2021-02-07T13:39:15Z</time>
      </trkpt>
      <trkpt lat="43.60623" lon="3.71746">
        <ele>196.1</ele>
        <time>2021-02-07T13:39:16Z</time>
      </trkpt>
      <trkpt lat="43.60621" lon="3.71741">
        <ele>195.5</ele>
        <time>2021-02-07T13:39:17Z</time>
      </trkpt>
      <trkpt lat="43.60619" lon="3.71736">
        <ele>201</ele>
        <time>2021-02-07T13:39:18Z</time>
      </trkpt>
      <trkpt lat="43.60616" lon="3.71731">
        <ele>194.6</ele>
        <time>2021-02-07T13:39:19Z</time>
      </trkpt>
      <trkpt lat="43.60613" lon="3.71726">
        <ele>194.3</ele>
        <time>2021-02-07T13:39:20Z</time>
      </trkpt>
      <trkpt lat="43.6061" lon="3.71721">
        <ele>194.3</ele>
        <time>2021-02-07T13:39:21Z</time>
      </trkpt>
      <trkpt lat="43.6061" lon="3.71714">
        <ele>194.6</ele>
        <time>2021-02-07T13:39:22Z</time>
      </trkpt>
      <trkpt lat="43.6061" lon="3.71709">
        <ele>194.8</ele>
        <time>2021-02-07T13:39:23Z</time>
      </trkpt>
      <trkpt lat="43.60611" lon="3.71704">
        <ele>194.7</ele>
        <time>2021-02-07T13:39:24Z</time>
      </trkpt>
      <trkpt lat="43.60612" lon="3.71701">
        <ele>194.6</ele>
        <time>2021-02-07T13:39:25Z</time>
      </trkpt>
      <trkpt lat="43.60614" lon="3.71698">
        <ele>194.2</ele>
        <time>2021-02-07T13:39:26Z</time>
      </trkpt>
      <trkpt lat="43.60615" lon="3.71695">
        <ele>194.1</ele>
        <time>2021-02-07T13:39:27Z</time>
      </trkpt>
      <trkpt lat="43.60617" lon="3.71693">
        <ele>201</ele>
        <time>2021-02-07T13:39:28Z</time>
      </trkpt>
      <trkpt lat="43.60619" lon="3.71691">
        <ele>194</ele>
        <time>2021-02-07T13:39:29Z</time>
      </trkpt>
      <trkpt lat="43.6062" lon="3.71689">
        <ele>194.1</ele>
        <time>2021-02-07T13:39:30Z</time>
      </trkpt>
      <trkpt lat="43.60623" lon="3.71687">
        <ele>193.9</ele>
        <time>2021-02-07T13:39:31Z</time>
      </trkpt>
      <trkpt lat="43.60625" lon="3.71685">
        <ele>193.9</ele>
        <time>2021-02-07T13:39:32Z</time>
      </trkpt>
      <trkpt lat="43.60627" lon="3.71682">
        <ele>194.1</ele>
        <time>2021-02-07T13:39:33Z</time>
      </trkpt>
      <trkpt lat="43.6063" lon="3.7168">
        <ele>193.9</ele>
        <time>2021-02-07T13:39:34Z</time>
      </trkpt>
      <trkpt lat="43.60633" lon="3.71678">
        <ele>193.7</ele>
        <time>2021-02-07T13:39:35Z</time>
      </trkpt>
      <trkpt lat="43.60637" lon="3.71676">
        <ele>193.3</ele>
        <time>2021-02-07T13:39:36Z</time>
      </trkpt>
      <trkpt lat="43.60641" lon="3.71675">
        <ele>192.9</ele>
        <time>2021-02-07T13:39:37Z</time>
      </trkpt>
      <trkpt lat="43.60644" lon="3.71672">
        <ele>199</ele>
        <time>2021-02-07T13:39:38Z</time>
      </trkpt>
      <trkpt lat="43.60648" lon="3.7167">
        <ele>193.3</ele>
        <time>2021-02-07T13:39:39Z</time>
      </trkpt>
      <trkpt lat="43.60652" lon="3.71669">
        <ele>193</ele>
        <time>2021-02-07T13:39:40Z</time>
      </trkpt>
      <trkpt lat="43.60656" lon="3.71668">
        <ele>192.8</ele>
        <time>2021-02-07T13:39:41Z</time>
      </trkpt>
      <trkpt lat="43.60659" lon="3.71667">
        <ele>192.7</ele>
        <time>2021-02-07T13:39:42Z</time>
      </trkpt>
      <trkpt lat="43.60662" lon="3.71666">
        <ele>192.6</ele>
        <time>2021-02-07T13:39:43Z</time>
      </trkpt>
      <trkpt lat="43.60665" lon="3.71665">
        <ele>192.4</ele>
        <time>2021-02-07T13:39:44Z</time>
      </trkpt>
      <trkpt lat="43.60668" lon="3.71664">
        <ele>192.2</ele>
        <time>2021-02-07T13:39:45Z</time>
      </trkpt>
      <trkpt lat="43.60671" lon="3.71663">
        <ele>191.9</ele>
        <time>2021-02-07T13:39:46Z</time>
      </trkpt>
      <trkpt lat="43.60674" lon="3.71662">
        <ele>191.6</ele>
        <time>2021-02-07T13:39:47Z</time>
      </trkpt>
      <trkpt lat="43.60677" lon="3.71661">
        <ele>196</ele>
        <time>2021-02-07T13:39:48Z</time>
      </trkpt>
      <trkpt lat="43.6068" lon="3.7166">
        <ele>190.9</ele>
        <time>2021-02-07T13:39:49Z</time>
      </trkpt>
      <trkpt lat="43.60683" lon="3.71658">
        <ele>190.7</ele>
        <time>2021-02-07T13:39:50Z</time>
      </trkpt>
      <trkpt lat="43.60686" lon="3.71656">
        <ele>190.5</ele>
        <time>2021-02-07T13:39:51Z</time>
      </trkpt>
      <trkpt lat="43.60689" lon="3.71654">
        <ele>190.2</ele>
        <time>2021-02-07T13:39:52Z</time>
      </trkpt>
      <trkpt lat="43.60692" lon="3.71652">
        <ele>190</ele>
        <time>2021-02-07T13:39:53Z</time>
      </trkpt>
      <trkpt lat="43.60694" lon="3.7165">
        <ele>189.9</ele>
        <time>2021-02-07T13:39:54Z</time>
      </trkpt>
      <trkpt lat="43.60697" lon="3.71647">
        <ele>189.4</ele>
        <time>2021-02-07T13:39:55Z</time>
      </trkpt>
      <trkpt lat="43.607" lon="3.71644">
        <ele>188.9</ele>
        <time>2021-02-07T13:39:56Z</time>
      </trkpt>
      <trkpt lat="43.60703" lon="3.7164">
        <ele>188.4</ele>
        <time>2021-02-07T13:39:57Z</time>
      </trkpt>
      <trkpt lat="43.60705" lon="3.71637">
        <ele>194</ele>
        <time>2021-02-07T13:39:58Z</time>
      </trkpt>
      <trkpt lat="43.60707" lon="3.71633">
        <ele>187.7</ele>
        <time>2021-02-07T13:39:59Z</time>
      </trkpt>
      <trkpt lat="43.60709" lon="3.71629">
        <ele>187.3</ele>
        <time>2021-02-07T13:40:00Z</time>
      </trkpt>
      <trkpt lat="43.6071" lon="3.71625">
        <ele>187.2</ele>
        <time>2021-02-07T13:40:01Z</time>
      </trkpt>
      <trkpt lat="43.60711" lon="3.7162">
        <ele>187.2</ele>
        <time>2021-02-07T13:40:02Z</time>
      </trkpt>
      <trkpt lat="43.60712" lon="3.71615">
        <ele>187.1</ele>
        <time>2021-02-07T13:40:03Z</time>
      </trkpt>
      <trkpt lat="43.60712" lon="3.71611">
        <ele>187.3</ele>
        <time>2021-02-07T13:40:04Z</time>
      </trkpt>
      <trkpt lat="43.60713" lon="3.71606">
        <ele>187</ele>
        <time>2021-02-07T13:40:05Z</time>
      </trkpt>
      <trkpt lat="43.60713" lon="3.71602">
        <ele>187</ele>
        <time>2021-02-07T13:40:06Z</time>
      </trkpt>
      <trkpt lat="43.60713" lon="3.71597">
        <ele>187</ele>
        <time>2021-02-07T13:40:07Z</time>
      </trkpt>
      <trkpt lat="43.60714" lon="3.71593">
        <ele>192</ele>
        <time>2021-02-07T13:40:08Z</time>
      </trkpt>
      <trkpt lat="43.60714" lon="3.71589">
        <ele>186.7</ele>
        <time>2021-02-07T13:40:09Z</time>
      </trkpt>
      <trkpt lat="43.60714" lon="3.71585">
        <ele>186.7</ele>
        <time>2021-02-07T13:40:10Z</time>
      </trkpt>
      <trkpt lat="43.60714" lon="3.71581">
        <ele>186.5</ele>
        <time>2021-02-07T13:40:11Z</time>
      </trkpt>
      <trkpt lat="43.60714" lon="3.71577">
        <ele>186.3</ele>
        <time>2021-02-07T13:40:12Z</time>
      </trkpt>
      <trkpt lat="43.60714" lon="3.71573">
        <ele>186.1</ele>
        <time>2021-02-07T13:40:13Z</time>
      </trkpt>
      <trkpt lat="43.60714" lon="3.71569">
        <ele>185.8</ele>
        <time>2021-02-07T13:40:14Z</time>
      </trkpt>
      <trkpt lat="43.60713" lon="3.71565">
        <ele>185.9</ele>
        <time>2021-02-07T13:40:15Z</time>
      </trkpt>
      <trkpt lat="43.60713" lon="3.71561">
        <ele>185.7</ele>
        <time>2021-02-07T13:40:16Z</time>
      </trkpt>
      <trkpt lat="43.60712" lon="3.71557">
        <ele>185.7</ele>
        <time>2021-02-07T13:40:17Z</time>
      </trkpt>
      <trkpt lat="43.60711" lon="3.71553">
        <ele>185.5</ele>
        <time>2021-02-07T13:40:18Z</time>
      </trkpt>
      <trkpt lat="43.60711" lon="3.7155">
        <ele>190</ele>
        <time>2021-02-07T13:40:19Z</time>
      </trkpt>
      <trkpt lat="43.6071" lon="3.71546">
        <ele>184.9</ele>
        <time>2021-02-07T13:40:20Z</time>
      </trkpt>
      <trkpt lat="43.6071" lon="3.71543">
        <ele>184.5</ele>
        <time>2021-02-07T13:40:21Z</time>
      </trkpt>
      <trkpt lat="43.6071" lon="3.71538">
        <ele>183.9</ele>
        <time>2021-02-07T13:40:23Z</time>
      </trkpt>
      <trkpt lat="43.60709" lon="3.71536">
        <ele>183.9</ele>
        <time>2021-02-07T13:40:24Z</time>
      </trkpt>
      <trkpt lat="43.60709" lon="3.71532">
        <ele>183.4</ele>
        <time>2021-02-07T13:40:25Z</time>
      </trkpt>
      <trkpt lat="43.60708" lon="3.71528">
        <ele>183.1</ele>
        <time>2021-02-07T13:40:26Z</time>
      </trkpt>
      <trkpt lat="43.60706" lon="3.71523">
        <ele>182.8</ele>
        <time>2021-02-07T13:40:27Z</time>
      </trkpt>
      <trkpt lat="43.60705" lon="3.71517">
        <ele>188</ele>
        <time>2021-02-07T13:40:28Z</time>
      </trkpt>
      <trkpt lat="43.60703" lon="3.7151">
        <ele>181.3</ele>
        <time>2021-02-07T13:40:29Z</time>
      </trkpt>
      <trkpt lat="43.60702" lon="3.71503">
        <ele>180.4</ele>
        <time>2021-02-07T13:40:30Z</time>
      </trkpt>
      <trkpt lat="43.607" lon="3.71496">
        <ele>179.6</ele>
        <time>2021-02-07T13:40:31Z</time>
      </trkpt>
      <trkpt lat="43.607" lon="3.71491">
        <ele>178.8</ele>
        <time>2021-02-07T13:40:32Z</time>
      </trkpt>
      <trkpt lat="43.60699" lon="3.71489">
        <ele>178.7</ele>
        <time>2021-02-07T13:40:33Z</time>
      </trkpt>
      <trkpt lat="43.60698" lon="3.71484">
        <ele>178.1</ele>
        <time>2021-02-07T13:40:35Z</time>
      </trkpt>
      <trkpt lat="43.60697" lon="3.71481">
        <ele>177.8</ele>
        <time>2021-02-07T13:40:36Z</time>
      </trkpt>
      <trkpt lat="43.60695" lon="3.71477">
        <ele>177.6</ele>
        <time>2021-02-07T13:40:37Z</time>
      </trkpt>
      <trkpt lat="43.60693" lon="3.71473">
        <ele>186</ele>
        <time>2021-02-07T13:40:38Z</time>
      </trkpt>
      <trkpt lat="43.60691" lon="3.71468">
        <ele>176.9</ele>
        <time>2021-02-07T13:40:39Z</time>
      </trkpt>
      <trkpt lat="43.60689" lon="3.71462">
        <ele>176.4</ele>
        <time>2021-02-07T13:40:40Z</time>
      </trkpt>
      <trkpt lat="43.60688" lon="3.71456">
        <ele>175.8</ele>
        <time>2021-02-07T13:40:41Z</time>
      </trkpt>
      <trkpt lat="43.60687" lon="3.71452">
        <ele>175.4</ele>
        <time>2021-02-07T13:40:42Z</time>
      </trkpt>
      <trkpt lat="43.60686" lon="3.71447">
        <ele>174.9</ele>
        <time>2021-02-07T13:40:43Z</time>
      </trkpt>
      <trkpt lat="43.60685" lon="3.71443">
        <ele>174.5</ele>
        <time>2021-02-07T13:40:44Z</time>
      </trkpt>
      <trkpt lat="43.60684" lon="3.7144">
        <ele>174.3</ele>
        <time>2021-02-07T13:40:45Z</time>
      </trkpt>
      <trkpt lat="43.60684" lon="3.71436">
        <ele>173.8</ele>
        <time>2021-02-07T13:40:46Z</time>
      </trkpt>
      <trkpt lat="43.60683" lon="3.71432">
        <ele>173.5</ele>
        <time>2021-02-07T13:40:47Z</time>
      </trkpt>
      <trkpt lat="43.60682" lon="3.71429">
        <ele>181</ele>
        <time>2021-02-07T13:40:48Z</time>
      </trkpt>
      <trkpt lat="43.60682" lon="3.71425">
        <ele>172.8</ele>
        <time>2021-02-07T13:40:49Z</time>
      </trkpt>
      <trkpt lat="43.60681" lon="3.71422">
        <ele>172.5</ele>
        <time>2021-02-07T13:40:50Z</time>
      </trkpt>
      <trkpt lat="43.6068" lon="3.71419">
        <ele>172.3</ele>
        <time>2021-02-07T13:40:51Z</time>
      </trkpt>
      <trkpt lat="43.6068" lon="3.71415">
        <ele>172</ele>
        <time>2021-02-07T13:40:52Z</time>
      </trkpt>
      <trkpt lat="43.6068" lon="3.71412">
        <ele>171.9</ele>
        <time>2021-02-07T13:40:53Z</time>
      </trkpt>
      <trkpt lat="43.60681" lon="3.7141">
        <ele>171.9</ele>
        <time>2021-02-07T13:40:54Z</time>
      </trkpt>
      <trkpt lat="43.60683" lon="3.71409">
        <ele>171.8</ele>
        <time>2021-02-07T13:40:56Z</time>
      </trkpt>
      <trkpt lat="43.60683" lon="3.71409">
        <ele>179</ele>
        <time>2021-02-07T13:41:02Z</time>
      </trkpt>
      <trkpt lat="43.60689" lon="3.71419">
        <ele>174</ele>
        <time>2021-02-07T13:43:19Z</time>
      </trkpt>
      <trkpt lat="43.60691" lon="3.71423">
        <ele>171.9</ele>
        <time>2021-02-07T13:43:20Z</time>
      </trkpt>
      <trkpt lat="43.60694" lon="3.71427">
        <ele>172.1</ele>
        <time>2021-02-07T13:43:21Z</time>
      </trkpt>
      <trkpt lat="43.60696" lon="3.71432">
        <ele>172.4</ele>
        <time>2021-02-07T13:43:22Z</time>
      </trkpt>
      <trkpt lat="43.60699" lon="3.71436">
        <ele>172.2</ele>
        <time>2021-02-07T13:43:23Z</time>
      </trkpt>
      <trkpt lat="43.60702" lon="3.71439">
        <ele>171.9</ele>
        <time>2021-02-07T13:43:24Z</time>
      </trkpt>
      <trkpt lat="43.60705" lon="3.71443">
        <ele>171.6</ele>
        <time>2021-02-07T13:43:25Z</time>
      </trkpt>
      <trkpt lat="43.60707" lon="3.71445">
        <ele>171.4</ele>
        <time>2021-02-07T13:43:26Z</time>
      </trkpt>
      <trkpt lat="43.60709" lon="3.71447">
        <ele>171.2</ele>
        <time>2021-02-07T13:43:27Z</time>
      </trkpt>
      <trkpt lat="43.60712" lon="3.7145">
        <ele>170.9</ele>
        <time>2021-02-07T13:43:28Z</time>
      </trkpt>
      <trkpt lat="43.60715" lon="3.71452">
        <ele>174</ele>
        <time>2021-02-07T13:43:29Z</time>
      </trkpt>
      <trkpt lat="43.60717" lon="3.71453">
        <ele>170.3</ele>
        <time>2021-02-07T13:43:30Z</time>
      </trkpt>
      <trkpt lat="43.60719" lon="3.71455">
        <ele>170.2</ele>
        <time>2021-02-07T13:43:31Z</time>
      </trkpt>
      <trkpt lat="43.60721" lon="3.71457">
        <ele>170.1</ele>
        <time>2021-02-07T13:43:32Z</time>
      </trkpt>
      <trkpt lat="43.60723" lon="3.71458">
        <ele>169.9</ele>
        <time>2021-02-07T13:43:33Z</time>
      </trkpt>
      <trkpt lat="43.60724" lon="3.7146">
        <ele>170</ele>
        <time>2021-02-07T13:43:34Z</time>
      </trkpt>
      <trkpt lat="43.60727" lon="3.71461">
        <ele>169.9</ele>
        <time>2021-02-07T13:43:35Z</time>
      </trkpt>
      <trkpt lat="43.60729" lon="3.71462">
        <ele>169.8</ele>
        <time>2021-02-07T13:43:36Z</time>
      </trkpt>
      <trkpt lat="43.60731" lon="3.71463">
        <ele>169.7</ele>
        <time>2021-02-07T13:43:37Z</time>
      </trkpt>
      <trkpt lat="43.60733" lon="3.71464">
        <ele>169.7</ele>
        <time>2021-02-07T13:43:38Z</time>
      </trkpt>
      <trkpt lat="43.60735" lon="3.71465">
        <ele>173</ele>
        <time>2021-02-07T13:43:39Z</time>
      </trkpt>
      <trkpt lat="43.60737" lon="3.71465">
        <ele>169.4</ele>
        <time>2021-02-07T13:43:40Z</time>
      </trkpt>
      <trkpt lat="43.60741" lon="3.71465">
        <ele>168.9</ele>
        <time>2021-02-07T13:43:41Z</time>
      </trkpt>
      <trkpt lat="43.60744" lon="3.71464">
        <ele>168.5</ele>
        <time>2021-02-07T13:43:42Z</time>
      </trkpt>
      <trkpt lat="43.60747" lon="3.71465">
        <ele>168.3</ele>
        <time>2021-02-07T13:43:43Z</time>
      </trkpt>
      <trkpt lat="43.6075" lon="3.71465">
        <ele>168</ele>
        <time>2021-02-07T13:43:44Z</time>
      </trkpt>
      <trkpt lat="43.60753" lon="3.71465">
        <ele>167.5</ele>
        <time>2021-02-07T13:43:45Z</time>
      </trkpt>
      <trkpt lat="43.60756" lon="3.71465">
        <ele>167</ele>
        <time>2021-02-07T13:43:46Z</time>
      </trkpt>
      <trkpt lat="43.60758" lon="3.71466">
        <ele>166.9</ele>
        <time>2021-02-07T13:43:47Z</time>
      </trkpt>
      <trkpt lat="43.6076" lon="3.71467">
        <ele>173</ele>
        <time>2021-02-07T13:43:48Z</time>
      </trkpt>
      <trkpt lat="43.60763" lon="3.71469">
        <ele>166.4</ele>
        <time>2021-02-07T13:43:49Z</time>
      </trkpt>
      <trkpt lat="43.60766" lon="3.71471">
        <ele>166</ele>
        <time>2021-02-07T13:43:50Z</time>
      </trkpt>
      <trkpt lat="43.60768" lon="3.71473">
        <ele>165.9</ele>
        <time>2021-02-07T13:43:51Z</time>
      </trkpt>
      <trkpt lat="43.6077" lon="3.71475">
        <ele>165.8</ele>
        <time>2021-02-07T13:43:52Z</time>
      </trkpt>
      <trkpt lat="43.60773" lon="3.71478">
        <ele>165.7</ele>
        <time>2021-02-07T13:43:53Z</time>
      </trkpt>
      <trkpt lat="43.60774" lon="3.71481">
        <ele>165.9</ele>
        <time>2021-02-07T13:43:54Z</time>
      </trkpt>
      <trkpt lat="43.60776" lon="3.71483">
        <ele>165.9</ele>
        <time>2021-02-07T13:43:55Z</time>
      </trkpt>
      <trkpt lat="43.60778" lon="3.71487">
        <ele>166.1</ele>
        <time>2021-02-07T13:43:56Z</time>
      </trkpt>
      <trkpt lat="43.6078" lon="3.71491">
        <ele>166.4</ele>
        <time>2021-02-07T13:43:57Z</time>
      </trkpt>
      <trkpt lat="43.60782" lon="3.71496">
        <ele>166.7</ele>
        <time>2021-02-07T13:43:58Z</time>
      </trkpt>
      <trkpt lat="43.60784" lon="3.71501">
        <ele>172</ele>
        <time>2021-02-07T13:43:59Z</time>
      </trkpt>
      <trkpt lat="43.60786" lon="3.71506">
        <ele>166.6</ele>
        <time>2021-02-07T13:44:00Z</time>
      </trkpt>
      <trkpt lat="43.60786" lon="3.71512">
        <ele>166.6</ele>
        <time>2021-02-07T13:44:01Z</time>
      </trkpt>
      <trkpt lat="43.60786" lon="3.71517">
        <ele>166.7</ele>
        <time>2021-02-07T13:44:02Z</time>
      </trkpt>
      <trkpt lat="43.60786" lon="3.71522">
        <ele>166.8</ele>
        <time>2021-02-07T13:44:03Z</time>
      </trkpt>
      <trkpt lat="43.60785" lon="3.71526">
        <ele>166.9</ele>
        <time>2021-02-07T13:44:04Z</time>
      </trkpt>
      <trkpt lat="43.60785" lon="3.71531">
        <ele>166.8</ele>
        <time>2021-02-07T13:44:05Z</time>
      </trkpt>
      <trkpt lat="43.60783" lon="3.71536">
        <ele>166.8</ele>
        <time>2021-02-07T13:44:06Z</time>
      </trkpt>
      <trkpt lat="43.60782" lon="3.71541">
        <ele>166.6</ele>
        <time>2021-02-07T13:44:07Z</time>
      </trkpt>
      <trkpt lat="43.60781" lon="3.71545">
        <ele>172</ele>
        <time>2021-02-07T13:44:08Z</time>
      </trkpt>
      <trkpt lat="43.6078" lon="3.7155">
        <ele>166.2</ele>
        <time>2021-02-07T13:44:09Z</time>
      </trkpt>
      <trkpt lat="43.60778" lon="3.71554">
        <ele>166.1</ele>
        <time>2021-02-07T13:44:10Z</time>
      </trkpt>
      <trkpt lat="43.60777" lon="3.71558">
        <ele>166.2</ele>
        <time>2021-02-07T13:44:11Z</time>
      </trkpt>
      <trkpt lat="43.60775" lon="3.71562">
        <ele>166.8</ele>
        <time>2021-02-07T13:44:12Z</time>
      </trkpt>
      <trkpt lat="43.60774" lon="3.71566">
        <ele>167.1</ele>
        <time>2021-02-07T13:44:13Z</time>
      </trkpt>
      <trkpt lat="43.60773" lon="3.7157">
        <ele>167.4</ele>
        <time>2021-02-07T13:44:14Z</time>
      </trkpt>
      <trkpt lat="43.60772" lon="3.71574">
        <ele>167.7</ele>
        <time>2021-02-07T13:44:15Z</time>
      </trkpt>
      <trkpt lat="43.60772" lon="3.71579">
        <ele>167.7</ele>
        <time>2021-02-07T13:44:16Z</time>
      </trkpt>
      <trkpt lat="43.60772" lon="3.71584">
        <ele>167.7</ele>
        <time>2021-02-07T13:44:17Z</time>
      </trkpt>
      <trkpt lat="43.60772" lon="3.7159">
        <ele>172</ele>
        <time>2021-02-07T13:44:18Z</time>
      </trkpt>
      <trkpt lat="43.60772" lon="3.71595">
        <ele>167.6</ele>
        <time>2021-02-07T13:44:19Z</time>
      </trkpt>
      <trkpt lat="43.60771" lon="3.71601">
        <ele>167.8</ele>
        <time>2021-02-07T13:44:20Z</time>
      </trkpt>
      <trkpt lat="43.6077" lon="3.71607">
        <ele>168</ele>
        <time>2021-02-07T13:44:21Z</time>
      </trkpt>
      <trkpt lat="43.60769" lon="3.71612">
        <ele>168.2</ele>
        <time>2021-02-07T13:44:22Z</time>
      </trkpt>
      <trkpt lat="43.60768" lon="3.71618">
        <ele>168.5</ele>
        <time>2021-02-07T13:44:23Z</time>
      </trkpt>
      <trkpt lat="43.60767" lon="3.71623">
        <ele>168.8</ele>
        <time>2021-02-07T13:44:24Z</time>
      </trkpt>
      <trkpt lat="43.60766" lon="3.71628">
        <ele>169.1</ele>
        <time>2021-02-07T13:44:25Z</time>
      </trkpt>
      <trkpt lat="43.60766" lon="3.71633">
        <ele>169.1</ele>
        <time>2021-02-07T13:44:26Z</time>
      </trkpt>
      <trkpt lat="43.60765" lon="3.71638">
        <ele>169.3</ele>
        <time>2021-02-07T13:44:27Z</time>
      </trkpt>
      <trkpt lat="43.60765" lon="3.71643">
        <ele>169.4</ele>
        <time>2021-02-07T13:44:28Z</time>
      </trkpt>
      <trkpt lat="43.60764" lon="3.71648">
        <ele>172</ele>
        <time>2021-02-07T13:44:29Z</time>
      </trkpt>
      <trkpt lat="43.60764" lon="3.71653">
        <ele>169.7</ele>
        <time>2021-02-07T13:44:30Z</time>
      </trkpt>
      <trkpt lat="43.60763" lon="3.71658">
        <ele>170</ele>
        <time>2021-02-07T13:44:31Z</time>
      </trkpt>
      <trkpt lat="43.60763" lon="3.71662">
        <ele>170</ele>
        <time>2021-02-07T13:44:32Z</time>
      </trkpt>
      <trkpt lat="43.60762" lon="3.71667">
        <ele>170.3</ele>
        <time>2021-02-07T13:44:33Z</time>
      </trkpt>
      <trkpt lat="43.60762" lon="3.71671">
        <ele>170.3</ele>
        <time>2021-02-07T13:44:34Z</time>
      </trkpt>
      <trkpt lat="43.60762" lon="3.71675">
        <ele>170.2</ele>
        <time>2021-02-07T13:44:35Z</time>
      </trkpt>
      <trkpt lat="43.60762" lon="3.71679">
        <ele>170.2</ele>
        <time>2021-02-07T13:44:36Z</time>
      </trkpt>
      <trkpt lat="43.60761" lon="3.71683">
        <ele>170.3</ele>
        <time>2021-02-07T13:44:37Z</time>
      </trkpt>
      <trkpt lat="43.6076" lon="3.71687">
        <ele>172</ele>
        <time>2021-02-07T13:44:38Z</time>
      </trkpt>
      <trkpt lat="43.60759" lon="3.7169">
        <ele>170.4</ele>
        <time>2021-02-07T13:44:39Z</time>
      </trkpt>
      <trkpt lat="43.60759" lon="3.71694">
        <ele>170.4</ele>
        <time>2021-02-07T13:44:40Z</time>
      </trkpt>
      <trkpt lat="43.60758" lon="3.71697">
        <ele>170.6</ele>
        <time>2021-02-07T13:44:41Z</time>
      </trkpt>
      <trkpt lat="43.60757" lon="3.717">
        <ele>170.9</ele>
        <time>2021-02-07T13:44:42Z</time>
      </trkpt>
      <trkpt lat="43.60756" lon="3.71702">
        <ele>171.1</ele>
        <time>2021-02-07T13:44:43Z</time>
      </trkpt>
      <trkpt lat="43.60755" lon="3.71705">
        <ele>171.4</ele>
        <time>2021-02-07T13:44:44Z</time>
      </trkpt>
      <trkpt lat="43.60754" lon="3.71707">
        <ele>171.6</ele>
        <time>2021-02-07T13:44:45Z</time>
      </trkpt>
      <trkpt lat="43.60753" lon="3.71711">
        <ele>172</ele>
        <time>2021-02-07T13:44:47Z</time>
      </trkpt>
      <trkpt lat="43.60754" lon="3.71715">
        <ele>172.2</ele>
        <time>2021-02-07T13:44:49Z</time>
      </trkpt>
      <trkpt lat="43.60757" lon="3.71717">
        <ele>172.1</ele>
        <time>2021-02-07T13:44:51Z</time>
      </trkpt>
      <trkpt lat="43.60759" lon="3.71717">
        <ele>172</ele>
        <time>2021-02-07T13:44:52Z</time>
      </trkpt>
      <trkpt lat="43.60762" lon="3.71717">
        <ele>171.8</ele>
        <time>2021-02-07T13:44:53Z</time>
      </trkpt>
      <trkpt lat="43.60765" lon="3.71717">
        <ele>171.5</ele>
        <time>2021-02-07T13:44:54Z</time>
      </trkpt>
      <trkpt lat="43.60769" lon="3.71717">
        <ele>171.3</ele>
        <time>2021-02-07T13:44:55Z</time>
      </trkpt>
      <trkpt lat="43.60772" lon="3.71716">
        <ele>171</ele>
        <time>2021-02-07T13:44:56Z</time>
      </trkpt>
      <trkpt lat="43.60776" lon="3.71716">
        <ele>170.7</ele>
        <time>2021-02-07T13:44:57Z</time>
      </trkpt>
      <trkpt lat="43.60779" lon="3.71715">
        <ele>173</ele>
        <time>2021-02-07T13:44:58Z</time>
      </trkpt>
      <trkpt lat="43.60783" lon="3.71714">
        <ele>170.4</ele>
        <time>2021-02-07T13:44:59Z</time>
      </trkpt>
      <trkpt lat="43.60787" lon="3.71713">
        <ele>170.2</ele>
        <time>2021-02-07T13:45:00Z</time>
      </trkpt>
      <trkpt lat="43.6079" lon="3.71713">
        <ele>170.2</ele>
        <time>2021-02-07T13:45:01Z</time>
      </trkpt>
      <trkpt lat="43.60794" lon="3.71713">
        <ele>170.1</ele>
        <time>2021-02-07T13:45:02Z</time>
      </trkpt>
      <trkpt lat="43.60798" lon="3.71713">
        <ele>170.1</ele>
        <time>2021-02-07T13:45:03Z</time>
      </trkpt>
      <trkpt lat="43.60802" lon="3.71714">
        <ele>170.1</ele>
        <time>2021-02-07T13:45:04Z</time>
      </trkpt>
      <trkpt lat="43.60805" lon="3.71713">
        <ele>170</ele>
        <time>2021-02-07T13:45:05Z</time>
      </trkpt>
      <trkpt lat="43.60808" lon="3.71713">
        <ele>169.9</ele>
        <time>2021-02-07T13:45:06Z</time>
      </trkpt>
      <trkpt lat="43.60812" lon="3.71713">
        <ele>169.7</ele>
        <time>2021-02-07T13:45:07Z</time>
      </trkpt>
      <trkpt lat="43.60816" lon="3.71712">
        <ele>172</ele>
        <time>2021-02-07T13:45:08Z</time>
      </trkpt>
      <trkpt lat="43.6082" lon="3.71711">
        <ele>169.2</ele>
        <time>2021-02-07T13:45:09Z</time>
      </trkpt>
      <trkpt lat="43.60824" lon="3.71711">
        <ele>169</ele>
        <time>2021-02-07T13:45:10Z</time>
      </trkpt>
      <trkpt lat="43.60827" lon="3.7171">
        <ele>168.8</ele>
        <time>2021-02-07T13:45:11Z</time>
      </trkpt>
      <trkpt lat="43.60831" lon="3.71709">
        <ele>168.6</ele>
        <time>2021-02-07T13:45:12Z</time>
      </trkpt>
      <trkpt lat="43.60834" lon="3.71709">
        <ele>168.6</ele>
        <time>2021-02-07T13:45:13Z</time>
      </trkpt>
      <trkpt lat="43.60838" lon="3.71708">
        <ele>168.7</ele>
        <time>2021-02-07T13:45:14Z</time>
      </trkpt>
      <trkpt lat="43.60842" lon="3.71708">
        <ele>169</ele>
        <time>2021-02-07T13:45:15Z</time>
      </trkpt>
      <trkpt lat="43.60845" lon="3.71707">
        <ele>169.1</ele>
        <time>2021-02-07T13:45:16Z</time>
      </trkpt>
      <trkpt lat="43.60849" lon="3.71706">
        <ele>169.3</ele>
        <time>2021-02-07T13:45:17Z</time>
      </trkpt>
      <trkpt lat="43.60852" lon="3.71705">
        <ele>171</ele>
        <time>2021-02-07T13:45:18Z</time>
      </trkpt>
      <trkpt lat="43.60856" lon="3.71703">
        <ele>169.7</ele>
        <time>2021-02-07T13:45:19Z</time>
      </trkpt>
      <trkpt lat="43.60858" lon="3.717">
        <ele>169.8</ele>
        <time>2021-02-07T13:45:20Z</time>
      </trkpt>
      <trkpt lat="43.60859" lon="3.71695">
        <ele>169.8</ele>
        <time>2021-02-07T13:45:21Z</time>
      </trkpt>
      <trkpt lat="43.60859" lon="3.7169">
        <ele>169.7</ele>
        <time>2021-02-07T13:45:22Z</time>
      </trkpt>
      <trkpt lat="43.6086" lon="3.71685">
        <ele>169.6</ele>
        <time>2021-02-07T13:45:23Z</time>
      </trkpt>
      <trkpt lat="43.60861" lon="3.71679">
        <ele>169.4</ele>
        <time>2021-02-07T13:45:24Z</time>
      </trkpt>
      <trkpt lat="43.60861" lon="3.71673">
        <ele>169.2</ele>
        <time>2021-02-07T13:45:25Z</time>
      </trkpt>
      <trkpt lat="43.60862" lon="3.71668">
        <ele>169.4</ele>
        <time>2021-02-07T13:45:26Z</time>
      </trkpt>
      <trkpt lat="43.60862" lon="3.71662">
        <ele>169.2</ele>
        <time>2021-02-07T13:45:27Z</time>
      </trkpt>
      <trkpt lat="43.60862" lon="3.71657">
        <ele>169</ele>
        <time>2021-02-07T13:45:28Z</time>
      </trkpt>
      <trkpt lat="43.60862" lon="3.71653">
        <ele>168.8</ele>
        <time>2021-02-07T13:45:29Z</time>
      </trkpt>
      <trkpt lat="43.60862" lon="3.71648">
        <ele>168.6</ele>
        <time>2021-02-07T13:45:30Z</time>
      </trkpt>
      <trkpt lat="43.60862" lon="3.71644">
        <ele>168.5</ele>
        <time>2021-02-07T13:45:31Z</time>
      </trkpt>
      <trkpt lat="43.60862" lon="3.71641">
        <ele>168.4</ele>
        <time>2021-02-07T13:45:32Z</time>
      </trkpt>
      <trkpt lat="43.60862" lon="3.71638">
        <ele>168.3</ele>
        <time>2021-02-07T13:45:33Z</time>
      </trkpt>
      <trkpt lat="43.60862" lon="3.71635">
        <ele>168.3</ele>
        <time>2021-02-07T13:45:34Z</time>
      </trkpt>
      <trkpt lat="43.60862" lon="3.71631">
        <ele>168.3</ele>
        <time>2021-02-07T13:45:36Z</time>
      </trkpt>
      <trkpt lat="43.60861" lon="3.71626">
        <ele>169</ele>
        <time>2021-02-07T13:45:38Z</time>
      </trkpt>
      <trkpt lat="43.60861" lon="3.71622">
        <ele>168</ele>
        <time>2021-02-07T13:45:40Z</time>
      </trkpt>
      <trkpt lat="43.60861" lon="3.71618">
        <ele>168</ele>
        <time>2021-02-07T13:45:42Z</time>
      </trkpt>
      <trkpt lat="43.60861" lon="3.71613">
        <ele>168</ele>
        <time>2021-02-07T13:45:44Z</time>
      </trkpt>
      <trkpt lat="43.60861" lon="3.71608">
        <ele>168</ele>
        <time>2021-02-07T13:45:46Z</time>
      </trkpt>
      <trkpt lat="43.60861" lon="3.71606">
        <ele>168</ele>
        <time>2021-02-07T13:45:47Z</time>
      </trkpt>
      <trkpt lat="43.6086" lon="3.71603">
        <ele>170</ele>
        <time>2021-02-07T13:45:48Z</time>
      </trkpt>
      <trkpt lat="43.6086" lon="3.716">
        <ele>167.9</ele>
        <time>2021-02-07T13:45:49Z</time>
      </trkpt>
      <trkpt lat="43.6086" lon="3.71597">
        <ele>167.9</ele>
        <time>2021-02-07T13:45:50Z</time>
      </trkpt>
      <trkpt lat="43.6086" lon="3.71594">
        <ele>167.9</ele>
        <time>2021-02-07T13:45:51Z</time>
      </trkpt>
      <trkpt lat="43.6086" lon="3.71591">
        <ele>167.9</ele>
        <time>2021-02-07T13:45:52Z</time>
      </trkpt>
      <trkpt lat="43.6086" lon="3.71588">
        <ele>167.9</ele>
        <time>2021-02-07T13:45:53Z</time>
      </trkpt>
      <trkpt lat="43.6086" lon="3.71585">
        <ele>167.9</ele>
        <time>2021-02-07T13:45:54Z</time>
      </trkpt>
      <trkpt lat="43.6086" lon="3.71582">
        <ele>167.9</ele>
        <time>2021-02-07T13:45:55Z</time>
      </trkpt>
      <trkpt lat="43.6086" lon="3.71579">
        <ele>167.9</ele>
        <time>2021-02-07T13:45:56Z</time>
      </trkpt>
      <trkpt lat="43.6086" lon="3.71576">
        <ele>167.9</ele>
        <time>2021-02-07T13:45:57Z</time>
      </trkpt>
      <trkpt lat="43.60859" lon="3.71573">
        <ele>171</ele>
        <time>2021-02-07T13:45:58Z</time>
      </trkpt>
      <trkpt lat="43.60859" lon="3.7157">
        <ele>167.8</ele>
        <time>2021-02-07T13:45:59Z</time>
      </trkpt>
      <trkpt lat="43.60859" lon="3.71566">
        <ele>167.8</ele>
        <time>2021-02-07T13:46:00Z</time>
      </trkpt>
      <trkpt lat="43.60859" lon="3.71563">
        <ele>167.8</ele>
        <time>2021-02-07T13:46:01Z</time>
      </trkpt>
      <trkpt lat="43.60858" lon="3.7156">
        <ele>167.7</ele>
        <time>2021-02-07T13:46:02Z</time>
      </trkpt>
      <trkpt lat="43.60858" lon="3.71557">
        <ele>167.7</ele>
        <time>2021-02-07T13:46:03Z</time>
      </trkpt>
      <trkpt lat="43.60858" lon="3.71554">
        <ele>167.8</ele>
        <time>2021-02-07T13:46:04Z</time>
      </trkpt>
      <trkpt lat="43.60858" lon="3.71551">
        <ele>168</ele>
        <time>2021-02-07T13:46:05Z</time>
      </trkpt>
      <trkpt lat="43.60857" lon="3.71548">
        <ele>168</ele>
        <time>2021-02-07T13:46:06Z</time>
      </trkpt>
      <trkpt lat="43.60857" lon="3.71544">
        <ele>168.3</ele>
        <time>2021-02-07T13:46:07Z</time>
      </trkpt>
      <trkpt lat="43.60856" lon="3.71541">
        <ele>171</ele>
        <time>2021-02-07T13:46:08Z</time>
      </trkpt>
      <trkpt lat="43.60856" lon="3.71538">
        <ele>168.5</ele>
        <time>2021-02-07T13:46:09Z</time>
      </trkpt>
      <trkpt lat="43.60855" lon="3.71535">
        <ele>168.5</ele>
        <time>2021-02-07T13:46:10Z</time>
      </trkpt>
      <trkpt lat="43.60854" lon="3.71531">
        <ele>168.5</ele>
        <time>2021-02-07T13:46:11Z</time>
      </trkpt>
      <trkpt lat="43.60854" lon="3.71528">
        <ele>168.7</ele>
        <time>2021-02-07T13:46:12Z</time>
      </trkpt>
      <trkpt lat="43.60853" lon="3.71524">
        <ele>168.8</ele>
        <time>2021-02-07T13:46:13Z</time>
      </trkpt>
      <trkpt lat="43.60852" lon="3.71521">
        <ele>168.9</ele>
        <time>2021-02-07T13:46:14Z</time>
      </trkpt>
      <trkpt lat="43.60851" lon="3.71517">
        <ele>168.9</ele>
        <time>2021-02-07T13:46:15Z</time>
      </trkpt>
      <trkpt lat="43.60851" lon="3.71514">
        <ele>169.1</ele>
        <time>2021-02-07T13:46:16Z</time>
      </trkpt>
      <trkpt lat="43.6085" lon="3.7151">
        <ele>169.2</ele>
        <time>2021-02-07T13:46:17Z</time>
      </trkpt>
      <trkpt lat="43.60849" lon="3.71507">
        <ele>172</ele>
        <time>2021-02-07T13:46:18Z</time>
      </trkpt>
      <trkpt lat="43.60848" lon="3.71503">
        <ele>169.1</ele>
        <time>2021-02-07T13:46:19Z</time>
      </trkpt>
      <trkpt lat="43.60847" lon="3.71499">
        <ele>169</ele>
        <time>2021-02-07T13:46:20Z</time>
      </trkpt>
      <trkpt lat="43.60846" lon="3.71495">
        <ele>168.8</ele>
        <time>2021-02-07T13:46:21Z</time>
      </trkpt>
      <trkpt lat="43.60845" lon="3.71492">
        <ele>168.6</ele>
        <time>2021-02-07T13:46:22Z</time>
      </trkpt>
      <trkpt lat="43.60845" lon="3.71488">
        <ele>168.8</ele>
        <time>2021-02-07T13:46:23Z</time>
      </trkpt>
      <trkpt lat="43.60844" lon="3.71484">
        <ele>168.6</ele>
        <time>2021-02-07T13:46:24Z</time>
      </trkpt>
      <trkpt lat="43.60844" lon="3.71479">
        <ele>168.8</ele>
        <time>2021-02-07T13:46:25Z</time>
      </trkpt>
      <trkpt lat="43.60843" lon="3.71474">
        <ele>168.7</ele>
        <time>2021-02-07T13:46:26Z</time>
      </trkpt>
      <trkpt lat="43.60843" lon="3.7147">
        <ele>168.8</ele>
        <time>2021-02-07T13:46:27Z</time>
      </trkpt>
      <trkpt lat="43.60843" lon="3.71465">
        <ele>171</ele>
        <time>2021-02-07T13:46:28Z</time>
      </trkpt>
      <trkpt lat="43.60842" lon="3.7146">
        <ele>168.5</ele>
        <time>2021-02-07T13:46:29Z</time>
      </trkpt>
      <trkpt lat="43.60842" lon="3.71455">
        <ele>168.5</ele>
        <time>2021-02-07T13:46:30Z</time>
      </trkpt>
      <trkpt lat="43.60842" lon="3.7145">
        <ele>168.5</ele>
        <time>2021-02-07T13:46:31Z</time>
      </trkpt>
      <trkpt lat="43.60841" lon="3.71446">
        <ele>168.2</ele>
        <time>2021-02-07T13:46:32Z</time>
      </trkpt>
      <trkpt lat="43.60841" lon="3.71441">
        <ele>168.1</ele>
        <time>2021-02-07T13:46:33Z</time>
      </trkpt>
      <trkpt lat="43.60841" lon="3.71437">
        <ele>168</ele>
        <time>2021-02-07T13:46:34Z</time>
      </trkpt>
      <trkpt lat="43.60841" lon="3.71432">
        <ele>167.9</ele>
        <time>2021-02-07T13:46:35Z</time>
      </trkpt>
      <trkpt lat="43.60842" lon="3.71427">
        <ele>168.1</ele>
        <time>2021-02-07T13:46:36Z</time>
      </trkpt>
      <trkpt lat="43.60842" lon="3.71423">
        <ele>168</ele>
        <time>2021-02-07T13:46:37Z</time>
      </trkpt>
      <trkpt lat="43.60841" lon="3.71418">
        <ele>170</ele>
        <time>2021-02-07T13:46:38Z</time>
      </trkpt>
      <trkpt lat="43.60841" lon="3.71413">
        <ele>167.4</ele>
        <time>2021-02-07T13:46:39Z</time>
      </trkpt>
      <trkpt lat="43.60841" lon="3.71407">
        <ele>167.1</ele>
        <time>2021-02-07T13:46:40Z</time>
      </trkpt>
      <trkpt lat="43.6084" lon="3.71402">
        <ele>166.6</ele>
        <time>2021-02-07T13:46:41Z</time>
      </trkpt>
      <trkpt lat="43.60841" lon="3.71397">
        <ele>166.8</ele>
        <time>2021-02-07T13:46:42Z</time>
      </trkpt>
      <trkpt lat="43.6084" lon="3.71391">
        <ele>166.2</ele>
        <time>2021-02-07T13:46:43Z</time>
      </trkpt>
      <trkpt lat="43.60841" lon="3.71386">
        <ele>166.3</ele>
        <time>2021-02-07T13:46:44Z</time>
      </trkpt>
      <trkpt lat="43.60841" lon="3.7138">
        <ele>165.8</ele>
        <time>2021-02-07T13:46:45Z</time>
      </trkpt>
      <trkpt lat="43.60842" lon="3.71374">
        <ele>165.7</ele>
        <time>2021-02-07T13:46:46Z</time>
      </trkpt>
      <trkpt lat="43.60843" lon="3.71369">
        <ele>165.7</ele>
        <time>2021-02-07T13:46:47Z</time>
      </trkpt>
      <trkpt lat="43.60843" lon="3.71363">
        <ele>165.3</ele>
        <time>2021-02-07T13:46:48Z</time>
      </trkpt>
      <trkpt lat="43.60843" lon="3.71358">
        <ele>171</ele>
        <time>2021-02-07T13:46:49Z</time>
      </trkpt>
      <trkpt lat="43.60844" lon="3.71353">
        <ele>165</ele>
        <time>2021-02-07T13:46:50Z</time>
      </trkpt>
      <trkpt lat="43.60845" lon="3.71348">
        <ele>165</ele>
        <time>2021-02-07T13:46:51Z</time>
      </trkpt>
      <trkpt lat="43.60846" lon="3.71342">
        <ele>165</ele>
        <time>2021-02-07T13:46:52Z</time>
      </trkpt>
      <trkpt lat="43.60846" lon="3.71337">
        <ele>164.8</ele>
        <time>2021-02-07T13:46:53Z</time>
      </trkpt>
      <trkpt lat="43.60846" lon="3.71332">
        <ele>164.5</ele>
        <time>2021-02-07T13:46:54Z</time>
      </trkpt>
      <trkpt lat="43.60846" lon="3.71326">
        <ele>164.3</ele>
        <time>2021-02-07T13:46:55Z</time>
      </trkpt>
      <trkpt lat="43.60847" lon="3.7132">
        <ele>164.4</ele>
        <time>2021-02-07T13:46:56Z</time>
      </trkpt>
      <trkpt lat="43.60848" lon="3.71314">
        <ele>164.6</ele>
        <time>2021-02-07T13:46:57Z</time>
      </trkpt>
      <trkpt lat="43.60848" lon="3.71308">
        <ele>171</ele>
        <time>2021-02-07T13:46:58Z</time>
      </trkpt>
      <trkpt lat="43.60848" lon="3.71301">
        <ele>164.2</ele>
        <time>2021-02-07T13:46:59Z</time>
      </trkpt>
      <trkpt lat="43.60848" lon="3.71295">
        <ele>164.1</ele>
        <time>2021-02-07T13:47:00Z</time>
      </trkpt>
      <trkpt lat="43.60848" lon="3.71288">
        <ele>164</ele>
        <time>2021-02-07T13:47:01Z</time>
      </trkpt>
      <trkpt lat="43.60848" lon="3.71282">
        <ele>163.9</ele>
        <time>2021-02-07T13:47:02Z</time>
      </trkpt>
      <trkpt lat="43.60847" lon="3.71276">
        <ele>163.4</ele>
        <time>2021-02-07T13:47:03Z</time>
      </trkpt>
      <trkpt lat="43.60848" lon="3.71269">
        <ele>163.8</ele>
        <time>2021-02-07T13:47:04Z</time>
      </trkpt>
      <trkpt lat="43.60848" lon="3.71264">
        <ele>163.8</ele>
        <time>2021-02-07T13:47:05Z</time>
      </trkpt>
      <trkpt lat="43.60848" lon="3.71258">
        <ele>163.8</ele>
        <time>2021-02-07T13:47:06Z</time>
      </trkpt>
      <trkpt lat="43.60848" lon="3.71253">
        <ele>163.8</ele>
        <time>2021-02-07T13:47:07Z</time>
      </trkpt>
      <trkpt lat="43.60847" lon="3.71248">
        <ele>170</ele>
        <time>2021-02-07T13:47:08Z</time>
      </trkpt>
      <trkpt lat="43.60847" lon="3.71243">
        <ele>163.5</ele>
        <time>2021-02-07T13:47:09Z</time>
      </trkpt>
      <trkpt lat="43.60846" lon="3.71238">
        <ele>163.3</ele>
        <time>2021-02-07T13:47:10Z</time>
      </trkpt>
      <trkpt lat="43.60845" lon="3.71234">
        <ele>163</ele>
        <time>2021-02-07T13:47:11Z</time>
      </trkpt>
      <trkpt lat="43.60844" lon="3.71229">
        <ele>162.7</ele>
        <time>2021-02-07T13:47:12Z</time>
      </trkpt>
      <trkpt lat="43.60844" lon="3.71224">
        <ele>162.8</ele>
        <time>2021-02-07T13:47:13Z</time>
      </trkpt>
      <trkpt lat="43.60843" lon="3.71219">
        <ele>162.5</ele>
        <time>2021-02-07T13:47:14Z</time>
      </trkpt>
      <trkpt lat="43.60842" lon="3.71214">
        <ele>162.2</ele>
        <time>2021-02-07T13:47:15Z</time>
      </trkpt>
      <trkpt lat="43.60842" lon="3.71208">
        <ele>162.3</ele>
        <time>2021-02-07T13:47:16Z</time>
      </trkpt>
      <trkpt lat="43.60842" lon="3.71203">
        <ele>162.3</ele>
        <time>2021-02-07T13:47:17Z</time>
      </trkpt>
      <trkpt lat="43.60841" lon="3.71198">
        <ele>170</ele>
        <time>2021-02-07T13:47:18Z</time>
      </trkpt>
      <trkpt lat="43.60841" lon="3.71193">
        <ele>162</ele>
        <time>2021-02-07T13:47:19Z</time>
      </trkpt>
      <trkpt lat="43.60841" lon="3.71187">
        <ele>162</ele>
        <time>2021-02-07T13:47:20Z</time>
      </trkpt>
      <trkpt lat="43.60841" lon="3.71182">
        <ele>162</ele>
        <time>2021-02-07T13:47:21Z</time>
      </trkpt>
      <trkpt lat="43.60842" lon="3.71177">
        <ele>162.4</ele>
        <time>2021-02-07T13:47:22Z</time>
      </trkpt>
      <trkpt lat="43.60842" lon="3.71172">
        <ele>162.4</ele>
        <time>2021-02-07T13:47:23Z</time>
      </trkpt>
      <trkpt lat="43.60842" lon="3.71167">
        <ele>162.4</ele>
        <time>2021-02-07T13:47:24Z</time>
      </trkpt>
      <trkpt lat="43.60841" lon="3.71162">
        <ele>162</ele>
        <time>2021-02-07T13:47:25Z</time>
      </trkpt>
      <trkpt lat="43.6084" lon="3.71157">
        <ele>161.6</ele>
        <time>2021-02-07T13:47:26Z</time>
      </trkpt>
      <trkpt lat="43.60839" lon="3.71153">
        <ele>161.2</ele>
        <time>2021-02-07T13:47:27Z</time>
      </trkpt>
      <trkpt lat="43.60839" lon="3.71148">
        <ele>170</ele>
        <time>2021-02-07T13:47:28Z</time>
      </trkpt>
      <trkpt lat="43.6084" lon="3.71142">
        <ele>161.6</ele>
        <time>2021-02-07T13:47:29Z</time>
      </trkpt>
      <trkpt lat="43.60841" lon="3.71137">
        <ele>162</ele>
        <time>2021-02-07T13:47:30Z</time>
      </trkpt>
      <trkpt lat="43.60842" lon="3.71131">
        <ele>162.3</ele>
        <time>2021-02-07T13:47:31Z</time>
      </trkpt>
      <trkpt lat="43.60843" lon="3.71126">
        <ele>162.7</ele>
        <time>2021-02-07T13:47:32Z</time>
      </trkpt>
      <trkpt lat="43.60843" lon="3.71121">
        <ele>162.6</ele>
        <time>2021-02-07T13:47:33Z</time>
      </trkpt>
      <trkpt lat="43.60844" lon="3.71116">
        <ele>162.9</ele>
        <time>2021-02-07T13:47:34Z</time>
      </trkpt>
      <trkpt lat="43.60844" lon="3.7111">
        <ele>162.8</ele>
        <time>2021-02-07T13:47:35Z</time>
      </trkpt>
      <trkpt lat="43.60844" lon="3.71105">
        <ele>162.9</ele>
        <time>2021-02-07T13:47:36Z</time>
      </trkpt>
      <trkpt lat="43.60844" lon="3.711">
        <ele>162.9</ele>
        <time>2021-02-07T13:47:37Z</time>
      </trkpt>
      <trkpt lat="43.60844" lon="3.71095">
        <ele>169</ele>
        <time>2021-02-07T13:47:38Z</time>
      </trkpt>
      <trkpt lat="43.60844" lon="3.7109">
        <ele>163</ele>
        <time>2021-02-07T13:47:39Z</time>
      </trkpt>
      <trkpt lat="43.60844" lon="3.71085">
        <ele>163.1</ele>
        <time>2021-02-07T13:47:40Z</time>
      </trkpt>
      <trkpt lat="43.60845" lon="3.71081">
        <ele>163.3</ele>
        <time>2021-02-07T13:47:41Z</time>
      </trkpt>
      <trkpt lat="43.60845" lon="3.71076">
        <ele>163.1</ele>
        <time>2021-02-07T13:47:42Z</time>
      </trkpt>
      <trkpt lat="43.60845" lon="3.71071">
        <ele>163</ele>
        <time>2021-02-07T13:47:43Z</time>
      </trkpt>
      <trkpt lat="43.60846" lon="3.71066">
        <ele>163.1</ele>
        <time>2021-02-07T13:47:44Z</time>
      </trkpt>
      <trkpt lat="43.60847" lon="3.71061">
        <ele>163.1</ele>
        <time>2021-02-07T13:47:45Z</time>
      </trkpt>
      <trkpt lat="43.60848" lon="3.71057">
        <ele>163.2</ele>
        <time>2021-02-07T13:47:46Z</time>
      </trkpt>
      <trkpt lat="43.6085" lon="3.71052">
        <ele>163.1</ele>
        <time>2021-02-07T13:47:47Z</time>
      </trkpt>
      <trkpt lat="43.60852" lon="3.71047">
        <ele>168</ele>
        <time>2021-02-07T13:47:48Z</time>
      </trkpt>
      <trkpt lat="43.60854" lon="3.71043">
        <ele>162.7</ele>
        <time>2021-02-07T13:47:49Z</time>
      </trkpt>
      <trkpt lat="43.60856" lon="3.71039">
        <ele>162.5</ele>
        <time>2021-02-07T13:47:50Z</time>
      </trkpt>
      <trkpt lat="43.60857" lon="3.71035">
        <ele>162.2</ele>
        <time>2021-02-07T13:47:51Z</time>
      </trkpt>
      <trkpt lat="43.60859" lon="3.71031">
        <ele>162</ele>
        <time>2021-02-07T13:47:52Z</time>
      </trkpt>
      <trkpt lat="43.60862" lon="3.71027">
        <ele>162</ele>
        <time>2021-02-07T13:47:53Z</time>
      </trkpt>
      <trkpt lat="43.60865" lon="3.71024">
        <ele>161.9</ele>
        <time>2021-02-07T13:47:54Z</time>
      </trkpt>
      <trkpt lat="43.60867" lon="3.71019">
        <ele>161.2</ele>
        <time>2021-02-07T13:47:55Z</time>
      </trkpt>
      <trkpt lat="43.6087" lon="3.71015">
        <ele>161</ele>
        <time>2021-02-07T13:47:56Z</time>
      </trkpt>
      <trkpt lat="43.60872" lon="3.71009">
        <ele>160.2</ele>
        <time>2021-02-07T13:47:57Z</time>
      </trkpt>
      <trkpt lat="43.60875" lon="3.71004">
        <ele>167</ele>
        <time>2021-02-07T13:47:58Z</time>
      </trkpt>
      <trkpt lat="43.60879" lon="3.70999">
        <ele>159.7</ele>
        <time>2021-02-07T13:47:59Z</time>
      </trkpt>
      <trkpt lat="43.60882" lon="3.70994">
        <ele>159.4</ele>
        <time>2021-02-07T13:48:00Z</time>
      </trkpt>
      <trkpt lat="43.60885" lon="3.70989">
        <ele>159</ele>
        <time>2021-02-07T13:48:01Z</time>
      </trkpt>
      <trkpt lat="43.60889" lon="3.70983">
        <ele>158.3</ele>
        <time>2021-02-07T13:48:02Z</time>
      </trkpt>
      <trkpt lat="43.60892" lon="3.70978">
        <ele>157.7</ele>
        <time>2021-02-07T13:48:03Z</time>
      </trkpt>
      <trkpt lat="43.60896" lon="3.70973">
        <ele>157.2</ele>
        <time>2021-02-07T13:48:04Z</time>
      </trkpt>
      <trkpt lat="43.609" lon="3.70968">
        <ele>157.4</ele>
        <time>2021-02-07T13:48:05Z</time>
      </trkpt>
      <trkpt lat="43.60903" lon="3.70965">
        <ele>157.6</ele>
        <time>2021-02-07T13:48:06Z</time>
      </trkpt>
      <trkpt lat="43.60905" lon="3.70962">
        <ele>157.6</ele>
        <time>2021-02-07T13:48:07Z</time>
      </trkpt>
      <trkpt lat="43.60907" lon="3.7096">
        <ele>167</ele>
        <time>2021-02-07T13:48:08Z</time>
      </trkpt>
      <trkpt lat="43.60908" lon="3.70958">
        <ele>157.5</ele>
        <time>2021-02-07T13:48:09Z</time>
      </trkpt>
      <trkpt lat="43.60911" lon="3.70957">
        <ele>157.6</ele>
        <time>2021-02-07T13:48:11Z</time>
      </trkpt>
      <trkpt lat="43.60913" lon="3.70957">
        <ele>157.6</ele>
        <time>2021-02-07T13:48:12Z</time>
      </trkpt>
      <trkpt lat="43.60916" lon="3.70956">
        <ele>157.6</ele>
        <time>2021-02-07T13:48:13Z</time>
      </trkpt>
      <trkpt lat="43.60918" lon="3.70957">
        <ele>157.9</ele>
        <time>2021-02-07T13:48:15Z</time>
      </trkpt>
      <trkpt lat="43.60918" lon="3.70956">
        <ele>165</ele>
        <time>2021-02-07T13:48:19Z</time>
      </trkpt>
      <trkpt lat="43.60926" lon="3.70953">
        <ele>165</ele>
        <time>2021-02-07T13:48:27Z</time>
      </trkpt>
      <trkpt lat="43.60928" lon="3.70952">
        <ele>158</ele>
        <time>2021-02-07T13:48:28Z</time>
      </trkpt>
      <trkpt lat="43.60931" lon="3.70952">
        <ele>158.3</ele>
        <time>2021-02-07T13:48:29Z</time>
      </trkpt>
      <trkpt lat="43.60933" lon="3.70951">
        <ele>158.3</ele>
        <time>2021-02-07T13:48:30Z</time>
      </trkpt>
      <trkpt lat="43.60935" lon="3.7095">
        <ele>158.3</ele>
        <time>2021-02-07T13:48:31Z</time>
      </trkpt>
      <trkpt lat="43.60937" lon="3.7095">
        <ele>158.4</ele>
        <time>2021-02-07T13:48:32Z</time>
      </trkpt>
      <trkpt lat="43.60939" lon="3.70949">
        <ele>158.4</ele>
        <time>2021-02-07T13:48:33Z</time>
      </trkpt>
      <trkpt lat="43.60941" lon="3.70948">
        <ele>158.4</ele>
        <time>2021-02-07T13:48:34Z</time>
      </trkpt>
      <trkpt lat="43.60943" lon="3.70947">
        <ele>158.4</ele>
        <time>2021-02-07T13:48:35Z</time>
      </trkpt>
      <trkpt lat="43.60945" lon="3.70946">
        <ele>164</ele>
        <time>2021-02-07T13:48:36Z</time>
      </trkpt>
      <trkpt lat="43.60948" lon="3.70945">
        <ele>158.5</ele>
        <time>2021-02-07T13:48:38Z</time>
      </trkpt>
      <trkpt lat="43.6095" lon="3.70944">
        <ele>158.6</ele>
        <time>2021-02-07T13:48:39Z</time>
      </trkpt>
      <trkpt lat="43.60952" lon="3.70942">
        <ele>158.7</ele>
        <time>2021-02-07T13:48:40Z</time>
      </trkpt>
      <trkpt lat="43.60955" lon="3.70941">
        <ele>159</ele>
        <time>2021-02-07T13:48:41Z</time>
      </trkpt>
      <trkpt lat="43.60957" lon="3.7094">
        <ele>159.1</ele>
        <time>2021-02-07T13:48:42Z</time>
      </trkpt>
      <trkpt lat="43.60959" lon="3.70939">
        <ele>159.3</ele>
        <time>2021-02-07T13:48:43Z</time>
      </trkpt>
      <trkpt lat="43.60962" lon="3.70938">
        <ele>159.5</ele>
        <time>2021-02-07T13:48:44Z</time>
      </trkpt>
      <trkpt lat="43.60964" lon="3.70937">
        <ele>159.5</ele>
        <time>2021-02-07T13:48:45Z</time>
      </trkpt>
      <trkpt lat="43.60966" lon="3.70937">
        <ele>159.7</ele>
        <time>2021-02-07T13:48:46Z</time>
      </trkpt>
      <trkpt lat="43.60968" lon="3.70936">
        <ele>164</ele>
        <time>2021-02-07T13:48:47Z</time>
      </trkpt>
      <trkpt lat="43.6097" lon="3.70935">
        <ele>159.8</ele>
        <time>2021-02-07T13:48:48Z</time>
      </trkpt>
      <trkpt lat="43.60973" lon="3.70934">
        <ele>159.9</ele>
        <time>2021-02-07T13:48:50Z</time>
      </trkpt>
      <trkpt lat="43.60976" lon="3.70932">
        <ele>159.8</ele>
        <time>2021-02-07T13:48:52Z</time>
      </trkpt>
      <trkpt lat="43.60979" lon="3.70931">
        <ele>159.8</ele>
        <time>2021-02-07T13:48:54Z</time>
      </trkpt>
      <trkpt lat="43.60981" lon="3.7093">
        <ele>159.8</ele>
        <time>2021-02-07T13:48:55Z</time>
      </trkpt>
      <trkpt lat="43.60983" lon="3.7093">
        <ele>163</ele>
        <time>2021-02-07T13:48:56Z</time>
      </trkpt>
      <trkpt lat="43.60986" lon="3.70929">
        <ele>159.8</ele>
        <time>2021-02-07T13:48:57Z</time>
      </trkpt>
      <trkpt lat="43.60989" lon="3.70929">
        <ele>159.9</ele>
        <time>2021-02-07T13:48:58Z</time>
      </trkpt>
      <trkpt lat="43.60991" lon="3.70928">
        <ele>159.9</ele>
        <time>2021-02-07T13:48:59Z</time>
      </trkpt>
      <trkpt lat="43.60994" lon="3.70928">
        <ele>160</ele>
        <time>2021-02-07T13:49:00Z</time>
      </trkpt>
      <trkpt lat="43.60996" lon="3.70929">
        <ele>160.2</ele>
        <time>2021-02-07T13:49:01Z</time>
      </trkpt>
      <trkpt lat="43.60999" lon="3.70929">
        <ele>160.3</ele>
        <time>2021-02-07T13:49:02Z</time>
      </trkpt>
      <trkpt lat="43.61001" lon="3.70929">
        <ele>160.3</ele>
        <time>2021-02-07T13:49:03Z</time>
      </trkpt>
      <trkpt lat="43.61004" lon="3.70928">
        <ele>160.2</ele>
        <time>2021-02-07T13:49:04Z</time>
      </trkpt>
      <trkpt lat="43.61006" lon="3.70929">
        <ele>160.3</ele>
        <time>2021-02-07T13:49:05Z</time>
      </trkpt>
      <trkpt lat="43.61009" lon="3.70929">
        <ele>162</ele>
        <time>2021-02-07T13:49:06Z</time>
      </trkpt>
      <trkpt lat="43.61012" lon="3.7093">
        <ele>160.4</ele>
        <time>2021-02-07T13:49:07Z</time>
      </trkpt>
      <trkpt lat="43.61014" lon="3.7093">
        <ele>160.4</ele>
        <time>2021-02-07T13:49:08Z</time>
      </trkpt>
      <trkpt lat="43.61017" lon="3.70931">
        <ele>160.5</ele>
        <time>2021-02-07T13:49:09Z</time>
      </trkpt>
      <trkpt lat="43.6102" lon="3.70932">
        <ele>160.7</ele>
        <time>2021-02-07T13:49:10Z</time>
      </trkpt>
      <trkpt lat="43.61023" lon="3.70933">
        <ele>160.8</ele>
        <time>2021-02-07T13:49:11Z</time>
      </trkpt>
      <trkpt lat="43.61026" lon="3.70934">
        <ele>160.9</ele>
        <time>2021-02-07T13:49:12Z</time>
      </trkpt>
      <trkpt lat="43.61029" lon="3.70936">
        <ele>161.1</ele>
        <time>2021-02-07T13:49:13Z</time>
      </trkpt>
      <trkpt lat="43.61032" lon="3.70936">
        <ele>161.1</ele>
        <time>2021-02-07T13:49:14Z</time>
      </trkpt>
      <trkpt lat="43.61034" lon="3.70937">
        <ele>161.2</ele>
        <time>2021-02-07T13:49:15Z</time>
      </trkpt>
      <trkpt lat="43.61037" lon="3.70938">
        <ele>162</ele>
        <time>2021-02-07T13:49:16Z</time>
      </trkpt>
      <trkpt lat="43.6104" lon="3.70939">
        <ele>161.2</ele>
        <time>2021-02-07T13:49:17Z</time>
      </trkpt>
      <trkpt lat="43.61042" lon="3.7094">
        <ele>161.3</ele>
        <time>2021-02-07T13:49:18Z</time>
      </trkpt>
      <trkpt lat="43.61045" lon="3.70941">
        <ele>161.2</ele>
        <time>2021-02-07T13:49:19Z</time>
      </trkpt>
      <trkpt lat="43.61047" lon="3.70942">
        <ele>161.2</ele>
        <time>2021-02-07T13:49:20Z</time>
      </trkpt>
      <trkpt lat="43.61049" lon="3.70943">
        <ele>161.2</ele>
        <time>2021-02-07T13:49:21Z</time>
      </trkpt>
      <trkpt lat="43.61052" lon="3.70944">
        <ele>161.1</ele>
        <time>2021-02-07T13:49:22Z</time>
      </trkpt>
      <trkpt lat="43.61055" lon="3.70945">
        <ele>161.1</ele>
        <time>2021-02-07T13:49:23Z</time>
      </trkpt>
      <trkpt lat="43.61057" lon="3.70946">
        <ele>161.3</ele>
        <time>2021-02-07T13:49:24Z</time>
      </trkpt>
      <trkpt lat="43.6106" lon="3.70947">
        <ele>161.5</ele>
        <time>2021-02-07T13:49:25Z</time>
      </trkpt>
      <trkpt lat="43.61063" lon="3.70947">
        <ele>163</ele>
        <time>2021-02-07T13:49:26Z</time>
      </trkpt>
      <trkpt lat="43.61066" lon="3.70948">
        <ele>161.8</ele>
        <time>2021-02-07T13:49:27Z</time>
      </trkpt>
      <trkpt lat="43.61068" lon="3.70948">
        <ele>161.8</ele>
        <time>2021-02-07T13:49:28Z</time>
      </trkpt>
      <trkpt lat="43.61071" lon="3.70949">
        <ele>162</ele>
        <time>2021-02-07T13:49:29Z</time>
      </trkpt>
      <trkpt lat="43.61074" lon="3.70949">
        <ele>162.1</ele>
        <time>2021-02-07T13:49:30Z</time>
      </trkpt>
      <trkpt lat="43.61077" lon="3.7095">
        <ele>162.3</ele>
        <time>2021-02-07T13:49:31Z</time>
      </trkpt>
      <trkpt lat="43.61079" lon="3.70951">
        <ele>162.4</ele>
        <time>2021-02-07T13:49:32Z</time>
      </trkpt>
      <trkpt lat="43.61082" lon="3.70952">
        <ele>162.5</ele>
        <time>2021-02-07T13:49:33Z</time>
      </trkpt>
      <trkpt lat="43.61084" lon="3.70953">
        <ele>162.6</ele>
        <time>2021-02-07T13:49:34Z</time>
      </trkpt>
      <trkpt lat="43.61087" lon="3.70953">
        <ele>162.8</ele>
        <time>2021-02-07T13:49:35Z</time>
      </trkpt>
      <trkpt lat="43.61089" lon="3.70953">
        <ele>162.9</ele>
        <time>2021-02-07T13:49:36Z</time>
      </trkpt>
      <trkpt lat="43.61092" lon="3.70954">
        <ele>164</ele>
        <time>2021-02-07T13:49:37Z</time>
      </trkpt>
      <trkpt lat="43.61094" lon="3.70954">
        <ele>163.2</ele>
        <time>2021-02-07T13:49:38Z</time>
      </trkpt>
      <trkpt lat="43.61097" lon="3.70954">
        <ele>163.3</ele>
        <time>2021-02-07T13:49:39Z</time>
      </trkpt>
      <trkpt lat="43.61099" lon="3.70954">
        <ele>163.4</ele>
        <time>2021-02-07T13:49:40Z</time>
      </trkpt>
      <trkpt lat="43.61102" lon="3.70955">
        <ele>163.6</ele>
        <time>2021-02-07T13:49:41Z</time>
      </trkpt>
      <trkpt lat="43.61105" lon="3.70956">
        <ele>163.7</ele>
        <time>2021-02-07T13:49:42Z</time>
      </trkpt>
      <trkpt lat="43.61107" lon="3.70957">
        <ele>163.8</ele>
        <time>2021-02-07T13:49:43Z</time>
      </trkpt>
      <trkpt lat="43.6111" lon="3.70958">
        <ele>164</ele>
        <time>2021-02-07T13:49:44Z</time>
      </trkpt>
      <trkpt lat="43.61113" lon="3.70959">
        <ele>164.2</ele>
        <time>2021-02-07T13:49:45Z</time>
      </trkpt>
      <trkpt lat="43.61115" lon="3.7096">
        <ele>164</ele>
        <time>2021-02-07T13:49:46Z</time>
      </trkpt>
      <trkpt lat="43.61118" lon="3.70961">
        <ele>164.5</ele>
        <time>2021-02-07T13:49:47Z</time>
      </trkpt>
      <trkpt lat="43.6112" lon="3.70962">
        <ele>164.7</ele>
        <time>2021-02-07T13:49:48Z</time>
      </trkpt>
      <trkpt lat="43.61122" lon="3.70963">
        <ele>164.8</ele>
        <time>2021-02-07T13:49:49Z</time>
      </trkpt>
      <trkpt lat="43.61124" lon="3.70963">
        <ele>164.9</ele>
        <time>2021-02-07T13:49:50Z</time>
      </trkpt>
      <trkpt lat="43.61127" lon="3.70964">
        <ele>165.1</ele>
        <time>2021-02-07T13:49:51Z</time>
      </trkpt>
      <trkpt lat="43.61129" lon="3.70965">
        <ele>165.1</ele>
        <time>2021-02-07T13:49:52Z</time>
      </trkpt>
      <trkpt lat="43.61132" lon="3.70966">
        <ele>165.3</ele>
        <time>2021-02-07T13:49:53Z</time>
      </trkpt>
      <trkpt lat="43.61134" lon="3.70967">
        <ele>165.3</ele>
        <time>2021-02-07T13:49:54Z</time>
      </trkpt>
      <trkpt lat="43.61136" lon="3.70967">
        <ele>165.4</ele>
        <time>2021-02-07T13:49:55Z</time>
      </trkpt>
      <trkpt lat="43.61139" lon="3.70967">
        <ele>164</ele>
        <time>2021-02-07T13:49:56Z</time>
      </trkpt>
      <trkpt lat="43.61141" lon="3.70967">
        <ele>165.7</ele>
        <time>2021-02-07T13:49:57Z</time>
      </trkpt>
      <trkpt lat="43.61144" lon="3.70968">
        <ele>165.8</ele>
        <time>2021-02-07T13:49:58Z</time>
      </trkpt>
      <trkpt lat="43.61146" lon="3.70968">
        <ele>166</ele>
        <time>2021-02-07T13:49:59Z</time>
      </trkpt>
      <trkpt lat="43.61148" lon="3.70968">
        <ele>166.1</ele>
        <time>2021-02-07T13:50:00Z</time>
      </trkpt>
      <trkpt lat="43.61151" lon="3.70968">
        <ele>166.3</ele>
        <time>2021-02-07T13:50:01Z</time>
      </trkpt>
      <trkpt lat="43.61153" lon="3.70967">
        <ele>166.6</ele>
        <time>2021-02-07T13:50:02Z</time>
      </trkpt>
      <trkpt lat="43.61155" lon="3.70967">
        <ele>166.7</ele>
        <time>2021-02-07T13:50:03Z</time>
      </trkpt>
      <trkpt lat="43.61158" lon="3.70967">
        <ele>166.9</ele>
        <time>2021-02-07T13:50:04Z</time>
      </trkpt>
      <trkpt lat="43.6116" lon="3.70967">
        <ele>167.1</ele>
        <time>2021-02-07T13:50:05Z</time>
      </trkpt>
      <trkpt lat="43.61163" lon="3.70967">
        <ele>164</ele>
        <time>2021-02-07T13:50:06Z</time>
      </trkpt>
      <trkpt lat="43.61165" lon="3.70966">
        <ele>167.6</ele>
        <time>2021-02-07T13:50:07Z</time>
      </trkpt>
      <trkpt lat="43.61168" lon="3.70966">
        <ele>167.7</ele>
        <time>2021-02-07T13:50:08Z</time>
      </trkpt>
      <trkpt lat="43.6117" lon="3.70965">
        <ele>167.9</ele>
        <time>2021-02-07T13:50:09Z</time>
      </trkpt>
      <trkpt lat="43.61173" lon="3.70965">
        <ele>168</ele>
        <time>2021-02-07T13:50:10Z</time>
      </trkpt>
      <trkpt lat="43.61175" lon="3.70965">
        <ele>168.1</ele>
        <time>2021-02-07T13:50:11Z</time>
      </trkpt>
      <trkpt lat="43.61178" lon="3.70964">
        <ele>168.3</ele>
        <time>2021-02-07T13:50:12Z</time>
      </trkpt>
      <trkpt lat="43.61181" lon="3.70964">
        <ele>168.4</ele>
        <time>2021-02-07T13:50:13Z</time>
      </trkpt>
      <trkpt lat="43.61183" lon="3.70964">
        <ele>168.5</ele>
        <time>2021-02-07T13:50:14Z</time>
      </trkpt>
      <trkpt lat="43.61186" lon="3.70964">
        <ele>168.6</ele>
        <time>2021-02-07T13:50:15Z</time>
      </trkpt>
      <trkpt lat="43.61188" lon="3.70965">
        <ele>165</ele>
        <time>2021-02-07T13:50:16Z</time>
      </trkpt>
      <trkpt lat="43.61191" lon="3.70964">
        <ele>168.8</ele>
        <time>2021-02-07T13:50:17Z</time>
      </trkpt>
      <trkpt lat="43.61193" lon="3.70964">
        <ele>168.8</ele>
        <time>2021-02-07T13:50:18Z</time>
      </trkpt>
      <trkpt lat="43.61196" lon="3.70964">
        <ele>169</ele>
        <time>2021-02-07T13:50:19Z</time>
      </trkpt>
      <trkpt lat="43.61198" lon="3.70964">
        <ele>169.1</ele>
        <time>2021-02-07T13:50:20Z</time>
      </trkpt>
      <trkpt lat="43.612" lon="3.70964">
        <ele>169.2</ele>
        <time>2021-02-07T13:50:21Z</time>
      </trkpt>
      <trkpt lat="43.61203" lon="3.70964">
        <ele>169.4</ele>
        <time>2021-02-07T13:50:22Z</time>
      </trkpt>
      <trkpt lat="43.61205" lon="3.70964">
        <ele>169.5</ele>
        <time>2021-02-07T13:50:23Z</time>
      </trkpt>
      <trkpt lat="43.61207" lon="3.70964">
        <ele>169.7</ele>
        <time>2021-02-07T13:50:24Z</time>
      </trkpt>
      <trkpt lat="43.6121" lon="3.70964">
        <ele>169.8</ele>
        <time>2021-02-07T13:50:25Z</time>
      </trkpt>
      <trkpt lat="43.61212" lon="3.70964">
        <ele>166</ele>
        <time>2021-02-07T13:50:26Z</time>
      </trkpt>
      <trkpt lat="43.61214" lon="3.70964">
        <ele>170.1</ele>
        <time>2021-02-07T13:50:27Z</time>
      </trkpt>
      <trkpt lat="43.61217" lon="3.70964">
        <ele>170.3</ele>
        <time>2021-02-07T13:50:28Z</time>
      </trkpt>
      <trkpt lat="43.61219" lon="3.70964">
        <ele>170.4</ele>
        <time>2021-02-07T13:50:29Z</time>
      </trkpt>
      <trkpt lat="43.61221" lon="3.70964">
        <ele>170.5</ele>
        <time>2021-02-07T13:50:30Z</time>
      </trkpt>
      <trkpt lat="43.61224" lon="3.70963">
        <ele>170.8</ele>
        <time>2021-02-07T13:50:31Z</time>
      </trkpt>
      <trkpt lat="43.61226" lon="3.70963">
        <ele>170.9</ele>
        <time>2021-02-07T13:50:32Z</time>
      </trkpt>
      <trkpt lat="43.61229" lon="3.70963">
        <ele>171.1</ele>
        <time>2021-02-07T13:50:33Z</time>
      </trkpt>
      <trkpt lat="43.61231" lon="3.70964">
        <ele>171.1</ele>
        <time>2021-02-07T13:50:34Z</time>
      </trkpt>
      <trkpt lat="43.61233" lon="3.70964">
        <ele>171.3</ele>
        <time>2021-02-07T13:50:35Z</time>
      </trkpt>
      <trkpt lat="43.61236" lon="3.70964">
        <ele>171.4</ele>
        <time>2021-02-07T13:50:36Z</time>
      </trkpt>
      <trkpt lat="43.61238" lon="3.70965">
        <ele>168</ele>
        <time>2021-02-07T13:50:37Z</time>
      </trkpt>
      <trkpt lat="43.6124" lon="3.70965">
        <ele>171.6</ele>
        <time>2021-02-07T13:50:38Z</time>
      </trkpt>
      <trkpt lat="43.61243" lon="3.70965">
        <ele>171.8</ele>
        <time>2021-02-07T13:50:39Z</time>
      </trkpt>
      <trkpt lat="43.61245" lon="3.70966">
        <ele>171.9</ele>
        <time>2021-02-07T13:50:40Z</time>
      </trkpt>
      <trkpt lat="43.61248" lon="3.70966">
        <ele>172.1</ele>
        <time>2021-02-07T13:50:41Z</time>
      </trkpt>
      <trkpt lat="43.6125" lon="3.70966">
        <ele>172.2</ele>
        <time>2021-02-07T13:50:42Z</time>
      </trkpt>
      <trkpt lat="43.61252" lon="3.70967">
        <ele>172.3</ele>
        <time>2021-02-07T13:50:43Z</time>
      </trkpt>
      <trkpt lat="43.61254" lon="3.70967">
        <ele>172.4</ele>
        <time>2021-02-07T13:50:44Z</time>
      </trkpt>
      <trkpt lat="43.61256" lon="3.70968">
        <ele>172.5</ele>
        <time>2021-02-07T13:50:45Z</time>
      </trkpt>
      <trkpt lat="43.61258" lon="3.70968">
        <ele>169</ele>
        <time>2021-02-07T13:50:46Z</time>
      </trkpt>
      <trkpt lat="43.61261" lon="3.70969">
        <ele>172.8</ele>
        <time>2021-02-07T13:50:47Z</time>
      </trkpt>
      <trkpt lat="43.61263" lon="3.70969">
        <ele>172.9</ele>
        <time>2021-02-07T13:50:48Z</time>
      </trkpt>
      <trkpt lat="43.61265" lon="3.7097">
        <ele>173.1</ele>
        <time>2021-02-07T13:50:49Z</time>
      </trkpt>
      <trkpt lat="43.61267" lon="3.70969">
        <ele>173.2</ele>
        <time>2021-02-07T13:50:50Z</time>
      </trkpt>
      <trkpt lat="43.61269" lon="3.70969">
        <ele>173.3</ele>
        <time>2021-02-07T13:50:51Z</time>
      </trkpt>
      <trkpt lat="43.61271" lon="3.70969">
        <ele>173.5</ele>
        <time>2021-02-07T13:50:52Z</time>
      </trkpt>
      <trkpt lat="43.61274" lon="3.70969">
        <ele>173.6</ele>
        <time>2021-02-07T13:50:54Z</time>
      </trkpt>
      <trkpt lat="43.61277" lon="3.7097">
        <ele>171</ele>
        <time>2021-02-07T13:50:56Z</time>
      </trkpt>
      <trkpt lat="43.61279" lon="3.70971">
        <ele>174.1</ele>
        <time>2021-02-07T13:50:58Z</time>
      </trkpt>
      <trkpt lat="43.61281" lon="3.70971">
        <ele>174.3</ele>
        <time>2021-02-07T13:51:00Z</time>
      </trkpt>
      <trkpt lat="43.61283" lon="3.70969">
        <ele>174.4</ele>
        <time>2021-02-07T13:51:02Z</time>
      </trkpt>
      <trkpt lat="43.61284" lon="3.70967">
        <ele>174.5</ele>
        <time>2021-02-07T13:51:04Z</time>
      </trkpt>
      <trkpt lat="43.61284" lon="3.70964">
        <ele>172</ele>
        <time>2021-02-07T13:51:06Z</time>
      </trkpt>
      <trkpt lat="43.61286" lon="3.70962">
        <ele>174.5</ele>
        <time>2021-02-07T13:51:08Z</time>
      </trkpt>
      <trkpt lat="43.61288" lon="3.70964">
        <ele>174.8</ele>
        <time>2021-02-07T13:51:10Z</time>
      </trkpt>
      <trkpt lat="43.61286" lon="3.70966">
        <ele>174.7</ele>
        <time>2021-02-07T13:51:12Z</time>
      </trkpt>
      <trkpt lat="43.61285" lon="3.70968">
        <ele>174.6</ele>
        <time>2021-02-07T13:51:14Z</time>
      </trkpt>
      <trkpt lat="43.61283" lon="3.7097">
        <ele>172</ele>
        <time>2021-02-07T13:51:16Z</time>
      </trkpt>
      <trkpt lat="43.61282" lon="3.70972">
        <ele>174.4</ele>
        <time>2021-02-07T13:51:18Z</time>
      </trkpt>
      <trkpt lat="43.61281" lon="3.70975">
        <ele>174.5</ele>
        <time>2021-02-07T13:51:20Z</time>
      </trkpt>
      <trkpt lat="43.61279" lon="3.70976">
        <ele>174.4</ele>
        <time>2021-02-07T13:51:22Z</time>
      </trkpt>
      <trkpt lat="43.61277" lon="3.70976">
        <ele>174.2</ele>
        <time>2021-02-07T13:51:24Z</time>
      </trkpt>
      <trkpt lat="43.61275" lon="3.70975">
        <ele>173</ele>
        <time>2021-02-07T13:51:26Z</time>
      </trkpt>
      <trkpt lat="43.61273" lon="3.70972">
        <ele>173.7</ele>
        <time>2021-02-07T13:51:28Z</time>
      </trkpt>
      <trkpt lat="43.61275" lon="3.7097">
        <ele>173.7</ele>
        <time>2021-02-07T13:51:30Z</time>
      </trkpt>
      <trkpt lat="43.61277" lon="3.70969">
        <ele>173.8</ele>
        <time>2021-02-07T13:51:32Z</time>
      </trkpt>
      <trkpt lat="43.61279" lon="3.70967">
        <ele>173.9</ele>
        <time>2021-02-07T13:51:34Z</time>
      </trkpt>
      <trkpt lat="43.61282" lon="3.70966">
        <ele>174</ele>
        <time>2021-02-07T13:51:36Z</time>
      </trkpt>
      <trkpt lat="43.61284" lon="3.70965">
        <ele>174.4</ele>
        <time>2021-02-07T13:51:38Z</time>
      </trkpt>
      <trkpt lat="43.61286" lon="3.70962">
        <ele>174.5</ele>
        <time>2021-02-07T13:51:40Z</time>
      </trkpt>
      <trkpt lat="43.61288" lon="3.70959">
        <ele>174.6</ele>
        <time>2021-02-07T13:51:42Z</time>
      </trkpt>
      <trkpt lat="43.61291" lon="3.70957">
        <ele>174.9</ele>
        <time>2021-02-07T13:51:44Z</time>
      </trkpt>
      <trkpt lat="43.61293" lon="3.70955">
        <ele>175</ele>
        <time>2021-02-07T13:51:46Z</time>
      </trkpt>
      <trkpt lat="43.61296" lon="3.70952">
        <ele>175.2</ele>
        <time>2021-02-07T13:51:48Z</time>
      </trkpt>
      <trkpt lat="43.61298" lon="3.7095">
        <ele>175.4</ele>
        <time>2021-02-07T13:51:50Z</time>
      </trkpt>
      <trkpt lat="43.61301" lon="3.70947">
        <ele>175.6</ele>
        <time>2021-02-07T13:51:52Z</time>
      </trkpt>
      <trkpt lat="43.61303" lon="3.70945">
        <ele>175.7</ele>
        <time>2021-02-07T13:51:54Z</time>
      </trkpt>
      <trkpt lat="43.61306" lon="3.70942">
        <ele>176.1</ele>
        <time>2021-02-07T13:51:56Z</time>
      </trkpt>
      <trkpt lat="43.61309" lon="3.70938">
        <ele>176.5</ele>
        <time>2021-02-07T13:51:58Z</time>
      </trkpt>
      <trkpt lat="43.61311" lon="3.70935">
        <ele>176.7</ele>
        <time>2021-02-07T13:52:00Z</time>
      </trkpt>
      <trkpt lat="43.61313" lon="3.70931">
        <ele>176.9</ele>
        <time>2021-02-07T13:52:02Z</time>
      </trkpt>
      <trkpt lat="43.61315" lon="3.70928">
        <ele>177.2</ele>
        <time>2021-02-07T13:52:03Z</time>
      </trkpt>
      <trkpt lat="43.61316" lon="3.70926">
        <ele>177.3</ele>
        <time>2021-02-07T13:52:04Z</time>
      </trkpt>
      <trkpt lat="43.61317" lon="3.70922">
        <ele>177.3</ele>
        <time>2021-02-07T13:52:06Z</time>
      </trkpt>
      <trkpt lat="43.6132" lon="3.70919">
        <ele>177.6</ele>
        <time>2021-02-07T13:52:08Z</time>
      </trkpt>
      <trkpt lat="43.61321" lon="3.70918">
        <ele>177.7</ele>
        <time>2021-02-07T13:52:09Z</time>
      </trkpt>
      <trkpt lat="43.61323" lon="3.70916">
        <ele>177.9</ele>
        <time>2021-02-07T13:52:10Z</time>
      </trkpt>
      <trkpt lat="43.61325" lon="3.70913">
        <ele>178.1</ele>
        <time>2021-02-07T13:52:12Z</time>
      </trkpt>
      <trkpt lat="43.61327" lon="3.7091">
        <ele>178.4</ele>
        <time>2021-02-07T13:52:14Z</time>
      </trkpt>
      <trkpt lat="43.61329" lon="3.70908">
        <ele>178</ele>
        <time>2021-02-07T13:52:16Z</time>
      </trkpt>
      <trkpt lat="43.61332" lon="3.70906">
        <ele>178.9</ele>
        <time>2021-02-07T13:52:18Z</time>
      </trkpt>
      <trkpt lat="43.61335" lon="3.70903">
        <ele>179.2</ele>
        <time>2021-02-07T13:52:20Z</time>
      </trkpt>
      <trkpt lat="43.61337" lon="3.70901">
        <ele>179.4</ele>
        <time>2021-02-07T13:52:21Z</time>
      </trkpt>
      <trkpt lat="43.61338" lon="3.709">
        <ele>179.5</ele>
        <time>2021-02-07T13:52:22Z</time>
      </trkpt>
      <trkpt lat="43.61341" lon="3.70898">
        <ele>179.8</ele>
        <time>2021-02-07T13:52:24Z</time>
      </trkpt>
      <trkpt lat="43.61344" lon="3.70897">
        <ele>179</ele>
        <time>2021-02-07T13:52:26Z</time>
      </trkpt>
      <trkpt lat="43.61346" lon="3.70896">
        <ele>180.4</ele>
        <time>2021-02-07T13:52:28Z</time>
      </trkpt>
      <trkpt lat="43.61348" lon="3.70895">
        <ele>180.6</ele>
        <time>2021-02-07T13:52:30Z</time>
      </trkpt>
      <trkpt lat="43.6135" lon="3.70895">
        <ele>180.8</ele>
        <time>2021-02-07T13:52:32Z</time>
      </trkpt>
      <trkpt lat="43.61352" lon="3.70898">
        <ele>181</ele>
        <time>2021-02-07T13:52:34Z</time>
      </trkpt>
      <trkpt lat="43.61353" lon="3.709">
        <ele>181.1</ele>
        <time>2021-02-07T13:52:37Z</time>
      </trkpt>
      <trkpt lat="43.61356" lon="3.70899">
        <ele>181.4</ele>
        <time>2021-02-07T13:52:40Z</time>
      </trkpt>
      <trkpt lat="43.61356" lon="3.70897">
        <ele>181.4</ele>
        <time>2021-02-07T13:52:42Z</time>
      </trkpt>
      <trkpt lat="43.61356" lon="3.70894">
        <ele>181.4</ele>
        <time>2021-02-07T13:52:44Z</time>
      </trkpt>
      <trkpt lat="43.61358" lon="3.70892">
        <ele>180</ele>
        <time>2021-02-07T13:52:46Z</time>
      </trkpt>
      <trkpt lat="43.6136" lon="3.7089">
        <ele>181.9</ele>
        <time>2021-02-07T13:52:48Z</time>
      </trkpt>
      <trkpt lat="43.61361" lon="3.70887">
        <ele>182.1</ele>
        <time>2021-02-07T13:52:50Z</time>
      </trkpt>
      <trkpt lat="43.61362" lon="3.70883">
        <ele>182.3</ele>
        <time>2021-02-07T13:52:52Z</time>
      </trkpt>
      <trkpt lat="43.61363" lon="3.7088">
        <ele>182.5</ele>
        <time>2021-02-07T13:52:54Z</time>
      </trkpt>
      <trkpt lat="43.61365" lon="3.70875">
        <ele>181</ele>
        <time>2021-02-07T13:52:56Z</time>
      </trkpt>
      <trkpt lat="43.61367" lon="3.70872">
        <ele>183.2</ele>
        <time>2021-02-07T13:52:58Z</time>
      </trkpt>
      <trkpt lat="43.61368" lon="3.70868">
        <ele>183.5</ele>
        <time>2021-02-07T13:53:00Z</time>
      </trkpt>
      <trkpt lat="43.61369" lon="3.70866">
        <ele>183.7</ele>
        <time>2021-02-07T13:53:01Z</time>
      </trkpt>
      <trkpt lat="43.61372" lon="3.70863">
        <ele>184.1</ele>
        <time>2021-02-07T13:53:03Z</time>
      </trkpt>
      <trkpt lat="43.61374" lon="3.70862">
        <ele>184.4</ele>
        <time>2021-02-07T13:53:05Z</time>
      </trkpt>
      <trkpt lat="43.61378" lon="3.70861">
        <ele>184.8</ele>
        <time>2021-02-07T13:53:07Z</time>
      </trkpt>
      <trkpt lat="43.6138" lon="3.70859">
        <ele>185.1</ele>
        <time>2021-02-07T13:53:09Z</time>
      </trkpt>
      <trkpt lat="43.61382" lon="3.70855">
        <ele>185.5</ele>
        <time>2021-02-07T13:53:11Z</time>
      </trkpt>
      <trkpt lat="43.61384" lon="3.70853">
        <ele>185.8</ele>
        <time>2021-02-07T13:53:13Z</time>
      </trkpt>
      <trkpt lat="43.61386" lon="3.70849">
        <ele>186.2</ele>
        <time>2021-02-07T13:53:15Z</time>
      </trkpt>
      <trkpt lat="43.61388" lon="3.70847">
        <ele>186.4</ele>
        <time>2021-02-07T13:53:17Z</time>
      </trkpt>
      <trkpt lat="43.6139" lon="3.70845">
        <ele>186.7</ele>
        <time>2021-02-07T13:53:19Z</time>
      </trkpt>
      <trkpt lat="43.61392" lon="3.70842">
        <ele>187</ele>
        <time>2021-02-07T13:53:21Z</time>
      </trkpt>
      <trkpt lat="43.61394" lon="3.7084">
        <ele>187.3</ele>
        <time>2021-02-07T13:53:23Z</time>
      </trkpt>
      <trkpt lat="43.61395" lon="3.70837">
        <ele>187.5</ele>
        <time>2021-02-07T13:53:25Z</time>
      </trkpt>
      <trkpt lat="43.61397" lon="3.70834">
        <ele>187.9</ele>
        <time>2021-02-07T13:53:27Z</time>
      </trkpt>
      <trkpt lat="43.61399" lon="3.70831">
        <ele>188.3</ele>
        <time>2021-02-07T13:53:29Z</time>
      </trkpt>
      <trkpt lat="43.61401" lon="3.70829">
        <ele>188.7</ele>
        <time>2021-02-07T13:53:31Z</time>
      </trkpt>
      <trkpt lat="43.61403" lon="3.70827">
        <ele>189.1</ele>
        <time>2021-02-07T13:53:33Z</time>
      </trkpt>
      <trkpt lat="43.61404" lon="3.70824">
        <ele>189.5</ele>
        <time>2021-02-07T13:53:35Z</time>
      </trkpt>
      <trkpt lat="43.61405" lon="3.70821">
        <ele>189.8</ele>
        <time>2021-02-07T13:53:37Z</time>
      </trkpt>
      <trkpt lat="43.61407" lon="3.70818">
        <ele>190.3</ele>
        <time>2021-02-07T13:53:39Z</time>
      </trkpt>
      <trkpt lat="43.61409" lon="3.70816">
        <ele>190.6</ele>
        <time>2021-02-07T13:53:41Z</time>
      </trkpt>
      <trkpt lat="43.6141" lon="3.70813">
        <ele>190.9</ele>
        <time>2021-02-07T13:53:43Z</time>
      </trkpt>
      <trkpt lat="43.61412" lon="3.7081">
        <ele>191.3</ele>
        <time>2021-02-07T13:53:45Z</time>
      </trkpt>
      <trkpt lat="43.61413" lon="3.70807">
        <ele>191.6</ele>
        <time>2021-02-07T13:53:47Z</time>
      </trkpt>
      <trkpt lat="43.61414" lon="3.70804">
        <ele>191.9</ele>
        <time>2021-02-07T13:53:49Z</time>
      </trkpt>
      <trkpt lat="43.61416" lon="3.70802">
        <ele>192.1</ele>
        <time>2021-02-07T13:53:51Z</time>
      </trkpt>
      <trkpt lat="43.61418" lon="3.70799">
        <ele>192.3</ele>
        <time>2021-02-07T13:53:53Z</time>
      </trkpt>
      <trkpt lat="43.6142" lon="3.70796">
        <ele>192.5</ele>
        <time>2021-02-07T13:53:55Z</time>
      </trkpt>
      <trkpt lat="43.61421" lon="3.70793">
        <ele>192.6</ele>
        <time>2021-02-07T13:53:57Z</time>
      </trkpt>
      <trkpt lat="43.61423" lon="3.7079">
        <ele>192.8</ele>
        <time>2021-02-07T13:53:59Z</time>
      </trkpt>
      <trkpt lat="43.61425" lon="3.70788">
        <ele>192.9</ele>
        <time>2021-02-07T13:54:01Z</time>
      </trkpt>
      <trkpt lat="43.61427" lon="3.70785">
        <ele>193.1</ele>
        <time>2021-02-07T13:54:03Z</time>
      </trkpt>
      <trkpt lat="43.61429" lon="3.70782">
        <ele>193.3</ele>
        <time>2021-02-07T13:54:05Z</time>
      </trkpt>
      <trkpt lat="43.61431" lon="3.70779">
        <ele>193.5</ele>
        <time>2021-02-07T13:54:07Z</time>
      </trkpt>
      <trkpt lat="43.61433" lon="3.70776">
        <ele>193.7</ele>
        <time>2021-02-07T13:54:09Z</time>
      </trkpt>
      <trkpt lat="43.61436" lon="3.70773">
        <ele>193.9</ele>
        <time>2021-02-07T13:54:11Z</time>
      </trkpt>
      <trkpt lat="43.61438" lon="3.7077">
        <ele>194</ele>
        <time>2021-02-07T13:54:13Z</time>
      </trkpt>
      <trkpt lat="43.61441" lon="3.70767">
        <ele>194.3</ele>
        <time>2021-02-07T13:54:15Z</time>
      </trkpt>
      <trkpt lat="43.61443" lon="3.70764">
        <ele>194.4</ele>
        <time>2021-02-07T13:54:17Z</time>
      </trkpt>
      <trkpt lat="43.61444" lon="3.70762">
        <ele>194.6</ele>
        <time>2021-02-07T13:54:18Z</time>
      </trkpt>
      <trkpt lat="43.61446" lon="3.7076">
        <ele>194.7</ele>
        <time>2021-02-07T13:54:19Z</time>
      </trkpt>
      <trkpt lat="43.61447" lon="3.70758">
        <ele>194.7</ele>
        <time>2021-02-07T13:54:20Z</time>
      </trkpt>
      <trkpt lat="43.61449" lon="3.70756">
        <ele>194.8</ele>
        <time>2021-02-07T13:54:21Z</time>
      </trkpt>
      <trkpt lat="43.61451" lon="3.70755">
        <ele>194.9</ele>
        <time>2021-02-07T13:54:22Z</time>
      </trkpt>
      <trkpt lat="43.61452" lon="3.70753">
        <ele>194.9</ele>
        <time>2021-02-07T13:54:23Z</time>
      </trkpt>
      <trkpt lat="43.61455" lon="3.7075">
        <ele>195</ele>
        <time>2021-02-07T13:54:25Z</time>
      </trkpt>
      <trkpt lat="43.61457" lon="3.70747">
        <ele>195</ele>
        <time>2021-02-07T13:54:27Z</time>
      </trkpt>
      <trkpt lat="43.6146" lon="3.70744">
        <ele>195.1</ele>
        <time>2021-02-07T13:54:29Z</time>
      </trkpt>
      <trkpt lat="43.61462" lon="3.7074">
        <ele>195.2</ele>
        <time>2021-02-07T13:54:31Z</time>
      </trkpt>
      <trkpt lat="43.61464" lon="3.70739">
        <ele>195.3</ele>
        <time>2021-02-07T13:54:32Z</time>
      </trkpt>
      <trkpt lat="43.61466" lon="3.70736">
        <ele>195.4</ele>
        <time>2021-02-07T13:54:34Z</time>
      </trkpt>
      <trkpt lat="43.61469" lon="3.70733">
        <ele>195</ele>
        <time>2021-02-07T13:54:36Z</time>
      </trkpt>
      <trkpt lat="43.61471" lon="3.7073">
        <ele>195.7</ele>
        <time>2021-02-07T13:54:38Z</time>
      </trkpt>
      <trkpt lat="43.61474" lon="3.70727">
        <ele>195.8</ele>
        <time>2021-02-07T13:54:40Z</time>
      </trkpt>
      <trkpt lat="43.61476" lon="3.70724">
        <ele>195.9</ele>
        <time>2021-02-07T13:54:42Z</time>
      </trkpt>
      <trkpt lat="43.61478" lon="3.70722">
        <ele>196</ele>
        <time>2021-02-07T13:54:43Z</time>
      </trkpt>
      <trkpt lat="43.61479" lon="3.70721">
        <ele>196</ele>
        <time>2021-02-07T13:54:44Z</time>
      </trkpt>
      <trkpt lat="43.6148" lon="3.70719">
        <ele>196</ele>
        <time>2021-02-07T13:54:45Z</time>
      </trkpt>
      <trkpt lat="43.61482" lon="3.70717">
        <ele>195</ele>
        <time>2021-02-07T13:54:46Z</time>
      </trkpt>
      <trkpt lat="43.61484" lon="3.70714">
        <ele>196</ele>
        <time>2021-02-07T13:54:48Z</time>
      </trkpt>
      <trkpt lat="43.61486" lon="3.70712">
        <ele>196</ele>
        <time>2021-02-07T13:54:50Z</time>
      </trkpt>
      <trkpt lat="43.61487" lon="3.70711">
        <ele>196</ele>
        <time>2021-02-07T13:54:52Z</time>
      </trkpt>
      <trkpt lat="43.61489" lon="3.70709">
        <ele>196</ele>
        <time>2021-02-07T13:54:54Z</time>
      </trkpt>
      <trkpt lat="43.61491" lon="3.70706">
        <ele>196</ele>
        <time>2021-02-07T13:54:56Z</time>
      </trkpt>
      <trkpt lat="43.61493" lon="3.70703">
        <ele>196</ele>
        <time>2021-02-07T13:54:58Z</time>
      </trkpt>
      <trkpt lat="43.61494" lon="3.707">
        <ele>196</ele>
        <time>2021-02-07T13:55:00Z</time>
      </trkpt>
      <trkpt lat="43.61496" lon="3.70697">
        <ele>196</ele>
        <time>2021-02-07T13:55:02Z</time>
      </trkpt>
      <trkpt lat="43.61499" lon="3.70695">
        <ele>196</ele>
        <time>2021-02-07T13:55:04Z</time>
      </trkpt>
      <trkpt lat="43.61501" lon="3.70693">
        <ele>196</ele>
        <time>2021-02-07T13:55:06Z</time>
      </trkpt>
      <trkpt lat="43.61502" lon="3.70691">
        <ele>196</ele>
        <time>2021-02-07T13:55:08Z</time>
      </trkpt>
      <trkpt lat="43.61505" lon="3.70689">
        <ele>196</ele>
        <time>2021-02-07T13:55:10Z</time>
      </trkpt>
      <trkpt lat="43.61507" lon="3.70687">
        <ele>195.9</ele>
        <time>2021-02-07T13:55:12Z</time>
      </trkpt>
      <trkpt lat="43.61509" lon="3.70684">
        <ele>195.9</ele>
        <time>2021-02-07T13:55:14Z</time>
      </trkpt>
      <trkpt lat="43.61511" lon="3.70681">
        <ele>195</ele>
        <time>2021-02-07T13:55:16Z</time>
      </trkpt>
      <trkpt lat="43.61514" lon="3.70677">
        <ele>195.7</ele>
        <time>2021-02-07T13:55:18Z</time>
      </trkpt>
      <trkpt lat="43.61515" lon="3.70676">
        <ele>195.6</ele>
        <time>2021-02-07T13:55:19Z</time>
      </trkpt>
      <trkpt lat="43.61516" lon="3.70674">
        <ele>195.6</ele>
        <time>2021-02-07T13:55:20Z</time>
      </trkpt>
      <trkpt lat="43.61518" lon="3.70672">
        <ele>195.5</ele>
        <time>2021-02-07T13:55:21Z</time>
      </trkpt>
      <trkpt lat="43.61519" lon="3.7067">
        <ele>195.4</ele>
        <time>2021-02-07T13:55:22Z</time>
      </trkpt>
      <trkpt lat="43.61521" lon="3.70669">
        <ele>195.3</ele>
        <time>2021-02-07T13:55:23Z</time>
      </trkpt>
      <trkpt lat="43.61522" lon="3.70667">
        <ele>195.2</ele>
        <time>2021-02-07T13:55:24Z</time>
      </trkpt>
      <trkpt lat="43.61524" lon="3.70665">
        <ele>195.1</ele>
        <time>2021-02-07T13:55:25Z</time>
      </trkpt>
      <trkpt lat="43.61525" lon="3.70663">
        <ele>195</ele>
        <time>2021-02-07T13:55:26Z</time>
      </trkpt>
      <trkpt lat="43.61526" lon="3.70661">
        <ele>194.9</ele>
        <time>2021-02-07T13:55:27Z</time>
      </trkpt>
      <trkpt lat="43.61528" lon="3.70659">
        <ele>194.7</ele>
        <time>2021-02-07T13:55:28Z</time>
      </trkpt>
      <trkpt lat="43.61529" lon="3.70657">
        <ele>194.7</ele>
        <time>2021-02-07T13:55:29Z</time>
      </trkpt>
      <trkpt lat="43.61531" lon="3.70655">
        <ele>194.6</ele>
        <time>2021-02-07T13:55:30Z</time>
      </trkpt>
      <trkpt lat="43.61532" lon="3.70653">
        <ele>194.5</ele>
        <time>2021-02-07T13:55:31Z</time>
      </trkpt>
      <trkpt lat="43.61534" lon="3.70652">
        <ele>194.5</ele>
        <time>2021-02-07T13:55:32Z</time>
      </trkpt>
      <trkpt lat="43.61535" lon="3.7065">
        <ele>194.4</ele>
        <time>2021-02-07T13:55:33Z</time>
      </trkpt>
      <trkpt lat="43.61536" lon="3.70648">
        <ele>194.3</ele>
        <time>2021-02-07T13:55:34Z</time>
      </trkpt>
      <trkpt lat="43.61538" lon="3.70646">
        <ele>194.3</ele>
        <time>2021-02-07T13:55:35Z</time>
      </trkpt>
      <trkpt lat="43.61539" lon="3.70645">
        <ele>194</ele>
        <time>2021-02-07T13:55:36Z</time>
      </trkpt>
      <trkpt lat="43.6154" lon="3.70643">
        <ele>194.1</ele>
        <time>2021-02-07T13:55:37Z</time>
      </trkpt>
      <trkpt lat="43.61543" lon="3.70639">
        <ele>194</ele>
        <time>2021-02-07T13:55:39Z</time>
      </trkpt>
      <trkpt lat="43.61544" lon="3.70637">
        <ele>193.9</ele>
        <time>2021-02-07T13:55:40Z</time>
      </trkpt>
      <trkpt lat="43.61547" lon="3.70634">
        <ele>193.8</ele>
        <time>2021-02-07T13:55:42Z</time>
      </trkpt>
      <trkpt lat="43.61548" lon="3.70632">
        <ele>193.8</ele>
        <time>2021-02-07T13:55:43Z</time>
      </trkpt>
      <trkpt lat="43.6155" lon="3.70631">
        <ele>193.7</ele>
        <time>2021-02-07T13:55:44Z</time>
      </trkpt>
      <trkpt lat="43.61551" lon="3.70629">
        <ele>193.6</ele>
        <time>2021-02-07T13:55:45Z</time>
      </trkpt>
      <trkpt lat="43.61553" lon="3.70627">
        <ele>193</ele>
        <time>2021-02-07T13:55:46Z</time>
      </trkpt>
      <trkpt lat="43.61554" lon="3.70625">
        <ele>193.5</ele>
        <time>2021-02-07T13:55:47Z</time>
      </trkpt>
      <trkpt lat="43.61556" lon="3.70623">
        <ele>193.4</ele>
        <time>2021-02-07T13:55:48Z</time>
      </trkpt>
      <trkpt lat="43.61557" lon="3.70621">
        <ele>193.4</ele>
        <time>2021-02-07T13:55:49Z</time>
      </trkpt>
      <trkpt lat="43.61559" lon="3.7062">
        <ele>193.3</ele>
        <time>2021-02-07T13:55:50Z</time>
      </trkpt>
      <trkpt lat="43.61561" lon="3.70618">
        <ele>193.2</ele>
        <time>2021-02-07T13:55:51Z</time>
      </trkpt>
      <trkpt lat="43.61562" lon="3.70616">
        <ele>193.2</ele>
        <time>2021-02-07T13:55:52Z</time>
      </trkpt>
      <trkpt lat="43.61564" lon="3.70614">
        <ele>193.1</ele>
        <time>2021-02-07T13:55:53Z</time>
      </trkpt>
      <trkpt lat="43.61566" lon="3.70612">
        <ele>193</ele>
        <time>2021-02-07T13:55:54Z</time>
      </trkpt>
      <trkpt lat="43.61567" lon="3.7061">
        <ele>192.9</ele>
        <time>2021-02-07T13:55:55Z</time>
      </trkpt>
      <trkpt lat="43.61569" lon="3.70608">
        <ele>192</ele>
        <time>2021-02-07T13:55:56Z</time>
      </trkpt>
      <trkpt lat="43.61571" lon="3.70606">
        <ele>192.7</ele>
        <time>2021-02-07T13:55:57Z</time>
      </trkpt>
      <trkpt lat="43.61572" lon="3.70604">
        <ele>192.6</ele>
        <time>2021-02-07T13:55:58Z</time>
      </trkpt>
      <trkpt lat="43.61574" lon="3.70602">
        <ele>192.6</ele>
        <time>2021-02-07T13:55:59Z</time>
      </trkpt>
      <trkpt lat="43.61576" lon="3.70599">
        <ele>192.4</ele>
        <time>2021-02-07T13:56:00Z</time>
      </trkpt>
      <trkpt lat="43.61577" lon="3.70597">
        <ele>192.4</ele>
        <time>2021-02-07T13:56:01Z</time>
      </trkpt>
      <trkpt lat="43.61579" lon="3.70595">
        <ele>192.3</ele>
        <time>2021-02-07T13:56:02Z</time>
      </trkpt>
      <trkpt lat="43.6158" lon="3.70593">
        <ele>192.3</ele>
        <time>2021-02-07T13:56:03Z</time>
      </trkpt>
      <trkpt lat="43.61582" lon="3.70591">
        <ele>192.2</ele>
        <time>2021-02-07T13:56:04Z</time>
      </trkpt>
      <trkpt lat="43.61584" lon="3.70588">
        <ele>192.2</ele>
        <time>2021-02-07T13:56:05Z</time>
      </trkpt>
      <trkpt lat="43.61586" lon="3.70586">
        <ele>192</ele>
        <time>2021-02-07T13:56:06Z</time>
      </trkpt>
      <trkpt lat="43.61588" lon="3.70583">
        <ele>192</ele>
        <time>2021-02-07T13:56:07Z</time>
      </trkpt>
      <trkpt lat="43.6159" lon="3.7058">
        <ele>191.8</ele>
        <time>2021-02-07T13:56:08Z</time>
      </trkpt>
      <trkpt lat="43.61593" lon="3.70578">
        <ele>191.7</ele>
        <time>2021-02-07T13:56:09Z</time>
      </trkpt>
      <trkpt lat="43.61595" lon="3.70575">
        <ele>191.5</ele>
        <time>2021-02-07T13:56:10Z</time>
      </trkpt>
      <trkpt lat="43.61598" lon="3.70573">
        <ele>191.5</ele>
        <time>2021-02-07T13:56:11Z</time>
      </trkpt>
      <trkpt lat="43.616" lon="3.70571">
        <ele>191.4</ele>
        <time>2021-02-07T13:56:12Z</time>
      </trkpt>
      <trkpt lat="43.61603" lon="3.70568">
        <ele>191.3</ele>
        <time>2021-02-07T13:56:13Z</time>
      </trkpt>
      <trkpt lat="43.61606" lon="3.70565">
        <ele>191.2</ele>
        <time>2021-02-07T13:56:14Z</time>
      </trkpt>
      <trkpt lat="43.61608" lon="3.70562">
        <ele>191.1</ele>
        <time>2021-02-07T13:56:15Z</time>
      </trkpt>
      <trkpt lat="43.6161" lon="3.70559">
        <ele>191</ele>
        <time>2021-02-07T13:56:16Z</time>
      </trkpt>
      <trkpt lat="43.61612" lon="3.70556">
        <ele>191</ele>
        <time>2021-02-07T13:56:17Z</time>
      </trkpt>
      <trkpt lat="43.61614" lon="3.70552">
        <ele>191</ele>
        <time>2021-02-07T13:56:18Z</time>
      </trkpt>
      <trkpt lat="43.61617" lon="3.7055">
        <ele>191</ele>
        <time>2021-02-07T13:56:19Z</time>
      </trkpt>
      <trkpt lat="43.6162" lon="3.70548">
        <ele>191</ele>
        <time>2021-02-07T13:56:20Z</time>
      </trkpt>
      <trkpt lat="43.61623" lon="3.70546">
        <ele>191.1</ele>
        <time>2021-02-07T13:56:21Z</time>
      </trkpt>
      <trkpt lat="43.61626" lon="3.70544">
        <ele>191.1</ele>
        <time>2021-02-07T13:56:22Z</time>
      </trkpt>
      <trkpt lat="43.61629" lon="3.70542">
        <ele>191.2</ele>
        <time>2021-02-07T13:56:23Z</time>
      </trkpt>
      <trkpt lat="43.61632" lon="3.70542">
        <ele>191.3</ele>
        <time>2021-02-07T13:56:24Z</time>
      </trkpt>
      <trkpt lat="43.61635" lon="3.70541">
        <ele>191.3</ele>
        <time>2021-02-07T13:56:25Z</time>
      </trkpt>
      <trkpt lat="43.61637" lon="3.70539">
        <ele>191</ele>
        <time>2021-02-07T13:56:26Z</time>
      </trkpt>
      <trkpt lat="43.6164" lon="3.70537">
        <ele>191.4</ele>
        <time>2021-02-07T13:56:27Z</time>
      </trkpt>
      <trkpt lat="43.61643" lon="3.70536">
        <ele>191.4</ele>
        <time>2021-02-07T13:56:28Z</time>
      </trkpt>
      <trkpt lat="43.61646" lon="3.70535">
        <ele>191.4</ele>
        <time>2021-02-07T13:56:29Z</time>
      </trkpt>
      <trkpt lat="43.61648" lon="3.70534">
        <ele>191.5</ele>
        <time>2021-02-07T13:56:30Z</time>
      </trkpt>
      <trkpt lat="43.61651" lon="3.70532">
        <ele>191.5</ele>
        <time>2021-02-07T13:56:31Z</time>
      </trkpt>
      <trkpt lat="43.61654" lon="3.70531">
        <ele>191.6</ele>
        <time>2021-02-07T13:56:32Z</time>
      </trkpt>
      <trkpt lat="43.61656" lon="3.7053">
        <ele>191.6</ele>
        <time>2021-02-07T13:56:33Z</time>
      </trkpt>
      <trkpt lat="43.61659" lon="3.70529">
        <ele>191.7</ele>
        <time>2021-02-07T13:56:34Z</time>
      </trkpt>
      <trkpt lat="43.61662" lon="3.70527">
        <ele>191.8</ele>
        <time>2021-02-07T13:56:35Z</time>
      </trkpt>
      <trkpt lat="43.61665" lon="3.70524">
        <ele>192</ele>
        <time>2021-02-07T13:56:36Z</time>
      </trkpt>
      <trkpt lat="43.61667" lon="3.70522">
        <ele>192</ele>
        <time>2021-02-07T13:56:37Z</time>
      </trkpt>
      <trkpt lat="43.6167" lon="3.70521">
        <ele>192</ele>
        <time>2021-02-07T13:56:38Z</time>
      </trkpt>
      <trkpt lat="43.61673" lon="3.70519">
        <ele>192</ele>
        <time>2021-02-07T13:56:39Z</time>
      </trkpt>
      <trkpt lat="43.61676" lon="3.70518">
        <ele>192</ele>
        <time>2021-02-07T13:56:40Z</time>
      </trkpt>
      <trkpt lat="43.61679" lon="3.70516">
        <ele>192</ele>
        <time>2021-02-07T13:56:41Z</time>
      </trkpt>
      <trkpt lat="43.61682" lon="3.70515">
        <ele>192</ele>
        <time>2021-02-07T13:56:42Z</time>
      </trkpt>
      <trkpt lat="43.61684" lon="3.70513">
        <ele>192</ele>
        <time>2021-02-07T13:56:43Z</time>
      </trkpt>
      <trkpt lat="43.61687" lon="3.70511">
        <ele>192</ele>
        <time>2021-02-07T13:56:44Z</time>
      </trkpt>
      <trkpt lat="43.6169" lon="3.7051">
        <ele>192</ele>
        <time>2021-02-07T13:56:45Z</time>
      </trkpt>
      <trkpt lat="43.61692" lon="3.70508">
        <ele>192</ele>
        <time>2021-02-07T13:56:46Z</time>
      </trkpt>
      <trkpt lat="43.61695" lon="3.70506">
        <ele>192</ele>
        <time>2021-02-07T13:56:47Z</time>
      </trkpt>
      <trkpt lat="43.61698" lon="3.70505">
        <ele>192</ele>
        <time>2021-02-07T13:56:48Z</time>
      </trkpt>
      <trkpt lat="43.61701" lon="3.70503">
        <ele>192</ele>
        <time>2021-02-07T13:56:49Z</time>
      </trkpt>
      <trkpt lat="43.61704" lon="3.70501">
        <ele>192</ele>
        <time>2021-02-07T13:56:50Z</time>
      </trkpt>
      <trkpt lat="43.61707" lon="3.705">
        <ele>192</ele>
        <time>2021-02-07T13:56:51Z</time>
      </trkpt>
      <trkpt lat="43.6171" lon="3.70498">
        <ele>192</ele>
        <time>2021-02-07T13:56:52Z</time>
      </trkpt>
      <trkpt lat="43.61712" lon="3.70496">
        <ele>192.1</ele>
        <time>2021-02-07T13:56:53Z</time>
      </trkpt>
      <trkpt lat="43.61715" lon="3.70494">
        <ele>192.1</ele>
        <time>2021-02-07T13:56:54Z</time>
      </trkpt>
      <trkpt lat="43.61718" lon="3.70492">
        <ele>192</ele>
        <time>2021-02-07T13:56:55Z</time>
      </trkpt>
      <trkpt lat="43.61721" lon="3.7049">
        <ele>192</ele>
        <time>2021-02-07T13:56:56Z</time>
      </trkpt>
      <trkpt lat="43.61723" lon="3.70488">
        <ele>192</ele>
        <time>2021-02-07T13:56:57Z</time>
      </trkpt>
      <trkpt lat="43.61726" lon="3.70486">
        <ele>191.8</ele>
        <time>2021-02-07T13:56:58Z</time>
      </trkpt>
      <trkpt lat="43.61729" lon="3.70483">
        <ele>191.7</ele>
        <time>2021-02-07T13:56:59Z</time>
      </trkpt>
      <trkpt lat="43.61733" lon="3.70481">
        <ele>191.5</ele>
        <time>2021-02-07T13:57:00Z</time>
      </trkpt>
      <trkpt lat="43.61736" lon="3.70479">
        <ele>191.4</ele>
        <time>2021-02-07T13:57:01Z</time>
      </trkpt>
      <trkpt lat="43.61739" lon="3.70477">
        <ele>191.3</ele>
        <time>2021-02-07T13:57:02Z</time>
      </trkpt>
      <trkpt lat="43.61742" lon="3.70475">
        <ele>191.2</ele>
        <time>2021-02-07T13:57:03Z</time>
      </trkpt>
      <trkpt lat="43.61745" lon="3.70473">
        <ele>191.2</ele>
        <time>2021-02-07T13:57:04Z</time>
      </trkpt>
      <trkpt lat="43.61748" lon="3.70471">
        <ele>191.1</ele>
        <time>2021-02-07T13:57:05Z</time>
      </trkpt>
      <trkpt lat="43.61751" lon="3.70469">
        <ele>192</ele>
        <time>2021-02-07T13:57:06Z</time>
      </trkpt>
      <trkpt lat="43.61753" lon="3.70467">
        <ele>191.1</ele>
        <time>2021-02-07T13:57:07Z</time>
      </trkpt>
      <trkpt lat="43.61756" lon="3.70465">
        <ele>191</ele>
        <time>2021-02-07T13:57:08Z</time>
      </trkpt>
      <trkpt lat="43.61759" lon="3.70463">
        <ele>191</ele>
        <time>2021-02-07T13:57:09Z</time>
      </trkpt>
      <trkpt lat="43.61762" lon="3.70461">
        <ele>191</ele>
        <time>2021-02-07T13:57:10Z</time>
      </trkpt>
      <trkpt lat="43.61765" lon="3.70459">
        <ele>190.9</ele>
        <time>2021-02-07T13:57:11Z</time>
      </trkpt>
      <trkpt lat="43.61768" lon="3.70457">
        <ele>190.9</ele>
        <time>2021-02-07T13:57:12Z</time>
      </trkpt>
      <trkpt lat="43.61771" lon="3.70455">
        <ele>190.9</ele>
        <time>2021-02-07T13:57:13Z</time>
      </trkpt>
      <trkpt lat="43.61774" lon="3.70453">
        <ele>190.8</ele>
        <time>2021-02-07T13:57:14Z</time>
      </trkpt>
      <trkpt lat="43.61777" lon="3.70451">
        <ele>190.8</ele>
        <time>2021-02-07T13:57:15Z</time>
      </trkpt>
      <trkpt lat="43.6178" lon="3.70449">
        <ele>191</ele>
        <time>2021-02-07T13:57:16Z</time>
      </trkpt>
      <trkpt lat="43.61783" lon="3.70447">
        <ele>190.7</ele>
        <time>2021-02-07T13:57:17Z</time>
      </trkpt>
      <trkpt lat="43.61785" lon="3.70445">
        <ele>190.7</ele>
        <time>2021-02-07T13:57:18Z</time>
      </trkpt>
      <trkpt lat="43.61788" lon="3.70444">
        <ele>190.6</ele>
        <time>2021-02-07T13:57:19Z</time>
      </trkpt>
      <trkpt lat="43.61791" lon="3.70442">
        <ele>190.6</ele>
        <time>2021-02-07T13:57:20Z</time>
      </trkpt>
      <trkpt lat="43.61793" lon="3.7044">
        <ele>190.6</ele>
        <time>2021-02-07T13:57:21Z</time>
      </trkpt>
      <trkpt lat="43.61796" lon="3.70438">
        <ele>190.6</ele>
        <time>2021-02-07T13:57:22Z</time>
      </trkpt>
      <trkpt lat="43.61799" lon="3.70435">
        <ele>190.6</ele>
        <time>2021-02-07T13:57:23Z</time>
      </trkpt>
      <trkpt lat="43.61802" lon="3.70433">
        <ele>190.5</ele>
        <time>2021-02-07T13:57:24Z</time>
      </trkpt>
      <trkpt lat="43.61804" lon="3.70431">
        <ele>190.5</ele>
        <time>2021-02-07T13:57:25Z</time>
      </trkpt>
      <trkpt lat="43.61807" lon="3.70428">
        <ele>191</ele>
        <time>2021-02-07T13:57:26Z</time>
      </trkpt>
      <trkpt lat="43.61809" lon="3.70425">
        <ele>190.5</ele>
        <time>2021-02-07T13:57:27Z</time>
      </trkpt>
      <trkpt lat="43.61812" lon="3.70422">
        <ele>190.3</ele>
        <time>2021-02-07T13:57:28Z</time>
      </trkpt>
      <trkpt lat="43.61815" lon="3.7042">
        <ele>190.2</ele>
        <time>2021-02-07T13:57:29Z</time>
      </trkpt>
      <trkpt lat="43.61817" lon="3.70417">
        <ele>190.2</ele>
        <time>2021-02-07T13:57:30Z</time>
      </trkpt>
      <trkpt lat="43.61819" lon="3.70413">
        <ele>190.2</ele>
        <time>2021-02-07T13:57:31Z</time>
      </trkpt>
      <trkpt lat="43.61821" lon="3.7041">
        <ele>190.1</ele>
        <time>2021-02-07T13:57:32Z</time>
      </trkpt>
      <trkpt lat="43.61823" lon="3.70407">
        <ele>190.1</ele>
        <time>2021-02-07T13:57:33Z</time>
      </trkpt>
      <trkpt lat="43.61826" lon="3.70404">
        <ele>190</ele>
        <time>2021-02-07T13:57:34Z</time>
      </trkpt>
      <trkpt lat="43.61828" lon="3.70401">
        <ele>189.9</ele>
        <time>2021-02-07T13:57:35Z</time>
      </trkpt>
      <trkpt lat="43.6183" lon="3.70398">
        <ele>190</ele>
        <time>2021-02-07T13:57:36Z</time>
      </trkpt>
      <trkpt lat="43.61832" lon="3.70395">
        <ele>189.9</ele>
        <time>2021-02-07T13:57:37Z</time>
      </trkpt>
      <trkpt lat="43.61834" lon="3.70392">
        <ele>189.8</ele>
        <time>2021-02-07T13:57:38Z</time>
      </trkpt>
      <trkpt lat="43.61836" lon="3.70389">
        <ele>189.8</ele>
        <time>2021-02-07T13:57:39Z</time>
      </trkpt>
      <trkpt lat="43.61837" lon="3.70386">
        <ele>189.8</ele>
        <time>2021-02-07T13:57:40Z</time>
      </trkpt>
      <trkpt lat="43.61839" lon="3.70383">
        <ele>189.8</ele>
        <time>2021-02-07T13:57:41Z</time>
      </trkpt>
      <trkpt lat="43.61841" lon="3.70381">
        <ele>189.7</ele>
        <time>2021-02-07T13:57:42Z</time>
      </trkpt>
      <trkpt lat="43.61843" lon="3.70378">
        <ele>189.7</ele>
        <time>2021-02-07T13:57:43Z</time>
      </trkpt>
      <trkpt lat="43.61845" lon="3.70376">
        <ele>189.6</ele>
        <time>2021-02-07T13:57:44Z</time>
      </trkpt>
      <trkpt lat="43.61847" lon="3.70373">
        <ele>189.6</ele>
        <time>2021-02-07T13:57:45Z</time>
      </trkpt>
      <trkpt lat="43.61848" lon="3.7037">
        <ele>189</ele>
        <time>2021-02-07T13:57:46Z</time>
      </trkpt>
      <trkpt lat="43.6185" lon="3.70367">
        <ele>189.6</ele>
        <time>2021-02-07T13:57:47Z</time>
      </trkpt>
      <trkpt lat="43.61852" lon="3.70365">
        <ele>189.5</ele>
        <time>2021-02-07T13:57:48Z</time>
      </trkpt>
      <trkpt lat="43.61854" lon="3.70362">
        <ele>189.5</ele>
        <time>2021-02-07T13:57:49Z</time>
      </trkpt>
      <trkpt lat="43.61856" lon="3.70359">
        <ele>189.4</ele>
        <time>2021-02-07T13:57:50Z</time>
      </trkpt>
      <trkpt lat="43.61859" lon="3.70357">
        <ele>189.2</ele>
        <time>2021-02-07T13:57:51Z</time>
      </trkpt>
      <trkpt lat="43.61861" lon="3.70353">
        <ele>189</ele>
        <time>2021-02-07T13:57:52Z</time>
      </trkpt>
      <trkpt lat="43.61863" lon="3.7035">
        <ele>188.8</ele>
        <time>2021-02-07T13:57:53Z</time>
      </trkpt>
      <trkpt lat="43.61865" lon="3.70346">
        <ele>188.6</ele>
        <time>2021-02-07T13:57:54Z</time>
      </trkpt>
      <trkpt lat="43.61867" lon="3.70342">
        <ele>188.4</ele>
        <time>2021-02-07T13:57:55Z</time>
      </trkpt>
      <trkpt lat="43.61869" lon="3.70338">
        <ele>188</ele>
        <time>2021-02-07T13:57:56Z</time>
      </trkpt>
      <trkpt lat="43.6187" lon="3.70334">
        <ele>188</ele>
        <time>2021-02-07T13:57:57Z</time>
      </trkpt>
      <trkpt lat="43.61872" lon="3.70329">
        <ele>187.8</ele>
        <time>2021-02-07T13:57:58Z</time>
      </trkpt>
      <trkpt lat="43.61874" lon="3.70325">
        <ele>187.6</ele>
        <time>2021-02-07T13:57:59Z</time>
      </trkpt>
      <trkpt lat="43.61875" lon="3.7032">
        <ele>187.5</ele>
        <time>2021-02-07T13:58:00Z</time>
      </trkpt>
      <trkpt lat="43.61875" lon="3.70316">
        <ele>187.5</ele>
        <time>2021-02-07T13:58:01Z</time>
      </trkpt>
      <trkpt lat="43.61876" lon="3.70312">
        <ele>187.4</ele>
        <time>2021-02-07T13:58:02Z</time>
      </trkpt>
      <trkpt lat="43.61878" lon="3.70309">
        <ele>187.2</ele>
        <time>2021-02-07T13:58:03Z</time>
      </trkpt>
      <trkpt lat="43.61879" lon="3.70306">
        <ele>187.1</ele>
        <time>2021-02-07T13:58:04Z</time>
      </trkpt>
      <trkpt lat="43.61881" lon="3.70303">
        <ele>186.8</ele>
        <time>2021-02-07T13:58:05Z</time>
      </trkpt>
      <trkpt lat="43.61884" lon="3.703">
        <ele>187</ele>
        <time>2021-02-07T13:58:06Z</time>
      </trkpt>
      <trkpt lat="43.61886" lon="3.70297">
        <ele>186</ele>
        <time>2021-02-07T13:58:07Z</time>
      </trkpt>
      <trkpt lat="43.61888" lon="3.70294">
        <ele>185.7</ele>
        <time>2021-02-07T13:58:08Z</time>
      </trkpt>
      <trkpt lat="43.6189" lon="3.70291">
        <ele>185.3</ele>
        <time>2021-02-07T13:58:09Z</time>
      </trkpt>
      <trkpt lat="43.61891" lon="3.70286">
        <ele>185</ele>
        <time>2021-02-07T13:58:10Z</time>
      </trkpt>
      <trkpt lat="43.61893" lon="3.70282">
        <ele>184.6</ele>
        <time>2021-02-07T13:58:11Z</time>
      </trkpt>
      <trkpt lat="43.61895" lon="3.70277">
        <ele>184.1</ele>
        <time>2021-02-07T13:58:12Z</time>
      </trkpt>
      <trkpt lat="43.61897" lon="3.70272">
        <ele>183.7</ele>
        <time>2021-02-07T13:58:13Z</time>
      </trkpt>
      <trkpt lat="43.61899" lon="3.70267">
        <ele>183.3</ele>
        <time>2021-02-07T13:58:14Z</time>
      </trkpt>
      <trkpt lat="43.61902" lon="3.70261">
        <ele>182.8</ele>
        <time>2021-02-07T13:58:15Z</time>
      </trkpt>
      <trkpt lat="43.61904" lon="3.70255">
        <ele>182.5</ele>
        <time>2021-02-07T13:58:16Z</time>
      </trkpt>
      <trkpt lat="43.61907" lon="3.7025">
        <ele>185</ele>
        <time>2021-02-07T13:58:17Z</time>
      </trkpt>
      <trkpt lat="43.61909" lon="3.70244">
        <ele>181.8</ele>
        <time>2021-02-07T13:58:18Z</time>
      </trkpt>
      <trkpt lat="43.61911" lon="3.7024">
        <ele>181.6</ele>
        <time>2021-02-07T13:58:19Z</time>
      </trkpt>
      <trkpt lat="43.61912" lon="3.70235">
        <ele>181.5</ele>
        <time>2021-02-07T13:58:20Z</time>
      </trkpt>
      <trkpt lat="43.61915" lon="3.7023">
        <ele>181.2</ele>
        <time>2021-02-07T13:58:21Z</time>
      </trkpt>
      <trkpt lat="43.61917" lon="3.70225">
        <ele>181</ele>
        <time>2021-02-07T13:58:22Z</time>
      </trkpt>
      <trkpt lat="43.61919" lon="3.7022">
        <ele>180.8</ele>
        <time>2021-02-07T13:58:23Z</time>
      </trkpt>
      <trkpt lat="43.61921" lon="3.70216">
        <ele>180.7</ele>
        <time>2021-02-07T13:58:24Z</time>
      </trkpt>
      <trkpt lat="43.61924" lon="3.70211">
        <ele>180.5</ele>
        <time>2021-02-07T13:58:25Z</time>
      </trkpt>
      <trkpt lat="43.61926" lon="3.70207">
        <ele>183</ele>
        <time>2021-02-07T13:58:26Z</time>
      </trkpt>
      <trkpt lat="43.61928" lon="3.70203">
        <ele>180.2</ele>
        <time>2021-02-07T13:58:27Z</time>
      </trkpt>
      <trkpt lat="43.6193" lon="3.70198">
        <ele>180</ele>
        <time>2021-02-07T13:58:28Z</time>
      </trkpt>
      <trkpt lat="43.61932" lon="3.70193">
        <ele>179.9</ele>
        <time>2021-02-07T13:58:29Z</time>
      </trkpt>
      <trkpt lat="43.61933" lon="3.70188">
        <ele>180</ele>
        <time>2021-02-07T13:58:30Z</time>
      </trkpt>
      <trkpt lat="43.61935" lon="3.70184">
        <ele>179.9</ele>
        <time>2021-02-07T13:58:31Z</time>
      </trkpt>
      <trkpt lat="43.61936" lon="3.7018">
        <ele>180</ele>
        <time>2021-02-07T13:58:32Z</time>
      </trkpt>
      <trkpt lat="43.61938" lon="3.70176">
        <ele>180</ele>
        <time>2021-02-07T13:58:33Z</time>
      </trkpt>
      <trkpt lat="43.61939" lon="3.70172">
        <ele>180</ele>
        <time>2021-02-07T13:58:34Z</time>
      </trkpt>
      <trkpt lat="43.61941" lon="3.70169">
        <ele>180.1</ele>
        <time>2021-02-07T13:58:35Z</time>
      </trkpt>
      <trkpt lat="43.61942" lon="3.70166">
        <ele>181</ele>
        <time>2021-02-07T13:58:36Z</time>
      </trkpt>
      <trkpt lat="43.61943" lon="3.70162">
        <ele>179.9</ele>
        <time>2021-02-07T13:58:37Z</time>
      </trkpt>
      <trkpt lat="43.61945" lon="3.70159">
        <ele>179.7</ele>
        <time>2021-02-07T13:58:38Z</time>
      </trkpt>
      <trkpt lat="43.61946" lon="3.70156">
        <ele>179.6</ele>
        <time>2021-02-07T13:58:39Z</time>
      </trkpt>
      <trkpt lat="43.61947" lon="3.70152">
        <ele>179.4</ele>
        <time>2021-02-07T13:58:40Z</time>
      </trkpt>
      <trkpt lat="43.61949" lon="3.70149">
        <ele>179.3</ele>
        <time>2021-02-07T13:58:41Z</time>
      </trkpt>
      <trkpt lat="43.6195" lon="3.70145">
        <ele>179.2</ele>
        <time>2021-02-07T13:58:42Z</time>
      </trkpt>
      <trkpt lat="43.61951" lon="3.70141">
        <ele>179.1</ele>
        <time>2021-02-07T13:58:43Z</time>
      </trkpt>
      <trkpt lat="43.61953" lon="3.70137">
        <ele>179</ele>
        <time>2021-02-07T13:58:44Z</time>
      </trkpt>
      <trkpt lat="43.61955" lon="3.70134">
        <ele>179</ele>
        <time>2021-02-07T13:58:45Z</time>
      </trkpt>
      <trkpt lat="43.61956" lon="3.7013">
        <ele>180</ele>
        <time>2021-02-07T13:58:46Z</time>
      </trkpt>
      <trkpt lat="43.61958" lon="3.70127">
        <ele>179</ele>
        <time>2021-02-07T13:58:47Z</time>
      </trkpt>
      <trkpt lat="43.6196" lon="3.70123">
        <ele>179</ele>
        <time>2021-02-07T13:58:48Z</time>
      </trkpt>
      <trkpt lat="43.61961" lon="3.70119">
        <ele>179</ele>
        <time>2021-02-07T13:58:49Z</time>
      </trkpt>
      <trkpt lat="43.61963" lon="3.70114">
        <ele>179</ele>
        <time>2021-02-07T13:58:50Z</time>
      </trkpt>
      <trkpt lat="43.61964" lon="3.7011">
        <ele>178.9</ele>
        <time>2021-02-07T13:58:51Z</time>
      </trkpt>
      <trkpt lat="43.61966" lon="3.70106">
        <ele>178.7</ele>
        <time>2021-02-07T13:58:52Z</time>
      </trkpt>
      <trkpt lat="43.61967" lon="3.70103">
        <ele>178.5</ele>
        <time>2021-02-07T13:58:53Z</time>
      </trkpt>
      <trkpt lat="43.61969" lon="3.701">
        <ele>178.2</ele>
        <time>2021-02-07T13:58:54Z</time>
      </trkpt>
      <trkpt lat="43.6197" lon="3.70097">
        <ele>178</ele>
        <time>2021-02-07T13:58:55Z</time>
      </trkpt>
      <trkpt lat="43.61971" lon="3.70094">
        <ele>179</ele>
        <time>2021-02-07T13:58:56Z</time>
      </trkpt>
      <trkpt lat="43.61973" lon="3.70091">
        <ele>177.5</ele>
        <time>2021-02-07T13:58:57Z</time>
      </trkpt>
      <trkpt lat="43.61976" lon="3.70089">
        <ele>177.4</ele>
        <time>2021-02-07T13:58:58Z</time>
      </trkpt>
      <trkpt lat="43.61978" lon="3.70086">
        <ele>177.2</ele>
        <time>2021-02-07T13:58:59Z</time>
      </trkpt>
      <trkpt lat="43.6198" lon="3.70083">
        <ele>177</ele>
        <time>2021-02-07T13:59:00Z</time>
      </trkpt>
      <trkpt lat="43.61982" lon="3.70079">
        <ele>176.7</ele>
        <time>2021-02-07T13:59:01Z</time>
      </trkpt>
      <trkpt lat="43.61984" lon="3.70076">
        <ele>176.5</ele>
        <time>2021-02-07T13:59:02Z</time>
      </trkpt>
      <trkpt lat="43.61985" lon="3.70071">
        <ele>176.1</ele>
        <time>2021-02-07T13:59:03Z</time>
      </trkpt>
      <trkpt lat="43.61986" lon="3.70067">
        <ele>175.8</ele>
        <time>2021-02-07T13:59:04Z</time>
      </trkpt>
      <trkpt lat="43.61987" lon="3.70062">
        <ele>175.5</ele>
        <time>2021-02-07T13:59:05Z</time>
      </trkpt>
      <trkpt lat="43.61989" lon="3.70057">
        <ele>177</ele>
        <time>2021-02-07T13:59:06Z</time>
      </trkpt>
      <trkpt lat="43.61991" lon="3.70054">
        <ele>174.9</ele>
        <time>2021-02-07T13:59:07Z</time>
      </trkpt>
      <trkpt lat="43.61993" lon="3.70049">
        <ele>174.5</ele>
        <time>2021-02-07T13:59:08Z</time>
      </trkpt>
      <trkpt lat="43.61995" lon="3.70044">
        <ele>174</ele>
        <time>2021-02-07T13:59:09Z</time>
      </trkpt>
      <trkpt lat="43.61996" lon="3.7004">
        <ele>173.6</ele>
        <time>2021-02-07T13:59:10Z</time>
      </trkpt>
      <trkpt lat="43.61997" lon="3.70036">
        <ele>173.1</ele>
        <time>2021-02-07T13:59:11Z</time>
      </trkpt>
      <trkpt lat="43.61998" lon="3.70032">
        <ele>172.6</ele>
        <time>2021-02-07T13:59:12Z</time>
      </trkpt>
      <trkpt lat="43.62001" lon="3.7003">
        <ele>172.2</ele>
        <time>2021-02-07T13:59:13Z</time>
      </trkpt>
      <trkpt lat="43.62004" lon="3.70029">
        <ele>171.8</ele>
        <time>2021-02-07T13:59:14Z</time>
      </trkpt>
      <trkpt lat="43.62007" lon="3.7003">
        <ele>171.7</ele>
        <time>2021-02-07T13:59:15Z</time>
      </trkpt>
      <trkpt lat="43.6201" lon="3.70032">
        <ele>175</ele>
        <time>2021-02-07T13:59:16Z</time>
      </trkpt>
      <trkpt lat="43.62013" lon="3.70033">
        <ele>171.6</ele>
        <time>2021-02-07T13:59:17Z</time>
      </trkpt>
      <trkpt lat="43.62016" lon="3.70034">
        <ele>171.5</ele>
        <time>2021-02-07T13:59:18Z</time>
      </trkpt>
      <trkpt lat="43.62019" lon="3.70035">
        <ele>171.4</ele>
        <time>2021-02-07T13:59:19Z</time>
      </trkpt>
      <trkpt lat="43.62023" lon="3.70036">
        <ele>171.2</ele>
        <time>2021-02-07T13:59:20Z</time>
      </trkpt>
      <trkpt lat="43.62026" lon="3.70037">
        <ele>171.1</ele>
        <time>2021-02-07T13:59:21Z</time>
      </trkpt>
      <trkpt lat="43.62029" lon="3.70037">
        <ele>171</ele>
        <time>2021-02-07T13:59:22Z</time>
      </trkpt>
      <trkpt lat="43.62033" lon="3.70035">
        <ele>170.8</ele>
        <time>2021-02-07T13:59:23Z</time>
      </trkpt>
      <trkpt lat="43.62036" lon="3.70034">
        <ele>170.7</ele>
        <time>2021-02-07T13:59:24Z</time>
      </trkpt>
      <trkpt lat="43.6204" lon="3.70033">
        <ele>170.6</ele>
        <time>2021-02-07T13:59:25Z</time>
      </trkpt>
      <trkpt lat="43.62043" lon="3.70031">
        <ele>173</ele>
        <time>2021-02-07T13:59:26Z</time>
      </trkpt>
      <trkpt lat="43.62047" lon="3.70029">
        <ele>170.1</ele>
        <time>2021-02-07T13:59:27Z</time>
      </trkpt>
      <trkpt lat="43.62051" lon="3.70027">
        <ele>170</ele>
        <time>2021-02-07T13:59:28Z</time>
      </trkpt>
      <trkpt lat="43.62056" lon="3.70025">
        <ele>169.8</ele>
        <time>2021-02-07T13:59:29Z</time>
      </trkpt>
      <trkpt lat="43.62061" lon="3.70024">
        <ele>169.5</ele>
        <time>2021-02-07T13:59:30Z</time>
      </trkpt>
      <trkpt lat="43.62066" lon="3.70022">
        <ele>169.2</ele>
        <time>2021-02-07T13:59:31Z</time>
      </trkpt>
      <trkpt lat="43.62072" lon="3.7002">
        <ele>168.8</ele>
        <time>2021-02-07T13:59:32Z</time>
      </trkpt>
      <trkpt lat="43.62078" lon="3.70019">
        <ele>168.6</ele>
        <time>2021-02-07T13:59:33Z</time>
      </trkpt>
      <trkpt lat="43.62085" lon="3.70017">
        <ele>168.2</ele>
        <time>2021-02-07T13:59:34Z</time>
      </trkpt>
      <trkpt lat="43.62091" lon="3.70015">
        <ele>168</ele>
        <time>2021-02-07T13:59:35Z</time>
      </trkpt>
      <trkpt lat="43.62097" lon="3.70014">
        <ele>170</ele>
        <time>2021-02-07T13:59:36Z</time>
      </trkpt>
      <trkpt lat="43.62103" lon="3.70012">
        <ele>167.5</ele>
        <time>2021-02-07T13:59:37Z</time>
      </trkpt>
      <trkpt lat="43.62109" lon="3.7001">
        <ele>167.1</ele>
        <time>2021-02-07T13:59:38Z</time>
      </trkpt>
      <trkpt lat="43.62115" lon="3.70008">
        <ele>166.9</ele>
        <time>2021-02-07T13:59:39Z</time>
      </trkpt>
      <trkpt lat="43.62121" lon="3.70004">
        <ele>166.4</ele>
        <time>2021-02-07T13:59:40Z</time>
      </trkpt>
      <trkpt lat="43.62126" lon="3.70001">
        <ele>166.1</ele>
        <time>2021-02-07T13:59:41Z</time>
      </trkpt>
      <trkpt lat="43.62132" lon="3.69998">
        <ele>165.9</ele>
        <time>2021-02-07T13:59:42Z</time>
      </trkpt>
      <trkpt lat="43.62138" lon="3.69996">
        <ele>165.7</ele>
        <time>2021-02-07T13:59:43Z</time>
      </trkpt>
      <trkpt lat="43.62143" lon="3.69994">
        <ele>165.5</ele>
        <time>2021-02-07T13:59:44Z</time>
      </trkpt>
      <trkpt lat="43.62148" lon="3.69992">
        <ele>165.3</ele>
        <time>2021-02-07T13:59:45Z</time>
      </trkpt>
      <trkpt lat="43.62153" lon="3.6999">
        <ele>168</ele>
        <time>2021-02-07T13:59:46Z</time>
      </trkpt>
      <trkpt lat="43.62158" lon="3.69988">
        <ele>164.8</ele>
        <time>2021-02-07T13:59:47Z</time>
      </trkpt>
      <trkpt lat="43.62162" lon="3.69986">
        <ele>164.6</ele>
        <time>2021-02-07T13:59:48Z</time>
      </trkpt>
      <trkpt lat="43.62167" lon="3.69984">
        <ele>164.3</ele>
        <time>2021-02-07T13:59:49Z</time>
      </trkpt>
      <trkpt lat="43.62171" lon="3.69983">
        <ele>164.2</ele>
        <time>2021-02-07T13:59:50Z</time>
      </trkpt>
      <trkpt lat="43.62176" lon="3.69981">
        <ele>163.9</ele>
        <time>2021-02-07T13:59:51Z</time>
      </trkpt>
      <trkpt lat="43.62181" lon="3.69979">
        <ele>163.7</ele>
        <time>2021-02-07T13:59:52Z</time>
      </trkpt>
      <trkpt lat="43.62185" lon="3.69978">
        <ele>163.6</ele>
        <time>2021-02-07T13:59:53Z</time>
      </trkpt>
      <trkpt lat="43.6219" lon="3.69976">
        <ele>163.4</ele>
        <time>2021-02-07T13:59:54Z</time>
      </trkpt>
      <trkpt lat="43.62195" lon="3.69974">
        <ele>163.2</ele>
        <time>2021-02-07T13:59:55Z</time>
      </trkpt>
      <trkpt lat="43.62199" lon="3.69972">
        <ele>165</ele>
        <time>2021-02-07T13:59:56Z</time>
      </trkpt>
      <trkpt lat="43.62204" lon="3.6997">
        <ele>163.2</ele>
        <time>2021-02-07T13:59:57Z</time>
      </trkpt>
      <trkpt lat="43.62209" lon="3.69968">
        <ele>163.1</ele>
        <time>2021-02-07T13:59:58Z</time>
      </trkpt>
      <trkpt lat="43.62214" lon="3.69966">
        <ele>163.1</ele>
        <time>2021-02-07T13:59:59Z</time>
      </trkpt>
      <trkpt lat="43.62219" lon="3.69963">
        <ele>162.9</ele>
        <time>2021-02-07T14:00:00Z</time>
      </trkpt>
      <trkpt lat="43.62224" lon="3.69961">
        <ele>162.9</ele>
        <time>2021-02-07T14:00:01Z</time>
      </trkpt>
      <trkpt lat="43.62229" lon="3.69959">
        <ele>162.9</ele>
        <time>2021-02-07T14:00:02Z</time>
      </trkpt>
      <trkpt lat="43.62234" lon="3.69956">
        <ele>162.9</ele>
        <time>2021-02-07T14:00:03Z</time>
      </trkpt>
      <trkpt lat="43.62239" lon="3.69954">
        <ele>163</ele>
        <time>2021-02-07T14:00:04Z</time>
      </trkpt>
      <trkpt lat="43.62244" lon="3.69952">
        <ele>163.2</ele>
        <time>2021-02-07T14:00:05Z</time>
      </trkpt>
      <trkpt lat="43.62248" lon="3.69949">
        <ele>164</ele>
        <time>2021-02-07T14:00:06Z</time>
      </trkpt>
      <trkpt lat="43.62253" lon="3.69947">
        <ele>163.3</ele>
        <time>2021-02-07T14:00:07Z</time>
      </trkpt>
      <trkpt lat="43.62257" lon="3.69943">
        <ele>163.1</ele>
        <time>2021-02-07T14:00:08Z</time>
      </trkpt>
      <trkpt lat="43.62262" lon="3.69941">
        <ele>163</ele>
        <time>2021-02-07T14:00:09Z</time>
      </trkpt>
      <trkpt lat="43.62267" lon="3.69939">
        <ele>162.9</ele>
        <time>2021-02-07T14:00:10Z</time>
      </trkpt>
      <trkpt lat="43.62271" lon="3.69937">
        <ele>162.9</ele>
        <time>2021-02-07T14:00:11Z</time>
      </trkpt>
      <trkpt lat="43.62275" lon="3.69935">
        <ele>162.8</ele>
        <time>2021-02-07T14:00:12Z</time>
      </trkpt>
      <trkpt lat="43.62279" lon="3.69933">
        <ele>162.8</ele>
        <time>2021-02-07T14:00:13Z</time>
      </trkpt>
      <trkpt lat="43.62283" lon="3.69931">
        <ele>162.6</ele>
        <time>2021-02-07T14:00:14Z</time>
      </trkpt>
      <trkpt lat="43.62287" lon="3.69929">
        <ele>162.5</ele>
        <time>2021-02-07T14:00:15Z</time>
      </trkpt>
      <trkpt lat="43.62291" lon="3.69927">
        <ele>164</ele>
        <time>2021-02-07T14:00:16Z</time>
      </trkpt>
      <trkpt lat="43.62295" lon="3.69926">
        <ele>162.4</ele>
        <time>2021-02-07T14:00:17Z</time>
      </trkpt>
      <trkpt lat="43.62298" lon="3.69925">
        <ele>162.4</ele>
        <time>2021-02-07T14:00:18Z</time>
      </trkpt>
      <trkpt lat="43.62302" lon="3.69925">
        <ele>162.5</ele>
        <time>2021-02-07T14:00:19Z</time>
      </trkpt>
      <trkpt lat="43.62306" lon="3.69924">
        <ele>162.5</ele>
        <time>2021-02-07T14:00:20Z</time>
      </trkpt>
      <trkpt lat="43.62309" lon="3.69923">
        <ele>162.3</ele>
        <time>2021-02-07T14:00:21Z</time>
      </trkpt>
      <trkpt lat="43.62313" lon="3.69922">
        <ele>162.1</ele>
        <time>2021-02-07T14:00:22Z</time>
      </trkpt>
      <trkpt lat="43.62316" lon="3.69922">
        <ele>162</ele>
        <time>2021-02-07T14:00:23Z</time>
      </trkpt>
      <trkpt lat="43.6232" lon="3.69921">
        <ele>161.8</ele>
        <time>2021-02-07T14:00:24Z</time>
      </trkpt>
      <trkpt lat="43.62323" lon="3.6992">
        <ele>161.6</ele>
        <time>2021-02-07T14:00:25Z</time>
      </trkpt>
      <trkpt lat="43.62327" lon="3.6992">
        <ele>163</ele>
        <time>2021-02-07T14:00:26Z</time>
      </trkpt>
      <trkpt lat="43.62331" lon="3.69919">
        <ele>161.3</ele>
        <time>2021-02-07T14:00:27Z</time>
      </trkpt>
      <trkpt lat="43.62335" lon="3.69919">
        <ele>161</ele>
        <time>2021-02-07T14:00:28Z</time>
      </trkpt>
      <trkpt lat="43.62339" lon="3.69918">
        <ele>160.7</ele>
        <time>2021-02-07T14:00:29Z</time>
      </trkpt>
      <trkpt lat="43.62343" lon="3.69917">
        <ele>160.3</ele>
        <time>2021-02-07T14:00:30Z</time>
      </trkpt>
      <trkpt lat="43.62346" lon="3.69916">
        <ele>160</ele>
        <time>2021-02-07T14:00:31Z</time>
      </trkpt>
      <trkpt lat="43.62351" lon="3.69916">
        <ele>159.7</ele>
        <time>2021-02-07T14:00:32Z</time>
      </trkpt>
      <trkpt lat="43.62355" lon="3.69916">
        <ele>159.4</ele>
        <time>2021-02-07T14:00:33Z</time>
      </trkpt>
      <trkpt lat="43.6236" lon="3.69913">
        <ele>158.8</ele>
        <time>2021-02-07T14:00:34Z</time>
      </trkpt>
      <trkpt lat="43.62364" lon="3.69909">
        <ele>158.3</ele>
        <time>2021-02-07T14:00:35Z</time>
      </trkpt>
      <trkpt lat="43.6237" lon="3.69907">
        <ele>161</ele>
        <time>2021-02-07T14:00:36Z</time>
      </trkpt>
      <trkpt lat="43.62376" lon="3.69904">
        <ele>157.3</ele>
        <time>2021-02-07T14:00:37Z</time>
      </trkpt>
      <trkpt lat="43.62381" lon="3.69901">
        <ele>156.8</ele>
        <time>2021-02-07T14:00:38Z</time>
      </trkpt>
      <trkpt lat="43.62387" lon="3.69899">
        <ele>156.5</ele>
        <time>2021-02-07T14:00:39Z</time>
      </trkpt>
      <trkpt lat="43.62393" lon="3.69897">
        <ele>156.1</ele>
        <time>2021-02-07T14:00:40Z</time>
      </trkpt>
      <trkpt lat="43.62399" lon="3.69895">
        <ele>155.8</ele>
        <time>2021-02-07T14:00:41Z</time>
      </trkpt>
      <trkpt lat="43.62405" lon="3.69893">
        <ele>155.5</ele>
        <time>2021-02-07T14:00:42Z</time>
      </trkpt>
      <trkpt lat="43.62412" lon="3.69891">
        <ele>155.2</ele>
        <time>2021-02-07T14:00:43Z</time>
      </trkpt>
      <trkpt lat="43.62418" lon="3.69889">
        <ele>154.9</ele>
        <time>2021-02-07T14:00:44Z</time>
      </trkpt>
      <trkpt lat="43.62423" lon="3.69887">
        <ele>154.5</ele>
        <time>2021-02-07T14:00:45Z</time>
      </trkpt>
      <trkpt lat="43.62429" lon="3.69884">
        <ele>157</ele>
        <time>2021-02-07T14:00:46Z</time>
      </trkpt>
      <trkpt lat="43.62434" lon="3.6988">
        <ele>153.6</ele>
        <time>2021-02-07T14:00:47Z</time>
      </trkpt>
      <trkpt lat="43.62439" lon="3.69875">
        <ele>153.3</ele>
        <time>2021-02-07T14:00:48Z</time>
      </trkpt>
      <trkpt lat="43.62444" lon="3.69872">
        <ele>153</ele>
        <time>2021-02-07T14:00:49Z</time>
      </trkpt>
      <trkpt lat="43.62449" lon="3.69871">
        <ele>152.7</ele>
        <time>2021-02-07T14:00:50Z</time>
      </trkpt>
      <trkpt lat="43.62455" lon="3.69872">
        <ele>152.4</ele>
        <time>2021-02-07T14:00:51Z</time>
      </trkpt>
      <trkpt lat="43.62461" lon="3.69876">
        <ele>152.1</ele>
        <time>2021-02-07T14:00:52Z</time>
      </trkpt>
      <trkpt lat="43.62466" lon="3.69881">
        <ele>152</ele>
        <time>2021-02-07T14:00:53Z</time>
      </trkpt>
      <trkpt lat="43.62472" lon="3.69884">
        <ele>151.8</ele>
        <time>2021-02-07T14:00:54Z</time>
      </trkpt>
      <trkpt lat="43.62477" lon="3.69885">
        <ele>151.7</ele>
        <time>2021-02-07T14:00:55Z</time>
      </trkpt>
      <trkpt lat="43.62482" lon="3.69883">
        <ele>155</ele>
        <time>2021-02-07T14:00:56Z</time>
      </trkpt>
      <trkpt lat="43.62486" lon="3.69879">
        <ele>151.1</ele>
        <time>2021-02-07T14:00:57Z</time>
      </trkpt>
      <trkpt lat="43.6249" lon="3.69873">
        <ele>150.8</ele>
        <time>2021-02-07T14:00:58Z</time>
      </trkpt>
      <trkpt lat="43.62494" lon="3.69867">
        <ele>150.4</ele>
        <time>2021-02-07T14:00:59Z</time>
      </trkpt>
      <trkpt lat="43.62498" lon="3.69863">
        <ele>150.1</ele>
        <time>2021-02-07T14:01:00Z</time>
      </trkpt>
      <trkpt lat="43.62501" lon="3.6986">
        <ele>150</ele>
        <time>2021-02-07T14:01:01Z</time>
      </trkpt>
      <trkpt lat="43.62503" lon="3.69857">
        <ele>149.8</ele>
        <time>2021-02-07T14:01:02Z</time>
      </trkpt>
      <trkpt lat="43.62505" lon="3.69855">
        <ele>149.8</ele>
        <time>2021-02-07T14:01:03Z</time>
      </trkpt>
      <trkpt lat="43.62506" lon="3.69852">
        <ele>149.6</ele>
        <time>2021-02-07T14:01:04Z</time>
      </trkpt>
      <trkpt lat="43.62508" lon="3.6985">
        <ele>149.6</ele>
        <time>2021-02-07T14:01:05Z</time>
      </trkpt>
      <trkpt lat="43.6251" lon="3.69849">
        <ele>152</ele>
        <time>2021-02-07T14:01:06Z</time>
      </trkpt>
      <trkpt lat="43.62512" lon="3.69847">
        <ele>149.6</ele>
        <time>2021-02-07T14:01:07Z</time>
      </trkpt>
      <trkpt lat="43.62513" lon="3.69845">
        <ele>149.6</ele>
        <time>2021-02-07T14:01:08Z</time>
      </trkpt>
      <trkpt lat="43.62514" lon="3.69843">
        <ele>149.5</ele>
        <time>2021-02-07T14:01:09Z</time>
      </trkpt>
      <trkpt lat="43.62516" lon="3.69841">
        <ele>149.5</ele>
        <time>2021-02-07T14:01:10Z</time>
      </trkpt>
      <trkpt lat="43.62517" lon="3.69839">
        <ele>149.5</ele>
        <time>2021-02-07T14:01:11Z</time>
      </trkpt>
      <trkpt lat="43.62518" lon="3.69837">
        <ele>149.5</ele>
        <time>2021-02-07T14:01:12Z</time>
      </trkpt>
      <trkpt lat="43.62519" lon="3.69835">
        <ele>149.4</ele>
        <time>2021-02-07T14:01:13Z</time>
      </trkpt>
      <trkpt lat="43.6252" lon="3.69832">
        <ele>149.3</ele>
        <time>2021-02-07T14:01:14Z</time>
      </trkpt>
      <trkpt lat="43.62522" lon="3.6983">
        <ele>149.3</ele>
        <time>2021-02-07T14:01:15Z</time>
      </trkpt>
      <trkpt lat="43.62523" lon="3.69828">
        <ele>151</ele>
        <time>2021-02-07T14:01:16Z</time>
      </trkpt>
      <trkpt lat="43.62525" lon="3.69826">
        <ele>149.1</ele>
        <time>2021-02-07T14:01:17Z</time>
      </trkpt>
      <trkpt lat="43.62526" lon="3.69824">
        <ele>149</ele>
        <time>2021-02-07T14:01:18Z</time>
      </trkpt>
      <trkpt lat="43.62528" lon="3.69822">
        <ele>148.8</ele>
        <time>2021-02-07T14:01:19Z</time>
      </trkpt>
      <trkpt lat="43.62529" lon="3.69819">
        <ele>148.5</ele>
        <time>2021-02-07T14:01:20Z</time>
      </trkpt>
      <trkpt lat="43.62531" lon="3.69817">
        <ele>148.4</ele>
        <time>2021-02-07T14:01:21Z</time>
      </trkpt>
      <trkpt lat="43.62532" lon="3.69814">
        <ele>148.2</ele>
        <time>2021-02-07T14:01:22Z</time>
      </trkpt>
      <trkpt lat="43.62534" lon="3.69812">
        <ele>148.1</ele>
        <time>2021-02-07T14:01:23Z</time>
      </trkpt>
      <trkpt lat="43.62536" lon="3.6981">
        <ele>148</ele>
        <time>2021-02-07T14:01:24Z</time>
      </trkpt>
      <trkpt lat="43.62537" lon="3.69807">
        <ele>147.8</ele>
        <time>2021-02-07T14:01:25Z</time>
      </trkpt>
      <trkpt lat="43.62539" lon="3.69804">
        <ele>147.7</ele>
        <time>2021-02-07T14:01:26Z</time>
      </trkpt>
      <trkpt lat="43.62541" lon="3.69802">
        <ele>151</ele>
        <time>2021-02-07T14:01:27Z</time>
      </trkpt>
      <trkpt lat="43.62542" lon="3.698">
        <ele>147.7</ele>
        <time>2021-02-07T14:01:28Z</time>
      </trkpt>
      <trkpt lat="43.62545" lon="3.69798">
        <ele>147.8</ele>
        <time>2021-02-07T14:01:29Z</time>
      </trkpt>
      <trkpt lat="43.62547" lon="3.69795">
        <ele>147.7</ele>
        <time>2021-02-07T14:01:30Z</time>
      </trkpt>
      <trkpt lat="43.62549" lon="3.69793">
        <ele>147.7</ele>
        <time>2021-02-07T14:01:31Z</time>
      </trkpt>
      <trkpt lat="43.62551" lon="3.69791">
        <ele>147.7</ele>
        <time>2021-02-07T14:01:32Z</time>
      </trkpt>
      <trkpt lat="43.62553" lon="3.69789">
        <ele>147.7</ele>
        <time>2021-02-07T14:01:33Z</time>
      </trkpt>
      <trkpt lat="43.62555" lon="3.69787">
        <ele>147.6</ele>
        <time>2021-02-07T14:01:34Z</time>
      </trkpt>
      <trkpt lat="43.62557" lon="3.69784">
        <ele>147.4</ele>
        <time>2021-02-07T14:01:35Z</time>
      </trkpt>
      <trkpt lat="43.62559" lon="3.69782">
        <ele>150</ele>
        <time>2021-02-07T14:01:36Z</time>
      </trkpt>
      <trkpt lat="43.62561" lon="3.6978">
        <ele>147.2</ele>
        <time>2021-02-07T14:01:37Z</time>
      </trkpt>
      <trkpt lat="43.62563" lon="3.69778">
        <ele>147</ele>
        <time>2021-02-07T14:01:38Z</time>
      </trkpt>
      <trkpt lat="43.62565" lon="3.69776">
        <ele>146.9</ele>
        <time>2021-02-07T14:01:39Z</time>
      </trkpt>
      <trkpt lat="43.62566" lon="3.69774">
        <ele>146.7</ele>
        <time>2021-02-07T14:01:40Z</time>
      </trkpt>
      <trkpt lat="43.62569" lon="3.69771">
        <ele>146.5</ele>
        <time>2021-02-07T14:01:42Z</time>
      </trkpt>
      <trkpt lat="43.62571" lon="3.6977">
        <ele>146.4</ele>
        <time>2021-02-07T14:01:43Z</time>
      </trkpt>
      <trkpt lat="43.62573" lon="3.69768">
        <ele>146.3</ele>
        <time>2021-02-07T14:01:44Z</time>
      </trkpt>
      <trkpt lat="43.62575" lon="3.69766">
        <ele>146.2</ele>
        <time>2021-02-07T14:01:45Z</time>
      </trkpt>
      <trkpt lat="43.62577" lon="3.69765">
        <ele>149</ele>
        <time>2021-02-07T14:01:46Z</time>
      </trkpt>
      <trkpt lat="43.62578" lon="3.69764">
        <ele>146</ele>
        <time>2021-02-07T14:01:47Z</time>
      </trkpt>
      <trkpt lat="43.6258" lon="3.69762">
        <ele>145.9</ele>
        <time>2021-02-07T14:01:49Z</time>
      </trkpt>
      <trkpt lat="43.62583" lon="3.69759">
        <ele>145.6</ele>
        <time>2021-02-07T14:01:51Z</time>
      </trkpt>
      <trkpt lat="43.62586" lon="3.69758">
        <ele>145.6</ele>
        <time>2021-02-07T14:01:53Z</time>
      </trkpt>
      <trkpt lat="43.62589" lon="3.69757">
        <ele>145.5</ele>
        <time>2021-02-07T14:01:55Z</time>
      </trkpt>
      <trkpt lat="43.62591" lon="3.69754">
        <ele>145.3</ele>
        <time>2021-02-07T14:01:57Z</time>
      </trkpt>
      <trkpt lat="43.62593" lon="3.69752">
        <ele>145.1</ele>
        <time>2021-02-07T14:01:59Z</time>
      </trkpt>
      <trkpt lat="43.62593" lon="3.69755">
        <ele>145.4</ele>
        <time>2021-02-07T14:02:02Z</time>
      </trkpt>
      <trkpt lat="43.6259" lon="3.69756">
        <ele>145.4</ele>
        <time>2021-02-07T14:02:04Z</time>
      </trkpt>
      <trkpt lat="43.62588" lon="3.69758">
        <ele>145.6</ele>
        <time>2021-02-07T14:02:05Z</time>
      </trkpt>
      <trkpt lat="43.62586" lon="3.6976">
        <ele>148</ele>
        <time>2021-02-07T14:02:06Z</time>
      </trkpt>
      <trkpt lat="43.62584" lon="3.69762">
        <ele>145.9</ele>
        <time>2021-02-07T14:02:07Z</time>
      </trkpt>
      <trkpt lat="43.62582" lon="3.69764">
        <ele>146</ele>
        <time>2021-02-07T14:02:08Z</time>
      </trkpt>
      <trkpt lat="43.6258" lon="3.69766">
        <ele>146.2</ele>
        <time>2021-02-07T14:02:09Z</time>
      </trkpt>
      <trkpt lat="43.62578" lon="3.69767">
        <ele>146.2</ele>
        <time>2021-02-07T14:02:10Z</time>
      </trkpt>
      <trkpt lat="43.62576" lon="3.69769">
        <ele>146.4</ele>
        <time>2021-02-07T14:02:11Z</time>
      </trkpt>
      <trkpt lat="43.62574" lon="3.69771">
        <ele>146.5</ele>
        <time>2021-02-07T14:02:12Z</time>
      </trkpt>
      <trkpt lat="43.62572" lon="3.69773">
        <ele>146.7</ele>
        <time>2021-02-07T14:02:13Z</time>
      </trkpt>
      <trkpt lat="43.62571" lon="3.69774">
        <ele>146.7</ele>
        <time>2021-02-07T14:02:15Z</time>
      </trkpt>
      <trkpt lat="43.6257" lon="3.69774">
        <ele>147</ele>
        <time>2021-02-07T14:02:20Z</time>
      </trkpt>
      <trkpt lat="43.62571" lon="3.69773">
        <ele>148</ele>
        <time>2021-02-07T14:04:24Z</time>
      </trkpt>
      <trkpt lat="43.62572" lon="3.69773">
        <ele>148</ele>
        <time>2021-02-07T14:04:27Z</time>
      </trkpt>
      <trkpt lat="43.62582" lon="3.69762">
        <ele>147</ele>
        <time>2021-02-07T14:05:02Z</time>
      </trkpt>
      <trkpt lat="43.62584" lon="3.6976">
        <ele>145.7</ele>
        <time>2021-02-07T14:05:03Z</time>
      </trkpt>
      <trkpt lat="43.62587" lon="3.69758">
        <ele>145.6</ele>
        <time>2021-02-07T14:05:04Z</time>
      </trkpt>
      <trkpt lat="43.6259" lon="3.69755">
        <ele>145.4</ele>
        <time>2021-02-07T14:05:05Z</time>
      </trkpt>
      <trkpt lat="43.62593" lon="3.69753">
        <ele>145.2</ele>
        <time>2021-02-07T14:05:06Z</time>
      </trkpt>
      <trkpt lat="43.62596" lon="3.69751">
        <ele>145.1</ele>
        <time>2021-02-07T14:05:07Z</time>
      </trkpt>
      <trkpt lat="43.626" lon="3.69748">
        <ele>144.9</ele>
        <time>2021-02-07T14:05:08Z</time>
      </trkpt>
      <trkpt lat="43.62604" lon="3.69745">
        <ele>144.8</ele>
        <time>2021-02-07T14:05:09Z</time>
      </trkpt>
      <trkpt lat="43.62607" lon="3.69742">
        <ele>144.7</ele>
        <time>2021-02-07T14:05:10Z</time>
      </trkpt>
      <trkpt lat="43.62611" lon="3.69739">
        <ele>146</ele>
        <time>2021-02-07T14:05:11Z</time>
      </trkpt>
      <trkpt lat="43.62616" lon="3.69736">
        <ele>144.5</ele>
        <time>2021-02-07T14:05:12Z</time>
      </trkpt>
      <trkpt lat="43.6262" lon="3.69734">
        <ele>144.4</ele>
        <time>2021-02-07T14:05:13Z</time>
      </trkpt>
      <trkpt lat="43.62624" lon="3.69731">
        <ele>144.3</ele>
        <time>2021-02-07T14:05:14Z</time>
      </trkpt>
      <trkpt lat="43.62629" lon="3.69728">
        <ele>144.2</ele>
        <time>2021-02-07T14:05:15Z</time>
      </trkpt>
      <trkpt lat="43.62633" lon="3.69724">
        <ele>144.1</ele>
        <time>2021-02-07T14:05:16Z</time>
      </trkpt>
      <trkpt lat="43.62637" lon="3.69721">
        <ele>143.9</ele>
        <time>2021-02-07T14:05:17Z</time>
      </trkpt>
      <trkpt lat="43.62641" lon="3.69717">
        <ele>143.6</ele>
        <time>2021-02-07T14:05:18Z</time>
      </trkpt>
      <trkpt lat="43.62645" lon="3.69714">
        <ele>143.3</ele>
        <time>2021-02-07T14:05:19Z</time>
      </trkpt>
      <trkpt lat="43.6265" lon="3.6971">
        <ele>142.9</ele>
        <time>2021-02-07T14:05:20Z</time>
      </trkpt>
      <trkpt lat="43.62654" lon="3.69706">
        <ele>142.6</ele>
        <time>2021-02-07T14:05:21Z</time>
      </trkpt>
      <trkpt lat="43.62659" lon="3.69702">
        <ele>144</ele>
        <time>2021-02-07T14:05:22Z</time>
      </trkpt>
      <trkpt lat="43.62663" lon="3.69699">
        <ele>142.2</ele>
        <time>2021-02-07T14:05:23Z</time>
      </trkpt>
      <trkpt lat="43.62666" lon="3.69697">
        <ele>142.1</ele>
        <time>2021-02-07T14:05:24Z</time>
      </trkpt>
      <trkpt lat="43.62668" lon="3.69694">
        <ele>142</ele>
        <time>2021-02-07T14:05:25Z</time>
      </trkpt>
      <trkpt lat="43.62669" lon="3.69692">
        <ele>141.9</ele>
        <time>2021-02-07T14:05:26Z</time>
      </trkpt>
      <trkpt lat="43.62671" lon="3.6969">
        <ele>141.8</ele>
        <time>2021-02-07T14:05:27Z</time>
      </trkpt>
      <trkpt lat="43.62673" lon="3.69687">
        <ele>141.7</ele>
        <time>2021-02-07T14:05:29Z</time>
      </trkpt>
      <trkpt lat="43.62675" lon="3.69684">
        <ele>143</ele>
        <time>2021-02-07T14:05:31Z</time>
      </trkpt>
      <trkpt lat="43.62673" lon="3.69696">
        <ele>142</ele>
        <time>2021-02-07T14:05:55Z</time>
      </trkpt>
      <trkpt lat="43.62672" lon="3.69699">
        <ele>142.1</ele>
        <time>2021-02-07T14:05:56Z</time>
      </trkpt>
      <trkpt lat="43.62672" lon="3.69701">
        <ele>142.2</ele>
        <time>2021-02-07T14:05:57Z</time>
      </trkpt>
      <trkpt lat="43.62673" lon="3.69704">
        <ele>142.3</ele>
        <time>2021-02-07T14:05:58Z</time>
      </trkpt>
      <trkpt lat="43.62675" lon="3.69706">
        <ele>142.3</ele>
        <time>2021-02-07T14:05:59Z</time>
      </trkpt>
      <trkpt lat="43.62677" lon="3.69709">
        <ele>142.3</ele>
        <time>2021-02-07T14:06:00Z</time>
      </trkpt>
      <trkpt lat="43.62679" lon="3.69712">
        <ele>142.4</ele>
        <time>2021-02-07T14:06:01Z</time>
      </trkpt>
      <trkpt lat="43.62681" lon="3.69716">
        <ele>142.4</ele>
        <time>2021-02-07T14:06:02Z</time>
      </trkpt>
      <trkpt lat="43.62682" lon="3.69721">
        <ele>142.4</ele>
        <time>2021-02-07T14:06:03Z</time>
      </trkpt>
      <trkpt lat="43.62683" lon="3.69726">
        <ele>143</ele>
        <time>2021-02-07T14:06:04Z</time>
      </trkpt>
      <trkpt lat="43.62684" lon="3.69731">
        <ele>142.5</ele>
        <time>2021-02-07T14:06:05Z</time>
      </trkpt>
      <trkpt lat="43.62685" lon="3.69737">
        <ele>142.5</ele>
        <time>2021-02-07T14:06:06Z</time>
      </trkpt>
      <trkpt lat="43.62686" lon="3.69742">
        <ele>142.5</ele>
        <time>2021-02-07T14:06:07Z</time>
      </trkpt>
      <trkpt lat="43.62687" lon="3.69747">
        <ele>142.5</ele>
        <time>2021-02-07T14:06:08Z</time>
      </trkpt>
      <trkpt lat="43.62687" lon="3.69753">
        <ele>142.5</ele>
        <time>2021-02-07T14:06:09Z</time>
      </trkpt>
      <trkpt lat="43.62688" lon="3.69758">
        <ele>142.5</ele>
        <time>2021-02-07T14:06:10Z</time>
      </trkpt>
      <trkpt lat="43.62689" lon="3.69763">
        <ele>142.4</ele>
        <time>2021-02-07T14:06:11Z</time>
      </trkpt>
      <trkpt lat="43.6269" lon="3.69768">
        <ele>142.3</ele>
        <time>2021-02-07T14:06:12Z</time>
      </trkpt>
      <trkpt lat="43.62691" lon="3.69773">
        <ele>142.2</ele>
        <time>2021-02-07T14:06:13Z</time>
      </trkpt>
      <trkpt lat="43.62693" lon="3.69779">
        <ele>142.1</ele>
        <time>2021-02-07T14:06:14Z</time>
      </trkpt>
      <trkpt lat="43.62694" lon="3.69784">
        <ele>143</ele>
        <time>2021-02-07T14:06:15Z</time>
      </trkpt>
      <trkpt lat="43.62695" lon="3.69789">
        <ele>142.4</ele>
        <time>2021-02-07T14:06:16Z</time>
      </trkpt>
      <trkpt lat="43.62696" lon="3.69794">
        <ele>142.5</ele>
        <time>2021-02-07T14:06:17Z</time>
      </trkpt>
      <trkpt lat="43.62697" lon="3.698">
        <ele>142.6</ele>
        <time>2021-02-07T14:06:18Z</time>
      </trkpt>
      <trkpt lat="43.62699" lon="3.69805">
        <ele>142.7</ele>
        <time>2021-02-07T14:06:19Z</time>
      </trkpt>
      <trkpt lat="43.62699" lon="3.69812">
        <ele>142.7</ele>
        <time>2021-02-07T14:06:20Z</time>
      </trkpt>
      <trkpt lat="43.627" lon="3.69818">
        <ele>142.6</ele>
        <time>2021-02-07T14:06:21Z</time>
      </trkpt>
      <trkpt lat="43.62701" lon="3.69823">
        <ele>142.5</ele>
        <time>2021-02-07T14:06:22Z</time>
      </trkpt>
      <trkpt lat="43.62702" lon="3.69829">
        <ele>142.5</ele>
        <time>2021-02-07T14:06:23Z</time>
      </trkpt>
      <trkpt lat="43.62703" lon="3.69835">
        <ele>143</ele>
        <time>2021-02-07T14:06:24Z</time>
      </trkpt>
      <trkpt lat="43.62704" lon="3.69839">
        <ele>142.3</ele>
        <time>2021-02-07T14:06:25Z</time>
      </trkpt>
      <trkpt lat="43.62706" lon="3.69842">
        <ele>142.2</ele>
        <time>2021-02-07T14:06:26Z</time>
      </trkpt>
      <trkpt lat="43.62707" lon="3.69846">
        <ele>142.1</ele>
        <time>2021-02-07T14:06:27Z</time>
      </trkpt>
      <trkpt lat="43.62709" lon="3.69848">
        <ele>142</ele>
        <time>2021-02-07T14:06:28Z</time>
      </trkpt>
      <trkpt lat="43.6271" lon="3.69849">
        <ele>141.9</ele>
        <time>2021-02-07T14:06:29Z</time>
      </trkpt>
      <trkpt lat="43.62712" lon="3.69851">
        <ele>141.7</ele>
        <time>2021-02-07T14:06:30Z</time>
      </trkpt>
      <trkpt lat="43.62713" lon="3.69854">
        <ele>141.7</ele>
        <time>2021-02-07T14:06:31Z</time>
      </trkpt>
      <trkpt lat="43.62714" lon="3.69857">
        <ele>141.6</ele>
        <time>2021-02-07T14:06:32Z</time>
      </trkpt>
      <trkpt lat="43.62716" lon="3.69861">
        <ele>141.4</ele>
        <time>2021-02-07T14:06:33Z</time>
      </trkpt>
      <trkpt lat="43.62717" lon="3.69866">
        <ele>143</ele>
        <time>2021-02-07T14:06:34Z</time>
      </trkpt>
      <trkpt lat="43.62718" lon="3.69871">
        <ele>141.4</ele>
        <time>2021-02-07T14:06:35Z</time>
      </trkpt>
      <trkpt lat="43.62719" lon="3.69876">
        <ele>141.3</ele>
        <time>2021-02-07T14:06:36Z</time>
      </trkpt>
      <trkpt lat="43.6272" lon="3.69881">
        <ele>141.2</ele>
        <time>2021-02-07T14:06:37Z</time>
      </trkpt>
      <trkpt lat="43.6272" lon="3.69887">
        <ele>141.2</ele>
        <time>2021-02-07T14:06:38Z</time>
      </trkpt>
      <trkpt lat="43.62721" lon="3.69894">
        <ele>141.3</ele>
        <time>2021-02-07T14:06:39Z</time>
      </trkpt>
      <trkpt lat="43.62721" lon="3.699">
        <ele>141.5</ele>
        <time>2021-02-07T14:06:40Z</time>
      </trkpt>
      <trkpt lat="43.62722" lon="3.69906">
        <ele>141.6</ele>
        <time>2021-02-07T14:06:41Z</time>
      </trkpt>
      <trkpt lat="43.62722" lon="3.69912">
        <ele>141.8</ele>
        <time>2021-02-07T14:06:42Z</time>
      </trkpt>
      <trkpt lat="43.62722" lon="3.69917">
        <ele>142</ele>
        <time>2021-02-07T14:06:43Z</time>
      </trkpt>
      <trkpt lat="43.62722" lon="3.69922">
        <ele>143</ele>
        <time>2021-02-07T14:06:44Z</time>
      </trkpt>
      <trkpt lat="43.62722" lon="3.69926">
        <ele>142</ele>
        <time>2021-02-07T14:06:45Z</time>
      </trkpt>
      <trkpt lat="43.62722" lon="3.6993">
        <ele>142</ele>
        <time>2021-02-07T14:06:46Z</time>
      </trkpt>
      <trkpt lat="43.62722" lon="3.69934">
        <ele>142</ele>
        <time>2021-02-07T14:06:47Z</time>
      </trkpt>
      <trkpt lat="43.62722" lon="3.69937">
        <ele>142</ele>
        <time>2021-02-07T14:06:48Z</time>
      </trkpt>
      <trkpt lat="43.62722" lon="3.69941">
        <ele>142</ele>
        <time>2021-02-07T14:06:49Z</time>
      </trkpt>
      <trkpt lat="43.62722" lon="3.69944">
        <ele>142</ele>
        <time>2021-02-07T14:06:50Z</time>
      </trkpt>
      <trkpt lat="43.62722" lon="3.69948">
        <ele>142</ele>
        <time>2021-02-07T14:06:51Z</time>
      </trkpt>
      <trkpt lat="43.62722" lon="3.69952">
        <ele>142</ele>
        <time>2021-02-07T14:06:52Z</time>
      </trkpt>
      <trkpt lat="43.62722" lon="3.69956">
        <ele>142</ele>
        <time>2021-02-07T14:06:53Z</time>
      </trkpt>
      <trkpt lat="43.62722" lon="3.6996">
        <ele>143</ele>
        <time>2021-02-07T14:06:54Z</time>
      </trkpt>
      <trkpt lat="43.62721" lon="3.69963">
        <ele>142.1</ele>
        <time>2021-02-07T14:06:55Z</time>
      </trkpt>
      <trkpt lat="43.62721" lon="3.69967">
        <ele>142.1</ele>
        <time>2021-02-07T14:06:56Z</time>
      </trkpt>
      <trkpt lat="43.6272" lon="3.6997">
        <ele>142.2</ele>
        <time>2021-02-07T14:06:57Z</time>
      </trkpt>
      <trkpt lat="43.62719" lon="3.69974">
        <ele>142.3</ele>
        <time>2021-02-07T14:06:58Z</time>
      </trkpt>
      <trkpt lat="43.62719" lon="3.69978">
        <ele>142.3</ele>
        <time>2021-02-07T14:06:59Z</time>
      </trkpt>
      <trkpt lat="43.62719" lon="3.69983">
        <ele>142.3</ele>
        <time>2021-02-07T14:07:00Z</time>
      </trkpt>
      <trkpt lat="43.6272" lon="3.69987">
        <ele>142.2</ele>
        <time>2021-02-07T14:07:01Z</time>
      </trkpt>
      <trkpt lat="43.6272" lon="3.69991">
        <ele>142.2</ele>
        <time>2021-02-07T14:07:02Z</time>
      </trkpt>
      <trkpt lat="43.6272" lon="3.69994">
        <ele>142.2</ele>
        <time>2021-02-07T14:07:03Z</time>
      </trkpt>
      <trkpt lat="43.6272" lon="3.69998">
        <ele>142.2</ele>
        <time>2021-02-07T14:07:04Z</time>
      </trkpt>
      <trkpt lat="43.6272" lon="3.70002">
        <ele>143</ele>
        <time>2021-02-07T14:07:05Z</time>
      </trkpt>
      <trkpt lat="43.62721" lon="3.70007">
        <ele>142.1</ele>
        <time>2021-02-07T14:07:06Z</time>
      </trkpt>
      <trkpt lat="43.62721" lon="3.70011">
        <ele>142.1</ele>
        <time>2021-02-07T14:07:07Z</time>
      </trkpt>
      <trkpt lat="43.62722" lon="3.70015">
        <ele>142</ele>
        <time>2021-02-07T14:07:08Z</time>
      </trkpt>
      <trkpt lat="43.62723" lon="3.70019">
        <ele>142</ele>
        <time>2021-02-07T14:07:09Z</time>
      </trkpt>
      <trkpt lat="43.62723" lon="3.70023">
        <ele>142</ele>
        <time>2021-02-07T14:07:10Z</time>
      </trkpt>
      <trkpt lat="43.62723" lon="3.70027">
        <ele>142</ele>
        <time>2021-02-07T14:07:11Z</time>
      </trkpt>
      <trkpt lat="43.62724" lon="3.70031">
        <ele>142</ele>
        <time>2021-02-07T14:07:12Z</time>
      </trkpt>
      <trkpt lat="43.62724" lon="3.70035">
        <ele>142</ele>
        <time>2021-02-07T14:07:13Z</time>
      </trkpt>
      <trkpt lat="43.62724" lon="3.70039">
        <ele>143</ele>
        <time>2021-02-07T14:07:14Z</time>
      </trkpt>
      <trkpt lat="43.62725" lon="3.70042">
        <ele>141.9</ele>
        <time>2021-02-07T14:07:15Z</time>
      </trkpt>
      <trkpt lat="43.62725" lon="3.70046">
        <ele>141.9</ele>
        <time>2021-02-07T14:07:16Z</time>
      </trkpt>
      <trkpt lat="43.62725" lon="3.7005">
        <ele>141.9</ele>
        <time>2021-02-07T14:07:17Z</time>
      </trkpt>
      <trkpt lat="43.62725" lon="3.70053">
        <ele>141.9</ele>
        <time>2021-02-07T14:07:18Z</time>
      </trkpt>
      <trkpt lat="43.62725" lon="3.70057">
        <ele>141.9</ele>
        <time>2021-02-07T14:07:19Z</time>
      </trkpt>
      <trkpt lat="43.62725" lon="3.7006">
        <ele>141.9</ele>
        <time>2021-02-07T14:07:20Z</time>
      </trkpt>
      <trkpt lat="43.62724" lon="3.70064">
        <ele>142</ele>
        <time>2021-02-07T14:07:21Z</time>
      </trkpt>
      <trkpt lat="43.62724" lon="3.70068">
        <ele>142</ele>
        <time>2021-02-07T14:07:22Z</time>
      </trkpt>
      <trkpt lat="43.62724" lon="3.70072">
        <ele>142</ele>
        <time>2021-02-07T14:07:23Z</time>
      </trkpt>
      <trkpt lat="43.62723" lon="3.70077">
        <ele>142</ele>
        <time>2021-02-07T14:07:24Z</time>
      </trkpt>
      <trkpt lat="43.62723" lon="3.70082">
        <ele>142</ele>
        <time>2021-02-07T14:07:25Z</time>
      </trkpt>
      <trkpt lat="43.62722" lon="3.70087">
        <ele>142</ele>
        <time>2021-02-07T14:07:26Z</time>
      </trkpt>
      <trkpt lat="43.62722" lon="3.70092">
        <ele>142</ele>
        <time>2021-02-07T14:07:27Z</time>
      </trkpt>
      <trkpt lat="43.62721" lon="3.70097">
        <ele>142.1</ele>
        <time>2021-02-07T14:07:28Z</time>
      </trkpt>
      <trkpt lat="43.62721" lon="3.70102">
        <ele>142.1</ele>
        <time>2021-02-07T14:07:29Z</time>
      </trkpt>
      <trkpt lat="43.62721" lon="3.70107">
        <ele>142.1</ele>
        <time>2021-02-07T14:07:30Z</time>
      </trkpt>
      <trkpt lat="43.62721" lon="3.70112">
        <ele>142.2</ele>
        <time>2021-02-07T14:07:31Z</time>
      </trkpt>
      <trkpt lat="43.62721" lon="3.70116">
        <ele>142.4</ele>
        <time>2021-02-07T14:07:32Z</time>
      </trkpt>
      <trkpt lat="43.62721" lon="3.70121">
        <ele>142.8</ele>
        <time>2021-02-07T14:07:33Z</time>
      </trkpt>
      <trkpt lat="43.62721" lon="3.70126">
        <ele>143.1</ele>
        <time>2021-02-07T14:07:34Z</time>
      </trkpt>
      <trkpt lat="43.62721" lon="3.70131">
        <ele>143</ele>
        <time>2021-02-07T14:07:35Z</time>
      </trkpt>
      <trkpt lat="43.62721" lon="3.70136">
        <ele>143.8</ele>
        <time>2021-02-07T14:07:36Z</time>
      </trkpt>
      <trkpt lat="43.62721" lon="3.70141">
        <ele>144</ele>
        <time>2021-02-07T14:07:37Z</time>
      </trkpt>
      <trkpt lat="43.62721" lon="3.70145">
        <ele>144.1</ele>
        <time>2021-02-07T14:07:38Z</time>
      </trkpt>
      <trkpt lat="43.62721" lon="3.7015">
        <ele>144.1</ele>
        <time>2021-02-07T14:07:39Z</time>
      </trkpt>
      <trkpt lat="43.62721" lon="3.70155">
        <ele>144.1</ele>
        <time>2021-02-07T14:07:40Z</time>
      </trkpt>
      <trkpt lat="43.62721" lon="3.7016">
        <ele>144.1</ele>
        <time>2021-02-07T14:07:41Z</time>
      </trkpt>
      <trkpt lat="43.62721" lon="3.70165">
        <ele>144.1</ele>
        <time>2021-02-07T14:07:42Z</time>
      </trkpt>
      <trkpt lat="43.62721" lon="3.7017">
        <ele>144.1</ele>
        <time>2021-02-07T14:07:43Z</time>
      </trkpt>
      <trkpt lat="43.62721" lon="3.70175">
        <ele>144</ele>
        <time>2021-02-07T14:07:44Z</time>
      </trkpt>
      <trkpt lat="43.62721" lon="3.7018">
        <ele>144.1</ele>
        <time>2021-02-07T14:07:45Z</time>
      </trkpt>
      <trkpt lat="43.62722" lon="3.70185">
        <ele>144</ele>
        <time>2021-02-07T14:07:46Z</time>
      </trkpt>
      <trkpt lat="43.62722" lon="3.7019">
        <ele>144</ele>
        <time>2021-02-07T14:07:47Z</time>
      </trkpt>
      <trkpt lat="43.62723" lon="3.70194">
        <ele>143.9</ele>
        <time>2021-02-07T14:07:48Z</time>
      </trkpt>
      <trkpt lat="43.62724" lon="3.702">
        <ele>143.7</ele>
        <time>2021-02-07T14:07:49Z</time>
      </trkpt>
      <trkpt lat="43.62724" lon="3.70205">
        <ele>143.5</ele>
        <time>2021-02-07T14:07:50Z</time>
      </trkpt>
      <trkpt lat="43.62723" lon="3.70211">
        <ele>143.3</ele>
        <time>2021-02-07T14:07:51Z</time>
      </trkpt>
      <trkpt lat="43.62722" lon="3.70216">
        <ele>143.2</ele>
        <time>2021-02-07T14:07:52Z</time>
      </trkpt>
      <trkpt lat="43.62722" lon="3.70221">
        <ele>143.1</ele>
        <time>2021-02-07T14:07:53Z</time>
      </trkpt>
      <trkpt lat="43.62721" lon="3.70226">
        <ele>144</ele>
        <time>2021-02-07T14:07:54Z</time>
      </trkpt>
      <trkpt lat="43.6272" lon="3.70232">
        <ele>142.8</ele>
        <time>2021-02-07T14:07:55Z</time>
      </trkpt>
      <trkpt lat="43.62719" lon="3.70237">
        <ele>142.8</ele>
        <time>2021-02-07T14:07:56Z</time>
      </trkpt>
      <trkpt lat="43.62718" lon="3.70243">
        <ele>142.7</ele>
        <time>2021-02-07T14:07:57Z</time>
      </trkpt>
      <trkpt lat="43.62718" lon="3.70249">
        <ele>142.5</ele>
        <time>2021-02-07T14:07:58Z</time>
      </trkpt>
      <trkpt lat="43.62718" lon="3.70256">
        <ele>142.4</ele>
        <time>2021-02-07T14:07:59Z</time>
      </trkpt>
      <trkpt lat="43.62717" lon="3.70262">
        <ele>142.5</ele>
        <time>2021-02-07T14:08:00Z</time>
      </trkpt>
      <trkpt lat="43.62717" lon="3.70269">
        <ele>142.4</ele>
        <time>2021-02-07T14:08:01Z</time>
      </trkpt>
      <trkpt lat="43.62717" lon="3.70276">
        <ele>142.4</ele>
        <time>2021-02-07T14:08:02Z</time>
      </trkpt>
      <trkpt lat="43.62716" lon="3.70283">
        <ele>142.6</ele>
        <time>2021-02-07T14:08:03Z</time>
      </trkpt>
      <trkpt lat="43.62716" lon="3.7029">
        <ele>144</ele>
        <time>2021-02-07T14:08:04Z</time>
      </trkpt>
      <trkpt lat="43.62715" lon="3.70296">
        <ele>143</ele>
        <time>2021-02-07T14:08:05Z</time>
      </trkpt>
      <trkpt lat="43.62715" lon="3.70303">
        <ele>143.2</ele>
        <time>2021-02-07T14:08:06Z</time>
      </trkpt>
      <trkpt lat="43.62715" lon="3.7031">
        <ele>143.3</ele>
        <time>2021-02-07T14:08:07Z</time>
      </trkpt>
      <trkpt lat="43.62714" lon="3.70316">
        <ele>143.3</ele>
        <time>2021-02-07T14:08:08Z</time>
      </trkpt>
      <trkpt lat="43.62714" lon="3.70323">
        <ele>143.3</ele>
        <time>2021-02-07T14:08:09Z</time>
      </trkpt>
      <trkpt lat="43.62713" lon="3.70329">
        <ele>143.3</ele>
        <time>2021-02-07T14:08:10Z</time>
      </trkpt>
      <trkpt lat="43.62713" lon="3.70335">
        <ele>143.4</ele>
        <time>2021-02-07T14:08:11Z</time>
      </trkpt>
      <trkpt lat="43.62712" lon="3.70342">
        <ele>143.9</ele>
        <time>2021-02-07T14:08:12Z</time>
      </trkpt>
      <trkpt lat="43.62712" lon="3.70348">
        <ele>144.2</ele>
        <time>2021-02-07T14:08:13Z</time>
      </trkpt>
      <trkpt lat="43.62712" lon="3.70354">
        <ele>144</ele>
        <time>2021-02-07T14:08:14Z</time>
      </trkpt>
      <trkpt lat="43.62711" lon="3.7036">
        <ele>144.9</ele>
        <time>2021-02-07T14:08:15Z</time>
      </trkpt>
      <trkpt lat="43.6271" lon="3.70365">
        <ele>145.2</ele>
        <time>2021-02-07T14:08:16Z</time>
      </trkpt>
      <trkpt lat="43.62709" lon="3.70371">
        <ele>145.5</ele>
        <time>2021-02-07T14:08:17Z</time>
      </trkpt>
      <trkpt lat="43.62709" lon="3.70376">
        <ele>145.8</ele>
        <time>2021-02-07T14:08:18Z</time>
      </trkpt>
      <trkpt lat="43.62708" lon="3.7038">
        <ele>146</ele>
        <time>2021-02-07T14:08:19Z</time>
      </trkpt>
      <trkpt lat="43.62708" lon="3.70385">
        <ele>146.3</ele>
        <time>2021-02-07T14:08:20Z</time>
      </trkpt>
      <trkpt lat="43.62708" lon="3.70388">
        <ele>146.4</ele>
        <time>2021-02-07T14:08:21Z</time>
      </trkpt>
      <trkpt lat="43.62708" lon="3.70392">
        <ele>146.7</ele>
        <time>2021-02-07T14:08:22Z</time>
      </trkpt>
      <trkpt lat="43.62707" lon="3.70395">
        <ele>146.9</ele>
        <time>2021-02-07T14:08:23Z</time>
      </trkpt>
      <trkpt lat="43.62707" lon="3.70399">
        <ele>145</ele>
        <time>2021-02-07T14:08:24Z</time>
      </trkpt>
      <trkpt lat="43.62706" lon="3.70402">
        <ele>147.4</ele>
        <time>2021-02-07T14:08:25Z</time>
      </trkpt>
      <trkpt lat="43.62706" lon="3.70405">
        <ele>147.6</ele>
        <time>2021-02-07T14:08:26Z</time>
      </trkpt>
      <trkpt lat="43.62706" lon="3.70409">
        <ele>147.9</ele>
        <time>2021-02-07T14:08:28Z</time>
      </trkpt>
      <trkpt lat="43.62706" lon="3.70412">
        <ele>148.1</ele>
        <time>2021-02-07T14:08:30Z</time>
      </trkpt>
      <trkpt lat="43.62705" lon="3.70415">
        <ele>148.3</ele>
        <time>2021-02-07T14:08:32Z</time>
      </trkpt>
      <trkpt lat="43.62703" lon="3.70416">
        <ele>147</ele>
        <time>2021-02-07T14:08:34Z</time>
      </trkpt>
      <trkpt lat="43.62701" lon="3.70414">
        <ele>148</ele>
        <time>2021-02-07T14:08:36Z</time>
      </trkpt>
      <trkpt lat="43.62703" lon="3.70412">
        <ele>148</ele>
        <time>2021-02-07T14:08:38Z</time>
      </trkpt>
      <trkpt lat="43.62705" lon="3.70413">
        <ele>148.1</ele>
        <time>2021-02-07T14:08:40Z</time>
      </trkpt>
      <trkpt lat="43.62703" lon="3.70416">
        <ele>148.3</ele>
        <time>2021-02-07T14:08:42Z</time>
      </trkpt>
      <trkpt lat="43.62701" lon="3.70415">
        <ele>148</ele>
        <time>2021-02-07T14:08:44Z</time>
      </trkpt>
      <trkpt lat="43.62702" lon="3.70412">
        <ele>147.9</ele>
        <time>2021-02-07T14:08:46Z</time>
      </trkpt>
      <trkpt lat="43.62703" lon="3.70412">
        <ele>148</ele>
        <time>2021-02-07T14:08:52Z</time>
      </trkpt>
      <trkpt lat="43.62699" lon="3.7042">
        <ele>149</ele>
        <time>2021-02-07T14:09:19Z</time>
      </trkpt>
      <trkpt lat="43.62698" lon="3.70421">
        <ele>148.4</ele>
        <time>2021-02-07T14:09:21Z</time>
      </trkpt>
      <trkpt lat="43.62696" lon="3.70422">
        <ele>148.4</ele>
        <time>2021-02-07T14:09:23Z</time>
      </trkpt>
      <trkpt lat="43.62696" lon="3.70425">
        <ele>148.6</ele>
        <time>2021-02-07T14:09:25Z</time>
      </trkpt>
      <trkpt lat="43.62694" lon="3.70427">
        <ele>148.7</ele>
        <time>2021-02-07T14:09:27Z</time>
      </trkpt>
      <trkpt lat="43.62692" lon="3.7043">
        <ele>148.9</ele>
        <time>2021-02-07T14:09:29Z</time>
      </trkpt>
      <trkpt lat="43.62691" lon="3.70432">
        <ele>149</ele>
        <time>2021-02-07T14:09:31Z</time>
      </trkpt>
      <trkpt lat="43.62689" lon="3.70435">
        <ele>149.1</ele>
        <time>2021-02-07T14:09:33Z</time>
      </trkpt>
      <trkpt lat="43.62688" lon="3.70438">
        <ele>149.3</ele>
        <time>2021-02-07T14:09:34Z</time>
      </trkpt>
      <trkpt lat="43.62688" lon="3.7044">
        <ele>149.4</ele>
        <time>2021-02-07T14:09:35Z</time>
      </trkpt>
      <trkpt lat="43.62686" lon="3.70444">
        <ele>149.7</ele>
        <time>2021-02-07T14:09:36Z</time>
      </trkpt>
      <trkpt lat="43.62685" lon="3.70445">
        <ele>149.7</ele>
        <time>2021-02-07T14:09:37Z</time>
      </trkpt>
      <trkpt lat="43.62685" lon="3.70448">
        <ele>149.8</ele>
        <time>2021-02-07T14:09:39Z</time>
      </trkpt>
      <trkpt lat="43.62688" lon="3.70451">
        <ele>150</ele>
        <time>2021-02-07T14:09:41Z</time>
      </trkpt>
      <trkpt lat="43.62689" lon="3.70453">
        <ele>150.1</ele>
        <time>2021-02-07T14:09:42Z</time>
      </trkpt>
      <trkpt lat="43.62692" lon="3.70455">
        <ele>150.3</ele>
        <time>2021-02-07T14:09:43Z</time>
      </trkpt>
      <trkpt lat="43.62696" lon="3.70456">
        <ele>150.4</ele>
        <time>2021-02-07T14:09:44Z</time>
      </trkpt>
      <trkpt lat="43.62699" lon="3.70457">
        <ele>150.5</ele>
        <time>2021-02-07T14:09:45Z</time>
      </trkpt>
      <trkpt lat="43.62703" lon="3.70455">
        <ele>150.5</ele>
        <time>2021-02-07T14:09:46Z</time>
      </trkpt>
      <trkpt lat="43.62707" lon="3.70453">
        <ele>150.4</ele>
        <time>2021-02-07T14:09:47Z</time>
      </trkpt>
      <trkpt lat="43.6271" lon="3.70452">
        <ele>151</ele>
        <time>2021-02-07T14:09:48Z</time>
      </trkpt>
      <trkpt lat="43.62713" lon="3.70451">
        <ele>150.4</ele>
        <time>2021-02-07T14:09:49Z</time>
      </trkpt>
      <trkpt lat="43.62716" lon="3.7045">
        <ele>150.4</ele>
        <time>2021-02-07T14:09:50Z</time>
      </trkpt>
      <trkpt lat="43.62719" lon="3.70448">
        <ele>150.2</ele>
        <time>2021-02-07T14:09:51Z</time>
      </trkpt>
      <trkpt lat="43.62721" lon="3.70447">
        <ele>150.2</ele>
        <time>2021-02-07T14:09:52Z</time>
      </trkpt>
      <trkpt lat="43.62723" lon="3.70446">
        <ele>150.1</ele>
        <time>2021-02-07T14:09:53Z</time>
      </trkpt>
      <trkpt lat="43.62726" lon="3.70445">
        <ele>150</ele>
        <time>2021-02-07T14:09:54Z</time>
      </trkpt>
      <trkpt lat="43.62728" lon="3.70444">
        <ele>150</ele>
        <time>2021-02-07T14:09:55Z</time>
      </trkpt>
      <trkpt lat="43.6273" lon="3.70442">
        <ele>149.9</ele>
        <time>2021-02-07T14:09:56Z</time>
      </trkpt>
      <trkpt lat="43.62732" lon="3.70441">
        <ele>149.9</ele>
        <time>2021-02-07T14:09:57Z</time>
      </trkpt>
      <trkpt lat="43.62735" lon="3.70439">
        <ele>151</ele>
        <time>2021-02-07T14:09:58Z</time>
      </trkpt>
      <trkpt lat="43.62737" lon="3.70437">
        <ele>149.9</ele>
        <time>2021-02-07T14:09:59Z</time>
      </trkpt>
      <trkpt lat="43.62739" lon="3.70435">
        <ele>149.9</ele>
        <time>2021-02-07T14:10:00Z</time>
      </trkpt>
      <trkpt lat="43.62742" lon="3.70433">
        <ele>149.9</ele>
        <time>2021-02-07T14:10:01Z</time>
      </trkpt>
      <trkpt lat="43.62744" lon="3.70431">
        <ele>149.9</ele>
        <time>2021-02-07T14:10:02Z</time>
      </trkpt>
      <trkpt lat="43.62747" lon="3.70429">
        <ele>149.9</ele>
        <time>2021-02-07T14:10:03Z</time>
      </trkpt>
      <trkpt lat="43.62749" lon="3.70427">
        <ele>150</ele>
        <time>2021-02-07T14:10:04Z</time>
      </trkpt>
      <trkpt lat="43.62752" lon="3.70425">
        <ele>149.9</ele>
        <time>2021-02-07T14:10:05Z</time>
      </trkpt>
      <trkpt lat="43.62754" lon="3.70423">
        <ele>149.9</ele>
        <time>2021-02-07T14:10:06Z</time>
      </trkpt>
      <trkpt lat="43.62757" lon="3.70422">
        <ele>149.7</ele>
        <time>2021-02-07T14:10:07Z</time>
      </trkpt>
      <trkpt lat="43.6276" lon="3.7042">
        <ele>151</ele>
        <time>2021-02-07T14:10:08Z</time>
      </trkpt>
      <trkpt lat="43.62763" lon="3.70418">
        <ele>149.5</ele>
        <time>2021-02-07T14:10:09Z</time>
      </trkpt>
      <trkpt lat="43.62765" lon="3.70416">
        <ele>149.4</ele>
        <time>2021-02-07T14:10:10Z</time>
      </trkpt>
      <trkpt lat="43.62768" lon="3.70414">
        <ele>149.2</ele>
        <time>2021-02-07T14:10:11Z</time>
      </trkpt>
      <trkpt lat="43.62771" lon="3.70412">
        <ele>149</ele>
        <time>2021-02-07T14:10:12Z</time>
      </trkpt>
      <trkpt lat="43.62774" lon="3.7041">
        <ele>148.9</ele>
        <time>2021-02-07T14:10:13Z</time>
      </trkpt>
      <trkpt lat="43.62777" lon="3.70408">
        <ele>148.7</ele>
        <time>2021-02-07T14:10:14Z</time>
      </trkpt>
      <trkpt lat="43.6278" lon="3.70406">
        <ele>148.2</ele>
        <time>2021-02-07T14:10:15Z</time>
      </trkpt>
      <trkpt lat="43.62783" lon="3.70404">
        <ele>147.7</ele>
        <time>2021-02-07T14:10:16Z</time>
      </trkpt>
      <trkpt lat="43.62786" lon="3.70402">
        <ele>147.1</ele>
        <time>2021-02-07T14:10:17Z</time>
      </trkpt>
      <trkpt lat="43.62789" lon="3.704">
        <ele>151</ele>
        <time>2021-02-07T14:10:18Z</time>
      </trkpt>
      <trkpt lat="43.62793" lon="3.70399">
        <ele>146</ele>
        <time>2021-02-07T14:10:19Z</time>
      </trkpt>
      <trkpt lat="43.62796" lon="3.70397">
        <ele>145.5</ele>
        <time>2021-02-07T14:10:20Z</time>
      </trkpt>
      <trkpt lat="43.62799" lon="3.70395">
        <ele>145</ele>
        <time>2021-02-07T14:10:21Z</time>
      </trkpt>
      <trkpt lat="43.62802" lon="3.70393">
        <ele>144.5</ele>
        <time>2021-02-07T14:10:22Z</time>
      </trkpt>
      <trkpt lat="43.62805" lon="3.70391">
        <ele>144.1</ele>
        <time>2021-02-07T14:10:23Z</time>
      </trkpt>
      <trkpt lat="43.62809" lon="3.70388">
        <ele>144.2</ele>
        <time>2021-02-07T14:10:24Z</time>
      </trkpt>
      <trkpt lat="43.62812" lon="3.70386">
        <ele>144.4</ele>
        <time>2021-02-07T14:10:25Z</time>
      </trkpt>
      <trkpt lat="43.62816" lon="3.70384">
        <ele>144.7</ele>
        <time>2021-02-07T14:10:26Z</time>
      </trkpt>
      <trkpt lat="43.62819" lon="3.70382">
        <ele>145</ele>
        <time>2021-02-07T14:10:27Z</time>
      </trkpt>
      <trkpt lat="43.62823" lon="3.7038">
        <ele>150</ele>
        <time>2021-02-07T14:10:28Z</time>
      </trkpt>
      <trkpt lat="43.62826" lon="3.70377">
        <ele>145.7</ele>
        <time>2021-02-07T14:10:29Z</time>
      </trkpt>
      <trkpt lat="43.62829" lon="3.70375">
        <ele>146</ele>
        <time>2021-02-07T14:10:30Z</time>
      </trkpt>
      <trkpt lat="43.62833" lon="3.70372">
        <ele>146.6</ele>
        <time>2021-02-07T14:10:31Z</time>
      </trkpt>
      <trkpt lat="43.62836" lon="3.7037">
        <ele>146.5</ele>
        <time>2021-02-07T14:10:32Z</time>
      </trkpt>
      <trkpt lat="43.6284" lon="3.70368">
        <ele>146.3</ele>
        <time>2021-02-07T14:10:33Z</time>
      </trkpt>
      <trkpt lat="43.62843" lon="3.70366">
        <ele>146.2</ele>
        <time>2021-02-07T14:10:34Z</time>
      </trkpt>
      <trkpt lat="43.62847" lon="3.70364">
        <ele>146</ele>
        <time>2021-02-07T14:10:35Z</time>
      </trkpt>
      <trkpt lat="43.62851" lon="3.70361">
        <ele>145.7</ele>
        <time>2021-02-07T14:10:36Z</time>
      </trkpt>
      <trkpt lat="43.62854" lon="3.70359">
        <ele>145.4</ele>
        <time>2021-02-07T14:10:37Z</time>
      </trkpt>
      <trkpt lat="43.62858" lon="3.70357">
        <ele>148</ele>
        <time>2021-02-07T14:10:38Z</time>
      </trkpt>
      <trkpt lat="43.62862" lon="3.70354">
        <ele>144.7</ele>
        <time>2021-02-07T14:10:39Z</time>
      </trkpt>
      <trkpt lat="43.62866" lon="3.70353">
        <ele>144.3</ele>
        <time>2021-02-07T14:10:40Z</time>
      </trkpt>
      <trkpt lat="43.6287" lon="3.70351">
        <ele>144</ele>
        <time>2021-02-07T14:10:41Z</time>
      </trkpt>
      <trkpt lat="43.62874" lon="3.70348">
        <ele>143.8</ele>
        <time>2021-02-07T14:10:42Z</time>
      </trkpt>
      <trkpt lat="43.62879" lon="3.70346">
        <ele>143.6</ele>
        <time>2021-02-07T14:10:43Z</time>
      </trkpt>
      <trkpt lat="43.62884" lon="3.70344">
        <ele>143.4</ele>
        <time>2021-02-07T14:10:44Z</time>
      </trkpt>
      <trkpt lat="43.62889" lon="3.70342">
        <ele>143.4</ele>
        <time>2021-02-07T14:10:45Z</time>
      </trkpt>
      <trkpt lat="43.62894" lon="3.70339">
        <ele>143.1</ele>
        <time>2021-02-07T14:10:46Z</time>
      </trkpt>
      <trkpt lat="43.62899" lon="3.70337">
        <ele>142.7</ele>
        <time>2021-02-07T14:10:47Z</time>
      </trkpt>
      <trkpt lat="43.62905" lon="3.70334">
        <ele>146</ele>
        <time>2021-02-07T14:10:48Z</time>
      </trkpt>
      <trkpt lat="43.62911" lon="3.70332">
        <ele>141.5</ele>
        <time>2021-02-07T14:10:49Z</time>
      </trkpt>
      <trkpt lat="43.62917" lon="3.70329">
        <ele>140.7</ele>
        <time>2021-02-07T14:10:50Z</time>
      </trkpt>
      <trkpt lat="43.62923" lon="3.70327">
        <ele>140.2</ele>
        <time>2021-02-07T14:10:51Z</time>
      </trkpt>
      <trkpt lat="43.62929" lon="3.70325">
        <ele>139.8</ele>
        <time>2021-02-07T14:10:52Z</time>
      </trkpt>
      <trkpt lat="43.62936" lon="3.70323">
        <ele>139.4</ele>
        <time>2021-02-07T14:10:53Z</time>
      </trkpt>
      <trkpt lat="43.6295" lon="3.70319">
        <ele>138.8</ele>
        <time>2021-02-07T14:10:55Z</time>
      </trkpt>
      <trkpt lat="43.62956" lon="3.70318">
        <ele>138.6</ele>
        <time>2021-02-07T14:10:56Z</time>
      </trkpt>
      <trkpt lat="43.62964" lon="3.70316">
        <ele>138.3</ele>
        <time>2021-02-07T14:10:57Z</time>
      </trkpt>
      <trkpt lat="43.62971" lon="3.70315">
        <ele>138</ele>
        <time>2021-02-07T14:10:58Z</time>
      </trkpt>
      <trkpt lat="43.62978" lon="3.70314">
        <ele>142</ele>
        <time>2021-02-07T14:10:59Z</time>
      </trkpt>
      <trkpt lat="43.62986" lon="3.70312">
        <ele>137.6</ele>
        <time>2021-02-07T14:11:00Z</time>
      </trkpt>
      <trkpt lat="43.62993" lon="3.70311">
        <ele>137.4</ele>
        <time>2021-02-07T14:11:01Z</time>
      </trkpt>
      <trkpt lat="43.63001" lon="3.7031">
        <ele>137.1</ele>
        <time>2021-02-07T14:11:02Z</time>
      </trkpt>
      <trkpt lat="43.63009" lon="3.70309">
        <ele>136.8</ele>
        <time>2021-02-07T14:11:03Z</time>
      </trkpt>
      <trkpt lat="43.63017" lon="3.70309">
        <ele>136.5</ele>
        <time>2021-02-07T14:11:04Z</time>
      </trkpt>
      <trkpt lat="43.63025" lon="3.70308">
        <ele>136.2</ele>
        <time>2021-02-07T14:11:05Z</time>
      </trkpt>
      <trkpt lat="43.63033" lon="3.70308">
        <ele>135.9</ele>
        <time>2021-02-07T14:11:06Z</time>
      </trkpt>
      <trkpt lat="43.63041" lon="3.70308">
        <ele>135.6</ele>
        <time>2021-02-07T14:11:07Z</time>
      </trkpt>
      <trkpt lat="43.63048" lon="3.70308">
        <ele>139</ele>
        <time>2021-02-07T14:11:08Z</time>
      </trkpt>
      <trkpt lat="43.63055" lon="3.70308">
        <ele>135.1</ele>
        <time>2021-02-07T14:11:09Z</time>
      </trkpt>
      <trkpt lat="43.63062" lon="3.70308">
        <ele>134.9</ele>
        <time>2021-02-07T14:11:10Z</time>
      </trkpt>
      <trkpt lat="43.63069" lon="3.70309">
        <ele>134.6</ele>
        <time>2021-02-07T14:11:11Z</time>
      </trkpt>
      <trkpt lat="43.63075" lon="3.7031">
        <ele>134.5</ele>
        <time>2021-02-07T14:11:12Z</time>
      </trkpt>
      <trkpt lat="43.63082" lon="3.7031">
        <ele>134.2</ele>
        <time>2021-02-07T14:11:13Z</time>
      </trkpt>
      <trkpt lat="43.63088" lon="3.70309">
        <ele>134.1</ele>
        <time>2021-02-07T14:11:14Z</time>
      </trkpt>
      <trkpt lat="43.63094" lon="3.70309">
        <ele>134.1</ele>
        <time>2021-02-07T14:11:15Z</time>
      </trkpt>
      <trkpt lat="43.631" lon="3.70308">
        <ele>134.1</ele>
        <time>2021-02-07T14:11:16Z</time>
      </trkpt>
      <trkpt lat="43.63106" lon="3.70307">
        <ele>134.1</ele>
        <time>2021-02-07T14:11:17Z</time>
      </trkpt>
      <trkpt lat="43.63111" lon="3.70307">
        <ele>136</ele>
        <time>2021-02-07T14:11:18Z</time>
      </trkpt>
      <trkpt lat="43.63115" lon="3.70307">
        <ele>133.8</ele>
        <time>2021-02-07T14:11:19Z</time>
      </trkpt>
      <trkpt lat="43.63119" lon="3.70307">
        <ele>133.5</ele>
        <time>2021-02-07T14:11:20Z</time>
      </trkpt>
      <trkpt lat="43.63122" lon="3.70307">
        <ele>133.3</ele>
        <time>2021-02-07T14:11:21Z</time>
      </trkpt>
      <trkpt lat="43.63124" lon="3.70304">
        <ele>133</ele>
        <time>2021-02-07T14:11:22Z</time>
      </trkpt>
      <trkpt lat="43.63125" lon="3.70301">
        <ele>132.9</ele>
        <time>2021-02-07T14:11:23Z</time>
      </trkpt>
      <trkpt lat="43.63125" lon="3.70297">
        <ele>132.8</ele>
        <time>2021-02-07T14:11:24Z</time>
      </trkpt>
      <trkpt lat="43.63125" lon="3.70293">
        <ele>132.8</ele>
        <time>2021-02-07T14:11:25Z</time>
      </trkpt>
      <trkpt lat="43.63125" lon="3.70288">
        <ele>132.7</ele>
        <time>2021-02-07T14:11:26Z</time>
      </trkpt>
      <trkpt lat="43.63124" lon="3.70284">
        <ele>132.7</ele>
        <time>2021-02-07T14:11:27Z</time>
      </trkpt>
      <trkpt lat="43.63123" lon="3.7028">
        <ele>136</ele>
        <time>2021-02-07T14:11:28Z</time>
      </trkpt>
      <trkpt lat="43.63122" lon="3.70275">
        <ele>132.9</ele>
        <time>2021-02-07T14:11:29Z</time>
      </trkpt>
      <trkpt lat="43.63121" lon="3.70271">
        <ele>133</ele>
        <time>2021-02-07T14:11:30Z</time>
      </trkpt>
      <trkpt lat="43.63119" lon="3.70266">
        <ele>133.3</ele>
        <time>2021-02-07T14:11:31Z</time>
      </trkpt>
      <trkpt lat="43.63118" lon="3.70262">
        <ele>133.4</ele>
        <time>2021-02-07T14:11:32Z</time>
      </trkpt>
      <trkpt lat="43.63117" lon="3.70257">
        <ele>133.5</ele>
        <time>2021-02-07T14:11:33Z</time>
      </trkpt>
      <trkpt lat="43.63116" lon="3.70253">
        <ele>133.6</ele>
        <time>2021-02-07T14:11:34Z</time>
      </trkpt>
      <trkpt lat="43.63114" lon="3.70249">
        <ele>133.8</ele>
        <time>2021-02-07T14:11:35Z</time>
      </trkpt>
      <trkpt lat="43.63113" lon="3.70246">
        <ele>133.9</ele>
        <time>2021-02-07T14:11:36Z</time>
      </trkpt>
      <trkpt lat="43.63112" lon="3.70242">
        <ele>133.9</ele>
        <time>2021-02-07T14:11:37Z</time>
      </trkpt>
      <trkpt lat="43.63111" lon="3.70239">
        <ele>135</ele>
        <time>2021-02-07T14:11:38Z</time>
      </trkpt>
      <trkpt lat="43.63111" lon="3.70235">
        <ele>134</ele>
        <time>2021-02-07T14:11:39Z</time>
      </trkpt>
      <trkpt lat="43.6311" lon="3.70232">
        <ele>134</ele>
        <time>2021-02-07T14:11:40Z</time>
      </trkpt>
      <trkpt lat="43.63109" lon="3.70229">
        <ele>134</ele>
        <time>2021-02-07T14:11:41Z</time>
      </trkpt>
      <trkpt lat="43.63108" lon="3.70226">
        <ele>134</ele>
        <time>2021-02-07T14:11:42Z</time>
      </trkpt>
      <trkpt lat="43.63107" lon="3.70223">
        <ele>134</ele>
        <time>2021-02-07T14:11:43Z</time>
      </trkpt>
      <trkpt lat="43.63107" lon="3.70221">
        <ele>134</ele>
        <time>2021-02-07T14:11:44Z</time>
      </trkpt>
      <trkpt lat="43.63106" lon="3.70218">
        <ele>134</ele>
        <time>2021-02-07T14:11:45Z</time>
      </trkpt>
      <trkpt lat="43.63105" lon="3.70214">
        <ele>134</ele>
        <time>2021-02-07T14:11:47Z</time>
      </trkpt>
      <trkpt lat="43.63104" lon="3.7021">
        <ele>134</ele>
        <time>2021-02-07T14:11:49Z</time>
      </trkpt>
      <trkpt lat="43.63103" lon="3.70207">
        <ele>134</ele>
        <time>2021-02-07T14:11:51Z</time>
      </trkpt>
      <trkpt lat="43.63103" lon="3.70203">
        <ele>134</ele>
        <time>2021-02-07T14:11:53Z</time>
      </trkpt>
      <trkpt lat="43.63102" lon="3.702">
        <ele>134</ele>
        <time>2021-02-07T14:11:57Z</time>
      </trkpt>
      <trkpt lat="43.63102" lon="3.70198">
        <ele>134</ele>
        <time>2021-02-07T14:11:58Z</time>
      </trkpt>
      <trkpt lat="43.631" lon="3.70195">
        <ele>134</ele>
        <time>2021-02-07T14:11:59Z</time>
      </trkpt>
      <trkpt lat="43.63099" lon="3.70191">
        <ele>133.9</ele>
        <time>2021-02-07T14:12:00Z</time>
      </trkpt>
      <trkpt lat="43.63098" lon="3.70187">
        <ele>133.9</ele>
        <time>2021-02-07T14:12:01Z</time>
      </trkpt>
      <trkpt lat="43.63097" lon="3.70183">
        <ele>133.8</ele>
        <time>2021-02-07T14:12:02Z</time>
      </trkpt>
      <trkpt lat="43.63096" lon="3.70179">
        <ele>133.7</ele>
        <time>2021-02-07T14:12:03Z</time>
      </trkpt>
      <trkpt lat="43.63095" lon="3.70175">
        <ele>133.7</ele>
        <time>2021-02-07T14:12:04Z</time>
      </trkpt>
      <trkpt lat="43.63094" lon="3.70172">
        <ele>133.7</ele>
        <time>2021-02-07T14:12:05Z</time>
      </trkpt>
      <trkpt lat="43.63093" lon="3.70168">
        <ele>133.7</ele>
        <time>2021-02-07T14:12:06Z</time>
      </trkpt>
      <trkpt lat="43.63092" lon="3.70163">
        <ele>133.7</ele>
        <time>2021-02-07T14:12:07Z</time>
      </trkpt>
      <trkpt lat="43.63091" lon="3.70159">
        <ele>134</ele>
        <time>2021-02-07T14:12:08Z</time>
      </trkpt>
      <trkpt lat="43.6309" lon="3.70154">
        <ele>133.8</ele>
        <time>2021-02-07T14:12:09Z</time>
      </trkpt>
      <trkpt lat="43.63089" lon="3.70149">
        <ele>133.8</ele>
        <time>2021-02-07T14:12:10Z</time>
      </trkpt>
      <trkpt lat="43.63088" lon="3.70145">
        <ele>133.8</ele>
        <time>2021-02-07T14:12:11Z</time>
      </trkpt>
      <trkpt lat="43.63087" lon="3.7014">
        <ele>133.9</ele>
        <time>2021-02-07T14:12:12Z</time>
      </trkpt>
      <trkpt lat="43.63086" lon="3.70135">
        <ele>133.8</ele>
        <time>2021-02-07T14:12:13Z</time>
      </trkpt>
      <trkpt lat="43.63088" lon="3.7013">
        <ele>133.5</ele>
        <time>2021-02-07T14:12:14Z</time>
      </trkpt>
      <trkpt lat="43.6309" lon="3.70127">
        <ele>133.3</ele>
        <time>2021-02-07T14:12:15Z</time>
      </trkpt>
      <trkpt lat="43.63093" lon="3.70127">
        <ele>133.2</ele>
        <time>2021-02-07T14:12:16Z</time>
      </trkpt>
      <trkpt lat="43.63098" lon="3.70127">
        <ele>133</ele>
        <time>2021-02-07T14:12:17Z</time>
      </trkpt>
      <trkpt lat="43.63102" lon="3.70128">
        <ele>133</ele>
        <time>2021-02-07T14:12:18Z</time>
      </trkpt>
      <trkpt lat="43.63105" lon="3.70129">
        <ele>132.9</ele>
        <time>2021-02-07T14:12:19Z</time>
      </trkpt>
      <trkpt lat="43.63109" lon="3.70131">
        <ele>132.8</ele>
        <time>2021-02-07T14:12:20Z</time>
      </trkpt>
      <trkpt lat="43.63112" lon="3.70131">
        <ele>132.7</ele>
        <time>2021-02-07T14:12:21Z</time>
      </trkpt>
      <trkpt lat="43.63115" lon="3.70131">
        <ele>132.5</ele>
        <time>2021-02-07T14:12:22Z</time>
      </trkpt>
      <trkpt lat="43.63119" lon="3.7013">
        <ele>132.2</ele>
        <time>2021-02-07T14:12:23Z</time>
      </trkpt>
      <trkpt lat="43.63122" lon="3.7013">
        <ele>132</ele>
        <time>2021-02-07T14:12:24Z</time>
      </trkpt>
      <trkpt lat="43.63126" lon="3.70129">
        <ele>131.8</ele>
        <time>2021-02-07T14:12:25Z</time>
      </trkpt>
      <trkpt lat="43.6313" lon="3.70126">
        <ele>131.5</ele>
        <time>2021-02-07T14:12:26Z</time>
      </trkpt>
      <trkpt lat="43.63133" lon="3.70122">
        <ele>131.3</ele>
        <time>2021-02-07T14:12:27Z</time>
      </trkpt>
      <trkpt lat="43.63136" lon="3.70116">
        <ele>132</ele>
        <time>2021-02-07T14:12:28Z</time>
      </trkpt>
      <trkpt lat="43.63139" lon="3.7011">
        <ele>131</ele>
        <time>2021-02-07T14:12:29Z</time>
      </trkpt>
      <trkpt lat="43.63143" lon="3.70105">
        <ele>130.7</ele>
        <time>2021-02-07T14:12:30Z</time>
      </trkpt>
      <trkpt lat="43.63147" lon="3.701">
        <ele>130.4</ele>
        <time>2021-02-07T14:12:31Z</time>
      </trkpt>
      <trkpt lat="43.63151" lon="3.70094">
        <ele>130.2</ele>
        <time>2021-02-07T14:12:32Z</time>
      </trkpt>
      <trkpt lat="43.63155" lon="3.70088">
        <ele>130.1</ele>
        <time>2021-02-07T14:12:33Z</time>
      </trkpt>
      <trkpt lat="43.63159" lon="3.70082">
        <ele>130</ele>
        <time>2021-02-07T14:12:34Z</time>
      </trkpt>
      <trkpt lat="43.63162" lon="3.70076">
        <ele>130</ele>
        <time>2021-02-07T14:12:35Z</time>
      </trkpt>
      <trkpt lat="43.63164" lon="3.7007">
        <ele>130</ele>
        <time>2021-02-07T14:12:36Z</time>
      </trkpt>
      <trkpt lat="43.63165" lon="3.70065">
        <ele>130</ele>
        <time>2021-02-07T14:12:37Z</time>
      </trkpt>
      <trkpt lat="43.63165" lon="3.70059">
        <ele>131</ele>
        <time>2021-02-07T14:12:38Z</time>
      </trkpt>
      <trkpt lat="43.63165" lon="3.70053">
        <ele>130</ele>
        <time>2021-02-07T14:12:39Z</time>
      </trkpt>
      <trkpt lat="43.63164" lon="3.70048">
        <ele>130</ele>
        <time>2021-02-07T14:12:40Z</time>
      </trkpt>
      <trkpt lat="43.63165" lon="3.70043">
        <ele>130</ele>
        <time>2021-02-07T14:12:41Z</time>
      </trkpt>
      <trkpt lat="43.63167" lon="3.70039">
        <ele>130</ele>
        <time>2021-02-07T14:12:42Z</time>
      </trkpt>
      <trkpt lat="43.63169" lon="3.70035">
        <ele>130.3</ele>
        <time>2021-02-07T14:12:43Z</time>
      </trkpt>
      <trkpt lat="43.63171" lon="3.70032">
        <ele>130.5</ele>
        <time>2021-02-07T14:12:44Z</time>
      </trkpt>
      <trkpt lat="43.63174" lon="3.7003">
        <ele>130.8</ele>
        <time>2021-02-07T14:12:45Z</time>
      </trkpt>
      <trkpt lat="43.63177" lon="3.70028">
        <ele>131.1</ele>
        <time>2021-02-07T14:12:46Z</time>
      </trkpt>
      <trkpt lat="43.63179" lon="3.70027">
        <ele>131.3</ele>
        <time>2021-02-07T14:12:47Z</time>
      </trkpt>
      <trkpt lat="43.63182" lon="3.70026">
        <ele>131.7</ele>
        <time>2021-02-07T14:12:48Z</time>
      </trkpt>
      <trkpt lat="43.63184" lon="3.70024">
        <ele>131</ele>
        <time>2021-02-07T14:12:49Z</time>
      </trkpt>
      <trkpt lat="43.63186" lon="3.70023">
        <ele>132.1</ele>
        <time>2021-02-07T14:12:50Z</time>
      </trkpt>
      <trkpt lat="43.63188" lon="3.70021">
        <ele>132.3</ele>
        <time>2021-02-07T14:12:51Z</time>
      </trkpt>
      <trkpt lat="43.6319" lon="3.70019">
        <ele>132.5</ele>
        <time>2021-02-07T14:12:52Z</time>
      </trkpt>
      <trkpt lat="43.63191" lon="3.70017">
        <ele>132.6</ele>
        <time>2021-02-07T14:12:53Z</time>
      </trkpt>
      <trkpt lat="43.63193" lon="3.70014">
        <ele>132.8</ele>
        <time>2021-02-07T14:12:54Z</time>
      </trkpt>
      <trkpt lat="43.63195" lon="3.70012">
        <ele>133.1</ele>
        <time>2021-02-07T14:12:55Z</time>
      </trkpt>
      <trkpt lat="43.63197" lon="3.70011">
        <ele>133.2</ele>
        <time>2021-02-07T14:12:56Z</time>
      </trkpt>
      <trkpt lat="43.63198" lon="3.70009">
        <ele>133.3</ele>
        <time>2021-02-07T14:12:57Z</time>
      </trkpt>
      <trkpt lat="43.632" lon="3.70008">
        <ele>132</ele>
        <time>2021-02-07T14:12:58Z</time>
      </trkpt>
      <trkpt lat="43.63202" lon="3.70007">
        <ele>133.7</ele>
        <time>2021-02-07T14:12:59Z</time>
      </trkpt>
      <trkpt lat="43.63204" lon="3.70005">
        <ele>134</ele>
        <time>2021-02-07T14:13:00Z</time>
      </trkpt>
      <trkpt lat="43.63205" lon="3.70004">
        <ele>134.1</ele>
        <time>2021-02-07T14:13:01Z</time>
      </trkpt>
      <trkpt lat="43.63207" lon="3.70002">
        <ele>134.3</ele>
        <time>2021-02-07T14:13:02Z</time>
      </trkpt>
      <trkpt lat="43.63209" lon="3.7">
        <ele>134.6</ele>
        <time>2021-02-07T14:13:03Z</time>
      </trkpt>
      <trkpt lat="43.63211" lon="3.69999">
        <ele>134.8</ele>
        <time>2021-02-07T14:13:04Z</time>
      </trkpt>
      <trkpt lat="43.63212" lon="3.69998">
        <ele>134.8</ele>
        <time>2021-02-07T14:13:05Z</time>
      </trkpt>
      <trkpt lat="43.63214" lon="3.69996">
        <ele>135</ele>
        <time>2021-02-07T14:13:06Z</time>
      </trkpt>
      <trkpt lat="43.63216" lon="3.69995">
        <ele>135.1</ele>
        <time>2021-02-07T14:13:07Z</time>
      </trkpt>
      <trkpt lat="43.63218" lon="3.69993">
        <ele>133</ele>
        <time>2021-02-07T14:13:08Z</time>
      </trkpt>
      <trkpt lat="43.6322" lon="3.69992">
        <ele>135.5</ele>
        <time>2021-02-07T14:13:09Z</time>
      </trkpt>
      <trkpt lat="43.63222" lon="3.6999">
        <ele>135.6</ele>
        <time>2021-02-07T14:13:10Z</time>
      </trkpt>
      <trkpt lat="43.63224" lon="3.69989">
        <ele>135.8</ele>
        <time>2021-02-07T14:13:11Z</time>
      </trkpt>
      <trkpt lat="43.63225" lon="3.69987">
        <ele>135.9</ele>
        <time>2021-02-07T14:13:12Z</time>
      </trkpt>
      <trkpt lat="43.63227" lon="3.69986">
        <ele>136.1</ele>
        <time>2021-02-07T14:13:13Z</time>
      </trkpt>
      <trkpt lat="43.63229" lon="3.69984">
        <ele>136.3</ele>
        <time>2021-02-07T14:13:14Z</time>
      </trkpt>
      <trkpt lat="43.63231" lon="3.69982">
        <ele>136.5</ele>
        <time>2021-02-07T14:13:15Z</time>
      </trkpt>
      <trkpt lat="43.63233" lon="3.6998">
        <ele>136.7</ele>
        <time>2021-02-07T14:13:16Z</time>
      </trkpt>
      <trkpt lat="43.63234" lon="3.69979">
        <ele>136.8</ele>
        <time>2021-02-07T14:13:17Z</time>
      </trkpt>
      <trkpt lat="43.63236" lon="3.69977">
        <ele>135</ele>
        <time>2021-02-07T14:13:18Z</time>
      </trkpt>
      <trkpt lat="43.63237" lon="3.69975">
        <ele>137.2</ele>
        <time>2021-02-07T14:13:19Z</time>
      </trkpt>
      <trkpt lat="43.63239" lon="3.69973">
        <ele>137.4</ele>
        <time>2021-02-07T14:13:20Z</time>
      </trkpt>
      <trkpt lat="43.6324" lon="3.6997">
        <ele>137.5</ele>
        <time>2021-02-07T14:13:21Z</time>
      </trkpt>
      <trkpt lat="43.63241" lon="3.69967">
        <ele>137.6</ele>
        <time>2021-02-07T14:13:22Z</time>
      </trkpt>
      <trkpt lat="43.63242" lon="3.69964">
        <ele>137.6</ele>
        <time>2021-02-07T14:13:23Z</time>
      </trkpt>
      <trkpt lat="43.63244" lon="3.69962">
        <ele>137.8</ele>
        <time>2021-02-07T14:13:24Z</time>
      </trkpt>
      <trkpt lat="43.63245" lon="3.69959">
        <ele>137.9</ele>
        <time>2021-02-07T14:13:25Z</time>
      </trkpt>
      <trkpt lat="43.63246" lon="3.69956">
        <ele>137.9</ele>
        <time>2021-02-07T14:13:26Z</time>
      </trkpt>
      <trkpt lat="43.63248" lon="3.69953">
        <ele>138.1</ele>
        <time>2021-02-07T14:13:27Z</time>
      </trkpt>
      <trkpt lat="43.63249" lon="3.6995">
        <ele>135</ele>
        <time>2021-02-07T14:13:28Z</time>
      </trkpt>
      <trkpt lat="43.63251" lon="3.69947">
        <ele>138.2</ele>
        <time>2021-02-07T14:13:29Z</time>
      </trkpt>
      <trkpt lat="43.63253" lon="3.69944">
        <ele>138.2</ele>
        <time>2021-02-07T14:13:30Z</time>
      </trkpt>
      <trkpt lat="43.63254" lon="3.69942">
        <ele>138.2</ele>
        <time>2021-02-07T14:13:31Z</time>
      </trkpt>
      <trkpt lat="43.63256" lon="3.6994">
        <ele>138.3</ele>
        <time>2021-02-07T14:13:32Z</time>
      </trkpt>
      <trkpt lat="43.63257" lon="3.69938">
        <ele>138.3</ele>
        <time>2021-02-07T14:13:33Z</time>
      </trkpt>
      <trkpt lat="43.63259" lon="3.69936">
        <ele>138.3</ele>
        <time>2021-02-07T14:13:34Z</time>
      </trkpt>
      <trkpt lat="43.6326" lon="3.69934">
        <ele>138.3</ele>
        <time>2021-02-07T14:13:35Z</time>
      </trkpt>
      <trkpt lat="43.63262" lon="3.69932">
        <ele>138.4</ele>
        <time>2021-02-07T14:13:36Z</time>
      </trkpt>
      <trkpt lat="43.63264" lon="3.6993">
        <ele>138.5</ele>
        <time>2021-02-07T14:13:37Z</time>
      </trkpt>
      <trkpt lat="43.63266" lon="3.69928">
        <ele>137</ele>
        <time>2021-02-07T14:13:38Z</time>
      </trkpt>
      <trkpt lat="43.63267" lon="3.69927">
        <ele>138.6</ele>
        <time>2021-02-07T14:13:39Z</time>
      </trkpt>
      <trkpt lat="43.63269" lon="3.69925">
        <ele>138.7</ele>
        <time>2021-02-07T14:13:40Z</time>
      </trkpt>
      <trkpt lat="43.63272" lon="3.69924">
        <ele>138.8</ele>
        <time>2021-02-07T14:13:41Z</time>
      </trkpt>
      <trkpt lat="43.63274" lon="3.69923">
        <ele>139</ele>
        <time>2021-02-07T14:13:42Z</time>
      </trkpt>
      <trkpt lat="43.63277" lon="3.69922">
        <ele>139.1</ele>
        <time>2021-02-07T14:13:43Z</time>
      </trkpt>
      <trkpt lat="43.6328" lon="3.69921">
        <ele>139.4</ele>
        <time>2021-02-07T14:13:44Z</time>
      </trkpt>
      <trkpt lat="43.63283" lon="3.6992">
        <ele>139.7</ele>
        <time>2021-02-07T14:13:45Z</time>
      </trkpt>
      <trkpt lat="43.63285" lon="3.6992">
        <ele>139.9</ele>
        <time>2021-02-07T14:13:46Z</time>
      </trkpt>
      <trkpt lat="43.63287" lon="3.69919">
        <ele>140.1</ele>
        <time>2021-02-07T14:13:47Z</time>
      </trkpt>
      <trkpt lat="43.6329" lon="3.69918">
        <ele>139</ele>
        <time>2021-02-07T14:13:48Z</time>
      </trkpt>
      <trkpt lat="43.63293" lon="3.69917">
        <ele>140.7</ele>
        <time>2021-02-07T14:13:49Z</time>
      </trkpt>
      <trkpt lat="43.63295" lon="3.69916">
        <ele>140.8</ele>
        <time>2021-02-07T14:13:50Z</time>
      </trkpt>
      <trkpt lat="43.63297" lon="3.69915">
        <ele>141</ele>
        <time>2021-02-07T14:13:51Z</time>
      </trkpt>
      <trkpt lat="43.63299" lon="3.69915">
        <ele>141.2</ele>
        <time>2021-02-07T14:13:52Z</time>
      </trkpt>
      <trkpt lat="43.63301" lon="3.69914">
        <ele>141.4</ele>
        <time>2021-02-07T14:13:53Z</time>
      </trkpt>
      <trkpt lat="43.63302" lon="3.69914">
        <ele>141.5</ele>
        <time>2021-02-07T14:13:54Z</time>
      </trkpt>
      <trkpt lat="43.63305" lon="3.69911">
        <ele>141.7</ele>
        <time>2021-02-07T14:13:56Z</time>
      </trkpt>
      <trkpt lat="43.63306" lon="3.69909">
        <ele>141.8</ele>
        <time>2021-02-07T14:13:57Z</time>
      </trkpt>
      <trkpt lat="43.63308" lon="3.69908">
        <ele>141</ele>
        <time>2021-02-07T14:13:58Z</time>
      </trkpt>
      <trkpt lat="43.6331" lon="3.69906">
        <ele>142.2</ele>
        <time>2021-02-07T14:13:59Z</time>
      </trkpt>
      <trkpt lat="43.63311" lon="3.69904">
        <ele>142.2</ele>
        <time>2021-02-07T14:14:00Z</time>
      </trkpt>
      <trkpt lat="43.63313" lon="3.69902">
        <ele>142.4</ele>
        <time>2021-02-07T14:14:01Z</time>
      </trkpt>
      <trkpt lat="43.63314" lon="3.69901">
        <ele>142.5</ele>
        <time>2021-02-07T14:14:02Z</time>
      </trkpt>
      <trkpt lat="43.63316" lon="3.69899">
        <ele>142.7</ele>
        <time>2021-02-07T14:14:03Z</time>
      </trkpt>
      <trkpt lat="43.63317" lon="3.69897">
        <ele>142.8</ele>
        <time>2021-02-07T14:14:04Z</time>
      </trkpt>
      <trkpt lat="43.63319" lon="3.69896">
        <ele>143.1</ele>
        <time>2021-02-07T14:14:05Z</time>
      </trkpt>
      <trkpt lat="43.63321" lon="3.69895">
        <ele>143.3</ele>
        <time>2021-02-07T14:14:06Z</time>
      </trkpt>
      <trkpt lat="43.63323" lon="3.69893">
        <ele>143.6</ele>
        <time>2021-02-07T14:14:07Z</time>
      </trkpt>
      <trkpt lat="43.63325" lon="3.69892">
        <ele>142</ele>
        <time>2021-02-07T14:14:08Z</time>
      </trkpt>
      <trkpt lat="43.63327" lon="3.69891">
        <ele>144.1</ele>
        <time>2021-02-07T14:14:09Z</time>
      </trkpt>
      <trkpt lat="43.63329" lon="3.6989">
        <ele>144.4</ele>
        <time>2021-02-07T14:14:10Z</time>
      </trkpt>
      <trkpt lat="43.63331" lon="3.69889">
        <ele>144.7</ele>
        <time>2021-02-07T14:14:11Z</time>
      </trkpt>
      <trkpt lat="43.63335" lon="3.69888">
        <ele>144.9</ele>
        <time>2021-02-07T14:14:13Z</time>
      </trkpt>
      <trkpt lat="43.63338" lon="3.69887">
        <ele>144.8</ele>
        <time>2021-02-07T14:14:15Z</time>
      </trkpt>
      <trkpt lat="43.6334" lon="3.69888">
        <ele>144.7</ele>
        <time>2021-02-07T14:14:17Z</time>
      </trkpt>
      <trkpt lat="43.63342" lon="3.6989">
        <ele>144.7</ele>
        <time>2021-02-07T14:14:19Z</time>
      </trkpt>
      <trkpt lat="43.63344" lon="3.69892">
        <ele>144.7</ele>
        <time>2021-02-07T14:14:21Z</time>
      </trkpt>
      <trkpt lat="43.63345" lon="3.69894">
        <ele>144.7</ele>
        <time>2021-02-07T14:14:24Z</time>
      </trkpt>
      <trkpt lat="43.63346" lon="3.69903">
        <ele>146</ele>
        <time>2021-02-07T14:14:45Z</time>
      </trkpt>
      <trkpt lat="43.63346" lon="3.69907">
        <ele>144.8</ele>
        <time>2021-02-07T14:14:46Z</time>
      </trkpt>
      <trkpt lat="43.63345" lon="3.69911">
        <ele>144.9</ele>
        <time>2021-02-07T14:14:48Z</time>
      </trkpt>
      <trkpt lat="43.63345" lon="3.69914">
        <ele>145</ele>
        <time>2021-02-07T14:14:50Z</time>
      </trkpt>
      <trkpt lat="43.63345" lon="3.69918">
        <ele>145</ele>
        <time>2021-02-07T14:14:52Z</time>
      </trkpt>
      <trkpt lat="43.63344" lon="3.69922">
        <ele>146</ele>
        <time>2021-02-07T14:14:54Z</time>
      </trkpt>
      <trkpt lat="43.63344" lon="3.69925">
        <ele>145.2</ele>
        <time>2021-02-07T14:14:56Z</time>
      </trkpt>
      <trkpt lat="43.63344" lon="3.69928">
        <ele>145.3</ele>
        <time>2021-02-07T14:14:58Z</time>
      </trkpt>
      <trkpt lat="43.63344" lon="3.69929">
        <ele>147</ele>
        <time>2021-02-07T14:15:03Z</time>
      </trkpt>
      <trkpt lat="43.63351" lon="3.6994">
        <ele>146</ele>
        <time>2021-02-07T14:15:31Z</time>
      </trkpt>
      <trkpt lat="43.63353" lon="3.69945">
        <ele>145.3</ele>
        <time>2021-02-07T14:15:32Z</time>
      </trkpt>
      <trkpt lat="43.63355" lon="3.69949">
        <ele>145.3</ele>
        <time>2021-02-07T14:15:33Z</time>
      </trkpt>
      <trkpt lat="43.63357" lon="3.69953">
        <ele>145.4</ele>
        <time>2021-02-07T14:15:34Z</time>
      </trkpt>
      <trkpt lat="43.63358" lon="3.69957">
        <ele>145.5</ele>
        <time>2021-02-07T14:15:35Z</time>
      </trkpt>
      <trkpt lat="43.6336" lon="3.69961">
        <ele>145.6</ele>
        <time>2021-02-07T14:15:36Z</time>
      </trkpt>
      <trkpt lat="43.63361" lon="3.69966">
        <ele>145.8</ele>
        <time>2021-02-07T14:15:37Z</time>
      </trkpt>
      <trkpt lat="43.63361" lon="3.6997">
        <ele>145.9</ele>
        <time>2021-02-07T14:15:38Z</time>
      </trkpt>
      <trkpt lat="43.63361" lon="3.69974">
        <ele>146</ele>
        <time>2021-02-07T14:15:39Z</time>
      </trkpt>
      <trkpt lat="43.6336" lon="3.69978">
        <ele>146</ele>
        <time>2021-02-07T14:15:40Z</time>
      </trkpt>
      <trkpt lat="43.6336" lon="3.69981">
        <ele>146</ele>
        <time>2021-02-07T14:15:41Z</time>
      </trkpt>
      <trkpt lat="43.6336" lon="3.69984">
        <ele>146</ele>
        <time>2021-02-07T14:15:42Z</time>
      </trkpt>
      <trkpt lat="43.63359" lon="3.69988">
        <ele>146</ele>
        <time>2021-02-07T14:15:43Z</time>
      </trkpt>
      <trkpt lat="43.63359" lon="3.69992">
        <ele>146.1</ele>
        <time>2021-02-07T14:15:44Z</time>
      </trkpt>
      <trkpt lat="43.63359" lon="3.69995">
        <ele>146.1</ele>
        <time>2021-02-07T14:15:45Z</time>
      </trkpt>
      <trkpt lat="43.63358" lon="3.69998">
        <ele>146.1</ele>
        <time>2021-02-07T14:15:46Z</time>
      </trkpt>
      <trkpt lat="43.63358" lon="3.70001">
        <ele>146.1</ele>
        <time>2021-02-07T14:15:47Z</time>
      </trkpt>
      <trkpt lat="43.63357" lon="3.70005">
        <ele>146.3</ele>
        <time>2021-02-07T14:15:48Z</time>
      </trkpt>
      <trkpt lat="43.63357" lon="3.70008">
        <ele>146.4</ele>
        <time>2021-02-07T14:15:49Z</time>
      </trkpt>
      <trkpt lat="43.63357" lon="3.70012">
        <ele>146.6</ele>
        <time>2021-02-07T14:15:50Z</time>
      </trkpt>
      <trkpt lat="43.63357" lon="3.70015">
        <ele>147</ele>
        <time>2021-02-07T14:15:51Z</time>
      </trkpt>
      <trkpt lat="43.63357" lon="3.70019">
        <ele>146.8</ele>
        <time>2021-02-07T14:15:52Z</time>
      </trkpt>
      <trkpt lat="43.63357" lon="3.70022">
        <ele>146.9</ele>
        <time>2021-02-07T14:15:53Z</time>
      </trkpt>
      <trkpt lat="43.63357" lon="3.70026">
        <ele>147.1</ele>
        <time>2021-02-07T14:15:54Z</time>
      </trkpt>
      <trkpt lat="43.63357" lon="3.70029">
        <ele>147.1</ele>
        <time>2021-02-07T14:15:55Z</time>
      </trkpt>
      <trkpt lat="43.63357" lon="3.70033">
        <ele>147.1</ele>
        <time>2021-02-07T14:15:56Z</time>
      </trkpt>
      <trkpt lat="43.63356" lon="3.70036">
        <ele>147.2</ele>
        <time>2021-02-07T14:15:57Z</time>
      </trkpt>
      <trkpt lat="43.63357" lon="3.7004">
        <ele>147.1</ele>
        <time>2021-02-07T14:15:58Z</time>
      </trkpt>
      <trkpt lat="43.63357" lon="3.70044">
        <ele>147.1</ele>
        <time>2021-02-07T14:15:59Z</time>
      </trkpt>
      <trkpt lat="43.63357" lon="3.70048">
        <ele>148</ele>
        <time>2021-02-07T14:16:00Z</time>
      </trkpt>
      <trkpt lat="43.63357" lon="3.70051">
        <ele>147.1</ele>
        <time>2021-02-07T14:16:01Z</time>
      </trkpt>
      <trkpt lat="43.63356" lon="3.70055">
        <ele>147.2</ele>
        <time>2021-02-07T14:16:02Z</time>
      </trkpt>
      <trkpt lat="43.63356" lon="3.70059">
        <ele>147.3</ele>
        <time>2021-02-07T14:16:03Z</time>
      </trkpt>
      <trkpt lat="43.63356" lon="3.70062">
        <ele>147.4</ele>
        <time>2021-02-07T14:16:04Z</time>
      </trkpt>
      <trkpt lat="43.63356" lon="3.70066">
        <ele>147.6</ele>
        <time>2021-02-07T14:16:05Z</time>
      </trkpt>
      <trkpt lat="43.63357" lon="3.7007">
        <ele>147.7</ele>
        <time>2021-02-07T14:16:06Z</time>
      </trkpt>
      <trkpt lat="43.63357" lon="3.70074">
        <ele>147.8</ele>
        <time>2021-02-07T14:16:07Z</time>
      </trkpt>
      <trkpt lat="43.63358" lon="3.70077">
        <ele>147.9</ele>
        <time>2021-02-07T14:16:08Z</time>
      </trkpt>
      <trkpt lat="43.63358" lon="3.70081">
        <ele>148</ele>
        <time>2021-02-07T14:16:09Z</time>
      </trkpt>
      <trkpt lat="43.63359" lon="3.70084">
        <ele>148</ele>
        <time>2021-02-07T14:16:10Z</time>
      </trkpt>
      <trkpt lat="43.63359" lon="3.70088">
        <ele>148.2</ele>
        <time>2021-02-07T14:16:11Z</time>
      </trkpt>
      <trkpt lat="43.6336" lon="3.70092">
        <ele>148.3</ele>
        <time>2021-02-07T14:16:12Z</time>
      </trkpt>
      <trkpt lat="43.6336" lon="3.70096">
        <ele>148.5</ele>
        <time>2021-02-07T14:16:13Z</time>
      </trkpt>
      <trkpt lat="43.6336" lon="3.70099">
        <ele>148.6</ele>
        <time>2021-02-07T14:16:14Z</time>
      </trkpt>
      <trkpt lat="43.63361" lon="3.70103">
        <ele>148.7</ele>
        <time>2021-02-07T14:16:15Z</time>
      </trkpt>
      <trkpt lat="43.63361" lon="3.70107">
        <ele>148.9</ele>
        <time>2021-02-07T14:16:16Z</time>
      </trkpt>
      <trkpt lat="43.63362" lon="3.70111">
        <ele>149</ele>
        <time>2021-02-07T14:16:17Z</time>
      </trkpt>
      <trkpt lat="43.63362" lon="3.70115">
        <ele>149.3</ele>
        <time>2021-02-07T14:16:18Z</time>
      </trkpt>
      <trkpt lat="43.63362" lon="3.70118">
        <ele>149.5</ele>
        <time>2021-02-07T14:16:19Z</time>
      </trkpt>
      <trkpt lat="43.63362" lon="3.70122">
        <ele>149</ele>
        <time>2021-02-07T14:16:20Z</time>
      </trkpt>
      <trkpt lat="43.63362" lon="3.70125">
        <ele>150</ele>
        <time>2021-02-07T14:16:21Z</time>
      </trkpt>
      <trkpt lat="43.63362" lon="3.70129">
        <ele>150.3</ele>
        <time>2021-02-07T14:16:22Z</time>
      </trkpt>
      <trkpt lat="43.63362" lon="3.70132">
        <ele>150.5</ele>
        <time>2021-02-07T14:16:23Z</time>
      </trkpt>
      <trkpt lat="43.63362" lon="3.70135">
        <ele>150.7</ele>
        <time>2021-02-07T14:16:24Z</time>
      </trkpt>
      <trkpt lat="43.63362" lon="3.70138">
        <ele>150.9</ele>
        <time>2021-02-07T14:16:25Z</time>
      </trkpt>
      <trkpt lat="43.63362" lon="3.70142">
        <ele>151</ele>
        <time>2021-02-07T14:16:26Z</time>
      </trkpt>
      <trkpt lat="43.63363" lon="3.70145">
        <ele>150.9</ele>
        <time>2021-02-07T14:16:27Z</time>
      </trkpt>
      <trkpt lat="43.63364" lon="3.70148">
        <ele>150.9</ele>
        <time>2021-02-07T14:16:28Z</time>
      </trkpt>
      <trkpt lat="43.63364" lon="3.70152">
        <ele>150.9</ele>
        <time>2021-02-07T14:16:29Z</time>
      </trkpt>
      <trkpt lat="43.63364" lon="3.70156">
        <ele>150</ele>
        <time>2021-02-07T14:16:30Z</time>
      </trkpt>
      <trkpt lat="43.63364" lon="3.70159">
        <ele>151</ele>
        <time>2021-02-07T14:16:31Z</time>
      </trkpt>
      <trkpt lat="43.63364" lon="3.70163">
        <ele>151</ele>
        <time>2021-02-07T14:16:32Z</time>
      </trkpt>
      <trkpt lat="43.63364" lon="3.70167">
        <ele>151</ele>
        <time>2021-02-07T14:16:33Z</time>
      </trkpt>
      <trkpt lat="43.63365" lon="3.7017">
        <ele>151.1</ele>
        <time>2021-02-07T14:16:34Z</time>
      </trkpt>
      <trkpt lat="43.63365" lon="3.70174">
        <ele>151.3</ele>
        <time>2021-02-07T14:16:35Z</time>
      </trkpt>
      <trkpt lat="43.63365" lon="3.70177">
        <ele>151.4</ele>
        <time>2021-02-07T14:16:36Z</time>
      </trkpt>
      <trkpt lat="43.63365" lon="3.70181">
        <ele>151.5</ele>
        <time>2021-02-07T14:16:37Z</time>
      </trkpt>
      <trkpt lat="43.63365" lon="3.70185">
        <ele>151.7</ele>
        <time>2021-02-07T14:16:38Z</time>
      </trkpt>
      <trkpt lat="43.63364" lon="3.70188">
        <ele>151.8</ele>
        <time>2021-02-07T14:16:39Z</time>
      </trkpt>
      <trkpt lat="43.63364" lon="3.70191">
        <ele>152</ele>
        <time>2021-02-07T14:16:40Z</time>
      </trkpt>
      <trkpt lat="43.63364" lon="3.70195">
        <ele>152</ele>
        <time>2021-02-07T14:16:41Z</time>
      </trkpt>
      <trkpt lat="43.63363" lon="3.70198">
        <ele>152.1</ele>
        <time>2021-02-07T14:16:42Z</time>
      </trkpt>
      <trkpt lat="43.63363" lon="3.70202">
        <ele>152.3</ele>
        <time>2021-02-07T14:16:43Z</time>
      </trkpt>
      <trkpt lat="43.63363" lon="3.70205">
        <ele>152.4</ele>
        <time>2021-02-07T14:16:44Z</time>
      </trkpt>
      <trkpt lat="43.63363" lon="3.70209">
        <ele>152.5</ele>
        <time>2021-02-07T14:16:45Z</time>
      </trkpt>
      <trkpt lat="43.63363" lon="3.70213">
        <ele>152.7</ele>
        <time>2021-02-07T14:16:46Z</time>
      </trkpt>
      <trkpt lat="43.63364" lon="3.70216">
        <ele>152.8</ele>
        <time>2021-02-07T14:16:47Z</time>
      </trkpt>
      <trkpt lat="43.63364" lon="3.7022">
        <ele>152.9</ele>
        <time>2021-02-07T14:16:48Z</time>
      </trkpt>
      <trkpt lat="43.63364" lon="3.70224">
        <ele>153</ele>
        <time>2021-02-07T14:16:49Z</time>
      </trkpt>
      <trkpt lat="43.63364" lon="3.70228">
        <ele>153</ele>
        <time>2021-02-07T14:16:50Z</time>
      </trkpt>
      <trkpt lat="43.63363" lon="3.70231">
        <ele>153</ele>
        <time>2021-02-07T14:16:51Z</time>
      </trkpt>
      <trkpt lat="43.63361" lon="3.70235">
        <ele>153</ele>
        <time>2021-02-07T14:16:52Z</time>
      </trkpt>
      <trkpt lat="43.63359" lon="3.70237">
        <ele>152.9</ele>
        <time>2021-02-07T14:16:53Z</time>
      </trkpt>
      <trkpt lat="43.63357" lon="3.7024">
        <ele>152.9</ele>
        <time>2021-02-07T14:16:54Z</time>
      </trkpt>
      <trkpt lat="43.63354" lon="3.70242">
        <ele>152.7</ele>
        <time>2021-02-07T14:16:55Z</time>
      </trkpt>
      <trkpt lat="43.63352" lon="3.70244">
        <ele>152.7</ele>
        <time>2021-02-07T14:16:56Z</time>
      </trkpt>
      <trkpt lat="43.63351" lon="3.70248">
        <ele>152.6</ele>
        <time>2021-02-07T14:16:57Z</time>
      </trkpt>
      <trkpt lat="43.63351" lon="3.70251">
        <ele>152.7</ele>
        <time>2021-02-07T14:16:58Z</time>
      </trkpt>
      <trkpt lat="43.63351" lon="3.70253">
        <ele>152.7</ele>
        <time>2021-02-07T14:16:59Z</time>
      </trkpt>
      <trkpt lat="43.63352" lon="3.70257">
        <ele>152.8</ele>
        <time>2021-02-07T14:17:01Z</time>
      </trkpt>
      <trkpt lat="43.63354" lon="3.70259">
        <ele>153</ele>
        <time>2021-02-07T14:17:02Z</time>
      </trkpt>
      <trkpt lat="43.63356" lon="3.70261">
        <ele>153.1</ele>
        <time>2021-02-07T14:17:03Z</time>
      </trkpt>
      <trkpt lat="43.63357" lon="3.70263">
        <ele>153.3</ele>
        <time>2021-02-07T14:17:04Z</time>
      </trkpt>
      <trkpt lat="43.63357" lon="3.70266">
        <ele>153.3</ele>
        <time>2021-02-07T14:17:05Z</time>
      </trkpt>
      <trkpt lat="43.63358" lon="3.70269">
        <ele>153.5</ele>
        <time>2021-02-07T14:17:06Z</time>
      </trkpt>
      <trkpt lat="43.63358" lon="3.70272">
        <ele>153.6</ele>
        <time>2021-02-07T14:17:07Z</time>
      </trkpt>
      <trkpt lat="43.63359" lon="3.70275">
        <ele>153.8</ele>
        <time>2021-02-07T14:17:08Z</time>
      </trkpt>
      <trkpt lat="43.6336" lon="3.70278">
        <ele>153.9</ele>
        <time>2021-02-07T14:17:09Z</time>
      </trkpt>
      <trkpt lat="43.63361" lon="3.70281">
        <ele>153</ele>
        <time>2021-02-07T14:17:10Z</time>
      </trkpt>
      <trkpt lat="43.63362" lon="3.70285">
        <ele>154</ele>
        <time>2021-02-07T14:17:11Z</time>
      </trkpt>
      <trkpt lat="43.63362" lon="3.70288">
        <ele>154</ele>
        <time>2021-02-07T14:17:12Z</time>
      </trkpt>
      <trkpt lat="43.63363" lon="3.70291">
        <ele>154.1</ele>
        <time>2021-02-07T14:17:13Z</time>
      </trkpt>
      <trkpt lat="43.63364" lon="3.70295">
        <ele>154.1</ele>
        <time>2021-02-07T14:17:14Z</time>
      </trkpt>
      <trkpt lat="43.63364" lon="3.70298">
        <ele>154.1</ele>
        <time>2021-02-07T14:17:15Z</time>
      </trkpt>
      <trkpt lat="43.63365" lon="3.70301">
        <ele>154.1</ele>
        <time>2021-02-07T14:17:16Z</time>
      </trkpt>
      <trkpt lat="43.63365" lon="3.70304">
        <ele>154.1</ele>
        <time>2021-02-07T14:17:17Z</time>
      </trkpt>
      <trkpt lat="43.63366" lon="3.70307">
        <ele>154.2</ele>
        <time>2021-02-07T14:17:18Z</time>
      </trkpt>
      <trkpt lat="43.63367" lon="3.70309">
        <ele>154.2</ele>
        <time>2021-02-07T14:17:19Z</time>
      </trkpt>
      <trkpt lat="43.63368" lon="3.70311">
        <ele>155</ele>
        <time>2021-02-07T14:17:20Z</time>
      </trkpt>
      <trkpt lat="43.63369" lon="3.70314">
        <ele>154.3</ele>
        <time>2021-02-07T14:17:21Z</time>
      </trkpt>
      <trkpt lat="43.6337" lon="3.70316">
        <ele>154.3</ele>
        <time>2021-02-07T14:17:22Z</time>
      </trkpt>
      <trkpt lat="43.63371" lon="3.70319">
        <ele>154.4</ele>
        <time>2021-02-07T14:17:23Z</time>
      </trkpt>
      <trkpt lat="43.63374" lon="3.70322">
        <ele>154.5</ele>
        <time>2021-02-07T14:17:25Z</time>
      </trkpt>
      <trkpt lat="43.63374" lon="3.70327">
        <ele>154.5</ele>
        <time>2021-02-07T14:17:27Z</time>
      </trkpt>
      <trkpt lat="43.63372" lon="3.70329">
        <ele>154.4</ele>
        <time>2021-02-07T14:17:29Z</time>
      </trkpt>
      <trkpt lat="43.63369" lon="3.7033">
        <ele>154.3</ele>
        <time>2021-02-07T14:17:31Z</time>
      </trkpt>
      <trkpt lat="43.63368" lon="3.70329">
        <ele>154.2</ele>
        <time>2021-02-07T14:17:33Z</time>
      </trkpt>
      <trkpt lat="43.63366" lon="3.70327">
        <ele>154.2</ele>
        <time>2021-02-07T14:17:35Z</time>
      </trkpt>
      <trkpt lat="43.63366" lon="3.70323">
        <ele>154.2</ele>
        <time>2021-02-07T14:17:37Z</time>
      </trkpt>
      <trkpt lat="43.63369" lon="3.70325">
        <ele>154.3</ele>
        <time>2021-02-07T14:17:39Z</time>
      </trkpt>
      <trkpt lat="43.63368" lon="3.70328">
        <ele>155</ele>
        <time>2021-02-07T14:17:40Z</time>
      </trkpt>
      <trkpt lat="43.63366" lon="3.70327">
        <ele>154.2</ele>
        <time>2021-02-07T14:17:41Z</time>
      </trkpt>
      <trkpt lat="43.63366" lon="3.70323">
        <ele>154.2</ele>
        <time>2021-02-07T14:17:43Z</time>
      </trkpt>
      <trkpt lat="43.63368" lon="3.70326">
        <ele>154.2</ele>
        <time>2021-02-07T14:17:45Z</time>
      </trkpt>
      <trkpt lat="43.63367" lon="3.70328">
        <ele>154.2</ele>
        <time>2021-02-07T14:17:46Z</time>
      </trkpt>
      <trkpt lat="43.63365" lon="3.70329">
        <ele>154.1</ele>
        <time>2021-02-07T14:17:47Z</time>
      </trkpt>
      <trkpt lat="43.63364" lon="3.7033">
        <ele>154.1</ele>
        <time>2021-02-07T14:17:48Z</time>
      </trkpt>
      <trkpt lat="43.63362" lon="3.70331">
        <ele>154</ele>
        <time>2021-02-07T14:17:49Z</time>
      </trkpt>
      <trkpt lat="43.6336" lon="3.70333">
        <ele>155</ele>
        <time>2021-02-07T14:17:50Z</time>
      </trkpt>
      <trkpt lat="43.63359" lon="3.70335">
        <ele>154</ele>
        <time>2021-02-07T14:17:51Z</time>
      </trkpt>
      <trkpt lat="43.63357" lon="3.70338">
        <ele>154</ele>
        <time>2021-02-07T14:17:53Z</time>
      </trkpt>
      <trkpt lat="43.63357" lon="3.70342">
        <ele>154.2</ele>
        <time>2021-02-07T14:17:55Z</time>
      </trkpt>
      <trkpt lat="43.63358" lon="3.70346">
        <ele>154.3</ele>
        <time>2021-02-07T14:17:57Z</time>
      </trkpt>
      <trkpt lat="43.63358" lon="3.70349">
        <ele>154.5</ele>
        <time>2021-02-07T14:17:58Z</time>
      </trkpt>
      <trkpt lat="43.63358" lon="3.70352">
        <ele>154.6</ele>
        <time>2021-02-07T14:17:59Z</time>
      </trkpt>
      <trkpt lat="43.63358" lon="3.70355">
        <ele>155</ele>
        <time>2021-02-07T14:18:00Z</time>
      </trkpt>
      <trkpt lat="43.63358" lon="3.70358">
        <ele>154.8</ele>
        <time>2021-02-07T14:18:01Z</time>
      </trkpt>
      <trkpt lat="43.63359" lon="3.70361">
        <ele>154.9</ele>
        <time>2021-02-07T14:18:02Z</time>
      </trkpt>
      <trkpt lat="43.63359" lon="3.70364">
        <ele>154.9</ele>
        <time>2021-02-07T14:18:03Z</time>
      </trkpt>
      <trkpt lat="43.63359" lon="3.70367">
        <ele>154.9</ele>
        <time>2021-02-07T14:18:04Z</time>
      </trkpt>
      <trkpt lat="43.63359" lon="3.70371">
        <ele>154.9</ele>
        <time>2021-02-07T14:18:05Z</time>
      </trkpt>
      <trkpt lat="43.63359" lon="3.70374">
        <ele>154.9</ele>
        <time>2021-02-07T14:18:06Z</time>
      </trkpt>
      <trkpt lat="43.63359" lon="3.70378">
        <ele>154.9</ele>
        <time>2021-02-07T14:18:07Z</time>
      </trkpt>
      <trkpt lat="43.63359" lon="3.70382">
        <ele>154.9</ele>
        <time>2021-02-07T14:18:08Z</time>
      </trkpt>
      <trkpt lat="43.63359" lon="3.70386">
        <ele>154.9</ele>
        <time>2021-02-07T14:18:09Z</time>
      </trkpt>
      <trkpt lat="43.63359" lon="3.7039">
        <ele>156</ele>
        <time>2021-02-07T14:18:10Z</time>
      </trkpt>
      <trkpt lat="43.63359" lon="3.70394">
        <ele>154.9</ele>
        <time>2021-02-07T14:18:11Z</time>
      </trkpt>
      <trkpt lat="43.63359" lon="3.70398">
        <ele>154.9</ele>
        <time>2021-02-07T14:18:12Z</time>
      </trkpt>
      <trkpt lat="43.6336" lon="3.70402">
        <ele>155</ele>
        <time>2021-02-07T14:18:13Z</time>
      </trkpt>
      <trkpt lat="43.6336" lon="3.70406">
        <ele>155</ele>
        <time>2021-02-07T14:18:14Z</time>
      </trkpt>
      <trkpt lat="43.63361" lon="3.7041">
        <ele>155</ele>
        <time>2021-02-07T14:18:15Z</time>
      </trkpt>
      <trkpt lat="43.63361" lon="3.70414">
        <ele>155</ele>
        <time>2021-02-07T14:18:16Z</time>
      </trkpt>
      <trkpt lat="43.63361" lon="3.70418">
        <ele>154.9</ele>
        <time>2021-02-07T14:18:17Z</time>
      </trkpt>
      <trkpt lat="43.63361" lon="3.70422">
        <ele>154.8</ele>
        <time>2021-02-07T14:18:18Z</time>
      </trkpt>
      <trkpt lat="43.63362" lon="3.70425">
        <ele>154.7</ele>
        <time>2021-02-07T14:18:19Z</time>
      </trkpt>
      <trkpt lat="43.63362" lon="3.70429">
        <ele>154.6</ele>
        <time>2021-02-07T14:18:20Z</time>
      </trkpt>
      <trkpt lat="43.63362" lon="3.70433">
        <ele>156</ele>
        <time>2021-02-07T14:18:21Z</time>
      </trkpt>
      <trkpt lat="43.63362" lon="3.70436">
        <ele>154.3</ele>
        <time>2021-02-07T14:18:22Z</time>
      </trkpt>
      <trkpt lat="43.63362" lon="3.70439">
        <ele>154.2</ele>
        <time>2021-02-07T14:18:23Z</time>
      </trkpt>
      <trkpt lat="43.63362" lon="3.70442">
        <ele>154.1</ele>
        <time>2021-02-07T14:18:24Z</time>
      </trkpt>
      <trkpt lat="43.63363" lon="3.70445">
        <ele>154.1</ele>
        <time>2021-02-07T14:18:25Z</time>
      </trkpt>
      <trkpt lat="43.63363" lon="3.70449">
        <ele>154.1</ele>
        <time>2021-02-07T14:18:26Z</time>
      </trkpt>
      <trkpt lat="43.63364" lon="3.70453">
        <ele>154.1</ele>
        <time>2021-02-07T14:18:27Z</time>
      </trkpt>
      <trkpt lat="43.63365" lon="3.70457">
        <ele>154.1</ele>
        <time>2021-02-07T14:18:28Z</time>
      </trkpt>
      <trkpt lat="43.63366" lon="3.70461">
        <ele>154.1</ele>
        <time>2021-02-07T14:18:29Z</time>
      </trkpt>
      <trkpt lat="43.63367" lon="3.70465">
        <ele>155</ele>
        <time>2021-02-07T14:18:30Z</time>
      </trkpt>
      <trkpt lat="43.63368" lon="3.70469">
        <ele>154</ele>
        <time>2021-02-07T14:18:31Z</time>
      </trkpt>
      <trkpt lat="43.63369" lon="3.70473">
        <ele>154</ele>
        <time>2021-02-07T14:18:32Z</time>
      </trkpt>
      <trkpt lat="43.63371" lon="3.70478">
        <ele>153.9</ele>
        <time>2021-02-07T14:18:33Z</time>
      </trkpt>
      <trkpt lat="43.63372" lon="3.70482">
        <ele>153.8</ele>
        <time>2021-02-07T14:18:34Z</time>
      </trkpt>
      <trkpt lat="43.63373" lon="3.70487">
        <ele>153.7</ele>
        <time>2021-02-07T14:18:35Z</time>
      </trkpt>
      <trkpt lat="43.63374" lon="3.70491">
        <ele>153.6</ele>
        <time>2021-02-07T14:18:36Z</time>
      </trkpt>
      <trkpt lat="43.63375" lon="3.70496">
        <ele>153.6</ele>
        <time>2021-02-07T14:18:37Z</time>
      </trkpt>
      <trkpt lat="43.63376" lon="3.705">
        <ele>153.5</ele>
        <time>2021-02-07T14:18:38Z</time>
      </trkpt>
      <trkpt lat="43.63377" lon="3.70504">
        <ele>153.5</ele>
        <time>2021-02-07T14:18:39Z</time>
      </trkpt>
      <trkpt lat="43.63378" lon="3.70508">
        <ele>155</ele>
        <time>2021-02-07T14:18:40Z</time>
      </trkpt>
      <trkpt lat="43.63378" lon="3.70512">
        <ele>153.3</ele>
        <time>2021-02-07T14:18:41Z</time>
      </trkpt>
      <trkpt lat="43.63379" lon="3.70516">
        <ele>153.3</ele>
        <time>2021-02-07T14:18:42Z</time>
      </trkpt>
      <trkpt lat="43.63379" lon="3.70521">
        <ele>153.2</ele>
        <time>2021-02-07T14:18:43Z</time>
      </trkpt>
      <trkpt lat="43.6338" lon="3.70525">
        <ele>153.1</ele>
        <time>2021-02-07T14:18:44Z</time>
      </trkpt>
      <trkpt lat="43.63381" lon="3.7053">
        <ele>152.9</ele>
        <time>2021-02-07T14:18:45Z</time>
      </trkpt>
      <trkpt lat="43.63381" lon="3.70535">
        <ele>152.7</ele>
        <time>2021-02-07T14:18:46Z</time>
      </trkpt>
      <trkpt lat="43.63381" lon="3.7054">
        <ele>152.6</ele>
        <time>2021-02-07T14:18:47Z</time>
      </trkpt>
      <trkpt lat="43.63382" lon="3.70545">
        <ele>152.4</ele>
        <time>2021-02-07T14:18:48Z</time>
      </trkpt>
      <trkpt lat="43.63383" lon="3.70549">
        <ele>152.2</ele>
        <time>2021-02-07T14:18:49Z</time>
      </trkpt>
      <trkpt lat="43.63384" lon="3.70554">
        <ele>155</ele>
        <time>2021-02-07T14:18:50Z</time>
      </trkpt>
      <trkpt lat="43.63385" lon="3.70558">
        <ele>151.9</ele>
        <time>2021-02-07T14:18:51Z</time>
      </trkpt>
      <trkpt lat="43.63387" lon="3.70563">
        <ele>151.7</ele>
        <time>2021-02-07T14:18:52Z</time>
      </trkpt>
      <trkpt lat="43.63388" lon="3.70569">
        <ele>151.5</ele>
        <time>2021-02-07T14:18:53Z</time>
      </trkpt>
      <trkpt lat="43.63387" lon="3.70574">
        <ele>151.3</ele>
        <time>2021-02-07T14:18:54Z</time>
      </trkpt>
      <trkpt lat="43.63387" lon="3.70579">
        <ele>151.2</ele>
        <time>2021-02-07T14:18:55Z</time>
      </trkpt>
      <trkpt lat="43.63386" lon="3.70583">
        <ele>151</ele>
        <time>2021-02-07T14:18:56Z</time>
      </trkpt>
      <trkpt lat="43.63387" lon="3.70587">
        <ele>151</ele>
        <time>2021-02-07T14:18:57Z</time>
      </trkpt>
      <trkpt lat="43.63388" lon="3.70591">
        <ele>151</ele>
        <time>2021-02-07T14:18:58Z</time>
      </trkpt>
      <trkpt lat="43.6339" lon="3.70594">
        <ele>151</ele>
        <time>2021-02-07T14:18:59Z</time>
      </trkpt>
      <trkpt lat="43.63393" lon="3.70597">
        <ele>151.1</ele>
        <time>2021-02-07T14:19:00Z</time>
      </trkpt>
      <trkpt lat="43.63396" lon="3.70599">
        <ele>154</ele>
        <time>2021-02-07T14:19:01Z</time>
      </trkpt>
      <trkpt lat="43.63399" lon="3.70601">
        <ele>151.4</ele>
        <time>2021-02-07T14:19:02Z</time>
      </trkpt>
      <trkpt lat="43.63402" lon="3.70604">
        <ele>151.5</ele>
        <time>2021-02-07T14:19:03Z</time>
      </trkpt>
      <trkpt lat="43.63405" lon="3.70607">
        <ele>151.6</ele>
        <time>2021-02-07T14:19:04Z</time>
      </trkpt>
      <trkpt lat="43.63407" lon="3.7061">
        <ele>151.7</ele>
        <time>2021-02-07T14:19:05Z</time>
      </trkpt>
      <trkpt lat="43.63408" lon="3.70614">
        <ele>151.7</ele>
        <time>2021-02-07T14:19:06Z</time>
      </trkpt>
      <trkpt lat="43.63409" lon="3.70619">
        <ele>151.6</ele>
        <time>2021-02-07T14:19:07Z</time>
      </trkpt>
      <trkpt lat="43.6341" lon="3.70624">
        <ele>151.6</ele>
        <time>2021-02-07T14:19:08Z</time>
      </trkpt>
      <trkpt lat="43.63411" lon="3.7063">
        <ele>151.7</ele>
        <time>2021-02-07T14:19:09Z</time>
      </trkpt>
      <trkpt lat="43.63412" lon="3.70635">
        <ele>153</ele>
        <time>2021-02-07T14:19:10Z</time>
      </trkpt>
      <trkpt lat="43.63413" lon="3.7064">
        <ele>151.7</ele>
        <time>2021-02-07T14:19:11Z</time>
      </trkpt>
      <trkpt lat="43.63414" lon="3.70645">
        <ele>151.8</ele>
        <time>2021-02-07T14:19:12Z</time>
      </trkpt>
      <trkpt lat="43.63414" lon="3.7065">
        <ele>151.8</ele>
        <time>2021-02-07T14:19:13Z</time>
      </trkpt>
      <trkpt lat="43.63414" lon="3.70655">
        <ele>151.8</ele>
        <time>2021-02-07T14:19:14Z</time>
      </trkpt>
      <trkpt lat="43.63414" lon="3.70659">
        <ele>151.8</ele>
        <time>2021-02-07T14:19:15Z</time>
      </trkpt>
      <trkpt lat="43.63414" lon="3.70664">
        <ele>151.8</ele>
        <time>2021-02-07T14:19:16Z</time>
      </trkpt>
      <trkpt lat="43.63414" lon="3.70669">
        <ele>151.8</ele>
        <time>2021-02-07T14:19:17Z</time>
      </trkpt>
      <trkpt lat="43.63414" lon="3.70673">
        <ele>151.8</ele>
        <time>2021-02-07T14:19:18Z</time>
      </trkpt>
      <trkpt lat="43.63415" lon="3.70678">
        <ele>151.9</ele>
        <time>2021-02-07T14:19:19Z</time>
      </trkpt>
      <trkpt lat="43.63416" lon="3.70683">
        <ele>153</ele>
        <time>2021-02-07T14:19:20Z</time>
      </trkpt>
      <trkpt lat="43.63416" lon="3.70687">
        <ele>152</ele>
        <time>2021-02-07T14:19:21Z</time>
      </trkpt>
      <trkpt lat="43.63418" lon="3.70692">
        <ele>152</ele>
        <time>2021-02-07T14:19:22Z</time>
      </trkpt>
      <trkpt lat="43.63419" lon="3.70696">
        <ele>152.1</ele>
        <time>2021-02-07T14:19:23Z</time>
      </trkpt>
      <trkpt lat="43.6342" lon="3.70701">
        <ele>152.1</ele>
        <time>2021-02-07T14:19:24Z</time>
      </trkpt>
      <trkpt lat="43.63421" lon="3.70706">
        <ele>152.2</ele>
        <time>2021-02-07T14:19:25Z</time>
      </trkpt>
      <trkpt lat="43.63422" lon="3.7071">
        <ele>152.2</ele>
        <time>2021-02-07T14:19:26Z</time>
      </trkpt>
      <trkpt lat="43.63422" lon="3.70715">
        <ele>152.2</ele>
        <time>2021-02-07T14:19:27Z</time>
      </trkpt>
      <trkpt lat="43.63424" lon="3.7072">
        <ele>152.3</ele>
        <time>2021-02-07T14:19:28Z</time>
      </trkpt>
      <trkpt lat="43.63425" lon="3.70725">
        <ele>152.3</ele>
        <time>2021-02-07T14:19:29Z</time>
      </trkpt>
      <trkpt lat="43.63425" lon="3.70729">
        <ele>154</ele>
        <time>2021-02-07T14:19:30Z</time>
      </trkpt>
      <trkpt lat="43.63426" lon="3.70734">
        <ele>152.3</ele>
        <time>2021-02-07T14:19:31Z</time>
      </trkpt>
      <trkpt lat="43.63427" lon="3.70738">
        <ele>152.4</ele>
        <time>2021-02-07T14:19:32Z</time>
      </trkpt>
      <trkpt lat="43.63427" lon="3.70743">
        <ele>152.4</ele>
        <time>2021-02-07T14:19:33Z</time>
      </trkpt>
      <trkpt lat="43.63428" lon="3.70748">
        <ele>152.4</ele>
        <time>2021-02-07T14:19:34Z</time>
      </trkpt>
      <trkpt lat="43.6343" lon="3.70752">
        <ele>152.5</ele>
        <time>2021-02-07T14:19:35Z</time>
      </trkpt>
      <trkpt lat="43.63431" lon="3.70757">
        <ele>152.5</ele>
        <time>2021-02-07T14:19:36Z</time>
      </trkpt>
      <trkpt lat="43.63432" lon="3.70762">
        <ele>152.6</ele>
        <time>2021-02-07T14:19:37Z</time>
      </trkpt>
      <trkpt lat="43.63432" lon="3.70768">
        <ele>152.6</ele>
        <time>2021-02-07T14:19:38Z</time>
      </trkpt>
      <trkpt lat="43.63433" lon="3.70773">
        <ele>152.6</ele>
        <time>2021-02-07T14:19:39Z</time>
      </trkpt>
      <trkpt lat="43.63434" lon="3.70778">
        <ele>153</ele>
        <time>2021-02-07T14:19:40Z</time>
      </trkpt>
      <trkpt lat="43.63435" lon="3.70784">
        <ele>152.7</ele>
        <time>2021-02-07T14:19:41Z</time>
      </trkpt>
      <trkpt lat="43.63436" lon="3.70789">
        <ele>152.7</ele>
        <time>2021-02-07T14:19:42Z</time>
      </trkpt>
      <trkpt lat="43.63437" lon="3.70794">
        <ele>152.7</ele>
        <time>2021-02-07T14:19:43Z</time>
      </trkpt>
      <trkpt lat="43.63438" lon="3.70798">
        <ele>152.8</ele>
        <time>2021-02-07T14:19:44Z</time>
      </trkpt>
      <trkpt lat="43.63439" lon="3.70803">
        <ele>152.8</ele>
        <time>2021-02-07T14:19:45Z</time>
      </trkpt>
      <trkpt lat="43.6344" lon="3.70807">
        <ele>152.8</ele>
        <time>2021-02-07T14:19:46Z</time>
      </trkpt>
      <trkpt lat="43.6344" lon="3.70811">
        <ele>152.8</ele>
        <time>2021-02-07T14:19:47Z</time>
      </trkpt>
      <trkpt lat="43.6344" lon="3.70815">
        <ele>152.8</ele>
        <time>2021-02-07T14:19:48Z</time>
      </trkpt>
      <trkpt lat="43.63441" lon="3.7082">
        <ele>152.9</ele>
        <time>2021-02-07T14:19:49Z</time>
      </trkpt>
      <trkpt lat="43.63442" lon="3.70824">
        <ele>153</ele>
        <time>2021-02-07T14:19:50Z</time>
      </trkpt>
      <trkpt lat="43.63442" lon="3.70828">
        <ele>152.9</ele>
        <time>2021-02-07T14:19:51Z</time>
      </trkpt>
      <trkpt lat="43.63443" lon="3.70833">
        <ele>152.9</ele>
        <time>2021-02-07T14:19:52Z</time>
      </trkpt>
      <trkpt lat="43.63444" lon="3.70838">
        <ele>153</ele>
        <time>2021-02-07T14:19:53Z</time>
      </trkpt>
      <trkpt lat="43.63444" lon="3.70843">
        <ele>153</ele>
        <time>2021-02-07T14:19:54Z</time>
      </trkpt>
      <trkpt lat="43.63445" lon="3.70848">
        <ele>153</ele>
        <time>2021-02-07T14:19:55Z</time>
      </trkpt>
      <trkpt lat="43.63445" lon="3.70853">
        <ele>153</ele>
        <time>2021-02-07T14:19:56Z</time>
      </trkpt>
      <trkpt lat="43.63446" lon="3.70858">
        <ele>153</ele>
        <time>2021-02-07T14:19:57Z</time>
      </trkpt>
      <trkpt lat="43.63447" lon="3.70863">
        <ele>152.9</ele>
        <time>2021-02-07T14:19:58Z</time>
      </trkpt>
      <trkpt lat="43.63447" lon="3.70867">
        <ele>152.8</ele>
        <time>2021-02-07T14:19:59Z</time>
      </trkpt>
      <trkpt lat="43.63448" lon="3.70872">
        <ele>153</ele>
        <time>2021-02-07T14:20:00Z</time>
      </trkpt>
      <trkpt lat="43.63449" lon="3.70877">
        <ele>152.5</ele>
        <time>2021-02-07T14:20:01Z</time>
      </trkpt>
      <trkpt lat="43.6345" lon="3.70882">
        <ele>152.4</ele>
        <time>2021-02-07T14:20:02Z</time>
      </trkpt>
      <trkpt lat="43.63452" lon="3.70886">
        <ele>152.3</ele>
        <time>2021-02-07T14:20:03Z</time>
      </trkpt>
      <trkpt lat="43.63454" lon="3.7089">
        <ele>152.3</ele>
        <time>2021-02-07T14:20:04Z</time>
      </trkpt>
      <trkpt lat="43.63456" lon="3.70893">
        <ele>152.4</ele>
        <time>2021-02-07T14:20:05Z</time>
      </trkpt>
      <trkpt lat="43.63459" lon="3.70896">
        <ele>152.4</ele>
        <time>2021-02-07T14:20:06Z</time>
      </trkpt>
      <trkpt lat="43.63463" lon="3.70898">
        <ele>152.4</ele>
        <time>2021-02-07T14:20:07Z</time>
      </trkpt>
      <trkpt lat="43.63466" lon="3.70898">
        <ele>152.5</ele>
        <time>2021-02-07T14:20:08Z</time>
      </trkpt>
      <trkpt lat="43.6347" lon="3.70898">
        <ele>152.6</ele>
        <time>2021-02-07T14:20:09Z</time>
      </trkpt>
      <trkpt lat="43.63473" lon="3.70897">
        <ele>153</ele>
        <time>2021-02-07T14:20:10Z</time>
      </trkpt>
      <trkpt lat="43.63477" lon="3.70897">
        <ele>152.7</ele>
        <time>2021-02-07T14:20:11Z</time>
      </trkpt>
      <trkpt lat="43.6348" lon="3.70897">
        <ele>152.7</ele>
        <time>2021-02-07T14:20:12Z</time>
      </trkpt>
      <trkpt lat="43.63483" lon="3.70897">
        <ele>152.7</ele>
        <time>2021-02-07T14:20:13Z</time>
      </trkpt>
      <trkpt lat="43.63487" lon="3.70898">
        <ele>152.7</ele>
        <time>2021-02-07T14:20:14Z</time>
      </trkpt>
      <trkpt lat="43.6349" lon="3.70899">
        <ele>152.6</ele>
        <time>2021-02-07T14:20:15Z</time>
      </trkpt>
      <trkpt lat="43.63494" lon="3.70901">
        <ele>152.6</ele>
        <time>2021-02-07T14:20:16Z</time>
      </trkpt>
      <trkpt lat="43.63497" lon="3.70904">
        <ele>152.5</ele>
        <time>2021-02-07T14:20:17Z</time>
      </trkpt>
      <trkpt lat="43.635" lon="3.70907">
        <ele>152.3</ele>
        <time>2021-02-07T14:20:18Z</time>
      </trkpt>
      <trkpt lat="43.63502" lon="3.7091">
        <ele>152.3</ele>
        <time>2021-02-07T14:20:19Z</time>
      </trkpt>
      <trkpt lat="43.63505" lon="3.70912">
        <ele>153</ele>
        <time>2021-02-07T14:20:20Z</time>
      </trkpt>
      <trkpt lat="43.63508" lon="3.70914">
        <ele>152.4</ele>
        <time>2021-02-07T14:20:21Z</time>
      </trkpt>
      <trkpt lat="43.63511" lon="3.70916">
        <ele>152.4</ele>
        <time>2021-02-07T14:20:22Z</time>
      </trkpt>
      <trkpt lat="43.63513" lon="3.70917">
        <ele>152.5</ele>
        <time>2021-02-07T14:20:23Z</time>
      </trkpt>
      <trkpt lat="43.63515" lon="3.70915">
        <ele>152.6</ele>
        <time>2021-02-07T14:20:24Z</time>
      </trkpt>
      <trkpt lat="43.63518" lon="3.70913">
        <ele>152.7</ele>
        <time>2021-02-07T14:20:25Z</time>
      </trkpt>
      <trkpt lat="43.63522" lon="3.70912">
        <ele>152.8</ele>
        <time>2021-02-07T14:20:26Z</time>
      </trkpt>
      <trkpt lat="43.63525" lon="3.70912">
        <ele>152.9</ele>
        <time>2021-02-07T14:20:27Z</time>
      </trkpt>
      <trkpt lat="43.63529" lon="3.70911">
        <ele>153</ele>
        <time>2021-02-07T14:20:28Z</time>
      </trkpt>
      <trkpt lat="43.63531" lon="3.70908">
        <ele>153.1</ele>
        <time>2021-02-07T14:20:29Z</time>
      </trkpt>
      <trkpt lat="43.63533" lon="3.70905">
        <ele>152</ele>
        <time>2021-02-07T14:20:30Z</time>
      </trkpt>
      <trkpt lat="43.63535" lon="3.70901">
        <ele>153.3</ele>
        <time>2021-02-07T14:20:31Z</time>
      </trkpt>
      <trkpt lat="43.63536" lon="3.70897">
        <ele>153.3</ele>
        <time>2021-02-07T14:20:32Z</time>
      </trkpt>
      <trkpt lat="43.63539" lon="3.70895">
        <ele>153.4</ele>
        <time>2021-02-07T14:20:33Z</time>
      </trkpt>
      <trkpt lat="43.63541" lon="3.70893">
        <ele>153.5</ele>
        <time>2021-02-07T14:20:34Z</time>
      </trkpt>
      <trkpt lat="43.63543" lon="3.70891">
        <ele>153.5</ele>
        <time>2021-02-07T14:20:35Z</time>
      </trkpt>
      <trkpt lat="43.63544" lon="3.70888">
        <ele>153.6</ele>
        <time>2021-02-07T14:20:36Z</time>
      </trkpt>
      <trkpt lat="43.63545" lon="3.70885">
        <ele>153.8</ele>
        <time>2021-02-07T14:20:37Z</time>
      </trkpt>
      <trkpt lat="43.63546" lon="3.70882">
        <ele>153.9</ele>
        <time>2021-02-07T14:20:38Z</time>
      </trkpt>
      <trkpt lat="43.63547" lon="3.7088">
        <ele>154</ele>
        <time>2021-02-07T14:20:39Z</time>
      </trkpt>
      <trkpt lat="43.63549" lon="3.70878">
        <ele>153</ele>
        <time>2021-02-07T14:20:40Z</time>
      </trkpt>
      <trkpt lat="43.63551" lon="3.70876">
        <ele>154.3</ele>
        <time>2021-02-07T14:20:41Z</time>
      </trkpt>
      <trkpt lat="43.63553" lon="3.70874">
        <ele>154.4</ele>
        <time>2021-02-07T14:20:42Z</time>
      </trkpt>
      <trkpt lat="43.63555" lon="3.7087">
        <ele>154.7</ele>
        <time>2021-02-07T14:20:43Z</time>
      </trkpt>
      <trkpt lat="43.63556" lon="3.70867">
        <ele>154.8</ele>
        <time>2021-02-07T14:20:44Z</time>
      </trkpt>
      <trkpt lat="43.63557" lon="3.70863">
        <ele>154.9</ele>
        <time>2021-02-07T14:20:45Z</time>
      </trkpt>
      <trkpt lat="43.63558" lon="3.70859">
        <ele>155.1</ele>
        <time>2021-02-07T14:20:46Z</time>
      </trkpt>
      <trkpt lat="43.63559" lon="3.70855">
        <ele>155.2</ele>
        <time>2021-02-07T14:20:47Z</time>
      </trkpt>
      <trkpt lat="43.6356" lon="3.70851">
        <ele>155.4</ele>
        <time>2021-02-07T14:20:48Z</time>
      </trkpt>
      <trkpt lat="43.63561" lon="3.70848">
        <ele>155.5</ele>
        <time>2021-02-07T14:20:49Z</time>
      </trkpt>
      <trkpt lat="43.63563" lon="3.70845">
        <ele>153</ele>
        <time>2021-02-07T14:20:50Z</time>
      </trkpt>
      <trkpt lat="43.63565" lon="3.70843">
        <ele>155.7</ele>
        <time>2021-02-07T14:20:51Z</time>
      </trkpt>
      <trkpt lat="43.63567" lon="3.70843">
        <ele>155.7</ele>
        <time>2021-02-07T14:20:52Z</time>
      </trkpt>
      <trkpt lat="43.63571" lon="3.70843">
        <ele>155.7</ele>
        <time>2021-02-07T14:20:54Z</time>
      </trkpt>
      <trkpt lat="43.63572" lon="3.70845">
        <ele>155.6</ele>
        <time>2021-02-07T14:20:55Z</time>
      </trkpt>
      <trkpt lat="43.63574" lon="3.70848">
        <ele>155.5</ele>
        <time>2021-02-07T14:20:56Z</time>
      </trkpt>
      <trkpt lat="43.63573" lon="3.70851">
        <ele>155.4</ele>
        <time>2021-02-07T14:20:57Z</time>
      </trkpt>
      <trkpt lat="43.63574" lon="3.70854">
        <ele>155.3</ele>
        <time>2021-02-07T14:20:58Z</time>
      </trkpt>
      <trkpt lat="43.63575" lon="3.70857">
        <ele>155.1</ele>
        <time>2021-02-07T14:20:59Z</time>
      </trkpt>
      <trkpt lat="43.63576" lon="3.70859">
        <ele>154</ele>
        <time>2021-02-07T14:21:00Z</time>
      </trkpt>
      <trkpt lat="43.63576" lon="3.70862">
        <ele>155</ele>
        <time>2021-02-07T14:21:01Z</time>
      </trkpt>
      <trkpt lat="43.63576" lon="3.70865">
        <ele>154.9</ele>
        <time>2021-02-07T14:21:02Z</time>
      </trkpt>
      <trkpt lat="43.63575" lon="3.70868">
        <ele>154.8</ele>
        <time>2021-02-07T14:21:03Z</time>
      </trkpt>
      <trkpt lat="43.63575" lon="3.70871">
        <ele>154.6</ele>
        <time>2021-02-07T14:21:04Z</time>
      </trkpt>
      <trkpt lat="43.63574" lon="3.70874">
        <ele>154.5</ele>
        <time>2021-02-07T14:21:05Z</time>
      </trkpt>
      <trkpt lat="43.63574" lon="3.70877">
        <ele>154.4</ele>
        <time>2021-02-07T14:21:06Z</time>
      </trkpt>
      <trkpt lat="43.63574" lon="3.7088">
        <ele>154.3</ele>
        <time>2021-02-07T14:21:07Z</time>
      </trkpt>
      <trkpt lat="43.63575" lon="3.70884">
        <ele>154.2</ele>
        <time>2021-02-07T14:21:08Z</time>
      </trkpt>
      <trkpt lat="43.63576" lon="3.70887">
        <ele>154.1</ele>
        <time>2021-02-07T14:21:09Z</time>
      </trkpt>
      <trkpt lat="43.63577" lon="3.70892">
        <ele>154</ele>
        <time>2021-02-07T14:21:10Z</time>
      </trkpt>
      <trkpt lat="43.63577" lon="3.70896">
        <ele>154</ele>
        <time>2021-02-07T14:21:11Z</time>
      </trkpt>
      <trkpt lat="43.63578" lon="3.709">
        <ele>154</ele>
        <time>2021-02-07T14:21:12Z</time>
      </trkpt>
      <trkpt lat="43.63579" lon="3.70904">
        <ele>154</ele>
        <time>2021-02-07T14:21:13Z</time>
      </trkpt>
      <trkpt lat="43.63579" lon="3.70908">
        <ele>154</ele>
        <time>2021-02-07T14:21:14Z</time>
      </trkpt>
      <trkpt lat="43.63579" lon="3.70912">
        <ele>154</ele>
        <time>2021-02-07T14:21:15Z</time>
      </trkpt>
      <trkpt lat="43.6358" lon="3.70916">
        <ele>154</ele>
        <time>2021-02-07T14:21:16Z</time>
      </trkpt>
      <trkpt lat="43.63581" lon="3.70919">
        <ele>154</ele>
        <time>2021-02-07T14:21:17Z</time>
      </trkpt>
      <trkpt lat="43.63581" lon="3.70924">
        <ele>154</ele>
        <time>2021-02-07T14:21:18Z</time>
      </trkpt>
      <trkpt lat="43.63581" lon="3.70928">
        <ele>154</ele>
        <time>2021-02-07T14:21:19Z</time>
      </trkpt>
      <trkpt lat="43.63582" lon="3.70932">
        <ele>154</ele>
        <time>2021-02-07T14:21:20Z</time>
      </trkpt>
      <trkpt lat="43.63584" lon="3.70935">
        <ele>154</ele>
        <time>2021-02-07T14:21:21Z</time>
      </trkpt>
      <trkpt lat="43.63585" lon="3.70938">
        <ele>153.9</ele>
        <time>2021-02-07T14:21:22Z</time>
      </trkpt>
      <trkpt lat="43.63586" lon="3.70942">
        <ele>153.8</ele>
        <time>2021-02-07T14:21:23Z</time>
      </trkpt>
      <trkpt lat="43.63587" lon="3.70945">
        <ele>153.7</ele>
        <time>2021-02-07T14:21:24Z</time>
      </trkpt>
      <trkpt lat="43.63588" lon="3.70949">
        <ele>153.7</ele>
        <time>2021-02-07T14:21:25Z</time>
      </trkpt>
      <trkpt lat="43.63589" lon="3.70954">
        <ele>153.7</ele>
        <time>2021-02-07T14:21:26Z</time>
      </trkpt>
      <trkpt lat="43.6359" lon="3.70959">
        <ele>153.8</ele>
        <time>2021-02-07T14:21:27Z</time>
      </trkpt>
      <trkpt lat="43.6359" lon="3.70964">
        <ele>153.9</ele>
        <time>2021-02-07T14:21:28Z</time>
      </trkpt>
      <trkpt lat="43.63591" lon="3.7097">
        <ele>154</ele>
        <time>2021-02-07T14:21:29Z</time>
      </trkpt>
      <trkpt lat="43.63591" lon="3.70975">
        <ele>155</ele>
        <time>2021-02-07T14:21:30Z</time>
      </trkpt>
      <trkpt lat="43.63592" lon="3.70979">
        <ele>154.1</ele>
        <time>2021-02-07T14:21:31Z</time>
      </trkpt>
      <trkpt lat="43.63592" lon="3.70983">
        <ele>154.1</ele>
        <time>2021-02-07T14:21:32Z</time>
      </trkpt>
      <trkpt lat="43.63593" lon="3.70987">
        <ele>154.2</ele>
        <time>2021-02-07T14:21:33Z</time>
      </trkpt>
      <trkpt lat="43.63594" lon="3.7099">
        <ele>154.2</ele>
        <time>2021-02-07T14:21:34Z</time>
      </trkpt>
      <trkpt lat="43.63595" lon="3.70994">
        <ele>154.3</ele>
        <time>2021-02-07T14:21:35Z</time>
      </trkpt>
      <trkpt lat="43.63597" lon="3.70998">
        <ele>154.5</ele>
        <time>2021-02-07T14:21:36Z</time>
      </trkpt>
      <trkpt lat="43.63598" lon="3.71001">
        <ele>154.5</ele>
        <time>2021-02-07T14:21:37Z</time>
      </trkpt>
      <trkpt lat="43.636" lon="3.71004">
        <ele>154.6</ele>
        <time>2021-02-07T14:21:38Z</time>
      </trkpt>
      <trkpt lat="43.63602" lon="3.71007">
        <ele>154.7</ele>
        <time>2021-02-07T14:21:39Z</time>
      </trkpt>
      <trkpt lat="43.63604" lon="3.71011">
        <ele>155</ele>
        <time>2021-02-07T14:21:40Z</time>
      </trkpt>
      <trkpt lat="43.63606" lon="3.71013">
        <ele>154.8</ele>
        <time>2021-02-07T14:21:41Z</time>
      </trkpt>
      <trkpt lat="43.63609" lon="3.71015">
        <ele>154.9</ele>
        <time>2021-02-07T14:21:42Z</time>
      </trkpt>
      <trkpt lat="43.63612" lon="3.71017">
        <ele>155</ele>
        <time>2021-02-07T14:21:43Z</time>
      </trkpt>
      <trkpt lat="43.63614" lon="3.71018">
        <ele>154.9</ele>
        <time>2021-02-07T14:21:44Z</time>
      </trkpt>
      <trkpt lat="43.63618" lon="3.7102">
        <ele>154.8</ele>
        <time>2021-02-07T14:21:45Z</time>
      </trkpt>
      <trkpt lat="43.6362" lon="3.71023">
        <ele>154.7</ele>
        <time>2021-02-07T14:21:46Z</time>
      </trkpt>
      <trkpt lat="43.63622" lon="3.71027">
        <ele>154.6</ele>
        <time>2021-02-07T14:21:47Z</time>
      </trkpt>
      <trkpt lat="43.63623" lon="3.71031">
        <ele>154.5</ele>
        <time>2021-02-07T14:21:48Z</time>
      </trkpt>
      <trkpt lat="43.63623" lon="3.71036">
        <ele>154.3</ele>
        <time>2021-02-07T14:21:49Z</time>
      </trkpt>
      <trkpt lat="43.63623" lon="3.7104">
        <ele>156</ele>
        <time>2021-02-07T14:21:50Z</time>
      </trkpt>
      <trkpt lat="43.63623" lon="3.71045">
        <ele>154</ele>
        <time>2021-02-07T14:21:51Z</time>
      </trkpt>
      <trkpt lat="43.63622" lon="3.7105">
        <ele>153.8</ele>
        <time>2021-02-07T14:21:52Z</time>
      </trkpt>
      <trkpt lat="43.63621" lon="3.71056">
        <ele>153.6</ele>
        <time>2021-02-07T14:21:53Z</time>
      </trkpt>
      <trkpt lat="43.6362" lon="3.71061">
        <ele>153.7</ele>
        <time>2021-02-07T14:21:54Z</time>
      </trkpt>
      <trkpt lat="43.63619" lon="3.71066">
        <ele>153.8</ele>
        <time>2021-02-07T14:21:55Z</time>
      </trkpt>
      <trkpt lat="43.63618" lon="3.71071">
        <ele>153.9</ele>
        <time>2021-02-07T14:21:56Z</time>
      </trkpt>
      <trkpt lat="43.63617" lon="3.71077">
        <ele>154</ele>
        <time>2021-02-07T14:21:57Z</time>
      </trkpt>
      <trkpt lat="43.63616" lon="3.71082">
        <ele>154</ele>
        <time>2021-02-07T14:21:58Z</time>
      </trkpt>
      <trkpt lat="43.63615" lon="3.71087">
        <ele>154</ele>
        <time>2021-02-07T14:21:59Z</time>
      </trkpt>
      <trkpt lat="43.63615" lon="3.71092">
        <ele>157</ele>
        <time>2021-02-07T14:22:00Z</time>
      </trkpt>
      <trkpt lat="43.63614" lon="3.71096">
        <ele>154</ele>
        <time>2021-02-07T14:22:01Z</time>
      </trkpt>
      <trkpt lat="43.63613" lon="3.71101">
        <ele>154</ele>
        <time>2021-02-07T14:22:02Z</time>
      </trkpt>
      <trkpt lat="43.63613" lon="3.71105">
        <ele>154</ele>
        <time>2021-02-07T14:22:03Z</time>
      </trkpt>
      <trkpt lat="43.63613" lon="3.71109">
        <ele>154</ele>
        <time>2021-02-07T14:22:04Z</time>
      </trkpt>
      <trkpt lat="43.63613" lon="3.71113">
        <ele>154</ele>
        <time>2021-02-07T14:22:05Z</time>
      </trkpt>
      <trkpt lat="43.63614" lon="3.71118">
        <ele>154</ele>
        <time>2021-02-07T14:22:06Z</time>
      </trkpt>
      <trkpt lat="43.63614" lon="3.71122">
        <ele>154</ele>
        <time>2021-02-07T14:22:07Z</time>
      </trkpt>
      <trkpt lat="43.63614" lon="3.71126">
        <ele>153.9</ele>
        <time>2021-02-07T14:22:08Z</time>
      </trkpt>
      <trkpt lat="43.63615" lon="3.71131">
        <ele>153.9</ele>
        <time>2021-02-07T14:22:09Z</time>
      </trkpt>
      <trkpt lat="43.63615" lon="3.71135">
        <ele>153.9</ele>
        <time>2021-02-07T14:22:10Z</time>
      </trkpt>
      <trkpt lat="43.63615" lon="3.71139">
        <ele>156</ele>
        <time>2021-02-07T14:22:11Z</time>
      </trkpt>
      <trkpt lat="43.63616" lon="3.71143">
        <ele>153.7</ele>
        <time>2021-02-07T14:22:12Z</time>
      </trkpt>
      <trkpt lat="43.63616" lon="3.71146">
        <ele>153.6</ele>
        <time>2021-02-07T14:22:13Z</time>
      </trkpt>
      <trkpt lat="43.63617" lon="3.7115">
        <ele>153.4</ele>
        <time>2021-02-07T14:22:14Z</time>
      </trkpt>
      <trkpt lat="43.63617" lon="3.71154">
        <ele>153.2</ele>
        <time>2021-02-07T14:22:15Z</time>
      </trkpt>
      <trkpt lat="43.63617" lon="3.71158">
        <ele>153.1</ele>
        <time>2021-02-07T14:22:16Z</time>
      </trkpt>
      <trkpt lat="43.63617" lon="3.71162">
        <ele>153</ele>
        <time>2021-02-07T14:22:17Z</time>
      </trkpt>
      <trkpt lat="43.63617" lon="3.71166">
        <ele>152.8</ele>
        <time>2021-02-07T14:22:18Z</time>
      </trkpt>
      <trkpt lat="43.63618" lon="3.7117">
        <ele>152.8</ele>
        <time>2021-02-07T14:22:19Z</time>
      </trkpt>
      <trkpt lat="43.63619" lon="3.71174">
        <ele>155</ele>
        <time>2021-02-07T14:22:20Z</time>
      </trkpt>
      <trkpt lat="43.6362" lon="3.71179">
        <ele>152.7</ele>
        <time>2021-02-07T14:22:21Z</time>
      </trkpt>
      <trkpt lat="43.6362" lon="3.71183">
        <ele>152.7</ele>
        <time>2021-02-07T14:22:22Z</time>
      </trkpt>
      <trkpt lat="43.63621" lon="3.71186">
        <ele>152.6</ele>
        <time>2021-02-07T14:22:23Z</time>
      </trkpt>
      <trkpt lat="43.63622" lon="3.7119">
        <ele>152.6</ele>
        <time>2021-02-07T14:22:24Z</time>
      </trkpt>
      <trkpt lat="43.63623" lon="3.71194">
        <ele>152.6</ele>
        <time>2021-02-07T14:22:25Z</time>
      </trkpt>
      <trkpt lat="43.63624" lon="3.71198">
        <ele>152.5</ele>
        <time>2021-02-07T14:22:26Z</time>
      </trkpt>
      <trkpt lat="43.63625" lon="3.71202">
        <ele>152.4</ele>
        <time>2021-02-07T14:22:27Z</time>
      </trkpt>
      <trkpt lat="43.63627" lon="3.71206">
        <ele>152.2</ele>
        <time>2021-02-07T14:22:28Z</time>
      </trkpt>
      <trkpt lat="43.63628" lon="3.71209">
        <ele>152.2</ele>
        <time>2021-02-07T14:22:29Z</time>
      </trkpt>
      <trkpt lat="43.6363" lon="3.71213">
        <ele>155</ele>
        <time>2021-02-07T14:22:30Z</time>
      </trkpt>
      <trkpt lat="43.63632" lon="3.71217">
        <ele>152</ele>
        <time>2021-02-07T14:22:31Z</time>
      </trkpt>
      <trkpt lat="43.63633" lon="3.7122">
        <ele>152</ele>
        <time>2021-02-07T14:22:32Z</time>
      </trkpt>
      <trkpt lat="43.63635" lon="3.71224">
        <ele>151.9</ele>
        <time>2021-02-07T14:22:33Z</time>
      </trkpt>
      <trkpt lat="43.63637" lon="3.71228">
        <ele>151.8</ele>
        <time>2021-02-07T14:22:34Z</time>
      </trkpt>
      <trkpt lat="43.63638" lon="3.71232">
        <ele>151.6</ele>
        <time>2021-02-07T14:22:35Z</time>
      </trkpt>
      <trkpt lat="43.6364" lon="3.71236">
        <ele>151.4</ele>
        <time>2021-02-07T14:22:36Z</time>
      </trkpt>
      <trkpt lat="43.63642" lon="3.71239">
        <ele>151.3</ele>
        <time>2021-02-07T14:22:37Z</time>
      </trkpt>
      <trkpt lat="43.63643" lon="3.71243">
        <ele>151.1</ele>
        <time>2021-02-07T14:22:38Z</time>
      </trkpt>
      <trkpt lat="43.63645" lon="3.71247">
        <ele>151</ele>
        <time>2021-02-07T14:22:39Z</time>
      </trkpt>
      <trkpt lat="43.63647" lon="3.71251">
        <ele>154</ele>
        <time>2021-02-07T14:22:40Z</time>
      </trkpt>
      <trkpt lat="43.63648" lon="3.71255">
        <ele>150.9</ele>
        <time>2021-02-07T14:22:41Z</time>
      </trkpt>
      <trkpt lat="43.63649" lon="3.71259">
        <ele>150.8</ele>
        <time>2021-02-07T14:22:42Z</time>
      </trkpt>
      <trkpt lat="43.63651" lon="3.71263">
        <ele>150.7</ele>
        <time>2021-02-07T14:22:43Z</time>
      </trkpt>
      <trkpt lat="43.63653" lon="3.71267">
        <ele>150.7</ele>
        <time>2021-02-07T14:22:44Z</time>
      </trkpt>
      <trkpt lat="43.63654" lon="3.71271">
        <ele>150.7</ele>
        <time>2021-02-07T14:22:45Z</time>
      </trkpt>
      <trkpt lat="43.63656" lon="3.71274">
        <ele>150.7</ele>
        <time>2021-02-07T14:22:46Z</time>
      </trkpt>
      <trkpt lat="43.63657" lon="3.71278">
        <ele>150.6</ele>
        <time>2021-02-07T14:22:47Z</time>
      </trkpt>
      <trkpt lat="43.63659" lon="3.71281">
        <ele>150.6</ele>
        <time>2021-02-07T14:22:48Z</time>
      </trkpt>
      <trkpt lat="43.6366" lon="3.71285">
        <ele>150.5</ele>
        <time>2021-02-07T14:22:49Z</time>
      </trkpt>
      <trkpt lat="43.63661" lon="3.71289">
        <ele>153</ele>
        <time>2021-02-07T14:22:50Z</time>
      </trkpt>
      <trkpt lat="43.63663" lon="3.71293">
        <ele>150.3</ele>
        <time>2021-02-07T14:22:51Z</time>
      </trkpt>
      <trkpt lat="43.63664" lon="3.71297">
        <ele>150.2</ele>
        <time>2021-02-07T14:22:52Z</time>
      </trkpt>
      <trkpt lat="43.63666" lon="3.71301">
        <ele>150.1</ele>
        <time>2021-02-07T14:22:53Z</time>
      </trkpt>
      <trkpt lat="43.63668" lon="3.71305">
        <ele>150.1</ele>
        <time>2021-02-07T14:22:54Z</time>
      </trkpt>
      <trkpt lat="43.6367" lon="3.71309">
        <ele>149.9</ele>
        <time>2021-02-07T14:22:55Z</time>
      </trkpt>
      <trkpt lat="43.63673" lon="3.71312">
        <ele>149.8</ele>
        <time>2021-02-07T14:22:56Z</time>
      </trkpt>
      <trkpt lat="43.63676" lon="3.71315">
        <ele>149.7</ele>
        <time>2021-02-07T14:22:57Z</time>
      </trkpt>
      <trkpt lat="43.63679" lon="3.71318">
        <ele>149.5</ele>
        <time>2021-02-07T14:22:58Z</time>
      </trkpt>
      <trkpt lat="43.63682" lon="3.71321">
        <ele>149.4</ele>
        <time>2021-02-07T14:22:59Z</time>
      </trkpt>
      <trkpt lat="43.63685" lon="3.71324">
        <ele>152</ele>
        <time>2021-02-07T14:23:00Z</time>
      </trkpt>
      <trkpt lat="43.63687" lon="3.71327">
        <ele>149.2</ele>
        <time>2021-02-07T14:23:01Z</time>
      </trkpt>
      <trkpt lat="43.6369" lon="3.7133">
        <ele>149.1</ele>
        <time>2021-02-07T14:23:02Z</time>
      </trkpt>
      <trkpt lat="43.63692" lon="3.71333">
        <ele>148.9</ele>
        <time>2021-02-07T14:23:03Z</time>
      </trkpt>
      <trkpt lat="43.63693" lon="3.71337">
        <ele>148.8</ele>
        <time>2021-02-07T14:23:04Z</time>
      </trkpt>
      <trkpt lat="43.63693" lon="3.71341">
        <ele>148.7</ele>
        <time>2021-02-07T14:23:05Z</time>
      </trkpt>
      <trkpt lat="43.63694" lon="3.71346">
        <ele>148.5</ele>
        <time>2021-02-07T14:23:06Z</time>
      </trkpt>
      <trkpt lat="43.63695" lon="3.7135">
        <ele>148.4</ele>
        <time>2021-02-07T14:23:07Z</time>
      </trkpt>
      <trkpt lat="43.63695" lon="3.71355">
        <ele>148.2</ele>
        <time>2021-02-07T14:23:08Z</time>
      </trkpt>
      <trkpt lat="43.63695" lon="3.7136">
        <ele>148</ele>
        <time>2021-02-07T14:23:09Z</time>
      </trkpt>
      <trkpt lat="43.63696" lon="3.71365">
        <ele>150</ele>
        <time>2021-02-07T14:23:10Z</time>
      </trkpt>
      <trkpt lat="43.63698" lon="3.7137">
        <ele>147.3</ele>
        <time>2021-02-07T14:23:11Z</time>
      </trkpt>
      <trkpt lat="43.637" lon="3.71375">
        <ele>146.9</ele>
        <time>2021-02-07T14:23:12Z</time>
      </trkpt>
      <trkpt lat="43.63702" lon="3.71379">
        <ele>146.6</ele>
        <time>2021-02-07T14:23:13Z</time>
      </trkpt>
      <trkpt lat="43.63704" lon="3.71381">
        <ele>146.5</ele>
        <time>2021-02-07T14:23:18Z</time>
      </trkpt>
      <trkpt lat="43.63705" lon="3.71386">
        <ele>150</ele>
        <time>2021-02-07T14:23:20Z</time>
      </trkpt>
      <trkpt lat="43.63706" lon="3.71388">
        <ele>146.1</ele>
        <time>2021-02-07T14:23:21Z</time>
      </trkpt>
      <trkpt lat="43.63706" lon="3.71391">
        <ele>146</ele>
        <time>2021-02-07T14:23:22Z</time>
      </trkpt>
      <trkpt lat="43.63705" lon="3.71394">
        <ele>145.9</ele>
        <time>2021-02-07T14:23:23Z</time>
      </trkpt>
      <trkpt lat="43.63703" lon="3.71396">
        <ele>145.9</ele>
        <time>2021-02-07T14:23:24Z</time>
      </trkpt>
      <trkpt lat="43.63701" lon="3.71397">
        <ele>145.9</ele>
        <time>2021-02-07T14:23:25Z</time>
      </trkpt>
      <trkpt lat="43.63698" lon="3.71398">
        <ele>146</ele>
        <time>2021-02-07T14:23:26Z</time>
      </trkpt>
      <trkpt lat="43.63697" lon="3.71398">
        <ele>146</ele>
        <time>2021-02-07T14:23:27Z</time>
      </trkpt>
      <trkpt lat="43.63694" lon="3.71401">
        <ele>146</ele>
        <time>2021-02-07T14:23:29Z</time>
      </trkpt>
      <trkpt lat="43.63692" lon="3.71404">
        <ele>146</ele>
        <time>2021-02-07T14:23:31Z</time>
      </trkpt>
      <trkpt lat="43.63691" lon="3.71407">
        <ele>146</ele>
        <time>2021-02-07T14:23:33Z</time>
      </trkpt>
      <trkpt lat="43.6369" lon="3.7141">
        <ele>146</ele>
        <time>2021-02-07T14:23:35Z</time>
      </trkpt>
      <trkpt lat="43.63688" lon="3.71413">
        <ele>146</ele>
        <time>2021-02-07T14:23:37Z</time>
      </trkpt>
      <trkpt lat="43.63686" lon="3.71414">
        <ele>146</ele>
        <time>2021-02-07T14:23:39Z</time>
      </trkpt>
      <trkpt lat="43.63684" lon="3.71417">
        <ele>146</ele>
        <time>2021-02-07T14:23:41Z</time>
      </trkpt>
      <trkpt lat="43.63682" lon="3.7142">
        <ele>145.9</ele>
        <time>2021-02-07T14:23:43Z</time>
      </trkpt>
      <trkpt lat="43.6368" lon="3.71423">
        <ele>145.9</ele>
        <time>2021-02-07T14:23:45Z</time>
      </trkpt>
      <trkpt lat="43.63679" lon="3.71426">
        <ele>145.9</ele>
        <time>2021-02-07T14:23:46Z</time>
      </trkpt>
      <trkpt lat="43.63678" lon="3.71428">
        <ele>145.8</ele>
        <time>2021-02-07T14:23:47Z</time>
      </trkpt>
      <trkpt lat="43.63676" lon="3.71431">
        <ele>145.8</ele>
        <time>2021-02-07T14:23:48Z</time>
      </trkpt>
      <trkpt lat="43.63675" lon="3.71434">
        <ele>145.8</ele>
        <time>2021-02-07T14:23:49Z</time>
      </trkpt>
      <trkpt lat="43.63673" lon="3.71438">
        <ele>147</ele>
        <time>2021-02-07T14:23:50Z</time>
      </trkpt>
      <trkpt lat="43.63671" lon="3.71441">
        <ele>145.9</ele>
        <time>2021-02-07T14:23:51Z</time>
      </trkpt>
      <trkpt lat="43.63668" lon="3.71445">
        <ele>146</ele>
        <time>2021-02-07T14:23:52Z</time>
      </trkpt>
      <trkpt lat="43.63665" lon="3.71448">
        <ele>146.1</ele>
        <time>2021-02-07T14:23:53Z</time>
      </trkpt>
      <trkpt lat="43.63662" lon="3.71451">
        <ele>146.3</ele>
        <time>2021-02-07T14:23:54Z</time>
      </trkpt>
      <trkpt lat="43.63659" lon="3.71454">
        <ele>146.5</ele>
        <time>2021-02-07T14:23:55Z</time>
      </trkpt>
      <trkpt lat="43.63656" lon="3.71458">
        <ele>146.6</ele>
        <time>2021-02-07T14:23:56Z</time>
      </trkpt>
      <trkpt lat="43.63654" lon="3.71462">
        <ele>146.6</ele>
        <time>2021-02-07T14:23:57Z</time>
      </trkpt>
      <trkpt lat="43.63651" lon="3.71466">
        <ele>146.7</ele>
        <time>2021-02-07T14:23:58Z</time>
      </trkpt>
      <trkpt lat="43.63648" lon="3.71469">
        <ele>146.7</ele>
        <time>2021-02-07T14:23:59Z</time>
      </trkpt>
      <trkpt lat="43.63646" lon="3.71472">
        <ele>147</ele>
        <time>2021-02-07T14:24:00Z</time>
      </trkpt>
      <trkpt lat="43.63644" lon="3.71475">
        <ele>146.9</ele>
        <time>2021-02-07T14:24:01Z</time>
      </trkpt>
      <trkpt lat="43.63643" lon="3.71476">
        <ele>147</ele>
        <time>2021-02-07T14:24:02Z</time>
      </trkpt>
      <trkpt lat="43.63641" lon="3.71481">
        <ele>147.2</ele>
        <time>2021-02-07T14:24:04Z</time>
      </trkpt>
      <trkpt lat="43.63639" lon="3.71484">
        <ele>147.4</ele>
        <time>2021-02-07T14:24:05Z</time>
      </trkpt>
      <trkpt lat="43.63637" lon="3.71488">
        <ele>147.7</ele>
        <time>2021-02-07T14:24:06Z</time>
      </trkpt>
      <trkpt lat="43.63635" lon="3.71491">
        <ele>147.9</ele>
        <time>2021-02-07T14:24:07Z</time>
      </trkpt>
      <trkpt lat="43.63633" lon="3.71495">
        <ele>148.1</ele>
        <time>2021-02-07T14:24:08Z</time>
      </trkpt>
      <trkpt lat="43.63631" lon="3.71498">
        <ele>148.2</ele>
        <time>2021-02-07T14:24:09Z</time>
      </trkpt>
      <trkpt lat="43.6363" lon="3.71502">
        <ele>147</ele>
        <time>2021-02-07T14:24:10Z</time>
      </trkpt>
      <trkpt lat="43.63628" lon="3.71506">
        <ele>148.4</ele>
        <time>2021-02-07T14:24:11Z</time>
      </trkpt>
      <trkpt lat="43.63625" lon="3.7151">
        <ele>148.5</ele>
        <time>2021-02-07T14:24:12Z</time>
      </trkpt>
      <trkpt lat="43.63623" lon="3.71515">
        <ele>148.6</ele>
        <time>2021-02-07T14:24:13Z</time>
      </trkpt>
      <trkpt lat="43.63621" lon="3.7152">
        <ele>148.6</ele>
        <time>2021-02-07T14:24:14Z</time>
      </trkpt>
      <trkpt lat="43.63619" lon="3.71526">
        <ele>148.7</ele>
        <time>2021-02-07T14:24:15Z</time>
      </trkpt>
      <trkpt lat="43.63616" lon="3.71531">
        <ele>148.9</ele>
        <time>2021-02-07T14:24:16Z</time>
      </trkpt>
      <trkpt lat="43.63613" lon="3.71535">
        <ele>149.2</ele>
        <time>2021-02-07T14:24:17Z</time>
      </trkpt>
      <trkpt lat="43.63611" lon="3.71539">
        <ele>149.4</ele>
        <time>2021-02-07T14:24:18Z</time>
      </trkpt>
      <trkpt lat="43.63608" lon="3.71542">
        <ele>149.5</ele>
        <time>2021-02-07T14:24:19Z</time>
      </trkpt>
      <trkpt lat="43.63606" lon="3.71546">
        <ele>149.7</ele>
        <time>2021-02-07T14:24:20Z</time>
      </trkpt>
      <trkpt lat="43.63604" lon="3.71549">
        <ele>148</ele>
        <time>2021-02-07T14:24:21Z</time>
      </trkpt>
      <trkpt lat="43.63602" lon="3.71553">
        <ele>149.9</ele>
        <time>2021-02-07T14:24:22Z</time>
      </trkpt>
      <trkpt lat="43.63599" lon="3.71557">
        <ele>150</ele>
        <time>2021-02-07T14:24:23Z</time>
      </trkpt>
      <trkpt lat="43.63597" lon="3.7156">
        <ele>150.1</ele>
        <time>2021-02-07T14:24:24Z</time>
      </trkpt>
      <trkpt lat="43.63595" lon="3.71564">
        <ele>150.2</ele>
        <time>2021-02-07T14:24:25Z</time>
      </trkpt>
      <trkpt lat="43.63593" lon="3.71567">
        <ele>150.3</ele>
        <time>2021-02-07T14:24:26Z</time>
      </trkpt>
      <trkpt lat="43.63591" lon="3.71571">
        <ele>150.4</ele>
        <time>2021-02-07T14:24:27Z</time>
      </trkpt>
      <trkpt lat="43.63589" lon="3.71574">
        <ele>150.5</ele>
        <time>2021-02-07T14:24:28Z</time>
      </trkpt>
      <trkpt lat="43.63587" lon="3.71578">
        <ele>150.7</ele>
        <time>2021-02-07T14:24:29Z</time>
      </trkpt>
      <trkpt lat="43.63585" lon="3.71581">
        <ele>149</ele>
        <time>2021-02-07T14:24:30Z</time>
      </trkpt>
      <trkpt lat="43.63583" lon="3.71585">
        <ele>151</ele>
        <time>2021-02-07T14:24:31Z</time>
      </trkpt>
      <trkpt lat="43.63581" lon="3.71589">
        <ele>150.9</ele>
        <time>2021-02-07T14:24:32Z</time>
      </trkpt>
      <trkpt lat="43.6358" lon="3.71593">
        <ele>150.9</ele>
        <time>2021-02-07T14:24:33Z</time>
      </trkpt>
      <trkpt lat="43.63579" lon="3.71597">
        <ele>150.8</ele>
        <time>2021-02-07T14:24:34Z</time>
      </trkpt>
      <trkpt lat="43.63577" lon="3.716">
        <ele>150.8</ele>
        <time>2021-02-07T14:24:35Z</time>
      </trkpt>
      <trkpt lat="43.63576" lon="3.71604">
        <ele>150.7</ele>
        <time>2021-02-07T14:24:36Z</time>
      </trkpt>
      <trkpt lat="43.63575" lon="3.71608">
        <ele>150.7</ele>
        <time>2021-02-07T14:24:37Z</time>
      </trkpt>
      <trkpt lat="43.63573" lon="3.71612">
        <ele>150.7</ele>
        <time>2021-02-07T14:24:38Z</time>
      </trkpt>
      <trkpt lat="43.63572" lon="3.71616">
        <ele>150.8</ele>
        <time>2021-02-07T14:24:39Z</time>
      </trkpt>
      <trkpt lat="43.63571" lon="3.71621">
        <ele>150.9</ele>
        <time>2021-02-07T14:24:40Z</time>
      </trkpt>
      <trkpt lat="43.6357" lon="3.71625">
        <ele>150</ele>
        <time>2021-02-07T14:24:41Z</time>
      </trkpt>
      <trkpt lat="43.63568" lon="3.71629">
        <ele>151.1</ele>
        <time>2021-02-07T14:24:42Z</time>
      </trkpt>
      <trkpt lat="43.63567" lon="3.71633">
        <ele>151.2</ele>
        <time>2021-02-07T14:24:43Z</time>
      </trkpt>
      <trkpt lat="43.63566" lon="3.71638">
        <ele>151.3</ele>
        <time>2021-02-07T14:24:44Z</time>
      </trkpt>
      <trkpt lat="43.63564" lon="3.71642">
        <ele>151.3</ele>
        <time>2021-02-07T14:24:45Z</time>
      </trkpt>
      <trkpt lat="43.63563" lon="3.71647">
        <ele>151.2</ele>
        <time>2021-02-07T14:24:46Z</time>
      </trkpt>
      <trkpt lat="43.63562" lon="3.71652">
        <ele>151.1</ele>
        <time>2021-02-07T14:24:47Z</time>
      </trkpt>
      <trkpt lat="43.63561" lon="3.71656">
        <ele>151.1</ele>
        <time>2021-02-07T14:24:48Z</time>
      </trkpt>
      <trkpt lat="43.63559" lon="3.71661">
        <ele>151</ele>
        <time>2021-02-07T14:24:49Z</time>
      </trkpt>
      <trkpt lat="43.63558" lon="3.71665">
        <ele>151</ele>
        <time>2021-02-07T14:24:50Z</time>
      </trkpt>
      <trkpt lat="43.63557" lon="3.7167">
        <ele>150</ele>
        <time>2021-02-07T14:24:51Z</time>
      </trkpt>
      <trkpt lat="43.63556" lon="3.71675">
        <ele>150.7</ele>
        <time>2021-02-07T14:24:52Z</time>
      </trkpt>
      <trkpt lat="43.63555" lon="3.71679">
        <ele>150.6</ele>
        <time>2021-02-07T14:24:53Z</time>
      </trkpt>
      <trkpt lat="43.63554" lon="3.71684">
        <ele>150.4</ele>
        <time>2021-02-07T14:24:54Z</time>
      </trkpt>
      <trkpt lat="43.63553" lon="3.71688">
        <ele>150.3</ele>
        <time>2021-02-07T14:24:55Z</time>
      </trkpt>
      <trkpt lat="43.63552" lon="3.71693">
        <ele>150.2</ele>
        <time>2021-02-07T14:24:56Z</time>
      </trkpt>
      <trkpt lat="43.63551" lon="3.71697">
        <ele>150.1</ele>
        <time>2021-02-07T14:24:57Z</time>
      </trkpt>
      <trkpt lat="43.6355" lon="3.71701">
        <ele>150</ele>
        <time>2021-02-07T14:24:58Z</time>
      </trkpt>
      <trkpt lat="43.63549" lon="3.71705">
        <ele>149.9</ele>
        <time>2021-02-07T14:24:59Z</time>
      </trkpt>
      <trkpt lat="43.63548" lon="3.71708">
        <ele>150</ele>
        <time>2021-02-07T14:25:00Z</time>
      </trkpt>
      <trkpt lat="43.63547" lon="3.71712">
        <ele>149.9</ele>
        <time>2021-02-07T14:25:01Z</time>
      </trkpt>
      <trkpt lat="43.63546" lon="3.71715">
        <ele>149.9</ele>
        <time>2021-02-07T14:25:02Z</time>
      </trkpt>
      <trkpt lat="43.63546" lon="3.71719">
        <ele>149.8</ele>
        <time>2021-02-07T14:25:03Z</time>
      </trkpt>
      <trkpt lat="43.63545" lon="3.71721">
        <ele>149.8</ele>
        <time>2021-02-07T14:25:04Z</time>
      </trkpt>
      <trkpt lat="43.63545" lon="3.71724">
        <ele>149.9</ele>
        <time>2021-02-07T14:25:05Z</time>
      </trkpt>
      <trkpt lat="43.63547" lon="3.71728">
        <ele>150</ele>
        <time>2021-02-07T14:25:07Z</time>
      </trkpt>
      <trkpt lat="43.63549" lon="3.71729">
        <ele>149.9</ele>
        <time>2021-02-07T14:25:08Z</time>
      </trkpt>
      <trkpt lat="43.63552" lon="3.7173">
        <ele>149.8</ele>
        <time>2021-02-07T14:25:09Z</time>
      </trkpt>
      <trkpt lat="43.63556" lon="3.71732">
        <ele>150</ele>
        <time>2021-02-07T14:25:10Z</time>
      </trkpt>
      <trkpt lat="43.63559" lon="3.71734">
        <ele>149.6</ele>
        <time>2021-02-07T14:25:11Z</time>
      </trkpt>
      <trkpt lat="43.63563" lon="3.71736">
        <ele>149.3</ele>
        <time>2021-02-07T14:25:12Z</time>
      </trkpt>
      <trkpt lat="43.63567" lon="3.71738">
        <ele>149</ele>
        <time>2021-02-07T14:25:13Z</time>
      </trkpt>
      <trkpt lat="43.63571" lon="3.71741">
        <ele>148.7</ele>
        <time>2021-02-07T14:25:14Z</time>
      </trkpt>
      <trkpt lat="43.63575" lon="3.71744">
        <ele>148.2</ele>
        <time>2021-02-07T14:25:15Z</time>
      </trkpt>
      <trkpt lat="43.63578" lon="3.71748">
        <ele>147.8</ele>
        <time>2021-02-07T14:25:16Z</time>
      </trkpt>
      <trkpt lat="43.63582" lon="3.7175">
        <ele>147.2</ele>
        <time>2021-02-07T14:25:17Z</time>
      </trkpt>
      <trkpt lat="43.63586" lon="3.71752">
        <ele>146.9</ele>
        <time>2021-02-07T14:25:18Z</time>
      </trkpt>
      <trkpt lat="43.63591" lon="3.71754">
        <ele>146.6</ele>
        <time>2021-02-07T14:25:19Z</time>
      </trkpt>
      <trkpt lat="43.63595" lon="3.71757">
        <ele>146.4</ele>
        <time>2021-02-07T14:25:20Z</time>
      </trkpt>
      <trkpt lat="43.636" lon="3.71759">
        <ele>149</ele>
        <time>2021-02-07T14:25:21Z</time>
      </trkpt>
      <trkpt lat="43.63604" lon="3.7176">
        <ele>145.9</ele>
        <time>2021-02-07T14:25:22Z</time>
      </trkpt>
      <trkpt lat="43.63608" lon="3.71762">
        <ele>145.7</ele>
        <time>2021-02-07T14:25:23Z</time>
      </trkpt>
      <trkpt lat="43.63612" lon="3.71764">
        <ele>145.5</ele>
        <time>2021-02-07T14:25:24Z</time>
      </trkpt>
      <trkpt lat="43.63616" lon="3.71767">
        <ele>145.5</ele>
        <time>2021-02-07T14:25:25Z</time>
      </trkpt>
      <trkpt lat="43.6362" lon="3.7177">
        <ele>145.3</ele>
        <time>2021-02-07T14:25:26Z</time>
      </trkpt>
      <trkpt lat="43.63624" lon="3.71773">
        <ele>145.1</ele>
        <time>2021-02-07T14:25:27Z</time>
      </trkpt>
      <trkpt lat="43.63628" lon="3.71776">
        <ele>144.8</ele>
        <time>2021-02-07T14:25:28Z</time>
      </trkpt>
      <trkpt lat="43.63633" lon="3.71778">
        <ele>144.4</ele>
        <time>2021-02-07T14:25:29Z</time>
      </trkpt>
      <trkpt lat="43.63638" lon="3.7178">
        <ele>148</ele>
        <time>2021-02-07T14:25:30Z</time>
      </trkpt>
      <trkpt lat="43.63643" lon="3.71782">
        <ele>144</ele>
        <time>2021-02-07T14:25:31Z</time>
      </trkpt>
      <trkpt lat="43.63648" lon="3.71786">
        <ele>144</ele>
        <time>2021-02-07T14:25:32Z</time>
      </trkpt>
      <trkpt lat="43.63652" lon="3.7179">
        <ele>144</ele>
        <time>2021-02-07T14:25:33Z</time>
      </trkpt>
      <trkpt lat="43.63654" lon="3.71795">
        <ele>144.1</ele>
        <time>2021-02-07T14:25:34Z</time>
      </trkpt>
      <trkpt lat="43.63655" lon="3.71798">
        <ele>144.1</ele>
        <time>2021-02-07T14:25:35Z</time>
      </trkpt>
      <trkpt lat="43.63655" lon="3.718">
        <ele>144.2</ele>
        <time>2021-02-07T14:25:36Z</time>
      </trkpt>
      <trkpt lat="43.63654" lon="3.71803">
        <ele>144.4</ele>
        <time>2021-02-07T14:25:37Z</time>
      </trkpt>
      <trkpt lat="43.63652" lon="3.71806">
        <ele>144.6</ele>
        <time>2021-02-07T14:25:38Z</time>
      </trkpt>
      <trkpt lat="43.63649" lon="3.71808">
        <ele>144.8</ele>
        <time>2021-02-07T14:25:39Z</time>
      </trkpt>
      <trkpt lat="43.63646" lon="3.71809">
        <ele>147</ele>
        <time>2021-02-07T14:25:40Z</time>
      </trkpt>
      <trkpt lat="43.63644" lon="3.71812">
        <ele>145.1</ele>
        <time>2021-02-07T14:25:41Z</time>
      </trkpt>
      <trkpt lat="43.63644" lon="3.71815">
        <ele>145.3</ele>
        <time>2021-02-07T14:25:42Z</time>
      </trkpt>
      <trkpt lat="43.63645" lon="3.7182">
        <ele>145.5</ele>
        <time>2021-02-07T14:25:43Z</time>
      </trkpt>
      <trkpt lat="43.63645" lon="3.71824">
        <ele>145.7</ele>
        <time>2021-02-07T14:25:44Z</time>
      </trkpt>
      <trkpt lat="43.63645" lon="3.71829">
        <ele>146</ele>
        <time>2021-02-07T14:25:45Z</time>
      </trkpt>
      <trkpt lat="43.63644" lon="3.71833">
        <ele>146.2</ele>
        <time>2021-02-07T14:25:46Z</time>
      </trkpt>
      <trkpt lat="43.63642" lon="3.71837">
        <ele>146.4</ele>
        <time>2021-02-07T14:25:47Z</time>
      </trkpt>
      <trkpt lat="43.63641" lon="3.71841">
        <ele>146.6</ele>
        <time>2021-02-07T14:25:48Z</time>
      </trkpt>
      <trkpt lat="43.63641" lon="3.71846">
        <ele>147</ele>
        <time>2021-02-07T14:25:49Z</time>
      </trkpt>
      <trkpt lat="43.63641" lon="3.7185">
        <ele>148</ele>
        <time>2021-02-07T14:25:50Z</time>
      </trkpt>
      <trkpt lat="43.63641" lon="3.71854">
        <ele>147.6</ele>
        <time>2021-02-07T14:25:51Z</time>
      </trkpt>
      <trkpt lat="43.63641" lon="3.71857">
        <ele>147.8</ele>
        <time>2021-02-07T14:25:52Z</time>
      </trkpt>
      <trkpt lat="43.63642" lon="3.71861">
        <ele>148.1</ele>
        <time>2021-02-07T14:25:53Z</time>
      </trkpt>
      <trkpt lat="43.63643" lon="3.71864">
        <ele>148.3</ele>
        <time>2021-02-07T14:25:54Z</time>
      </trkpt>
      <trkpt lat="43.63645" lon="3.71867">
        <ele>148.6</ele>
        <time>2021-02-07T14:25:55Z</time>
      </trkpt>
      <trkpt lat="43.63647" lon="3.7187">
        <ele>148.7</ele>
        <time>2021-02-07T14:25:56Z</time>
      </trkpt>
      <trkpt lat="43.63649" lon="3.71873">
        <ele>148.9</ele>
        <time>2021-02-07T14:25:57Z</time>
      </trkpt>
      <trkpt lat="43.63651" lon="3.71876">
        <ele>149</ele>
        <time>2021-02-07T14:25:58Z</time>
      </trkpt>
      <trkpt lat="43.63653" lon="3.71879">
        <ele>149.1</ele>
        <time>2021-02-07T14:25:59Z</time>
      </trkpt>
      <trkpt lat="43.63654" lon="3.71883">
        <ele>149</ele>
        <time>2021-02-07T14:26:00Z</time>
      </trkpt>
      <trkpt lat="43.63655" lon="3.71886">
        <ele>149.3</ele>
        <time>2021-02-07T14:26:01Z</time>
      </trkpt>
      <trkpt lat="43.63655" lon="3.7189">
        <ele>149.5</ele>
        <time>2021-02-07T14:26:02Z</time>
      </trkpt>
      <trkpt lat="43.63654" lon="3.71893">
        <ele>149.6</ele>
        <time>2021-02-07T14:26:03Z</time>
      </trkpt>
      <trkpt lat="43.63654" lon="3.71896">
        <ele>149.7</ele>
        <time>2021-02-07T14:26:04Z</time>
      </trkpt>
      <trkpt lat="43.63654" lon="3.71899">
        <ele>149.8</ele>
        <time>2021-02-07T14:26:05Z</time>
      </trkpt>
      <trkpt lat="43.63654" lon="3.71902">
        <ele>149.9</ele>
        <time>2021-02-07T14:26:06Z</time>
      </trkpt>
      <trkpt lat="43.63655" lon="3.71905">
        <ele>150</ele>
        <time>2021-02-07T14:26:07Z</time>
      </trkpt>
      <trkpt lat="43.63655" lon="3.71908">
        <ele>150.1</ele>
        <time>2021-02-07T14:26:08Z</time>
      </trkpt>
      <trkpt lat="43.63655" lon="3.71912">
        <ele>150.3</ele>
        <time>2021-02-07T14:26:09Z</time>
      </trkpt>
      <trkpt lat="43.63655" lon="3.71915">
        <ele>150</ele>
        <time>2021-02-07T14:26:10Z</time>
      </trkpt>
      <trkpt lat="43.63655" lon="3.71919">
        <ele>150.5</ele>
        <time>2021-02-07T14:26:11Z</time>
      </trkpt>
      <trkpt lat="43.63654" lon="3.71922">
        <ele>150.6</ele>
        <time>2021-02-07T14:26:12Z</time>
      </trkpt>
      <trkpt lat="43.63653" lon="3.71925">
        <ele>150.8</ele>
        <time>2021-02-07T14:26:13Z</time>
      </trkpt>
      <trkpt lat="43.63652" lon="3.71928">
        <ele>150.9</ele>
        <time>2021-02-07T14:26:14Z</time>
      </trkpt>
      <trkpt lat="43.6365" lon="3.71931">
        <ele>151.1</ele>
        <time>2021-02-07T14:26:15Z</time>
      </trkpt>
      <trkpt lat="43.63649" lon="3.71933">
        <ele>151.2</ele>
        <time>2021-02-07T14:26:16Z</time>
      </trkpt>
      <trkpt lat="43.63647" lon="3.71936">
        <ele>151.4</ele>
        <time>2021-02-07T14:26:17Z</time>
      </trkpt>
      <trkpt lat="43.63646" lon="3.71938">
        <ele>151.5</ele>
        <time>2021-02-07T14:26:18Z</time>
      </trkpt>
      <trkpt lat="43.63645" lon="3.71941">
        <ele>151.7</ele>
        <time>2021-02-07T14:26:19Z</time>
      </trkpt>
      <trkpt lat="43.63644" lon="3.71944">
        <ele>151</ele>
        <time>2021-02-07T14:26:20Z</time>
      </trkpt>
      <trkpt lat="43.63644" lon="3.71947">
        <ele>151.9</ele>
        <time>2021-02-07T14:26:21Z</time>
      </trkpt>
      <trkpt lat="43.63645" lon="3.7195">
        <ele>152</ele>
        <time>2021-02-07T14:26:22Z</time>
      </trkpt>
      <trkpt lat="43.63647" lon="3.71953">
        <ele>152</ele>
        <time>2021-02-07T14:26:23Z</time>
      </trkpt>
      <trkpt lat="43.63648" lon="3.71956">
        <ele>152.1</ele>
        <time>2021-02-07T14:26:24Z</time>
      </trkpt>
      <trkpt lat="43.63648" lon="3.71959">
        <ele>152.2</ele>
        <time>2021-02-07T14:26:25Z</time>
      </trkpt>
      <trkpt lat="43.63649" lon="3.71963">
        <ele>152.3</ele>
        <time>2021-02-07T14:26:26Z</time>
      </trkpt>
      <trkpt lat="43.63648" lon="3.71966">
        <ele>152.4</ele>
        <time>2021-02-07T14:26:27Z</time>
      </trkpt>
      <trkpt lat="43.63647" lon="3.7197">
        <ele>152.6</ele>
        <time>2021-02-07T14:26:28Z</time>
      </trkpt>
      <trkpt lat="43.63646" lon="3.71973">
        <ele>152.8</ele>
        <time>2021-02-07T14:26:29Z</time>
      </trkpt>
      <trkpt lat="43.63645" lon="3.71976">
        <ele>152</ele>
        <time>2021-02-07T14:26:30Z</time>
      </trkpt>
      <trkpt lat="43.63644" lon="3.71979">
        <ele>153.1</ele>
        <time>2021-02-07T14:26:31Z</time>
      </trkpt>
      <trkpt lat="43.63643" lon="3.71982">
        <ele>153.2</ele>
        <time>2021-02-07T14:26:32Z</time>
      </trkpt>
      <trkpt lat="43.63642" lon="3.71985">
        <ele>153.3</ele>
        <time>2021-02-07T14:26:33Z</time>
      </trkpt>
      <trkpt lat="43.63641" lon="3.71989">
        <ele>153.5</ele>
        <time>2021-02-07T14:26:34Z</time>
      </trkpt>
      <trkpt lat="43.63641" lon="3.71992">
        <ele>153.6</ele>
        <time>2021-02-07T14:26:35Z</time>
      </trkpt>
      <trkpt lat="43.63641" lon="3.71995">
        <ele>153.7</ele>
        <time>2021-02-07T14:26:36Z</time>
      </trkpt>
      <trkpt lat="43.63641" lon="3.71998">
        <ele>153.9</ele>
        <time>2021-02-07T14:26:37Z</time>
      </trkpt>
      <trkpt lat="43.63641" lon="3.72002">
        <ele>154</ele>
        <time>2021-02-07T14:26:38Z</time>
      </trkpt>
      <trkpt lat="43.63641" lon="3.72005">
        <ele>154.1</ele>
        <time>2021-02-07T14:26:39Z</time>
      </trkpt>
      <trkpt lat="43.6364" lon="3.72008">
        <ele>153</ele>
        <time>2021-02-07T14:26:40Z</time>
      </trkpt>
      <trkpt lat="43.63639" lon="3.72012">
        <ele>154.4</ele>
        <time>2021-02-07T14:26:41Z</time>
      </trkpt>
      <trkpt lat="43.63638" lon="3.72015">
        <ele>154.6</ele>
        <time>2021-02-07T14:26:42Z</time>
      </trkpt>
      <trkpt lat="43.63637" lon="3.72018">
        <ele>154.8</ele>
        <time>2021-02-07T14:26:43Z</time>
      </trkpt>
      <trkpt lat="43.63637" lon="3.72021">
        <ele>154.9</ele>
        <time>2021-02-07T14:26:44Z</time>
      </trkpt>
      <trkpt lat="43.63637" lon="3.72024">
        <ele>155</ele>
        <time>2021-02-07T14:26:45Z</time>
      </trkpt>
      <trkpt lat="43.63637" lon="3.72028">
        <ele>155.1</ele>
        <time>2021-02-07T14:26:46Z</time>
      </trkpt>
      <trkpt lat="43.63636" lon="3.72031">
        <ele>155.3</ele>
        <time>2021-02-07T14:26:47Z</time>
      </trkpt>
      <trkpt lat="43.63634" lon="3.72034">
        <ele>155.5</ele>
        <time>2021-02-07T14:26:48Z</time>
      </trkpt>
      <trkpt lat="43.63632" lon="3.72036">
        <ele>155.7</ele>
        <time>2021-02-07T14:26:49Z</time>
      </trkpt>
      <trkpt lat="43.63631" lon="3.72039">
        <ele>154</ele>
        <time>2021-02-07T14:26:50Z</time>
      </trkpt>
      <trkpt lat="43.6363" lon="3.72041">
        <ele>156</ele>
        <time>2021-02-07T14:26:51Z</time>
      </trkpt>
      <trkpt lat="43.63629" lon="3.72044">
        <ele>156.1</ele>
        <time>2021-02-07T14:26:52Z</time>
      </trkpt>
      <trkpt lat="43.6363" lon="3.72046">
        <ele>156.1</ele>
        <time>2021-02-07T14:26:53Z</time>
      </trkpt>
      <trkpt lat="43.6363" lon="3.72049">
        <ele>156.2</ele>
        <time>2021-02-07T14:26:54Z</time>
      </trkpt>
      <trkpt lat="43.63631" lon="3.72052">
        <ele>156.2</ele>
        <time>2021-02-07T14:26:55Z</time>
      </trkpt>
      <trkpt lat="43.6363" lon="3.72056">
        <ele>156.3</ele>
        <time>2021-02-07T14:26:56Z</time>
      </trkpt>
      <trkpt lat="43.63629" lon="3.72058">
        <ele>156.5</ele>
        <time>2021-02-07T14:26:57Z</time>
      </trkpt>
      <trkpt lat="43.63628" lon="3.72061">
        <ele>156.7</ele>
        <time>2021-02-07T14:26:58Z</time>
      </trkpt>
      <trkpt lat="43.63627" lon="3.72063">
        <ele>156.8</ele>
        <time>2021-02-07T14:26:59Z</time>
      </trkpt>
      <trkpt lat="43.63625" lon="3.72065">
        <ele>155</ele>
        <time>2021-02-07T14:27:00Z</time>
      </trkpt>
      <trkpt lat="43.63623" lon="3.72066">
        <ele>157.1</ele>
        <time>2021-02-07T14:27:01Z</time>
      </trkpt>
      <trkpt lat="43.63621" lon="3.72067">
        <ele>157.2</ele>
        <time>2021-02-07T14:27:02Z</time>
      </trkpt>
      <trkpt lat="43.6362" lon="3.72069">
        <ele>157.3</ele>
        <time>2021-02-07T14:27:03Z</time>
      </trkpt>
      <trkpt lat="43.63618" lon="3.72071">
        <ele>157.4</ele>
        <time>2021-02-07T14:27:04Z</time>
      </trkpt>
      <trkpt lat="43.63616" lon="3.72073">
        <ele>157.6</ele>
        <time>2021-02-07T14:27:05Z</time>
      </trkpt>
      <trkpt lat="43.63614" lon="3.72073">
        <ele>157.6</ele>
        <time>2021-02-07T14:27:06Z</time>
      </trkpt>
      <trkpt lat="43.6361" lon="3.72072">
        <ele>157.6</ele>
        <time>2021-02-07T14:27:08Z</time>
      </trkpt>
      <trkpt lat="43.63608" lon="3.72073">
        <ele>156</ele>
        <time>2021-02-07T14:27:10Z</time>
      </trkpt>
      <trkpt lat="43.63605" lon="3.72074">
        <ele>157.8</ele>
        <time>2021-02-07T14:27:12Z</time>
      </trkpt>
      <trkpt lat="43.63602" lon="3.72075">
        <ele>157.9</ele>
        <time>2021-02-07T14:27:14Z</time>
      </trkpt>
      <trkpt lat="43.63599" lon="3.72077">
        <ele>158.1</ele>
        <time>2021-02-07T14:27:16Z</time>
      </trkpt>
      <trkpt lat="43.63597" lon="3.7208">
        <ele>158.3</ele>
        <time>2021-02-07T14:27:18Z</time>
      </trkpt>
      <trkpt lat="43.63597" lon="3.72084">
        <ele>157</ele>
        <time>2021-02-07T14:27:20Z</time>
      </trkpt>
      <trkpt lat="43.63597" lon="3.72089">
        <ele>158.7</ele>
        <time>2021-02-07T14:27:22Z</time>
      </trkpt>
      <trkpt lat="43.63597" lon="3.72091">
        <ele>158.8</ele>
        <time>2021-02-07T14:27:23Z</time>
      </trkpt>
      <trkpt lat="43.63597" lon="3.72094">
        <ele>158.9</ele>
        <time>2021-02-07T14:27:24Z</time>
      </trkpt>
      <trkpt lat="43.63597" lon="3.72096">
        <ele>159</ele>
        <time>2021-02-07T14:27:25Z</time>
      </trkpt>
      <trkpt lat="43.63597" lon="3.72099">
        <ele>159.1</ele>
        <time>2021-02-07T14:27:26Z</time>
      </trkpt>
      <trkpt lat="43.63596" lon="3.72102">
        <ele>159.2</ele>
        <time>2021-02-07T14:27:27Z</time>
      </trkpt>
      <trkpt lat="43.63595" lon="3.72105">
        <ele>159.4</ele>
        <time>2021-02-07T14:27:28Z</time>
      </trkpt>
      <trkpt lat="43.63594" lon="3.72107">
        <ele>159.5</ele>
        <time>2021-02-07T14:27:29Z</time>
      </trkpt>
      <trkpt lat="43.63592" lon="3.72108">
        <ele>159.6</ele>
        <time>2021-02-07T14:27:30Z</time>
      </trkpt>
      <trkpt lat="43.6359" lon="3.72109">
        <ele>158</ele>
        <time>2021-02-07T14:27:31Z</time>
      </trkpt>
      <trkpt lat="43.63589" lon="3.7211">
        <ele>159.8</ele>
        <time>2021-02-07T14:27:32Z</time>
      </trkpt>
      <trkpt lat="43.63587" lon="3.72114">
        <ele>159.9</ele>
        <time>2021-02-07T14:27:34Z</time>
      </trkpt>
      <trkpt lat="43.63585" lon="3.72119">
        <ele>160</ele>
        <time>2021-02-07T14:27:36Z</time>
      </trkpt>
      <trkpt lat="43.63584" lon="3.72121">
        <ele>160</ele>
        <time>2021-02-07T14:27:37Z</time>
      </trkpt>
      <trkpt lat="43.63583" lon="3.72123">
        <ele>160</ele>
        <time>2021-02-07T14:27:38Z</time>
      </trkpt>
      <trkpt lat="43.63582" lon="3.72125">
        <ele>160</ele>
        <time>2021-02-07T14:27:39Z</time>
      </trkpt>
      <trkpt lat="43.63579" lon="3.72128">
        <ele>159.9</ele>
        <time>2021-02-07T14:27:41Z</time>
      </trkpt>
      <trkpt lat="43.63576" lon="3.7213">
        <ele>159.9</ele>
        <time>2021-02-07T14:27:43Z</time>
      </trkpt>
      <trkpt lat="43.63574" lon="3.72131">
        <ele>159.9</ele>
        <time>2021-02-07T14:27:45Z</time>
      </trkpt>
      <trkpt lat="43.63572" lon="3.72134">
        <ele>159.9</ele>
        <time>2021-02-07T14:27:47Z</time>
      </trkpt>
      <trkpt lat="43.63574" lon="3.72136">
        <ele>160</ele>
        <time>2021-02-07T14:27:51Z</time>
      </trkpt>
      <trkpt lat="43.63576" lon="3.72136">
        <ele>160</ele>
        <time>2021-02-07T14:27:53Z</time>
      </trkpt>
      <trkpt lat="43.63578" lon="3.72139">
        <ele>160</ele>
        <time>2021-02-07T14:27:55Z</time>
      </trkpt>
      <trkpt lat="43.63576" lon="3.72141">
        <ele>160.1</ele>
        <time>2021-02-07T14:27:57Z</time>
      </trkpt>
      <trkpt lat="43.63574" lon="3.72142">
        <ele>160</ele>
        <time>2021-02-07T14:28:00Z</time>
      </trkpt>
      <trkpt lat="43.63576" lon="3.72145">
        <ele>160.2</ele>
        <time>2021-02-07T14:28:03Z</time>
      </trkpt>
      <trkpt lat="43.63577" lon="3.72142">
        <ele>160.1</ele>
        <time>2021-02-07T14:28:07Z</time>
      </trkpt>
      <trkpt lat="43.63576" lon="3.7214">
        <ele>160</ele>
        <time>2021-02-07T14:28:09Z</time>
      </trkpt>
      <trkpt lat="43.63575" lon="3.72137">
        <ele>160</ele>
        <time>2021-02-07T14:28:11Z</time>
      </trkpt>
      <trkpt lat="43.63573" lon="3.72136">
        <ele>160</ele>
        <time>2021-02-07T14:28:13Z</time>
      </trkpt>
      <trkpt lat="43.63572" lon="3.72134">
        <ele>159.9</ele>
        <time>2021-02-07T14:28:15Z</time>
      </trkpt>
      <trkpt lat="43.63578" lon="3.72128">
        <ele>160</ele>
        <time>2021-02-07T14:29:11Z</time>
      </trkpt>
      <trkpt lat="43.6358" lon="3.72126">
        <ele>159.9</ele>
        <time>2021-02-07T14:29:14Z</time>
      </trkpt>
      <trkpt lat="43.63581" lon="3.72123">
        <ele>160</ele>
        <time>2021-02-07T14:29:17Z</time>
      </trkpt>
      <trkpt lat="43.63582" lon="3.72121">
        <ele>160</ele>
        <time>2021-02-07T14:29:19Z</time>
      </trkpt>
      <trkpt lat="43.63584" lon="3.72117">
        <ele>160</ele>
        <time>2021-02-07T14:29:21Z</time>
      </trkpt>
      <trkpt lat="43.63585" lon="3.72114">
        <ele>159.9</ele>
        <time>2021-02-07T14:29:23Z</time>
      </trkpt>
      <trkpt lat="43.63586" lon="3.72112">
        <ele>159.9</ele>
        <time>2021-02-07T14:29:25Z</time>
      </trkpt>
      <trkpt lat="43.63587" lon="3.72109">
        <ele>159.8</ele>
        <time>2021-02-07T14:29:27Z</time>
      </trkpt>
      <trkpt lat="43.63588" lon="3.72107">
        <ele>159.7</ele>
        <time>2021-02-07T14:29:29Z</time>
      </trkpt>
      <trkpt lat="43.63591" lon="3.72106">
        <ele>159.5</ele>
        <time>2021-02-07T14:29:31Z</time>
      </trkpt>
      <trkpt lat="43.63594" lon="3.72105">
        <ele>159.4</ele>
        <time>2021-02-07T14:29:33Z</time>
      </trkpt>
      <trkpt lat="43.63596" lon="3.72102">
        <ele>159.2</ele>
        <time>2021-02-07T14:29:35Z</time>
      </trkpt>
      <trkpt lat="43.63598" lon="3.72097">
        <ele>159</ele>
        <time>2021-02-07T14:29:37Z</time>
      </trkpt>
      <trkpt lat="43.63598" lon="3.72093">
        <ele>158.8</ele>
        <time>2021-02-07T14:29:39Z</time>
      </trkpt>
      <trkpt lat="43.63598" lon="3.7209">
        <ele>160</ele>
        <time>2021-02-07T14:29:40Z</time>
      </trkpt>
      <trkpt lat="43.63597" lon="3.72087">
        <ele>158.6</ele>
        <time>2021-02-07T14:29:41Z</time>
      </trkpt>
      <trkpt lat="43.63596" lon="3.72084">
        <ele>158.6</ele>
        <time>2021-02-07T14:29:42Z</time>
      </trkpt>
      <trkpt lat="43.63596" lon="3.72082">
        <ele>158.5</ele>
        <time>2021-02-07T14:29:43Z</time>
      </trkpt>
      <trkpt lat="43.63596" lon="3.72079">
        <ele>158.3</ele>
        <time>2021-02-07T14:29:44Z</time>
      </trkpt>
      <trkpt lat="43.63597" lon="3.72076">
        <ele>158.1</ele>
        <time>2021-02-07T14:29:45Z</time>
      </trkpt>
      <trkpt lat="43.63599" lon="3.72073">
        <ele>157.9</ele>
        <time>2021-02-07T14:29:46Z</time>
      </trkpt>
      <trkpt lat="43.63601" lon="3.72072">
        <ele>157.8</ele>
        <time>2021-02-07T14:29:47Z</time>
      </trkpt>
      <trkpt lat="43.63603" lon="3.72071">
        <ele>157.7</ele>
        <time>2021-02-07T14:29:49Z</time>
      </trkpt>
      <trkpt lat="43.63603" lon="3.72071">
        <ele>159</ele>
        <time>2021-02-07T14:29:54Z</time>
      </trkpt>
      <trkpt lat="43.63597" lon="3.72079">
        <ele>159</ele>
        <time>2021-02-07T14:31:49Z</time>
      </trkpt>
      <trkpt lat="43.63597" lon="3.72082">
        <ele>158.4</ele>
        <time>2021-02-07T14:31:50Z</time>
      </trkpt>
      <trkpt lat="43.63597" lon="3.72084">
        <ele>158.5</ele>
        <time>2021-02-07T14:31:51Z</time>
      </trkpt>
      <trkpt lat="43.63596" lon="3.72087">
        <ele>158.7</ele>
        <time>2021-02-07T14:31:52Z</time>
      </trkpt>
      <trkpt lat="43.63596" lon="3.72089">
        <ele>158.7</ele>
        <time>2021-02-07T14:31:53Z</time>
      </trkpt>
      <trkpt lat="43.63596" lon="3.72092">
        <ele>158.9</ele>
        <time>2021-02-07T14:31:54Z</time>
      </trkpt>
      <trkpt lat="43.63596" lon="3.72095">
        <ele>159</ele>
        <time>2021-02-07T14:31:55Z</time>
      </trkpt>
      <trkpt lat="43.63595" lon="3.72099">
        <ele>159.1</ele>
        <time>2021-02-07T14:31:56Z</time>
      </trkpt>
      <trkpt lat="43.63594" lon="3.72103">
        <ele>159.3</ele>
        <time>2021-02-07T14:31:57Z</time>
      </trkpt>
      <trkpt lat="43.63592" lon="3.72105">
        <ele>159</ele>
        <time>2021-02-07T14:31:58Z</time>
      </trkpt>
      <trkpt lat="43.6359" lon="3.72107">
        <ele>159.6</ele>
        <time>2021-02-07T14:31:59Z</time>
      </trkpt>
      <trkpt lat="43.63588" lon="3.72109">
        <ele>159.8</ele>
        <time>2021-02-07T14:32:00Z</time>
      </trkpt>
      <trkpt lat="43.63586" lon="3.72111">
        <ele>159.9</ele>
        <time>2021-02-07T14:32:01Z</time>
      </trkpt>
      <trkpt lat="43.63585" lon="3.72114">
        <ele>159.9</ele>
        <time>2021-02-07T14:32:02Z</time>
      </trkpt>
      <trkpt lat="43.63584" lon="3.72117">
        <ele>160</ele>
        <time>2021-02-07T14:32:03Z</time>
      </trkpt>
      <trkpt lat="43.63583" lon="3.72121">
        <ele>160</ele>
        <time>2021-02-07T14:32:04Z</time>
      </trkpt>
      <trkpt lat="43.63581" lon="3.72124">
        <ele>160</ele>
        <time>2021-02-07T14:32:05Z</time>
      </trkpt>
      <trkpt lat="43.63579" lon="3.72127">
        <ele>159.9</ele>
        <time>2021-02-07T14:32:06Z</time>
      </trkpt>
      <trkpt lat="43.63578" lon="3.7213">
        <ele>159.9</ele>
        <time>2021-02-07T14:32:07Z</time>
      </trkpt>
      <trkpt lat="43.63578" lon="3.72133">
        <ele>160</ele>
        <time>2021-02-07T14:32:08Z</time>
      </trkpt>
      <trkpt lat="43.63578" lon="3.72136">
        <ele>160</ele>
        <time>2021-02-07T14:32:09Z</time>
      </trkpt>
      <trkpt lat="43.63577" lon="3.72139">
        <ele>160</ele>
        <time>2021-02-07T14:32:10Z</time>
      </trkpt>
      <trkpt lat="43.63577" lon="3.72142">
        <ele>160.1</ele>
        <time>2021-02-07T14:32:11Z</time>
      </trkpt>
      <trkpt lat="43.63578" lon="3.72147">
        <ele>160.3</ele>
        <time>2021-02-07T14:32:13Z</time>
      </trkpt>
      <trkpt lat="43.63578" lon="3.7215">
        <ele>160.4</ele>
        <time>2021-02-07T14:32:14Z</time>
      </trkpt>
      <trkpt lat="43.63579" lon="3.72152">
        <ele>160.5</ele>
        <time>2021-02-07T14:32:15Z</time>
      </trkpt>
      <trkpt lat="43.63579" lon="3.72155">
        <ele>160.6</ele>
        <time>2021-02-07T14:32:16Z</time>
      </trkpt>
      <trkpt lat="43.6358" lon="3.72157">
        <ele>160.7</ele>
        <time>2021-02-07T14:32:17Z</time>
      </trkpt>
      <trkpt lat="43.63581" lon="3.7216">
        <ele>161</ele>
        <time>2021-02-07T14:32:18Z</time>
      </trkpt>
      <trkpt lat="43.63581" lon="3.72162">
        <ele>160.8</ele>
        <time>2021-02-07T14:32:19Z</time>
      </trkpt>
      <trkpt lat="43.63583" lon="3.72165">
        <ele>160.9</ele>
        <time>2021-02-07T14:32:21Z</time>
      </trkpt>
      <trkpt lat="43.63584" lon="3.72169">
        <ele>161.1</ele>
        <time>2021-02-07T14:32:23Z</time>
      </trkpt>
      <trkpt lat="43.63585" lon="3.72172">
        <ele>161.1</ele>
        <time>2021-02-07T14:32:25Z</time>
      </trkpt>
      <trkpt lat="43.63585" lon="3.72176">
        <ele>161.3</ele>
        <time>2021-02-07T14:32:27Z</time>
      </trkpt>
      <trkpt lat="43.63586" lon="3.7218">
        <ele>161.4</ele>
        <time>2021-02-07T14:32:29Z</time>
      </trkpt>
      <trkpt lat="43.63587" lon="3.72184">
        <ele>161.5</ele>
        <time>2021-02-07T14:32:31Z</time>
      </trkpt>
      <trkpt lat="43.63588" lon="3.72189">
        <ele>161.6</ele>
        <time>2021-02-07T14:32:33Z</time>
      </trkpt>
      <trkpt lat="43.63589" lon="3.72191">
        <ele>161.7</ele>
        <time>2021-02-07T14:32:34Z</time>
      </trkpt>
      <trkpt lat="43.6359" lon="3.72196">
        <ele>161.8</ele>
        <time>2021-02-07T14:32:36Z</time>
      </trkpt>
      <trkpt lat="43.63592" lon="3.722">
        <ele>164</ele>
        <time>2021-02-07T14:32:38Z</time>
      </trkpt>
      <trkpt lat="43.63593" lon="3.72205">
        <ele>162</ele>
        <time>2021-02-07T14:32:40Z</time>
      </trkpt>
      <trkpt lat="43.63594" lon="3.72209">
        <ele>162.1</ele>
        <time>2021-02-07T14:32:42Z</time>
      </trkpt>
      <trkpt lat="43.63595" lon="3.72213">
        <ele>162.2</ele>
        <time>2021-02-07T14:32:44Z</time>
      </trkpt>
      <trkpt lat="43.63595" lon="3.72216">
        <ele>162.4</ele>
        <time>2021-02-07T14:32:45Z</time>
      </trkpt>
      <trkpt lat="43.63596" lon="3.72218">
        <ele>162.4</ele>
        <time>2021-02-07T14:32:46Z</time>
      </trkpt>
      <trkpt lat="43.63597" lon="3.72223">
        <ele>165</ele>
        <time>2021-02-07T14:32:48Z</time>
      </trkpt>
      <trkpt lat="43.63598" lon="3.72227">
        <ele>162.7</ele>
        <time>2021-02-07T14:32:50Z</time>
      </trkpt>
      <trkpt lat="43.63599" lon="3.72232">
        <ele>163</ele>
        <time>2021-02-07T14:32:52Z</time>
      </trkpt>
      <trkpt lat="43.636" lon="3.72234">
        <ele>163.1</ele>
        <time>2021-02-07T14:32:53Z</time>
      </trkpt>
      <trkpt lat="43.63601" lon="3.72237">
        <ele>163.2</ele>
        <time>2021-02-07T14:32:54Z</time>
      </trkpt>
      <trkpt lat="43.63601" lon="3.72239">
        <ele>163.4</ele>
        <time>2021-02-07T14:32:55Z</time>
      </trkpt>
      <trkpt lat="43.63602" lon="3.72243">
        <ele>163.6</ele>
        <time>2021-02-07T14:32:57Z</time>
      </trkpt>
      <trkpt lat="43.63602" lon="3.72247">
        <ele>163.8</ele>
        <time>2021-02-07T14:32:59Z</time>
      </trkpt>
      <trkpt lat="43.63603" lon="3.72252">
        <ele>164.1</ele>
        <time>2021-02-07T14:33:01Z</time>
      </trkpt>
      <trkpt lat="43.63604" lon="3.72256">
        <ele>164.3</ele>
        <time>2021-02-07T14:33:03Z</time>
      </trkpt>
      <trkpt lat="43.63606" lon="3.7226">
        <ele>164.4</ele>
        <time>2021-02-07T14:33:05Z</time>
      </trkpt>
      <trkpt lat="43.63607" lon="3.72264">
        <ele>164.6</ele>
        <time>2021-02-07T14:33:07Z</time>
      </trkpt>
      <trkpt lat="43.63609" lon="3.72268">
        <ele>164.7</ele>
        <time>2021-02-07T14:33:09Z</time>
      </trkpt>
      <trkpt lat="43.6361" lon="3.72271">
        <ele>164.8</ele>
        <time>2021-02-07T14:33:11Z</time>
      </trkpt>
      <trkpt lat="43.63612" lon="3.72275">
        <ele>164.9</ele>
        <time>2021-02-07T14:33:13Z</time>
      </trkpt>
      <trkpt lat="43.63613" lon="3.7228">
        <ele>165</ele>
        <time>2021-02-07T14:33:15Z</time>
      </trkpt>
      <trkpt lat="43.63614" lon="3.72283">
        <ele>165.1</ele>
        <time>2021-02-07T14:33:16Z</time>
      </trkpt>
      <trkpt lat="43.63614" lon="3.72285">
        <ele>165.2</ele>
        <time>2021-02-07T14:33:17Z</time>
      </trkpt>
      <trkpt lat="43.63615" lon="3.72288">
        <ele>168</ele>
        <time>2021-02-07T14:33:18Z</time>
      </trkpt>
      <trkpt lat="43.63616" lon="3.7229">
        <ele>165.3</ele>
        <time>2021-02-07T14:33:19Z</time>
      </trkpt>
      <trkpt lat="43.63617" lon="3.72293">
        <ele>165.3</ele>
        <time>2021-02-07T14:33:20Z</time>
      </trkpt>
      <trkpt lat="43.63618" lon="3.72296">
        <ele>165.4</ele>
        <time>2021-02-07T14:33:21Z</time>
      </trkpt>
      <trkpt lat="43.63619" lon="3.72298">
        <ele>165.4</ele>
        <time>2021-02-07T14:33:22Z</time>
      </trkpt>
      <trkpt lat="43.6362" lon="3.723">
        <ele>165.5</ele>
        <time>2021-02-07T14:33:23Z</time>
      </trkpt>
      <trkpt lat="43.63621" lon="3.72303">
        <ele>165.6</ele>
        <time>2021-02-07T14:33:24Z</time>
      </trkpt>
      <trkpt lat="43.63621" lon="3.72305">
        <ele>165.6</ele>
        <time>2021-02-07T14:33:25Z</time>
      </trkpt>
      <trkpt lat="43.63621" lon="3.72308">
        <ele>165.7</ele>
        <time>2021-02-07T14:33:26Z</time>
      </trkpt>
      <trkpt lat="43.63622" lon="3.7231">
        <ele>165.7</ele>
        <time>2021-02-07T14:33:27Z</time>
      </trkpt>
      <trkpt lat="43.63622" lon="3.72313">
        <ele>168</ele>
        <time>2021-02-07T14:33:28Z</time>
      </trkpt>
      <trkpt lat="43.63622" lon="3.72316">
        <ele>165.8</ele>
        <time>2021-02-07T14:33:29Z</time>
      </trkpt>
      <trkpt lat="43.63622" lon="3.72319">
        <ele>165.9</ele>
        <time>2021-02-07T14:33:30Z</time>
      </trkpt>
      <trkpt lat="43.63623" lon="3.72321">
        <ele>165.9</ele>
        <time>2021-02-07T14:33:31Z</time>
      </trkpt>
      <trkpt lat="43.63623" lon="3.72324">
        <ele>166</ele>
        <time>2021-02-07T14:33:32Z</time>
      </trkpt>
      <trkpt lat="43.63623" lon="3.72326">
        <ele>166</ele>
        <time>2021-02-07T14:33:33Z</time>
      </trkpt>
      <trkpt lat="43.63623" lon="3.72331">
        <ele>166.1</ele>
        <time>2021-02-07T14:33:35Z</time>
      </trkpt>
      <trkpt lat="43.63623" lon="3.72335">
        <ele>166.2</ele>
        <time>2021-02-07T14:33:37Z</time>
      </trkpt>
      <trkpt lat="43.63624" lon="3.7234">
        <ele>166.2</ele>
        <time>2021-02-07T14:33:39Z</time>
      </trkpt>
      <trkpt lat="43.63625" lon="3.72344">
        <ele>166.2</ele>
        <time>2021-02-07T14:33:41Z</time>
      </trkpt>
      <trkpt lat="43.63626" lon="3.72349">
        <ele>166.2</ele>
        <time>2021-02-07T14:33:43Z</time>
      </trkpt>
      <trkpt lat="43.63627" lon="3.72352">
        <ele>166.1</ele>
        <time>2021-02-07T14:33:45Z</time>
      </trkpt>
      <trkpt lat="43.63629" lon="3.72355">
        <ele>166</ele>
        <time>2021-02-07T14:33:47Z</time>
      </trkpt>
      <trkpt lat="43.63631" lon="3.72358">
        <ele>165.8</ele>
        <time>2021-02-07T14:33:49Z</time>
      </trkpt>
      <trkpt lat="43.63633" lon="3.72362">
        <ele>165.7</ele>
        <time>2021-02-07T14:33:51Z</time>
      </trkpt>
      <trkpt lat="43.63634" lon="3.72366">
        <ele>165.7</ele>
        <time>2021-02-07T14:33:53Z</time>
      </trkpt>
      <trkpt lat="43.63635" lon="3.72368">
        <ele>165.6</ele>
        <time>2021-02-07T14:33:54Z</time>
      </trkpt>
      <trkpt lat="43.63635" lon="3.72371">
        <ele>165.7</ele>
        <time>2021-02-07T14:33:55Z</time>
      </trkpt>
      <trkpt lat="43.63636" lon="3.72374">
        <ele>165.7</ele>
        <time>2021-02-07T14:33:56Z</time>
      </trkpt>
      <trkpt lat="43.63637" lon="3.72378">
        <ele>165.8</ele>
        <time>2021-02-07T14:33:57Z</time>
      </trkpt>
      <trkpt lat="43.63638" lon="3.72381">
        <ele>170</ele>
        <time>2021-02-07T14:33:58Z</time>
      </trkpt>
      <trkpt lat="43.63638" lon="3.72385">
        <ele>165.9</ele>
        <time>2021-02-07T14:33:59Z</time>
      </trkpt>
      <trkpt lat="43.63638" lon="3.72388">
        <ele>166</ele>
        <time>2021-02-07T14:34:00Z</time>
      </trkpt>
      <trkpt lat="43.63639" lon="3.72392">
        <ele>166.1</ele>
        <time>2021-02-07T14:34:01Z</time>
      </trkpt>
      <trkpt lat="43.63639" lon="3.72396">
        <ele>166.3</ele>
        <time>2021-02-07T14:34:02Z</time>
      </trkpt>
      <trkpt lat="43.6364" lon="3.72399">
        <ele>166.4</ele>
        <time>2021-02-07T14:34:03Z</time>
      </trkpt>
      <trkpt lat="43.63641" lon="3.72403">
        <ele>166.5</ele>
        <time>2021-02-07T14:34:04Z</time>
      </trkpt>
      <trkpt lat="43.63642" lon="3.72406">
        <ele>166.6</ele>
        <time>2021-02-07T14:34:05Z</time>
      </trkpt>
      <trkpt lat="43.63642" lon="3.7241">
        <ele>166.8</ele>
        <time>2021-02-07T14:34:06Z</time>
      </trkpt>
      <trkpt lat="43.63642" lon="3.72413">
        <ele>166.9</ele>
        <time>2021-02-07T14:34:07Z</time>
      </trkpt>
      <trkpt lat="43.63643" lon="3.72416">
        <ele>170</ele>
        <time>2021-02-07T14:34:08Z</time>
      </trkpt>
      <trkpt lat="43.63643" lon="3.7242">
        <ele>167.1</ele>
        <time>2021-02-07T14:34:09Z</time>
      </trkpt>
      <trkpt lat="43.63644" lon="3.72423">
        <ele>167.2</ele>
        <time>2021-02-07T14:34:10Z</time>
      </trkpt>
      <trkpt lat="43.63644" lon="3.72426">
        <ele>167.3</ele>
        <time>2021-02-07T14:34:11Z</time>
      </trkpt>
      <trkpt lat="43.63645" lon="3.72429">
        <ele>167.4</ele>
        <time>2021-02-07T14:34:12Z</time>
      </trkpt>
      <trkpt lat="43.63646" lon="3.72432">
        <ele>167.6</ele>
        <time>2021-02-07T14:34:13Z</time>
      </trkpt>
      <trkpt lat="43.63647" lon="3.72435">
        <ele>167.7</ele>
        <time>2021-02-07T14:34:14Z</time>
      </trkpt>
      <trkpt lat="43.63648" lon="3.72438">
        <ele>167.8</ele>
        <time>2021-02-07T14:34:15Z</time>
      </trkpt>
      <trkpt lat="43.63649" lon="3.72441">
        <ele>167.9</ele>
        <time>2021-02-07T14:34:16Z</time>
      </trkpt>
      <trkpt lat="43.63649" lon="3.72443">
        <ele>167.9</ele>
        <time>2021-02-07T14:34:17Z</time>
      </trkpt>
      <trkpt lat="43.6365" lon="3.72446">
        <ele>171</ele>
        <time>2021-02-07T14:34:18Z</time>
      </trkpt>
      <trkpt lat="43.63651" lon="3.72449">
        <ele>168</ele>
        <time>2021-02-07T14:34:19Z</time>
      </trkpt>
      <trkpt lat="43.63652" lon="3.72452">
        <ele>168</ele>
        <time>2021-02-07T14:34:20Z</time>
      </trkpt>
      <trkpt lat="43.63653" lon="3.72455">
        <ele>168</ele>
        <time>2021-02-07T14:34:21Z</time>
      </trkpt>
      <trkpt lat="43.63653" lon="3.72459">
        <ele>168</ele>
        <time>2021-02-07T14:34:22Z</time>
      </trkpt>
      <trkpt lat="43.63654" lon="3.72462">
        <ele>168</ele>
        <time>2021-02-07T14:34:23Z</time>
      </trkpt>
      <trkpt lat="43.63655" lon="3.72465">
        <ele>168</ele>
        <time>2021-02-07T14:34:24Z</time>
      </trkpt>
      <trkpt lat="43.63655" lon="3.72469">
        <ele>168</ele>
        <time>2021-02-07T14:34:25Z</time>
      </trkpt>
      <trkpt lat="43.63656" lon="3.72472">
        <ele>168</ele>
        <time>2021-02-07T14:34:26Z</time>
      </trkpt>
      <trkpt lat="43.63656" lon="3.72475">
        <ele>168</ele>
        <time>2021-02-07T14:34:27Z</time>
      </trkpt>
      <trkpt lat="43.63657" lon="3.72478">
        <ele>170</ele>
        <time>2021-02-07T14:34:28Z</time>
      </trkpt>
      <trkpt lat="43.63658" lon="3.72482">
        <ele>167.9</ele>
        <time>2021-02-07T14:34:29Z</time>
      </trkpt>
      <trkpt lat="43.63658" lon="3.72485">
        <ele>167.8</ele>
        <time>2021-02-07T14:34:30Z</time>
      </trkpt>
      <trkpt lat="43.63659" lon="3.72488">
        <ele>167.7</ele>
        <time>2021-02-07T14:34:31Z</time>
      </trkpt>
      <trkpt lat="43.6366" lon="3.72492">
        <ele>167.6</ele>
        <time>2021-02-07T14:34:32Z</time>
      </trkpt>
      <trkpt lat="43.63661" lon="3.72495">
        <ele>167.5</ele>
        <time>2021-02-07T14:34:33Z</time>
      </trkpt>
      <trkpt lat="43.63662" lon="3.72498">
        <ele>167.4</ele>
        <time>2021-02-07T14:34:34Z</time>
      </trkpt>
      <trkpt lat="43.63663" lon="3.72501">
        <ele>167.2</ele>
        <time>2021-02-07T14:34:35Z</time>
      </trkpt>
      <trkpt lat="43.63664" lon="3.72505">
        <ele>167</ele>
        <time>2021-02-07T14:34:36Z</time>
      </trkpt>
      <trkpt lat="43.63666" lon="3.72508">
        <ele>166.8</ele>
        <time>2021-02-07T14:34:37Z</time>
      </trkpt>
      <trkpt lat="43.63667" lon="3.72512">
        <ele>170</ele>
        <time>2021-02-07T14:34:38Z</time>
      </trkpt>
      <trkpt lat="43.63668" lon="3.72516">
        <ele>166.3</ele>
        <time>2021-02-07T14:34:39Z</time>
      </trkpt>
      <trkpt lat="43.63668" lon="3.7252">
        <ele>166.2</ele>
        <time>2021-02-07T14:34:40Z</time>
      </trkpt>
      <trkpt lat="43.63669" lon="3.72524">
        <ele>166</ele>
        <time>2021-02-07T14:34:41Z</time>
      </trkpt>
      <trkpt lat="43.63669" lon="3.72529">
        <ele>165.8</ele>
        <time>2021-02-07T14:34:42Z</time>
      </trkpt>
      <trkpt lat="43.63669" lon="3.72534">
        <ele>165.8</ele>
        <time>2021-02-07T14:34:43Z</time>
      </trkpt>
      <trkpt lat="43.63669" lon="3.72539">
        <ele>165.8</ele>
        <time>2021-02-07T14:34:44Z</time>
      </trkpt>
      <trkpt lat="43.63668" lon="3.72543">
        <ele>165.9</ele>
        <time>2021-02-07T14:34:45Z</time>
      </trkpt>
      <trkpt lat="43.63668" lon="3.72548">
        <ele>165.8</ele>
        <time>2021-02-07T14:34:46Z</time>
      </trkpt>
      <trkpt lat="43.63668" lon="3.72552">
        <ele>165.8</ele>
        <time>2021-02-07T14:34:47Z</time>
      </trkpt>
      <trkpt lat="43.63668" lon="3.72556">
        <ele>169</ele>
        <time>2021-02-07T14:34:48Z</time>
      </trkpt>
      <trkpt lat="43.63668" lon="3.7256">
        <ele>165.8</ele>
        <time>2021-02-07T14:34:49Z</time>
      </trkpt>
      <trkpt lat="43.63668" lon="3.72564">
        <ele>165.8</ele>
        <time>2021-02-07T14:34:50Z</time>
      </trkpt>
      <trkpt lat="43.63669" lon="3.72568">
        <ele>165.7</ele>
        <time>2021-02-07T14:34:51Z</time>
      </trkpt>
      <trkpt lat="43.63669" lon="3.72571">
        <ele>165.8</ele>
        <time>2021-02-07T14:34:52Z</time>
      </trkpt>
      <trkpt lat="43.6367" lon="3.72575">
        <ele>165.7</ele>
        <time>2021-02-07T14:34:53Z</time>
      </trkpt>
      <trkpt lat="43.6367" lon="3.72579">
        <ele>165.7</ele>
        <time>2021-02-07T14:34:54Z</time>
      </trkpt>
      <trkpt lat="43.6367" lon="3.72582">
        <ele>165.7</ele>
        <time>2021-02-07T14:34:55Z</time>
      </trkpt>
      <trkpt lat="43.6367" lon="3.72586">
        <ele>165.8</ele>
        <time>2021-02-07T14:34:56Z</time>
      </trkpt>
      <trkpt lat="43.6367" lon="3.7259">
        <ele>165.8</ele>
        <time>2021-02-07T14:34:57Z</time>
      </trkpt>
      <trkpt lat="43.6367" lon="3.72594">
        <ele>169</ele>
        <time>2021-02-07T14:34:58Z</time>
      </trkpt>
      <trkpt lat="43.63669" lon="3.72597">
        <ele>165.8</ele>
        <time>2021-02-07T14:34:59Z</time>
      </trkpt>
      <trkpt lat="43.63669" lon="3.726">
        <ele>165.8</ele>
        <time>2021-02-07T14:35:00Z</time>
      </trkpt>
      <trkpt lat="43.63669" lon="3.72603">
        <ele>165.8</ele>
        <time>2021-02-07T14:35:01Z</time>
      </trkpt>
      <trkpt lat="43.6367" lon="3.72606">
        <ele>165.8</ele>
        <time>2021-02-07T14:35:02Z</time>
      </trkpt>
      <trkpt lat="43.6367" lon="3.72608">
        <ele>165.8</ele>
        <time>2021-02-07T14:35:03Z</time>
      </trkpt>
      <trkpt lat="43.6367" lon="3.72612">
        <ele>165.8</ele>
        <time>2021-02-07T14:35:04Z</time>
      </trkpt>
      <trkpt lat="43.63669" lon="3.72615">
        <ele>165.8</ele>
        <time>2021-02-07T14:35:05Z</time>
      </trkpt>
      <trkpt lat="43.63669" lon="3.72618">
        <ele>165.8</ele>
        <time>2021-02-07T14:35:06Z</time>
      </trkpt>
      <trkpt lat="43.63669" lon="3.72622">
        <ele>165.8</ele>
        <time>2021-02-07T14:35:07Z</time>
      </trkpt>
      <trkpt lat="43.63669" lon="3.72626">
        <ele>168</ele>
        <time>2021-02-07T14:35:08Z</time>
      </trkpt>
      <trkpt lat="43.6367" lon="3.72629">
        <ele>165.7</ele>
        <time>2021-02-07T14:35:09Z</time>
      </trkpt>
      <trkpt lat="43.63671" lon="3.72631">
        <ele>165.6</ele>
        <time>2021-02-07T14:35:10Z</time>
      </trkpt>
      <trkpt lat="43.63671" lon="3.72635">
        <ele>165.6</ele>
        <time>2021-02-07T14:35:11Z</time>
      </trkpt>
      <trkpt lat="43.63671" lon="3.72638">
        <ele>165.5</ele>
        <time>2021-02-07T14:35:12Z</time>
      </trkpt>
      <trkpt lat="43.6367" lon="3.72642">
        <ele>165.7</ele>
        <time>2021-02-07T14:35:13Z</time>
      </trkpt>
      <trkpt lat="43.6367" lon="3.72647">
        <ele>165.7</ele>
        <time>2021-02-07T14:35:14Z</time>
      </trkpt>
      <trkpt lat="43.63669" lon="3.7265">
        <ele>165.8</ele>
        <time>2021-02-07T14:35:15Z</time>
      </trkpt>
      <trkpt lat="43.63669" lon="3.72654">
        <ele>165.8</ele>
        <time>2021-02-07T14:35:16Z</time>
      </trkpt>
      <trkpt lat="43.63668" lon="3.72657">
        <ele>165.9</ele>
        <time>2021-02-07T14:35:17Z</time>
      </trkpt>
      <trkpt lat="43.63668" lon="3.7266">
        <ele>165.9</ele>
        <time>2021-02-07T14:35:18Z</time>
      </trkpt>
      <trkpt lat="43.63668" lon="3.72664">
        <ele>168</ele>
        <time>2021-02-07T14:35:19Z</time>
      </trkpt>
      <trkpt lat="43.63667" lon="3.72668">
        <ele>165.9</ele>
        <time>2021-02-07T14:35:20Z</time>
      </trkpt>
      <trkpt lat="43.63667" lon="3.72671">
        <ele>165.8</ele>
        <time>2021-02-07T14:35:21Z</time>
      </trkpt>
      <trkpt lat="43.63666" lon="3.72674">
        <ele>165.8</ele>
        <time>2021-02-07T14:35:22Z</time>
      </trkpt>
      <trkpt lat="43.63665" lon="3.72677">
        <ele>165.7</ele>
        <time>2021-02-07T14:35:23Z</time>
      </trkpt>
      <trkpt lat="43.63665" lon="3.7268">
        <ele>165.6</ele>
        <time>2021-02-07T14:35:24Z</time>
      </trkpt>
      <trkpt lat="43.63665" lon="3.72683">
        <ele>165.5</ele>
        <time>2021-02-07T14:35:25Z</time>
      </trkpt>
      <trkpt lat="43.63666" lon="3.72686">
        <ele>165.3</ele>
        <time>2021-02-07T14:35:26Z</time>
      </trkpt>
      <trkpt lat="43.63666" lon="3.7269">
        <ele>165.2</ele>
        <time>2021-02-07T14:35:27Z</time>
      </trkpt>
      <trkpt lat="43.63666" lon="3.72695">
        <ele>168</ele>
        <time>2021-02-07T14:35:28Z</time>
      </trkpt>
      <trkpt lat="43.63666" lon="3.72699">
        <ele>165</ele>
        <time>2021-02-07T14:35:29Z</time>
      </trkpt>
      <trkpt lat="43.63666" lon="3.72703">
        <ele>165</ele>
        <time>2021-02-07T14:35:30Z</time>
      </trkpt>
      <trkpt lat="43.63666" lon="3.72707">
        <ele>165</ele>
        <time>2021-02-07T14:35:31Z</time>
      </trkpt>
      <trkpt lat="43.63666" lon="3.72711">
        <ele>165</ele>
        <time>2021-02-07T14:35:32Z</time>
      </trkpt>
      <trkpt lat="43.63666" lon="3.72715">
        <ele>165</ele>
        <time>2021-02-07T14:35:33Z</time>
      </trkpt>
      <trkpt lat="43.63666" lon="3.72718">
        <ele>165</ele>
        <time>2021-02-07T14:35:34Z</time>
      </trkpt>
      <trkpt lat="43.63666" lon="3.72721">
        <ele>165</ele>
        <time>2021-02-07T14:35:35Z</time>
      </trkpt>
      <trkpt lat="43.63667" lon="3.72725">
        <ele>165</ele>
        <time>2021-02-07T14:35:36Z</time>
      </trkpt>
      <trkpt lat="43.63668" lon="3.72729">
        <ele>164.9</ele>
        <time>2021-02-07T14:35:37Z</time>
      </trkpt>
      <trkpt lat="43.63669" lon="3.72735">
        <ele>167</ele>
        <time>2021-02-07T14:35:38Z</time>
      </trkpt>
      <trkpt lat="43.6367" lon="3.7274">
        <ele>164.8</ele>
        <time>2021-02-07T14:35:39Z</time>
      </trkpt>
      <trkpt lat="43.63671" lon="3.72744">
        <ele>164.7</ele>
        <time>2021-02-07T14:35:40Z</time>
      </trkpt>
      <trkpt lat="43.63672" lon="3.72749">
        <ele>164.6</ele>
        <time>2021-02-07T14:35:41Z</time>
      </trkpt>
      <trkpt lat="43.63672" lon="3.72754">
        <ele>164.6</ele>
        <time>2021-02-07T14:35:42Z</time>
      </trkpt>
      <trkpt lat="43.63672" lon="3.72759">
        <ele>164.6</ele>
        <time>2021-02-07T14:35:43Z</time>
      </trkpt>
      <trkpt lat="43.63671" lon="3.72764">
        <ele>164.6</ele>
        <time>2021-02-07T14:35:44Z</time>
      </trkpt>
      <trkpt lat="43.6367" lon="3.72769">
        <ele>164.7</ele>
        <time>2021-02-07T14:35:45Z</time>
      </trkpt>
      <trkpt lat="43.63669" lon="3.72774">
        <ele>164.8</ele>
        <time>2021-02-07T14:35:46Z</time>
      </trkpt>
      <trkpt lat="43.63669" lon="3.72779">
        <ele>164.7</ele>
        <time>2021-02-07T14:35:47Z</time>
      </trkpt>
      <trkpt lat="43.63669" lon="3.72783">
        <ele>166</ele>
        <time>2021-02-07T14:35:48Z</time>
      </trkpt>
      <trkpt lat="43.63669" lon="3.72787">
        <ele>164.7</ele>
        <time>2021-02-07T14:35:49Z</time>
      </trkpt>
      <trkpt lat="43.63668" lon="3.7279">
        <ele>164.8</ele>
        <time>2021-02-07T14:35:50Z</time>
      </trkpt>
      <trkpt lat="43.63667" lon="3.72794">
        <ele>165</ele>
        <time>2021-02-07T14:35:51Z</time>
      </trkpt>
      <trkpt lat="43.63667" lon="3.72797">
        <ele>165</ele>
        <time>2021-02-07T14:35:52Z</time>
      </trkpt>
      <trkpt lat="43.63667" lon="3.728">
        <ele>165</ele>
        <time>2021-02-07T14:35:53Z</time>
      </trkpt>
      <trkpt lat="43.63667" lon="3.72804">
        <ele>165</ele>
        <time>2021-02-07T14:35:54Z</time>
      </trkpt>
      <trkpt lat="43.63666" lon="3.72807">
        <ele>164.9</ele>
        <time>2021-02-07T14:35:55Z</time>
      </trkpt>
      <trkpt lat="43.63666" lon="3.72811">
        <ele>164.8</ele>
        <time>2021-02-07T14:35:56Z</time>
      </trkpt>
      <trkpt lat="43.63665" lon="3.72814">
        <ele>164.7</ele>
        <time>2021-02-07T14:35:57Z</time>
      </trkpt>
      <trkpt lat="43.63665" lon="3.72817">
        <ele>166</ele>
        <time>2021-02-07T14:35:58Z</time>
      </trkpt>
      <trkpt lat="43.63664" lon="3.7282">
        <ele>164.5</ele>
        <time>2021-02-07T14:35:59Z</time>
      </trkpt>
      <trkpt lat="43.63664" lon="3.72824">
        <ele>164.4</ele>
        <time>2021-02-07T14:36:00Z</time>
      </trkpt>
      <trkpt lat="43.63663" lon="3.72827">
        <ele>164.3</ele>
        <time>2021-02-07T14:36:01Z</time>
      </trkpt>
      <trkpt lat="43.63663" lon="3.7283">
        <ele>164.2</ele>
        <time>2021-02-07T14:36:02Z</time>
      </trkpt>
      <trkpt lat="43.63662" lon="3.72832">
        <ele>164.2</ele>
        <time>2021-02-07T14:36:03Z</time>
      </trkpt>
      <trkpt lat="43.63662" lon="3.72835">
        <ele>164.2</ele>
        <time>2021-02-07T14:36:04Z</time>
      </trkpt>
      <trkpt lat="43.63662" lon="3.72838">
        <ele>164.2</ele>
        <time>2021-02-07T14:36:05Z</time>
      </trkpt>
      <trkpt lat="43.63661" lon="3.72841">
        <ele>164.2</ele>
        <time>2021-02-07T14:36:06Z</time>
      </trkpt>
      <trkpt lat="43.63661" lon="3.72844">
        <ele>164.2</ele>
        <time>2021-02-07T14:36:07Z</time>
      </trkpt>
      <trkpt lat="43.63661" lon="3.72847">
        <ele>166</ele>
        <time>2021-02-07T14:36:08Z</time>
      </trkpt>
      <trkpt lat="43.63661" lon="3.7285">
        <ele>164.2</ele>
        <time>2021-02-07T14:36:09Z</time>
      </trkpt>
      <trkpt lat="43.6366" lon="3.72853">
        <ele>164.2</ele>
        <time>2021-02-07T14:36:10Z</time>
      </trkpt>
      <trkpt lat="43.6366" lon="3.72857">
        <ele>164.2</ele>
        <time>2021-02-07T14:36:12Z</time>
      </trkpt>
      <trkpt lat="43.6366" lon="3.72861">
        <ele>164.2</ele>
        <time>2021-02-07T14:36:14Z</time>
      </trkpt>
      <trkpt lat="43.63661" lon="3.72864">
        <ele>164.3</ele>
        <time>2021-02-07T14:36:16Z</time>
      </trkpt>
      <trkpt lat="43.63659" lon="3.72866">
        <ele>164.4</ele>
        <time>2021-02-07T14:36:19Z</time>
      </trkpt>
      <trkpt lat="43.63656" lon="3.72866">
        <ele>164.5</ele>
        <time>2021-02-07T14:36:21Z</time>
      </trkpt>
      <trkpt lat="43.63655" lon="3.72863">
        <ele>164.5</ele>
        <time>2021-02-07T14:36:23Z</time>
      </trkpt>
      <trkpt lat="43.63657" lon="3.7286">
        <ele>164.3</ele>
        <time>2021-02-07T14:36:25Z</time>
      </trkpt>
      <trkpt lat="43.63659" lon="3.72874">
        <ele>166</ele>
        <time>2021-02-07T14:39:59Z</time>
      </trkpt>
      <trkpt lat="43.63659" lon="3.72877">
        <ele>164.7</ele>
        <time>2021-02-07T14:40:00Z</time>
      </trkpt>
      <trkpt lat="43.63658" lon="3.72881">
        <ele>164.8</ele>
        <time>2021-02-07T14:40:01Z</time>
      </trkpt>
      <trkpt lat="43.63657" lon="3.72884">
        <ele>164.9</ele>
        <time>2021-02-07T14:40:02Z</time>
      </trkpt>
      <trkpt lat="43.63657" lon="3.72888">
        <ele>165</ele>
        <time>2021-02-07T14:40:03Z</time>
      </trkpt>
      <trkpt lat="43.63656" lon="3.72892">
        <ele>165</ele>
        <time>2021-02-07T14:40:04Z</time>
      </trkpt>
      <trkpt lat="43.63656" lon="3.72896">
        <ele>164.9</ele>
        <time>2021-02-07T14:40:05Z</time>
      </trkpt>
      <trkpt lat="43.63656" lon="3.729">
        <ele>164.9</ele>
        <time>2021-02-07T14:40:06Z</time>
      </trkpt>
      <trkpt lat="43.63655" lon="3.72904">
        <ele>164.9</ele>
        <time>2021-02-07T14:40:07Z</time>
      </trkpt>
      <trkpt lat="43.63655" lon="3.72908">
        <ele>166</ele>
        <time>2021-02-07T14:40:08Z</time>
      </trkpt>
      <trkpt lat="43.63654" lon="3.72913">
        <ele>164.9</ele>
        <time>2021-02-07T14:40:09Z</time>
      </trkpt>
      <trkpt lat="43.63654" lon="3.72917">
        <ele>164.9</ele>
        <time>2021-02-07T14:40:10Z</time>
      </trkpt>
      <trkpt lat="43.63654" lon="3.72922">
        <ele>164.8</ele>
        <time>2021-02-07T14:40:11Z</time>
      </trkpt>
      <trkpt lat="43.63653" lon="3.72926">
        <ele>164.8</ele>
        <time>2021-02-07T14:40:12Z</time>
      </trkpt>
      <trkpt lat="43.63652" lon="3.7293">
        <ele>164.8</ele>
        <time>2021-02-07T14:40:13Z</time>
      </trkpt>
      <trkpt lat="43.63652" lon="3.72935">
        <ele>164.7</ele>
        <time>2021-02-07T14:40:14Z</time>
      </trkpt>
      <trkpt lat="43.63651" lon="3.72939">
        <ele>164.8</ele>
        <time>2021-02-07T14:40:15Z</time>
      </trkpt>
      <trkpt lat="43.63651" lon="3.72944">
        <ele>164.7</ele>
        <time>2021-02-07T14:40:16Z</time>
      </trkpt>
      <trkpt lat="43.63651" lon="3.72949">
        <ele>164.7</ele>
        <time>2021-02-07T14:40:17Z</time>
      </trkpt>
      <trkpt lat="43.63652" lon="3.72954">
        <ele>164.6</ele>
        <time>2021-02-07T14:40:18Z</time>
      </trkpt>
      <trkpt lat="43.63652" lon="3.72959">
        <ele>166</ele>
        <time>2021-02-07T14:40:19Z</time>
      </trkpt>
      <trkpt lat="43.63652" lon="3.72964">
        <ele>164.6</ele>
        <time>2021-02-07T14:40:20Z</time>
      </trkpt>
      <trkpt lat="43.63651" lon="3.72969">
        <ele>164.8</ele>
        <time>2021-02-07T14:40:21Z</time>
      </trkpt>
      <trkpt lat="43.6365" lon="3.72975">
        <ele>165</ele>
        <time>2021-02-07T14:40:22Z</time>
      </trkpt>
      <trkpt lat="43.63649" lon="3.72981">
        <ele>165.3</ele>
        <time>2021-02-07T14:40:23Z</time>
      </trkpt>
      <trkpt lat="43.63648" lon="3.72987">
        <ele>165.5</ele>
        <time>2021-02-07T14:40:24Z</time>
      </trkpt>
      <trkpt lat="43.63647" lon="3.72993">
        <ele>165.8</ele>
        <time>2021-02-07T14:40:25Z</time>
      </trkpt>
      <trkpt lat="43.63647" lon="3.72999">
        <ele>165.8</ele>
        <time>2021-02-07T14:40:26Z</time>
      </trkpt>
      <trkpt lat="43.63647" lon="3.73005">
        <ele>165.8</ele>
        <time>2021-02-07T14:40:27Z</time>
      </trkpt>
      <trkpt lat="43.63648" lon="3.73011">
        <ele>165.7</ele>
        <time>2021-02-07T14:40:28Z</time>
      </trkpt>
      <trkpt lat="43.63647" lon="3.73017">
        <ele>166</ele>
        <time>2021-02-07T14:40:29Z</time>
      </trkpt>
      <trkpt lat="43.63647" lon="3.73023">
        <ele>165.8</ele>
        <time>2021-02-07T14:40:30Z</time>
      </trkpt>
      <trkpt lat="43.63646" lon="3.73029">
        <ele>165.9</ele>
        <time>2021-02-07T14:40:31Z</time>
      </trkpt>
      <trkpt lat="43.63645" lon="3.73034">
        <ele>165.9</ele>
        <time>2021-02-07T14:40:32Z</time>
      </trkpt>
      <trkpt lat="43.63643" lon="3.7304">
        <ele>166.1</ele>
        <time>2021-02-07T14:40:33Z</time>
      </trkpt>
      <trkpt lat="43.63642" lon="3.73046">
        <ele>166.3</ele>
        <time>2021-02-07T14:40:34Z</time>
      </trkpt>
      <trkpt lat="43.63642" lon="3.73052">
        <ele>166.2</ele>
        <time>2021-02-07T14:40:35Z</time>
      </trkpt>
      <trkpt lat="43.63642" lon="3.73058">
        <ele>166.2</ele>
        <time>2021-02-07T14:40:36Z</time>
      </trkpt>
      <trkpt lat="43.63642" lon="3.73065">
        <ele>166.4</ele>
        <time>2021-02-07T14:40:37Z</time>
      </trkpt>
      <trkpt lat="43.63641" lon="3.73072">
        <ele>167</ele>
        <time>2021-02-07T14:40:38Z</time>
      </trkpt>
      <trkpt lat="43.63641" lon="3.73078">
        <ele>167.1</ele>
        <time>2021-02-07T14:40:39Z</time>
      </trkpt>
      <trkpt lat="43.63641" lon="3.73084">
        <ele>167.3</ele>
        <time>2021-02-07T14:40:40Z</time>
      </trkpt>
      <trkpt lat="43.6364" lon="3.73089">
        <ele>167.7</ele>
        <time>2021-02-07T14:40:41Z</time>
      </trkpt>
      <trkpt lat="43.63639" lon="3.73094">
        <ele>168</ele>
        <time>2021-02-07T14:40:42Z</time>
      </trkpt>
      <trkpt lat="43.63638" lon="3.73099">
        <ele>168.1</ele>
        <time>2021-02-07T14:40:43Z</time>
      </trkpt>
      <trkpt lat="43.63638" lon="3.73104">
        <ele>168.1</ele>
        <time>2021-02-07T14:40:44Z</time>
      </trkpt>
      <trkpt lat="43.63637" lon="3.73108">
        <ele>168.1</ele>
        <time>2021-02-07T14:40:45Z</time>
      </trkpt>
      <trkpt lat="43.63636" lon="3.73113">
        <ele>168.3</ele>
        <time>2021-02-07T14:40:46Z</time>
      </trkpt>
      <trkpt lat="43.63635" lon="3.73117">
        <ele>168.5</ele>
        <time>2021-02-07T14:40:47Z</time>
      </trkpt>
      <trkpt lat="43.63634" lon="3.73121">
        <ele>168</ele>
        <time>2021-02-07T14:40:48Z</time>
      </trkpt>
      <trkpt lat="43.63632" lon="3.73126">
        <ele>169</ele>
        <time>2021-02-07T14:40:49Z</time>
      </trkpt>
      <trkpt lat="43.63631" lon="3.7313">
        <ele>169.2</ele>
        <time>2021-02-07T14:40:50Z</time>
      </trkpt>
      <trkpt lat="43.6363" lon="3.73135">
        <ele>169.5</ele>
        <time>2021-02-07T14:40:51Z</time>
      </trkpt>
      <trkpt lat="43.63629" lon="3.7314">
        <ele>169.7</ele>
        <time>2021-02-07T14:40:52Z</time>
      </trkpt>
      <trkpt lat="43.63629" lon="3.73144">
        <ele>169.5</ele>
        <time>2021-02-07T14:40:53Z</time>
      </trkpt>
      <trkpt lat="43.6363" lon="3.73149">
        <ele>169.3</ele>
        <time>2021-02-07T14:40:54Z</time>
      </trkpt>
      <trkpt lat="43.63631" lon="3.73154">
        <ele>168.9</ele>
        <time>2021-02-07T14:40:55Z</time>
      </trkpt>
      <trkpt lat="43.63631" lon="3.73162">
        <ele>168.6</ele>
        <time>2021-02-07T14:40:56Z</time>
      </trkpt>
      <trkpt lat="43.63632" lon="3.7317">
        <ele>168</ele>
        <time>2021-02-07T14:40:57Z</time>
      </trkpt>
      <trkpt lat="43.63631" lon="3.73179">
        <ele>168</ele>
        <time>2021-02-07T14:40:58Z</time>
      </trkpt>
      <trkpt lat="43.6363" lon="3.73189">
        <ele>167.2</ele>
        <time>2021-02-07T14:40:59Z</time>
      </trkpt>
      <trkpt lat="43.6363" lon="3.73198">
        <ele>166.7</ele>
        <time>2021-02-07T14:41:00Z</time>
      </trkpt>
      <trkpt lat="43.63629" lon="3.73208">
        <ele>166.5</ele>
        <time>2021-02-07T14:41:01Z</time>
      </trkpt>
      <trkpt lat="43.63629" lon="3.73219">
        <ele>166</ele>
        <time>2021-02-07T14:41:02Z</time>
      </trkpt>
      <trkpt lat="43.63629" lon="3.73229">
        <ele>166.5</ele>
        <time>2021-02-07T14:41:03Z</time>
      </trkpt>
      <trkpt lat="43.6363" lon="3.73237">
        <ele>167</ele>
        <time>2021-02-07T14:41:04Z</time>
      </trkpt>
      <trkpt lat="43.63631" lon="3.73245">
        <ele>167.6</ele>
        <time>2021-02-07T14:41:05Z</time>
      </trkpt>
      <trkpt lat="43.63631" lon="3.73252">
        <ele>168.2</ele>
        <time>2021-02-07T14:41:06Z</time>
      </trkpt>
      <trkpt lat="43.63631" lon="3.73258">
        <ele>168.4</ele>
        <time>2021-02-07T14:41:07Z</time>
      </trkpt>
      <trkpt lat="43.63631" lon="3.73264">
        <ele>169</ele>
        <time>2021-02-07T14:41:08Z</time>
      </trkpt>
      <trkpt lat="43.63631" lon="3.7327">
        <ele>168.9</ele>
        <time>2021-02-07T14:41:09Z</time>
      </trkpt>
      <trkpt lat="43.63631" lon="3.73275">
        <ele>169</ele>
        <time>2021-02-07T14:41:10Z</time>
      </trkpt>
      <trkpt lat="43.63631" lon="3.7328">
        <ele>169.1</ele>
        <time>2021-02-07T14:41:11Z</time>
      </trkpt>
      <trkpt lat="43.63631" lon="3.73286">
        <ele>169.1</ele>
        <time>2021-02-07T14:41:12Z</time>
      </trkpt>
      <trkpt lat="43.63631" lon="3.73292">
        <ele>169.1</ele>
        <time>2021-02-07T14:41:13Z</time>
      </trkpt>
      <trkpt lat="43.63631" lon="3.73299">
        <ele>169.1</ele>
        <time>2021-02-07T14:41:14Z</time>
      </trkpt>
      <trkpt lat="43.63632" lon="3.73306">
        <ele>168.9</ele>
        <time>2021-02-07T14:41:15Z</time>
      </trkpt>
      <trkpt lat="43.63633" lon="3.73313">
        <ele>168</ele>
        <time>2021-02-07T14:41:16Z</time>
      </trkpt>
      <trkpt lat="43.63635" lon="3.73323">
        <ele>166.4</ele>
        <time>2021-02-07T14:41:17Z</time>
      </trkpt>
      <trkpt lat="43.63636" lon="3.73334">
        <ele>169</ele>
        <time>2021-02-07T14:41:18Z</time>
      </trkpt>
      <trkpt lat="43.63637" lon="3.73344">
        <ele>165.6</ele>
        <time>2021-02-07T14:41:19Z</time>
      </trkpt>
      <trkpt lat="43.63639" lon="3.73354">
        <ele>166.2</ele>
        <time>2021-02-07T14:41:20Z</time>
      </trkpt>
      <trkpt lat="43.63641" lon="3.73362">
        <ele>166.7</ele>
        <time>2021-02-07T14:41:21Z</time>
      </trkpt>
      <trkpt lat="43.63643" lon="3.73368">
        <ele>167</ele>
        <time>2021-02-07T14:41:22Z</time>
      </trkpt>
      <trkpt lat="43.63645" lon="3.73373">
        <ele>167.3</ele>
        <time>2021-02-07T14:41:23Z</time>
      </trkpt>
      <trkpt lat="43.63646" lon="3.73377">
        <ele>167.6</ele>
        <time>2021-02-07T14:41:24Z</time>
      </trkpt>
      <trkpt lat="43.63647" lon="3.73381">
        <ele>167.9</ele>
        <time>2021-02-07T14:41:25Z</time>
      </trkpt>
      <trkpt lat="43.63647" lon="3.73386">
        <ele>168.5</ele>
        <time>2021-02-07T14:41:26Z</time>
      </trkpt>
      <trkpt lat="43.63648" lon="3.73389">
        <ele>168.7</ele>
        <time>2021-02-07T14:41:27Z</time>
      </trkpt>
      <trkpt lat="43.63649" lon="3.73394">
        <ele>170</ele>
        <time>2021-02-07T14:41:28Z</time>
      </trkpt>
      <trkpt lat="43.6365" lon="3.73398">
        <ele>168.6</ele>
        <time>2021-02-07T14:41:29Z</time>
      </trkpt>
      <trkpt lat="43.6365" lon="3.73403">
        <ele>168.7</ele>
        <time>2021-02-07T14:41:30Z</time>
      </trkpt>
      <trkpt lat="43.63651" lon="3.73408">
        <ele>168.6</ele>
        <time>2021-02-07T14:41:31Z</time>
      </trkpt>
      <trkpt lat="43.63651" lon="3.73413">
        <ele>168.7</ele>
        <time>2021-02-07T14:41:32Z</time>
      </trkpt>
      <trkpt lat="43.63651" lon="3.73418">
        <ele>168.8</ele>
        <time>2021-02-07T14:41:33Z</time>
      </trkpt>
      <trkpt lat="43.63651" lon="3.73423">
        <ele>168.9</ele>
        <time>2021-02-07T14:41:34Z</time>
      </trkpt>
      <trkpt lat="43.63652" lon="3.73429">
        <ele>168.9</ele>
        <time>2021-02-07T14:41:35Z</time>
      </trkpt>
      <trkpt lat="43.63652" lon="3.73436">
        <ele>169</ele>
        <time>2021-02-07T14:41:36Z</time>
      </trkpt>
      <trkpt lat="43.63652" lon="3.73443">
        <ele>169.1</ele>
        <time>2021-02-07T14:41:37Z</time>
      </trkpt>
      <trkpt lat="43.63652" lon="3.7345">
        <ele>170</ele>
        <time>2021-02-07T14:41:38Z</time>
      </trkpt>
      <trkpt lat="43.63653" lon="3.73457">
        <ele>169.9</ele>
        <time>2021-02-07T14:41:39Z</time>
      </trkpt>
      <trkpt lat="43.63654" lon="3.73463">
        <ele>170.1</ele>
        <time>2021-02-07T14:41:40Z</time>
      </trkpt>
      <trkpt lat="43.63654" lon="3.73469">
        <ele>170.6</ele>
        <time>2021-02-07T14:41:41Z</time>
      </trkpt>
      <trkpt lat="43.63655" lon="3.73474">
        <ele>170.7</ele>
        <time>2021-02-07T14:41:42Z</time>
      </trkpt>
      <trkpt lat="43.63655" lon="3.73479">
        <ele>170.9</ele>
        <time>2021-02-07T14:41:43Z</time>
      </trkpt>
      <trkpt lat="43.63656" lon="3.73483">
        <ele>170.9</ele>
        <time>2021-02-07T14:41:44Z</time>
      </trkpt>
      <trkpt lat="43.63656" lon="3.73488">
        <ele>171.1</ele>
        <time>2021-02-07T14:41:45Z</time>
      </trkpt>
      <trkpt lat="43.63657" lon="3.73493">
        <ele>171.1</ele>
        <time>2021-02-07T14:41:46Z</time>
      </trkpt>
      <trkpt lat="43.63658" lon="3.73498">
        <ele>171.2</ele>
        <time>2021-02-07T14:41:47Z</time>
      </trkpt>
      <trkpt lat="43.63659" lon="3.73503">
        <ele>172</ele>
        <time>2021-02-07T14:41:48Z</time>
      </trkpt>
      <trkpt lat="43.6366" lon="3.73508">
        <ele>171</ele>
        <time>2021-02-07T14:41:49Z</time>
      </trkpt>
      <trkpt lat="43.63661" lon="3.73514">
        <ele>170.9</ele>
        <time>2021-02-07T14:41:50Z</time>
      </trkpt>
      <trkpt lat="43.63661" lon="3.7352">
        <ele>171</ele>
        <time>2021-02-07T14:41:51Z</time>
      </trkpt>
      <trkpt lat="43.63661" lon="3.73526">
        <ele>171</ele>
        <time>2021-02-07T14:41:52Z</time>
      </trkpt>
      <trkpt lat="43.63662" lon="3.73532">
        <ele>170.7</ele>
        <time>2021-02-07T14:41:53Z</time>
      </trkpt>
      <trkpt lat="43.63662" lon="3.73538">
        <ele>170.6</ele>
        <time>2021-02-07T14:41:54Z</time>
      </trkpt>
      <trkpt lat="43.63663" lon="3.73544">
        <ele>170.2</ele>
        <time>2021-02-07T14:41:55Z</time>
      </trkpt>
      <trkpt lat="43.63664" lon="3.7355">
        <ele>169.8</ele>
        <time>2021-02-07T14:41:56Z</time>
      </trkpt>
      <trkpt lat="43.63664" lon="3.73556">
        <ele>169.7</ele>
        <time>2021-02-07T14:41:57Z</time>
      </trkpt>
      <trkpt lat="43.63665" lon="3.73563">
        <ele>172</ele>
        <time>2021-02-07T14:41:58Z</time>
      </trkpt>
      <trkpt lat="43.63666" lon="3.73571">
        <ele>169.2</ele>
        <time>2021-02-07T14:41:59Z</time>
      </trkpt>
      <trkpt lat="43.63667" lon="3.73578">
        <ele>168.9</ele>
        <time>2021-02-07T14:42:00Z</time>
      </trkpt>
      <trkpt lat="43.63668" lon="3.73585">
        <ele>168.8</ele>
        <time>2021-02-07T14:42:01Z</time>
      </trkpt>
      <trkpt lat="43.63668" lon="3.73592">
        <ele>169.4</ele>
        <time>2021-02-07T14:42:02Z</time>
      </trkpt>
      <trkpt lat="43.63669" lon="3.73598">
        <ele>169.6</ele>
        <time>2021-02-07T14:42:03Z</time>
      </trkpt>
      <trkpt lat="43.63671" lon="3.73604">
        <ele>169.7</ele>
        <time>2021-02-07T14:42:04Z</time>
      </trkpt>
      <trkpt lat="43.63672" lon="3.73611">
        <ele>170</ele>
        <time>2021-02-07T14:42:05Z</time>
      </trkpt>
      <trkpt lat="43.63673" lon="3.73617">
        <ele>170.4</ele>
        <time>2021-02-07T14:42:06Z</time>
      </trkpt>
      <trkpt lat="43.63674" lon="3.73623">
        <ele>170.9</ele>
        <time>2021-02-07T14:42:07Z</time>
      </trkpt>
      <trkpt lat="43.63675" lon="3.73627">
        <ele>173</ele>
        <time>2021-02-07T14:42:08Z</time>
      </trkpt>
      <trkpt lat="43.63676" lon="3.73632">
        <ele>171.3</ele>
        <time>2021-02-07T14:42:09Z</time>
      </trkpt>
      <trkpt lat="43.63677" lon="3.73637">
        <ele>171.6</ele>
        <time>2021-02-07T14:42:10Z</time>
      </trkpt>
      <trkpt lat="43.63678" lon="3.73642">
        <ele>171.6</ele>
        <time>2021-02-07T14:42:11Z</time>
      </trkpt>
      <trkpt lat="43.6368" lon="3.73648">
        <ele>171.3</ele>
        <time>2021-02-07T14:42:12Z</time>
      </trkpt>
      <trkpt lat="43.63681" lon="3.73654">
        <ele>171.2</ele>
        <time>2021-02-07T14:42:13Z</time>
      </trkpt>
      <trkpt lat="43.63682" lon="3.7366">
        <ele>171</ele>
        <time>2021-02-07T14:42:14Z</time>
      </trkpt>
      <trkpt lat="43.63683" lon="3.73666">
        <ele>170.9</ele>
        <time>2021-02-07T14:42:15Z</time>
      </trkpt>
      <trkpt lat="43.63684" lon="3.73673">
        <ele>170.3</ele>
        <time>2021-02-07T14:42:16Z</time>
      </trkpt>
      <trkpt lat="43.63685" lon="3.73678">
        <ele>169.8</ele>
        <time>2021-02-07T14:42:17Z</time>
      </trkpt>
      <trkpt lat="43.63685" lon="3.73683">
        <ele>169.6</ele>
        <time>2021-02-07T14:42:18Z</time>
      </trkpt>
      <trkpt lat="43.63686" lon="3.73689">
        <ele>173</ele>
        <time>2021-02-07T14:42:19Z</time>
      </trkpt>
      <trkpt lat="43.63686" lon="3.73696">
        <ele>168.7</ele>
        <time>2021-02-07T14:42:20Z</time>
      </trkpt>
      <trkpt lat="43.63686" lon="3.73704">
        <ele>168.6</ele>
        <time>2021-02-07T14:42:21Z</time>
      </trkpt>
      <trkpt lat="43.63687" lon="3.73711">
        <ele>168.1</ele>
        <time>2021-02-07T14:42:22Z</time>
      </trkpt>
      <trkpt lat="43.63689" lon="3.73717">
        <ele>167.3</ele>
        <time>2021-02-07T14:42:23Z</time>
      </trkpt>
      <trkpt lat="43.63691" lon="3.73722">
        <ele>166.4</ele>
        <time>2021-02-07T14:42:24Z</time>
      </trkpt>
      <trkpt lat="43.63693" lon="3.73728">
        <ele>166</ele>
        <time>2021-02-07T14:42:25Z</time>
      </trkpt>
      <trkpt lat="43.63695" lon="3.73733">
        <ele>165.6</ele>
        <time>2021-02-07T14:42:26Z</time>
      </trkpt>
      <trkpt lat="43.63697" lon="3.7374">
        <ele>165.6</ele>
        <time>2021-02-07T14:42:27Z</time>
      </trkpt>
      <trkpt lat="43.63698" lon="3.73746">
        <ele>172</ele>
        <time>2021-02-07T14:42:28Z</time>
      </trkpt>
      <trkpt lat="43.63698" lon="3.73751">
        <ele>166.1</ele>
        <time>2021-02-07T14:42:29Z</time>
      </trkpt>
      <trkpt lat="43.63698" lon="3.73757">
        <ele>165.8</ele>
        <time>2021-02-07T14:42:30Z</time>
      </trkpt>
      <trkpt lat="43.63698" lon="3.73763">
        <ele>165.6</ele>
        <time>2021-02-07T14:42:31Z</time>
      </trkpt>
      <trkpt lat="43.63698" lon="3.7377">
        <ele>165.3</ele>
        <time>2021-02-07T14:42:32Z</time>
      </trkpt>
      <trkpt lat="43.63698" lon="3.73777">
        <ele>165</ele>
        <time>2021-02-07T14:42:33Z</time>
      </trkpt>
      <trkpt lat="43.63699" lon="3.73785">
        <ele>165</ele>
        <time>2021-02-07T14:42:34Z</time>
      </trkpt>
      <trkpt lat="43.637" lon="3.73793">
        <ele>165.2</ele>
        <time>2021-02-07T14:42:35Z</time>
      </trkpt>
      <trkpt lat="43.63701" lon="3.73801">
        <ele>165.3</ele>
        <time>2021-02-07T14:42:36Z</time>
      </trkpt>
      <trkpt lat="43.63701" lon="3.73809">
        <ele>165.4</ele>
        <time>2021-02-07T14:42:37Z</time>
      </trkpt>
      <trkpt lat="43.63702" lon="3.73816">
        <ele>172</ele>
        <time>2021-02-07T14:42:38Z</time>
      </trkpt>
      <trkpt lat="43.63702" lon="3.73823">
        <ele>164.6</ele>
        <time>2021-02-07T14:42:39Z</time>
      </trkpt>
      <trkpt lat="43.63703" lon="3.7383">
        <ele>164</ele>
        <time>2021-02-07T14:42:40Z</time>
      </trkpt>
      <trkpt lat="43.63706" lon="3.73837">
        <ele>163.2</ele>
        <time>2021-02-07T14:42:41Z</time>
      </trkpt>
      <trkpt lat="43.63708" lon="3.73845">
        <ele>163</ele>
        <time>2021-02-07T14:42:42Z</time>
      </trkpt>
      <trkpt lat="43.63708" lon="3.73854">
        <ele>163.3</ele>
        <time>2021-02-07T14:42:43Z</time>
      </trkpt>
      <trkpt lat="43.63709" lon="3.73862">
        <ele>163.3</ele>
        <time>2021-02-07T14:42:44Z</time>
      </trkpt>
      <trkpt lat="43.63709" lon="3.73869">
        <ele>163.3</ele>
        <time>2021-02-07T14:42:45Z</time>
      </trkpt>
      <trkpt lat="43.63709" lon="3.73875">
        <ele>163.3</ele>
        <time>2021-02-07T14:42:46Z</time>
      </trkpt>
      <trkpt lat="43.63709" lon="3.73881">
        <ele>163.3</ele>
        <time>2021-02-07T14:42:47Z</time>
      </trkpt>
      <trkpt lat="43.63709" lon="3.73887">
        <ele>163.3</ele>
        <time>2021-02-07T14:42:48Z</time>
      </trkpt>
      <trkpt lat="43.63709" lon="3.73892">
        <ele>170</ele>
        <time>2021-02-07T14:42:49Z</time>
      </trkpt>
      <trkpt lat="43.63708" lon="3.73899">
        <ele>163.6</ele>
        <time>2021-02-07T14:42:50Z</time>
      </trkpt>
      <trkpt lat="43.63708" lon="3.73905">
        <ele>163.6</ele>
        <time>2021-02-07T14:42:51Z</time>
      </trkpt>
      <trkpt lat="43.63708" lon="3.73912">
        <ele>163.6</ele>
        <time>2021-02-07T14:42:52Z</time>
      </trkpt>
      <trkpt lat="43.63707" lon="3.73917">
        <ele>163.8</ele>
        <time>2021-02-07T14:42:53Z</time>
      </trkpt>
      <trkpt lat="43.63707" lon="3.73922">
        <ele>163.8</ele>
        <time>2021-02-07T14:42:54Z</time>
      </trkpt>
      <trkpt lat="43.63707" lon="3.73928">
        <ele>163.8</ele>
        <time>2021-02-07T14:42:55Z</time>
      </trkpt>
      <trkpt lat="43.63707" lon="3.73934">
        <ele>163.8</ele>
        <time>2021-02-07T14:42:56Z</time>
      </trkpt>
      <trkpt lat="43.63707" lon="3.73942">
        <ele>163.8</ele>
        <time>2021-02-07T14:42:57Z</time>
      </trkpt>
      <trkpt lat="43.63708" lon="3.73948">
        <ele>170</ele>
        <time>2021-02-07T14:42:58Z</time>
      </trkpt>
      <trkpt lat="43.63709" lon="3.73956">
        <ele>163.1</ele>
        <time>2021-02-07T14:42:59Z</time>
      </trkpt>
      <trkpt lat="43.63709" lon="3.73964">
        <ele>163</ele>
        <time>2021-02-07T14:43:00Z</time>
      </trkpt>
      <trkpt lat="43.6371" lon="3.73971">
        <ele>162.5</ele>
        <time>2021-02-07T14:43:01Z</time>
      </trkpt>
      <trkpt lat="43.6371" lon="3.7398">
        <ele>162.8</ele>
        <time>2021-02-07T14:43:02Z</time>
      </trkpt>
      <trkpt lat="43.63711" lon="3.73988">
        <ele>162.9</ele>
        <time>2021-02-07T14:43:03Z</time>
      </trkpt>
      <trkpt lat="43.63712" lon="3.73996">
        <ele>163</ele>
        <time>2021-02-07T14:43:04Z</time>
      </trkpt>
      <trkpt lat="43.63714" lon="3.74002">
        <ele>162.8</ele>
        <time>2021-02-07T14:43:05Z</time>
      </trkpt>
      <trkpt lat="43.63716" lon="3.74009">
        <ele>162.6</ele>
        <time>2021-02-07T14:43:06Z</time>
      </trkpt>
      <trkpt lat="43.63718" lon="3.74017">
        <ele>162.4</ele>
        <time>2021-02-07T14:43:07Z</time>
      </trkpt>
      <trkpt lat="43.63718" lon="3.74024">
        <ele>162.6</ele>
        <time>2021-02-07T14:43:08Z</time>
      </trkpt>
      <trkpt lat="43.63718" lon="3.74032">
        <ele>169</ele>
        <time>2021-02-07T14:43:09Z</time>
      </trkpt>
      <trkpt lat="43.63716" lon="3.74039">
        <ele>162.6</ele>
        <time>2021-02-07T14:43:10Z</time>
      </trkpt>
      <trkpt lat="43.63714" lon="3.74046">
        <ele>162.6</ele>
        <time>2021-02-07T14:43:11Z</time>
      </trkpt>
      <trkpt lat="43.63713" lon="3.74052">
        <ele>162.5</ele>
        <time>2021-02-07T14:43:12Z</time>
      </trkpt>
      <trkpt lat="43.63713" lon="3.74059">
        <ele>161.9</ele>
        <time>2021-02-07T14:43:13Z</time>
      </trkpt>
      <trkpt lat="43.63713" lon="3.74066">
        <ele>161.1</ele>
        <time>2021-02-07T14:43:14Z</time>
      </trkpt>
      <trkpt lat="43.63714" lon="3.74072">
        <ele>160.2</ele>
        <time>2021-02-07T14:43:15Z</time>
      </trkpt>
      <trkpt lat="43.63715" lon="3.7408">
        <ele>159</ele>
        <time>2021-02-07T14:43:16Z</time>
      </trkpt>
      <trkpt lat="43.63715" lon="3.74088">
        <ele>158.7</ele>
        <time>2021-02-07T14:43:17Z</time>
      </trkpt>
      <trkpt lat="43.63715" lon="3.74096">
        <ele>167</ele>
        <time>2021-02-07T14:43:18Z</time>
      </trkpt>
      <trkpt lat="43.63716" lon="3.74104">
        <ele>159.1</ele>
        <time>2021-02-07T14:43:19Z</time>
      </trkpt>
      <trkpt lat="43.63716" lon="3.74112">
        <ele>159.4</ele>
        <time>2021-02-07T14:43:20Z</time>
      </trkpt>
      <trkpt lat="43.63717" lon="3.74119">
        <ele>159.9</ele>
        <time>2021-02-07T14:43:21Z</time>
      </trkpt>
      <trkpt lat="43.63717" lon="3.74126">
        <ele>160.6</ele>
        <time>2021-02-07T14:43:22Z</time>
      </trkpt>
      <trkpt lat="43.63717" lon="3.74132">
        <ele>161.2</ele>
        <time>2021-02-07T14:43:23Z</time>
      </trkpt>
      <trkpt lat="43.63716" lon="3.74136">
        <ele>161.8</ele>
        <time>2021-02-07T14:43:24Z</time>
      </trkpt>
      <trkpt lat="43.63715" lon="3.7414">
        <ele>162.3</ele>
        <time>2021-02-07T14:43:25Z</time>
      </trkpt>
      <trkpt lat="43.63713" lon="3.74144">
        <ele>162.8</ele>
        <time>2021-02-07T14:43:26Z</time>
      </trkpt>
      <trkpt lat="43.63712" lon="3.74147">
        <ele>163.1</ele>
        <time>2021-02-07T14:43:27Z</time>
      </trkpt>
      <trkpt lat="43.63711" lon="3.7415">
        <ele>163.4</ele>
        <time>2021-02-07T14:43:28Z</time>
      </trkpt>
      <trkpt lat="43.6371" lon="3.74152">
        <ele>166</ele>
        <time>2021-02-07T14:43:29Z</time>
      </trkpt>
      <trkpt lat="43.6371" lon="3.74156">
        <ele>163.8</ele>
        <time>2021-02-07T14:43:31Z</time>
      </trkpt>
      <trkpt lat="43.6371" lon="3.7416">
        <ele>164</ele>
        <time>2021-02-07T14:43:33Z</time>
      </trkpt>
      <trkpt lat="43.6371" lon="3.74163">
        <ele>164.1</ele>
        <time>2021-02-07T14:43:34Z</time>
      </trkpt>
      <trkpt lat="43.6371" lon="3.74166">
        <ele>164.2</ele>
        <time>2021-02-07T14:43:35Z</time>
      </trkpt>
      <trkpt lat="43.63711" lon="3.74169">
        <ele>164</ele>
        <time>2021-02-07T14:43:36Z</time>
      </trkpt>
      <trkpt lat="43.63711" lon="3.74174">
        <ele>164</ele>
        <time>2021-02-07T14:43:37Z</time>
      </trkpt>
      <trkpt lat="43.63712" lon="3.74178">
        <ele>167</ele>
        <time>2021-02-07T14:43:38Z</time>
      </trkpt>
      <trkpt lat="43.63713" lon="3.74184">
        <ele>163.5</ele>
        <time>2021-02-07T14:43:39Z</time>
      </trkpt>
      <trkpt lat="43.63714" lon="3.74189">
        <ele>163.2</ele>
        <time>2021-02-07T14:43:40Z</time>
      </trkpt>
      <trkpt lat="43.63715" lon="3.74195">
        <ele>162.9</ele>
        <time>2021-02-07T14:43:41Z</time>
      </trkpt>
      <trkpt lat="43.63718" lon="3.742">
        <ele>162.5</ele>
        <time>2021-02-07T14:43:42Z</time>
      </trkpt>
      <trkpt lat="43.63721" lon="3.74206">
        <ele>162.1</ele>
        <time>2021-02-07T14:43:43Z</time>
      </trkpt>
      <trkpt lat="43.63724" lon="3.74211">
        <ele>162.1</ele>
        <time>2021-02-07T14:43:44Z</time>
      </trkpt>
      <trkpt lat="43.63727" lon="3.74217">
        <ele>162.4</ele>
        <time>2021-02-07T14:43:45Z</time>
      </trkpt>
      <trkpt lat="43.63729" lon="3.74222">
        <ele>162.7</ele>
        <time>2021-02-07T14:43:46Z</time>
      </trkpt>
      <trkpt lat="43.6373" lon="3.74228">
        <ele>163.2</ele>
        <time>2021-02-07T14:43:47Z</time>
      </trkpt>
      <trkpt lat="43.63731" lon="3.74233">
        <ele>167</ele>
        <time>2021-02-07T14:43:48Z</time>
      </trkpt>
      <trkpt lat="43.63732" lon="3.74237">
        <ele>163.9</ele>
        <time>2021-02-07T14:43:49Z</time>
      </trkpt>
      <trkpt lat="43.63732" lon="3.74241">
        <ele>164.2</ele>
        <time>2021-02-07T14:43:50Z</time>
      </trkpt>
      <trkpt lat="43.63733" lon="3.74245">
        <ele>164.4</ele>
        <time>2021-02-07T14:43:51Z</time>
      </trkpt>
      <trkpt lat="43.63733" lon="3.74248">
        <ele>164.7</ele>
        <time>2021-02-07T14:43:52Z</time>
      </trkpt>
      <trkpt lat="43.63733" lon="3.74251">
        <ele>164.9</ele>
        <time>2021-02-07T14:43:53Z</time>
      </trkpt>
      <trkpt lat="43.63733" lon="3.74255">
        <ele>165.1</ele>
        <time>2021-02-07T14:43:54Z</time>
      </trkpt>
      <trkpt lat="43.63733" lon="3.74258">
        <ele>165.2</ele>
        <time>2021-02-07T14:43:55Z</time>
      </trkpt>
      <trkpt lat="43.63734" lon="3.74261">
        <ele>165.2</ele>
        <time>2021-02-07T14:43:56Z</time>
      </trkpt>
      <trkpt lat="43.63736" lon="3.74264">
        <ele>165</ele>
        <time>2021-02-07T14:43:57Z</time>
      </trkpt>
      <trkpt lat="43.63738" lon="3.74266">
        <ele>167</ele>
        <time>2021-02-07T14:43:58Z</time>
      </trkpt>
      <trkpt lat="43.6374" lon="3.7427">
        <ele>164.6</ele>
        <time>2021-02-07T14:43:59Z</time>
      </trkpt>
      <trkpt lat="43.63743" lon="3.74273">
        <ele>164.2</ele>
        <time>2021-02-07T14:44:00Z</time>
      </trkpt>
      <trkpt lat="43.63746" lon="3.74278">
        <ele>163.7</ele>
        <time>2021-02-07T14:44:01Z</time>
      </trkpt>
      <trkpt lat="43.63749" lon="3.74284">
        <ele>162.7</ele>
        <time>2021-02-07T14:44:02Z</time>
      </trkpt>
      <trkpt lat="43.63751" lon="3.7429">
        <ele>161.9</ele>
        <time>2021-02-07T14:44:03Z</time>
      </trkpt>
      <trkpt lat="43.63752" lon="3.74298">
        <ele>161.2</ele>
        <time>2021-02-07T14:44:04Z</time>
      </trkpt>
      <trkpt lat="43.63753" lon="3.74306">
        <ele>160.6</ele>
        <time>2021-02-07T14:44:05Z</time>
      </trkpt>
      <trkpt lat="43.63753" lon="3.74313">
        <ele>160.7</ele>
        <time>2021-02-07T14:44:06Z</time>
      </trkpt>
      <trkpt lat="43.63752" lon="3.7432">
        <ele>160.9</ele>
        <time>2021-02-07T14:44:07Z</time>
      </trkpt>
      <trkpt lat="43.63752" lon="3.74327">
        <ele>165</ele>
        <time>2021-02-07T14:44:08Z</time>
      </trkpt>
      <trkpt lat="43.63751" lon="3.74332">
        <ele>161</ele>
        <time>2021-02-07T14:44:09Z</time>
      </trkpt>
      <trkpt lat="43.63751" lon="3.74336">
        <ele>161.3</ele>
        <time>2021-02-07T14:44:10Z</time>
      </trkpt>
      <trkpt lat="43.63751" lon="3.74339">
        <ele>161.6</ele>
        <time>2021-02-07T14:44:11Z</time>
      </trkpt>
      <trkpt lat="43.63751" lon="3.74343">
        <ele>162</ele>
        <time>2021-02-07T14:44:12Z</time>
      </trkpt>
      <trkpt lat="43.63751" lon="3.74346">
        <ele>162.3</ele>
        <time>2021-02-07T14:44:13Z</time>
      </trkpt>
      <trkpt lat="43.63751" lon="3.74349">
        <ele>162.7</ele>
        <time>2021-02-07T14:44:14Z</time>
      </trkpt>
      <trkpt lat="43.63751" lon="3.74351">
        <ele>162.9</ele>
        <time>2021-02-07T14:44:15Z</time>
      </trkpt>
      <trkpt lat="43.63751" lon="3.74354">
        <ele>163.2</ele>
        <time>2021-02-07T14:44:16Z</time>
      </trkpt>
      <trkpt lat="43.63751" lon="3.74356">
        <ele>163.4</ele>
        <time>2021-02-07T14:44:17Z</time>
      </trkpt>
      <trkpt lat="43.63752" lon="3.74359">
        <ele>166</ele>
        <time>2021-02-07T14:44:18Z</time>
      </trkpt>
      <trkpt lat="43.63752" lon="3.74362">
        <ele>163.9</ele>
        <time>2021-02-07T14:44:19Z</time>
      </trkpt>
      <trkpt lat="43.63753" lon="3.74364">
        <ele>164</ele>
        <time>2021-02-07T14:44:20Z</time>
      </trkpt>
      <trkpt lat="43.63755" lon="3.74368">
        <ele>164</ele>
        <time>2021-02-07T14:44:22Z</time>
      </trkpt>
      <trkpt lat="43.63755" lon="3.7437">
        <ele>164.2</ele>
        <time>2021-02-07T14:44:23Z</time>
      </trkpt>
      <trkpt lat="43.63756" lon="3.74372">
        <ele>164.2</ele>
        <time>2021-02-07T14:44:24Z</time>
      </trkpt>
      <trkpt lat="43.63757" lon="3.74375">
        <ele>164.2</ele>
        <time>2021-02-07T14:44:25Z</time>
      </trkpt>
      <trkpt lat="43.63758" lon="3.74378">
        <ele>164.3</ele>
        <time>2021-02-07T14:44:26Z</time>
      </trkpt>
      <trkpt lat="43.63759" lon="3.74382">
        <ele>164.4</ele>
        <time>2021-02-07T14:44:27Z</time>
      </trkpt>
      <trkpt lat="43.6376" lon="3.74385">
        <ele>166</ele>
        <time>2021-02-07T14:44:28Z</time>
      </trkpt>
      <trkpt lat="43.63761" lon="3.74389">
        <ele>164.4</ele>
        <time>2021-02-07T14:44:29Z</time>
      </trkpt>
      <trkpt lat="43.63762" lon="3.74392">
        <ele>164.3</ele>
        <time>2021-02-07T14:44:30Z</time>
      </trkpt>
      <trkpt lat="43.63764" lon="3.74394">
        <ele>164</ele>
        <time>2021-02-07T14:44:31Z</time>
      </trkpt>
      <trkpt lat="43.63767" lon="3.74396">
        <ele>163.6</ele>
        <time>2021-02-07T14:44:32Z</time>
      </trkpt>
      <trkpt lat="43.6377" lon="3.74398">
        <ele>163.1</ele>
        <time>2021-02-07T14:44:33Z</time>
      </trkpt>
      <trkpt lat="43.63772" lon="3.74398">
        <ele>162.8</ele>
        <time>2021-02-07T14:44:34Z</time>
      </trkpt>
      <trkpt lat="43.63775" lon="3.74399">
        <ele>162.4</ele>
        <time>2021-02-07T14:44:35Z</time>
      </trkpt>
      <trkpt lat="43.63777" lon="3.74399">
        <ele>162.1</ele>
        <time>2021-02-07T14:44:36Z</time>
      </trkpt>
      <trkpt lat="43.6378" lon="3.74399">
        <ele>161.9</ele>
        <time>2021-02-07T14:44:37Z</time>
      </trkpt>
      <trkpt lat="43.63784" lon="3.74398">
        <ele>165</ele>
        <time>2021-02-07T14:44:38Z</time>
      </trkpt>
      <trkpt lat="43.63788" lon="3.74398">
        <ele>161.5</ele>
        <time>2021-02-07T14:44:39Z</time>
      </trkpt>
      <trkpt lat="43.63793" lon="3.74397">
        <ele>161.3</ele>
        <time>2021-02-07T14:44:40Z</time>
      </trkpt>
      <trkpt lat="43.63798" lon="3.74397">
        <ele>161.1</ele>
        <time>2021-02-07T14:44:41Z</time>
      </trkpt>
      <trkpt lat="43.63803" lon="3.74396">
        <ele>160.9</ele>
        <time>2021-02-07T14:44:42Z</time>
      </trkpt>
      <trkpt lat="43.63808" lon="3.74396">
        <ele>160.6</ele>
        <time>2021-02-07T14:44:43Z</time>
      </trkpt>
      <trkpt lat="43.63813" lon="3.74396">
        <ele>160.3</ele>
        <time>2021-02-07T14:44:44Z</time>
      </trkpt>
      <trkpt lat="43.63819" lon="3.74396">
        <ele>159.9</ele>
        <time>2021-02-07T14:44:45Z</time>
      </trkpt>
      <trkpt lat="43.63824" lon="3.74396">
        <ele>159.6</ele>
        <time>2021-02-07T14:44:46Z</time>
      </trkpt>
      <trkpt lat="43.6383" lon="3.74396">
        <ele>159.2</ele>
        <time>2021-02-07T14:44:47Z</time>
      </trkpt>
      <trkpt lat="43.63836" lon="3.74396">
        <ele>163</ele>
        <time>2021-02-07T14:44:48Z</time>
      </trkpt>
      <trkpt lat="43.63841" lon="3.74395">
        <ele>158.4</ele>
        <time>2021-02-07T14:44:49Z</time>
      </trkpt>
      <trkpt lat="43.63848" lon="3.74395">
        <ele>157.9</ele>
        <time>2021-02-07T14:44:50Z</time>
      </trkpt>
      <trkpt lat="43.63854" lon="3.74394">
        <ele>157.5</ele>
        <time>2021-02-07T14:44:51Z</time>
      </trkpt>
      <trkpt lat="43.6386" lon="3.74393">
        <ele>157.1</ele>
        <time>2021-02-07T14:44:52Z</time>
      </trkpt>
      <trkpt lat="43.63866" lon="3.7439">
        <ele>156.8</ele>
        <time>2021-02-07T14:44:53Z</time>
      </trkpt>
      <trkpt lat="43.63871" lon="3.74387">
        <ele>156.7</ele>
        <time>2021-02-07T14:44:54Z</time>
      </trkpt>
      <trkpt lat="43.63876" lon="3.74381">
        <ele>156.6</ele>
        <time>2021-02-07T14:44:55Z</time>
      </trkpt>
      <trkpt lat="43.6388" lon="3.74376">
        <ele>156.5</ele>
        <time>2021-02-07T14:44:56Z</time>
      </trkpt>
      <trkpt lat="43.63884" lon="3.74374">
        <ele>156.3</ele>
        <time>2021-02-07T14:44:57Z</time>
      </trkpt>
      <trkpt lat="43.63889" lon="3.74372">
        <ele>160</ele>
        <time>2021-02-07T14:44:58Z</time>
      </trkpt>
      <trkpt lat="43.63894" lon="3.7437">
        <ele>155.9</ele>
        <time>2021-02-07T14:44:59Z</time>
      </trkpt>
      <trkpt lat="43.63897" lon="3.74368">
        <ele>155.9</ele>
        <time>2021-02-07T14:45:00Z</time>
      </trkpt>
      <trkpt lat="43.63901" lon="3.7437">
        <ele>155.9</ele>
        <time>2021-02-07T14:45:01Z</time>
      </trkpt>
      <trkpt lat="43.63904" lon="3.74374">
        <ele>155.7</ele>
        <time>2021-02-07T14:45:02Z</time>
      </trkpt>
      <trkpt lat="43.63907" lon="3.74379">
        <ele>155.6</ele>
        <time>2021-02-07T14:45:03Z</time>
      </trkpt>
      <trkpt lat="43.63909" lon="3.74385">
        <ele>155.4</ele>
        <time>2021-02-07T14:45:04Z</time>
      </trkpt>
      <trkpt lat="43.6391" lon="3.74392">
        <ele>155.2</ele>
        <time>2021-02-07T14:45:05Z</time>
      </trkpt>
      <trkpt lat="43.6391" lon="3.744">
        <ele>155.2</ele>
        <time>2021-02-07T14:45:06Z</time>
      </trkpt>
      <trkpt lat="43.6391" lon="3.74408">
        <ele>155.2</ele>
        <time>2021-02-07T14:45:07Z</time>
      </trkpt>
      <trkpt lat="43.63909" lon="3.74416">
        <ele>159</ele>
        <time>2021-02-07T14:45:08Z</time>
      </trkpt>
      <trkpt lat="43.63909" lon="3.74425">
        <ele>155.1</ele>
        <time>2021-02-07T14:45:09Z</time>
      </trkpt>
      <trkpt lat="43.63908" lon="3.74435">
        <ele>154.9</ele>
        <time>2021-02-07T14:45:10Z</time>
      </trkpt>
      <trkpt lat="43.63907" lon="3.74444">
        <ele>154.7</ele>
        <time>2021-02-07T14:45:11Z</time>
      </trkpt>
      <trkpt lat="43.63907" lon="3.74453">
        <ele>154.7</ele>
        <time>2021-02-07T14:45:12Z</time>
      </trkpt>
      <trkpt lat="43.63907" lon="3.74463">
        <ele>154.7</ele>
        <time>2021-02-07T14:45:13Z</time>
      </trkpt>
      <trkpt lat="43.63908" lon="3.74472">
        <ele>154.6</ele>
        <time>2021-02-07T14:45:14Z</time>
      </trkpt>
      <trkpt lat="43.63909" lon="3.74482">
        <ele>154.5</ele>
        <time>2021-02-07T14:45:15Z</time>
      </trkpt>
      <trkpt lat="43.6391" lon="3.74492">
        <ele>154.3</ele>
        <time>2021-02-07T14:45:16Z</time>
      </trkpt>
      <trkpt lat="43.63911" lon="3.74502">
        <ele>154.2</ele>
        <time>2021-02-07T14:45:17Z</time>
      </trkpt>
      <trkpt lat="43.63912" lon="3.74512">
        <ele>157</ele>
        <time>2021-02-07T14:45:18Z</time>
      </trkpt>
      <trkpt lat="43.63914" lon="3.74522">
        <ele>153.5</ele>
        <time>2021-02-07T14:45:19Z</time>
      </trkpt>
      <trkpt lat="43.63916" lon="3.74532">
        <ele>153.2</ele>
        <time>2021-02-07T14:45:20Z</time>
      </trkpt>
      <trkpt lat="43.63918" lon="3.74543">
        <ele>153.5</ele>
        <time>2021-02-07T14:45:21Z</time>
      </trkpt>
      <trkpt lat="43.6392" lon="3.74553">
        <ele>153.7</ele>
        <time>2021-02-07T14:45:22Z</time>
      </trkpt>
      <trkpt lat="43.63923" lon="3.74563">
        <ele>153.8</ele>
        <time>2021-02-07T14:45:23Z</time>
      </trkpt>
      <trkpt lat="43.63926" lon="3.74572">
        <ele>153.7</ele>
        <time>2021-02-07T14:45:24Z</time>
      </trkpt>
      <trkpt lat="43.63928" lon="3.74582">
        <ele>153.7</ele>
        <time>2021-02-07T14:45:25Z</time>
      </trkpt>
      <trkpt lat="43.6393" lon="3.74592">
        <ele>153.6</ele>
        <time>2021-02-07T14:45:26Z</time>
      </trkpt>
      <trkpt lat="43.63932" lon="3.74602">
        <ele>153.3</ele>
        <time>2021-02-07T14:45:27Z</time>
      </trkpt>
      <trkpt lat="43.63934" lon="3.74612">
        <ele>155</ele>
        <time>2021-02-07T14:45:28Z</time>
      </trkpt>
      <trkpt lat="43.63936" lon="3.74622">
        <ele>152.9</ele>
        <time>2021-02-07T14:45:29Z</time>
      </trkpt>
      <trkpt lat="43.63937" lon="3.74633">
        <ele>152.8</ele>
        <time>2021-02-07T14:45:30Z</time>
      </trkpt>
      <trkpt lat="43.63939" lon="3.74642">
        <ele>152.7</ele>
        <time>2021-02-07T14:45:31Z</time>
      </trkpt>
      <trkpt lat="43.6394" lon="3.74651">
        <ele>152.8</ele>
        <time>2021-02-07T14:45:32Z</time>
      </trkpt>
      <trkpt lat="43.63942" lon="3.74661">
        <ele>153</ele>
        <time>2021-02-07T14:45:33Z</time>
      </trkpt>
      <trkpt lat="43.63944" lon="3.7467">
        <ele>153</ele>
        <time>2021-02-07T14:45:34Z</time>
      </trkpt>
      <trkpt lat="43.63945" lon="3.74679">
        <ele>153</ele>
        <time>2021-02-07T14:45:35Z</time>
      </trkpt>
      <trkpt lat="43.63946" lon="3.74687">
        <ele>152.9</ele>
        <time>2021-02-07T14:45:36Z</time>
      </trkpt>
      <trkpt lat="43.63947" lon="3.74695">
        <ele>152.8</ele>
        <time>2021-02-07T14:45:37Z</time>
      </trkpt>
      <trkpt lat="43.63947" lon="3.74703">
        <ele>153.1</ele>
        <time>2021-02-07T14:45:38Z</time>
      </trkpt>
      <trkpt lat="43.63947" lon="3.7471">
        <ele>155</ele>
        <time>2021-02-07T14:45:39Z</time>
      </trkpt>
      <trkpt lat="43.63948" lon="3.74717">
        <ele>153.5</ele>
        <time>2021-02-07T14:45:40Z</time>
      </trkpt>
      <trkpt lat="43.63949" lon="3.74724">
        <ele>153.5</ele>
        <time>2021-02-07T14:45:41Z</time>
      </trkpt>
      <trkpt lat="43.6395" lon="3.7473">
        <ele>153.4</ele>
        <time>2021-02-07T14:45:42Z</time>
      </trkpt>
      <trkpt lat="43.63951" lon="3.74736">
        <ele>153.3</ele>
        <time>2021-02-07T14:45:43Z</time>
      </trkpt>
      <trkpt lat="43.63952" lon="3.74742">
        <ele>153.2</ele>
        <time>2021-02-07T14:45:44Z</time>
      </trkpt>
      <trkpt lat="43.63954" lon="3.74747">
        <ele>153</ele>
        <time>2021-02-07T14:45:45Z</time>
      </trkpt>
      <trkpt lat="43.63955" lon="3.74752">
        <ele>152.9</ele>
        <time>2021-02-07T14:45:46Z</time>
      </trkpt>
      <trkpt lat="43.63956" lon="3.74758">
        <ele>153</ele>
        <time>2021-02-07T14:45:47Z</time>
      </trkpt>
      <trkpt lat="43.63957" lon="3.74764">
        <ele>155</ele>
        <time>2021-02-07T14:45:48Z</time>
      </trkpt>
      <trkpt lat="43.63958" lon="3.7477">
        <ele>153.3</ele>
        <time>2021-02-07T14:45:49Z</time>
      </trkpt>
      <trkpt lat="43.63959" lon="3.74776">
        <ele>153.4</ele>
        <time>2021-02-07T14:45:50Z</time>
      </trkpt>
      <trkpt lat="43.6396" lon="3.74782">
        <ele>153.4</ele>
        <time>2021-02-07T14:45:51Z</time>
      </trkpt>
      <trkpt lat="43.6396" lon="3.74789">
        <ele>153.5</ele>
        <time>2021-02-07T14:45:52Z</time>
      </trkpt>
      <trkpt lat="43.63961" lon="3.74795">
        <ele>153.6</ele>
        <time>2021-02-07T14:45:53Z</time>
      </trkpt>
      <trkpt lat="43.63962" lon="3.74801">
        <ele>153.6</ele>
        <time>2021-02-07T14:45:54Z</time>
      </trkpt>
      <trkpt lat="43.63963" lon="3.74807">
        <ele>153.7</ele>
        <time>2021-02-07T14:45:55Z</time>
      </trkpt>
      <trkpt lat="43.63964" lon="3.74812">
        <ele>153.7</ele>
        <time>2021-02-07T14:45:56Z</time>
      </trkpt>
      <trkpt lat="43.63965" lon="3.74817">
        <ele>153.6</ele>
        <time>2021-02-07T14:45:57Z</time>
      </trkpt>
      <trkpt lat="43.63966" lon="3.74822">
        <ele>155</ele>
        <time>2021-02-07T14:45:58Z</time>
      </trkpt>
      <trkpt lat="43.63967" lon="3.74828">
        <ele>153.5</ele>
        <time>2021-02-07T14:45:59Z</time>
      </trkpt>
      <trkpt lat="43.63968" lon="3.74833">
        <ele>153.5</ele>
        <time>2021-02-07T14:46:00Z</time>
      </trkpt>
      <trkpt lat="43.63969" lon="3.74838">
        <ele>153.3</ele>
        <time>2021-02-07T14:46:01Z</time>
      </trkpt>
      <trkpt lat="43.63971" lon="3.74843">
        <ele>153.1</ele>
        <time>2021-02-07T14:46:02Z</time>
      </trkpt>
      <trkpt lat="43.63972" lon="3.7485">
        <ele>153</ele>
        <time>2021-02-07T14:46:03Z</time>
      </trkpt>
      <trkpt lat="43.63972" lon="3.74857">
        <ele>153</ele>
        <time>2021-02-07T14:46:04Z</time>
      </trkpt>
      <trkpt lat="43.63971" lon="3.74864">
        <ele>153.2</ele>
        <time>2021-02-07T14:46:05Z</time>
      </trkpt>
      <trkpt lat="43.63971" lon="3.74871">
        <ele>153.5</ele>
        <time>2021-02-07T14:46:06Z</time>
      </trkpt>
      <trkpt lat="43.6397" lon="3.74878">
        <ele>153.8</ele>
        <time>2021-02-07T14:46:07Z</time>
      </trkpt>
      <trkpt lat="43.63969" lon="3.74884">
        <ele>156</ele>
        <time>2021-02-07T14:46:08Z</time>
      </trkpt>
      <trkpt lat="43.63968" lon="3.7489">
        <ele>154.3</ele>
        <time>2021-02-07T14:46:09Z</time>
      </trkpt>
      <trkpt lat="43.63968" lon="3.74895">
        <ele>154.3</ele>
        <time>2021-02-07T14:46:10Z</time>
      </trkpt>
      <trkpt lat="43.63967" lon="3.749">
        <ele>154.4</ele>
        <time>2021-02-07T14:46:11Z</time>
      </trkpt>
      <trkpt lat="43.63967" lon="3.74904">
        <ele>154.4</ele>
        <time>2021-02-07T14:46:12Z</time>
      </trkpt>
      <trkpt lat="43.63967" lon="3.74908">
        <ele>154.4</ele>
        <time>2021-02-07T14:46:13Z</time>
      </trkpt>
      <trkpt lat="43.63967" lon="3.74911">
        <ele>154.4</ele>
        <time>2021-02-07T14:46:14Z</time>
      </trkpt>
      <trkpt lat="43.63967" lon="3.74914">
        <ele>154.4</ele>
        <time>2021-02-07T14:46:15Z</time>
      </trkpt>
      <trkpt lat="43.63967" lon="3.74917">
        <ele>154.4</ele>
        <time>2021-02-07T14:46:16Z</time>
      </trkpt>
      <trkpt lat="43.63967" lon="3.74921">
        <ele>154.4</ele>
        <time>2021-02-07T14:46:17Z</time>
      </trkpt>
      <trkpt lat="43.63967" lon="3.74925">
        <ele>156</ele>
        <time>2021-02-07T14:46:18Z</time>
      </trkpt>
      <trkpt lat="43.63967" lon="3.7493">
        <ele>154.4</ele>
        <time>2021-02-07T14:46:19Z</time>
      </trkpt>
      <trkpt lat="43.63968" lon="3.74935">
        <ele>154.3</ele>
        <time>2021-02-07T14:46:20Z</time>
      </trkpt>
      <trkpt lat="43.63969" lon="3.7494">
        <ele>154.2</ele>
        <time>2021-02-07T14:46:21Z</time>
      </trkpt>
      <trkpt lat="43.6397" lon="3.74944">
        <ele>154.2</ele>
        <time>2021-02-07T14:46:22Z</time>
      </trkpt>
      <trkpt lat="43.63971" lon="3.74949">
        <ele>154.2</ele>
        <time>2021-02-07T14:46:23Z</time>
      </trkpt>
      <trkpt lat="43.63971" lon="3.74953">
        <ele>154.4</ele>
        <time>2021-02-07T14:46:24Z</time>
      </trkpt>
      <trkpt lat="43.63971" lon="3.74957">
        <ele>154.5</ele>
        <time>2021-02-07T14:46:25Z</time>
      </trkpt>
      <trkpt lat="43.63972" lon="3.7496">
        <ele>154.6</ele>
        <time>2021-02-07T14:46:26Z</time>
      </trkpt>
      <trkpt lat="43.63971" lon="3.74963">
        <ele>154.7</ele>
        <time>2021-02-07T14:46:27Z</time>
      </trkpt>
      <trkpt lat="43.63969" lon="3.74966">
        <ele>154.9</ele>
        <time>2021-02-07T14:46:29Z</time>
      </trkpt>
      <trkpt lat="43.63969" lon="3.74969">
        <ele>155</ele>
        <time>2021-02-07T14:46:31Z</time>
      </trkpt>
      <trkpt lat="43.63969" lon="3.74972">
        <ele>155.1</ele>
        <time>2021-02-07T14:46:32Z</time>
      </trkpt>
      <trkpt lat="43.63968" lon="3.74975">
        <ele>155.3</ele>
        <time>2021-02-07T14:46:33Z</time>
      </trkpt>
      <trkpt lat="43.63967" lon="3.74976">
        <ele>155.3</ele>
        <time>2021-02-07T14:46:34Z</time>
      </trkpt>
      <trkpt lat="43.63964" lon="3.74978">
        <ele>155.5</ele>
        <time>2021-02-07T14:46:36Z</time>
      </trkpt>
      <trkpt lat="43.63962" lon="3.74976">
        <ele>155.5</ele>
        <time>2021-02-07T14:46:38Z</time>
      </trkpt>
      <trkpt lat="43.6396" lon="3.74975">
        <ele>155.5</ele>
        <time>2021-02-07T14:46:40Z</time>
      </trkpt>
      <trkpt lat="43.6396" lon="3.74978">
        <ele>155.6</ele>
        <time>2021-02-07T14:46:42Z</time>
      </trkpt>
      <trkpt lat="43.63962" lon="3.74979">
        <ele>155.6</ele>
        <time>2021-02-07T14:46:44Z</time>
      </trkpt>
      <trkpt lat="43.63962" lon="3.74979">
        <ele>155</ele>
        <time>2021-02-07T14:46:51Z</time>
      </trkpt>
      <trkpt lat="43.63966" lon="3.74983">
        <ele>154</ele>
        <time>2021-02-07T14:47:46Z</time>
      </trkpt>
      <trkpt lat="43.63967" lon="3.74985">
        <ele>155.6</ele>
        <time>2021-02-07T14:47:47Z</time>
      </trkpt>
      <trkpt lat="43.63967" lon="3.7499">
        <ele>155.8</ele>
        <time>2021-02-07T14:47:49Z</time>
      </trkpt>
      <trkpt lat="43.63968" lon="3.74993">
        <ele>155.9</ele>
        <time>2021-02-07T14:47:51Z</time>
      </trkpt>
      <trkpt lat="43.63968" lon="3.74994">
        <ele>154</ele>
        <time>2021-02-07T14:47:57Z</time>
      </trkpt>
      <trkpt lat="43.63968" lon="3.74997">
        <ele>154</ele>
        <time>2021-02-07T14:48:04Z</time>
      </trkpt>
      <trkpt lat="43.63971" lon="3.75008">
        <ele>156</ele>
        <time>2021-02-07T14:48:30Z</time>
      </trkpt>
      <trkpt lat="43.63972" lon="3.75012">
        <ele>156.4</ele>
        <time>2021-02-07T14:48:31Z</time>
      </trkpt>
      <trkpt lat="43.63973" lon="3.75014">
        <ele>156.5</ele>
        <time>2021-02-07T14:48:32Z</time>
      </trkpt>
      <trkpt lat="43.63974" lon="3.75017">
        <ele>156.5</ele>
        <time>2021-02-07T14:48:33Z</time>
      </trkpt>
      <trkpt lat="43.63975" lon="3.75019">
        <ele>156.6</ele>
        <time>2021-02-07T14:48:34Z</time>
      </trkpt>
      <trkpt lat="43.63976" lon="3.75022">
        <ele>156.6</ele>
        <time>2021-02-07T14:48:35Z</time>
      </trkpt>
      <trkpt lat="43.63976" lon="3.75025">
        <ele>156.8</ele>
        <time>2021-02-07T14:48:36Z</time>
      </trkpt>
      <trkpt lat="43.63976" lon="3.75027">
        <ele>156.8</ele>
        <time>2021-02-07T14:48:37Z</time>
      </trkpt>
      <trkpt lat="43.63977" lon="3.75031">
        <ele>157</ele>
        <time>2021-02-07T14:48:39Z</time>
      </trkpt>
      <trkpt lat="43.63978" lon="3.75035">
        <ele>157.1</ele>
        <time>2021-02-07T14:48:41Z</time>
      </trkpt>
      <trkpt lat="43.63978" lon="3.75039">
        <ele>157.2</ele>
        <time>2021-02-07T14:48:43Z</time>
      </trkpt>
      <trkpt lat="43.63979" lon="3.75043">
        <ele>157.3</ele>
        <time>2021-02-07T14:48:45Z</time>
      </trkpt>
      <trkpt lat="43.63979" lon="3.75046">
        <ele>157.4</ele>
        <time>2021-02-07T14:48:46Z</time>
      </trkpt>
      <trkpt lat="43.63978" lon="3.7505">
        <ele>157.6</ele>
        <time>2021-02-07T14:48:48Z</time>
      </trkpt>
      <trkpt lat="43.63976" lon="3.75055">
        <ele>158</ele>
        <time>2021-02-07T14:48:50Z</time>
      </trkpt>
      <trkpt lat="43.63974" lon="3.75058">
        <ele>158</ele>
        <time>2021-02-07T14:48:52Z</time>
      </trkpt>
      <trkpt lat="43.63971" lon="3.75061">
        <ele>158.2</ele>
        <time>2021-02-07T14:48:54Z</time>
      </trkpt>
      <trkpt lat="43.6397" lon="3.75063">
        <ele>158.3</ele>
        <time>2021-02-07T14:48:55Z</time>
      </trkpt>
      <trkpt lat="43.63968" lon="3.75064">
        <ele>158.4</ele>
        <time>2021-02-07T14:48:56Z</time>
      </trkpt>
      <trkpt lat="43.63966" lon="3.75065">
        <ele>158.5</ele>
        <time>2021-02-07T14:48:57Z</time>
      </trkpt>
      <trkpt lat="43.63964" lon="3.75066">
        <ele>158.6</ele>
        <time>2021-02-07T14:48:58Z</time>
      </trkpt>
      <trkpt lat="43.63962" lon="3.75067">
        <ele>158</ele>
        <time>2021-02-07T14:48:59Z</time>
      </trkpt>
      <trkpt lat="43.63961" lon="3.75069">
        <ele>158.7</ele>
        <time>2021-02-07T14:49:00Z</time>
      </trkpt>
      <trkpt lat="43.63959" lon="3.7507">
        <ele>158.7</ele>
        <time>2021-02-07T14:49:01Z</time>
      </trkpt>
      <trkpt lat="43.63957" lon="3.75071">
        <ele>158.8</ele>
        <time>2021-02-07T14:49:02Z</time>
      </trkpt>
      <trkpt lat="43.63956" lon="3.75073">
        <ele>158.8</ele>
        <time>2021-02-07T14:49:03Z</time>
      </trkpt>
      <trkpt lat="43.63954" lon="3.75074">
        <ele>158.9</ele>
        <time>2021-02-07T14:49:04Z</time>
      </trkpt>
      <trkpt lat="43.63952" lon="3.75076">
        <ele>158.9</ele>
        <time>2021-02-07T14:49:05Z</time>
      </trkpt>
      <trkpt lat="43.63951" lon="3.75078">
        <ele>159</ele>
        <time>2021-02-07T14:49:06Z</time>
      </trkpt>
      <trkpt lat="43.63949" lon="3.7508">
        <ele>159</ele>
        <time>2021-02-07T14:49:07Z</time>
      </trkpt>
      <trkpt lat="43.63947" lon="3.75081">
        <ele>159</ele>
        <time>2021-02-07T14:49:08Z</time>
      </trkpt>
      <trkpt lat="43.63946" lon="3.75084">
        <ele>159</ele>
        <time>2021-02-07T14:49:10Z</time>
      </trkpt>
      <trkpt lat="43.63943" lon="3.75087">
        <ele>159.1</ele>
        <time>2021-02-07T14:49:12Z</time>
      </trkpt>
      <trkpt lat="43.63941" lon="3.75089">
        <ele>159.1</ele>
        <time>2021-02-07T14:49:13Z</time>
      </trkpt>
      <trkpt lat="43.6394" lon="3.7509">
        <ele>159.1</ele>
        <time>2021-02-07T14:49:14Z</time>
      </trkpt>
      <trkpt lat="43.63938" lon="3.75091">
        <ele>159</ele>
        <time>2021-02-07T14:49:15Z</time>
      </trkpt>
      <trkpt lat="43.63936" lon="3.75093">
        <ele>159</ele>
        <time>2021-02-07T14:49:16Z</time>
      </trkpt>
      <trkpt lat="43.63935" lon="3.75095">
        <ele>159.1</ele>
        <time>2021-02-07T14:49:17Z</time>
      </trkpt>
      <trkpt lat="43.63933" lon="3.75097">
        <ele>159.1</ele>
        <time>2021-02-07T14:49:18Z</time>
      </trkpt>
      <trkpt lat="43.63932" lon="3.75099">
        <ele>158</ele>
        <time>2021-02-07T14:49:19Z</time>
      </trkpt>
      <trkpt lat="43.6393" lon="3.75101">
        <ele>159.1</ele>
        <time>2021-02-07T14:49:20Z</time>
      </trkpt>
      <trkpt lat="43.63928" lon="3.75103">
        <ele>159.1</ele>
        <time>2021-02-07T14:49:21Z</time>
      </trkpt>
      <trkpt lat="43.63926" lon="3.75105">
        <ele>159.1</ele>
        <time>2021-02-07T14:49:22Z</time>
      </trkpt>
      <trkpt lat="43.63924" lon="3.75107">
        <ele>159.1</ele>
        <time>2021-02-07T14:49:23Z</time>
      </trkpt>
      <trkpt lat="43.63922" lon="3.7511">
        <ele>159.2</ele>
        <time>2021-02-07T14:49:24Z</time>
      </trkpt>
      <trkpt lat="43.63921" lon="3.75112">
        <ele>159.2</ele>
        <time>2021-02-07T14:49:25Z</time>
      </trkpt>
      <trkpt lat="43.63919" lon="3.75114">
        <ele>159.1</ele>
        <time>2021-02-07T14:49:26Z</time>
      </trkpt>
      <trkpt lat="43.63917" lon="3.75116">
        <ele>159</ele>
        <time>2021-02-07T14:49:27Z</time>
      </trkpt>
      <trkpt lat="43.63915" lon="3.75118">
        <ele>158.9</ele>
        <time>2021-02-07T14:49:28Z</time>
      </trkpt>
      <trkpt lat="43.63913" lon="3.7512">
        <ele>157</ele>
        <time>2021-02-07T14:49:29Z</time>
      </trkpt>
      <trkpt lat="43.63911" lon="3.75122">
        <ele>158.6</ele>
        <time>2021-02-07T14:49:30Z</time>
      </trkpt>
      <trkpt lat="43.63909" lon="3.75125">
        <ele>158.4</ele>
        <time>2021-02-07T14:49:31Z</time>
      </trkpt>
      <trkpt lat="43.63906" lon="3.75128">
        <ele>158.2</ele>
        <time>2021-02-07T14:49:32Z</time>
      </trkpt>
      <trkpt lat="43.63904" lon="3.75131">
        <ele>158.1</ele>
        <time>2021-02-07T14:49:33Z</time>
      </trkpt>
      <trkpt lat="43.63901" lon="3.75134">
        <ele>157.9</ele>
        <time>2021-02-07T14:49:34Z</time>
      </trkpt>
      <trkpt lat="43.63899" lon="3.75136">
        <ele>157.7</ele>
        <time>2021-02-07T14:49:35Z</time>
      </trkpt>
      <trkpt lat="43.63896" lon="3.7514">
        <ele>157.5</ele>
        <time>2021-02-07T14:49:36Z</time>
      </trkpt>
      <trkpt lat="43.63894" lon="3.75143">
        <ele>157.4</ele>
        <time>2021-02-07T14:49:37Z</time>
      </trkpt>
      <trkpt lat="43.63892" lon="3.75147">
        <ele>157.2</ele>
        <time>2021-02-07T14:49:38Z</time>
      </trkpt>
      <trkpt lat="43.63889" lon="3.75151">
        <ele>157</ele>
        <time>2021-02-07T14:49:39Z</time>
      </trkpt>
      <trkpt lat="43.63887" lon="3.75155">
        <ele>156</ele>
        <time>2021-02-07T14:49:40Z</time>
      </trkpt>
      <trkpt lat="43.63886" lon="3.7516">
        <ele>156.8</ele>
        <time>2021-02-07T14:49:41Z</time>
      </trkpt>
      <trkpt lat="43.63885" lon="3.75165">
        <ele>156.7</ele>
        <time>2021-02-07T14:49:42Z</time>
      </trkpt>
      <trkpt lat="43.63884" lon="3.7517">
        <ele>156.6</ele>
        <time>2021-02-07T14:49:43Z</time>
      </trkpt>
      <trkpt lat="43.63884" lon="3.75175">
        <ele>156.6</ele>
        <time>2021-02-07T14:49:44Z</time>
      </trkpt>
      <trkpt lat="43.63883" lon="3.75181">
        <ele>156.6</ele>
        <time>2021-02-07T14:49:45Z</time>
      </trkpt>
      <trkpt lat="43.63882" lon="3.75186">
        <ele>156.5</ele>
        <time>2021-02-07T14:49:46Z</time>
      </trkpt>
      <trkpt lat="43.63882" lon="3.75191">
        <ele>156.5</ele>
        <time>2021-02-07T14:49:47Z</time>
      </trkpt>
      <trkpt lat="43.63881" lon="3.75196">
        <ele>156.4</ele>
        <time>2021-02-07T14:49:48Z</time>
      </trkpt>
      <trkpt lat="43.63882" lon="3.75201">
        <ele>156</ele>
        <time>2021-02-07T14:49:49Z</time>
      </trkpt>
      <trkpt lat="43.63883" lon="3.75205">
        <ele>156.6</ele>
        <time>2021-02-07T14:49:50Z</time>
      </trkpt>
      <trkpt lat="43.63884" lon="3.7521">
        <ele>156.6</ele>
        <time>2021-02-07T14:49:51Z</time>
      </trkpt>
      <trkpt lat="43.63884" lon="3.75215">
        <ele>156.6</ele>
        <time>2021-02-07T14:49:52Z</time>
      </trkpt>
      <trkpt lat="43.63885" lon="3.7522">
        <ele>156.7</ele>
        <time>2021-02-07T14:49:53Z</time>
      </trkpt>
      <trkpt lat="43.63885" lon="3.75225">
        <ele>156.7</ele>
        <time>2021-02-07T14:49:54Z</time>
      </trkpt>
      <trkpt lat="43.63885" lon="3.7523">
        <ele>156.7</ele>
        <time>2021-02-07T14:49:55Z</time>
      </trkpt>
      <trkpt lat="43.63885" lon="3.75235">
        <ele>156.7</ele>
        <time>2021-02-07T14:49:56Z</time>
      </trkpt>
      <trkpt lat="43.63887" lon="3.7524">
        <ele>156.9</ele>
        <time>2021-02-07T14:49:57Z</time>
      </trkpt>
      <trkpt lat="43.63888" lon="3.75245">
        <ele>156.9</ele>
        <time>2021-02-07T14:49:58Z</time>
      </trkpt>
      <trkpt lat="43.63889" lon="3.7525">
        <ele>156</ele>
        <time>2021-02-07T14:49:59Z</time>
      </trkpt>
      <trkpt lat="43.6389" lon="3.75254">
        <ele>157.1</ele>
        <time>2021-02-07T14:50:00Z</time>
      </trkpt>
      <trkpt lat="43.63891" lon="3.75259">
        <ele>157.2</ele>
        <time>2021-02-07T14:50:01Z</time>
      </trkpt>
      <trkpt lat="43.63893" lon="3.75263">
        <ele>157.3</ele>
        <time>2021-02-07T14:50:02Z</time>
      </trkpt>
      <trkpt lat="43.63894" lon="3.75268">
        <ele>157.4</ele>
        <time>2021-02-07T14:50:03Z</time>
      </trkpt>
      <trkpt lat="43.63894" lon="3.75272">
        <ele>157.4</ele>
        <time>2021-02-07T14:50:04Z</time>
      </trkpt>
      <trkpt lat="43.63895" lon="3.75276">
        <ele>157.4</ele>
        <time>2021-02-07T14:50:05Z</time>
      </trkpt>
      <trkpt lat="43.63896" lon="3.7528">
        <ele>157.5</ele>
        <time>2021-02-07T14:50:06Z</time>
      </trkpt>
      <trkpt lat="43.63896" lon="3.75285">
        <ele>157.5</ele>
        <time>2021-02-07T14:50:07Z</time>
      </trkpt>
      <trkpt lat="43.63896" lon="3.75289">
        <ele>157.5</ele>
        <time>2021-02-07T14:50:08Z</time>
      </trkpt>
      <trkpt lat="43.63897" lon="3.75293">
        <ele>156</ele>
        <time>2021-02-07T14:50:09Z</time>
      </trkpt>
      <trkpt lat="43.63897" lon="3.75298">
        <ele>157.6</ele>
        <time>2021-02-07T14:50:10Z</time>
      </trkpt>
      <trkpt lat="43.63897" lon="3.75303">
        <ele>157.6</ele>
        <time>2021-02-07T14:50:11Z</time>
      </trkpt>
      <trkpt lat="43.63897" lon="3.75308">
        <ele>157.6</ele>
        <time>2021-02-07T14:50:12Z</time>
      </trkpt>
      <trkpt lat="43.63898" lon="3.75313">
        <ele>157.7</ele>
        <time>2021-02-07T14:50:13Z</time>
      </trkpt>
      <trkpt lat="43.63898" lon="3.75318">
        <ele>157.7</ele>
        <time>2021-02-07T14:50:14Z</time>
      </trkpt>
      <trkpt lat="43.63899" lon="3.75323">
        <ele>157.7</ele>
        <time>2021-02-07T14:50:15Z</time>
      </trkpt>
      <trkpt lat="43.63899" lon="3.75328">
        <ele>157.7</ele>
        <time>2021-02-07T14:50:16Z</time>
      </trkpt>
      <trkpt lat="43.63899" lon="3.75333">
        <ele>157.7</ele>
        <time>2021-02-07T14:50:17Z</time>
      </trkpt>
      <trkpt lat="43.639" lon="3.75337">
        <ele>157.8</ele>
        <time>2021-02-07T14:50:18Z</time>
      </trkpt>
      <trkpt lat="43.639" lon="3.75342">
        <ele>156</ele>
        <time>2021-02-07T14:50:19Z</time>
      </trkpt>
      <trkpt lat="43.63901" lon="3.75347">
        <ele>157.9</ele>
        <time>2021-02-07T14:50:20Z</time>
      </trkpt>
      <trkpt lat="43.63902" lon="3.75351">
        <ele>157.9</ele>
        <time>2021-02-07T14:50:21Z</time>
      </trkpt>
      <trkpt lat="43.63902" lon="3.75356">
        <ele>157.9</ele>
        <time>2021-02-07T14:50:22Z</time>
      </trkpt>
      <trkpt lat="43.63902" lon="3.7536">
        <ele>157.9</ele>
        <time>2021-02-07T14:50:23Z</time>
      </trkpt>
      <trkpt lat="43.63902" lon="3.75365">
        <ele>157.9</ele>
        <time>2021-02-07T14:50:24Z</time>
      </trkpt>
      <trkpt lat="43.63902" lon="3.7537">
        <ele>157.9</ele>
        <time>2021-02-07T14:50:25Z</time>
      </trkpt>
      <trkpt lat="43.63902" lon="3.75374">
        <ele>157.9</ele>
        <time>2021-02-07T14:50:26Z</time>
      </trkpt>
      <trkpt lat="43.63902" lon="3.75379">
        <ele>157.9</ele>
        <time>2021-02-07T14:50:27Z</time>
      </trkpt>
      <trkpt lat="43.63902" lon="3.75383">
        <ele>157.9</ele>
        <time>2021-02-07T14:50:28Z</time>
      </trkpt>
      <trkpt lat="43.63902" lon="3.75388">
        <ele>157</ele>
        <time>2021-02-07T14:50:29Z</time>
      </trkpt>
      <trkpt lat="43.63902" lon="3.75392">
        <ele>157.9</ele>
        <time>2021-02-07T14:50:30Z</time>
      </trkpt>
      <trkpt lat="43.63901" lon="3.75397">
        <ele>157.9</ele>
        <time>2021-02-07T14:50:31Z</time>
      </trkpt>
      <trkpt lat="43.63901" lon="3.75401">
        <ele>157.9</ele>
        <time>2021-02-07T14:50:32Z</time>
      </trkpt>
      <trkpt lat="43.63901" lon="3.75405">
        <ele>157.9</ele>
        <time>2021-02-07T14:50:33Z</time>
      </trkpt>
      <trkpt lat="43.63901" lon="3.75409">
        <ele>157.9</ele>
        <time>2021-02-07T14:50:34Z</time>
      </trkpt>
      <trkpt lat="43.63901" lon="3.75413">
        <ele>157.9</ele>
        <time>2021-02-07T14:50:35Z</time>
      </trkpt>
      <trkpt lat="43.63901" lon="3.75417">
        <ele>157.9</ele>
        <time>2021-02-07T14:50:36Z</time>
      </trkpt>
      <trkpt lat="43.63902" lon="3.75421">
        <ele>157.9</ele>
        <time>2021-02-07T14:50:37Z</time>
      </trkpt>
      <trkpt lat="43.63902" lon="3.75425">
        <ele>157.9</ele>
        <time>2021-02-07T14:50:38Z</time>
      </trkpt>
      <trkpt lat="43.63902" lon="3.75429">
        <ele>156</ele>
        <time>2021-02-07T14:50:39Z</time>
      </trkpt>
      <trkpt lat="43.63902" lon="3.75433">
        <ele>157.9</ele>
        <time>2021-02-07T14:50:40Z</time>
      </trkpt>
      <trkpt lat="43.63903" lon="3.75437">
        <ele>158</ele>
        <time>2021-02-07T14:50:41Z</time>
      </trkpt>
      <trkpt lat="43.63903" lon="3.75441">
        <ele>158</ele>
        <time>2021-02-07T14:50:42Z</time>
      </trkpt>
      <trkpt lat="43.63903" lon="3.75445">
        <ele>158</ele>
        <time>2021-02-07T14:50:43Z</time>
      </trkpt>
      <trkpt lat="43.63903" lon="3.7545">
        <ele>157.9</ele>
        <time>2021-02-07T14:50:44Z</time>
      </trkpt>
      <trkpt lat="43.63904" lon="3.75455">
        <ele>157.9</ele>
        <time>2021-02-07T14:50:45Z</time>
      </trkpt>
      <trkpt lat="43.63904" lon="3.75459">
        <ele>157.8</ele>
        <time>2021-02-07T14:50:46Z</time>
      </trkpt>
      <trkpt lat="43.63905" lon="3.75464">
        <ele>157.8</ele>
        <time>2021-02-07T14:50:47Z</time>
      </trkpt>
      <trkpt lat="43.63905" lon="3.75469">
        <ele>157.6</ele>
        <time>2021-02-07T14:50:48Z</time>
      </trkpt>
      <trkpt lat="43.63906" lon="3.75473">
        <ele>157</ele>
        <time>2021-02-07T14:50:49Z</time>
      </trkpt>
      <trkpt lat="43.63907" lon="3.75477">
        <ele>157.5</ele>
        <time>2021-02-07T14:50:50Z</time>
      </trkpt>
      <trkpt lat="43.63907" lon="3.75482">
        <ele>157.4</ele>
        <time>2021-02-07T14:50:51Z</time>
      </trkpt>
      <trkpt lat="43.63908" lon="3.75486">
        <ele>157.3</ele>
        <time>2021-02-07T14:50:52Z</time>
      </trkpt>
      <trkpt lat="43.63909" lon="3.75489">
        <ele>157.3</ele>
        <time>2021-02-07T14:50:53Z</time>
      </trkpt>
      <trkpt lat="43.63909" lon="3.75493">
        <ele>157.2</ele>
        <time>2021-02-07T14:50:54Z</time>
      </trkpt>
      <trkpt lat="43.6391" lon="3.75496">
        <ele>157.1</ele>
        <time>2021-02-07T14:50:55Z</time>
      </trkpt>
      <trkpt lat="43.6391" lon="3.755">
        <ele>157</ele>
        <time>2021-02-07T14:50:56Z</time>
      </trkpt>
      <trkpt lat="43.63911" lon="3.75504">
        <ele>156.9</ele>
        <time>2021-02-07T14:50:57Z</time>
      </trkpt>
      <trkpt lat="43.63911" lon="3.75507">
        <ele>156.7</ele>
        <time>2021-02-07T14:50:58Z</time>
      </trkpt>
      <trkpt lat="43.63911" lon="3.75511">
        <ele>156</ele>
        <time>2021-02-07T14:50:59Z</time>
      </trkpt>
      <trkpt lat="43.6391" lon="3.75515">
        <ele>156.5</ele>
        <time>2021-02-07T14:51:00Z</time>
      </trkpt>
      <trkpt lat="43.63909" lon="3.75519">
        <ele>156.3</ele>
        <time>2021-02-07T14:51:01Z</time>
      </trkpt>
      <trkpt lat="43.63908" lon="3.75523">
        <ele>156.2</ele>
        <time>2021-02-07T14:51:02Z</time>
      </trkpt>
      <trkpt lat="43.63907" lon="3.75528">
        <ele>156</ele>
        <time>2021-02-07T14:51:03Z</time>
      </trkpt>
      <trkpt lat="43.63905" lon="3.75532">
        <ele>155.8</ele>
        <time>2021-02-07T14:51:04Z</time>
      </trkpt>
      <trkpt lat="43.63902" lon="3.75537">
        <ele>155.7</ele>
        <time>2021-02-07T14:51:05Z</time>
      </trkpt>
      <trkpt lat="43.63901" lon="3.75542">
        <ele>155.5</ele>
        <time>2021-02-07T14:51:06Z</time>
      </trkpt>
      <trkpt lat="43.63899" lon="3.75548">
        <ele>155.3</ele>
        <time>2021-02-07T14:51:07Z</time>
      </trkpt>
      <trkpt lat="43.63898" lon="3.75554">
        <ele>155.1</ele>
        <time>2021-02-07T14:51:08Z</time>
      </trkpt>
      <trkpt lat="43.63897" lon="3.7556">
        <ele>155</ele>
        <time>2021-02-07T14:51:09Z</time>
      </trkpt>
      <trkpt lat="43.63896" lon="3.75566">
        <ele>154.6</ele>
        <time>2021-02-07T14:51:10Z</time>
      </trkpt>
      <trkpt lat="43.63895" lon="3.75573">
        <ele>154.4</ele>
        <time>2021-02-07T14:51:11Z</time>
      </trkpt>
      <trkpt lat="43.63894" lon="3.75579">
        <ele>154.2</ele>
        <time>2021-02-07T14:51:12Z</time>
      </trkpt>
      <trkpt lat="43.63894" lon="3.75586">
        <ele>153.9</ele>
        <time>2021-02-07T14:51:13Z</time>
      </trkpt>
      <trkpt lat="43.63893" lon="3.75592">
        <ele>153.6</ele>
        <time>2021-02-07T14:51:14Z</time>
      </trkpt>
      <trkpt lat="43.63893" lon="3.75599">
        <ele>153.4</ele>
        <time>2021-02-07T14:51:15Z</time>
      </trkpt>
      <trkpt lat="43.63892" lon="3.75606">
        <ele>153.1</ele>
        <time>2021-02-07T14:51:16Z</time>
      </trkpt>
      <trkpt lat="43.63891" lon="3.75613">
        <ele>152.8</ele>
        <time>2021-02-07T14:51:17Z</time>
      </trkpt>
      <trkpt lat="43.63889" lon="3.75621">
        <ele>152.3</ele>
        <time>2021-02-07T14:51:18Z</time>
      </trkpt>
      <trkpt lat="43.63888" lon="3.75628">
        <ele>154</ele>
        <time>2021-02-07T14:51:19Z</time>
      </trkpt>
      <trkpt lat="43.63885" lon="3.75635">
        <ele>151.4</ele>
        <time>2021-02-07T14:51:20Z</time>
      </trkpt>
      <trkpt lat="43.63883" lon="3.75643">
        <ele>151</ele>
        <time>2021-02-07T14:51:21Z</time>
      </trkpt>
      <trkpt lat="43.6388" lon="3.7565">
        <ele>150.8</ele>
        <time>2021-02-07T14:51:22Z</time>
      </trkpt>
      <trkpt lat="43.63878" lon="3.75658">
        <ele>150.4</ele>
        <time>2021-02-07T14:51:23Z</time>
      </trkpt>
      <trkpt lat="43.63874" lon="3.75665">
        <ele>150.1</ele>
        <time>2021-02-07T14:51:24Z</time>
      </trkpt>
      <trkpt lat="43.6387" lon="3.75672">
        <ele>149.6</ele>
        <time>2021-02-07T14:51:25Z</time>
      </trkpt>
      <trkpt lat="43.63866" lon="3.75678">
        <ele>149.2</ele>
        <time>2021-02-07T14:51:26Z</time>
      </trkpt>
      <trkpt lat="43.63862" lon="3.75684">
        <ele>148.8</ele>
        <time>2021-02-07T14:51:27Z</time>
      </trkpt>
      <trkpt lat="43.63858" lon="3.75691">
        <ele>148.3</ele>
        <time>2021-02-07T14:51:28Z</time>
      </trkpt>
      <trkpt lat="43.63854" lon="3.75698">
        <ele>152</ele>
        <time>2021-02-07T14:51:29Z</time>
      </trkpt>
      <trkpt lat="43.63849" lon="3.75705">
        <ele>147.9</ele>
        <time>2021-02-07T14:51:30Z</time>
      </trkpt>
      <trkpt lat="43.63846" lon="3.75712">
        <ele>147.6</ele>
        <time>2021-02-07T14:51:31Z</time>
      </trkpt>
      <trkpt lat="43.63842" lon="3.75719">
        <ele>147.2</ele>
        <time>2021-02-07T14:51:32Z</time>
      </trkpt>
      <trkpt lat="43.63838" lon="3.75726">
        <ele>146.8</ele>
        <time>2021-02-07T14:51:33Z</time>
      </trkpt>
      <trkpt lat="43.63835" lon="3.75734">
        <ele>146.6</ele>
        <time>2021-02-07T14:51:34Z</time>
      </trkpt>
      <trkpt lat="43.63831" lon="3.75742">
        <ele>146.4</ele>
        <time>2021-02-07T14:51:35Z</time>
      </trkpt>
      <trkpt lat="43.63827" lon="3.75749">
        <ele>146.3</ele>
        <time>2021-02-07T14:51:36Z</time>
      </trkpt>
      <trkpt lat="43.63823" lon="3.75756">
        <ele>145.9</ele>
        <time>2021-02-07T14:51:37Z</time>
      </trkpt>
      <trkpt lat="43.63819" lon="3.75763">
        <ele>145.6</ele>
        <time>2021-02-07T14:51:38Z</time>
      </trkpt>
      <trkpt lat="43.63814" lon="3.75769">
        <ele>150</ele>
        <time>2021-02-07T14:51:39Z</time>
      </trkpt>
      <trkpt lat="43.63809" lon="3.75775">
        <ele>145.1</ele>
        <time>2021-02-07T14:51:40Z</time>
      </trkpt>
      <trkpt lat="43.63804" lon="3.7578">
        <ele>145</ele>
        <time>2021-02-07T14:51:41Z</time>
      </trkpt>
      <trkpt lat="43.638" lon="3.75786">
        <ele>144.9</ele>
        <time>2021-02-07T14:51:42Z</time>
      </trkpt>
      <trkpt lat="43.63796" lon="3.75792">
        <ele>144.8</ele>
        <time>2021-02-07T14:51:43Z</time>
      </trkpt>
      <trkpt lat="43.63792" lon="3.75798">
        <ele>144.8</ele>
        <time>2021-02-07T14:51:44Z</time>
      </trkpt>
      <trkpt lat="43.63788" lon="3.75804">
        <ele>144.7</ele>
        <time>2021-02-07T14:51:45Z</time>
      </trkpt>
      <trkpt lat="43.63785" lon="3.7581">
        <ele>144.6</ele>
        <time>2021-02-07T14:51:46Z</time>
      </trkpt>
      <trkpt lat="43.63782" lon="3.75816">
        <ele>144.5</ele>
        <time>2021-02-07T14:51:47Z</time>
      </trkpt>
      <trkpt lat="43.63778" lon="3.75822">
        <ele>144.4</ele>
        <time>2021-02-07T14:51:48Z</time>
      </trkpt>
      <trkpt lat="43.63775" lon="3.75828">
        <ele>147</ele>
        <time>2021-02-07T14:51:49Z</time>
      </trkpt>
      <trkpt lat="43.63772" lon="3.75834">
        <ele>144.2</ele>
        <time>2021-02-07T14:51:50Z</time>
      </trkpt>
      <trkpt lat="43.63768" lon="3.7584">
        <ele>144</ele>
        <time>2021-02-07T14:51:51Z</time>
      </trkpt>
      <trkpt lat="43.63765" lon="3.75845">
        <ele>143.8</ele>
        <time>2021-02-07T14:51:52Z</time>
      </trkpt>
      <trkpt lat="43.63761" lon="3.7585">
        <ele>143.6</ele>
        <time>2021-02-07T14:51:53Z</time>
      </trkpt>
      <trkpt lat="43.63758" lon="3.75856">
        <ele>143.3</ele>
        <time>2021-02-07T14:51:54Z</time>
      </trkpt>
      <trkpt lat="43.63754" lon="3.7586">
        <ele>143.1</ele>
        <time>2021-02-07T14:51:55Z</time>
      </trkpt>
      <trkpt lat="43.63751" lon="3.75865">
        <ele>143</ele>
        <time>2021-02-07T14:51:56Z</time>
      </trkpt>
      <trkpt lat="43.63747" lon="3.75869">
        <ele>143.1</ele>
        <time>2021-02-07T14:51:57Z</time>
      </trkpt>
      <trkpt lat="43.63744" lon="3.75873">
        <ele>143.1</ele>
        <time>2021-02-07T14:51:58Z</time>
      </trkpt>
      <trkpt lat="43.63741" lon="3.75876">
        <ele>143.2</ele>
        <time>2021-02-07T14:51:59Z</time>
      </trkpt>
      <trkpt lat="43.63738" lon="3.7588">
        <ele>146</ele>
        <time>2021-02-07T14:52:00Z</time>
      </trkpt>
      <trkpt lat="43.63735" lon="3.75883">
        <ele>143.1</ele>
        <time>2021-02-07T14:52:01Z</time>
      </trkpt>
      <trkpt lat="43.63732" lon="3.75885">
        <ele>143.1</ele>
        <time>2021-02-07T14:52:02Z</time>
      </trkpt>
      <trkpt lat="43.63729" lon="3.75887">
        <ele>143.1</ele>
        <time>2021-02-07T14:52:03Z</time>
      </trkpt>
      <trkpt lat="43.63726" lon="3.7589">
        <ele>143</ele>
        <time>2021-02-07T14:52:04Z</time>
      </trkpt>
      <trkpt lat="43.63723" lon="3.75892">
        <ele>143</ele>
        <time>2021-02-07T14:52:05Z</time>
      </trkpt>
      <trkpt lat="43.63721" lon="3.75893">
        <ele>143</ele>
        <time>2021-02-07T14:52:06Z</time>
      </trkpt>
      <trkpt lat="43.63719" lon="3.75895">
        <ele>143</ele>
        <time>2021-02-07T14:52:07Z</time>
      </trkpt>
      <trkpt lat="43.63718" lon="3.75897">
        <ele>143</ele>
        <time>2021-02-07T14:52:08Z</time>
      </trkpt>
      <trkpt lat="43.63715" lon="3.759">
        <ele>143</ele>
        <time>2021-02-07T14:52:10Z</time>
      </trkpt>
      <trkpt lat="43.63713" lon="3.75903">
        <ele>143</ele>
        <time>2021-02-07T14:52:12Z</time>
      </trkpt>
      <trkpt lat="43.63711" lon="3.75906">
        <ele>143</ele>
        <time>2021-02-07T14:52:14Z</time>
      </trkpt>
      <trkpt lat="43.63709" lon="3.75911">
        <ele>143</ele>
        <time>2021-02-07T14:52:16Z</time>
      </trkpt>
      <trkpt lat="43.63708" lon="3.75913">
        <ele>143</ele>
        <time>2021-02-07T14:52:17Z</time>
      </trkpt>
      <trkpt lat="43.63707" lon="3.75916">
        <ele>143</ele>
        <time>2021-02-07T14:52:18Z</time>
      </trkpt>
      <trkpt lat="43.63705" lon="3.75919">
        <ele>143</ele>
        <time>2021-02-07T14:52:19Z</time>
      </trkpt>
      <trkpt lat="43.63703" lon="3.75921">
        <ele>143</ele>
        <time>2021-02-07T14:52:20Z</time>
      </trkpt>
      <trkpt lat="43.63702" lon="3.75924">
        <ele>143</ele>
        <time>2021-02-07T14:52:21Z</time>
      </trkpt>
      <trkpt lat="43.637" lon="3.75927">
        <ele>143</ele>
        <time>2021-02-07T14:52:22Z</time>
      </trkpt>
      <trkpt lat="43.63698" lon="3.7593">
        <ele>143</ele>
        <time>2021-02-07T14:52:23Z</time>
      </trkpt>
      <trkpt lat="43.63696" lon="3.75933">
        <ele>143</ele>
        <time>2021-02-07T14:52:24Z</time>
      </trkpt>
      <trkpt lat="43.63694" lon="3.75936">
        <ele>143</ele>
        <time>2021-02-07T14:52:25Z</time>
      </trkpt>
      <trkpt lat="43.63692" lon="3.75939">
        <ele>142.9</ele>
        <time>2021-02-07T14:52:26Z</time>
      </trkpt>
      <trkpt lat="43.6369" lon="3.75942">
        <ele>142.8</ele>
        <time>2021-02-07T14:52:27Z</time>
      </trkpt>
      <trkpt lat="43.63688" lon="3.75945">
        <ele>142.8</ele>
        <time>2021-02-07T14:52:28Z</time>
      </trkpt>
      <trkpt lat="43.63686" lon="3.75948">
        <ele>143</ele>
        <time>2021-02-07T14:52:29Z</time>
      </trkpt>
      <trkpt lat="43.63684" lon="3.75951">
        <ele>142.6</ele>
        <time>2021-02-07T14:52:30Z</time>
      </trkpt>
      <trkpt lat="43.63682" lon="3.75954">
        <ele>142.6</ele>
        <time>2021-02-07T14:52:31Z</time>
      </trkpt>
      <trkpt lat="43.6368" lon="3.75957">
        <ele>142.5</ele>
        <time>2021-02-07T14:52:32Z</time>
      </trkpt>
      <trkpt lat="43.63678" lon="3.7596">
        <ele>142.4</ele>
        <time>2021-02-07T14:52:33Z</time>
      </trkpt>
      <trkpt lat="43.63676" lon="3.75963">
        <ele>142.3</ele>
        <time>2021-02-07T14:52:34Z</time>
      </trkpt>
      <trkpt lat="43.63674" lon="3.75967">
        <ele>142.3</ele>
        <time>2021-02-07T14:52:35Z</time>
      </trkpt>
      <trkpt lat="43.63671" lon="3.75971">
        <ele>142.2</ele>
        <time>2021-02-07T14:52:36Z</time>
      </trkpt>
      <trkpt lat="43.63669" lon="3.75975">
        <ele>142.1</ele>
        <time>2021-02-07T14:52:37Z</time>
      </trkpt>
      <trkpt lat="43.63666" lon="3.75979">
        <ele>142</ele>
        <time>2021-02-07T14:52:38Z</time>
      </trkpt>
      <trkpt lat="43.63664" lon="3.75983">
        <ele>141.9</ele>
        <time>2021-02-07T14:52:39Z</time>
      </trkpt>
      <trkpt lat="43.63661" lon="3.75988">
        <ele>142</ele>
        <time>2021-02-07T14:52:40Z</time>
      </trkpt>
      <trkpt lat="43.63658" lon="3.75992">
        <ele>141.7</ele>
        <time>2021-02-07T14:52:41Z</time>
      </trkpt>
      <trkpt lat="43.63655" lon="3.75997">
        <ele>141.6</ele>
        <time>2021-02-07T14:52:42Z</time>
      </trkpt>
      <trkpt lat="43.63652" lon="3.76001">
        <ele>141.4</ele>
        <time>2021-02-07T14:52:43Z</time>
      </trkpt>
      <trkpt lat="43.63649" lon="3.76006">
        <ele>141</ele>
        <time>2021-02-07T14:52:44Z</time>
      </trkpt>
      <trkpt lat="43.63646" lon="3.76011">
        <ele>140.6</ele>
        <time>2021-02-07T14:52:45Z</time>
      </trkpt>
      <trkpt lat="43.63643" lon="3.76015">
        <ele>140.1</ele>
        <time>2021-02-07T14:52:46Z</time>
      </trkpt>
      <trkpt lat="43.6364" lon="3.76019">
        <ele>139.7</ele>
        <time>2021-02-07T14:52:47Z</time>
      </trkpt>
      <trkpt lat="43.63637" lon="3.76023">
        <ele>139.3</ele>
        <time>2021-02-07T14:52:48Z</time>
      </trkpt>
      <trkpt lat="43.63634" lon="3.76028">
        <ele>140</ele>
        <time>2021-02-07T14:52:49Z</time>
      </trkpt>
      <trkpt lat="43.63631" lon="3.76033">
        <ele>138.7</ele>
        <time>2021-02-07T14:52:50Z</time>
      </trkpt>
      <trkpt lat="43.63627" lon="3.76038">
        <ele>138.4</ele>
        <time>2021-02-07T14:52:51Z</time>
      </trkpt>
      <trkpt lat="43.63624" lon="3.76042">
        <ele>138.2</ele>
        <time>2021-02-07T14:52:52Z</time>
      </trkpt>
      <trkpt lat="43.6362" lon="3.76047">
        <ele>137.8</ele>
        <time>2021-02-07T14:52:53Z</time>
      </trkpt>
      <trkpt lat="43.63617" lon="3.76052">
        <ele>137.5</ele>
        <time>2021-02-07T14:52:54Z</time>
      </trkpt>
      <trkpt lat="43.63614" lon="3.76057">
        <ele>137.2</ele>
        <time>2021-02-07T14:52:55Z</time>
      </trkpt>
      <trkpt lat="43.63612" lon="3.76062">
        <ele>136.8</ele>
        <time>2021-02-07T14:52:56Z</time>
      </trkpt>
      <trkpt lat="43.63609" lon="3.76067">
        <ele>136.6</ele>
        <time>2021-02-07T14:52:57Z</time>
      </trkpt>
      <trkpt lat="43.63607" lon="3.76072">
        <ele>136.3</ele>
        <time>2021-02-07T14:52:58Z</time>
      </trkpt>
      <trkpt lat="43.63604" lon="3.76079">
        <ele>139</ele>
        <time>2021-02-07T14:52:59Z</time>
      </trkpt>
      <trkpt lat="43.63602" lon="3.76085">
        <ele>135.6</ele>
        <time>2021-02-07T14:53:00Z</time>
      </trkpt>
      <trkpt lat="43.63602" lon="3.76093">
        <ele>135.1</ele>
        <time>2021-02-07T14:53:01Z</time>
      </trkpt>
      <trkpt lat="43.63601" lon="3.76101">
        <ele>134.6</ele>
        <time>2021-02-07T14:53:02Z</time>
      </trkpt>
      <trkpt lat="43.63601" lon="3.76108">
        <ele>134.2</ele>
        <time>2021-02-07T14:53:03Z</time>
      </trkpt>
      <trkpt lat="43.63601" lon="3.76113">
        <ele>133.9</ele>
        <time>2021-02-07T14:53:04Z</time>
      </trkpt>
      <trkpt lat="43.63601" lon="3.76118">
        <ele>133.7</ele>
        <time>2021-02-07T14:53:05Z</time>
      </trkpt>
      <trkpt lat="43.63601" lon="3.76121">
        <ele>133.5</ele>
        <time>2021-02-07T14:53:06Z</time>
      </trkpt>
      <trkpt lat="43.636" lon="3.76125">
        <ele>133.3</ele>
        <time>2021-02-07T14:53:07Z</time>
      </trkpt>
      <trkpt lat="43.63598" lon="3.76128">
        <ele>133.1</ele>
        <time>2021-02-07T14:53:08Z</time>
      </trkpt>
      <trkpt lat="43.63595" lon="3.7613">
        <ele>137</ele>
        <time>2021-02-07T14:53:09Z</time>
      </trkpt>
      <trkpt lat="43.63594" lon="3.76132">
        <ele>132.8</ele>
        <time>2021-02-07T14:53:10Z</time>
      </trkpt>
      <trkpt lat="43.6359" lon="3.76132">
        <ele>132.7</ele>
        <time>2021-02-07T14:53:12Z</time>
      </trkpt>
      <trkpt lat="43.63588" lon="3.76131">
        <ele>132.7</ele>
        <time>2021-02-07T14:53:13Z</time>
      </trkpt>
      <trkpt lat="43.63586" lon="3.76129">
        <ele>132.8</ele>
        <time>2021-02-07T14:53:14Z</time>
      </trkpt>
      <trkpt lat="43.63584" lon="3.76127">
        <ele>132.9</ele>
        <time>2021-02-07T14:53:15Z</time>
      </trkpt>
      <trkpt lat="43.63582" lon="3.76126">
        <ele>133</ele>
        <time>2021-02-07T14:53:16Z</time>
      </trkpt>
      <trkpt lat="43.6358" lon="3.76125">
        <ele>133.1</ele>
        <time>2021-02-07T14:53:17Z</time>
      </trkpt>
      <trkpt lat="43.63578" lon="3.76126">
        <ele>133</ele>
        <time>2021-02-07T14:53:18Z</time>
      </trkpt>
      <trkpt lat="43.63575" lon="3.76126">
        <ele>136</ele>
        <time>2021-02-07T14:53:19Z</time>
      </trkpt>
      <trkpt lat="43.63573" lon="3.76127">
        <ele>133.1</ele>
        <time>2021-02-07T14:53:20Z</time>
      </trkpt>
      <trkpt lat="43.6357" lon="3.76128">
        <ele>133.1</ele>
        <time>2021-02-07T14:53:21Z</time>
      </trkpt>
      <trkpt lat="43.63568" lon="3.7613">
        <ele>133</ele>
        <time>2021-02-07T14:53:22Z</time>
      </trkpt>
      <trkpt lat="43.63566" lon="3.76132">
        <ele>133</ele>
        <time>2021-02-07T14:53:23Z</time>
      </trkpt>
      <trkpt lat="43.63563" lon="3.76134">
        <ele>133</ele>
        <time>2021-02-07T14:53:24Z</time>
      </trkpt>
      <trkpt lat="43.63561" lon="3.76136">
        <ele>132.9</ele>
        <time>2021-02-07T14:53:25Z</time>
      </trkpt>
      <trkpt lat="43.63559" lon="3.76139">
        <ele>132.9</ele>
        <time>2021-02-07T14:53:26Z</time>
      </trkpt>
      <trkpt lat="43.63556" lon="3.76142">
        <ele>132.8</ele>
        <time>2021-02-07T14:53:27Z</time>
      </trkpt>
      <trkpt lat="43.63553" lon="3.76145">
        <ele>132.7</ele>
        <time>2021-02-07T14:53:28Z</time>
      </trkpt>
      <trkpt lat="43.6355" lon="3.76147">
        <ele>135</ele>
        <time>2021-02-07T14:53:29Z</time>
      </trkpt>
      <trkpt lat="43.63548" lon="3.7615">
        <ele>132.7</ele>
        <time>2021-02-07T14:53:30Z</time>
      </trkpt>
      <trkpt lat="43.63545" lon="3.76153">
        <ele>132.7</ele>
        <time>2021-02-07T14:53:31Z</time>
      </trkpt>
      <trkpt lat="43.63542" lon="3.76155">
        <ele>132.8</ele>
        <time>2021-02-07T14:53:32Z</time>
      </trkpt>
      <trkpt lat="43.6354" lon="3.76158">
        <ele>132.7</ele>
        <time>2021-02-07T14:53:33Z</time>
      </trkpt>
      <trkpt lat="43.63537" lon="3.7616">
        <ele>132.8</ele>
        <time>2021-02-07T14:53:34Z</time>
      </trkpt>
      <trkpt lat="43.63535" lon="3.76163">
        <ele>132.7</ele>
        <time>2021-02-07T14:53:35Z</time>
      </trkpt>
      <trkpt lat="43.63533" lon="3.76165">
        <ele>132.7</ele>
        <time>2021-02-07T14:53:36Z</time>
      </trkpt>
      <trkpt lat="43.63531" lon="3.76168">
        <ele>132.7</ele>
        <time>2021-02-07T14:53:37Z</time>
      </trkpt>
      <trkpt lat="43.63528" lon="3.76171">
        <ele>132.8</ele>
        <time>2021-02-07T14:53:38Z</time>
      </trkpt>
      <trkpt lat="43.63525" lon="3.76173">
        <ele>134</ele>
        <time>2021-02-07T14:53:39Z</time>
      </trkpt>
      <trkpt lat="43.63523" lon="3.76176">
        <ele>133.2</ele>
        <time>2021-02-07T14:53:40Z</time>
      </trkpt>
      <trkpt lat="43.6352" lon="3.76178">
        <ele>133.4</ele>
        <time>2021-02-07T14:53:41Z</time>
      </trkpt>
      <trkpt lat="43.63518" lon="3.7618">
        <ele>133.6</ele>
        <time>2021-02-07T14:53:42Z</time>
      </trkpt>
      <trkpt lat="43.63516" lon="3.76183">
        <ele>133.7</ele>
        <time>2021-02-07T14:53:43Z</time>
      </trkpt>
      <trkpt lat="43.63513" lon="3.76185">
        <ele>133.9</ele>
        <time>2021-02-07T14:53:44Z</time>
      </trkpt>
      <trkpt lat="43.63512" lon="3.76188">
        <ele>133.9</ele>
        <time>2021-02-07T14:53:45Z</time>
      </trkpt>
      <trkpt lat="43.6351" lon="3.7619">
        <ele>134.1</ele>
        <time>2021-02-07T14:53:46Z</time>
      </trkpt>
      <trkpt lat="43.63508" lon="3.76193">
        <ele>134.2</ele>
        <time>2021-02-07T14:53:47Z</time>
      </trkpt>
      <trkpt lat="43.63507" lon="3.76195">
        <ele>134.2</ele>
        <time>2021-02-07T14:53:48Z</time>
      </trkpt>
      <trkpt lat="43.63505" lon="3.76198">
        <ele>134</ele>
        <time>2021-02-07T14:53:49Z</time>
      </trkpt>
      <trkpt lat="43.63503" lon="3.76201">
        <ele>134.4</ele>
        <time>2021-02-07T14:53:50Z</time>
      </trkpt>
      <trkpt lat="43.63501" lon="3.76203">
        <ele>134.6</ele>
        <time>2021-02-07T14:53:51Z</time>
      </trkpt>
      <trkpt lat="43.63498" lon="3.76205">
        <ele>134.8</ele>
        <time>2021-02-07T14:53:52Z</time>
      </trkpt>
      <trkpt lat="43.63496" lon="3.76207">
        <ele>134.8</ele>
        <time>2021-02-07T14:53:53Z</time>
      </trkpt>
      <trkpt lat="43.63494" lon="3.76209">
        <ele>134.9</ele>
        <time>2021-02-07T14:53:54Z</time>
      </trkpt>
      <trkpt lat="43.63492" lon="3.76211">
        <ele>135</ele>
        <time>2021-02-07T14:53:55Z</time>
      </trkpt>
      <trkpt lat="43.6349" lon="3.76213">
        <ele>135.1</ele>
        <time>2021-02-07T14:53:56Z</time>
      </trkpt>
      <trkpt lat="43.63488" lon="3.76215">
        <ele>135.1</ele>
        <time>2021-02-07T14:53:57Z</time>
      </trkpt>
      <trkpt lat="43.63486" lon="3.76216">
        <ele>135.2</ele>
        <time>2021-02-07T14:53:58Z</time>
      </trkpt>
      <trkpt lat="43.63483" lon="3.76218">
        <ele>135</ele>
        <time>2021-02-07T14:53:59Z</time>
      </trkpt>
      <trkpt lat="43.63481" lon="3.7622">
        <ele>135.4</ele>
        <time>2021-02-07T14:54:00Z</time>
      </trkpt>
      <trkpt lat="43.63479" lon="3.76222">
        <ele>135.5</ele>
        <time>2021-02-07T14:54:01Z</time>
      </trkpt>
      <trkpt lat="43.63477" lon="3.76223">
        <ele>135.6</ele>
        <time>2021-02-07T14:54:02Z</time>
      </trkpt>
      <trkpt lat="43.63475" lon="3.76225">
        <ele>135.7</ele>
        <time>2021-02-07T14:54:03Z</time>
      </trkpt>
      <trkpt lat="43.63473" lon="3.76227">
        <ele>135.8</ele>
        <time>2021-02-07T14:54:04Z</time>
      </trkpt>
      <trkpt lat="43.63471" lon="3.76229">
        <ele>135.8</ele>
        <time>2021-02-07T14:54:05Z</time>
      </trkpt>
      <trkpt lat="43.63469" lon="3.76231">
        <ele>135.9</ele>
        <time>2021-02-07T14:54:06Z</time>
      </trkpt>
      <trkpt lat="43.63467" lon="3.76233">
        <ele>135.9</ele>
        <time>2021-02-07T14:54:07Z</time>
      </trkpt>
      <trkpt lat="43.63465" lon="3.76236">
        <ele>135.9</ele>
        <time>2021-02-07T14:54:08Z</time>
      </trkpt>
      <trkpt lat="43.63463" lon="3.76238">
        <ele>135</ele>
        <time>2021-02-07T14:54:09Z</time>
      </trkpt>
      <trkpt lat="43.63461" lon="3.7624">
        <ele>135.9</ele>
        <time>2021-02-07T14:54:10Z</time>
      </trkpt>
      <trkpt lat="43.63459" lon="3.76242">
        <ele>135.9</ele>
        <time>2021-02-07T14:54:11Z</time>
      </trkpt>
      <trkpt lat="43.63457" lon="3.76245">
        <ele>135.8</ele>
        <time>2021-02-07T14:54:12Z</time>
      </trkpt>
      <trkpt lat="43.63455" lon="3.76247">
        <ele>135.8</ele>
        <time>2021-02-07T14:54:13Z</time>
      </trkpt>
      <trkpt lat="43.63453" lon="3.7625">
        <ele>135.7</ele>
        <time>2021-02-07T14:54:14Z</time>
      </trkpt>
      <trkpt lat="43.63451" lon="3.76252">
        <ele>135.7</ele>
        <time>2021-02-07T14:54:15Z</time>
      </trkpt>
      <trkpt lat="43.63449" lon="3.76254">
        <ele>135.7</ele>
        <time>2021-02-07T14:54:16Z</time>
      </trkpt>
      <trkpt lat="43.63447" lon="3.76256">
        <ele>135.7</ele>
        <time>2021-02-07T14:54:17Z</time>
      </trkpt>
      <trkpt lat="43.63445" lon="3.76258">
        <ele>135.7</ele>
        <time>2021-02-07T14:54:18Z</time>
      </trkpt>
      <trkpt lat="43.63443" lon="3.76261">
        <ele>135</ele>
        <time>2021-02-07T14:54:19Z</time>
      </trkpt>
      <trkpt lat="43.6344" lon="3.76263">
        <ele>135.7</ele>
        <time>2021-02-07T14:54:20Z</time>
      </trkpt>
      <trkpt lat="43.63438" lon="3.76265">
        <ele>135.7</ele>
        <time>2021-02-07T14:54:21Z</time>
      </trkpt>
      <trkpt lat="43.63436" lon="3.76267">
        <ele>135.7</ele>
        <time>2021-02-07T14:54:22Z</time>
      </trkpt>
      <trkpt lat="43.63434" lon="3.76268">
        <ele>135.7</ele>
        <time>2021-02-07T14:54:23Z</time>
      </trkpt>
      <trkpt lat="43.63432" lon="3.7627">
        <ele>135.7</ele>
        <time>2021-02-07T14:54:24Z</time>
      </trkpt>
      <trkpt lat="43.63429" lon="3.76272">
        <ele>135.8</ele>
        <time>2021-02-07T14:54:25Z</time>
      </trkpt>
      <trkpt lat="43.63427" lon="3.76274">
        <ele>135.8</ele>
        <time>2021-02-07T14:54:26Z</time>
      </trkpt>
      <trkpt lat="43.63425" lon="3.76276">
        <ele>135.8</ele>
        <time>2021-02-07T14:54:27Z</time>
      </trkpt>
      <trkpt lat="43.63422" lon="3.76278">
        <ele>135.8</ele>
        <time>2021-02-07T14:54:28Z</time>
      </trkpt>
      <trkpt lat="43.6342" lon="3.7628">
        <ele>136</ele>
        <time>2021-02-07T14:54:29Z</time>
      </trkpt>
      <trkpt lat="43.63417" lon="3.76282">
        <ele>135.7</ele>
        <time>2021-02-07T14:54:30Z</time>
      </trkpt>
      <trkpt lat="43.63414" lon="3.76285">
        <ele>135.5</ele>
        <time>2021-02-07T14:54:31Z</time>
      </trkpt>
      <trkpt lat="43.63412" lon="3.76288">
        <ele>135.3</ele>
        <time>2021-02-07T14:54:32Z</time>
      </trkpt>
      <trkpt lat="43.6341" lon="3.76291">
        <ele>135.2</ele>
        <time>2021-02-07T14:54:33Z</time>
      </trkpt>
      <trkpt lat="43.63407" lon="3.76294">
        <ele>135</ele>
        <time>2021-02-07T14:54:34Z</time>
      </trkpt>
      <trkpt lat="43.63405" lon="3.76297">
        <ele>134.9</ele>
        <time>2021-02-07T14:54:35Z</time>
      </trkpt>
      <trkpt lat="43.63402" lon="3.763">
        <ele>134.8</ele>
        <time>2021-02-07T14:54:36Z</time>
      </trkpt>
      <trkpt lat="43.63398" lon="3.76303">
        <ele>134.8</ele>
        <time>2021-02-07T14:54:37Z</time>
      </trkpt>
      <trkpt lat="43.63395" lon="3.76305">
        <ele>134.8</ele>
        <time>2021-02-07T14:54:38Z</time>
      </trkpt>
      <trkpt lat="43.63392" lon="3.76307">
        <ele>136</ele>
        <time>2021-02-07T14:54:39Z</time>
      </trkpt>
      <trkpt lat="43.63389" lon="3.76309">
        <ele>134.9</ele>
        <time>2021-02-07T14:54:40Z</time>
      </trkpt>
      <trkpt lat="43.63386" lon="3.76311">
        <ele>134.7</ele>
        <time>2021-02-07T14:54:41Z</time>
      </trkpt>
      <trkpt lat="43.63384" lon="3.76312">
        <ele>134.6</ele>
        <time>2021-02-07T14:54:42Z</time>
      </trkpt>
      <trkpt lat="43.63381" lon="3.76314">
        <ele>134.5</ele>
        <time>2021-02-07T14:54:43Z</time>
      </trkpt>
      <trkpt lat="43.63379" lon="3.76315">
        <ele>134.4</ele>
        <time>2021-02-07T14:54:44Z</time>
      </trkpt>
      <trkpt lat="43.63376" lon="3.76316">
        <ele>134.3</ele>
        <time>2021-02-07T14:54:45Z</time>
      </trkpt>
      <trkpt lat="43.63374" lon="3.76318">
        <ele>134.3</ele>
        <time>2021-02-07T14:54:46Z</time>
      </trkpt>
      <trkpt lat="43.63371" lon="3.76319">
        <ele>134.2</ele>
        <time>2021-02-07T14:54:47Z</time>
      </trkpt>
      <trkpt lat="43.63369" lon="3.76321">
        <ele>134.1</ele>
        <time>2021-02-07T14:54:48Z</time>
      </trkpt>
      <trkpt lat="43.63366" lon="3.76322">
        <ele>135</ele>
        <time>2021-02-07T14:54:49Z</time>
      </trkpt>
      <trkpt lat="43.63364" lon="3.76323">
        <ele>134</ele>
        <time>2021-02-07T14:54:50Z</time>
      </trkpt>
      <trkpt lat="43.63361" lon="3.76325">
        <ele>134</ele>
        <time>2021-02-07T14:54:51Z</time>
      </trkpt>
      <trkpt lat="43.63358" lon="3.76327">
        <ele>133.9</ele>
        <time>2021-02-07T14:54:52Z</time>
      </trkpt>
      <trkpt lat="43.63356" lon="3.76329">
        <ele>133.8</ele>
        <time>2021-02-07T14:54:53Z</time>
      </trkpt>
      <trkpt lat="43.63354" lon="3.76332">
        <ele>133.7</ele>
        <time>2021-02-07T14:54:54Z</time>
      </trkpt>
      <trkpt lat="43.63351" lon="3.76334">
        <ele>133.6</ele>
        <time>2021-02-07T14:54:55Z</time>
      </trkpt>
      <trkpt lat="43.63349" lon="3.76337">
        <ele>133.5</ele>
        <time>2021-02-07T14:54:56Z</time>
      </trkpt>
      <trkpt lat="43.63346" lon="3.76339">
        <ele>133.4</ele>
        <time>2021-02-07T14:54:57Z</time>
      </trkpt>
      <trkpt lat="43.63344" lon="3.76342">
        <ele>133.3</ele>
        <time>2021-02-07T14:54:58Z</time>
      </trkpt>
      <trkpt lat="43.63342" lon="3.76345">
        <ele>134</ele>
        <time>2021-02-07T14:54:59Z</time>
      </trkpt>
      <trkpt lat="43.6334" lon="3.76348">
        <ele>133.1</ele>
        <time>2021-02-07T14:55:00Z</time>
      </trkpt>
      <trkpt lat="43.63339" lon="3.76352">
        <ele>133.1</ele>
        <time>2021-02-07T14:55:01Z</time>
      </trkpt>
      <trkpt lat="43.63338" lon="3.76355">
        <ele>133</ele>
        <time>2021-02-07T14:55:02Z</time>
      </trkpt>
      <trkpt lat="43.63337" lon="3.76359">
        <ele>133</ele>
        <time>2021-02-07T14:55:03Z</time>
      </trkpt>
      <trkpt lat="43.63335" lon="3.76363">
        <ele>133</ele>
        <time>2021-02-07T14:55:04Z</time>
      </trkpt>
      <trkpt lat="43.63334" lon="3.76365">
        <ele>133</ele>
        <time>2021-02-07T14:55:05Z</time>
      </trkpt>
      <trkpt lat="43.63332" lon="3.76365">
        <ele>133</ele>
        <time>2021-02-07T14:55:06Z</time>
      </trkpt>
      <trkpt lat="43.63329" lon="3.76365">
        <ele>133</ele>
        <time>2021-02-07T14:55:07Z</time>
      </trkpt>
      <trkpt lat="43.63327" lon="3.76366">
        <ele>133</ele>
        <time>2021-02-07T14:55:08Z</time>
      </trkpt>
      <trkpt lat="43.63324" lon="3.76367">
        <ele>133</ele>
        <time>2021-02-07T14:55:09Z</time>
      </trkpt>
      <trkpt lat="43.63322" lon="3.76369">
        <ele>134</ele>
        <time>2021-02-07T14:55:10Z</time>
      </trkpt>
      <trkpt lat="43.6332" lon="3.7637">
        <ele>133</ele>
        <time>2021-02-07T14:55:11Z</time>
      </trkpt>
      <trkpt lat="43.63319" lon="3.76372">
        <ele>133</ele>
        <time>2021-02-07T14:55:12Z</time>
      </trkpt>
      <trkpt lat="43.63317" lon="3.76375">
        <ele>133</ele>
        <time>2021-02-07T14:55:13Z</time>
      </trkpt>
      <trkpt lat="43.63315" lon="3.76377">
        <ele>133</ele>
        <time>2021-02-07T14:55:14Z</time>
      </trkpt>
      <trkpt lat="43.63313" lon="3.76379">
        <ele>133</ele>
        <time>2021-02-07T14:55:15Z</time>
      </trkpt>
      <trkpt lat="43.6331" lon="3.76382">
        <ele>133</ele>
        <time>2021-02-07T14:55:16Z</time>
      </trkpt>
      <trkpt lat="43.63308" lon="3.76384">
        <ele>133</ele>
        <time>2021-02-07T14:55:17Z</time>
      </trkpt>
      <trkpt lat="43.63306" lon="3.76386">
        <ele>133</ele>
        <time>2021-02-07T14:55:18Z</time>
      </trkpt>
      <trkpt lat="43.63304" lon="3.76388">
        <ele>133</ele>
        <time>2021-02-07T14:55:19Z</time>
      </trkpt>
      <trkpt lat="43.63302" lon="3.7639">
        <ele>132.9</ele>
        <time>2021-02-07T14:55:20Z</time>
      </trkpt>
      <trkpt lat="43.633" lon="3.76392">
        <ele>132.8</ele>
        <time>2021-02-07T14:55:21Z</time>
      </trkpt>
      <trkpt lat="43.63298" lon="3.76394">
        <ele>132.7</ele>
        <time>2021-02-07T14:55:22Z</time>
      </trkpt>
      <trkpt lat="43.63296" lon="3.76397">
        <ele>132.7</ele>
        <time>2021-02-07T14:55:23Z</time>
      </trkpt>
      <trkpt lat="43.63294" lon="3.76399">
        <ele>132.6</ele>
        <time>2021-02-07T14:55:24Z</time>
      </trkpt>
      <trkpt lat="43.63292" lon="3.76401">
        <ele>132.5</ele>
        <time>2021-02-07T14:55:25Z</time>
      </trkpt>
      <trkpt lat="43.6329" lon="3.76403">
        <ele>132.4</ele>
        <time>2021-02-07T14:55:26Z</time>
      </trkpt>
      <trkpt lat="43.63288" lon="3.76405">
        <ele>132.4</ele>
        <time>2021-02-07T14:55:27Z</time>
      </trkpt>
      <trkpt lat="43.63286" lon="3.76407">
        <ele>132.3</ele>
        <time>2021-02-07T14:55:28Z</time>
      </trkpt>
      <trkpt lat="43.63284" lon="3.76409">
        <ele>132.2</ele>
        <time>2021-02-07T14:55:29Z</time>
      </trkpt>
      <trkpt lat="43.63281" lon="3.76411">
        <ele>133</ele>
        <time>2021-02-07T14:55:30Z</time>
      </trkpt>
      <trkpt lat="43.63278" lon="3.76412">
        <ele>132</ele>
        <time>2021-02-07T14:55:31Z</time>
      </trkpt>
      <trkpt lat="43.63276" lon="3.76414">
        <ele>131.9</ele>
        <time>2021-02-07T14:55:32Z</time>
      </trkpt>
      <trkpt lat="43.63273" lon="3.76416">
        <ele>131.8</ele>
        <time>2021-02-07T14:55:33Z</time>
      </trkpt>
      <trkpt lat="43.63271" lon="3.76418">
        <ele>131.8</ele>
        <time>2021-02-07T14:55:34Z</time>
      </trkpt>
      <trkpt lat="43.63268" lon="3.7642">
        <ele>131.7</ele>
        <time>2021-02-07T14:55:35Z</time>
      </trkpt>
      <trkpt lat="43.63265" lon="3.76422">
        <ele>131.6</ele>
        <time>2021-02-07T14:55:36Z</time>
      </trkpt>
      <trkpt lat="43.63263" lon="3.76424">
        <ele>131.6</ele>
        <time>2021-02-07T14:55:37Z</time>
      </trkpt>
      <trkpt lat="43.6326" lon="3.76426">
        <ele>131.5</ele>
        <time>2021-02-07T14:55:38Z</time>
      </trkpt>
      <trkpt lat="43.63258" lon="3.76428">
        <ele>133</ele>
        <time>2021-02-07T14:55:39Z</time>
      </trkpt>
      <trkpt lat="43.63255" lon="3.76431">
        <ele>131.3</ele>
        <time>2021-02-07T14:55:40Z</time>
      </trkpt>
      <trkpt lat="43.63253" lon="3.76433">
        <ele>131.2</ele>
        <time>2021-02-07T14:55:41Z</time>
      </trkpt>
      <trkpt lat="43.6325" lon="3.76436">
        <ele>133</ele>
        <time>2021-02-07T14:55:42Z</time>
      </trkpt>
      <trkpt lat="43.63247" lon="3.76438">
        <ele>130.8</ele>
        <time>2021-02-07T14:55:43Z</time>
      </trkpt>
      <trkpt lat="43.63245" lon="3.76441">
        <ele>130.7</ele>
        <time>2021-02-07T14:55:44Z</time>
      </trkpt>
      <trkpt lat="43.63242" lon="3.76444">
        <ele>130.4</ele>
        <time>2021-02-07T14:55:45Z</time>
      </trkpt>
      <trkpt lat="43.63239" lon="3.76447">
        <ele>130.3</ele>
        <time>2021-02-07T14:55:46Z</time>
      </trkpt>
      <trkpt lat="43.63236" lon="3.76451">
        <ele>130.2</ele>
        <time>2021-02-07T14:55:47Z</time>
      </trkpt>
      <trkpt lat="43.63233" lon="3.76454">
        <ele>130.1</ele>
        <time>2021-02-07T14:55:48Z</time>
      </trkpt>
      <trkpt lat="43.63231" lon="3.76456">
        <ele>130</ele>
        <time>2021-02-07T14:55:49Z</time>
      </trkpt>
      <trkpt lat="43.63229" lon="3.7646">
        <ele>132</ele>
        <time>2021-02-07T14:55:50Z</time>
      </trkpt>
      <trkpt lat="43.63226" lon="3.76463">
        <ele>129.9</ele>
        <time>2021-02-07T14:55:51Z</time>
      </trkpt>
      <trkpt lat="43.63224" lon="3.76466">
        <ele>129.9</ele>
        <time>2021-02-07T14:55:52Z</time>
      </trkpt>
      <trkpt lat="43.63221" lon="3.76469">
        <ele>129.8</ele>
        <time>2021-02-07T14:55:53Z</time>
      </trkpt>
      <trkpt lat="43.63219" lon="3.76473">
        <ele>129.7</ele>
        <time>2021-02-07T14:55:54Z</time>
      </trkpt>
      <trkpt lat="43.63217" lon="3.76476">
        <ele>129.4</ele>
        <time>2021-02-07T14:55:55Z</time>
      </trkpt>
      <trkpt lat="43.63215" lon="3.7648">
        <ele>129.2</ele>
        <time>2021-02-07T14:55:56Z</time>
      </trkpt>
      <trkpt lat="43.63213" lon="3.76484">
        <ele>129</ele>
        <time>2021-02-07T14:55:57Z</time>
      </trkpt>
      <trkpt lat="43.63211" lon="3.76488">
        <ele>128.8</ele>
        <time>2021-02-07T14:55:58Z</time>
      </trkpt>
      <trkpt lat="43.6321" lon="3.76492">
        <ele>128.7</ele>
        <time>2021-02-07T14:55:59Z</time>
      </trkpt>
      <trkpt lat="43.63209" lon="3.76497">
        <ele>130</ele>
        <time>2021-02-07T14:56:00Z</time>
      </trkpt>
      <trkpt lat="43.63208" lon="3.76502">
        <ele>128.5</ele>
        <time>2021-02-07T14:56:01Z</time>
      </trkpt>
      <trkpt lat="43.63208" lon="3.76506">
        <ele>128.6</ele>
        <time>2021-02-07T14:56:02Z</time>
      </trkpt>
      <trkpt lat="43.63207" lon="3.76511">
        <ele>128.6</ele>
        <time>2021-02-07T14:56:03Z</time>
      </trkpt>
      <trkpt lat="43.63206" lon="3.76515">
        <ele>128.6</ele>
        <time>2021-02-07T14:56:04Z</time>
      </trkpt>
      <trkpt lat="43.63206" lon="3.76519">
        <ele>128.6</ele>
        <time>2021-02-07T14:56:05Z</time>
      </trkpt>
      <trkpt lat="43.63205" lon="3.76522">
        <ele>128.6</ele>
        <time>2021-02-07T14:56:06Z</time>
      </trkpt>
      <trkpt lat="43.63205" lon="3.76526">
        <ele>128.7</ele>
        <time>2021-02-07T14:56:07Z</time>
      </trkpt>
      <trkpt lat="43.63204" lon="3.7653">
        <ele>128.7</ele>
        <time>2021-02-07T14:56:08Z</time>
      </trkpt>
      <trkpt lat="43.63204" lon="3.76534">
        <ele>129</ele>
        <time>2021-02-07T14:56:09Z</time>
      </trkpt>
      <trkpt lat="43.63204" lon="3.76538">
        <ele>128.7</ele>
        <time>2021-02-07T14:56:10Z</time>
      </trkpt>
      <trkpt lat="43.63203" lon="3.76542">
        <ele>128.6</ele>
        <time>2021-02-07T14:56:11Z</time>
      </trkpt>
      <trkpt lat="43.63203" lon="3.76547">
        <ele>128.6</ele>
        <time>2021-02-07T14:56:12Z</time>
      </trkpt>
      <trkpt lat="43.63202" lon="3.76551">
        <ele>128.5</ele>
        <time>2021-02-07T14:56:13Z</time>
      </trkpt>
      <trkpt lat="43.63202" lon="3.76555">
        <ele>128.5</ele>
        <time>2021-02-07T14:56:14Z</time>
      </trkpt>
      <trkpt lat="43.63201" lon="3.76559">
        <ele>128.5</ele>
        <time>2021-02-07T14:56:15Z</time>
      </trkpt>
      <trkpt lat="43.63201" lon="3.76564">
        <ele>128.5</ele>
        <time>2021-02-07T14:56:16Z</time>
      </trkpt>
      <trkpt lat="43.632" lon="3.76568">
        <ele>128.4</ele>
        <time>2021-02-07T14:56:17Z</time>
      </trkpt>
      <trkpt lat="43.63199" lon="3.76572">
        <ele>128.3</ele>
        <time>2021-02-07T14:56:18Z</time>
      </trkpt>
      <trkpt lat="43.63199" lon="3.76577">
        <ele>128</ele>
        <time>2021-02-07T14:56:19Z</time>
      </trkpt>
      <trkpt lat="43.63198" lon="3.76581">
        <ele>128.3</ele>
        <time>2021-02-07T14:56:20Z</time>
      </trkpt>
      <trkpt lat="43.63198" lon="3.76586">
        <ele>128.3</ele>
        <time>2021-02-07T14:56:21Z</time>
      </trkpt>
      <trkpt lat="43.63197" lon="3.7659">
        <ele>128.2</ele>
        <time>2021-02-07T14:56:22Z</time>
      </trkpt>
      <trkpt lat="43.63197" lon="3.76594">
        <ele>128.2</ele>
        <time>2021-02-07T14:56:23Z</time>
      </trkpt>
      <trkpt lat="43.63196" lon="3.76599">
        <ele>128.1</ele>
        <time>2021-02-07T14:56:24Z</time>
      </trkpt>
      <trkpt lat="43.63196" lon="3.76603">
        <ele>128.1</ele>
        <time>2021-02-07T14:56:25Z</time>
      </trkpt>
      <trkpt lat="43.63195" lon="3.76608">
        <ele>128</ele>
        <time>2021-02-07T14:56:26Z</time>
      </trkpt>
      <trkpt lat="43.63194" lon="3.76612">
        <ele>128</ele>
        <time>2021-02-07T14:56:27Z</time>
      </trkpt>
      <trkpt lat="43.63194" lon="3.76617">
        <ele>128</ele>
        <time>2021-02-07T14:56:28Z</time>
      </trkpt>
      <trkpt lat="43.63193" lon="3.76621">
        <ele>128</ele>
        <time>2021-02-07T14:56:29Z</time>
      </trkpt>
      <trkpt lat="43.63193" lon="3.76626">
        <ele>127.9</ele>
        <time>2021-02-07T14:56:30Z</time>
      </trkpt>
      <trkpt lat="43.63192" lon="3.76631">
        <ele>127.8</ele>
        <time>2021-02-07T14:56:31Z</time>
      </trkpt>
      <trkpt lat="43.63191" lon="3.76636">
        <ele>127.8</ele>
        <time>2021-02-07T14:56:32Z</time>
      </trkpt>
      <trkpt lat="43.6319" lon="3.76641">
        <ele>127.7</ele>
        <time>2021-02-07T14:56:33Z</time>
      </trkpt>
      <trkpt lat="43.6319" lon="3.76646">
        <ele>127.7</ele>
        <time>2021-02-07T14:56:34Z</time>
      </trkpt>
      <trkpt lat="43.63189" lon="3.76651">
        <ele>127.6</ele>
        <time>2021-02-07T14:56:35Z</time>
      </trkpt>
      <trkpt lat="43.63188" lon="3.76656">
        <ele>127.5</ele>
        <time>2021-02-07T14:56:36Z</time>
      </trkpt>
      <trkpt lat="43.63187" lon="3.76661">
        <ele>127.5</ele>
        <time>2021-02-07T14:56:37Z</time>
      </trkpt>
      <trkpt lat="43.63186" lon="3.76666">
        <ele>127.4</ele>
        <time>2021-02-07T14:56:38Z</time>
      </trkpt>
      <trkpt lat="43.63186" lon="3.7667">
        <ele>127</ele>
        <time>2021-02-07T14:56:39Z</time>
      </trkpt>
      <trkpt lat="43.63185" lon="3.76675">
        <ele>127.1</ele>
        <time>2021-02-07T14:56:40Z</time>
      </trkpt>
      <trkpt lat="43.63184" lon="3.7668">
        <ele>126.9</ele>
        <time>2021-02-07T14:56:41Z</time>
      </trkpt>
      <trkpt lat="43.63183" lon="3.76685">
        <ele>126.8</ele>
        <time>2021-02-07T14:56:42Z</time>
      </trkpt>
      <trkpt lat="43.63182" lon="3.7669">
        <ele>126.6</ele>
        <time>2021-02-07T14:56:43Z</time>
      </trkpt>
      <trkpt lat="43.63182" lon="3.76695">
        <ele>126.6</ele>
        <time>2021-02-07T14:56:44Z</time>
      </trkpt>
      <trkpt lat="43.63181" lon="3.767">
        <ele>126.5</ele>
        <time>2021-02-07T14:56:45Z</time>
      </trkpt>
      <trkpt lat="43.6318" lon="3.76705">
        <ele>126.5</ele>
        <time>2021-02-07T14:56:46Z</time>
      </trkpt>
      <trkpt lat="43.63179" lon="3.7671">
        <ele>126.4</ele>
        <time>2021-02-07T14:56:47Z</time>
      </trkpt>
      <trkpt lat="43.63178" lon="3.76715">
        <ele>126.4</ele>
        <time>2021-02-07T14:56:48Z</time>
      </trkpt>
      <trkpt lat="43.63177" lon="3.7672">
        <ele>127</ele>
        <time>2021-02-07T14:56:49Z</time>
      </trkpt>
      <trkpt lat="43.63176" lon="3.76725">
        <ele>126.3</ele>
        <time>2021-02-07T14:56:50Z</time>
      </trkpt>
      <trkpt lat="43.63176" lon="3.7673">
        <ele>126.2</ele>
        <time>2021-02-07T14:56:51Z</time>
      </trkpt>
      <trkpt lat="43.63175" lon="3.76735">
        <ele>126.2</ele>
        <time>2021-02-07T14:56:52Z</time>
      </trkpt>
      <trkpt lat="43.63174" lon="3.7674">
        <ele>126.1</ele>
        <time>2021-02-07T14:56:53Z</time>
      </trkpt>
      <trkpt lat="43.63173" lon="3.76744">
        <ele>126</ele>
        <time>2021-02-07T14:56:54Z</time>
      </trkpt>
      <trkpt lat="43.63173" lon="3.76749">
        <ele>126</ele>
        <time>2021-02-07T14:56:55Z</time>
      </trkpt>
      <trkpt lat="43.63172" lon="3.76754">
        <ele>125.9</ele>
        <time>2021-02-07T14:56:56Z</time>
      </trkpt>
      <trkpt lat="43.63171" lon="3.76759">
        <ele>125.7</ele>
        <time>2021-02-07T14:56:57Z</time>
      </trkpt>
      <trkpt lat="43.6317" lon="3.76765">
        <ele>125.5</ele>
        <time>2021-02-07T14:56:58Z</time>
      </trkpt>
      <trkpt lat="43.63169" lon="3.7677">
        <ele>127</ele>
        <time>2021-02-07T14:56:59Z</time>
      </trkpt>
      <trkpt lat="43.63168" lon="3.76775">
        <ele>125.1</ele>
        <time>2021-02-07T14:57:00Z</time>
      </trkpt>
      <trkpt lat="43.63168" lon="3.76781">
        <ele>124.9</ele>
        <time>2021-02-07T14:57:01Z</time>
      </trkpt>
      <trkpt lat="43.63167" lon="3.76787">
        <ele>124.7</ele>
        <time>2021-02-07T14:57:02Z</time>
      </trkpt>
      <trkpt lat="43.63166" lon="3.76793">
        <ele>124.4</ele>
        <time>2021-02-07T14:57:03Z</time>
      </trkpt>
      <trkpt lat="43.63165" lon="3.76799">
        <ele>124.1</ele>
        <time>2021-02-07T14:57:04Z</time>
      </trkpt>
      <trkpt lat="43.63164" lon="3.76805">
        <ele>123.8</ele>
        <time>2021-02-07T14:57:05Z</time>
      </trkpt>
      <trkpt lat="43.63164" lon="3.76811">
        <ele>123.8</ele>
        <time>2021-02-07T14:57:06Z</time>
      </trkpt>
      <trkpt lat="43.63163" lon="3.76817">
        <ele>123.7</ele>
        <time>2021-02-07T14:57:07Z</time>
      </trkpt>
      <trkpt lat="43.63162" lon="3.76823">
        <ele>123.6</ele>
        <time>2021-02-07T14:57:08Z</time>
      </trkpt>
      <trkpt lat="43.63161" lon="3.76828">
        <ele>125</ele>
        <time>2021-02-07T14:57:09Z</time>
      </trkpt>
      <trkpt lat="43.63161" lon="3.76834">
        <ele>123.4</ele>
        <time>2021-02-07T14:57:10Z</time>
      </trkpt>
      <trkpt lat="43.6316" lon="3.76839">
        <ele>123.1</ele>
        <time>2021-02-07T14:57:11Z</time>
      </trkpt>
      <trkpt lat="43.63159" lon="3.76845">
        <ele>122.9</ele>
        <time>2021-02-07T14:57:12Z</time>
      </trkpt>
      <trkpt lat="43.63158" lon="3.76851">
        <ele>122.6</ele>
        <time>2021-02-07T14:57:13Z</time>
      </trkpt>
      <trkpt lat="43.63157" lon="3.76857">
        <ele>122.4</ele>
        <time>2021-02-07T14:57:14Z</time>
      </trkpt>
      <trkpt lat="43.63156" lon="3.76863">
        <ele>122.2</ele>
        <time>2021-02-07T14:57:15Z</time>
      </trkpt>
      <trkpt lat="43.63156" lon="3.76868">
        <ele>122</ele>
        <time>2021-02-07T14:57:16Z</time>
      </trkpt>
      <trkpt lat="43.63155" lon="3.76873">
        <ele>121.7</ele>
        <time>2021-02-07T14:57:17Z</time>
      </trkpt>
      <trkpt lat="43.63155" lon="3.76879">
        <ele>121.5</ele>
        <time>2021-02-07T14:57:18Z</time>
      </trkpt>
      <trkpt lat="43.63154" lon="3.76884">
        <ele>121.3</ele>
        <time>2021-02-07T14:57:19Z</time>
      </trkpt>
      <trkpt lat="43.63154" lon="3.76889">
        <ele>123</ele>
        <time>2021-02-07T14:57:20Z</time>
      </trkpt>
      <trkpt lat="43.63153" lon="3.76894">
        <ele>120.8</ele>
        <time>2021-02-07T14:57:21Z</time>
      </trkpt>
      <trkpt lat="43.63153" lon="3.76899">
        <ele>120.7</ele>
        <time>2021-02-07T14:57:22Z</time>
      </trkpt>
      <trkpt lat="43.63152" lon="3.76904">
        <ele>120.4</ele>
        <time>2021-02-07T14:57:23Z</time>
      </trkpt>
      <trkpt lat="43.63151" lon="3.7691">
        <ele>120.1</ele>
        <time>2021-02-07T14:57:24Z</time>
      </trkpt>
      <trkpt lat="43.6315" lon="3.76915">
        <ele>119.9</ele>
        <time>2021-02-07T14:57:25Z</time>
      </trkpt>
      <trkpt lat="43.63149" lon="3.76921">
        <ele>119.6</ele>
        <time>2021-02-07T14:57:26Z</time>
      </trkpt>
      <trkpt lat="43.63148" lon="3.76926">
        <ele>119.4</ele>
        <time>2021-02-07T14:57:27Z</time>
      </trkpt>
      <trkpt lat="43.63147" lon="3.76932">
        <ele>119.2</ele>
        <time>2021-02-07T14:57:28Z</time>
      </trkpt>
      <trkpt lat="43.63147" lon="3.76937">
        <ele>122</ele>
        <time>2021-02-07T14:57:29Z</time>
      </trkpt>
      <trkpt lat="43.63146" lon="3.76942">
        <ele>118.8</ele>
        <time>2021-02-07T14:57:30Z</time>
      </trkpt>
      <trkpt lat="43.63145" lon="3.76948">
        <ele>118.5</ele>
        <time>2021-02-07T14:57:31Z</time>
      </trkpt>
      <trkpt lat="43.63145" lon="3.76953">
        <ele>118.4</ele>
        <time>2021-02-07T14:57:32Z</time>
      </trkpt>
      <trkpt lat="43.63144" lon="3.76959">
        <ele>118</ele>
        <time>2021-02-07T14:57:33Z</time>
      </trkpt>
      <trkpt lat="43.63143" lon="3.76966">
        <ele>117.7</ele>
        <time>2021-02-07T14:57:34Z</time>
      </trkpt>
      <trkpt lat="43.63142" lon="3.76972">
        <ele>117.3</ele>
        <time>2021-02-07T14:57:35Z</time>
      </trkpt>
      <trkpt lat="43.63141" lon="3.76979">
        <ele>117</ele>
        <time>2021-02-07T14:57:36Z</time>
      </trkpt>
      <trkpt lat="43.6314" lon="3.76986">
        <ele>116.6</ele>
        <time>2021-02-07T14:57:37Z</time>
      </trkpt>
      <trkpt lat="43.63139" lon="3.76993">
        <ele>116.3</ele>
        <time>2021-02-07T14:57:38Z</time>
      </trkpt>
      <trkpt lat="43.63138" lon="3.77001">
        <ele>120</ele>
        <time>2021-02-07T14:57:39Z</time>
      </trkpt>
      <trkpt lat="43.63137" lon="3.77008">
        <ele>115.5</ele>
        <time>2021-02-07T14:57:40Z</time>
      </trkpt>
      <trkpt lat="43.63135" lon="3.77016">
        <ele>115</ele>
        <time>2021-02-07T14:57:41Z</time>
      </trkpt>
      <trkpt lat="43.63134" lon="3.77023">
        <ele>114.5</ele>
        <time>2021-02-07T14:57:42Z</time>
      </trkpt>
      <trkpt lat="43.63133" lon="3.77032">
        <ele>114.2</ele>
        <time>2021-02-07T14:57:43Z</time>
      </trkpt>
      <trkpt lat="43.63131" lon="3.7704">
        <ele>114</ele>
        <time>2021-02-07T14:57:44Z</time>
      </trkpt>
      <trkpt lat="43.63129" lon="3.77048">
        <ele>113.8</ele>
        <time>2021-02-07T14:57:45Z</time>
      </trkpt>
      <trkpt lat="43.63128" lon="3.77057">
        <ele>113.8</ele>
        <time>2021-02-07T14:57:46Z</time>
      </trkpt>
      <trkpt lat="43.63126" lon="3.77066">
        <ele>113.4</ele>
        <time>2021-02-07T14:57:47Z</time>
      </trkpt>
      <trkpt lat="43.63125" lon="3.77074">
        <ele>113.2</ele>
        <time>2021-02-07T14:57:48Z</time>
      </trkpt>
      <trkpt lat="43.63124" lon="3.77083">
        <ele>119</ele>
        <time>2021-02-07T14:57:49Z</time>
      </trkpt>
      <trkpt lat="43.63122" lon="3.77092">
        <ele>112.4</ele>
        <time>2021-02-07T14:57:50Z</time>
      </trkpt>
      <trkpt lat="43.63121" lon="3.771">
        <ele>112.2</ele>
        <time>2021-02-07T14:57:51Z</time>
      </trkpt>
      <trkpt lat="43.6312" lon="3.77108">
        <ele>112</ele>
        <time>2021-02-07T14:57:52Z</time>
      </trkpt>
      <trkpt lat="43.63119" lon="3.77116">
        <ele>111.9</ele>
        <time>2021-02-07T14:57:53Z</time>
      </trkpt>
      <trkpt lat="43.63118" lon="3.77124">
        <ele>111.7</ele>
        <time>2021-02-07T14:57:54Z</time>
      </trkpt>
      <trkpt lat="43.63116" lon="3.77132">
        <ele>111.5</ele>
        <time>2021-02-07T14:57:55Z</time>
      </trkpt>
      <trkpt lat="43.63115" lon="3.77139">
        <ele>111.4</ele>
        <time>2021-02-07T14:57:56Z</time>
      </trkpt>
      <trkpt lat="43.63115" lon="3.77147">
        <ele>111.4</ele>
        <time>2021-02-07T14:57:57Z</time>
      </trkpt>
      <trkpt lat="43.63114" lon="3.77154">
        <ele>111.3</ele>
        <time>2021-02-07T14:57:58Z</time>
      </trkpt>
      <trkpt lat="43.63113" lon="3.77161">
        <ele>111.1</ele>
        <time>2021-02-07T14:57:59Z</time>
      </trkpt>
      <trkpt lat="43.63112" lon="3.77166">
        <ele>117</ele>
        <time>2021-02-07T14:58:00Z</time>
      </trkpt>
      <trkpt lat="43.63111" lon="3.7717">
        <ele>111</ele>
        <time>2021-02-07T14:58:01Z</time>
      </trkpt>
      <trkpt lat="43.63111" lon="3.77172">
        <ele>111</ele>
        <time>2021-02-07T14:58:02Z</time>
      </trkpt>
      <trkpt lat="43.63111" lon="3.77176">
        <ele>111</ele>
        <time>2021-02-07T14:58:04Z</time>
      </trkpt>
      <trkpt lat="43.6311" lon="3.77179">
        <ele>114</ele>
        <time>2021-02-07T14:58:25Z</time>
      </trkpt>
      <trkpt lat="43.63111" lon="3.77179">
        <ele>113</ele>
        <time>2021-02-07T14:58:30Z</time>
      </trkpt>
      <trkpt lat="43.63104" lon="3.77177">
        <ele>110</ele>
        <time>2021-02-07T14:59:29Z</time>
      </trkpt>
      <trkpt lat="43.63102" lon="3.77172">
        <ele>110</ele>
        <time>2021-02-07T14:59:31Z</time>
      </trkpt>
      <trkpt lat="43.631" lon="3.7717">
        <ele>109.8</ele>
        <time>2021-02-07T14:59:32Z</time>
      </trkpt>
      <trkpt lat="43.63098" lon="3.77168">
        <ele>109.6</ele>
        <time>2021-02-07T14:59:33Z</time>
      </trkpt>
      <trkpt lat="43.63096" lon="3.77165">
        <ele>109.4</ele>
        <time>2021-02-07T14:59:34Z</time>
      </trkpt>
      <trkpt lat="43.63095" lon="3.77162">
        <ele>109.3</ele>
        <time>2021-02-07T14:59:35Z</time>
      </trkpt>
      <trkpt lat="43.63094" lon="3.77158">
        <ele>109.2</ele>
        <time>2021-02-07T14:59:36Z</time>
      </trkpt>
      <trkpt lat="43.63092" lon="3.77155">
        <ele>108.9</ele>
        <time>2021-02-07T14:59:37Z</time>
      </trkpt>
      <trkpt lat="43.6309" lon="3.77151">
        <ele>110</ele>
        <time>2021-02-07T14:59:38Z</time>
      </trkpt>
      <trkpt lat="43.63088" lon="3.77147">
        <ele>108.5</ele>
        <time>2021-02-07T14:59:39Z</time>
      </trkpt>
      <trkpt lat="43.63086" lon="3.77143">
        <ele>108.3</ele>
        <time>2021-02-07T14:59:40Z</time>
      </trkpt>
      <trkpt lat="43.63084" lon="3.77139">
        <ele>108.1</ele>
        <time>2021-02-07T14:59:41Z</time>
      </trkpt>
      <trkpt lat="43.63082" lon="3.77135">
        <ele>108</ele>
        <time>2021-02-07T14:59:42Z</time>
      </trkpt>
      <trkpt lat="43.63079" lon="3.77131">
        <ele>108</ele>
        <time>2021-02-07T14:59:43Z</time>
      </trkpt>
      <trkpt lat="43.63077" lon="3.77127">
        <ele>108</ele>
        <time>2021-02-07T14:59:44Z</time>
      </trkpt>
      <trkpt lat="43.63075" lon="3.77122">
        <ele>108</ele>
        <time>2021-02-07T14:59:45Z</time>
      </trkpt>
      <trkpt lat="43.63073" lon="3.77118">
        <ele>108</ele>
        <time>2021-02-07T14:59:46Z</time>
      </trkpt>
      <trkpt lat="43.63071" lon="3.77114">
        <ele>108</ele>
        <time>2021-02-07T14:59:47Z</time>
      </trkpt>
      <trkpt lat="43.63068" lon="3.7711">
        <ele>107.9</ele>
        <time>2021-02-07T14:59:48Z</time>
      </trkpt>
      <trkpt lat="43.63066" lon="3.77106">
        <ele>109</ele>
        <time>2021-02-07T14:59:49Z</time>
      </trkpt>
      <trkpt lat="43.63064" lon="3.77101">
        <ele>107.6</ele>
        <time>2021-02-07T14:59:50Z</time>
      </trkpt>
      <trkpt lat="43.63062" lon="3.77097">
        <ele>107.5</ele>
        <time>2021-02-07T14:59:51Z</time>
      </trkpt>
      <trkpt lat="43.6306" lon="3.77094">
        <ele>107.3</ele>
        <time>2021-02-07T14:59:52Z</time>
      </trkpt>
      <trkpt lat="43.63057" lon="3.7709">
        <ele>107.1</ele>
        <time>2021-02-07T14:59:53Z</time>
      </trkpt>
      <trkpt lat="43.63054" lon="3.77087">
        <ele>106.9</ele>
        <time>2021-02-07T14:59:54Z</time>
      </trkpt>
      <trkpt lat="43.63051" lon="3.77085">
        <ele>106.7</ele>
        <time>2021-02-07T14:59:55Z</time>
      </trkpt>
      <trkpt lat="43.63049" lon="3.77085">
        <ele>106.5</ele>
        <time>2021-02-07T14:59:56Z</time>
      </trkpt>
      <trkpt lat="43.63047" lon="3.77087">
        <ele>106.4</ele>
        <time>2021-02-07T14:59:57Z</time>
      </trkpt>
      <trkpt lat="43.63046" lon="3.77091">
        <ele>108</ele>
        <time>2021-02-07T14:59:58Z</time>
      </trkpt>
      <trkpt lat="43.63046" lon="3.77095">
        <ele>106.3</ele>
        <time>2021-02-07T14:59:59Z</time>
      </trkpt>
      <trkpt lat="43.63046" lon="3.77099">
        <ele>106.3</ele>
        <time>2021-02-07T15:00:00Z</time>
      </trkpt>
      <trkpt lat="43.63045" lon="3.77103">
        <ele>106.2</ele>
        <time>2021-02-07T15:00:01Z</time>
      </trkpt>
      <trkpt lat="43.63045" lon="3.77108">
        <ele>106.2</ele>
        <time>2021-02-07T15:00:02Z</time>
      </trkpt>
      <trkpt lat="43.63044" lon="3.77113">
        <ele>106.1</ele>
        <time>2021-02-07T15:00:03Z</time>
      </trkpt>
      <trkpt lat="43.63044" lon="3.77118">
        <ele>106</ele>
        <time>2021-02-07T15:00:04Z</time>
      </trkpt>
      <trkpt lat="43.63043" lon="3.77123">
        <ele>105.9</ele>
        <time>2021-02-07T15:00:05Z</time>
      </trkpt>
      <trkpt lat="43.63043" lon="3.77129">
        <ele>105.7</ele>
        <time>2021-02-07T15:00:06Z</time>
      </trkpt>
      <trkpt lat="43.63042" lon="3.77134">
        <ele>105.6</ele>
        <time>2021-02-07T15:00:07Z</time>
      </trkpt>
      <trkpt lat="43.63041" lon="3.7714">
        <ele>107</ele>
        <time>2021-02-07T15:00:08Z</time>
      </trkpt>
      <trkpt lat="43.6304" lon="3.77146">
        <ele>105.3</ele>
        <time>2021-02-07T15:00:09Z</time>
      </trkpt>
      <trkpt lat="43.6304" lon="3.77152">
        <ele>105.2</ele>
        <time>2021-02-07T15:00:10Z</time>
      </trkpt>
      <trkpt lat="43.63039" lon="3.77158">
        <ele>105</ele>
        <time>2021-02-07T15:00:11Z</time>
      </trkpt>
      <trkpt lat="43.63038" lon="3.77165">
        <ele>104.8</ele>
        <time>2021-02-07T15:00:12Z</time>
      </trkpt>
      <trkpt lat="43.63037" lon="3.77171">
        <ele>104.7</ele>
        <time>2021-02-07T15:00:13Z</time>
      </trkpt>
      <trkpt lat="43.63036" lon="3.77177">
        <ele>104.6</ele>
        <time>2021-02-07T15:00:14Z</time>
      </trkpt>
      <trkpt lat="43.63035" lon="3.77184">
        <ele>104.5</ele>
        <time>2021-02-07T15:00:15Z</time>
      </trkpt>
      <trkpt lat="43.63034" lon="3.77191">
        <ele>104.4</ele>
        <time>2021-02-07T15:00:16Z</time>
      </trkpt>
      <trkpt lat="43.63033" lon="3.77198">
        <ele>104.3</ele>
        <time>2021-02-07T15:00:17Z</time>
      </trkpt>
      <trkpt lat="43.63032" lon="3.77205">
        <ele>104</ele>
        <time>2021-02-07T15:00:18Z</time>
      </trkpt>
      <trkpt lat="43.63031" lon="3.77212">
        <ele>106</ele>
        <time>2021-02-07T15:00:19Z</time>
      </trkpt>
      <trkpt lat="43.63029" lon="3.7722">
        <ele>103.2</ele>
        <time>2021-02-07T15:00:20Z</time>
      </trkpt>
      <trkpt lat="43.63028" lon="3.77227">
        <ele>102.9</ele>
        <time>2021-02-07T15:00:21Z</time>
      </trkpt>
      <trkpt lat="43.63026" lon="3.77234">
        <ele>102.4</ele>
        <time>2021-02-07T15:00:22Z</time>
      </trkpt>
      <trkpt lat="43.63024" lon="3.77241">
        <ele>102</ele>
        <time>2021-02-07T15:00:23Z</time>
      </trkpt>
      <trkpt lat="43.63023" lon="3.77249">
        <ele>101.7</ele>
        <time>2021-02-07T15:00:24Z</time>
      </trkpt>
      <trkpt lat="43.63022" lon="3.77256">
        <ele>101.8</ele>
        <time>2021-02-07T15:00:25Z</time>
      </trkpt>
      <trkpt lat="43.6302" lon="3.77264">
        <ele>101.9</ele>
        <time>2021-02-07T15:00:26Z</time>
      </trkpt>
      <trkpt lat="43.63018" lon="3.77271">
        <ele>102.1</ele>
        <time>2021-02-07T15:00:27Z</time>
      </trkpt>
      <trkpt lat="43.63017" lon="3.77279">
        <ele>102.2</ele>
        <time>2021-02-07T15:00:28Z</time>
      </trkpt>
      <trkpt lat="43.63015" lon="3.77286">
        <ele>105</ele>
        <time>2021-02-07T15:00:29Z</time>
      </trkpt>
      <trkpt lat="43.63013" lon="3.77293">
        <ele>101.9</ele>
        <time>2021-02-07T15:00:30Z</time>
      </trkpt>
      <trkpt lat="43.63012" lon="3.773">
        <ele>101.9</ele>
        <time>2021-02-07T15:00:31Z</time>
      </trkpt>
      <trkpt lat="43.6301" lon="3.77307">
        <ele>101.7</ele>
        <time>2021-02-07T15:00:32Z</time>
      </trkpt>
      <trkpt lat="43.63008" lon="3.77314">
        <ele>101.6</ele>
        <time>2021-02-07T15:00:33Z</time>
      </trkpt>
      <trkpt lat="43.63007" lon="3.7732">
        <ele>101.5</ele>
        <time>2021-02-07T15:00:34Z</time>
      </trkpt>
      <trkpt lat="43.63005" lon="3.77327">
        <ele>101.4</ele>
        <time>2021-02-07T15:00:35Z</time>
      </trkpt>
      <trkpt lat="43.63004" lon="3.77333">
        <ele>101.3</ele>
        <time>2021-02-07T15:00:36Z</time>
      </trkpt>
      <trkpt lat="43.63003" lon="3.77339">
        <ele>101.2</ele>
        <time>2021-02-07T15:00:37Z</time>
      </trkpt>
      <trkpt lat="43.63001" lon="3.77345">
        <ele>101.1</ele>
        <time>2021-02-07T15:00:38Z</time>
      </trkpt>
      <trkpt lat="43.63" lon="3.7735">
        <ele>104</ele>
        <time>2021-02-07T15:00:39Z</time>
      </trkpt>
      <trkpt lat="43.62998" lon="3.77355">
        <ele>100.8</ele>
        <time>2021-02-07T15:00:40Z</time>
      </trkpt>
      <trkpt lat="43.62997" lon="3.7736">
        <ele>100.8</ele>
        <time>2021-02-07T15:00:41Z</time>
      </trkpt>
      <trkpt lat="43.62996" lon="3.77365">
        <ele>100.9</ele>
        <time>2021-02-07T15:00:42Z</time>
      </trkpt>
      <trkpt lat="43.62995" lon="3.77369">
        <ele>101</ele>
        <time>2021-02-07T15:00:43Z</time>
      </trkpt>
      <trkpt lat="43.62994" lon="3.77372">
        <ele>101</ele>
        <time>2021-02-07T15:00:44Z</time>
      </trkpt>
      <trkpt lat="43.62993" lon="3.77375">
        <ele>101.1</ele>
        <time>2021-02-07T15:00:45Z</time>
      </trkpt>
      <trkpt lat="43.62992" lon="3.77378">
        <ele>101.2</ele>
        <time>2021-02-07T15:00:46Z</time>
      </trkpt>
      <trkpt lat="43.62991" lon="3.77382">
        <ele>104</ele>
        <time>2021-02-07T15:00:48Z</time>
      </trkpt>
      <trkpt lat="43.62992" lon="3.77381">
        <ele>104</ele>
        <time>2021-02-07T15:00:52Z</time>
      </trkpt>
      <trkpt lat="43.62989" lon="3.77394">
        <ele>104</ele>
        <time>2021-02-07T15:01:06Z</time>
      </trkpt>
      <trkpt lat="43.62988" lon="3.77399">
        <ele>101.7</ele>
        <time>2021-02-07T15:01:07Z</time>
      </trkpt>
      <trkpt lat="43.62987" lon="3.77403">
        <ele>101.8</ele>
        <time>2021-02-07T15:01:08Z</time>
      </trkpt>
      <trkpt lat="43.62986" lon="3.77409">
        <ele>101.9</ele>
        <time>2021-02-07T15:01:09Z</time>
      </trkpt>
      <trkpt lat="43.62984" lon="3.77414">
        <ele>101.9</ele>
        <time>2021-02-07T15:01:10Z</time>
      </trkpt>
      <trkpt lat="43.62983" lon="3.7742">
        <ele>102.1</ele>
        <time>2021-02-07T15:01:11Z</time>
      </trkpt>
      <trkpt lat="43.62982" lon="3.77426">
        <ele>102.2</ele>
        <time>2021-02-07T15:01:12Z</time>
      </trkpt>
      <trkpt lat="43.6298" lon="3.77433">
        <ele>102.4</ele>
        <time>2021-02-07T15:01:13Z</time>
      </trkpt>
      <trkpt lat="43.62979" lon="3.77439">
        <ele>102.6</ele>
        <time>2021-02-07T15:01:14Z</time>
      </trkpt>
      <trkpt lat="43.62978" lon="3.77445">
        <ele>104</ele>
        <time>2021-02-07T15:01:15Z</time>
      </trkpt>
      <trkpt lat="43.62978" lon="3.77449">
        <ele>102.8</ele>
        <time>2021-02-07T15:01:16Z</time>
      </trkpt>
      <trkpt lat="43.62981" lon="3.77453">
        <ele>102.6</ele>
        <time>2021-02-07T15:01:18Z</time>
      </trkpt>
      <trkpt lat="43.62984" lon="3.77456">
        <ele>102.4</ele>
        <time>2021-02-07T15:01:19Z</time>
      </trkpt>
      <trkpt lat="43.62987" lon="3.7746">
        <ele>102.2</ele>
        <time>2021-02-07T15:01:20Z</time>
      </trkpt>
      <trkpt lat="43.62988" lon="3.77464">
        <ele>102</ele>
        <time>2021-02-07T15:01:21Z</time>
      </trkpt>
      <trkpt lat="43.62989" lon="3.77469">
        <ele>101.9</ele>
        <time>2021-02-07T15:01:22Z</time>
      </trkpt>
      <trkpt lat="43.6299" lon="3.77474">
        <ele>101.6</ele>
        <time>2021-02-07T15:01:23Z</time>
      </trkpt>
      <trkpt lat="43.62992" lon="3.77479">
        <ele>101.1</ele>
        <time>2021-02-07T15:01:24Z</time>
      </trkpt>
      <trkpt lat="43.62993" lon="3.77484">
        <ele>100.7</ele>
        <time>2021-02-07T15:01:25Z</time>
      </trkpt>
      <trkpt lat="43.62993" lon="3.77489">
        <ele>104</ele>
        <time>2021-02-07T15:01:26Z</time>
      </trkpt>
      <trkpt lat="43.62993" lon="3.77493">
        <ele>100</ele>
        <time>2021-02-07T15:01:27Z</time>
      </trkpt>
      <trkpt lat="43.62993" lon="3.77497">
        <ele>99.7</ele>
        <time>2021-02-07T15:01:28Z</time>
      </trkpt>
      <trkpt lat="43.62992" lon="3.775">
        <ele>99.4</ele>
        <time>2021-02-07T15:01:29Z</time>
      </trkpt>
      <trkpt lat="43.62991" lon="3.77502">
        <ele>99.5</ele>
        <time>2021-02-07T15:01:30Z</time>
      </trkpt>
      <trkpt lat="43.62989" lon="3.77504">
        <ele>99.5</ele>
        <time>2021-02-07T15:01:31Z</time>
      </trkpt>
      <trkpt lat="43.62987" lon="3.77506">
        <ele>99.7</ele>
        <time>2021-02-07T15:01:32Z</time>
      </trkpt>
      <trkpt lat="43.62984" lon="3.77508">
        <ele>99.9</ele>
        <time>2021-02-07T15:01:33Z</time>
      </trkpt>
      <trkpt lat="43.62981" lon="3.77508">
        <ele>99.9</ele>
        <time>2021-02-07T15:01:34Z</time>
      </trkpt>
      <trkpt lat="43.62978" lon="3.77508">
        <ele>102</ele>
        <time>2021-02-07T15:01:35Z</time>
      </trkpt>
      <trkpt lat="43.62975" lon="3.77507">
        <ele>99.8</ele>
        <time>2021-02-07T15:01:36Z</time>
      </trkpt>
      <trkpt lat="43.62973" lon="3.77505">
        <ele>99.3</ele>
        <time>2021-02-07T15:01:37Z</time>
      </trkpt>
      <trkpt lat="43.62968" lon="3.77504">
        <ele>99.6</ele>
        <time>2021-02-07T15:01:39Z</time>
      </trkpt>
      <trkpt lat="43.62951" lon="3.77491">
        <ele>100.4</ele>
        <time>2021-02-07T15:01:50Z</time>
      </trkpt>
      <trkpt lat="43.62944" lon="3.7748">
        <ele>99.1</ele>
        <time>2021-02-07T15:02:02Z</time>
      </trkpt>
      <trkpt lat="43.62943" lon="3.77476">
        <ele>98.5</ele>
        <time>2021-02-07T15:02:03Z</time>
      </trkpt>
      <trkpt lat="43.62942" lon="3.77474">
        <ele>98.2</ele>
        <time>2021-02-07T15:02:04Z</time>
      </trkpt>
      <trkpt lat="43.62938" lon="3.77472">
        <ele>97.8</ele>
        <time>2021-02-07T15:02:06Z</time>
      </trkpt>
      <trkpt lat="43.62936" lon="3.77471">
        <ele>97.7</ele>
        <time>2021-02-07T15:02:07Z</time>
      </trkpt>
      <trkpt lat="43.62933" lon="3.77471">
        <ele>97.6</ele>
        <time>2021-02-07T15:02:08Z</time>
      </trkpt>
      <trkpt lat="43.62931" lon="3.77469">
        <ele>97.5</ele>
        <time>2021-02-07T15:02:09Z</time>
      </trkpt>
      <trkpt lat="43.62929" lon="3.77468">
        <ele>97.4</ele>
        <time>2021-02-07T15:02:10Z</time>
      </trkpt>
      <trkpt lat="43.62928" lon="3.77466">
        <ele>97.4</ele>
        <time>2021-02-07T15:02:11Z</time>
      </trkpt>
      <trkpt lat="43.62926" lon="3.77464">
        <ele>97.3</ele>
        <time>2021-02-07T15:02:12Z</time>
      </trkpt>
      <trkpt lat="43.62924" lon="3.77461">
        <ele>97.3</ele>
        <time>2021-02-07T15:02:14Z</time>
      </trkpt>
      <trkpt lat="43.62921" lon="3.7746">
        <ele>97.2</ele>
        <time>2021-02-07T15:02:16Z</time>
      </trkpt>
      <trkpt lat="43.62918" lon="3.77457">
        <ele>97</ele>
        <time>2021-02-07T15:02:18Z</time>
      </trkpt>
      <trkpt lat="43.62916" lon="3.77455">
        <ele>97</ele>
        <time>2021-02-07T15:02:20Z</time>
      </trkpt>
      <trkpt lat="43.62914" lon="3.77453">
        <ele>97</ele>
        <time>2021-02-07T15:02:21Z</time>
      </trkpt>
      <trkpt lat="43.62912" lon="3.77452">
        <ele>97</ele>
        <time>2021-02-07T15:02:22Z</time>
      </trkpt>
      <trkpt lat="43.6291" lon="3.7745">
        <ele>97</ele>
        <time>2021-02-07T15:02:23Z</time>
      </trkpt>
      <trkpt lat="43.62908" lon="3.77449">
        <ele>96.9</ele>
        <time>2021-02-07T15:02:24Z</time>
      </trkpt>
      <trkpt lat="43.62905" lon="3.77447">
        <ele>95</ele>
        <time>2021-02-07T15:02:25Z</time>
      </trkpt>
      <trkpt lat="43.62903" lon="3.77446">
        <ele>96.6</ele>
        <time>2021-02-07T15:02:26Z</time>
      </trkpt>
      <trkpt lat="43.62901" lon="3.77445">
        <ele>96.5</ele>
        <time>2021-02-07T15:02:27Z</time>
      </trkpt>
      <trkpt lat="43.62896" lon="3.77444">
        <ele>96.3</ele>
        <time>2021-02-07T15:02:29Z</time>
      </trkpt>
      <trkpt lat="43.62884" lon="3.77444">
        <ele>96.1</ele>
        <time>2021-02-07T15:02:32Z</time>
      </trkpt>
      <trkpt lat="43.62876" lon="3.7744">
        <ele>96.8</ele>
        <time>2021-02-07T15:02:34Z</time>
      </trkpt>
      <trkpt lat="43.62872" lon="3.7744">
        <ele>96.8</ele>
        <time>2021-02-07T15:02:35Z</time>
      </trkpt>
      <trkpt lat="43.62869" lon="3.77439">
        <ele>95</ele>
        <time>2021-02-07T15:02:36Z</time>
      </trkpt>
      <trkpt lat="43.62865" lon="3.77438">
        <ele>97.2</ele>
        <time>2021-02-07T15:02:37Z</time>
      </trkpt>
      <trkpt lat="43.62861" lon="3.77438">
        <ele>97.2</ele>
        <time>2021-02-07T15:02:38Z</time>
      </trkpt>
      <trkpt lat="43.62856" lon="3.77438">
        <ele>97.2</ele>
        <time>2021-02-07T15:02:39Z</time>
      </trkpt>
      <trkpt lat="43.62853" lon="3.77439">
        <ele>97</ele>
        <time>2021-02-07T15:02:40Z</time>
      </trkpt>
      <trkpt lat="43.62849" lon="3.77439">
        <ele>97</ele>
        <time>2021-02-07T15:02:41Z</time>
      </trkpt>
      <trkpt lat="43.62845" lon="3.7744">
        <ele>96.8</ele>
        <time>2021-02-07T15:02:42Z</time>
      </trkpt>
      <trkpt lat="43.62842" lon="3.77441">
        <ele>96.6</ele>
        <time>2021-02-07T15:02:43Z</time>
      </trkpt>
      <trkpt lat="43.6284" lon="3.77442">
        <ele>96.4</ele>
        <time>2021-02-07T15:02:44Z</time>
      </trkpt>
      <trkpt lat="43.62838" lon="3.77443">
        <ele>95</ele>
        <time>2021-02-07T15:02:45Z</time>
      </trkpt>
      <trkpt lat="43.62835" lon="3.77444">
        <ele>96.1</ele>
        <time>2021-02-07T15:02:46Z</time>
      </trkpt>
      <trkpt lat="43.62833" lon="3.77445">
        <ele>96.1</ele>
        <time>2021-02-07T15:02:47Z</time>
      </trkpt>
      <trkpt lat="43.62831" lon="3.77447">
        <ele>96.2</ele>
        <time>2021-02-07T15:02:48Z</time>
      </trkpt>
      <trkpt lat="43.62828" lon="3.77449">
        <ele>96.4</ele>
        <time>2021-02-07T15:02:49Z</time>
      </trkpt>
      <trkpt lat="43.62826" lon="3.77451">
        <ele>96.5</ele>
        <time>2021-02-07T15:02:50Z</time>
      </trkpt>
      <trkpt lat="43.62824" lon="3.77453">
        <ele>96.6</ele>
        <time>2021-02-07T15:02:51Z</time>
      </trkpt>
      <trkpt lat="43.62822" lon="3.77455">
        <ele>96.7</ele>
        <time>2021-02-07T15:02:52Z</time>
      </trkpt>
      <trkpt lat="43.62821" lon="3.77457">
        <ele>96.7</ele>
        <time>2021-02-07T15:02:53Z</time>
      </trkpt>
      <trkpt lat="43.6282" lon="3.7746">
        <ele>96.8</ele>
        <time>2021-02-07T15:02:54Z</time>
      </trkpt>
      <trkpt lat="43.62819" lon="3.77462">
        <ele>95</ele>
        <time>2021-02-07T15:02:55Z</time>
      </trkpt>
      <trkpt lat="43.62817" lon="3.77463">
        <ele>96.7</ele>
        <time>2021-02-07T15:02:56Z</time>
      </trkpt>
      <trkpt lat="43.62814" lon="3.77464">
        <ele>96.6</ele>
        <time>2021-02-07T15:02:57Z</time>
      </trkpt>
      <trkpt lat="43.62812" lon="3.77465">
        <ele>96.5</ele>
        <time>2021-02-07T15:02:58Z</time>
      </trkpt>
      <trkpt lat="43.62809" lon="3.77466">
        <ele>96.4</ele>
        <time>2021-02-07T15:03:00Z</time>
      </trkpt>
      <trkpt lat="43.62806" lon="3.77468">
        <ele>96.2</ele>
        <time>2021-02-07T15:03:02Z</time>
      </trkpt>
      <trkpt lat="43.62804" lon="3.77469">
        <ele>96.1</ele>
        <time>2021-02-07T15:03:03Z</time>
      </trkpt>
      <trkpt lat="43.62802" lon="3.77471">
        <ele>95.9</ele>
        <time>2021-02-07T15:03:04Z</time>
      </trkpt>
      <trkpt lat="43.628" lon="3.77474">
        <ele>95</ele>
        <time>2021-02-07T15:03:05Z</time>
      </trkpt>
      <trkpt lat="43.62797" lon="3.77475">
        <ele>96</ele>
        <time>2021-02-07T15:03:06Z</time>
      </trkpt>
      <trkpt lat="43.62795" lon="3.77477">
        <ele>96.2</ele>
        <time>2021-02-07T15:03:07Z</time>
      </trkpt>
      <trkpt lat="43.62792" lon="3.77479">
        <ele>96.1</ele>
        <time>2021-02-07T15:03:08Z</time>
      </trkpt>
      <trkpt lat="43.6279" lon="3.77482">
        <ele>96.2</ele>
        <time>2021-02-07T15:03:09Z</time>
      </trkpt>
      <trkpt lat="43.62788" lon="3.77485">
        <ele>96.2</ele>
        <time>2021-02-07T15:03:10Z</time>
      </trkpt>
      <trkpt lat="43.62787" lon="3.77488">
        <ele>96.3</ele>
        <time>2021-02-07T15:03:11Z</time>
      </trkpt>
      <trkpt lat="43.62785" lon="3.77491">
        <ele>96.1</ele>
        <time>2021-02-07T15:03:12Z</time>
      </trkpt>
      <trkpt lat="43.62783" lon="3.77494">
        <ele>95.9</ele>
        <time>2021-02-07T15:03:13Z</time>
      </trkpt>
      <trkpt lat="43.62781" lon="3.77497">
        <ele>95.6</ele>
        <time>2021-02-07T15:03:14Z</time>
      </trkpt>
      <trkpt lat="43.62779" lon="3.775">
        <ele>96</ele>
        <time>2021-02-07T15:03:15Z</time>
      </trkpt>
      <trkpt lat="43.62778" lon="3.77503">
        <ele>95.6</ele>
        <time>2021-02-07T15:03:16Z</time>
      </trkpt>
      <trkpt lat="43.62777" lon="3.77505">
        <ele>95.9</ele>
        <time>2021-02-07T15:03:17Z</time>
      </trkpt>
      <trkpt lat="43.62776" lon="3.77507">
        <ele>96.2</ele>
        <time>2021-02-07T15:03:18Z</time>
      </trkpt>
      <trkpt lat="43.62774" lon="3.77509">
        <ele>96.4</ele>
        <time>2021-02-07T15:03:19Z</time>
      </trkpt>
      <trkpt lat="43.62772" lon="3.77509">
        <ele>96.2</ele>
        <time>2021-02-07T15:03:20Z</time>
      </trkpt>
      <trkpt lat="43.6277" lon="3.7751">
        <ele>96.2</ele>
        <time>2021-02-07T15:03:21Z</time>
      </trkpt>
      <trkpt lat="43.62768" lon="3.7751">
        <ele>96</ele>
        <time>2021-02-07T15:03:22Z</time>
      </trkpt>
      <trkpt lat="43.62766" lon="3.77511">
        <ele>96</ele>
        <time>2021-02-07T15:03:23Z</time>
      </trkpt>
      <trkpt lat="43.62763" lon="3.77512">
        <ele>95.8</ele>
        <time>2021-02-07T15:03:24Z</time>
      </trkpt>
      <trkpt lat="43.6276" lon="3.77514">
        <ele>95</ele>
        <time>2021-02-07T15:03:25Z</time>
      </trkpt>
      <trkpt lat="43.62758" lon="3.77517">
        <ele>95.4</ele>
        <time>2021-02-07T15:03:26Z</time>
      </trkpt>
      <trkpt lat="43.62755" lon="3.7752">
        <ele>95.1</ele>
        <time>2021-02-07T15:03:27Z</time>
      </trkpt>
      <trkpt lat="43.62753" lon="3.77523">
        <ele>94.7</ele>
        <time>2021-02-07T15:03:28Z</time>
      </trkpt>
      <trkpt lat="43.62751" lon="3.77526">
        <ele>94.3</ele>
        <time>2021-02-07T15:03:29Z</time>
      </trkpt>
      <trkpt lat="43.62748" lon="3.77529">
        <ele>94</ele>
        <time>2021-02-07T15:03:30Z</time>
      </trkpt>
      <trkpt lat="43.62746" lon="3.77532">
        <ele>94.1</ele>
        <time>2021-02-07T15:03:31Z</time>
      </trkpt>
      <trkpt lat="43.62745" lon="3.77534">
        <ele>94.2</ele>
        <time>2021-02-07T15:03:32Z</time>
      </trkpt>
      <trkpt lat="43.62742" lon="3.77539">
        <ele>94.3</ele>
        <time>2021-02-07T15:03:34Z</time>
      </trkpt>
      <trkpt lat="43.6274" lon="3.77541">
        <ele>95</ele>
        <time>2021-02-07T15:03:35Z</time>
      </trkpt>
      <trkpt lat="43.62738" lon="3.77544">
        <ele>94.2</ele>
        <time>2021-02-07T15:03:36Z</time>
      </trkpt>
      <trkpt lat="43.62736" lon="3.77546">
        <ele>94.1</ele>
        <time>2021-02-07T15:03:37Z</time>
      </trkpt>
      <trkpt lat="43.62734" lon="3.77548">
        <ele>94</ele>
        <time>2021-02-07T15:03:38Z</time>
      </trkpt>
      <trkpt lat="43.62732" lon="3.7755">
        <ele>93.9</ele>
        <time>2021-02-07T15:03:39Z</time>
      </trkpt>
      <trkpt lat="43.6273" lon="3.77553">
        <ele>93.8</ele>
        <time>2021-02-07T15:03:40Z</time>
      </trkpt>
      <trkpt lat="43.62728" lon="3.77555">
        <ele>93.6</ele>
        <time>2021-02-07T15:03:41Z</time>
      </trkpt>
      <trkpt lat="43.62726" lon="3.77557">
        <ele>93.5</ele>
        <time>2021-02-07T15:03:42Z</time>
      </trkpt>
      <trkpt lat="43.62725" lon="3.77559">
        <ele>93.4</ele>
        <time>2021-02-07T15:03:43Z</time>
      </trkpt>
      <trkpt lat="43.62723" lon="3.7756">
        <ele>93.2</ele>
        <time>2021-02-07T15:03:44Z</time>
      </trkpt>
      <trkpt lat="43.62721" lon="3.77562">
        <ele>94</ele>
        <time>2021-02-07T15:03:45Z</time>
      </trkpt>
      <trkpt lat="43.6272" lon="3.77565">
        <ele>93.7</ele>
        <time>2021-02-07T15:03:46Z</time>
      </trkpt>
      <trkpt lat="43.62719" lon="3.77567">
        <ele>93.9</ele>
        <time>2021-02-07T15:03:47Z</time>
      </trkpt>
      <trkpt lat="43.62718" lon="3.7757">
        <ele>94.1</ele>
        <time>2021-02-07T15:03:48Z</time>
      </trkpt>
      <trkpt lat="43.62717" lon="3.77573">
        <ele>94.4</ele>
        <time>2021-02-07T15:03:49Z</time>
      </trkpt>
      <trkpt lat="43.62716" lon="3.77576">
        <ele>94.6</ele>
        <time>2021-02-07T15:03:50Z</time>
      </trkpt>
      <trkpt lat="43.62715" lon="3.77579">
        <ele>94.9</ele>
        <time>2021-02-07T15:03:51Z</time>
      </trkpt>
      <trkpt lat="43.62714" lon="3.77583">
        <ele>95.2</ele>
        <time>2021-02-07T15:03:52Z</time>
      </trkpt>
      <trkpt lat="43.62714" lon="3.77586">
        <ele>95.1</ele>
        <time>2021-02-07T15:03:53Z</time>
      </trkpt>
      <trkpt lat="43.62715" lon="3.77589">
        <ele>94.9</ele>
        <time>2021-02-07T15:03:54Z</time>
      </trkpt>
      <trkpt lat="43.62715" lon="3.77592">
        <ele>94</ele>
        <time>2021-02-07T15:03:55Z</time>
      </trkpt>
      <trkpt lat="43.62715" lon="3.77596">
        <ele>94.8</ele>
        <time>2021-02-07T15:03:56Z</time>
      </trkpt>
      <trkpt lat="43.62715" lon="3.77599">
        <ele>94.8</ele>
        <time>2021-02-07T15:03:57Z</time>
      </trkpt>
      <trkpt lat="43.62715" lon="3.77602">
        <ele>94.7</ele>
        <time>2021-02-07T15:03:58Z</time>
      </trkpt>
      <trkpt lat="43.62716" lon="3.77604">
        <ele>94.5</ele>
        <time>2021-02-07T15:03:59Z</time>
      </trkpt>
      <trkpt lat="43.62716" lon="3.77607">
        <ele>94.4</ele>
        <time>2021-02-07T15:04:00Z</time>
      </trkpt>
      <trkpt lat="43.62717" lon="3.7761">
        <ele>94.2</ele>
        <time>2021-02-07T15:04:01Z</time>
      </trkpt>
      <trkpt lat="43.62717" lon="3.77613">
        <ele>94.1</ele>
        <time>2021-02-07T15:04:02Z</time>
      </trkpt>
      <trkpt lat="43.62718" lon="3.77616">
        <ele>93.9</ele>
        <time>2021-02-07T15:04:03Z</time>
      </trkpt>
      <trkpt lat="43.62719" lon="3.77619">
        <ele>93.7</ele>
        <time>2021-02-07T15:04:04Z</time>
      </trkpt>
      <trkpt lat="43.6272" lon="3.77623">
        <ele>93</ele>
        <time>2021-02-07T15:04:05Z</time>
      </trkpt>
      <trkpt lat="43.6272" lon="3.77628">
        <ele>93.5</ele>
        <time>2021-02-07T15:04:06Z</time>
      </trkpt>
      <trkpt lat="43.6272" lon="3.77632">
        <ele>93.5</ele>
        <time>2021-02-07T15:04:07Z</time>
      </trkpt>
      <trkpt lat="43.62721" lon="3.77636">
        <ele>93.3</ele>
        <time>2021-02-07T15:04:08Z</time>
      </trkpt>
      <trkpt lat="43.62722" lon="3.7764">
        <ele>93</ele>
        <time>2021-02-07T15:04:09Z</time>
      </trkpt>
      <trkpt lat="43.62723" lon="3.77643">
        <ele>93.1</ele>
        <time>2021-02-07T15:04:10Z</time>
      </trkpt>
      <trkpt lat="43.62724" lon="3.77646">
        <ele>93.2</ele>
        <time>2021-02-07T15:04:11Z</time>
      </trkpt>
      <trkpt lat="43.62725" lon="3.77649">
        <ele>93.3</ele>
        <time>2021-02-07T15:04:13Z</time>
      </trkpt>
      <trkpt lat="43.62726" lon="3.77653">
        <ele>93</ele>
        <time>2021-02-07T15:04:15Z</time>
      </trkpt>
      <trkpt lat="43.62726" lon="3.77657">
        <ele>93.3</ele>
        <time>2021-02-07T15:04:17Z</time>
      </trkpt>
      <trkpt lat="43.62726" lon="3.77661">
        <ele>93.3</ele>
        <time>2021-02-07T15:04:19Z</time>
      </trkpt>
      <trkpt lat="43.62726" lon="3.77666">
        <ele>93.3</ele>
        <time>2021-02-07T15:04:21Z</time>
      </trkpt>
      <trkpt lat="43.62726" lon="3.7767">
        <ele>93.3</ele>
        <time>2021-02-07T15:04:23Z</time>
      </trkpt>
      <trkpt lat="43.62726" lon="3.77675">
        <ele>94</ele>
        <time>2021-02-07T15:04:25Z</time>
      </trkpt>
      <trkpt lat="43.62726" lon="3.7768">
        <ele>93.2</ele>
        <time>2021-02-07T15:04:27Z</time>
      </trkpt>
      <trkpt lat="43.62725" lon="3.77685">
        <ele>93.1</ele>
        <time>2021-02-07T15:04:29Z</time>
      </trkpt>
      <trkpt lat="43.62725" lon="3.77689">
        <ele>93.1</ele>
        <time>2021-02-07T15:04:31Z</time>
      </trkpt>
      <trkpt lat="43.62724" lon="3.77694">
        <ele>93.1</ele>
        <time>2021-02-07T15:04:33Z</time>
      </trkpt>
      <trkpt lat="43.62724" lon="3.77699">
        <ele>93.2</ele>
        <time>2021-02-07T15:04:35Z</time>
      </trkpt>
      <trkpt lat="43.62723" lon="3.77703">
        <ele>93.3</ele>
        <time>2021-02-07T15:04:37Z</time>
      </trkpt>
      <trkpt lat="43.62722" lon="3.77708">
        <ele>93.5</ele>
        <time>2021-02-07T15:04:39Z</time>
      </trkpt>
      <trkpt lat="43.62721" lon="3.77712">
        <ele>93.9</ele>
        <time>2021-02-07T15:04:41Z</time>
      </trkpt>
      <trkpt lat="43.62719" lon="3.77715">
        <ele>94.5</ele>
        <time>2021-02-07T15:04:43Z</time>
      </trkpt>
      <trkpt lat="43.62717" lon="3.77718">
        <ele>95</ele>
        <time>2021-02-07T15:04:45Z</time>
      </trkpt>
      <trkpt lat="43.62714" lon="3.7772">
        <ele>95.7</ele>
        <time>2021-02-07T15:04:47Z</time>
      </trkpt>
      <trkpt lat="43.62712" lon="3.77723">
        <ele>96.2</ele>
        <time>2021-02-07T15:04:49Z</time>
      </trkpt>
      <trkpt lat="43.6271" lon="3.77724">
        <ele>96.7</ele>
        <time>2021-02-07T15:04:51Z</time>
      </trkpt>
      <trkpt lat="43.62708" lon="3.77725">
        <ele>97.2</ele>
        <time>2021-02-07T15:04:53Z</time>
      </trkpt>
      <trkpt lat="43.62706" lon="3.77727">
        <ele>97.6</ele>
        <time>2021-02-07T15:04:55Z</time>
      </trkpt>
      <trkpt lat="43.62703" lon="3.77728">
        <ele>98.3</ele>
        <time>2021-02-07T15:04:57Z</time>
      </trkpt>
      <trkpt lat="43.627" lon="3.77728">
        <ele>98.9</ele>
        <time>2021-02-07T15:04:59Z</time>
      </trkpt>
      <trkpt lat="43.62698" lon="3.77726">
        <ele>99.3</ele>
        <time>2021-02-07T15:05:01Z</time>
      </trkpt>
      <trkpt lat="43.62696" lon="3.77723">
        <ele>99.7</ele>
        <time>2021-02-07T15:05:03Z</time>
      </trkpt>
      <trkpt lat="43.62693" lon="3.77721">
        <ele>100.1</ele>
        <time>2021-02-07T15:05:05Z</time>
      </trkpt>
      <trkpt lat="43.62691" lon="3.77719">
        <ele>100.3</ele>
        <time>2021-02-07T15:05:07Z</time>
      </trkpt>
      <trkpt lat="43.62689" lon="3.77717">
        <ele>100.4</ele>
        <time>2021-02-07T15:05:09Z</time>
      </trkpt>
      <trkpt lat="43.62687" lon="3.77717">
        <ele>100.6</ele>
        <time>2021-02-07T15:05:11Z</time>
      </trkpt>
      <trkpt lat="43.62683" lon="3.77719">
        <ele>100.9</ele>
        <time>2021-02-07T15:05:13Z</time>
      </trkpt>
      <trkpt lat="43.62682" lon="3.7772">
        <ele>100.9</ele>
        <time>2021-02-07T15:05:14Z</time>
      </trkpt>
      <trkpt lat="43.62679" lon="3.77722">
        <ele>101.1</ele>
        <time>2021-02-07T15:05:16Z</time>
      </trkpt>
      <trkpt lat="43.62676" lon="3.77724">
        <ele>101.3</ele>
        <time>2021-02-07T15:05:18Z</time>
      </trkpt>
      <trkpt lat="43.62673" lon="3.77726">
        <ele>101.4</ele>
        <time>2021-02-07T15:05:20Z</time>
      </trkpt>
      <trkpt lat="43.62671" lon="3.77729">
        <ele>101.5</ele>
        <time>2021-02-07T15:05:22Z</time>
      </trkpt>
      <trkpt lat="43.62668" lon="3.77731">
        <ele>101.6</ele>
        <time>2021-02-07T15:05:24Z</time>
      </trkpt>
      <trkpt lat="43.62666" lon="3.77732">
        <ele>101.6</ele>
        <time>2021-02-07T15:05:26Z</time>
      </trkpt>
      <trkpt lat="43.62665" lon="3.77733">
        <ele>101</ele>
        <time>2021-02-07T15:05:33Z</time>
      </trkpt>
      <trkpt lat="43.6266" lon="3.7774">
        <ele>102</ele>
        <time>2021-02-07T15:06:14Z</time>
      </trkpt>
      <trkpt lat="43.62657" lon="3.77742">
        <ele>101</ele>
        <time>2021-02-07T15:06:15Z</time>
      </trkpt>
      <trkpt lat="43.62654" lon="3.77745">
        <ele>100.8</ele>
        <time>2021-02-07T15:06:16Z</time>
      </trkpt>
      <trkpt lat="43.62651" lon="3.77747">
        <ele>100.6</ele>
        <time>2021-02-07T15:06:17Z</time>
      </trkpt>
      <trkpt lat="43.62648" lon="3.7775">
        <ele>100.3</ele>
        <time>2021-02-07T15:06:18Z</time>
      </trkpt>
      <trkpt lat="43.62644" lon="3.77754">
        <ele>99.8</ele>
        <time>2021-02-07T15:06:19Z</time>
      </trkpt>
      <trkpt lat="43.62641" lon="3.7776">
        <ele>99</ele>
        <time>2021-02-07T15:06:20Z</time>
      </trkpt>
      <trkpt lat="43.62637" lon="3.77767">
        <ele>98</ele>
        <time>2021-02-07T15:06:21Z</time>
      </trkpt>
      <trkpt lat="43.62631" lon="3.77774">
        <ele>96.6</ele>
        <time>2021-02-07T15:06:22Z</time>
      </trkpt>
      <trkpt lat="43.62625" lon="3.77779">
        <ele>95.3</ele>
        <time>2021-02-07T15:06:23Z</time>
      </trkpt>
      <trkpt lat="43.62619" lon="3.77783">
        <ele>100</ele>
        <time>2021-02-07T15:06:24Z</time>
      </trkpt>
      <trkpt lat="43.62611" lon="3.77786">
        <ele>92.5</ele>
        <time>2021-02-07T15:06:25Z</time>
      </trkpt>
      <trkpt lat="43.62603" lon="3.77787">
        <ele>91.5</ele>
        <time>2021-02-07T15:06:26Z</time>
      </trkpt>
      <trkpt lat="43.62594" lon="3.77786">
        <ele>90.7</ele>
        <time>2021-02-07T15:06:27Z</time>
      </trkpt>
      <trkpt lat="43.62586" lon="3.77782">
        <ele>90.5</ele>
        <time>2021-02-07T15:06:28Z</time>
      </trkpt>
      <trkpt lat="43.62577" lon="3.77779">
        <ele>90.3</ele>
        <time>2021-02-07T15:06:29Z</time>
      </trkpt>
      <trkpt lat="43.62569" lon="3.77775">
        <ele>90.5</ele>
        <time>2021-02-07T15:06:30Z</time>
      </trkpt>
      <trkpt lat="43.62561" lon="3.77773">
        <ele>90.3</ele>
        <time>2021-02-07T15:06:31Z</time>
      </trkpt>
      <trkpt lat="43.62553" lon="3.77771">
        <ele>90.2</ele>
        <time>2021-02-07T15:06:32Z</time>
      </trkpt>
      <trkpt lat="43.62545" lon="3.7777">
        <ele>90.1</ele>
        <time>2021-02-07T15:06:33Z</time>
      </trkpt>
      <trkpt lat="43.62537" lon="3.77769">
        <ele>94</ele>
        <time>2021-02-07T15:06:34Z</time>
      </trkpt>
      <trkpt lat="43.62528" lon="3.7777">
        <ele>89.7</ele>
        <time>2021-02-07T15:06:35Z</time>
      </trkpt>
      <trkpt lat="43.62519" lon="3.77771">
        <ele>89.5</ele>
        <time>2021-02-07T15:06:36Z</time>
      </trkpt>
      <trkpt lat="43.62509" lon="3.77772">
        <ele>89.4</ele>
        <time>2021-02-07T15:06:37Z</time>
      </trkpt>
      <trkpt lat="43.62499" lon="3.77774">
        <ele>89</ele>
        <time>2021-02-07T15:06:38Z</time>
      </trkpt>
      <trkpt lat="43.6249" lon="3.77778">
        <ele>88.7</ele>
        <time>2021-02-07T15:06:39Z</time>
      </trkpt>
      <trkpt lat="43.6248" lon="3.77782">
        <ele>88.5</ele>
        <time>2021-02-07T15:06:40Z</time>
      </trkpt>
      <trkpt lat="43.6247" lon="3.77787">
        <ele>88.2</ele>
        <time>2021-02-07T15:06:41Z</time>
      </trkpt>
      <trkpt lat="43.6246" lon="3.77793">
        <ele>88</ele>
        <time>2021-02-07T15:06:42Z</time>
      </trkpt>
      <trkpt lat="43.6245" lon="3.77798">
        <ele>88</ele>
        <time>2021-02-07T15:06:43Z</time>
      </trkpt>
      <trkpt lat="43.62441" lon="3.77804">
        <ele>91</ele>
        <time>2021-02-07T15:06:44Z</time>
      </trkpt>
      <trkpt lat="43.62431" lon="3.77811">
        <ele>87.5</ele>
        <time>2021-02-07T15:06:45Z</time>
      </trkpt>
      <trkpt lat="43.62421" lon="3.77817">
        <ele>87.5</ele>
        <time>2021-02-07T15:06:46Z</time>
      </trkpt>
      <trkpt lat="43.62412" lon="3.77823">
        <ele>87.4</ele>
        <time>2021-02-07T15:06:47Z</time>
      </trkpt>
      <trkpt lat="43.62402" lon="3.77829">
        <ele>87.4</ele>
        <time>2021-02-07T15:06:48Z</time>
      </trkpt>
      <trkpt lat="43.62392" lon="3.77836">
        <ele>87.3</ele>
        <time>2021-02-07T15:06:49Z</time>
      </trkpt>
      <trkpt lat="43.62383" lon="3.77843">
        <ele>87.6</ele>
        <time>2021-02-07T15:06:50Z</time>
      </trkpt>
      <trkpt lat="43.62375" lon="3.77852">
        <ele>88</ele>
        <time>2021-02-07T15:06:51Z</time>
      </trkpt>
      <trkpt lat="43.62368" lon="3.77862">
        <ele>88.5</ele>
        <time>2021-02-07T15:06:52Z</time>
      </trkpt>
      <trkpt lat="43.6236" lon="3.77871">
        <ele>89.8</ele>
        <time>2021-02-07T15:06:53Z</time>
      </trkpt>
      <trkpt lat="43.62353" lon="3.77879">
        <ele>91</ele>
        <time>2021-02-07T15:06:54Z</time>
      </trkpt>
      <trkpt lat="43.62347" lon="3.77887">
        <ele>91.1</ele>
        <time>2021-02-07T15:06:55Z</time>
      </trkpt>
      <trkpt lat="43.62341" lon="3.77893">
        <ele>91.9</ele>
        <time>2021-02-07T15:06:56Z</time>
      </trkpt>
      <trkpt lat="43.62336" lon="3.779">
        <ele>92.6</ele>
        <time>2021-02-07T15:06:57Z</time>
      </trkpt>
      <trkpt lat="43.62331" lon="3.77905">
        <ele>93</ele>
        <time>2021-02-07T15:06:58Z</time>
      </trkpt>
      <trkpt lat="43.62326" lon="3.77908">
        <ele>93</ele>
        <time>2021-02-07T15:06:59Z</time>
      </trkpt>
      <trkpt lat="43.62321" lon="3.77909">
        <ele>93</ele>
        <time>2021-02-07T15:07:00Z</time>
      </trkpt>
      <trkpt lat="43.62316" lon="3.77908">
        <ele>93</ele>
        <time>2021-02-07T15:07:01Z</time>
      </trkpt>
      <trkpt lat="43.62312" lon="3.77907">
        <ele>93</ele>
        <time>2021-02-07T15:07:02Z</time>
      </trkpt>
      <trkpt lat="43.62308" lon="3.77904">
        <ele>93</ele>
        <time>2021-02-07T15:07:03Z</time>
      </trkpt>
      <trkpt lat="43.62305" lon="3.77902">
        <ele>93</ele>
        <time>2021-02-07T15:07:04Z</time>
      </trkpt>
      <trkpt lat="43.62301" lon="3.77901">
        <ele>92.9</ele>
        <time>2021-02-07T15:07:05Z</time>
      </trkpt>
      <trkpt lat="43.62298" lon="3.77899">
        <ele>92.9</ele>
        <time>2021-02-07T15:07:06Z</time>
      </trkpt>
      <trkpt lat="43.62295" lon="3.77898">
        <ele>92.9</ele>
        <time>2021-02-07T15:07:07Z</time>
      </trkpt>
      <trkpt lat="43.62293" lon="3.77897">
        <ele>92.9</ele>
        <time>2021-02-07T15:07:08Z</time>
      </trkpt>
      <trkpt lat="43.6229" lon="3.77896">
        <ele>92.9</ele>
        <time>2021-02-07T15:07:09Z</time>
      </trkpt>
      <trkpt lat="43.62287" lon="3.77895">
        <ele>92.9</ele>
        <time>2021-02-07T15:07:10Z</time>
      </trkpt>
      <trkpt lat="43.62285" lon="3.77894">
        <ele>92.9</ele>
        <time>2021-02-07T15:07:11Z</time>
      </trkpt>
      <trkpt lat="43.62282" lon="3.77893">
        <ele>92.9</ele>
        <time>2021-02-07T15:07:12Z</time>
      </trkpt>
      <trkpt lat="43.62279" lon="3.77892">
        <ele>92.9</ele>
        <time>2021-02-07T15:07:13Z</time>
      </trkpt>
      <trkpt lat="43.62276" lon="3.77891">
        <ele>92</ele>
        <time>2021-02-07T15:07:14Z</time>
      </trkpt>
      <trkpt lat="43.62272" lon="3.7789">
        <ele>93</ele>
        <time>2021-02-07T15:07:15Z</time>
      </trkpt>
      <trkpt lat="43.62269" lon="3.77889">
        <ele>93</ele>
        <time>2021-02-07T15:07:16Z</time>
      </trkpt>
      <trkpt lat="43.62266" lon="3.77888">
        <ele>93.1</ele>
        <time>2021-02-07T15:07:17Z</time>
      </trkpt>
      <trkpt lat="43.62263" lon="3.77887">
        <ele>93.1</ele>
        <time>2021-02-07T15:07:18Z</time>
      </trkpt>
      <trkpt lat="43.6226" lon="3.77887">
        <ele>93.1</ele>
        <time>2021-02-07T15:07:19Z</time>
      </trkpt>
      <trkpt lat="43.62256" lon="3.77886">
        <ele>93.2</ele>
        <time>2021-02-07T15:07:20Z</time>
      </trkpt>
      <trkpt lat="43.62253" lon="3.77885">
        <ele>93.3</ele>
        <time>2021-02-07T15:07:21Z</time>
      </trkpt>
      <trkpt lat="43.62251" lon="3.77884">
        <ele>93.4</ele>
        <time>2021-02-07T15:07:22Z</time>
      </trkpt>
      <trkpt lat="43.62248" lon="3.77883">
        <ele>92</ele>
        <time>2021-02-07T15:07:23Z</time>
      </trkpt>
      <trkpt lat="43.62245" lon="3.77883">
        <ele>93.6</ele>
        <time>2021-02-07T15:07:24Z</time>
      </trkpt>
      <trkpt lat="43.62243" lon="3.77882">
        <ele>93.7</ele>
        <time>2021-02-07T15:07:25Z</time>
      </trkpt>
      <trkpt lat="43.6224" lon="3.77881">
        <ele>93.8</ele>
        <time>2021-02-07T15:07:26Z</time>
      </trkpt>
      <trkpt lat="43.62238" lon="3.77881">
        <ele>93.9</ele>
        <time>2021-02-07T15:07:27Z</time>
      </trkpt>
      <trkpt lat="43.62236" lon="3.7788">
        <ele>94</ele>
        <time>2021-02-07T15:07:28Z</time>
      </trkpt>
      <trkpt lat="43.62233" lon="3.7788">
        <ele>94.1</ele>
        <time>2021-02-07T15:07:29Z</time>
      </trkpt>
      <trkpt lat="43.6223" lon="3.77879">
        <ele>94.2</ele>
        <time>2021-02-07T15:07:30Z</time>
      </trkpt>
      <trkpt lat="43.62228" lon="3.77879">
        <ele>94.2</ele>
        <time>2021-02-07T15:07:31Z</time>
      </trkpt>
      <trkpt lat="43.62225" lon="3.77879">
        <ele>94.3</ele>
        <time>2021-02-07T15:07:32Z</time>
      </trkpt>
      <trkpt lat="43.62222" lon="3.77878">
        <ele>93</ele>
        <time>2021-02-07T15:07:33Z</time>
      </trkpt>
      <trkpt lat="43.6222" lon="3.77877">
        <ele>94.4</ele>
        <time>2021-02-07T15:07:34Z</time>
      </trkpt>
      <trkpt lat="43.62218" lon="3.77876">
        <ele>94.5</ele>
        <time>2021-02-07T15:07:35Z</time>
      </trkpt>
      <trkpt lat="43.62216" lon="3.77875">
        <ele>94.5</ele>
        <time>2021-02-07T15:07:36Z</time>
      </trkpt>
      <trkpt lat="43.62214" lon="3.77874">
        <ele>94.5</ele>
        <time>2021-02-07T15:07:37Z</time>
      </trkpt>
      <trkpt lat="43.62211" lon="3.77874">
        <ele>94.5</ele>
        <time>2021-02-07T15:07:38Z</time>
      </trkpt>
      <trkpt lat="43.62209" lon="3.77873">
        <ele>94.6</ele>
        <time>2021-02-07T15:07:39Z</time>
      </trkpt>
      <trkpt lat="43.62207" lon="3.77872">
        <ele>94.6</ele>
        <time>2021-02-07T15:07:40Z</time>
      </trkpt>
      <trkpt lat="43.62205" lon="3.77872">
        <ele>94.6</ele>
        <time>2021-02-07T15:07:41Z</time>
      </trkpt>
      <trkpt lat="43.62202" lon="3.77871">
        <ele>94</ele>
        <time>2021-02-07T15:07:43Z</time>
      </trkpt>
      <trkpt lat="43.62199" lon="3.77869">
        <ele>94.7</ele>
        <time>2021-02-07T15:07:45Z</time>
      </trkpt>
      <trkpt lat="43.62195" lon="3.77868">
        <ele>94.8</ele>
        <time>2021-02-07T15:07:47Z</time>
      </trkpt>
      <trkpt lat="43.62193" lon="3.77868">
        <ele>94.8</ele>
        <time>2021-02-07T15:07:48Z</time>
      </trkpt>
      <trkpt lat="43.62191" lon="3.77868">
        <ele>94.9</ele>
        <time>2021-02-07T15:07:49Z</time>
      </trkpt>
      <trkpt lat="43.62188" lon="3.77868">
        <ele>95</ele>
        <time>2021-02-07T15:07:50Z</time>
      </trkpt>
      <trkpt lat="43.62186" lon="3.77867">
        <ele>95.1</ele>
        <time>2021-02-07T15:07:51Z</time>
      </trkpt>
      <trkpt lat="43.62185" lon="3.77867">
        <ele>95.1</ele>
        <time>2021-02-07T15:07:52Z</time>
      </trkpt>
      <trkpt lat="43.62181" lon="3.77866">
        <ele>95.3</ele>
        <time>2021-02-07T15:07:54Z</time>
      </trkpt>
      <trkpt lat="43.62179" lon="3.77866">
        <ele>95.4</ele>
        <time>2021-02-07T15:07:55Z</time>
      </trkpt>
      <trkpt lat="43.62177" lon="3.77866">
        <ele>95.5</ele>
        <time>2021-02-07T15:07:56Z</time>
      </trkpt>
      <trkpt lat="43.62175" lon="3.77866">
        <ele>95.5</ele>
        <time>2021-02-07T15:07:57Z</time>
      </trkpt>
      <trkpt lat="43.62173" lon="3.77865">
        <ele>95.6</ele>
        <time>2021-02-07T15:07:58Z</time>
      </trkpt>
      <trkpt lat="43.6217" lon="3.77865">
        <ele>95.7</ele>
        <time>2021-02-07T15:07:59Z</time>
      </trkpt>
      <trkpt lat="43.62168" lon="3.77865">
        <ele>95.8</ele>
        <time>2021-02-07T15:08:00Z</time>
      </trkpt>
      <trkpt lat="43.62166" lon="3.77865">
        <ele>95.9</ele>
        <time>2021-02-07T15:08:01Z</time>
      </trkpt>
      <trkpt lat="43.62164" lon="3.77865">
        <ele>95.9</ele>
        <time>2021-02-07T15:08:02Z</time>
      </trkpt>
      <trkpt lat="43.62162" lon="3.77865">
        <ele>95</ele>
        <time>2021-02-07T15:08:03Z</time>
      </trkpt>
      <trkpt lat="43.6216" lon="3.77865">
        <ele>95.9</ele>
        <time>2021-02-07T15:08:04Z</time>
      </trkpt>
      <trkpt lat="43.62157" lon="3.77866">
        <ele>95.8</ele>
        <time>2021-02-07T15:08:06Z</time>
      </trkpt>
      <trkpt lat="43.62153" lon="3.77866">
        <ele>95.8</ele>
        <time>2021-02-07T15:08:08Z</time>
      </trkpt>
      <trkpt lat="43.6215" lon="3.77867">
        <ele>95.8</ele>
        <time>2021-02-07T15:08:10Z</time>
      </trkpt>
      <trkpt lat="43.62148" lon="3.77867">
        <ele>95.8</ele>
        <time>2021-02-07T15:08:11Z</time>
      </trkpt>
      <trkpt lat="43.62146" lon="3.77867">
        <ele>95.8</ele>
        <time>2021-02-07T15:08:12Z</time>
      </trkpt>
      <trkpt lat="43.62143" lon="3.77867">
        <ele>95.8</ele>
        <time>2021-02-07T15:08:14Z</time>
      </trkpt>
      <trkpt lat="43.6214" lon="3.77868">
        <ele>95.8</ele>
        <time>2021-02-07T15:08:16Z</time>
      </trkpt>
      <trkpt lat="43.62137" lon="3.77868">
        <ele>95.6</ele>
        <time>2021-02-07T15:08:18Z</time>
      </trkpt>
      <trkpt lat="43.62134" lon="3.77869">
        <ele>95.4</ele>
        <time>2021-02-07T15:08:20Z</time>
      </trkpt>
      <trkpt lat="43.62131" lon="3.77869">
        <ele>95.2</ele>
        <time>2021-02-07T15:08:22Z</time>
      </trkpt>
      <trkpt lat="43.62129" lon="3.77869">
        <ele>95</ele>
        <time>2021-02-07T15:08:23Z</time>
      </trkpt>
      <trkpt lat="43.62127" lon="3.77869">
        <ele>95</ele>
        <time>2021-02-07T15:08:24Z</time>
      </trkpt>
      <trkpt lat="43.62125" lon="3.77869">
        <ele>94.9</ele>
        <time>2021-02-07T15:08:25Z</time>
      </trkpt>
      <trkpt lat="43.62123" lon="3.7787">
        <ele>94.7</ele>
        <time>2021-02-07T15:08:26Z</time>
      </trkpt>
      <trkpt lat="43.6212" lon="3.77869">
        <ele>94.5</ele>
        <time>2021-02-07T15:08:27Z</time>
      </trkpt>
      <trkpt lat="43.62119" lon="3.77868">
        <ele>94.5</ele>
        <time>2021-02-07T15:08:28Z</time>
      </trkpt>
      <trkpt lat="43.62117" lon="3.77868">
        <ele>94.4</ele>
        <time>2021-02-07T15:08:29Z</time>
      </trkpt>
      <trkpt lat="43.62114" lon="3.77868">
        <ele>94.2</ele>
        <time>2021-02-07T15:08:30Z</time>
      </trkpt>
      <trkpt lat="43.62112" lon="3.77868">
        <ele>94.1</ele>
        <time>2021-02-07T15:08:31Z</time>
      </trkpt>
      <trkpt lat="43.6211" lon="3.77868">
        <ele>94</ele>
        <time>2021-02-07T15:08:32Z</time>
      </trkpt>
      <trkpt lat="43.62107" lon="3.77868">
        <ele>95</ele>
        <time>2021-02-07T15:08:33Z</time>
      </trkpt>
      <trkpt lat="43.62104" lon="3.77868">
        <ele>93.7</ele>
        <time>2021-02-07T15:08:34Z</time>
      </trkpt>
      <trkpt lat="43.62101" lon="3.77867">
        <ele>93.6</ele>
        <time>2021-02-07T15:08:35Z</time>
      </trkpt>
      <trkpt lat="43.62099" lon="3.77866">
        <ele>93.6</ele>
        <time>2021-02-07T15:08:36Z</time>
      </trkpt>
      <trkpt lat="43.62097" lon="3.77866">
        <ele>93.5</ele>
        <time>2021-02-07T15:08:37Z</time>
      </trkpt>
      <trkpt lat="43.62094" lon="3.77866">
        <ele>93.4</ele>
        <time>2021-02-07T15:08:38Z</time>
      </trkpt>
      <trkpt lat="43.62091" lon="3.77866">
        <ele>93.3</ele>
        <time>2021-02-07T15:08:39Z</time>
      </trkpt>
      <trkpt lat="43.62088" lon="3.77865">
        <ele>93.2</ele>
        <time>2021-02-07T15:08:40Z</time>
      </trkpt>
      <trkpt lat="43.62085" lon="3.77864">
        <ele>93.1</ele>
        <time>2021-02-07T15:08:41Z</time>
      </trkpt>
      <trkpt lat="43.62083" lon="3.77862">
        <ele>93</ele>
        <time>2021-02-07T15:08:42Z</time>
      </trkpt>
      <trkpt lat="43.6208" lon="3.77861">
        <ele>96</ele>
        <time>2021-02-07T15:08:43Z</time>
      </trkpt>
      <trkpt lat="43.62076" lon="3.7786">
        <ele>92.5</ele>
        <time>2021-02-07T15:08:44Z</time>
      </trkpt>
      <trkpt lat="43.62073" lon="3.77858">
        <ele>92.3</ele>
        <time>2021-02-07T15:08:45Z</time>
      </trkpt>
      <trkpt lat="43.62069" lon="3.77856">
        <ele>92</ele>
        <time>2021-02-07T15:08:46Z</time>
      </trkpt>
      <trkpt lat="43.62066" lon="3.77854">
        <ele>91.8</ele>
        <time>2021-02-07T15:08:47Z</time>
      </trkpt>
      <trkpt lat="43.62062" lon="3.77852">
        <ele>91.5</ele>
        <time>2021-02-07T15:08:48Z</time>
      </trkpt>
      <trkpt lat="43.62058" lon="3.7785">
        <ele>91.2</ele>
        <time>2021-02-07T15:08:49Z</time>
      </trkpt>
      <trkpt lat="43.62054" lon="3.77848">
        <ele>90.9</ele>
        <time>2021-02-07T15:08:50Z</time>
      </trkpt>
      <trkpt lat="43.62049" lon="3.77846">
        <ele>90.8</ele>
        <time>2021-02-07T15:08:51Z</time>
      </trkpt>
      <trkpt lat="43.62045" lon="3.77845">
        <ele>90.6</ele>
        <time>2021-02-07T15:08:52Z</time>
      </trkpt>
      <trkpt lat="43.62041" lon="3.77843">
        <ele>94</ele>
        <time>2021-02-07T15:08:53Z</time>
      </trkpt>
      <trkpt lat="43.62037" lon="3.77842">
        <ele>90.3</ele>
        <time>2021-02-07T15:08:54Z</time>
      </trkpt>
      <trkpt lat="43.62032" lon="3.7784">
        <ele>90.2</ele>
        <time>2021-02-07T15:08:55Z</time>
      </trkpt>
      <trkpt lat="43.62029" lon="3.77838">
        <ele>90</ele>
        <time>2021-02-07T15:08:56Z</time>
      </trkpt>
      <trkpt lat="43.62025" lon="3.77837">
        <ele>89.8</ele>
        <time>2021-02-07T15:08:57Z</time>
      </trkpt>
      <trkpt lat="43.62021" lon="3.77836">
        <ele>89.5</ele>
        <time>2021-02-07T15:08:58Z</time>
      </trkpt>
      <trkpt lat="43.62017" lon="3.77835">
        <ele>89.2</ele>
        <time>2021-02-07T15:08:59Z</time>
      </trkpt>
      <trkpt lat="43.62013" lon="3.77832">
        <ele>88.9</ele>
        <time>2021-02-07T15:09:00Z</time>
      </trkpt>
      <trkpt lat="43.62008" lon="3.7783">
        <ele>88.5</ele>
        <time>2021-02-07T15:09:01Z</time>
      </trkpt>
      <trkpt lat="43.62005" lon="3.77828">
        <ele>88.3</ele>
        <time>2021-02-07T15:09:02Z</time>
      </trkpt>
      <trkpt lat="43.61996" lon="3.77824">
        <ele>87.7</ele>
        <time>2021-02-07T15:09:04Z</time>
      </trkpt>
      <trkpt lat="43.61991" lon="3.77822">
        <ele>87.2</ele>
        <time>2021-02-07T15:09:05Z</time>
      </trkpt>
      <trkpt lat="43.61986" lon="3.7782">
        <ele>86.8</ele>
        <time>2021-02-07T15:09:06Z</time>
      </trkpt>
      <trkpt lat="43.61981" lon="3.7782">
        <ele>86.3</ele>
        <time>2021-02-07T15:09:07Z</time>
      </trkpt>
      <trkpt lat="43.61976" lon="3.7782">
        <ele>85.9</ele>
        <time>2021-02-07T15:09:08Z</time>
      </trkpt>
      <trkpt lat="43.61971" lon="3.77819">
        <ele>85.3</ele>
        <time>2021-02-07T15:09:09Z</time>
      </trkpt>
      <trkpt lat="43.61966" lon="3.77819">
        <ele>84.7</ele>
        <time>2021-02-07T15:09:10Z</time>
      </trkpt>
      <trkpt lat="43.61961" lon="3.77818">
        <ele>84.1</ele>
        <time>2021-02-07T15:09:11Z</time>
      </trkpt>
      <trkpt lat="43.61955" lon="3.77813">
        <ele>83.2</ele>
        <time>2021-02-07T15:09:12Z</time>
      </trkpt>
      <trkpt lat="43.61951" lon="3.77805">
        <ele>82.7</ele>
        <time>2021-02-07T15:09:13Z</time>
      </trkpt>
      <trkpt lat="43.61947" lon="3.77796">
        <ele>92</ele>
        <time>2021-02-07T15:09:14Z</time>
      </trkpt>
      <trkpt lat="43.61943" lon="3.7779">
        <ele>82.2</ele>
        <time>2021-02-07T15:09:15Z</time>
      </trkpt>
      <trkpt lat="43.61937" lon="3.77787">
        <ele>83</ele>
        <time>2021-02-07T15:09:16Z</time>
      </trkpt>
      <trkpt lat="43.61932" lon="3.77787">
        <ele>83.6</ele>
        <time>2021-02-07T15:09:17Z</time>
      </trkpt>
      <trkpt lat="43.61927" lon="3.7779">
        <ele>84</ele>
        <time>2021-02-07T15:09:18Z</time>
      </trkpt>
      <trkpt lat="43.61923" lon="3.77794">
        <ele>84.1</ele>
        <time>2021-02-07T15:09:19Z</time>
      </trkpt>
      <trkpt lat="43.61919" lon="3.77798">
        <ele>83.9</ele>
        <time>2021-02-07T15:09:20Z</time>
      </trkpt>
      <trkpt lat="43.61915" lon="3.77803">
        <ele>83.8</ele>
        <time>2021-02-07T15:09:21Z</time>
      </trkpt>
      <trkpt lat="43.61912" lon="3.77809">
        <ele>84</ele>
        <time>2021-02-07T15:09:22Z</time>
      </trkpt>
      <trkpt lat="43.61908" lon="3.77814">
        <ele>90</ele>
        <time>2021-02-07T15:09:23Z</time>
      </trkpt>
      <trkpt lat="43.61905" lon="3.77819">
        <ele>85</ele>
        <time>2021-02-07T15:09:24Z</time>
      </trkpt>
      <trkpt lat="43.61901" lon="3.77825">
        <ele>85.5</ele>
        <time>2021-02-07T15:09:25Z</time>
      </trkpt>
      <trkpt lat="43.61897" lon="3.77831">
        <ele>85.7</ele>
        <time>2021-02-07T15:09:26Z</time>
      </trkpt>
      <trkpt lat="43.61893" lon="3.77836">
        <ele>86.1</ele>
        <time>2021-02-07T15:09:27Z</time>
      </trkpt>
      <trkpt lat="43.61888" lon="3.77842">
        <ele>86.8</ele>
        <time>2021-02-07T15:09:28Z</time>
      </trkpt>
      <trkpt lat="43.61883" lon="3.77846">
        <ele>87.2</ele>
        <time>2021-02-07T15:09:29Z</time>
      </trkpt>
      <trkpt lat="43.61879" lon="3.77851">
        <ele>87.4</ele>
        <time>2021-02-07T15:09:30Z</time>
      </trkpt>
      <trkpt lat="43.61874" lon="3.77855">
        <ele>87.8</ele>
        <time>2021-02-07T15:09:31Z</time>
      </trkpt>
      <trkpt lat="43.61869" lon="3.77859">
        <ele>88.2</ele>
        <time>2021-02-07T15:09:32Z</time>
      </trkpt>
      <trkpt lat="43.61864" lon="3.77863">
        <ele>89</ele>
        <time>2021-02-07T15:09:33Z</time>
      </trkpt>
      <trkpt lat="43.61859" lon="3.77866">
        <ele>89.3</ele>
        <time>2021-02-07T15:09:34Z</time>
      </trkpt>
      <trkpt lat="43.61854" lon="3.77868">
        <ele>89.7</ele>
        <time>2021-02-07T15:09:35Z</time>
      </trkpt>
      <trkpt lat="43.61848" lon="3.7787">
        <ele>90.1</ele>
        <time>2021-02-07T15:09:36Z</time>
      </trkpt>
      <trkpt lat="43.61843" lon="3.77869">
        <ele>90.4</ele>
        <time>2021-02-07T15:09:37Z</time>
      </trkpt>
      <trkpt lat="43.61838" lon="3.77868">
        <ele>90.7</ele>
        <time>2021-02-07T15:09:38Z</time>
      </trkpt>
      <trkpt lat="43.61833" lon="3.77867">
        <ele>91</ele>
        <time>2021-02-07T15:09:39Z</time>
      </trkpt>
      <trkpt lat="43.61829" lon="3.77867">
        <ele>91.4</ele>
        <time>2021-02-07T15:09:40Z</time>
      </trkpt>
      <trkpt lat="43.61825" lon="3.77867">
        <ele>91.8</ele>
        <time>2021-02-07T15:09:41Z</time>
      </trkpt>
      <trkpt lat="43.61822" lon="3.77866">
        <ele>92.2</ele>
        <time>2021-02-07T15:09:42Z</time>
      </trkpt>
      <trkpt lat="43.61819" lon="3.77866">
        <ele>92.5</ele>
        <time>2021-02-07T15:09:43Z</time>
      </trkpt>
      <trkpt lat="43.61821" lon="3.77869">
        <ele>92.2</ele>
        <time>2021-02-07T15:09:48Z</time>
      </trkpt>
      <trkpt lat="43.61824" lon="3.77868">
        <ele>91.9</ele>
        <time>2021-02-07T15:09:49Z</time>
      </trkpt>
      <trkpt lat="43.61827" lon="3.77868">
        <ele>91.6</ele>
        <time>2021-02-07T15:09:50Z</time>
      </trkpt>
      <trkpt lat="43.61831" lon="3.77868">
        <ele>91.2</ele>
        <time>2021-02-07T15:09:51Z</time>
      </trkpt>
      <trkpt lat="43.61835" lon="3.77871">
        <ele>90.9</ele>
        <time>2021-02-07T15:09:52Z</time>
      </trkpt>
      <trkpt lat="43.61837" lon="3.77877">
        <ele>91</ele>
        <time>2021-02-07T15:09:53Z</time>
      </trkpt>
      <trkpt lat="43.61839" lon="3.77883">
        <ele>90.8</ele>
        <time>2021-02-07T15:09:54Z</time>
      </trkpt>
      <trkpt lat="43.61839" lon="3.77888">
        <ele>90.8</ele>
        <time>2021-02-07T15:09:55Z</time>
      </trkpt>
      <trkpt lat="43.61839" lon="3.77892">
        <ele>90.8</ele>
        <time>2021-02-07T15:09:56Z</time>
      </trkpt>
      <trkpt lat="43.61838" lon="3.77895">
        <ele>90.8</ele>
        <time>2021-02-07T15:09:57Z</time>
      </trkpt>
      <trkpt lat="43.61838" lon="3.77898">
        <ele>90.8</ele>
        <time>2021-02-07T15:09:58Z</time>
      </trkpt>
      <trkpt lat="43.61838" lon="3.77901">
        <ele>90.8</ele>
        <time>2021-02-07T15:09:59Z</time>
      </trkpt>
      <trkpt lat="43.61838" lon="3.77904">
        <ele>90.7</ele>
        <time>2021-02-07T15:10:00Z</time>
      </trkpt>
      <trkpt lat="43.61838" lon="3.77907">
        <ele>90.7</ele>
        <time>2021-02-07T15:10:01Z</time>
      </trkpt>
      <trkpt lat="43.61838" lon="3.7791">
        <ele>90.7</ele>
        <time>2021-02-07T15:10:02Z</time>
      </trkpt>
      <trkpt lat="43.61838" lon="3.77913">
        <ele>90.7</ele>
        <time>2021-02-07T15:10:03Z</time>
      </trkpt>
      <trkpt lat="43.61839" lon="3.77915">
        <ele>90</ele>
        <time>2021-02-07T15:10:04Z</time>
      </trkpt>
      <trkpt lat="43.61839" lon="3.77918">
        <ele>90.6</ele>
        <time>2021-02-07T15:10:05Z</time>
      </trkpt>
      <trkpt lat="43.61839" lon="3.77921">
        <ele>90.5</ele>
        <time>2021-02-07T15:10:06Z</time>
      </trkpt>
      <trkpt lat="43.61839" lon="3.77924">
        <ele>90.4</ele>
        <time>2021-02-07T15:10:07Z</time>
      </trkpt>
      <trkpt lat="43.61839" lon="3.77927">
        <ele>90.3</ele>
        <time>2021-02-07T15:10:08Z</time>
      </trkpt>
      <trkpt lat="43.61839" lon="3.7793">
        <ele>90.2</ele>
        <time>2021-02-07T15:10:09Z</time>
      </trkpt>
      <trkpt lat="43.61839" lon="3.77932">
        <ele>90.2</ele>
        <time>2021-02-07T15:10:10Z</time>
      </trkpt>
      <trkpt lat="43.61839" lon="3.77935">
        <ele>90.1</ele>
        <time>2021-02-07T15:10:11Z</time>
      </trkpt>
      <trkpt lat="43.61839" lon="3.77938">
        <ele>90</ele>
        <time>2021-02-07T15:10:12Z</time>
      </trkpt>
      <trkpt lat="43.61839" lon="3.77941">
        <ele>90</ele>
        <time>2021-02-07T15:10:13Z</time>
      </trkpt>
      <trkpt lat="43.61839" lon="3.77944">
        <ele>89.8</ele>
        <time>2021-02-07T15:10:14Z</time>
      </trkpt>
      <trkpt lat="43.61839" lon="3.77947">
        <ele>89.6</ele>
        <time>2021-02-07T15:10:15Z</time>
      </trkpt>
      <trkpt lat="43.61839" lon="3.77949">
        <ele>89.5</ele>
        <time>2021-02-07T15:10:16Z</time>
      </trkpt>
      <trkpt lat="43.61839" lon="3.77952">
        <ele>89.3</ele>
        <time>2021-02-07T15:10:17Z</time>
      </trkpt>
      <trkpt lat="43.61839" lon="3.77955">
        <ele>89.1</ele>
        <time>2021-02-07T15:10:18Z</time>
      </trkpt>
      <trkpt lat="43.61839" lon="3.77958">
        <ele>88.9</ele>
        <time>2021-02-07T15:10:19Z</time>
      </trkpt>
      <trkpt lat="43.61839" lon="3.77961">
        <ele>88.7</ele>
        <time>2021-02-07T15:10:20Z</time>
      </trkpt>
      <trkpt lat="43.61839" lon="3.77965">
        <ele>88.5</ele>
        <time>2021-02-07T15:10:21Z</time>
      </trkpt>
      <trkpt lat="43.61838" lon="3.77969">
        <ele>88.2</ele>
        <time>2021-02-07T15:10:22Z</time>
      </trkpt>
      <trkpt lat="43.61838" lon="3.77974">
        <ele>90</ele>
        <time>2021-02-07T15:10:23Z</time>
      </trkpt>
      <trkpt lat="43.61837" lon="3.77978">
        <ele>87.8</ele>
        <time>2021-02-07T15:10:24Z</time>
      </trkpt>
      <trkpt lat="43.61836" lon="3.77983">
        <ele>87.6</ele>
        <time>2021-02-07T15:10:25Z</time>
      </trkpt>
      <trkpt lat="43.61835" lon="3.77988">
        <ele>87.4</ele>
        <time>2021-02-07T15:10:26Z</time>
      </trkpt>
      <trkpt lat="43.61834" lon="3.77992">
        <ele>87.3</ele>
        <time>2021-02-07T15:10:27Z</time>
      </trkpt>
      <trkpt lat="43.61832" lon="3.77997">
        <ele>87.2</ele>
        <time>2021-02-07T15:10:28Z</time>
      </trkpt>
      <trkpt lat="43.61831" lon="3.78003">
        <ele>86.9</ele>
        <time>2021-02-07T15:10:29Z</time>
      </trkpt>
      <trkpt lat="43.61829" lon="3.78008">
        <ele>86.6</ele>
        <time>2021-02-07T15:10:30Z</time>
      </trkpt>
      <trkpt lat="43.61828" lon="3.78013">
        <ele>86.3</ele>
        <time>2021-02-07T15:10:31Z</time>
      </trkpt>
      <trkpt lat="43.61827" lon="3.78019">
        <ele>86</ele>
        <time>2021-02-07T15:10:32Z</time>
      </trkpt>
      <trkpt lat="43.61825" lon="3.78025">
        <ele>89</ele>
        <time>2021-02-07T15:10:33Z</time>
      </trkpt>
      <trkpt lat="43.61823" lon="3.78031">
        <ele>85.5</ele>
        <time>2021-02-07T15:10:34Z</time>
      </trkpt>
      <trkpt lat="43.61821" lon="3.78037">
        <ele>85.2</ele>
        <time>2021-02-07T15:10:35Z</time>
      </trkpt>
      <trkpt lat="43.61818" lon="3.78042">
        <ele>85.1</ele>
        <time>2021-02-07T15:10:36Z</time>
      </trkpt>
      <trkpt lat="43.61815" lon="3.78048">
        <ele>84.9</ele>
        <time>2021-02-07T15:10:37Z</time>
      </trkpt>
      <trkpt lat="43.61811" lon="3.78052">
        <ele>84.9</ele>
        <time>2021-02-07T15:10:38Z</time>
      </trkpt>
      <trkpt lat="43.61808" lon="3.78056">
        <ele>84.8</ele>
        <time>2021-02-07T15:10:39Z</time>
      </trkpt>
      <trkpt lat="43.61804" lon="3.7806">
        <ele>84.8</ele>
        <time>2021-02-07T15:10:40Z</time>
      </trkpt>
      <trkpt lat="43.61801" lon="3.78064">
        <ele>84.9</ele>
        <time>2021-02-07T15:10:41Z</time>
      </trkpt>
      <trkpt lat="43.61798" lon="3.78067">
        <ele>85</ele>
        <time>2021-02-07T15:10:42Z</time>
      </trkpt>
      <trkpt lat="43.61795" lon="3.7807">
        <ele>89</ele>
        <time>2021-02-07T15:10:43Z</time>
      </trkpt>
      <trkpt lat="43.61792" lon="3.78074">
        <ele>85.1</ele>
        <time>2021-02-07T15:10:44Z</time>
      </trkpt>
      <trkpt lat="43.61788" lon="3.78077">
        <ele>85.4</ele>
        <time>2021-02-07T15:10:45Z</time>
      </trkpt>
      <trkpt lat="43.61784" lon="3.78081">
        <ele>85.5</ele>
        <time>2021-02-07T15:10:46Z</time>
      </trkpt>
      <trkpt lat="43.61781" lon="3.78084">
        <ele>85.6</ele>
        <time>2021-02-07T15:10:47Z</time>
      </trkpt>
      <trkpt lat="43.61777" lon="3.78089">
        <ele>85.5</ele>
        <time>2021-02-07T15:10:48Z</time>
      </trkpt>
      <trkpt lat="43.61775" lon="3.78094">
        <ele>85.1</ele>
        <time>2021-02-07T15:10:49Z</time>
      </trkpt>
      <trkpt lat="43.61772" lon="3.78099">
        <ele>85</ele>
        <time>2021-02-07T15:10:50Z</time>
      </trkpt>
      <trkpt lat="43.6177" lon="3.78105">
        <ele>84.7</ele>
        <time>2021-02-07T15:10:51Z</time>
      </trkpt>
      <trkpt lat="43.61768" lon="3.7811">
        <ele>84.5</ele>
        <time>2021-02-07T15:10:52Z</time>
      </trkpt>
      <trkpt lat="43.61765" lon="3.78116">
        <ele>87</ele>
        <time>2021-02-07T15:10:53Z</time>
      </trkpt>
      <trkpt lat="43.61763" lon="3.78122">
        <ele>84.3</ele>
        <time>2021-02-07T15:10:54Z</time>
      </trkpt>
      <trkpt lat="43.6176" lon="3.78127">
        <ele>84.4</ele>
        <time>2021-02-07T15:10:55Z</time>
      </trkpt>
      <trkpt lat="43.61758" lon="3.78133">
        <ele>84.3</ele>
        <time>2021-02-07T15:10:56Z</time>
      </trkpt>
      <trkpt lat="43.61756" lon="3.78139">
        <ele>84.1</ele>
        <time>2021-02-07T15:10:57Z</time>
      </trkpt>
      <trkpt lat="43.61755" lon="3.78145">
        <ele>84.1</ele>
        <time>2021-02-07T15:10:58Z</time>
      </trkpt>
      <trkpt lat="43.61754" lon="3.78151">
        <ele>84</ele>
        <time>2021-02-07T15:10:59Z</time>
      </trkpt>
      <trkpt lat="43.61752" lon="3.78158">
        <ele>84</ele>
        <time>2021-02-07T15:11:00Z</time>
      </trkpt>
      <trkpt lat="43.61751" lon="3.78165">
        <ele>83.9</ele>
        <time>2021-02-07T15:11:01Z</time>
      </trkpt>
      <trkpt lat="43.61749" lon="3.78172">
        <ele>83.7</ele>
        <time>2021-02-07T15:11:02Z</time>
      </trkpt>
      <trkpt lat="43.61748" lon="3.78179">
        <ele>83.3</ele>
        <time>2021-02-07T15:11:03Z</time>
      </trkpt>
      <trkpt lat="43.61746" lon="3.78186">
        <ele>86</ele>
        <time>2021-02-07T15:11:04Z</time>
      </trkpt>
      <trkpt lat="43.61745" lon="3.78193">
        <ele>82.6</ele>
        <time>2021-02-07T15:11:05Z</time>
      </trkpt>
      <trkpt lat="43.61743" lon="3.78201">
        <ele>82.6</ele>
        <time>2021-02-07T15:11:06Z</time>
      </trkpt>
      <trkpt lat="43.61742" lon="3.78208">
        <ele>82.5</ele>
        <time>2021-02-07T15:11:07Z</time>
      </trkpt>
      <trkpt lat="43.6174" lon="3.78215">
        <ele>82.6</ele>
        <time>2021-02-07T15:11:08Z</time>
      </trkpt>
      <trkpt lat="43.61739" lon="3.78223">
        <ele>82.5</ele>
        <time>2021-02-07T15:11:09Z</time>
      </trkpt>
      <trkpt lat="43.61738" lon="3.7823">
        <ele>82.3</ele>
        <time>2021-02-07T15:11:10Z</time>
      </trkpt>
      <trkpt lat="43.61736" lon="3.78237">
        <ele>82.2</ele>
        <time>2021-02-07T15:11:11Z</time>
      </trkpt>
      <trkpt lat="43.61734" lon="3.78244">
        <ele>82.1</ele>
        <time>2021-02-07T15:11:12Z</time>
      </trkpt>
      <trkpt lat="43.61731" lon="3.7825">
        <ele>86</ele>
        <time>2021-02-07T15:11:13Z</time>
      </trkpt>
      <trkpt lat="43.61729" lon="3.78257">
        <ele>81.8</ele>
        <time>2021-02-07T15:11:14Z</time>
      </trkpt>
      <trkpt lat="43.61727" lon="3.78264">
        <ele>81.6</ele>
        <time>2021-02-07T15:11:15Z</time>
      </trkpt>
      <trkpt lat="43.61726" lon="3.78271">
        <ele>81.2</ele>
        <time>2021-02-07T15:11:16Z</time>
      </trkpt>
      <trkpt lat="43.61724" lon="3.78278">
        <ele>80.9</ele>
        <time>2021-02-07T15:11:17Z</time>
      </trkpt>
      <trkpt lat="43.61722" lon="3.78286">
        <ele>80.7</ele>
        <time>2021-02-07T15:11:18Z</time>
      </trkpt>
      <trkpt lat="43.61721" lon="3.78295">
        <ele>80.5</ele>
        <time>2021-02-07T15:11:19Z</time>
      </trkpt>
      <trkpt lat="43.61719" lon="3.78303">
        <ele>80.3</ele>
        <time>2021-02-07T15:11:20Z</time>
      </trkpt>
      <trkpt lat="43.61718" lon="3.78312">
        <ele>80.1</ele>
        <time>2021-02-07T15:11:21Z</time>
      </trkpt>
      <trkpt lat="43.61717" lon="3.78321">
        <ele>79.9</ele>
        <time>2021-02-07T15:11:22Z</time>
      </trkpt>
      <trkpt lat="43.61716" lon="3.7833">
        <ele>84</ele>
        <time>2021-02-07T15:11:23Z</time>
      </trkpt>
      <trkpt lat="43.61716" lon="3.7834">
        <ele>79.6</ele>
        <time>2021-02-07T15:11:24Z</time>
      </trkpt>
      <trkpt lat="43.61715" lon="3.7835">
        <ele>79.6</ele>
        <time>2021-02-07T15:11:25Z</time>
      </trkpt>
      <trkpt lat="43.61716" lon="3.78359">
        <ele>79.5</ele>
        <time>2021-02-07T15:11:26Z</time>
      </trkpt>
      <trkpt lat="43.61717" lon="3.78368">
        <ele>79.6</ele>
        <time>2021-02-07T15:11:27Z</time>
      </trkpt>
      <trkpt lat="43.61718" lon="3.78376">
        <ele>79.8</ele>
        <time>2021-02-07T15:11:28Z</time>
      </trkpt>
      <trkpt lat="43.6172" lon="3.78384">
        <ele>80</ele>
        <time>2021-02-07T15:11:29Z</time>
      </trkpt>
      <trkpt lat="43.61721" lon="3.7839">
        <ele>80.2</ele>
        <time>2021-02-07T15:11:30Z</time>
      </trkpt>
      <trkpt lat="43.61723" lon="3.78396">
        <ele>80.4</ele>
        <time>2021-02-07T15:11:31Z</time>
      </trkpt>
      <trkpt lat="43.61724" lon="3.784">
        <ele>80.5</ele>
        <time>2021-02-07T15:11:32Z</time>
      </trkpt>
      <trkpt lat="43.61725" lon="3.78404">
        <ele>80.6</ele>
        <time>2021-02-07T15:11:33Z</time>
      </trkpt>
      <trkpt lat="43.61726" lon="3.78408">
        <ele>83</ele>
        <time>2021-02-07T15:11:34Z</time>
      </trkpt>
      <trkpt lat="43.61727" lon="3.78411">
        <ele>80.8</ele>
        <time>2021-02-07T15:11:35Z</time>
      </trkpt>
      <trkpt lat="43.61728" lon="3.78413">
        <ele>80.7</ele>
        <time>2021-02-07T15:11:36Z</time>
      </trkpt>
      <trkpt lat="43.61729" lon="3.78417">
        <ele>80.8</ele>
        <time>2021-02-07T15:11:38Z</time>
      </trkpt>
      <trkpt lat="43.6173" lon="3.7842">
        <ele>80.7</ele>
        <time>2021-02-07T15:11:40Z</time>
      </trkpt>
      <trkpt lat="43.6173" lon="3.78423">
        <ele>80.7</ele>
        <time>2021-02-07T15:11:41Z</time>
      </trkpt>
      <trkpt lat="43.6173" lon="3.78427">
        <ele>80.8</ele>
        <time>2021-02-07T15:11:42Z</time>
      </trkpt>
      <trkpt lat="43.6173" lon="3.78432">
        <ele>83</ele>
        <time>2021-02-07T15:11:43Z</time>
      </trkpt>
      <trkpt lat="43.6173" lon="3.78438">
        <ele>81</ele>
        <time>2021-02-07T15:11:44Z</time>
      </trkpt>
      <trkpt lat="43.61731" lon="3.78443">
        <ele>81</ele>
        <time>2021-02-07T15:11:45Z</time>
      </trkpt>
      <trkpt lat="43.61731" lon="3.7845">
        <ele>80.9</ele>
        <time>2021-02-07T15:11:46Z</time>
      </trkpt>
      <trkpt lat="43.6173" lon="3.78456">
        <ele>80.9</ele>
        <time>2021-02-07T15:11:47Z</time>
      </trkpt>
      <trkpt lat="43.6173" lon="3.78462">
        <ele>80.7</ele>
        <time>2021-02-07T15:11:48Z</time>
      </trkpt>
      <trkpt lat="43.61729" lon="3.78468">
        <ele>80.6</ele>
        <time>2021-02-07T15:11:49Z</time>
      </trkpt>
      <trkpt lat="43.61728" lon="3.78474">
        <ele>80.5</ele>
        <time>2021-02-07T15:11:50Z</time>
      </trkpt>
      <trkpt lat="43.61727" lon="3.7848">
        <ele>80.4</ele>
        <time>2021-02-07T15:11:51Z</time>
      </trkpt>
      <trkpt lat="43.61726" lon="3.78484">
        <ele>80.4</ele>
        <time>2021-02-07T15:11:52Z</time>
      </trkpt>
      <trkpt lat="43.61725" lon="3.78489">
        <ele>83</ele>
        <time>2021-02-07T15:11:53Z</time>
      </trkpt>
      <trkpt lat="43.61723" lon="3.78493">
        <ele>80.2</ele>
        <time>2021-02-07T15:11:54Z</time>
      </trkpt>
      <trkpt lat="43.61722" lon="3.78497">
        <ele>80.1</ele>
        <time>2021-02-07T15:11:55Z</time>
      </trkpt>
      <trkpt lat="43.61721" lon="3.785">
        <ele>80</ele>
        <time>2021-02-07T15:11:56Z</time>
      </trkpt>
      <trkpt lat="43.6172" lon="3.78504">
        <ele>79.8</ele>
        <time>2021-02-07T15:11:57Z</time>
      </trkpt>
      <trkpt lat="43.61719" lon="3.78509">
        <ele>79.4</ele>
        <time>2021-02-07T15:11:58Z</time>
      </trkpt>
      <trkpt lat="43.61717" lon="3.78513">
        <ele>79.2</ele>
        <time>2021-02-07T15:11:59Z</time>
      </trkpt>
      <trkpt lat="43.61716" lon="3.78518">
        <ele>78.8</ele>
        <time>2021-02-07T15:12:00Z</time>
      </trkpt>
      <trkpt lat="43.61715" lon="3.78523">
        <ele>78.4</ele>
        <time>2021-02-07T15:12:01Z</time>
      </trkpt>
      <trkpt lat="43.61714" lon="3.78527">
        <ele>78.1</ele>
        <time>2021-02-07T15:12:02Z</time>
      </trkpt>
      <trkpt lat="43.61713" lon="3.78531">
        <ele>81</ele>
        <time>2021-02-07T15:12:03Z</time>
      </trkpt>
      <trkpt lat="43.61711" lon="3.78535">
        <ele>77.5</ele>
        <time>2021-02-07T15:12:04Z</time>
      </trkpt>
      <trkpt lat="43.61708" lon="3.78539">
        <ele>77.2</ele>
        <time>2021-02-07T15:12:05Z</time>
      </trkpt>
      <trkpt lat="43.61706" lon="3.78543">
        <ele>76.9</ele>
        <time>2021-02-07T15:12:06Z</time>
      </trkpt>
      <trkpt lat="43.61704" lon="3.78548">
        <ele>76.5</ele>
        <time>2021-02-07T15:12:07Z</time>
      </trkpt>
      <trkpt lat="43.61701" lon="3.78554">
        <ele>76.1</ele>
        <time>2021-02-07T15:12:08Z</time>
      </trkpt>
      <trkpt lat="43.61699" lon="3.7856">
        <ele>75.5</ele>
        <time>2021-02-07T15:12:09Z</time>
      </trkpt>
      <trkpt lat="43.61696" lon="3.78566">
        <ele>74.9</ele>
        <time>2021-02-07T15:12:10Z</time>
      </trkpt>
      <trkpt lat="43.61692" lon="3.78572">
        <ele>74.4</ele>
        <time>2021-02-07T15:12:11Z</time>
      </trkpt>
      <trkpt lat="43.61689" lon="3.78579">
        <ele>73.8</ele>
        <time>2021-02-07T15:12:12Z</time>
      </trkpt>
      <trkpt lat="43.61685" lon="3.78585">
        <ele>79</ele>
        <time>2021-02-07T15:12:13Z</time>
      </trkpt>
      <trkpt lat="43.61682" lon="3.78591">
        <ele>72.9</ele>
        <time>2021-02-07T15:12:14Z</time>
      </trkpt>
      <trkpt lat="43.6168" lon="3.78597">
        <ele>72.3</ele>
        <time>2021-02-07T15:12:15Z</time>
      </trkpt>
      <trkpt lat="43.61677" lon="3.78603">
        <ele>71.7</ele>
        <time>2021-02-07T15:12:16Z</time>
      </trkpt>
      <trkpt lat="43.61674" lon="3.7861">
        <ele>70.9</ele>
        <time>2021-02-07T15:12:17Z</time>
      </trkpt>
      <trkpt lat="43.61669" lon="3.78618">
        <ele>70.2</ele>
        <time>2021-02-07T15:12:18Z</time>
      </trkpt>
      <trkpt lat="43.61663" lon="3.78627">
        <ele>69.5</ele>
        <time>2021-02-07T15:12:19Z</time>
      </trkpt>
      <trkpt lat="43.61657" lon="3.78636">
        <ele>69</ele>
        <time>2021-02-07T15:12:20Z</time>
      </trkpt>
      <trkpt lat="43.61651" lon="3.78644">
        <ele>68.4</ele>
        <time>2021-02-07T15:12:21Z</time>
      </trkpt>
      <trkpt lat="43.61647" lon="3.7865">
        <ele>67.8</ele>
        <time>2021-02-07T15:12:22Z</time>
      </trkpt>
      <trkpt lat="43.61644" lon="3.78655">
        <ele>75</ele>
        <time>2021-02-07T15:12:23Z</time>
      </trkpt>
      <trkpt lat="43.61643" lon="3.78658">
        <ele>67</ele>
        <time>2021-02-07T15:12:24Z</time>
      </trkpt>
      <trkpt lat="43.61643" lon="3.7866">
        <ele>66.7</ele>
        <time>2021-02-07T15:12:25Z</time>
      </trkpt>
      <trkpt lat="43.61643" lon="3.78665">
        <ele>65.9</ele>
        <time>2021-02-07T15:12:27Z</time>
      </trkpt>
      <trkpt lat="43.6164" lon="3.78669">
        <ele>65.7</ele>
        <time>2021-02-07T15:12:29Z</time>
      </trkpt>
      <trkpt lat="43.61638" lon="3.7867">
        <ele>65.7</ele>
        <time>2021-02-07T15:12:30Z</time>
      </trkpt>
      <trkpt lat="43.61637" lon="3.78672">
        <ele>65.6</ele>
        <time>2021-02-07T15:12:31Z</time>
      </trkpt>
      <trkpt lat="43.61635" lon="3.78674">
        <ele>65.6</ele>
        <time>2021-02-07T15:12:32Z</time>
      </trkpt>
      <trkpt lat="43.61632" lon="3.78678">
        <ele>72</ele>
        <time>2021-02-07T15:12:33Z</time>
      </trkpt>
      <trkpt lat="43.6163" lon="3.78681">
        <ele>65.1</ele>
        <time>2021-02-07T15:12:34Z</time>
      </trkpt>
      <trkpt lat="43.61627" lon="3.78685">
        <ele>64.7</ele>
        <time>2021-02-07T15:12:35Z</time>
      </trkpt>
      <trkpt lat="43.61624" lon="3.7869">
        <ele>64.2</ele>
        <time>2021-02-07T15:12:36Z</time>
      </trkpt>
      <trkpt lat="43.61621" lon="3.78694">
        <ele>63.7</ele>
        <time>2021-02-07T15:12:37Z</time>
      </trkpt>
      <trkpt lat="43.61618" lon="3.78699">
        <ele>63.4</ele>
        <time>2021-02-07T15:12:38Z</time>
      </trkpt>
      <trkpt lat="43.61614" lon="3.78704">
        <ele>63.2</ele>
        <time>2021-02-07T15:12:39Z</time>
      </trkpt>
      <trkpt lat="43.61611" lon="3.78709">
        <ele>63</ele>
        <time>2021-02-07T15:12:40Z</time>
      </trkpt>
      <trkpt lat="43.61607" lon="3.78715">
        <ele>62.9</ele>
        <time>2021-02-07T15:12:41Z</time>
      </trkpt>
      <trkpt lat="43.61603" lon="3.7872">
        <ele>62.8</ele>
        <time>2021-02-07T15:12:42Z</time>
      </trkpt>
      <trkpt lat="43.61599" lon="3.78726">
        <ele>62.3</ele>
        <time>2021-02-07T15:12:43Z</time>
      </trkpt>
      <trkpt lat="43.61595" lon="3.78731">
        <ele>69</ele>
        <time>2021-02-07T15:12:44Z</time>
      </trkpt>
      <trkpt lat="43.61592" lon="3.78737">
        <ele>61</ele>
        <time>2021-02-07T15:12:45Z</time>
      </trkpt>
      <trkpt lat="43.61588" lon="3.78743">
        <ele>60.2</ele>
        <time>2021-02-07T15:12:46Z</time>
      </trkpt>
      <trkpt lat="43.61585" lon="3.78747">
        <ele>59.5</ele>
        <time>2021-02-07T15:12:47Z</time>
      </trkpt>
      <trkpt lat="43.61582" lon="3.78751">
        <ele>59.2</ele>
        <time>2021-02-07T15:12:48Z</time>
      </trkpt>
      <trkpt lat="43.6158" lon="3.78754">
        <ele>59.5</ele>
        <time>2021-02-07T15:12:49Z</time>
      </trkpt>
      <trkpt lat="43.61577" lon="3.78759">
        <ele>59.8</ele>
        <time>2021-02-07T15:12:50Z</time>
      </trkpt>
      <trkpt lat="43.61574" lon="3.78765">
        <ele>59.8</ele>
        <time>2021-02-07T15:12:51Z</time>
      </trkpt>
      <trkpt lat="43.61571" lon="3.78772">
        <ele>59.5</ele>
        <time>2021-02-07T15:12:52Z</time>
      </trkpt>
      <trkpt lat="43.61567" lon="3.78779">
        <ele>59</ele>
        <time>2021-02-07T15:12:53Z</time>
      </trkpt>
      <trkpt lat="43.61563" lon="3.78786">
        <ele>67</ele>
        <time>2021-02-07T15:12:54Z</time>
      </trkpt>
      <trkpt lat="43.6156" lon="3.78792">
        <ele>59.6</ele>
        <time>2021-02-07T15:12:55Z</time>
      </trkpt>
      <trkpt lat="43.61557" lon="3.78797">
        <ele>59.6</ele>
        <time>2021-02-07T15:12:56Z</time>
      </trkpt>
      <trkpt lat="43.61554" lon="3.78802">
        <ele>59.7</ele>
        <time>2021-02-07T15:12:57Z</time>
      </trkpt>
      <trkpt lat="43.61552" lon="3.78806">
        <ele>59.8</ele>
        <time>2021-02-07T15:12:58Z</time>
      </trkpt>
      <trkpt lat="43.6155" lon="3.78811">
        <ele>59.9</ele>
        <time>2021-02-07T15:12:59Z</time>
      </trkpt>
      <trkpt lat="43.61548" lon="3.78816">
        <ele>60</ele>
        <time>2021-02-07T15:13:00Z</time>
      </trkpt>
      <trkpt lat="43.61547" lon="3.78822">
        <ele>60.2</ele>
        <time>2021-02-07T15:13:01Z</time>
      </trkpt>
      <trkpt lat="43.61547" lon="3.78828">
        <ele>60.5</ele>
        <time>2021-02-07T15:13:02Z</time>
      </trkpt>
      <trkpt lat="43.61547" lon="3.78834">
        <ele>60.7</ele>
        <time>2021-02-07T15:13:03Z</time>
      </trkpt>
      <trkpt lat="43.61548" lon="3.7884">
        <ele>66</ele>
        <time>2021-02-07T15:13:04Z</time>
      </trkpt>
      <trkpt lat="43.61548" lon="3.78846">
        <ele>60.2</ele>
        <time>2021-02-07T15:13:05Z</time>
      </trkpt>
      <trkpt lat="43.61548" lon="3.78853">
        <ele>59.9</ele>
        <time>2021-02-07T15:13:06Z</time>
      </trkpt>
      <trkpt lat="43.61548" lon="3.78859">
        <ele>59.6</ele>
        <time>2021-02-07T15:13:07Z</time>
      </trkpt>
      <trkpt lat="43.61548" lon="3.78865">
        <ele>59.3</ele>
        <time>2021-02-07T15:13:08Z</time>
      </trkpt>
      <trkpt lat="43.61549" lon="3.78871">
        <ele>59</ele>
        <time>2021-02-07T15:13:09Z</time>
      </trkpt>
      <trkpt lat="43.61549" lon="3.78876">
        <ele>58.7</ele>
        <time>2021-02-07T15:13:10Z</time>
      </trkpt>
      <trkpt lat="43.61549" lon="3.78879">
        <ele>58.5</ele>
        <time>2021-02-07T15:13:11Z</time>
      </trkpt>
      <trkpt lat="43.6155" lon="3.7888">
        <ele>63</ele>
        <time>2021-02-07T15:13:19Z</time>
      </trkpt>
      <trkpt lat="43.61553" lon="3.78893">
        <ele>62</ele>
        <time>2021-02-07T15:13:44Z</time>
      </trkpt>
      <trkpt lat="43.61555" lon="3.78897">
        <ele>57.5</ele>
        <time>2021-02-07T15:13:45Z</time>
      </trkpt>
      <trkpt lat="43.61556" lon="3.78902">
        <ele>57.1</ele>
        <time>2021-02-07T15:13:46Z</time>
      </trkpt>
      <trkpt lat="43.61558" lon="3.78906">
        <ele>57.2</ele>
        <time>2021-02-07T15:13:47Z</time>
      </trkpt>
      <trkpt lat="43.6156" lon="3.78911">
        <ele>57.2</ele>
        <time>2021-02-07T15:13:48Z</time>
      </trkpt>
      <trkpt lat="43.61561" lon="3.78916">
        <ele>57</ele>
        <time>2021-02-07T15:13:49Z</time>
      </trkpt>
      <trkpt lat="43.61562" lon="3.7892">
        <ele>57.4</ele>
        <time>2021-02-07T15:13:50Z</time>
      </trkpt>
      <trkpt lat="43.61562" lon="3.78924">
        <ele>57.6</ele>
        <time>2021-02-07T15:13:51Z</time>
      </trkpt>
      <trkpt lat="43.6156" lon="3.78927">
        <ele>57.6</ele>
        <time>2021-02-07T15:13:52Z</time>
      </trkpt>
      <trkpt lat="43.6156" lon="3.7893">
        <ele>57.8</ele>
        <time>2021-02-07T15:13:53Z</time>
      </trkpt>
      <trkpt lat="43.6156" lon="3.78934">
        <ele>60</ele>
        <time>2021-02-07T15:13:54Z</time>
      </trkpt>
      <trkpt lat="43.6156" lon="3.78937">
        <ele>58.3</ele>
        <time>2021-02-07T15:13:55Z</time>
      </trkpt>
      <trkpt lat="43.61561" lon="3.7894">
        <ele>58.5</ele>
        <time>2021-02-07T15:13:56Z</time>
      </trkpt>
      <trkpt lat="43.61563" lon="3.78942">
        <ele>58.6</ele>
        <time>2021-02-07T15:13:57Z</time>
      </trkpt>
      <trkpt lat="43.61565" lon="3.78944">
        <ele>58.6</ele>
        <time>2021-02-07T15:13:58Z</time>
      </trkpt>
      <trkpt lat="43.61566" lon="3.78948">
        <ele>58.6</ele>
        <time>2021-02-07T15:13:59Z</time>
      </trkpt>
      <trkpt lat="43.61567" lon="3.78952">
        <ele>58.5</ele>
        <time>2021-02-07T15:14:00Z</time>
      </trkpt>
      <trkpt lat="43.61567" lon="3.78956">
        <ele>58.5</ele>
        <time>2021-02-07T15:14:01Z</time>
      </trkpt>
      <trkpt lat="43.61567" lon="3.7896">
        <ele>58.5</ele>
        <time>2021-02-07T15:14:02Z</time>
      </trkpt>
      <trkpt lat="43.61567" lon="3.78965">
        <ele>58.4</ele>
        <time>2021-02-07T15:14:03Z</time>
      </trkpt>
      <trkpt lat="43.61567" lon="3.78969">
        <ele>60</ele>
        <time>2021-02-07T15:14:04Z</time>
      </trkpt>
      <trkpt lat="43.61567" lon="3.78972">
        <ele>58.4</ele>
        <time>2021-02-07T15:14:05Z</time>
      </trkpt>
      <trkpt lat="43.61567" lon="3.78976">
        <ele>58.4</ele>
        <time>2021-02-07T15:14:06Z</time>
      </trkpt>
      <trkpt lat="43.61567" lon="3.7898">
        <ele>58.5</ele>
        <time>2021-02-07T15:14:07Z</time>
      </trkpt>
      <trkpt lat="43.61568" lon="3.78984">
        <ele>58.4</ele>
        <time>2021-02-07T15:14:08Z</time>
      </trkpt>
      <trkpt lat="43.61568" lon="3.78988">
        <ele>58.5</ele>
        <time>2021-02-07T15:14:09Z</time>
      </trkpt>
      <trkpt lat="43.61568" lon="3.78992">
        <ele>58.5</ele>
        <time>2021-02-07T15:14:10Z</time>
      </trkpt>
      <trkpt lat="43.61568" lon="3.78997">
        <ele>58.6</ele>
        <time>2021-02-07T15:14:11Z</time>
      </trkpt>
      <trkpt lat="43.61568" lon="3.79002">
        <ele>58.6</ele>
        <time>2021-02-07T15:14:12Z</time>
      </trkpt>
      <trkpt lat="43.61568" lon="3.79006">
        <ele>60</ele>
        <time>2021-02-07T15:14:13Z</time>
      </trkpt>
      <trkpt lat="43.61568" lon="3.79011">
        <ele>58.5</ele>
        <time>2021-02-07T15:14:14Z</time>
      </trkpt>
      <trkpt lat="43.61568" lon="3.79017">
        <ele>58.4</ele>
        <time>2021-02-07T15:14:15Z</time>
      </trkpt>
      <trkpt lat="43.61568" lon="3.79022">
        <ele>58.3</ele>
        <time>2021-02-07T15:14:16Z</time>
      </trkpt>
      <trkpt lat="43.61568" lon="3.79027">
        <ele>58.2</ele>
        <time>2021-02-07T15:14:17Z</time>
      </trkpt>
      <trkpt lat="43.61567" lon="3.79032">
        <ele>58.2</ele>
        <time>2021-02-07T15:14:18Z</time>
      </trkpt>
      <trkpt lat="43.61566" lon="3.79037">
        <ele>58.1</ele>
        <time>2021-02-07T15:14:19Z</time>
      </trkpt>
      <trkpt lat="43.61565" lon="3.79043">
        <ele>57.9</ele>
        <time>2021-02-07T15:14:20Z</time>
      </trkpt>
      <trkpt lat="43.61564" lon="3.79048">
        <ele>57.8</ele>
        <time>2021-02-07T15:14:21Z</time>
      </trkpt>
      <trkpt lat="43.61563" lon="3.79054">
        <ele>57.5</ele>
        <time>2021-02-07T15:14:22Z</time>
      </trkpt>
      <trkpt lat="43.61562" lon="3.7906">
        <ele>57.3</ele>
        <time>2021-02-07T15:14:23Z</time>
      </trkpt>
      <trkpt lat="43.61561" lon="3.79065">
        <ele>60</ele>
        <time>2021-02-07T15:14:24Z</time>
      </trkpt>
      <trkpt lat="43.6156" lon="3.79071">
        <ele>56.7</ele>
        <time>2021-02-07T15:14:25Z</time>
      </trkpt>
      <trkpt lat="43.61558" lon="3.79077">
        <ele>56.4</ele>
        <time>2021-02-07T15:14:26Z</time>
      </trkpt>
      <trkpt lat="43.61557" lon="3.79084">
        <ele>56</ele>
        <time>2021-02-07T15:14:27Z</time>
      </trkpt>
      <trkpt lat="43.61556" lon="3.7909">
        <ele>55.8</ele>
        <time>2021-02-07T15:14:28Z</time>
      </trkpt>
      <trkpt lat="43.61555" lon="3.79097">
        <ele>55.6</ele>
        <time>2021-02-07T15:14:29Z</time>
      </trkpt>
      <trkpt lat="43.61553" lon="3.79103">
        <ele>55.6</ele>
        <time>2021-02-07T15:14:30Z</time>
      </trkpt>
      <trkpt lat="43.61552" lon="3.79109">
        <ele>55.5</ele>
        <time>2021-02-07T15:14:31Z</time>
      </trkpt>
      <trkpt lat="43.61552" lon="3.79116">
        <ele>55.6</ele>
        <time>2021-02-07T15:14:32Z</time>
      </trkpt>
      <trkpt lat="43.6155" lon="3.79122">
        <ele>56.1</ele>
        <time>2021-02-07T15:14:33Z</time>
      </trkpt>
      <trkpt lat="43.61549" lon="3.79128">
        <ele>58</ele>
        <time>2021-02-07T15:14:34Z</time>
      </trkpt>
      <trkpt lat="43.61548" lon="3.79133">
        <ele>56.5</ele>
        <time>2021-02-07T15:14:35Z</time>
      </trkpt>
      <trkpt lat="43.61547" lon="3.79135">
        <ele>56.6</ele>
        <time>2021-02-07T15:14:36Z</time>
      </trkpt>
      <trkpt lat="43.61545" lon="3.79138">
        <ele>56.6</ele>
        <time>2021-02-07T15:14:38Z</time>
      </trkpt>
      <trkpt lat="43.61544" lon="3.79143">
        <ele>56.5</ele>
        <time>2021-02-07T15:14:40Z</time>
      </trkpt>
      <trkpt lat="43.61544" lon="3.79147">
        <ele>56.3</ele>
        <time>2021-02-07T15:14:42Z</time>
      </trkpt>
      <trkpt lat="43.61544" lon="3.79151">
        <ele>56.2</ele>
        <time>2021-02-07T15:14:44Z</time>
      </trkpt>
      <trkpt lat="43.61544" lon="3.79154">
        <ele>56.1</ele>
        <time>2021-02-07T15:14:46Z</time>
      </trkpt>
      <trkpt lat="43.61547" lon="3.79164">
        <ele>57</ele>
        <time>2021-02-07T15:15:40Z</time>
      </trkpt>
      <trkpt lat="43.6155" lon="3.79169">
        <ele>56.4</ele>
        <time>2021-02-07T15:15:42Z</time>
      </trkpt>
      <trkpt lat="43.61551" lon="3.79171">
        <ele>56.5</ele>
        <time>2021-02-07T15:15:43Z</time>
      </trkpt>
      <trkpt lat="43.61553" lon="3.79174">
        <ele>56.7</ele>
        <time>2021-02-07T15:15:44Z</time>
      </trkpt>
      <trkpt lat="43.61554" lon="3.79176">
        <ele>56.8</ele>
        <time>2021-02-07T15:15:45Z</time>
      </trkpt>
      <trkpt lat="43.61555" lon="3.79179">
        <ele>56.9</ele>
        <time>2021-02-07T15:15:46Z</time>
      </trkpt>
      <trkpt lat="43.61556" lon="3.79181">
        <ele>57</ele>
        <time>2021-02-07T15:15:47Z</time>
      </trkpt>
      <trkpt lat="43.61558" lon="3.79184">
        <ele>57.3</ele>
        <time>2021-02-07T15:15:48Z</time>
      </trkpt>
      <trkpt lat="43.61559" lon="3.79187">
        <ele>57.4</ele>
        <time>2021-02-07T15:15:49Z</time>
      </trkpt>
      <trkpt lat="43.6156" lon="3.79189">
        <ele>57</ele>
        <time>2021-02-07T15:15:50Z</time>
      </trkpt>
      <trkpt lat="43.61561" lon="3.79192">
        <ele>57.6</ele>
        <time>2021-02-07T15:15:51Z</time>
      </trkpt>
      <trkpt lat="43.61562" lon="3.79194">
        <ele>57.7</ele>
        <time>2021-02-07T15:15:52Z</time>
      </trkpt>
      <trkpt lat="43.61564" lon="3.79197">
        <ele>57.9</ele>
        <time>2021-02-07T15:15:53Z</time>
      </trkpt>
      <trkpt lat="43.61565" lon="3.79199">
        <ele>58</ele>
        <time>2021-02-07T15:15:54Z</time>
      </trkpt>
      <trkpt lat="43.61566" lon="3.79201">
        <ele>58.1</ele>
        <time>2021-02-07T15:15:55Z</time>
      </trkpt>
      <trkpt lat="43.61567" lon="3.79203">
        <ele>58.2</ele>
        <time>2021-02-07T15:15:56Z</time>
      </trkpt>
      <trkpt lat="43.61568" lon="3.79205">
        <ele>58.3</ele>
        <time>2021-02-07T15:15:57Z</time>
      </trkpt>
      <trkpt lat="43.61569" lon="3.79208">
        <ele>58.5</ele>
        <time>2021-02-07T15:15:58Z</time>
      </trkpt>
      <trkpt lat="43.6157" lon="3.7921">
        <ele>58.6</ele>
        <time>2021-02-07T15:15:59Z</time>
      </trkpt>
      <trkpt lat="43.61572" lon="3.79212">
        <ele>58</ele>
        <time>2021-02-07T15:16:00Z</time>
      </trkpt>
      <trkpt lat="43.61573" lon="3.79215">
        <ele>58.9</ele>
        <time>2021-02-07T15:16:01Z</time>
      </trkpt>
      <trkpt lat="43.61575" lon="3.79217">
        <ele>59.1</ele>
        <time>2021-02-07T15:16:02Z</time>
      </trkpt>
      <trkpt lat="43.61576" lon="3.79219">
        <ele>59.2</ele>
        <time>2021-02-07T15:16:03Z</time>
      </trkpt>
      <trkpt lat="43.61578" lon="3.79221">
        <ele>59.4</ele>
        <time>2021-02-07T15:16:04Z</time>
      </trkpt>
      <trkpt lat="43.61579" lon="3.79223">
        <ele>59.5</ele>
        <time>2021-02-07T15:16:05Z</time>
      </trkpt>
      <trkpt lat="43.61581" lon="3.79224">
        <ele>59.7</ele>
        <time>2021-02-07T15:16:06Z</time>
      </trkpt>
      <trkpt lat="43.61582" lon="3.79226">
        <ele>59.7</ele>
        <time>2021-02-07T15:16:07Z</time>
      </trkpt>
      <trkpt lat="43.61583" lon="3.79228">
        <ele>59.8</ele>
        <time>2021-02-07T15:16:08Z</time>
      </trkpt>
      <trkpt lat="43.61585" lon="3.7923">
        <ele>59</ele>
        <time>2021-02-07T15:16:09Z</time>
      </trkpt>
      <trkpt lat="43.61586" lon="3.79232">
        <ele>59.8</ele>
        <time>2021-02-07T15:16:10Z</time>
      </trkpt>
      <trkpt lat="43.61588" lon="3.79234">
        <ele>59.8</ele>
        <time>2021-02-07T15:16:11Z</time>
      </trkpt>
      <trkpt lat="43.61589" lon="3.79236">
        <ele>59.8</ele>
        <time>2021-02-07T15:16:12Z</time>
      </trkpt>
      <trkpt lat="43.61591" lon="3.79238">
        <ele>59.9</ele>
        <time>2021-02-07T15:16:13Z</time>
      </trkpt>
      <trkpt lat="43.61592" lon="3.7924">
        <ele>59.9</ele>
        <time>2021-02-07T15:16:14Z</time>
      </trkpt>
      <trkpt lat="43.61594" lon="3.79243">
        <ele>59.9</ele>
        <time>2021-02-07T15:16:15Z</time>
      </trkpt>
      <trkpt lat="43.61595" lon="3.79245">
        <ele>59.9</ele>
        <time>2021-02-07T15:16:16Z</time>
      </trkpt>
      <trkpt lat="43.61597" lon="3.79247">
        <ele>60</ele>
        <time>2021-02-07T15:16:17Z</time>
      </trkpt>
      <trkpt lat="43.61599" lon="3.7925">
        <ele>60.1</ele>
        <time>2021-02-07T15:16:18Z</time>
      </trkpt>
      <trkpt lat="43.61601" lon="3.79252">
        <ele>60</ele>
        <time>2021-02-07T15:16:19Z</time>
      </trkpt>
      <trkpt lat="43.61602" lon="3.79254">
        <ele>60.2</ele>
        <time>2021-02-07T15:16:20Z</time>
      </trkpt>
      <trkpt lat="43.61604" lon="3.79256">
        <ele>60.2</ele>
        <time>2021-02-07T15:16:21Z</time>
      </trkpt>
      <trkpt lat="43.61606" lon="3.79259">
        <ele>60.1</ele>
        <time>2021-02-07T15:16:22Z</time>
      </trkpt>
      <trkpt lat="43.61608" lon="3.79261">
        <ele>60.1</ele>
        <time>2021-02-07T15:16:23Z</time>
      </trkpt>
      <trkpt lat="43.6161" lon="3.79263">
        <ele>60</ele>
        <time>2021-02-07T15:16:24Z</time>
      </trkpt>
      <trkpt lat="43.61612" lon="3.79265">
        <ele>60</ele>
        <time>2021-02-07T15:16:25Z</time>
      </trkpt>
      <trkpt lat="43.61614" lon="3.79268">
        <ele>59.9</ele>
        <time>2021-02-07T15:16:26Z</time>
      </trkpt>
      <trkpt lat="43.61616" lon="3.7927">
        <ele>59.9</ele>
        <time>2021-02-07T15:16:27Z</time>
      </trkpt>
      <trkpt lat="43.61617" lon="3.79272">
        <ele>59.8</ele>
        <time>2021-02-07T15:16:28Z</time>
      </trkpt>
      <trkpt lat="43.61619" lon="3.79274">
        <ele>60</ele>
        <time>2021-02-07T15:16:29Z</time>
      </trkpt>
      <trkpt lat="43.61621" lon="3.79277">
        <ele>59.8</ele>
        <time>2021-02-07T15:16:30Z</time>
      </trkpt>
      <trkpt lat="43.61623" lon="3.79279">
        <ele>59.8</ele>
        <time>2021-02-07T15:16:31Z</time>
      </trkpt>
      <trkpt lat="43.61625" lon="3.79282">
        <ele>59.9</ele>
        <time>2021-02-07T15:16:32Z</time>
      </trkpt>
      <trkpt lat="43.61627" lon="3.79284">
        <ele>60</ele>
        <time>2021-02-07T15:16:33Z</time>
      </trkpt>
      <trkpt lat="43.61629" lon="3.79288">
        <ele>60.1</ele>
        <time>2021-02-07T15:16:34Z</time>
      </trkpt>
      <trkpt lat="43.61631" lon="3.79291">
        <ele>60.1</ele>
        <time>2021-02-07T15:16:35Z</time>
      </trkpt>
      <trkpt lat="43.61633" lon="3.79294">
        <ele>60.1</ele>
        <time>2021-02-07T15:16:36Z</time>
      </trkpt>
      <trkpt lat="43.61635" lon="3.79297">
        <ele>60.1</ele>
        <time>2021-02-07T15:16:37Z</time>
      </trkpt>
      <trkpt lat="43.61638" lon="3.793">
        <ele>60.2</ele>
        <time>2021-02-07T15:16:38Z</time>
      </trkpt>
      <trkpt lat="43.6164" lon="3.79303">
        <ele>61</ele>
        <time>2021-02-07T15:16:39Z</time>
      </trkpt>
      <trkpt lat="43.61642" lon="3.79307">
        <ele>60</ele>
        <time>2021-02-07T15:16:40Z</time>
      </trkpt>
      <trkpt lat="43.61643" lon="3.79311">
        <ele>60</ele>
        <time>2021-02-07T15:16:41Z</time>
      </trkpt>
      <trkpt lat="43.61645" lon="3.79315">
        <ele>60.1</ele>
        <time>2021-02-07T15:16:42Z</time>
      </trkpt>
      <trkpt lat="43.61645" lon="3.79318">
        <ele>60.1</ele>
        <time>2021-02-07T15:16:43Z</time>
      </trkpt>
      <trkpt lat="43.61645" lon="3.79321">
        <ele>60.1</ele>
        <time>2021-02-07T15:16:44Z</time>
      </trkpt>
      <trkpt lat="43.61644" lon="3.79323">
        <ele>60.1</ele>
        <time>2021-02-07T15:16:46Z</time>
      </trkpt>
      <trkpt lat="43.61642" lon="3.79324">
        <ele>60.1</ele>
        <time>2021-02-07T15:16:51Z</time>
      </trkpt>
      <trkpt lat="43.61639" lon="3.79323">
        <ele>60</ele>
        <time>2021-02-07T15:16:53Z</time>
      </trkpt>
      <trkpt lat="43.61637" lon="3.79323">
        <ele>59.9</ele>
        <time>2021-02-07T15:16:54Z</time>
      </trkpt>
      <trkpt lat="43.61633" lon="3.79324">
        <ele>59.6</ele>
        <time>2021-02-07T15:16:55Z</time>
      </trkpt>
      <trkpt lat="43.6163" lon="3.79325">
        <ele>59.5</ele>
        <time>2021-02-07T15:16:56Z</time>
      </trkpt>
      <trkpt lat="43.61628" lon="3.79325">
        <ele>59.3</ele>
        <time>2021-02-07T15:16:57Z</time>
      </trkpt>
      <trkpt lat="43.61625" lon="3.79325">
        <ele>61</ele>
        <time>2021-02-07T15:16:59Z</time>
      </trkpt>
      <trkpt lat="43.61613" lon="3.79323">
        <ele>61</ele>
        <time>2021-02-07T15:17:34Z</time>
      </trkpt>
      <trkpt lat="43.6161" lon="3.79324">
        <ele>58.3</ele>
        <time>2021-02-07T15:17:35Z</time>
      </trkpt>
      <trkpt lat="43.61607" lon="3.79325">
        <ele>58.2</ele>
        <time>2021-02-07T15:17:36Z</time>
      </trkpt>
      <trkpt lat="43.61604" lon="3.79326">
        <ele>58.1</ele>
        <time>2021-02-07T15:17:37Z</time>
      </trkpt>
      <trkpt lat="43.616" lon="3.79328">
        <ele>57.9</ele>
        <time>2021-02-07T15:17:38Z</time>
      </trkpt>
      <trkpt lat="43.61597" lon="3.7933">
        <ele>57.7</ele>
        <time>2021-02-07T15:17:39Z</time>
      </trkpt>
      <trkpt lat="43.61594" lon="3.79333">
        <ele>57.4</ele>
        <time>2021-02-07T15:17:40Z</time>
      </trkpt>
      <trkpt lat="43.61591" lon="3.79335">
        <ele>57.3</ele>
        <time>2021-02-07T15:17:41Z</time>
      </trkpt>
      <trkpt lat="43.61589" lon="3.79338">
        <ele>57.4</ele>
        <time>2021-02-07T15:17:42Z</time>
      </trkpt>
      <trkpt lat="43.61586" lon="3.7934">
        <ele>60</ele>
        <time>2021-02-07T15:17:43Z</time>
      </trkpt>
      <trkpt lat="43.61583" lon="3.79343">
        <ele>57.3</ele>
        <time>2021-02-07T15:17:44Z</time>
      </trkpt>
      <trkpt lat="43.6158" lon="3.79345">
        <ele>57.2</ele>
        <time>2021-02-07T15:17:45Z</time>
      </trkpt>
      <trkpt lat="43.61578" lon="3.79347">
        <ele>57.2</ele>
        <time>2021-02-07T15:17:46Z</time>
      </trkpt>
      <trkpt lat="43.61575" lon="3.7935">
        <ele>57.1</ele>
        <time>2021-02-07T15:17:47Z</time>
      </trkpt>
      <trkpt lat="43.61572" lon="3.79353">
        <ele>57</ele>
        <time>2021-02-07T15:17:48Z</time>
      </trkpt>
      <trkpt lat="43.6157" lon="3.79355">
        <ele>56.9</ele>
        <time>2021-02-07T15:17:49Z</time>
      </trkpt>
      <trkpt lat="43.61567" lon="3.79358">
        <ele>56.8</ele>
        <time>2021-02-07T15:17:50Z</time>
      </trkpt>
      <trkpt lat="43.61565" lon="3.79361">
        <ele>56.7</ele>
        <time>2021-02-07T15:17:51Z</time>
      </trkpt>
      <trkpt lat="43.61562" lon="3.79364">
        <ele>56.4</ele>
        <time>2021-02-07T15:17:52Z</time>
      </trkpt>
      <trkpt lat="43.61559" lon="3.79366">
        <ele>56.2</ele>
        <time>2021-02-07T15:17:53Z</time>
      </trkpt>
      <trkpt lat="43.61556" lon="3.79368">
        <ele>60</ele>
        <time>2021-02-07T15:17:54Z</time>
      </trkpt>
      <trkpt lat="43.61552" lon="3.7937">
        <ele>55.9</ele>
        <time>2021-02-07T15:17:55Z</time>
      </trkpt>
      <trkpt lat="43.61549" lon="3.79371">
        <ele>55.8</ele>
        <time>2021-02-07T15:17:56Z</time>
      </trkpt>
      <trkpt lat="43.61545" lon="3.79372">
        <ele>55.6</ele>
        <time>2021-02-07T15:17:57Z</time>
      </trkpt>
      <trkpt lat="43.61541" lon="3.79374">
        <ele>55.5</ele>
        <time>2021-02-07T15:17:58Z</time>
      </trkpt>
      <trkpt lat="43.61537" lon="3.79376">
        <ele>55.3</ele>
        <time>2021-02-07T15:17:59Z</time>
      </trkpt>
      <trkpt lat="43.61533" lon="3.79378">
        <ele>55.2</ele>
        <time>2021-02-07T15:18:00Z</time>
      </trkpt>
      <trkpt lat="43.61529" lon="3.79379">
        <ele>55</ele>
        <time>2021-02-07T15:18:01Z</time>
      </trkpt>
      <trkpt lat="43.61525" lon="3.7938">
        <ele>54.9</ele>
        <time>2021-02-07T15:18:02Z</time>
      </trkpt>
      <trkpt lat="43.6152" lon="3.7938">
        <ele>60</ele>
        <time>2021-02-07T15:18:03Z</time>
      </trkpt>
      <trkpt lat="43.61516" lon="3.79382">
        <ele>54.6</ele>
        <time>2021-02-07T15:18:04Z</time>
      </trkpt>
      <trkpt lat="43.61512" lon="3.79383">
        <ele>54.4</ele>
        <time>2021-02-07T15:18:05Z</time>
      </trkpt>
      <trkpt lat="43.61509" lon="3.79384">
        <ele>54.3</ele>
        <time>2021-02-07T15:18:06Z</time>
      </trkpt>
      <trkpt lat="43.61506" lon="3.79386">
        <ele>54.2</ele>
        <time>2021-02-07T15:18:07Z</time>
      </trkpt>
      <trkpt lat="43.61503" lon="3.79388">
        <ele>54.1</ele>
        <time>2021-02-07T15:18:08Z</time>
      </trkpt>
      <trkpt lat="43.61501" lon="3.79389">
        <ele>54</ele>
        <time>2021-02-07T15:18:09Z</time>
      </trkpt>
      <trkpt lat="43.61499" lon="3.7939">
        <ele>54</ele>
        <time>2021-02-07T15:18:11Z</time>
      </trkpt>
      <trkpt lat="43.61497" lon="3.79392">
        <ele>53.9</ele>
        <time>2021-02-07T15:18:14Z</time>
      </trkpt>
      <trkpt lat="43.61493" lon="3.79394">
        <ele>53.7</ele>
        <time>2021-02-07T15:18:16Z</time>
      </trkpt>
      <trkpt lat="43.61491" lon="3.79396">
        <ele>53.6</ele>
        <time>2021-02-07T15:18:17Z</time>
      </trkpt>
      <trkpt lat="43.61488" lon="3.79399">
        <ele>53.5</ele>
        <time>2021-02-07T15:18:18Z</time>
      </trkpt>
      <trkpt lat="43.61485" lon="3.79403">
        <ele>53.4</ele>
        <time>2021-02-07T15:18:19Z</time>
      </trkpt>
      <trkpt lat="43.61483" lon="3.79408">
        <ele>53.5</ele>
        <time>2021-02-07T15:18:20Z</time>
      </trkpt>
      <trkpt lat="43.61481" lon="3.79413">
        <ele>53.5</ele>
        <time>2021-02-07T15:18:21Z</time>
      </trkpt>
      <trkpt lat="43.61479" lon="3.79418">
        <ele>53.5</ele>
        <time>2021-02-07T15:18:22Z</time>
      </trkpt>
      <trkpt lat="43.61477" lon="3.79423">
        <ele>58</ele>
        <time>2021-02-07T15:18:23Z</time>
      </trkpt>
      <trkpt lat="43.61476" lon="3.79428">
        <ele>53.2</ele>
        <time>2021-02-07T15:18:24Z</time>
      </trkpt>
      <trkpt lat="43.61475" lon="3.79434">
        <ele>53.1</ele>
        <time>2021-02-07T15:18:25Z</time>
      </trkpt>
      <trkpt lat="43.61474" lon="3.79439">
        <ele>53.1</ele>
        <time>2021-02-07T15:18:26Z</time>
      </trkpt>
      <trkpt lat="43.61474" lon="3.79444">
        <ele>53.1</ele>
        <time>2021-02-07T15:18:27Z</time>
      </trkpt>
      <trkpt lat="43.61473" lon="3.79449">
        <ele>53</ele>
        <time>2021-02-07T15:18:28Z</time>
      </trkpt>
      <trkpt lat="43.61473" lon="3.79454">
        <ele>53</ele>
        <time>2021-02-07T15:18:29Z</time>
      </trkpt>
      <trkpt lat="43.61473" lon="3.7946">
        <ele>53</ele>
        <time>2021-02-07T15:18:30Z</time>
      </trkpt>
      <trkpt lat="43.61474" lon="3.79465">
        <ele>53.1</ele>
        <time>2021-02-07T15:18:31Z</time>
      </trkpt>
      <trkpt lat="43.61474" lon="3.7947">
        <ele>53.1</ele>
        <time>2021-02-07T15:18:32Z</time>
      </trkpt>
      <trkpt lat="43.61474" lon="3.79475">
        <ele>53.1</ele>
        <time>2021-02-07T15:18:33Z</time>
      </trkpt>
      <trkpt lat="43.61475" lon="3.7948">
        <ele>57</ele>
        <time>2021-02-07T15:18:34Z</time>
      </trkpt>
      <trkpt lat="43.61476" lon="3.79485">
        <ele>53.2</ele>
        <time>2021-02-07T15:18:35Z</time>
      </trkpt>
      <trkpt lat="43.61476" lon="3.79491">
        <ele>53.2</ele>
        <time>2021-02-07T15:18:36Z</time>
      </trkpt>
      <trkpt lat="43.61476" lon="3.79496">
        <ele>53.3</ele>
        <time>2021-02-07T15:18:37Z</time>
      </trkpt>
      <trkpt lat="43.61475" lon="3.79501">
        <ele>53.2</ele>
        <time>2021-02-07T15:18:38Z</time>
      </trkpt>
      <trkpt lat="43.61474" lon="3.79507">
        <ele>53.1</ele>
        <time>2021-02-07T15:18:39Z</time>
      </trkpt>
      <trkpt lat="43.61474" lon="3.79512">
        <ele>53.1</ele>
        <time>2021-02-07T15:18:40Z</time>
      </trkpt>
      <trkpt lat="43.61473" lon="3.79518">
        <ele>53</ele>
        <time>2021-02-07T15:18:41Z</time>
      </trkpt>
      <trkpt lat="43.61473" lon="3.79523">
        <ele>53</ele>
        <time>2021-02-07T15:18:42Z</time>
      </trkpt>
      <trkpt lat="43.61473" lon="3.79529">
        <ele>53</ele>
        <time>2021-02-07T15:18:43Z</time>
      </trkpt>
      <trkpt lat="43.61474" lon="3.79534">
        <ele>56</ele>
        <time>2021-02-07T15:18:44Z</time>
      </trkpt>
      <trkpt lat="43.61474" lon="3.79539">
        <ele>53.1</ele>
        <time>2021-02-07T15:18:45Z</time>
      </trkpt>
      <trkpt lat="43.61475" lon="3.79544">
        <ele>53.1</ele>
        <time>2021-02-07T15:18:46Z</time>
      </trkpt>
      <trkpt lat="43.61475" lon="3.79549">
        <ele>53.1</ele>
        <time>2021-02-07T15:18:47Z</time>
      </trkpt>
      <trkpt lat="43.61476" lon="3.79553">
        <ele>53.1</ele>
        <time>2021-02-07T15:18:48Z</time>
      </trkpt>
      <trkpt lat="43.61475" lon="3.79557">
        <ele>53.1</ele>
        <time>2021-02-07T15:18:49Z</time>
      </trkpt>
      <trkpt lat="43.61472" lon="3.79559">
        <ele>53.1</ele>
        <time>2021-02-07T15:18:50Z</time>
      </trkpt>
      <trkpt lat="43.61469" lon="3.79559">
        <ele>53</ele>
        <time>2021-02-07T15:18:51Z</time>
      </trkpt>
      <trkpt lat="43.61466" lon="3.79559">
        <ele>52.9</ele>
        <time>2021-02-07T15:18:52Z</time>
      </trkpt>
      <trkpt lat="43.61463" lon="3.79559">
        <ele>56</ele>
        <time>2021-02-07T15:18:53Z</time>
      </trkpt>
      <trkpt lat="43.6146" lon="3.79559">
        <ele>52.7</ele>
        <time>2021-02-07T15:18:54Z</time>
      </trkpt>
      <trkpt lat="43.61458" lon="3.79561">
        <ele>52.7</ele>
        <time>2021-02-07T15:18:55Z</time>
      </trkpt>
      <trkpt lat="43.61457" lon="3.79565">
        <ele>52.8</ele>
        <time>2021-02-07T15:18:56Z</time>
      </trkpt>
      <trkpt lat="43.61457" lon="3.7957">
        <ele>53</ele>
        <time>2021-02-07T15:18:57Z</time>
      </trkpt>
      <trkpt lat="43.61457" lon="3.79574">
        <ele>53.1</ele>
        <time>2021-02-07T15:18:58Z</time>
      </trkpt>
      <trkpt lat="43.61455" lon="3.79578">
        <ele>53.2</ele>
        <time>2021-02-07T15:18:59Z</time>
      </trkpt>
      <trkpt lat="43.61453" lon="3.79582">
        <ele>53.3</ele>
        <time>2021-02-07T15:19:00Z</time>
      </trkpt>
      <trkpt lat="43.61452" lon="3.79586">
        <ele>53.3</ele>
        <time>2021-02-07T15:19:01Z</time>
      </trkpt>
      <trkpt lat="43.61451" lon="3.7959">
        <ele>53.2</ele>
        <time>2021-02-07T15:19:02Z</time>
      </trkpt>
      <trkpt lat="43.61451" lon="3.79594">
        <ele>55</ele>
        <time>2021-02-07T15:19:03Z</time>
      </trkpt>
      <trkpt lat="43.6145" lon="3.79598">
        <ele>53.2</ele>
        <time>2021-02-07T15:19:04Z</time>
      </trkpt>
      <trkpt lat="43.6145" lon="3.79602">
        <ele>53.2</ele>
        <time>2021-02-07T15:19:05Z</time>
      </trkpt>
      <trkpt lat="43.61449" lon="3.79607">
        <ele>53.2</ele>
        <time>2021-02-07T15:19:06Z</time>
      </trkpt>
      <trkpt lat="43.61448" lon="3.79612">
        <ele>53.2</ele>
        <time>2021-02-07T15:19:07Z</time>
      </trkpt>
      <trkpt lat="43.61447" lon="3.79617">
        <ele>53.3</ele>
        <time>2021-02-07T15:19:08Z</time>
      </trkpt>
      <trkpt lat="43.61446" lon="3.79622">
        <ele>53.4</ele>
        <time>2021-02-07T15:19:09Z</time>
      </trkpt>
      <trkpt lat="43.61445" lon="3.79627">
        <ele>53.6</ele>
        <time>2021-02-07T15:19:10Z</time>
      </trkpt>
      <trkpt lat="43.61444" lon="3.79632">
        <ele>53.7</ele>
        <time>2021-02-07T15:19:11Z</time>
      </trkpt>
      <trkpt lat="43.61443" lon="3.79637">
        <ele>53.9</ele>
        <time>2021-02-07T15:19:12Z</time>
      </trkpt>
      <trkpt lat="43.61442" lon="3.79642">
        <ele>55</ele>
        <time>2021-02-07T15:19:13Z</time>
      </trkpt>
      <trkpt lat="43.61441" lon="3.79647">
        <ele>54.5</ele>
        <time>2021-02-07T15:19:14Z</time>
      </trkpt>
      <trkpt lat="43.6144" lon="3.79651">
        <ele>54.7</ele>
        <time>2021-02-07T15:19:15Z</time>
      </trkpt>
      <trkpt lat="43.61439" lon="3.79656">
        <ele>55</ele>
        <time>2021-02-07T15:19:16Z</time>
      </trkpt>
      <trkpt lat="43.61437" lon="3.7966">
        <ele>55.3</ele>
        <time>2021-02-07T15:19:17Z</time>
      </trkpt>
      <trkpt lat="43.61436" lon="3.79664">
        <ele>55.5</ele>
        <time>2021-02-07T15:19:18Z</time>
      </trkpt>
      <trkpt lat="43.61435" lon="3.79669">
        <ele>55.8</ele>
        <time>2021-02-07T15:19:19Z</time>
      </trkpt>
      <trkpt lat="43.61434" lon="3.79673">
        <ele>56.1</ele>
        <time>2021-02-07T15:19:20Z</time>
      </trkpt>
      <trkpt lat="43.61433" lon="3.79677">
        <ele>56.3</ele>
        <time>2021-02-07T15:19:21Z</time>
      </trkpt>
      <trkpt lat="43.61431" lon="3.79681">
        <ele>56.5</ele>
        <time>2021-02-07T15:19:22Z</time>
      </trkpt>
      <trkpt lat="43.6143" lon="3.79685">
        <ele>56</ele>
        <time>2021-02-07T15:19:23Z</time>
      </trkpt>
      <trkpt lat="43.61429" lon="3.79688">
        <ele>57</ele>
        <time>2021-02-07T15:19:24Z</time>
      </trkpt>
      <trkpt lat="43.61428" lon="3.79691">
        <ele>57.2</ele>
        <time>2021-02-07T15:19:25Z</time>
      </trkpt>
      <trkpt lat="43.61427" lon="3.79695">
        <ele>57.4</ele>
        <time>2021-02-07T15:19:26Z</time>
      </trkpt>
      <trkpt lat="43.61426" lon="3.79699">
        <ele>57.3</ele>
        <time>2021-02-07T15:19:27Z</time>
      </trkpt>
      <trkpt lat="43.61424" lon="3.79702">
        <ele>57.3</ele>
        <time>2021-02-07T15:19:28Z</time>
      </trkpt>
      <trkpt lat="43.61423" lon="3.79705">
        <ele>57.2</ele>
        <time>2021-02-07T15:19:29Z</time>
      </trkpt>
      <trkpt lat="43.61422" lon="3.79708">
        <ele>57.2</ele>
        <time>2021-02-07T15:19:30Z</time>
      </trkpt>
      <trkpt lat="43.61421" lon="3.79711">
        <ele>57.2</ele>
        <time>2021-02-07T15:19:31Z</time>
      </trkpt>
      <trkpt lat="43.6142" lon="3.79714">
        <ele>57.1</ele>
        <time>2021-02-07T15:19:32Z</time>
      </trkpt>
      <trkpt lat="43.61419" lon="3.79718">
        <ele>57.1</ele>
        <time>2021-02-07T15:19:33Z</time>
      </trkpt>
      <trkpt lat="43.61419" lon="3.79721">
        <ele>57</ele>
        <time>2021-02-07T15:19:34Z</time>
      </trkpt>
      <trkpt lat="43.61418" lon="3.79724">
        <ele>57.1</ele>
        <time>2021-02-07T15:19:35Z</time>
      </trkpt>
      <trkpt lat="43.61418" lon="3.79728">
        <ele>57.3</ele>
        <time>2021-02-07T15:19:36Z</time>
      </trkpt>
      <trkpt lat="43.61417" lon="3.79731">
        <ele>57.3</ele>
        <time>2021-02-07T15:19:37Z</time>
      </trkpt>
      <trkpt lat="43.61416" lon="3.79735">
        <ele>57.5</ele>
        <time>2021-02-07T15:19:38Z</time>
      </trkpt>
      <trkpt lat="43.61415" lon="3.79738">
        <ele>57.6</ele>
        <time>2021-02-07T15:19:39Z</time>
      </trkpt>
      <trkpt lat="43.61414" lon="3.79741">
        <ele>57.8</ele>
        <time>2021-02-07T15:19:40Z</time>
      </trkpt>
      <trkpt lat="43.61413" lon="3.79745">
        <ele>58</ele>
        <time>2021-02-07T15:19:41Z</time>
      </trkpt>
      <trkpt lat="43.61412" lon="3.79748">
        <ele>58.1</ele>
        <time>2021-02-07T15:19:42Z</time>
      </trkpt>
      <trkpt lat="43.61411" lon="3.79751">
        <ele>58</ele>
        <time>2021-02-07T15:19:43Z</time>
      </trkpt>
      <trkpt lat="43.61411" lon="3.79755">
        <ele>58.5</ele>
        <time>2021-02-07T15:19:44Z</time>
      </trkpt>
      <trkpt lat="43.6141" lon="3.79758">
        <ele>58.7</ele>
        <time>2021-02-07T15:19:45Z</time>
      </trkpt>
      <trkpt lat="43.61409" lon="3.79762">
        <ele>59</ele>
        <time>2021-02-07T15:19:46Z</time>
      </trkpt>
      <trkpt lat="43.61407" lon="3.79765">
        <ele>59.2</ele>
        <time>2021-02-07T15:19:47Z</time>
      </trkpt>
      <trkpt lat="43.61406" lon="3.79769">
        <ele>59.5</ele>
        <time>2021-02-07T15:19:48Z</time>
      </trkpt>
      <trkpt lat="43.61405" lon="3.79773">
        <ele>59.7</ele>
        <time>2021-02-07T15:19:49Z</time>
      </trkpt>
      <trkpt lat="43.61404" lon="3.79776">
        <ele>59.9</ele>
        <time>2021-02-07T15:19:50Z</time>
      </trkpt>
      <trkpt lat="43.61403" lon="3.7978">
        <ele>60</ele>
        <time>2021-02-07T15:19:51Z</time>
      </trkpt>
      <trkpt lat="43.61402" lon="3.79783">
        <ele>60.1</ele>
        <time>2021-02-07T15:19:52Z</time>
      </trkpt>
      <trkpt lat="43.614" lon="3.79786">
        <ele>58</ele>
        <time>2021-02-07T15:19:53Z</time>
      </trkpt>
      <trkpt lat="43.614" lon="3.79789">
        <ele>60.2</ele>
        <time>2021-02-07T15:19:54Z</time>
      </trkpt>
      <trkpt lat="43.61399" lon="3.79793">
        <ele>60.3</ele>
        <time>2021-02-07T15:19:55Z</time>
      </trkpt>
      <trkpt lat="43.61398" lon="3.79796">
        <ele>60.4</ele>
        <time>2021-02-07T15:19:56Z</time>
      </trkpt>
      <trkpt lat="43.61397" lon="3.79799">
        <ele>60.5</ele>
        <time>2021-02-07T15:19:57Z</time>
      </trkpt>
      <trkpt lat="43.61397" lon="3.79802">
        <ele>60.6</ele>
        <time>2021-02-07T15:19:58Z</time>
      </trkpt>
      <trkpt lat="43.61396" lon="3.79805">
        <ele>60.7</ele>
        <time>2021-02-07T15:19:59Z</time>
      </trkpt>
      <trkpt lat="43.61396" lon="3.79808">
        <ele>60.8</ele>
        <time>2021-02-07T15:20:00Z</time>
      </trkpt>
      <trkpt lat="43.61396" lon="3.79811">
        <ele>60.9</ele>
        <time>2021-02-07T15:20:01Z</time>
      </trkpt>
      <trkpt lat="43.61396" lon="3.79814">
        <ele>61</ele>
        <time>2021-02-07T15:20:02Z</time>
      </trkpt>
      <trkpt lat="43.61395" lon="3.79817">
        <ele>59</ele>
        <time>2021-02-07T15:20:03Z</time>
      </trkpt>
      <trkpt lat="43.61395" lon="3.7982">
        <ele>61.3</ele>
        <time>2021-02-07T15:20:04Z</time>
      </trkpt>
      <trkpt lat="43.61394" lon="3.79823">
        <ele>61.4</ele>
        <time>2021-02-07T15:20:05Z</time>
      </trkpt>
      <trkpt lat="43.61394" lon="3.79826">
        <ele>61.6</ele>
        <time>2021-02-07T15:20:06Z</time>
      </trkpt>
      <trkpt lat="43.61394" lon="3.79829">
        <ele>61.7</ele>
        <time>2021-02-07T15:20:07Z</time>
      </trkpt>
      <trkpt lat="43.61394" lon="3.79833">
        <ele>61.8</ele>
        <time>2021-02-07T15:20:08Z</time>
      </trkpt>
      <trkpt lat="43.61394" lon="3.79836">
        <ele>61.8</ele>
        <time>2021-02-07T15:20:09Z</time>
      </trkpt>
      <trkpt lat="43.61393" lon="3.79839">
        <ele>61.9</ele>
        <time>2021-02-07T15:20:10Z</time>
      </trkpt>
      <trkpt lat="43.61392" lon="3.79842">
        <ele>61.9</ele>
        <time>2021-02-07T15:20:11Z</time>
      </trkpt>
      <trkpt lat="43.61391" lon="3.79845">
        <ele>62</ele>
        <time>2021-02-07T15:20:12Z</time>
      </trkpt>
      <trkpt lat="43.6139" lon="3.79848">
        <ele>62</ele>
        <time>2021-02-07T15:20:13Z</time>
      </trkpt>
      <trkpt lat="43.61389" lon="3.79851">
        <ele>60</ele>
        <time>2021-02-07T15:20:14Z</time>
      </trkpt>
      <trkpt lat="43.61388" lon="3.79854">
        <ele>62.1</ele>
        <time>2021-02-07T15:20:15Z</time>
      </trkpt>
      <trkpt lat="43.61387" lon="3.79857">
        <ele>62.1</ele>
        <time>2021-02-07T15:20:16Z</time>
      </trkpt>
      <trkpt lat="43.61386" lon="3.79859">
        <ele>62.2</ele>
        <time>2021-02-07T15:20:17Z</time>
      </trkpt>
      <trkpt lat="43.61385" lon="3.79862">
        <ele>62.3</ele>
        <time>2021-02-07T15:20:18Z</time>
      </trkpt>
      <trkpt lat="43.61384" lon="3.79864">
        <ele>62.4</ele>
        <time>2021-02-07T15:20:19Z</time>
      </trkpt>
      <trkpt lat="43.61383" lon="3.79867">
        <ele>62.6</ele>
        <time>2021-02-07T15:20:20Z</time>
      </trkpt>
      <trkpt lat="43.61383" lon="3.7987">
        <ele>62.7</ele>
        <time>2021-02-07T15:20:21Z</time>
      </trkpt>
      <trkpt lat="43.61382" lon="3.79873">
        <ele>62.8</ele>
        <time>2021-02-07T15:20:22Z</time>
      </trkpt>
      <trkpt lat="43.61382" lon="3.79876">
        <ele>60</ele>
        <time>2021-02-07T15:20:23Z</time>
      </trkpt>
      <trkpt lat="43.61381" lon="3.79879">
        <ele>63</ele>
        <time>2021-02-07T15:20:24Z</time>
      </trkpt>
      <trkpt lat="43.61381" lon="3.79882">
        <ele>63.1</ele>
        <time>2021-02-07T15:20:25Z</time>
      </trkpt>
      <trkpt lat="43.6138" lon="3.79886">
        <ele>63.2</ele>
        <time>2021-02-07T15:20:26Z</time>
      </trkpt>
      <trkpt lat="43.61381" lon="3.7989">
        <ele>63.3</ele>
        <time>2021-02-07T15:20:27Z</time>
      </trkpt>
      <trkpt lat="43.61383" lon="3.79894">
        <ele>63.2</ele>
        <time>2021-02-07T15:20:28Z</time>
      </trkpt>
      <trkpt lat="43.61385" lon="3.79897">
        <ele>63.1</ele>
        <time>2021-02-07T15:20:29Z</time>
      </trkpt>
      <trkpt lat="43.61387" lon="3.79902">
        <ele>63.1</ele>
        <time>2021-02-07T15:20:30Z</time>
      </trkpt>
      <trkpt lat="43.6139" lon="3.79907">
        <ele>63.1</ele>
        <time>2021-02-07T15:20:31Z</time>
      </trkpt>
      <trkpt lat="43.61393" lon="3.79913">
        <ele>63.3</ele>
        <time>2021-02-07T15:20:32Z</time>
      </trkpt>
      <trkpt lat="43.61397" lon="3.79919">
        <ele>63.6</ele>
        <time>2021-02-07T15:20:33Z</time>
      </trkpt>
      <trkpt lat="43.614" lon="3.79925">
        <ele>60</ele>
        <time>2021-02-07T15:20:34Z</time>
      </trkpt>
      <trkpt lat="43.61404" lon="3.79932">
        <ele>63.7</ele>
        <time>2021-02-07T15:20:35Z</time>
      </trkpt>
      <trkpt lat="43.61407" lon="3.79939">
        <ele>63.3</ele>
        <time>2021-02-07T15:20:36Z</time>
      </trkpt>
      <trkpt lat="43.61411" lon="3.79946">
        <ele>62.6</ele>
        <time>2021-02-07T15:20:37Z</time>
      </trkpt>
      <trkpt lat="43.61414" lon="3.79953">
        <ele>62.3</ele>
        <time>2021-02-07T15:20:38Z</time>
      </trkpt>
      <trkpt lat="43.61418" lon="3.79961">
        <ele>62.2</ele>
        <time>2021-02-07T15:20:39Z</time>
      </trkpt>
      <trkpt lat="43.61425" lon="3.79976">
        <ele>63.4</ele>
        <time>2021-02-07T15:20:41Z</time>
      </trkpt>
      <trkpt lat="43.61428" lon="3.79984">
        <ele>64.1</ele>
        <time>2021-02-07T15:20:42Z</time>
      </trkpt>
      <trkpt lat="43.6143" lon="3.79992">
        <ele>61</ele>
        <time>2021-02-07T15:20:43Z</time>
      </trkpt>
      <trkpt lat="43.61432" lon="3.79999">
        <ele>65.1</ele>
        <time>2021-02-07T15:20:44Z</time>
      </trkpt>
      <trkpt lat="43.61434" lon="3.80006">
        <ele>65.2</ele>
        <time>2021-02-07T15:20:45Z</time>
      </trkpt>
      <trkpt lat="43.61435" lon="3.80014">
        <ele>65.3</ele>
        <time>2021-02-07T15:20:46Z</time>
      </trkpt>
      <trkpt lat="43.61437" lon="3.8002">
        <ele>65.5</ele>
        <time>2021-02-07T15:20:47Z</time>
      </trkpt>
      <trkpt lat="43.61439" lon="3.80026">
        <ele>65.6</ele>
        <time>2021-02-07T15:20:48Z</time>
      </trkpt>
      <trkpt lat="43.6144" lon="3.8003">
        <ele>65.7</ele>
        <time>2021-02-07T15:20:49Z</time>
      </trkpt>
      <trkpt lat="43.61442" lon="3.80033">
        <ele>65.8</ele>
        <time>2021-02-07T15:20:50Z</time>
      </trkpt>
      <trkpt lat="43.61444" lon="3.80035">
        <ele>66</ele>
        <time>2021-02-07T15:20:51Z</time>
      </trkpt>
      <trkpt lat="43.61446" lon="3.80036">
        <ele>66</ele>
        <time>2021-02-07T15:20:52Z</time>
      </trkpt>
      <trkpt lat="43.61448" lon="3.8004">
        <ele>66.1</ele>
        <time>2021-02-07T15:20:54Z</time>
      </trkpt>
      <trkpt lat="43.61448" lon="3.80043">
        <ele>66.1</ele>
        <time>2021-02-07T15:20:55Z</time>
      </trkpt>
      <trkpt lat="43.61447" lon="3.80045">
        <ele>66</ele>
        <time>2021-02-07T15:20:56Z</time>
      </trkpt>
      <trkpt lat="43.61446" lon="3.80049">
        <ele>66</ele>
        <time>2021-02-07T15:20:58Z</time>
      </trkpt>
      <trkpt lat="43.61445" lon="3.80049">
        <ele>65</ele>
        <time>2021-02-07T15:21:04Z</time>
      </trkpt>
      <trkpt lat="43.61448" lon="3.80059">
        <ele>66</ele>
        <time>2021-02-07T15:21:17Z</time>
      </trkpt>
      <trkpt lat="43.6145" lon="3.8006">
        <ele>65.9</ele>
        <time>2021-02-07T15:21:18Z</time>
      </trkpt>
      <trkpt lat="43.61453" lon="3.80061">
        <ele>65.9</ele>
        <time>2021-02-07T15:21:19Z</time>
      </trkpt>
      <trkpt lat="43.61455" lon="3.80062">
        <ele>65.9</ele>
        <time>2021-02-07T15:21:20Z</time>
      </trkpt>
      <trkpt lat="43.61457" lon="3.80064">
        <ele>65.8</ele>
        <time>2021-02-07T15:21:21Z</time>
      </trkpt>
      <trkpt lat="43.61458" lon="3.80067">
        <ele>65.8</ele>
        <time>2021-02-07T15:21:22Z</time>
      </trkpt>
      <trkpt lat="43.61458" lon="3.8007">
        <ele>65.7</ele>
        <time>2021-02-07T15:21:24Z</time>
      </trkpt>
      <trkpt lat="43.61457" lon="3.80074">
        <ele>67</ele>
        <time>2021-02-07T15:21:26Z</time>
      </trkpt>
      <trkpt lat="43.61456" lon="3.80077">
        <ele>65.5</ele>
        <time>2021-02-07T15:21:27Z</time>
      </trkpt>
      <trkpt lat="43.61455" lon="3.80082">
        <ele>65.4</ele>
        <time>2021-02-07T15:21:29Z</time>
      </trkpt>
      <trkpt lat="43.61455" lon="3.80085">
        <ele>65.4</ele>
        <time>2021-02-07T15:21:30Z</time>
      </trkpt>
      <trkpt lat="43.61455" lon="3.80088">
        <ele>65.3</ele>
        <time>2021-02-07T15:21:31Z</time>
      </trkpt>
      <trkpt lat="43.61456" lon="3.80092">
        <ele>65.3</ele>
        <time>2021-02-07T15:21:32Z</time>
      </trkpt>
      <trkpt lat="43.61456" lon="3.80095">
        <ele>65.2</ele>
        <time>2021-02-07T15:21:33Z</time>
      </trkpt>
      <trkpt lat="43.61456" lon="3.80099">
        <ele>65.2</ele>
        <time>2021-02-07T15:21:34Z</time>
      </trkpt>
      <trkpt lat="43.61456" lon="3.80104">
        <ele>65.1</ele>
        <time>2021-02-07T15:21:35Z</time>
      </trkpt>
      <trkpt lat="43.61455" lon="3.80107">
        <ele>65.1</ele>
        <time>2021-02-07T15:21:36Z</time>
      </trkpt>
      <trkpt lat="43.61454" lon="3.80111">
        <ele>68</ele>
        <time>2021-02-07T15:21:37Z</time>
      </trkpt>
      <trkpt lat="43.61453" lon="3.80116">
        <ele>64.9</ele>
        <time>2021-02-07T15:21:38Z</time>
      </trkpt>
      <trkpt lat="43.61451" lon="3.80121">
        <ele>64.7</ele>
        <time>2021-02-07T15:21:39Z</time>
      </trkpt>
      <trkpt lat="43.6145" lon="3.80126">
        <ele>64.6</ele>
        <time>2021-02-07T15:21:40Z</time>
      </trkpt>
      <trkpt lat="43.61448" lon="3.80131">
        <ele>64.4</ele>
        <time>2021-02-07T15:21:41Z</time>
      </trkpt>
      <trkpt lat="43.61447" lon="3.80137">
        <ele>64.2</ele>
        <time>2021-02-07T15:21:42Z</time>
      </trkpt>
      <trkpt lat="43.61446" lon="3.80142">
        <ele>64</ele>
        <time>2021-02-07T15:21:43Z</time>
      </trkpt>
      <trkpt lat="43.61445" lon="3.80148">
        <ele>64</ele>
        <time>2021-02-07T15:21:44Z</time>
      </trkpt>
      <trkpt lat="43.61444" lon="3.80154">
        <ele>64</ele>
        <time>2021-02-07T15:21:45Z</time>
      </trkpt>
      <trkpt lat="43.61443" lon="3.80159">
        <ele>64</ele>
        <time>2021-02-07T15:21:46Z</time>
      </trkpt>
      <trkpt lat="43.61442" lon="3.80165">
        <ele>69</ele>
        <time>2021-02-07T15:21:47Z</time>
      </trkpt>
      <trkpt lat="43.61441" lon="3.8017">
        <ele>63.9</ele>
        <time>2021-02-07T15:21:48Z</time>
      </trkpt>
      <trkpt lat="43.61439" lon="3.80176">
        <ele>63.7</ele>
        <time>2021-02-07T15:21:49Z</time>
      </trkpt>
      <trkpt lat="43.61438" lon="3.80181">
        <ele>63.5</ele>
        <time>2021-02-07T15:21:50Z</time>
      </trkpt>
      <trkpt lat="43.61436" lon="3.80187">
        <ele>63.3</ele>
        <time>2021-02-07T15:21:51Z</time>
      </trkpt>
      <trkpt lat="43.61435" lon="3.80193">
        <ele>63.1</ele>
        <time>2021-02-07T15:21:52Z</time>
      </trkpt>
      <trkpt lat="43.61434" lon="3.80199">
        <ele>62.9</ele>
        <time>2021-02-07T15:21:53Z</time>
      </trkpt>
      <trkpt lat="43.61432" lon="3.80205">
        <ele>62.8</ele>
        <time>2021-02-07T15:21:54Z</time>
      </trkpt>
      <trkpt lat="43.61431" lon="3.8021">
        <ele>62.7</ele>
        <time>2021-02-07T15:21:55Z</time>
      </trkpt>
      <trkpt lat="43.6143" lon="3.80216">
        <ele>69</ele>
        <time>2021-02-07T15:21:56Z</time>
      </trkpt>
      <trkpt lat="43.61429" lon="3.80221">
        <ele>62.6</ele>
        <time>2021-02-07T15:21:57Z</time>
      </trkpt>
      <trkpt lat="43.61428" lon="3.80227">
        <ele>62.5</ele>
        <time>2021-02-07T15:21:58Z</time>
      </trkpt>
      <trkpt lat="43.61428" lon="3.80232">
        <ele>62.4</ele>
        <time>2021-02-07T15:21:59Z</time>
      </trkpt>
      <trkpt lat="43.61427" lon="3.80238">
        <ele>62.3</ele>
        <time>2021-02-07T15:22:00Z</time>
      </trkpt>
      <trkpt lat="43.61426" lon="3.80244">
        <ele>62.1</ele>
        <time>2021-02-07T15:22:01Z</time>
      </trkpt>
      <trkpt lat="43.61425" lon="3.80251">
        <ele>62</ele>
        <time>2021-02-07T15:22:02Z</time>
      </trkpt>
      <trkpt lat="43.61424" lon="3.80257">
        <ele>61.7</ele>
        <time>2021-02-07T15:22:03Z</time>
      </trkpt>
      <trkpt lat="43.61423" lon="3.80263">
        <ele>61.5</ele>
        <time>2021-02-07T15:22:04Z</time>
      </trkpt>
      <trkpt lat="43.61422" lon="3.8027">
        <ele>61.3</ele>
        <time>2021-02-07T15:22:05Z</time>
      </trkpt>
      <trkpt lat="43.61421" lon="3.80276">
        <ele>68</ele>
        <time>2021-02-07T15:22:06Z</time>
      </trkpt>
      <trkpt lat="43.61421" lon="3.80282">
        <ele>61</ele>
        <time>2021-02-07T15:22:07Z</time>
      </trkpt>
      <trkpt lat="43.6142" lon="3.80288">
        <ele>61</ele>
        <time>2021-02-07T15:22:08Z</time>
      </trkpt>
      <trkpt lat="43.6142" lon="3.80295">
        <ele>60.9</ele>
        <time>2021-02-07T15:22:09Z</time>
      </trkpt>
      <trkpt lat="43.6142" lon="3.80301">
        <ele>60.9</ele>
        <time>2021-02-07T15:22:10Z</time>
      </trkpt>
      <trkpt lat="43.61419" lon="3.80307">
        <ele>60.9</ele>
        <time>2021-02-07T15:22:11Z</time>
      </trkpt>
      <trkpt lat="43.61418" lon="3.80314">
        <ele>60.7</ele>
        <time>2021-02-07T15:22:12Z</time>
      </trkpt>
      <trkpt lat="43.61418" lon="3.8032">
        <ele>60.5</ele>
        <time>2021-02-07T15:22:13Z</time>
      </trkpt>
      <trkpt lat="43.61417" lon="3.80326">
        <ele>60.3</ele>
        <time>2021-02-07T15:22:14Z</time>
      </trkpt>
      <trkpt lat="43.61416" lon="3.80332">
        <ele>60.1</ele>
        <time>2021-02-07T15:22:15Z</time>
      </trkpt>
      <trkpt lat="43.61416" lon="3.80338">
        <ele>68</ele>
        <time>2021-02-07T15:22:16Z</time>
      </trkpt>
      <trkpt lat="43.61415" lon="3.80345">
        <ele>60.1</ele>
        <time>2021-02-07T15:22:17Z</time>
      </trkpt>
      <trkpt lat="43.61415" lon="3.80352">
        <ele>60.1</ele>
        <time>2021-02-07T15:22:18Z</time>
      </trkpt>
      <trkpt lat="43.61414" lon="3.80358">
        <ele>60.2</ele>
        <time>2021-02-07T15:22:19Z</time>
      </trkpt>
      <trkpt lat="43.61414" lon="3.80365">
        <ele>60.1</ele>
        <time>2021-02-07T15:22:20Z</time>
      </trkpt>
      <trkpt lat="43.61413" lon="3.80371">
        <ele>59.9</ele>
        <time>2021-02-07T15:22:21Z</time>
      </trkpt>
      <trkpt lat="43.61413" lon="3.80378">
        <ele>59.7</ele>
        <time>2021-02-07T15:22:22Z</time>
      </trkpt>
      <trkpt lat="43.61412" lon="3.80384">
        <ele>59.5</ele>
        <time>2021-02-07T15:22:23Z</time>
      </trkpt>
      <trkpt lat="43.61412" lon="3.80389">
        <ele>59.3</ele>
        <time>2021-02-07T15:22:24Z</time>
      </trkpt>
      <trkpt lat="43.61411" lon="3.80394">
        <ele>59.2</ele>
        <time>2021-02-07T15:22:25Z</time>
      </trkpt>
      <trkpt lat="43.6141" lon="3.80399">
        <ele>67</ele>
        <time>2021-02-07T15:22:26Z</time>
      </trkpt>
      <trkpt lat="43.61409" lon="3.80404">
        <ele>59</ele>
        <time>2021-02-07T15:22:27Z</time>
      </trkpt>
      <trkpt lat="43.61409" lon="3.80409">
        <ele>58.8</ele>
        <time>2021-02-07T15:22:28Z</time>
      </trkpt>
      <trkpt lat="43.61408" lon="3.80413">
        <ele>58.8</ele>
        <time>2021-02-07T15:22:29Z</time>
      </trkpt>
      <trkpt lat="43.61408" lon="3.80416">
        <ele>58.6</ele>
        <time>2021-02-07T15:22:30Z</time>
      </trkpt>
      <trkpt lat="43.61407" lon="3.8042">
        <ele>58.7</ele>
        <time>2021-02-07T15:22:31Z</time>
      </trkpt>
      <trkpt lat="43.61407" lon="3.80424">
        <ele>58.6</ele>
        <time>2021-02-07T15:22:32Z</time>
      </trkpt>
      <trkpt lat="43.61407" lon="3.80428">
        <ele>58.6</ele>
        <time>2021-02-07T15:22:33Z</time>
      </trkpt>
      <trkpt lat="43.61407" lon="3.80432">
        <ele>58.5</ele>
        <time>2021-02-07T15:22:34Z</time>
      </trkpt>
      <trkpt lat="43.61406" lon="3.80437">
        <ele>58.5</ele>
        <time>2021-02-07T15:22:35Z</time>
      </trkpt>
      <trkpt lat="43.61406" lon="3.80442">
        <ele>58.4</ele>
        <time>2021-02-07T15:22:36Z</time>
      </trkpt>
      <trkpt lat="43.61406" lon="3.80447">
        <ele>66</ele>
        <time>2021-02-07T15:22:37Z</time>
      </trkpt>
      <trkpt lat="43.61406" lon="3.80453">
        <ele>58.3</ele>
        <time>2021-02-07T15:22:38Z</time>
      </trkpt>
      <trkpt lat="43.61406" lon="3.80458">
        <ele>58.2</ele>
        <time>2021-02-07T15:22:39Z</time>
      </trkpt>
      <trkpt lat="43.61407" lon="3.80464">
        <ele>58.1</ele>
        <time>2021-02-07T15:22:40Z</time>
      </trkpt>
      <trkpt lat="43.61407" lon="3.80471">
        <ele>58</ele>
        <time>2021-02-07T15:22:41Z</time>
      </trkpt>
      <trkpt lat="43.61407" lon="3.80477">
        <ele>58</ele>
        <time>2021-02-07T15:22:42Z</time>
      </trkpt>
      <trkpt lat="43.61407" lon="3.80484">
        <ele>58</ele>
        <time>2021-02-07T15:22:43Z</time>
      </trkpt>
      <trkpt lat="43.61406" lon="3.8049">
        <ele>58</ele>
        <time>2021-02-07T15:22:44Z</time>
      </trkpt>
      <trkpt lat="43.61406" lon="3.80496">
        <ele>58</ele>
        <time>2021-02-07T15:22:45Z</time>
      </trkpt>
      <trkpt lat="43.61406" lon="3.80503">
        <ele>57.9</ele>
        <time>2021-02-07T15:22:46Z</time>
      </trkpt>
      <trkpt lat="43.61405" lon="3.80509">
        <ele>63</ele>
        <time>2021-02-07T15:22:47Z</time>
      </trkpt>
      <trkpt lat="43.61405" lon="3.80515">
        <ele>57.7</ele>
        <time>2021-02-07T15:22:48Z</time>
      </trkpt>
      <trkpt lat="43.61405" lon="3.80521">
        <ele>57.6</ele>
        <time>2021-02-07T15:22:49Z</time>
      </trkpt>
      <trkpt lat="43.61404" lon="3.80527">
        <ele>57.5</ele>
        <time>2021-02-07T15:22:50Z</time>
      </trkpt>
      <trkpt lat="43.61404" lon="3.80532">
        <ele>57.4</ele>
        <time>2021-02-07T15:22:51Z</time>
      </trkpt>
      <trkpt lat="43.61404" lon="3.80537">
        <ele>57.3</ele>
        <time>2021-02-07T15:22:52Z</time>
      </trkpt>
      <trkpt lat="43.61404" lon="3.80543">
        <ele>57.2</ele>
        <time>2021-02-07T15:22:53Z</time>
      </trkpt>
      <trkpt lat="43.61403" lon="3.80548">
        <ele>57.1</ele>
        <time>2021-02-07T15:22:54Z</time>
      </trkpt>
      <trkpt lat="43.61403" lon="3.80554">
        <ele>57</ele>
        <time>2021-02-07T15:22:55Z</time>
      </trkpt>
      <trkpt lat="43.61402" lon="3.8056">
        <ele>63</ele>
        <time>2021-02-07T15:22:56Z</time>
      </trkpt>
      <trkpt lat="43.61401" lon="3.80566">
        <ele>56.8</ele>
        <time>2021-02-07T15:22:57Z</time>
      </trkpt>
      <trkpt lat="43.61399" lon="3.80572">
        <ele>56.6</ele>
        <time>2021-02-07T15:22:58Z</time>
      </trkpt>
      <trkpt lat="43.61398" lon="3.80579">
        <ele>56.4</ele>
        <time>2021-02-07T15:22:59Z</time>
      </trkpt>
      <trkpt lat="43.61397" lon="3.80585">
        <ele>56.3</ele>
        <time>2021-02-07T15:23:00Z</time>
      </trkpt>
      <trkpt lat="43.61397" lon="3.80592">
        <ele>56.3</ele>
        <time>2021-02-07T15:23:01Z</time>
      </trkpt>
      <trkpt lat="43.61398" lon="3.80599">
        <ele>56.3</ele>
        <time>2021-02-07T15:23:02Z</time>
      </trkpt>
      <trkpt lat="43.61399" lon="3.80607">
        <ele>56.4</ele>
        <time>2021-02-07T15:23:03Z</time>
      </trkpt>
      <trkpt lat="43.61399" lon="3.80614">
        <ele>56.3</ele>
        <time>2021-02-07T15:23:04Z</time>
      </trkpt>
      <trkpt lat="43.61399" lon="3.80621">
        <ele>56</ele>
        <time>2021-02-07T15:23:05Z</time>
      </trkpt>
      <trkpt lat="43.61398" lon="3.80627">
        <ele>62</ele>
        <time>2021-02-07T15:23:06Z</time>
      </trkpt>
      <trkpt lat="43.61397" lon="3.80633">
        <ele>55.5</ele>
        <time>2021-02-07T15:23:07Z</time>
      </trkpt>
      <trkpt lat="43.61395" lon="3.8064">
        <ele>55.2</ele>
        <time>2021-02-07T15:23:08Z</time>
      </trkpt>
      <trkpt lat="43.61394" lon="3.80646">
        <ele>55.2</ele>
        <time>2021-02-07T15:23:09Z</time>
      </trkpt>
      <trkpt lat="43.61393" lon="3.80652">
        <ele>55.1</ele>
        <time>2021-02-07T15:23:10Z</time>
      </trkpt>
      <trkpt lat="43.61392" lon="3.80659">
        <ele>55.1</ele>
        <time>2021-02-07T15:23:11Z</time>
      </trkpt>
      <trkpt lat="43.61392" lon="3.80665">
        <ele>55.1</ele>
        <time>2021-02-07T15:23:12Z</time>
      </trkpt>
      <trkpt lat="43.61392" lon="3.80672">
        <ele>55.1</ele>
        <time>2021-02-07T15:23:13Z</time>
      </trkpt>
      <trkpt lat="43.61391" lon="3.80679">
        <ele>55.1</ele>
        <time>2021-02-07T15:23:14Z</time>
      </trkpt>
      <trkpt lat="43.61391" lon="3.80685">
        <ele>55.1</ele>
        <time>2021-02-07T15:23:15Z</time>
      </trkpt>
      <trkpt lat="43.61391" lon="3.80692">
        <ele>61</ele>
        <time>2021-02-07T15:23:16Z</time>
      </trkpt>
      <trkpt lat="43.61389" lon="3.80698">
        <ele>55</ele>
        <time>2021-02-07T15:23:17Z</time>
      </trkpt>
      <trkpt lat="43.61388" lon="3.80704">
        <ele>54.9</ele>
        <time>2021-02-07T15:23:18Z</time>
      </trkpt>
      <trkpt lat="43.61387" lon="3.8071">
        <ele>54.9</ele>
        <time>2021-02-07T15:23:19Z</time>
      </trkpt>
      <trkpt lat="43.61387" lon="3.80716">
        <ele>54.9</ele>
        <time>2021-02-07T15:23:20Z</time>
      </trkpt>
      <trkpt lat="43.61386" lon="3.80722">
        <ele>54.8</ele>
        <time>2021-02-07T15:23:21Z</time>
      </trkpt>
      <trkpt lat="43.61385" lon="3.80728">
        <ele>54.7</ele>
        <time>2021-02-07T15:23:22Z</time>
      </trkpt>
      <trkpt lat="43.61385" lon="3.80735">
        <ele>54.7</ele>
        <time>2021-02-07T15:23:23Z</time>
      </trkpt>
      <trkpt lat="43.61384" lon="3.80741">
        <ele>54.6</ele>
        <time>2021-02-07T15:23:24Z</time>
      </trkpt>
      <trkpt lat="43.61383" lon="3.80747">
        <ele>54.6</ele>
        <time>2021-02-07T15:23:25Z</time>
      </trkpt>
      <trkpt lat="43.61383" lon="3.80753">
        <ele>61</ele>
        <time>2021-02-07T15:23:26Z</time>
      </trkpt>
      <trkpt lat="43.61382" lon="3.8076">
        <ele>54.7</ele>
        <time>2021-02-07T15:23:27Z</time>
      </trkpt>
      <trkpt lat="43.61382" lon="3.80766">
        <ele>54.8</ele>
        <time>2021-02-07T15:23:28Z</time>
      </trkpt>
      <trkpt lat="43.61381" lon="3.80772">
        <ele>54.8</ele>
        <time>2021-02-07T15:23:29Z</time>
      </trkpt>
      <trkpt lat="43.61381" lon="3.80778">
        <ele>54.9</ele>
        <time>2021-02-07T15:23:30Z</time>
      </trkpt>
      <trkpt lat="43.61381" lon="3.80785">
        <ele>54.9</ele>
        <time>2021-02-07T15:23:31Z</time>
      </trkpt>
      <trkpt lat="43.61381" lon="3.80791">
        <ele>54.9</ele>
        <time>2021-02-07T15:23:32Z</time>
      </trkpt>
      <trkpt lat="43.61381" lon="3.80797">
        <ele>54.9</ele>
        <time>2021-02-07T15:23:33Z</time>
      </trkpt>
      <trkpt lat="43.61381" lon="3.80803">
        <ele>54.9</ele>
        <time>2021-02-07T15:23:34Z</time>
      </trkpt>
      <trkpt lat="43.61381" lon="3.80809">
        <ele>54.8</ele>
        <time>2021-02-07T15:23:35Z</time>
      </trkpt>
      <trkpt lat="43.61381" lon="3.80815">
        <ele>60</ele>
        <time>2021-02-07T15:23:36Z</time>
      </trkpt>
      <trkpt lat="43.61382" lon="3.8082">
        <ele>54.6</ele>
        <time>2021-02-07T15:23:37Z</time>
      </trkpt>
      <trkpt lat="43.61382" lon="3.80826">
        <ele>54.5</ele>
        <time>2021-02-07T15:23:38Z</time>
      </trkpt>
      <trkpt lat="43.61382" lon="3.80832">
        <ele>54.3</ele>
        <time>2021-02-07T15:23:39Z</time>
      </trkpt>
      <trkpt lat="43.61383" lon="3.80837">
        <ele>54.5</ele>
        <time>2021-02-07T15:23:40Z</time>
      </trkpt>
      <trkpt lat="43.61383" lon="3.80843">
        <ele>54.7</ele>
        <time>2021-02-07T15:23:41Z</time>
      </trkpt>
      <trkpt lat="43.61383" lon="3.80848">
        <ele>54.9</ele>
        <time>2021-02-07T15:23:42Z</time>
      </trkpt>
      <trkpt lat="43.61383" lon="3.80853">
        <ele>55.1</ele>
        <time>2021-02-07T15:23:43Z</time>
      </trkpt>
      <trkpt lat="43.61383" lon="3.80858">
        <ele>55.3</ele>
        <time>2021-02-07T15:23:44Z</time>
      </trkpt>
      <trkpt lat="43.61384" lon="3.80863">
        <ele>55.4</ele>
        <time>2021-02-07T15:23:45Z</time>
      </trkpt>
      <trkpt lat="43.61384" lon="3.80868">
        <ele>60</ele>
        <time>2021-02-07T15:23:46Z</time>
      </trkpt>
      <trkpt lat="43.61384" lon="3.80874">
        <ele>55.2</ele>
        <time>2021-02-07T15:23:47Z</time>
      </trkpt>
      <trkpt lat="43.61384" lon="3.80879">
        <ele>55.1</ele>
        <time>2021-02-07T15:23:48Z</time>
      </trkpt>
      <trkpt lat="43.61385" lon="3.80885">
        <ele>55</ele>
        <time>2021-02-07T15:23:49Z</time>
      </trkpt>
      <trkpt lat="43.61385" lon="3.8089">
        <ele>54.8</ele>
        <time>2021-02-07T15:23:50Z</time>
      </trkpt>
      <trkpt lat="43.61385" lon="3.80896">
        <ele>54.6</ele>
        <time>2021-02-07T15:23:51Z</time>
      </trkpt>
      <trkpt lat="43.61386" lon="3.80901">
        <ele>54.5</ele>
        <time>2021-02-07T15:23:52Z</time>
      </trkpt>
      <trkpt lat="43.61386" lon="3.80907">
        <ele>54.2</ele>
        <time>2021-02-07T15:23:53Z</time>
      </trkpt>
      <trkpt lat="43.61387" lon="3.80913">
        <ele>54.1</ele>
        <time>2021-02-07T15:23:54Z</time>
      </trkpt>
      <trkpt lat="43.61387" lon="3.80919">
        <ele>53.9</ele>
        <time>2021-02-07T15:23:55Z</time>
      </trkpt>
      <trkpt lat="43.61388" lon="3.80925">
        <ele>60</ele>
        <time>2021-02-07T15:23:56Z</time>
      </trkpt>
      <trkpt lat="43.61388" lon="3.80932">
        <ele>53.4</ele>
        <time>2021-02-07T15:23:57Z</time>
      </trkpt>
      <trkpt lat="43.61389" lon="3.80938">
        <ele>53.2</ele>
        <time>2021-02-07T15:23:58Z</time>
      </trkpt>
      <trkpt lat="43.61389" lon="3.80944">
        <ele>53</ele>
        <time>2021-02-07T15:23:59Z</time>
      </trkpt>
      <trkpt lat="43.6139" lon="3.8095">
        <ele>52.9</ele>
        <time>2021-02-07T15:24:00Z</time>
      </trkpt>
      <trkpt lat="43.6139" lon="3.80956">
        <ele>52.7</ele>
        <time>2021-02-07T15:24:01Z</time>
      </trkpt>
      <trkpt lat="43.61391" lon="3.80962">
        <ele>52.5</ele>
        <time>2021-02-07T15:24:02Z</time>
      </trkpt>
      <trkpt lat="43.61392" lon="3.80968">
        <ele>52.4</ele>
        <time>2021-02-07T15:24:03Z</time>
      </trkpt>
      <trkpt lat="43.61392" lon="3.80973">
        <ele>52.2</ele>
        <time>2021-02-07T15:24:04Z</time>
      </trkpt>
      <trkpt lat="43.61393" lon="3.80979">
        <ele>52.1</ele>
        <time>2021-02-07T15:24:05Z</time>
      </trkpt>
      <trkpt lat="43.61392" lon="3.80984">
        <ele>61</ele>
        <time>2021-02-07T15:24:06Z</time>
      </trkpt>
      <trkpt lat="43.61392" lon="3.8099">
        <ele>51.6</ele>
        <time>2021-02-07T15:24:07Z</time>
      </trkpt>
      <trkpt lat="43.61393" lon="3.80998">
        <ele>51.4</ele>
        <time>2021-02-07T15:24:08Z</time>
      </trkpt>
      <trkpt lat="43.61395" lon="3.81008">
        <ele>51.4</ele>
        <time>2021-02-07T15:24:09Z</time>
      </trkpt>
      <trkpt lat="43.61397" lon="3.81017">
        <ele>51.4</ele>
        <time>2021-02-07T15:24:10Z</time>
      </trkpt>
      <trkpt lat="43.61399" lon="3.81026">
        <ele>51.4</ele>
        <time>2021-02-07T15:24:11Z</time>
      </trkpt>
      <trkpt lat="43.614" lon="3.81034">
        <ele>51.2</ele>
        <time>2021-02-07T15:24:12Z</time>
      </trkpt>
      <trkpt lat="43.61402" lon="3.81042">
        <ele>51</ele>
        <time>2021-02-07T15:24:13Z</time>
      </trkpt>
      <trkpt lat="43.61405" lon="3.81049">
        <ele>50.8</ele>
        <time>2021-02-07T15:24:14Z</time>
      </trkpt>
      <trkpt lat="43.61409" lon="3.81053">
        <ele>50.8</ele>
        <time>2021-02-07T15:24:15Z</time>
      </trkpt>
      <trkpt lat="43.61413" lon="3.81055">
        <ele>58</ele>
        <time>2021-02-07T15:24:16Z</time>
      </trkpt>
      <trkpt lat="43.61416" lon="3.81057">
        <ele>50.9</ele>
        <time>2021-02-07T15:24:17Z</time>
      </trkpt>
      <trkpt lat="43.61418" lon="3.81059">
        <ele>50.9</ele>
        <time>2021-02-07T15:24:18Z</time>
      </trkpt>
      <trkpt lat="43.6142" lon="3.81062">
        <ele>50.9</ele>
        <time>2021-02-07T15:24:19Z</time>
      </trkpt>
      <trkpt lat="43.61421" lon="3.81065">
        <ele>50.8</ele>
        <time>2021-02-07T15:24:20Z</time>
      </trkpt>
      <trkpt lat="43.61421" lon="3.81068">
        <ele>50.7</ele>
        <time>2021-02-07T15:24:21Z</time>
      </trkpt>
      <trkpt lat="43.6142" lon="3.81072">
        <ele>50.5</ele>
        <time>2021-02-07T15:24:22Z</time>
      </trkpt>
      <trkpt lat="43.61417" lon="3.81074">
        <ele>50.3</ele>
        <time>2021-02-07T15:24:23Z</time>
      </trkpt>
      <trkpt lat="43.61415" lon="3.81076">
        <ele>50.2</ele>
        <time>2021-02-07T15:24:24Z</time>
      </trkpt>
      <trkpt lat="43.61413" lon="3.8108">
        <ele>50</ele>
        <time>2021-02-07T15:24:25Z</time>
      </trkpt>
      <trkpt lat="43.61411" lon="3.81084">
        <ele>56</ele>
        <time>2021-02-07T15:24:26Z</time>
      </trkpt>
      <trkpt lat="43.61408" lon="3.81089">
        <ele>49.7</ele>
        <time>2021-02-07T15:24:27Z</time>
      </trkpt>
      <trkpt lat="43.61406" lon="3.81095">
        <ele>49.6</ele>
        <time>2021-02-07T15:24:28Z</time>
      </trkpt>
      <trkpt lat="43.61405" lon="3.81101">
        <ele>49.6</ele>
        <time>2021-02-07T15:24:29Z</time>
      </trkpt>
      <trkpt lat="43.61405" lon="3.81107">
        <ele>49.6</ele>
        <time>2021-02-07T15:24:30Z</time>
      </trkpt>
      <trkpt lat="43.61406" lon="3.81113">
        <ele>49.6</ele>
        <time>2021-02-07T15:24:31Z</time>
      </trkpt>
      <trkpt lat="43.61406" lon="3.81119">
        <ele>49.5</ele>
        <time>2021-02-07T15:24:32Z</time>
      </trkpt>
      <trkpt lat="43.61406" lon="3.81126">
        <ele>49.4</ele>
        <time>2021-02-07T15:24:33Z</time>
      </trkpt>
      <trkpt lat="43.61407" lon="3.81133">
        <ele>49.4</ele>
        <time>2021-02-07T15:24:34Z</time>
      </trkpt>
      <trkpt lat="43.61407" lon="3.8114">
        <ele>49.3</ele>
        <time>2021-02-07T15:24:35Z</time>
      </trkpt>
      <trkpt lat="43.61407" lon="3.81146">
        <ele>56</ele>
        <time>2021-02-07T15:24:36Z</time>
      </trkpt>
      <trkpt lat="43.61407" lon="3.81153">
        <ele>48.8</ele>
        <time>2021-02-07T15:24:37Z</time>
      </trkpt>
      <trkpt lat="43.61406" lon="3.81161">
        <ele>48.4</ele>
        <time>2021-02-07T15:24:38Z</time>
      </trkpt>
      <trkpt lat="43.61406" lon="3.81168">
        <ele>48.2</ele>
        <time>2021-02-07T15:24:39Z</time>
      </trkpt>
      <trkpt lat="43.61405" lon="3.81175">
        <ele>48</ele>
        <time>2021-02-07T15:24:40Z</time>
      </trkpt>
      <trkpt lat="43.61405" lon="3.81183">
        <ele>47.8</ele>
        <time>2021-02-07T15:24:41Z</time>
      </trkpt>
      <trkpt lat="43.61405" lon="3.8119">
        <ele>47.7</ele>
        <time>2021-02-07T15:24:42Z</time>
      </trkpt>
      <trkpt lat="43.61405" lon="3.81198">
        <ele>47.5</ele>
        <time>2021-02-07T15:24:43Z</time>
      </trkpt>
      <trkpt lat="43.61405" lon="3.81206">
        <ele>47.4</ele>
        <time>2021-02-07T15:24:44Z</time>
      </trkpt>
      <trkpt lat="43.61406" lon="3.81214">
        <ele>47.3</ele>
        <time>2021-02-07T15:24:45Z</time>
      </trkpt>
      <trkpt lat="43.61406" lon="3.81223">
        <ele>47.2</ele>
        <time>2021-02-07T15:24:46Z</time>
      </trkpt>
      <trkpt lat="43.61406" lon="3.81231">
        <ele>54</ele>
        <time>2021-02-07T15:24:47Z</time>
      </trkpt>
      <trkpt lat="43.61406" lon="3.81239">
        <ele>46.9</ele>
        <time>2021-02-07T15:24:48Z</time>
      </trkpt>
      <trkpt lat="43.61406" lon="3.81248">
        <ele>46.7</ele>
        <time>2021-02-07T15:24:49Z</time>
      </trkpt>
      <trkpt lat="43.61406" lon="3.81256">
        <ele>46.4</ele>
        <time>2021-02-07T15:24:50Z</time>
      </trkpt>
      <trkpt lat="43.61407" lon="3.81265">
        <ele>46.1</ele>
        <time>2021-02-07T15:24:51Z</time>
      </trkpt>
      <trkpt lat="43.61407" lon="3.81273">
        <ele>45.8</ele>
        <time>2021-02-07T15:24:52Z</time>
      </trkpt>
      <trkpt lat="43.61408" lon="3.81282">
        <ele>45.5</ele>
        <time>2021-02-07T15:24:53Z</time>
      </trkpt>
      <trkpt lat="43.61409" lon="3.81291">
        <ele>45.2</ele>
        <time>2021-02-07T15:24:54Z</time>
      </trkpt>
      <trkpt lat="43.61411" lon="3.81299">
        <ele>45</ele>
        <time>2021-02-07T15:24:55Z</time>
      </trkpt>
      <trkpt lat="43.61412" lon="3.81308">
        <ele>53</ele>
        <time>2021-02-07T15:24:56Z</time>
      </trkpt>
      <trkpt lat="43.61414" lon="3.81316">
        <ele>44.5</ele>
        <time>2021-02-07T15:24:57Z</time>
      </trkpt>
      <trkpt lat="43.61416" lon="3.81324">
        <ele>44.3</ele>
        <time>2021-02-07T15:24:58Z</time>
      </trkpt>
      <trkpt lat="43.61418" lon="3.81331">
        <ele>44.2</ele>
        <time>2021-02-07T15:24:59Z</time>
      </trkpt>
      <trkpt lat="43.61421" lon="3.81338">
        <ele>44.1</ele>
        <time>2021-02-07T15:25:00Z</time>
      </trkpt>
      <trkpt lat="43.61423" lon="3.81344">
        <ele>44.1</ele>
        <time>2021-02-07T15:25:01Z</time>
      </trkpt>
      <trkpt lat="43.61424" lon="3.81351">
        <ele>43.9</ele>
        <time>2021-02-07T15:25:02Z</time>
      </trkpt>
      <trkpt lat="43.61426" lon="3.81358">
        <ele>43.8</ele>
        <time>2021-02-07T15:25:03Z</time>
      </trkpt>
      <trkpt lat="43.61428" lon="3.81365">
        <ele>43.7</ele>
        <time>2021-02-07T15:25:04Z</time>
      </trkpt>
      <trkpt lat="43.6143" lon="3.81372">
        <ele>43.8</ele>
        <time>2021-02-07T15:25:05Z</time>
      </trkpt>
      <trkpt lat="43.61432" lon="3.81378">
        <ele>43.8</ele>
        <time>2021-02-07T15:25:06Z</time>
      </trkpt>
      <trkpt lat="43.61434" lon="3.81384">
        <ele>52</ele>
        <time>2021-02-07T15:25:07Z</time>
      </trkpt>
      <trkpt lat="43.61435" lon="3.81391">
        <ele>43.9</ele>
        <time>2021-02-07T15:25:08Z</time>
      </trkpt>
      <trkpt lat="43.61437" lon="3.81397">
        <ele>43.9</ele>
        <time>2021-02-07T15:25:09Z</time>
      </trkpt>
      <trkpt lat="43.61439" lon="3.81403">
        <ele>43.9</ele>
        <time>2021-02-07T15:25:10Z</time>
      </trkpt>
      <trkpt lat="43.61442" lon="3.8141">
        <ele>44</ele>
        <time>2021-02-07T15:25:11Z</time>
      </trkpt>
      <trkpt lat="43.61444" lon="3.81417">
        <ele>43.9</ele>
        <time>2021-02-07T15:25:12Z</time>
      </trkpt>
      <trkpt lat="43.61445" lon="3.81424">
        <ele>43.2</ele>
        <time>2021-02-07T15:25:13Z</time>
      </trkpt>
      <trkpt lat="43.61447" lon="3.81432">
        <ele>42.6</ele>
        <time>2021-02-07T15:25:14Z</time>
      </trkpt>
      <trkpt lat="43.61448" lon="3.81439">
        <ele>42</ele>
        <time>2021-02-07T15:25:15Z</time>
      </trkpt>
      <trkpt lat="43.6145" lon="3.81447">
        <ele>41.7</ele>
        <time>2021-02-07T15:25:16Z</time>
      </trkpt>
      <trkpt lat="43.61451" lon="3.81454">
        <ele>52</ele>
        <time>2021-02-07T15:25:17Z</time>
      </trkpt>
      <trkpt lat="43.61453" lon="3.8146">
        <ele>41.7</ele>
        <time>2021-02-07T15:25:18Z</time>
      </trkpt>
      <trkpt lat="43.61454" lon="3.81466">
        <ele>41.6</ele>
        <time>2021-02-07T15:25:19Z</time>
      </trkpt>
      <trkpt lat="43.61456" lon="3.81472">
        <ele>41.7</ele>
        <time>2021-02-07T15:25:20Z</time>
      </trkpt>
      <trkpt lat="43.61458" lon="3.81478">
        <ele>41.9</ele>
        <time>2021-02-07T15:25:21Z</time>
      </trkpt>
      <trkpt lat="43.61459" lon="3.81483">
        <ele>41.9</ele>
        <time>2021-02-07T15:25:22Z</time>
      </trkpt>
      <trkpt lat="43.61461" lon="3.81489">
        <ele>42</ele>
        <time>2021-02-07T15:25:23Z</time>
      </trkpt>
      <trkpt lat="43.61463" lon="3.81495">
        <ele>42.1</ele>
        <time>2021-02-07T15:25:24Z</time>
      </trkpt>
      <trkpt lat="43.61465" lon="3.81502">
        <ele>42</ele>
        <time>2021-02-07T15:25:25Z</time>
      </trkpt>
      <trkpt lat="43.61467" lon="3.81509">
        <ele>51</ele>
        <time>2021-02-07T15:25:26Z</time>
      </trkpt>
      <trkpt lat="43.61468" lon="3.81514">
        <ele>40.8</ele>
        <time>2021-02-07T15:25:27Z</time>
      </trkpt>
      <trkpt lat="43.61469" lon="3.81518">
        <ele>40.3</ele>
        <time>2021-02-07T15:25:28Z</time>
      </trkpt>
      <trkpt lat="43.61471" lon="3.81521">
        <ele>39.9</ele>
        <time>2021-02-07T15:25:29Z</time>
      </trkpt>
      <trkpt lat="43.61472" lon="3.81524">
        <ele>39.5</ele>
        <time>2021-02-07T15:25:30Z</time>
      </trkpt>
      <trkpt lat="43.61474" lon="3.81527">
        <ele>39.2</ele>
        <time>2021-02-07T15:25:31Z</time>
      </trkpt>
      <trkpt lat="43.61476" lon="3.81531">
        <ele>39</ele>
        <time>2021-02-07T15:25:32Z</time>
      </trkpt>
      <trkpt lat="43.61478" lon="3.81536">
        <ele>39</ele>
        <time>2021-02-07T15:25:33Z</time>
      </trkpt>
      <trkpt lat="43.6148" lon="3.8154">
        <ele>39</ele>
        <time>2021-02-07T15:25:34Z</time>
      </trkpt>
      <trkpt lat="43.61481" lon="3.81544">
        <ele>38.9</ele>
        <time>2021-02-07T15:25:35Z</time>
      </trkpt>
      <trkpt lat="43.61481" lon="3.81548">
        <ele>47</ele>
        <time>2021-02-07T15:25:36Z</time>
      </trkpt>
      <trkpt lat="43.61481" lon="3.81553">
        <ele>38.7</ele>
        <time>2021-02-07T15:25:37Z</time>
      </trkpt>
      <trkpt lat="43.61483" lon="3.81557">
        <ele>38.7</ele>
        <time>2021-02-07T15:25:38Z</time>
      </trkpt>
      <trkpt lat="43.61485" lon="3.81561">
        <ele>38.7</ele>
        <time>2021-02-07T15:25:39Z</time>
      </trkpt>
      <trkpt lat="43.61489" lon="3.81563">
        <ele>38.9</ele>
        <time>2021-02-07T15:25:40Z</time>
      </trkpt>
      <trkpt lat="43.61492" lon="3.81563">
        <ele>39</ele>
        <time>2021-02-07T15:25:41Z</time>
      </trkpt>
      <trkpt lat="43.61495" lon="3.81565">
        <ele>39.1</ele>
        <time>2021-02-07T15:25:42Z</time>
      </trkpt>
      <trkpt lat="43.61496" lon="3.81568">
        <ele>38.9</ele>
        <time>2021-02-07T15:25:43Z</time>
      </trkpt>
      <trkpt lat="43.61497" lon="3.81572">
        <ele>38.7</ele>
        <time>2021-02-07T15:25:44Z</time>
      </trkpt>
      <trkpt lat="43.61498" lon="3.81577">
        <ele>38.4</ele>
        <time>2021-02-07T15:25:45Z</time>
      </trkpt>
      <trkpt lat="43.61499" lon="3.81582">
        <ele>45</ele>
        <time>2021-02-07T15:25:46Z</time>
      </trkpt>
      <trkpt lat="43.615" lon="3.81588">
        <ele>38</ele>
        <time>2021-02-07T15:25:47Z</time>
      </trkpt>
      <trkpt lat="43.61501" lon="3.81593">
        <ele>38</ele>
        <time>2021-02-07T15:25:48Z</time>
      </trkpt>
      <trkpt lat="43.61502" lon="3.81599">
        <ele>38.1</ele>
        <time>2021-02-07T15:25:49Z</time>
      </trkpt>
      <trkpt lat="43.61502" lon="3.81605">
        <ele>38.1</ele>
        <time>2021-02-07T15:25:50Z</time>
      </trkpt>
      <trkpt lat="43.61503" lon="3.81611">
        <ele>38.1</ele>
        <time>2021-02-07T15:25:51Z</time>
      </trkpt>
      <trkpt lat="43.61504" lon="3.81616">
        <ele>38.1</ele>
        <time>2021-02-07T15:25:52Z</time>
      </trkpt>
      <trkpt lat="43.61505" lon="3.81621">
        <ele>38</ele>
        <time>2021-02-07T15:25:53Z</time>
      </trkpt>
      <trkpt lat="43.61506" lon="3.81627">
        <ele>37.8</ele>
        <time>2021-02-07T15:25:54Z</time>
      </trkpt>
      <trkpt lat="43.61508" lon="3.81632">
        <ele>37.6</ele>
        <time>2021-02-07T15:25:55Z</time>
      </trkpt>
      <trkpt lat="43.61509" lon="3.81637">
        <ele>44</ele>
        <time>2021-02-07T15:25:56Z</time>
      </trkpt>
      <trkpt lat="43.61511" lon="3.81641">
        <ele>37.1</ele>
        <time>2021-02-07T15:25:57Z</time>
      </trkpt>
      <trkpt lat="43.61512" lon="3.81646">
        <ele>36.9</ele>
        <time>2021-02-07T15:25:58Z</time>
      </trkpt>
      <trkpt lat="43.61514" lon="3.81651">
        <ele>36.6</ele>
        <time>2021-02-07T15:25:59Z</time>
      </trkpt>
      <trkpt lat="43.61515" lon="3.81655">
        <ele>36.3</ele>
        <time>2021-02-07T15:26:00Z</time>
      </trkpt>
      <trkpt lat="43.61516" lon="3.8166">
        <ele>36</ele>
        <time>2021-02-07T15:26:01Z</time>
      </trkpt>
      <trkpt lat="43.61518" lon="3.81665">
        <ele>35.5</ele>
        <time>2021-02-07T15:26:02Z</time>
      </trkpt>
      <trkpt lat="43.61519" lon="3.8167">
        <ele>35</ele>
        <time>2021-02-07T15:26:03Z</time>
      </trkpt>
      <trkpt lat="43.6152" lon="3.81674">
        <ele>34.6</ele>
        <time>2021-02-07T15:26:04Z</time>
      </trkpt>
      <trkpt lat="43.61522" lon="3.81679">
        <ele>34</ele>
        <time>2021-02-07T15:26:05Z</time>
      </trkpt>
      <trkpt lat="43.61523" lon="3.81684">
        <ele>33.6</ele>
        <time>2021-02-07T15:26:06Z</time>
      </trkpt>
      <trkpt lat="43.61525" lon="3.81689">
        <ele>43</ele>
        <time>2021-02-07T15:26:07Z</time>
      </trkpt>
      <trkpt lat="43.61526" lon="3.81694">
        <ele>33</ele>
        <time>2021-02-07T15:26:08Z</time>
      </trkpt>
      <trkpt lat="43.61527" lon="3.81699">
        <ele>32.8</ele>
        <time>2021-02-07T15:26:09Z</time>
      </trkpt>
      <trkpt lat="43.61528" lon="3.81703">
        <ele>32.7</ele>
        <time>2021-02-07T15:26:10Z</time>
      </trkpt>
      <trkpt lat="43.6153" lon="3.81708">
        <ele>32.6</ele>
        <time>2021-02-07T15:26:11Z</time>
      </trkpt>
      <trkpt lat="43.61531" lon="3.81712">
        <ele>32.4</ele>
        <time>2021-02-07T15:26:12Z</time>
      </trkpt>
      <trkpt lat="43.61532" lon="3.81716">
        <ele>32.3</ele>
        <time>2021-02-07T15:26:13Z</time>
      </trkpt>
      <trkpt lat="43.61534" lon="3.8172">
        <ele>32.3</ele>
        <time>2021-02-07T15:26:14Z</time>
      </trkpt>
      <trkpt lat="43.61536" lon="3.81723">
        <ele>32.4</ele>
        <time>2021-02-07T15:26:15Z</time>
      </trkpt>
      <trkpt lat="43.61538" lon="3.81727">
        <ele>42</ele>
        <time>2021-02-07T15:26:16Z</time>
      </trkpt>
      <trkpt lat="43.61538" lon="3.81729">
        <ele>33.4</ele>
        <time>2021-02-07T15:26:17Z</time>
      </trkpt>
      <trkpt lat="43.61539" lon="3.81733">
        <ele>33.9</ele>
        <time>2021-02-07T15:26:19Z</time>
      </trkpt>
      <trkpt lat="43.61539" lon="3.81736">
        <ele>34.4</ele>
        <time>2021-02-07T15:26:20Z</time>
      </trkpt>
      <trkpt lat="43.6154" lon="3.81739">
        <ele>34.7</ele>
        <time>2021-02-07T15:26:21Z</time>
      </trkpt>
      <trkpt lat="43.6154" lon="3.81741">
        <ele>35</ele>
        <time>2021-02-07T15:26:22Z</time>
      </trkpt>
      <trkpt lat="43.61541" lon="3.81744">
        <ele>35.3</ele>
        <time>2021-02-07T15:26:23Z</time>
      </trkpt>
      <trkpt lat="43.61541" lon="3.81748">
        <ele>35.8</ele>
        <time>2021-02-07T15:26:24Z</time>
      </trkpt>
      <trkpt lat="43.61542" lon="3.8175">
        <ele>36</ele>
        <time>2021-02-07T15:26:25Z</time>
      </trkpt>
      <trkpt lat="43.61543" lon="3.81753">
        <ele>42</ele>
        <time>2021-02-07T15:26:26Z</time>
      </trkpt>
      <trkpt lat="43.61544" lon="3.81756">
        <ele>35.8</ele>
        <time>2021-02-07T15:26:27Z</time>
      </trkpt>
      <trkpt lat="43.61545" lon="3.81759">
        <ele>35.7</ele>
        <time>2021-02-07T15:26:28Z</time>
      </trkpt>
      <trkpt lat="43.61546" lon="3.81763">
        <ele>35.7</ele>
        <time>2021-02-07T15:26:29Z</time>
      </trkpt>
      <trkpt lat="43.61547" lon="3.81767">
        <ele>35.7</ele>
        <time>2021-02-07T15:26:30Z</time>
      </trkpt>
      <trkpt lat="43.61547" lon="3.8177">
        <ele>35.7</ele>
        <time>2021-02-07T15:26:31Z</time>
      </trkpt>
      <trkpt lat="43.61548" lon="3.81774">
        <ele>35.7</ele>
        <time>2021-02-07T15:26:32Z</time>
      </trkpt>
      <trkpt lat="43.61549" lon="3.81778">
        <ele>35.7</ele>
        <time>2021-02-07T15:26:33Z</time>
      </trkpt>
      <trkpt lat="43.6155" lon="3.81781">
        <ele>35.8</ele>
        <time>2021-02-07T15:26:34Z</time>
      </trkpt>
      <trkpt lat="43.61551" lon="3.81785">
        <ele>35.9</ele>
        <time>2021-02-07T15:26:35Z</time>
      </trkpt>
      <trkpt lat="43.61552" lon="3.81788">
        <ele>41</ele>
        <time>2021-02-07T15:26:36Z</time>
      </trkpt>
      <trkpt lat="43.61553" lon="3.81792">
        <ele>36.2</ele>
        <time>2021-02-07T15:26:37Z</time>
      </trkpt>
      <trkpt lat="43.61554" lon="3.81796">
        <ele>36.4</ele>
        <time>2021-02-07T15:26:38Z</time>
      </trkpt>
      <trkpt lat="43.61555" lon="3.818">
        <ele>36.6</ele>
        <time>2021-02-07T15:26:39Z</time>
      </trkpt>
      <trkpt lat="43.61557" lon="3.81804">
        <ele>36.8</ele>
        <time>2021-02-07T15:26:40Z</time>
      </trkpt>
      <trkpt lat="43.61558" lon="3.81809">
        <ele>37</ele>
        <time>2021-02-07T15:26:41Z</time>
      </trkpt>
      <trkpt lat="43.61559" lon="3.81813">
        <ele>37.1</ele>
        <time>2021-02-07T15:26:42Z</time>
      </trkpt>
      <trkpt lat="43.6156" lon="3.81818">
        <ele>37.3</ele>
        <time>2021-02-07T15:26:43Z</time>
      </trkpt>
      <trkpt lat="43.61562" lon="3.81822">
        <ele>37.4</ele>
        <time>2021-02-07T15:26:44Z</time>
      </trkpt>
      <trkpt lat="43.61563" lon="3.81827">
        <ele>37.5</ele>
        <time>2021-02-07T15:26:45Z</time>
      </trkpt>
      <trkpt lat="43.61564" lon="3.81832">
        <ele>40</ele>
        <time>2021-02-07T15:26:46Z</time>
      </trkpt>
      <trkpt lat="43.61565" lon="3.81836">
        <ele>37.6</ele>
        <time>2021-02-07T15:26:47Z</time>
      </trkpt>
      <trkpt lat="43.61566" lon="3.81841">
        <ele>37.5</ele>
        <time>2021-02-07T15:26:48Z</time>
      </trkpt>
      <trkpt lat="43.61568" lon="3.81845">
        <ele>37.3</ele>
        <time>2021-02-07T15:26:49Z</time>
      </trkpt>
      <trkpt lat="43.61569" lon="3.81849">
        <ele>37.2</ele>
        <time>2021-02-07T15:26:50Z</time>
      </trkpt>
      <trkpt lat="43.6157" lon="3.81854">
        <ele>37.1</ele>
        <time>2021-02-07T15:26:51Z</time>
      </trkpt>
      <trkpt lat="43.61571" lon="3.81858">
        <ele>37</ele>
        <time>2021-02-07T15:26:52Z</time>
      </trkpt>
      <trkpt lat="43.61572" lon="3.81863">
        <ele>37.1</ele>
        <time>2021-02-07T15:26:53Z</time>
      </trkpt>
      <trkpt lat="43.61573" lon="3.81867">
        <ele>37.3</ele>
        <time>2021-02-07T15:26:54Z</time>
      </trkpt>
      <trkpt lat="43.61575" lon="3.81871">
        <ele>37.6</ele>
        <time>2021-02-07T15:26:55Z</time>
      </trkpt>
      <trkpt lat="43.61576" lon="3.81875">
        <ele>40</ele>
        <time>2021-02-07T15:26:56Z</time>
      </trkpt>
      <trkpt lat="43.61577" lon="3.81879">
        <ele>38.1</ele>
        <time>2021-02-07T15:26:57Z</time>
      </trkpt>
      <trkpt lat="43.61578" lon="3.81883">
        <ele>38.4</ele>
        <time>2021-02-07T15:26:58Z</time>
      </trkpt>
      <trkpt lat="43.61579" lon="3.81887">
        <ele>38.7</ele>
        <time>2021-02-07T15:26:59Z</time>
      </trkpt>
      <trkpt lat="43.6158" lon="3.81891">
        <ele>38.9</ele>
        <time>2021-02-07T15:27:00Z</time>
      </trkpt>
      <trkpt lat="43.61581" lon="3.81895">
        <ele>38.9</ele>
        <time>2021-02-07T15:27:01Z</time>
      </trkpt>
      <trkpt lat="43.61582" lon="3.81899">
        <ele>39</ele>
        <time>2021-02-07T15:27:02Z</time>
      </trkpt>
      <trkpt lat="43.61583" lon="3.81903">
        <ele>39</ele>
        <time>2021-02-07T15:27:03Z</time>
      </trkpt>
      <trkpt lat="43.61584" lon="3.81907">
        <ele>39</ele>
        <time>2021-02-07T15:27:04Z</time>
      </trkpt>
      <trkpt lat="43.61585" lon="3.8191">
        <ele>39</ele>
        <time>2021-02-07T15:27:05Z</time>
      </trkpt>
      <trkpt lat="43.61585" lon="3.81914">
        <ele>41</ele>
        <time>2021-02-07T15:27:06Z</time>
      </trkpt>
      <trkpt lat="43.61586" lon="3.81917">
        <ele>39</ele>
        <time>2021-02-07T15:27:07Z</time>
      </trkpt>
      <trkpt lat="43.61587" lon="3.81921">
        <ele>39</ele>
        <time>2021-02-07T15:27:08Z</time>
      </trkpt>
      <trkpt lat="43.61588" lon="3.81924">
        <ele>39</ele>
        <time>2021-02-07T15:27:09Z</time>
      </trkpt>
      <trkpt lat="43.61588" lon="3.81928">
        <ele>39.1</ele>
        <time>2021-02-07T15:27:10Z</time>
      </trkpt>
      <trkpt lat="43.61589" lon="3.81932">
        <ele>39.1</ele>
        <time>2021-02-07T15:27:11Z</time>
      </trkpt>
      <trkpt lat="43.6159" lon="3.81935">
        <ele>39.2</ele>
        <time>2021-02-07T15:27:12Z</time>
      </trkpt>
      <trkpt lat="43.61591" lon="3.81939">
        <ele>39.2</ele>
        <time>2021-02-07T15:27:13Z</time>
      </trkpt>
      <trkpt lat="43.61592" lon="3.81943">
        <ele>39.3</ele>
        <time>2021-02-07T15:27:14Z</time>
      </trkpt>
      <trkpt lat="43.61593" lon="3.81947">
        <ele>39.4</ele>
        <time>2021-02-07T15:27:15Z</time>
      </trkpt>
      <trkpt lat="43.61594" lon="3.8195">
        <ele>41</ele>
        <time>2021-02-07T15:27:16Z</time>
      </trkpt>
      <trkpt lat="43.61595" lon="3.81953">
        <ele>39.6</ele>
        <time>2021-02-07T15:27:17Z</time>
      </trkpt>
      <trkpt lat="43.61596" lon="3.81956">
        <ele>39.7</ele>
        <time>2021-02-07T15:27:18Z</time>
      </trkpt>
      <trkpt lat="43.61597" lon="3.81959">
        <ele>39.8</ele>
        <time>2021-02-07T15:27:19Z</time>
      </trkpt>
      <trkpt lat="43.61598" lon="3.81962">
        <ele>39.8</ele>
        <time>2021-02-07T15:27:20Z</time>
      </trkpt>
      <trkpt lat="43.61597" lon="3.81965">
        <ele>39.9</ele>
        <time>2021-02-07T15:27:21Z</time>
      </trkpt>
      <trkpt lat="43.61597" lon="3.81968">
        <ele>39.9</ele>
        <time>2021-02-07T15:27:22Z</time>
      </trkpt>
      <trkpt lat="43.61596" lon="3.8197">
        <ele>40</ele>
        <time>2021-02-07T15:27:23Z</time>
      </trkpt>
      <trkpt lat="43.61594" lon="3.81971">
        <ele>40</ele>
        <time>2021-02-07T15:27:24Z</time>
      </trkpt>
      <trkpt lat="43.61592" lon="3.81972">
        <ele>40</ele>
        <time>2021-02-07T15:27:25Z</time>
      </trkpt>
      <trkpt lat="43.61589" lon="3.81973">
        <ele>40</ele>
        <time>2021-02-07T15:27:27Z</time>
      </trkpt>
      <trkpt lat="43.61587" lon="3.81976">
        <ele>40</ele>
        <time>2021-02-07T15:27:29Z</time>
      </trkpt>
      <trkpt lat="43.61583" lon="3.81977">
        <ele>40</ele>
        <time>2021-02-07T15:27:31Z</time>
      </trkpt>
      <trkpt lat="43.61582" lon="3.81978">
        <ele>40</ele>
        <time>2021-02-07T15:27:32Z</time>
      </trkpt>
      <trkpt lat="43.61578" lon="3.81979">
        <ele>39.8</ele>
        <time>2021-02-07T15:27:34Z</time>
      </trkpt>
      <trkpt lat="43.61575" lon="3.81981">
        <ele>39.7</ele>
        <time>2021-02-07T15:27:36Z</time>
      </trkpt>
      <trkpt lat="43.61573" lon="3.81982">
        <ele>43</ele>
        <time>2021-02-07T15:27:37Z</time>
      </trkpt>
      <trkpt lat="43.61571" lon="3.81983">
        <ele>39.6</ele>
        <time>2021-02-07T15:27:38Z</time>
      </trkpt>
      <trkpt lat="43.6157" lon="3.81984">
        <ele>39.5</ele>
        <time>2021-02-07T15:27:39Z</time>
      </trkpt>
      <trkpt lat="43.61568" lon="3.81985">
        <ele>39.4</ele>
        <time>2021-02-07T15:27:40Z</time>
      </trkpt>
      <trkpt lat="43.61566" lon="3.81986">
        <ele>39.4</ele>
        <time>2021-02-07T15:27:41Z</time>
      </trkpt>
      <trkpt lat="43.61564" lon="3.81988">
        <ele>39.3</ele>
        <time>2021-02-07T15:27:42Z</time>
      </trkpt>
      <trkpt lat="43.61562" lon="3.8199">
        <ele>39.2</ele>
        <time>2021-02-07T15:27:43Z</time>
      </trkpt>
      <trkpt lat="43.6156" lon="3.81992">
        <ele>39.2</ele>
        <time>2021-02-07T15:27:44Z</time>
      </trkpt>
      <trkpt lat="43.61559" lon="3.81995">
        <ele>39.1</ele>
        <time>2021-02-07T15:27:45Z</time>
      </trkpt>
      <trkpt lat="43.61558" lon="3.81998">
        <ele>42</ele>
        <time>2021-02-07T15:27:46Z</time>
      </trkpt>
      <trkpt lat="43.61558" lon="3.82001">
        <ele>39.1</ele>
        <time>2021-02-07T15:27:47Z</time>
      </trkpt>
      <trkpt lat="43.61558" lon="3.82004">
        <ele>39.2</ele>
        <time>2021-02-07T15:27:48Z</time>
      </trkpt>
      <trkpt lat="43.61557" lon="3.82007">
        <ele>39.3</ele>
        <time>2021-02-07T15:27:49Z</time>
      </trkpt>
      <trkpt lat="43.61557" lon="3.8201">
        <ele>39.4</ele>
        <time>2021-02-07T15:27:50Z</time>
      </trkpt>
      <trkpt lat="43.61556" lon="3.82013">
        <ele>39.5</ele>
        <time>2021-02-07T15:27:51Z</time>
      </trkpt>
      <trkpt lat="43.61556" lon="3.82016">
        <ele>39.6</ele>
        <time>2021-02-07T15:27:52Z</time>
      </trkpt>
      <trkpt lat="43.61556" lon="3.82019">
        <ele>39.7</ele>
        <time>2021-02-07T15:27:53Z</time>
      </trkpt>
      <trkpt lat="43.61555" lon="3.82023">
        <ele>39.8</ele>
        <time>2021-02-07T15:27:54Z</time>
      </trkpt>
      <trkpt lat="43.61555" lon="3.82026">
        <ele>39.9</ele>
        <time>2021-02-07T15:27:55Z</time>
      </trkpt>
      <trkpt lat="43.61555" lon="3.82028">
        <ele>40</ele>
        <time>2021-02-07T15:27:56Z</time>
      </trkpt>
      <trkpt lat="43.61556" lon="3.82031">
        <ele>42</ele>
        <time>2021-02-07T15:27:57Z</time>
      </trkpt>
      <trkpt lat="43.61557" lon="3.82033">
        <ele>40.5</ele>
        <time>2021-02-07T15:27:58Z</time>
      </trkpt>
      <trkpt lat="43.61558" lon="3.82036">
        <ele>40.9</ele>
        <time>2021-02-07T15:27:59Z</time>
      </trkpt>
      <trkpt lat="43.61559" lon="3.82039">
        <ele>41.3</ele>
        <time>2021-02-07T15:28:00Z</time>
      </trkpt>
      <trkpt lat="43.61559" lon="3.82042">
        <ele>41.5</ele>
        <time>2021-02-07T15:28:01Z</time>
      </trkpt>
      <trkpt lat="43.6156" lon="3.82045">
        <ele>42</ele>
        <time>2021-02-07T15:28:02Z</time>
      </trkpt>
      <trkpt lat="43.6156" lon="3.82049">
        <ele>42.3</ele>
        <time>2021-02-07T15:28:03Z</time>
      </trkpt>
      <trkpt lat="43.6156" lon="3.82052">
        <ele>42.6</ele>
        <time>2021-02-07T15:28:04Z</time>
      </trkpt>
      <trkpt lat="43.61559" lon="3.82055">
        <ele>42.7</ele>
        <time>2021-02-07T15:28:05Z</time>
      </trkpt>
      <trkpt lat="43.61559" lon="3.82057">
        <ele>42</ele>
        <time>2021-02-07T15:28:06Z</time>
      </trkpt>
      <trkpt lat="43.61559" lon="3.82062">
        <ele>43.3</ele>
        <time>2021-02-07T15:28:08Z</time>
      </trkpt>
      <trkpt lat="43.61558" lon="3.82066">
        <ele>43.5</ele>
        <time>2021-02-07T15:28:10Z</time>
      </trkpt>
      <trkpt lat="43.61557" lon="3.8207">
        <ele>43.8</ele>
        <time>2021-02-07T15:28:12Z</time>
      </trkpt>
      <trkpt lat="43.61556" lon="3.82074">
        <ele>44</ele>
        <time>2021-02-07T15:28:14Z</time>
      </trkpt>
      <trkpt lat="43.61556" lon="3.82077">
        <ele>44.4</ele>
        <time>2021-02-07T15:28:15Z</time>
      </trkpt>
      <trkpt lat="43.61554" lon="3.82078">
        <ele>44.3</ele>
        <time>2021-02-07T15:28:16Z</time>
      </trkpt>
      <trkpt lat="43.61552" lon="3.82085">
        <ele>44.5</ele>
        <time>2021-02-07T15:28:18Z</time>
      </trkpt>
      <trkpt lat="43.61553" lon="3.82101">
        <ele>43</ele>
        <time>2021-02-07T15:28:21Z</time>
      </trkpt>
      <trkpt lat="43.61553" lon="3.82106">
        <ele>42.5</ele>
        <time>2021-02-07T15:28:22Z</time>
      </trkpt>
      <trkpt lat="43.61554" lon="3.8211">
        <ele>42.1</ele>
        <time>2021-02-07T15:28:23Z</time>
      </trkpt>
      <trkpt lat="43.61553" lon="3.82117">
        <ele>42</ele>
        <time>2021-02-07T15:28:25Z</time>
      </trkpt>
      <trkpt lat="43.61552" lon="3.82121">
        <ele>42</ele>
        <time>2021-02-07T15:28:26Z</time>
      </trkpt>
      <trkpt lat="43.61552" lon="3.82124">
        <ele>42</ele>
        <time>2021-02-07T15:28:27Z</time>
      </trkpt>
      <trkpt lat="43.61551" lon="3.82128">
        <ele>42</ele>
        <time>2021-02-07T15:28:28Z</time>
      </trkpt>
      <trkpt lat="43.6155" lon="3.82131">
        <ele>42</ele>
        <time>2021-02-07T15:28:29Z</time>
      </trkpt>
      <trkpt lat="43.61549" lon="3.82135">
        <ele>42</ele>
        <time>2021-02-07T15:28:30Z</time>
      </trkpt>
      <trkpt lat="43.61549" lon="3.82138">
        <ele>42</ele>
        <time>2021-02-07T15:28:31Z</time>
      </trkpt>
      <trkpt lat="43.61548" lon="3.8214">
        <ele>42</ele>
        <time>2021-02-07T15:28:32Z</time>
      </trkpt>
      <trkpt lat="43.61546" lon="3.82143">
        <ele>42.1</ele>
        <time>2021-02-07T15:28:34Z</time>
      </trkpt>
      <trkpt lat="43.61546" lon="3.82146">
        <ele>42.3</ele>
        <time>2021-02-07T15:28:35Z</time>
      </trkpt>
      <trkpt lat="43.61545" lon="3.82149">
        <ele>44</ele>
        <time>2021-02-07T15:28:36Z</time>
      </trkpt>
      <trkpt lat="43.61546" lon="3.82151">
        <ele>42.4</ele>
        <time>2021-02-07T15:28:37Z</time>
      </trkpt>
      <trkpt lat="43.61546" lon="3.82154">
        <ele>42.5</ele>
        <time>2021-02-07T15:28:38Z</time>
      </trkpt>
      <trkpt lat="43.61547" lon="3.82158">
        <ele>42.7</ele>
        <time>2021-02-07T15:28:40Z</time>
      </trkpt>
      <trkpt lat="43.61548" lon="3.82163">
        <ele>42.9</ele>
        <time>2021-02-07T15:28:42Z</time>
      </trkpt>
      <trkpt lat="43.61548" lon="3.82166">
        <ele>43</ele>
        <time>2021-02-07T15:28:43Z</time>
      </trkpt>
      <trkpt lat="43.61547" lon="3.82169">
        <ele>43.2</ele>
        <time>2021-02-07T15:28:44Z</time>
      </trkpt>
      <trkpt lat="43.61547" lon="3.82172">
        <ele>43.5</ele>
        <time>2021-02-07T15:28:45Z</time>
      </trkpt>
      <trkpt lat="43.61546" lon="3.82175">
        <ele>45</ele>
        <time>2021-02-07T15:28:46Z</time>
      </trkpt>
      <trkpt lat="43.61544" lon="3.82178">
        <ele>43.9</ele>
        <time>2021-02-07T15:28:47Z</time>
      </trkpt>
      <trkpt lat="43.61544" lon="3.82181">
        <ele>44.1</ele>
        <time>2021-02-07T15:28:48Z</time>
      </trkpt>
      <trkpt lat="43.61543" lon="3.82184">
        <ele>44.3</ele>
        <time>2021-02-07T15:28:49Z</time>
      </trkpt>
      <trkpt lat="43.61542" lon="3.82188">
        <ele>44.6</ele>
        <time>2021-02-07T15:28:50Z</time>
      </trkpt>
      <trkpt lat="43.61541" lon="3.82191">
        <ele>44.7</ele>
        <time>2021-02-07T15:28:51Z</time>
      </trkpt>
      <trkpt lat="43.61541" lon="3.82195">
        <ele>45</ele>
        <time>2021-02-07T15:28:52Z</time>
      </trkpt>
      <trkpt lat="43.6154" lon="3.82198">
        <ele>45</ele>
        <time>2021-02-07T15:28:53Z</time>
      </trkpt>
      <trkpt lat="43.61539" lon="3.82202">
        <ele>45</ele>
        <time>2021-02-07T15:28:54Z</time>
      </trkpt>
      <trkpt lat="43.61538" lon="3.82205">
        <ele>45</ele>
        <time>2021-02-07T15:28:55Z</time>
      </trkpt>
      <trkpt lat="43.61537" lon="3.82208">
        <ele>46</ele>
        <time>2021-02-07T15:28:56Z</time>
      </trkpt>
      <trkpt lat="43.61536" lon="3.82211">
        <ele>45</ele>
        <time>2021-02-07T15:28:57Z</time>
      </trkpt>
      <trkpt lat="43.61535" lon="3.82214">
        <ele>45</ele>
        <time>2021-02-07T15:28:58Z</time>
      </trkpt>
      <trkpt lat="43.61535" lon="3.82217">
        <ele>45.1</ele>
        <time>2021-02-07T15:28:59Z</time>
      </trkpt>
      <trkpt lat="43.61534" lon="3.8222">
        <ele>45.2</ele>
        <time>2021-02-07T15:29:00Z</time>
      </trkpt>
      <trkpt lat="43.61532" lon="3.82223">
        <ele>45.2</ele>
        <time>2021-02-07T15:29:01Z</time>
      </trkpt>
      <trkpt lat="43.61532" lon="3.82226">
        <ele>45.3</ele>
        <time>2021-02-07T15:29:02Z</time>
      </trkpt>
      <trkpt lat="43.61531" lon="3.82228">
        <ele>45.3</ele>
        <time>2021-02-07T15:29:03Z</time>
      </trkpt>
      <trkpt lat="43.6153" lon="3.82231">
        <ele>45.4</ele>
        <time>2021-02-07T15:29:04Z</time>
      </trkpt>
      <trkpt lat="43.61529" lon="3.82234">
        <ele>45.4</ele>
        <time>2021-02-07T15:29:05Z</time>
      </trkpt>
      <trkpt lat="43.61529" lon="3.82237">
        <ele>46</ele>
        <time>2021-02-07T15:29:06Z</time>
      </trkpt>
      <trkpt lat="43.61528" lon="3.82241">
        <ele>45.7</ele>
        <time>2021-02-07T15:29:07Z</time>
      </trkpt>
      <trkpt lat="43.61528" lon="3.82244">
        <ele>45.8</ele>
        <time>2021-02-07T15:29:08Z</time>
      </trkpt>
      <trkpt lat="43.61528" lon="3.82247">
        <ele>45.9</ele>
        <time>2021-02-07T15:29:09Z</time>
      </trkpt>
      <trkpt lat="43.61527" lon="3.8225">
        <ele>46</ele>
        <time>2021-02-07T15:29:10Z</time>
      </trkpt>
      <trkpt lat="43.61527" lon="3.82253">
        <ele>46.1</ele>
        <time>2021-02-07T15:29:11Z</time>
      </trkpt>
      <trkpt lat="43.61527" lon="3.82256">
        <ele>46.2</ele>
        <time>2021-02-07T15:29:12Z</time>
      </trkpt>
      <trkpt lat="43.61527" lon="3.82259">
        <ele>46.3</ele>
        <time>2021-02-07T15:29:13Z</time>
      </trkpt>
      <trkpt lat="43.61527" lon="3.82262">
        <ele>46.4</ele>
        <time>2021-02-07T15:29:14Z</time>
      </trkpt>
      <trkpt lat="43.61527" lon="3.82264">
        <ele>46.5</ele>
        <time>2021-02-07T15:29:15Z</time>
      </trkpt>
      <trkpt lat="43.61526" lon="3.82267">
        <ele>48</ele>
        <time>2021-02-07T15:29:16Z</time>
      </trkpt>
      <trkpt lat="43.61526" lon="3.8227">
        <ele>46.7</ele>
        <time>2021-02-07T15:29:17Z</time>
      </trkpt>
      <trkpt lat="43.61525" lon="3.82274">
        <ele>46.8</ele>
        <time>2021-02-07T15:29:18Z</time>
      </trkpt>
      <trkpt lat="43.61525" lon="3.82277">
        <ele>46.9</ele>
        <time>2021-02-07T15:29:19Z</time>
      </trkpt>
      <trkpt lat="43.61525" lon="3.8228">
        <ele>46.9</ele>
        <time>2021-02-07T15:29:20Z</time>
      </trkpt>
      <trkpt lat="43.61524" lon="3.82283">
        <ele>46.9</ele>
        <time>2021-02-07T15:29:21Z</time>
      </trkpt>
      <trkpt lat="43.61524" lon="3.82286">
        <ele>46.9</ele>
        <time>2021-02-07T15:29:22Z</time>
      </trkpt>
      <trkpt lat="43.61523" lon="3.82289">
        <ele>46.9</ele>
        <time>2021-02-07T15:29:23Z</time>
      </trkpt>
      <trkpt lat="43.61523" lon="3.82293">
        <ele>46.9</ele>
        <time>2021-02-07T15:29:24Z</time>
      </trkpt>
      <trkpt lat="43.61523" lon="3.82296">
        <ele>46.9</ele>
        <time>2021-02-07T15:29:25Z</time>
      </trkpt>
      <trkpt lat="43.61522" lon="3.82299">
        <ele>47</ele>
        <time>2021-02-07T15:29:26Z</time>
      </trkpt>
      <trkpt lat="43.61522" lon="3.82302">
        <ele>49</ele>
        <time>2021-02-07T15:29:27Z</time>
      </trkpt>
      <trkpt lat="43.61522" lon="3.82306">
        <ele>47</ele>
        <time>2021-02-07T15:29:28Z</time>
      </trkpt>
      <trkpt lat="43.61521" lon="3.82309">
        <ele>47.1</ele>
        <time>2021-02-07T15:29:29Z</time>
      </trkpt>
      <trkpt lat="43.61521" lon="3.82312">
        <ele>47.2</ele>
        <time>2021-02-07T15:29:30Z</time>
      </trkpt>
      <trkpt lat="43.6152" lon="3.82315">
        <ele>47.3</ele>
        <time>2021-02-07T15:29:31Z</time>
      </trkpt>
      <trkpt lat="43.6152" lon="3.82318">
        <ele>47.4</ele>
        <time>2021-02-07T15:29:32Z</time>
      </trkpt>
      <trkpt lat="43.61519" lon="3.82321">
        <ele>47.6</ele>
        <time>2021-02-07T15:29:33Z</time>
      </trkpt>
      <trkpt lat="43.61519" lon="3.82324">
        <ele>47.7</ele>
        <time>2021-02-07T15:29:34Z</time>
      </trkpt>
      <trkpt lat="43.61519" lon="3.82327">
        <ele>47.8</ele>
        <time>2021-02-07T15:29:35Z</time>
      </trkpt>
      <trkpt lat="43.61518" lon="3.8233">
        <ele>47.9</ele>
        <time>2021-02-07T15:29:36Z</time>
      </trkpt>
      <trkpt lat="43.61518" lon="3.82333">
        <ele>50</ele>
        <time>2021-02-07T15:29:37Z</time>
      </trkpt>
      <trkpt lat="43.61518" lon="3.82336">
        <ele>48.2</ele>
        <time>2021-02-07T15:29:38Z</time>
      </trkpt>
      <trkpt lat="43.61518" lon="3.82339">
        <ele>48.5</ele>
        <time>2021-02-07T15:29:39Z</time>
      </trkpt>
      <trkpt lat="43.61517" lon="3.82342">
        <ele>48.7</ele>
        <time>2021-02-07T15:29:40Z</time>
      </trkpt>
      <trkpt lat="43.61517" lon="3.82345">
        <ele>48.9</ele>
        <time>2021-02-07T15:29:41Z</time>
      </trkpt>
      <trkpt lat="43.61517" lon="3.82348">
        <ele>49.2</ele>
        <time>2021-02-07T15:29:42Z</time>
      </trkpt>
      <trkpt lat="43.61516" lon="3.82351">
        <ele>49.4</ele>
        <time>2021-02-07T15:29:43Z</time>
      </trkpt>
      <trkpt lat="43.61516" lon="3.82354">
        <ele>49.6</ele>
        <time>2021-02-07T15:29:44Z</time>
      </trkpt>
      <trkpt lat="43.61515" lon="3.82357">
        <ele>49.8</ele>
        <time>2021-02-07T15:29:45Z</time>
      </trkpt>
      <trkpt lat="43.61515" lon="3.8236">
        <ele>51</ele>
        <time>2021-02-07T15:29:46Z</time>
      </trkpt>
      <trkpt lat="43.61515" lon="3.82363">
        <ele>50.1</ele>
        <time>2021-02-07T15:29:47Z</time>
      </trkpt>
      <trkpt lat="43.61515" lon="3.82365">
        <ele>50.1</ele>
        <time>2021-02-07T15:29:48Z</time>
      </trkpt>
      <trkpt lat="43.61514" lon="3.82368">
        <ele>50.1</ele>
        <time>2021-02-07T15:29:49Z</time>
      </trkpt>
      <trkpt lat="43.61514" lon="3.82371">
        <ele>50.2</ele>
        <time>2021-02-07T15:29:50Z</time>
      </trkpt>
      <trkpt lat="43.61514" lon="3.82374">
        <ele>50.2</ele>
        <time>2021-02-07T15:29:51Z</time>
      </trkpt>
      <trkpt lat="43.61513" lon="3.82376">
        <ele>50.2</ele>
        <time>2021-02-07T15:29:52Z</time>
      </trkpt>
      <trkpt lat="43.61513" lon="3.82379">
        <ele>50.3</ele>
        <time>2021-02-07T15:29:53Z</time>
      </trkpt>
      <trkpt lat="43.61512" lon="3.82381">
        <ele>50.3</ele>
        <time>2021-02-07T15:29:54Z</time>
      </trkpt>
      <trkpt lat="43.61512" lon="3.82384">
        <ele>50.3</ele>
        <time>2021-02-07T15:29:55Z</time>
      </trkpt>
      <trkpt lat="43.61512" lon="3.82387">
        <ele>52</ele>
        <time>2021-02-07T15:29:56Z</time>
      </trkpt>
      <trkpt lat="43.61511" lon="3.82389">
        <ele>50.4</ele>
        <time>2021-02-07T15:29:57Z</time>
      </trkpt>
      <trkpt lat="43.61511" lon="3.82392">
        <ele>50.4</ele>
        <time>2021-02-07T15:29:58Z</time>
      </trkpt>
      <trkpt lat="43.61511" lon="3.82395">
        <ele>50.4</ele>
        <time>2021-02-07T15:29:59Z</time>
      </trkpt>
      <trkpt lat="43.6151" lon="3.82397">
        <ele>50.4</ele>
        <time>2021-02-07T15:30:00Z</time>
      </trkpt>
      <trkpt lat="43.6151" lon="3.824">
        <ele>50.4</ele>
        <time>2021-02-07T15:30:01Z</time>
      </trkpt>
      <trkpt lat="43.6151" lon="3.82403">
        <ele>50.4</ele>
        <time>2021-02-07T15:30:02Z</time>
      </trkpt>
      <trkpt lat="43.61509" lon="3.82405">
        <ele>50.3</ele>
        <time>2021-02-07T15:30:03Z</time>
      </trkpt>
      <trkpt lat="43.61509" lon="3.82408">
        <ele>50.3</ele>
        <time>2021-02-07T15:30:04Z</time>
      </trkpt>
      <trkpt lat="43.61509" lon="3.82411">
        <ele>50.3</ele>
        <time>2021-02-07T15:30:05Z</time>
      </trkpt>
      <trkpt lat="43.61509" lon="3.82414">
        <ele>53</ele>
        <time>2021-02-07T15:30:06Z</time>
      </trkpt>
      <trkpt lat="43.61509" lon="3.82417">
        <ele>50.4</ele>
        <time>2021-02-07T15:30:07Z</time>
      </trkpt>
      <trkpt lat="43.61508" lon="3.8242">
        <ele>50.6</ele>
        <time>2021-02-07T15:30:08Z</time>
      </trkpt>
      <trkpt lat="43.61508" lon="3.82423">
        <ele>50.8</ele>
        <time>2021-02-07T15:30:09Z</time>
      </trkpt>
      <trkpt lat="43.61508" lon="3.82428">
        <ele>51.2</ele>
        <time>2021-02-07T15:30:11Z</time>
      </trkpt>
      <trkpt lat="43.61508" lon="3.82433">
        <ele>51.6</ele>
        <time>2021-02-07T15:30:13Z</time>
      </trkpt>
      <trkpt lat="43.61507" lon="3.82437">
        <ele>51.9</ele>
        <time>2021-02-07T15:30:15Z</time>
      </trkpt>
      <trkpt lat="43.61507" lon="3.82442">
        <ele>52.3</ele>
        <time>2021-02-07T15:30:17Z</time>
      </trkpt>
      <trkpt lat="43.61507" lon="3.82444">
        <ele>52.5</ele>
        <time>2021-02-07T15:30:18Z</time>
      </trkpt>
      <trkpt lat="43.61507" lon="3.82447">
        <ele>52.6</ele>
        <time>2021-02-07T15:30:19Z</time>
      </trkpt>
      <trkpt lat="43.61506" lon="3.82452">
        <ele>52.7</ele>
        <time>2021-02-07T15:30:21Z</time>
      </trkpt>
      <trkpt lat="43.61506" lon="3.82456">
        <ele>52.8</ele>
        <time>2021-02-07T15:30:23Z</time>
      </trkpt>
      <trkpt lat="43.61506" lon="3.82461">
        <ele>53</ele>
        <time>2021-02-07T15:30:25Z</time>
      </trkpt>
      <trkpt lat="43.61506" lon="3.82465">
        <ele>53.2</ele>
        <time>2021-02-07T15:30:27Z</time>
      </trkpt>
      <trkpt lat="43.61505" lon="3.82469">
        <ele>53.2</ele>
        <time>2021-02-07T15:30:29Z</time>
      </trkpt>
      <trkpt lat="43.61505" lon="3.82474">
        <ele>53.4</ele>
        <time>2021-02-07T15:30:31Z</time>
      </trkpt>
      <trkpt lat="43.61505" lon="3.82476">
        <ele>53.5</ele>
        <time>2021-02-07T15:30:32Z</time>
      </trkpt>
      <trkpt lat="43.61505" lon="3.82481">
        <ele>53.7</ele>
        <time>2021-02-07T15:30:34Z</time>
      </trkpt>
      <trkpt lat="43.61505" lon="3.82486">
        <ele>58</ele>
        <time>2021-02-07T15:30:36Z</time>
      </trkpt>
      <trkpt lat="43.61505" lon="3.8249">
        <ele>54</ele>
        <time>2021-02-07T15:30:38Z</time>
      </trkpt>
      <trkpt lat="43.61505" lon="3.82495">
        <ele>54.2</ele>
        <time>2021-02-07T15:30:40Z</time>
      </trkpt>
      <trkpt lat="43.61505" lon="3.82499">
        <ele>54.3</ele>
        <time>2021-02-07T15:30:42Z</time>
      </trkpt>
      <trkpt lat="43.61505" lon="3.82504">
        <ele>54.3</ele>
        <time>2021-02-07T15:30:44Z</time>
      </trkpt>
      <trkpt lat="43.61506" lon="3.82509">
        <ele>58</ele>
        <time>2021-02-07T15:30:46Z</time>
      </trkpt>
      <trkpt lat="43.61506" lon="3.82511">
        <ele>54.3</ele>
        <time>2021-02-07T15:30:47Z</time>
      </trkpt>
      <trkpt lat="43.61506" lon="3.82514">
        <ele>54.3</ele>
        <time>2021-02-07T15:30:48Z</time>
      </trkpt>
      <trkpt lat="43.61506" lon="3.82519">
        <ele>54.3</ele>
        <time>2021-02-07T15:30:50Z</time>
      </trkpt>
      <trkpt lat="43.61506" lon="3.82522">
        <ele>54.3</ele>
        <time>2021-02-07T15:30:51Z</time>
      </trkpt>
      <trkpt lat="43.61506" lon="3.82524">
        <ele>54.2</ele>
        <time>2021-02-07T15:30:52Z</time>
      </trkpt>
      <trkpt lat="43.61506" lon="3.82527">
        <ele>54.2</ele>
        <time>2021-02-07T15:30:53Z</time>
      </trkpt>
      <trkpt lat="43.61506" lon="3.8253">
        <ele>54.4</ele>
        <time>2021-02-07T15:30:54Z</time>
      </trkpt>
      <trkpt lat="43.61506" lon="3.82533">
        <ele>54.6</ele>
        <time>2021-02-07T15:30:55Z</time>
      </trkpt>
      <trkpt lat="43.61506" lon="3.82535">
        <ele>59</ele>
        <time>2021-02-07T15:30:56Z</time>
      </trkpt>
      <trkpt lat="43.61507" lon="3.82538">
        <ele>55.1</ele>
        <time>2021-02-07T15:30:57Z</time>
      </trkpt>
      <trkpt lat="43.61507" lon="3.8254">
        <ele>55.2</ele>
        <time>2021-02-07T15:30:58Z</time>
      </trkpt>
      <trkpt lat="43.61507" lon="3.82543">
        <ele>55.5</ele>
        <time>2021-02-07T15:30:59Z</time>
      </trkpt>
      <trkpt lat="43.61507" lon="3.82545">
        <ele>55.6</ele>
        <time>2021-02-07T15:31:00Z</time>
      </trkpt>
      <trkpt lat="43.61508" lon="3.8255">
        <ele>56.1</ele>
        <time>2021-02-07T15:31:02Z</time>
      </trkpt>
      <trkpt lat="43.61508" lon="3.82554">
        <ele>56.4</ele>
        <time>2021-02-07T15:31:04Z</time>
      </trkpt>
      <trkpt lat="43.61508" lon="3.82559">
        <ele>56.6</ele>
        <time>2021-02-07T15:31:06Z</time>
      </trkpt>
      <trkpt lat="43.61509" lon="3.82563">
        <ele>56.6</ele>
        <time>2021-02-07T15:31:08Z</time>
      </trkpt>
      <trkpt lat="43.6151" lon="3.82567">
        <ele>56.7</ele>
        <time>2021-02-07T15:31:10Z</time>
      </trkpt>
      <trkpt lat="43.6151" lon="3.8257">
        <ele>56.7</ele>
        <time>2021-02-07T15:31:12Z</time>
      </trkpt>
      <trkpt lat="43.61511" lon="3.82573">
        <ele>56.8</ele>
        <time>2021-02-07T15:31:14Z</time>
      </trkpt>
      <trkpt lat="43.61511" lon="3.82573">
        <ele>60</ele>
        <time>2021-02-07T15:31:18Z</time>
      </trkpt>
      <trkpt lat="43.61508" lon="3.82585">
        <ele>60</ele>
        <time>2021-02-07T15:31:50Z</time>
      </trkpt>
      <trkpt lat="43.61507" lon="3.82589">
        <ele>56.7</ele>
        <time>2021-02-07T15:31:51Z</time>
      </trkpt>
      <trkpt lat="43.61507" lon="3.82593">
        <ele>56.8</ele>
        <time>2021-02-07T15:31:52Z</time>
      </trkpt>
      <trkpt lat="43.61506" lon="3.82596">
        <ele>56.8</ele>
        <time>2021-02-07T15:31:53Z</time>
      </trkpt>
      <trkpt lat="43.61504" lon="3.826">
        <ele>56.8</ele>
        <time>2021-02-07T15:31:54Z</time>
      </trkpt>
      <trkpt lat="43.61503" lon="3.82603">
        <ele>56.8</ele>
        <time>2021-02-07T15:31:55Z</time>
      </trkpt>
      <trkpt lat="43.61501" lon="3.82605">
        <ele>56.8</ele>
        <time>2021-02-07T15:31:56Z</time>
      </trkpt>
      <trkpt lat="43.615" lon="3.82607">
        <ele>56.9</ele>
        <time>2021-02-07T15:31:57Z</time>
      </trkpt>
      <trkpt lat="43.61498" lon="3.8261">
        <ele>56.9</ele>
        <time>2021-02-07T15:31:58Z</time>
      </trkpt>
      <trkpt lat="43.61497" lon="3.82614">
        <ele>61</ele>
        <time>2021-02-07T15:31:59Z</time>
      </trkpt>
      <trkpt lat="43.61495" lon="3.8262">
        <ele>56.9</ele>
        <time>2021-02-07T15:32:00Z</time>
      </trkpt>
      <trkpt lat="43.61494" lon="3.82625">
        <ele>56.9</ele>
        <time>2021-02-07T15:32:01Z</time>
      </trkpt>
      <trkpt lat="43.61493" lon="3.82631">
        <ele>56.9</ele>
        <time>2021-02-07T15:32:02Z</time>
      </trkpt>
      <trkpt lat="43.61492" lon="3.82636">
        <ele>57</ele>
        <time>2021-02-07T15:32:03Z</time>
      </trkpt>
      <trkpt lat="43.61492" lon="3.82641">
        <ele>57.1</ele>
        <time>2021-02-07T15:32:04Z</time>
      </trkpt>
      <trkpt lat="43.61491" lon="3.82646">
        <ele>57.2</ele>
        <time>2021-02-07T15:32:05Z</time>
      </trkpt>
      <trkpt lat="43.61491" lon="3.8265">
        <ele>57.3</ele>
        <time>2021-02-07T15:32:06Z</time>
      </trkpt>
      <trkpt lat="43.6149" lon="3.82654">
        <ele>57.3</ele>
        <time>2021-02-07T15:32:07Z</time>
      </trkpt>
      <trkpt lat="43.6149" lon="3.82658">
        <ele>57.4</ele>
        <time>2021-02-07T15:32:08Z</time>
      </trkpt>
      <trkpt lat="43.6149" lon="3.82662">
        <ele>57.5</ele>
        <time>2021-02-07T15:32:09Z</time>
      </trkpt>
      <trkpt lat="43.61489" lon="3.82666">
        <ele>62</ele>
        <time>2021-02-07T15:32:10Z</time>
      </trkpt>
      <trkpt lat="43.61489" lon="3.8267">
        <ele>57.7</ele>
        <time>2021-02-07T15:32:11Z</time>
      </trkpt>
      <trkpt lat="43.61489" lon="3.82674">
        <ele>57.9</ele>
        <time>2021-02-07T15:32:12Z</time>
      </trkpt>
      <trkpt lat="43.61488" lon="3.82678">
        <ele>58</ele>
        <time>2021-02-07T15:32:13Z</time>
      </trkpt>
      <trkpt lat="43.61488" lon="3.82682">
        <ele>58.1</ele>
        <time>2021-02-07T15:32:14Z</time>
      </trkpt>
      <trkpt lat="43.61487" lon="3.82685">
        <ele>58.2</ele>
        <time>2021-02-07T15:32:15Z</time>
      </trkpt>
      <trkpt lat="43.61486" lon="3.82689">
        <ele>58.3</ele>
        <time>2021-02-07T15:32:16Z</time>
      </trkpt>
      <trkpt lat="43.61485" lon="3.82693">
        <ele>58.4</ele>
        <time>2021-02-07T15:32:17Z</time>
      </trkpt>
      <trkpt lat="43.61484" lon="3.82697">
        <ele>58.5</ele>
        <time>2021-02-07T15:32:18Z</time>
      </trkpt>
      <trkpt lat="43.61484" lon="3.827">
        <ele>62</ele>
        <time>2021-02-07T15:32:19Z</time>
      </trkpt>
      <trkpt lat="43.61484" lon="3.82704">
        <ele>58.6</ele>
        <time>2021-02-07T15:32:20Z</time>
      </trkpt>
      <trkpt lat="43.61483" lon="3.82708">
        <ele>58.7</ele>
        <time>2021-02-07T15:32:21Z</time>
      </trkpt>
      <trkpt lat="43.61482" lon="3.82712">
        <ele>58.8</ele>
        <time>2021-02-07T15:32:22Z</time>
      </trkpt>
      <trkpt lat="43.61482" lon="3.82715">
        <ele>58.8</ele>
        <time>2021-02-07T15:32:23Z</time>
      </trkpt>
      <trkpt lat="43.61481" lon="3.82719">
        <ele>58.9</ele>
        <time>2021-02-07T15:32:24Z</time>
      </trkpt>
      <trkpt lat="43.6148" lon="3.82722">
        <ele>59</ele>
        <time>2021-02-07T15:32:25Z</time>
      </trkpt>
      <trkpt lat="43.6148" lon="3.82726">
        <ele>59.1</ele>
        <time>2021-02-07T15:32:26Z</time>
      </trkpt>
      <trkpt lat="43.61479" lon="3.82729">
        <ele>59.2</ele>
        <time>2021-02-07T15:32:27Z</time>
      </trkpt>
      <trkpt lat="43.61478" lon="3.82733">
        <ele>59.4</ele>
        <time>2021-02-07T15:32:28Z</time>
      </trkpt>
      <trkpt lat="43.61478" lon="3.82736">
        <ele>64</ele>
        <time>2021-02-07T15:32:29Z</time>
      </trkpt>
      <trkpt lat="43.61478" lon="3.8274">
        <ele>59.6</ele>
        <time>2021-02-07T15:32:30Z</time>
      </trkpt>
      <trkpt lat="43.61477" lon="3.82743">
        <ele>59.7</ele>
        <time>2021-02-07T15:32:31Z</time>
      </trkpt>
      <trkpt lat="43.61477" lon="3.82746">
        <ele>59.9</ele>
        <time>2021-02-07T15:32:32Z</time>
      </trkpt>
      <trkpt lat="43.61476" lon="3.8275">
        <ele>60</ele>
        <time>2021-02-07T15:32:33Z</time>
      </trkpt>
      <trkpt lat="43.61475" lon="3.82753">
        <ele>60</ele>
        <time>2021-02-07T15:32:34Z</time>
      </trkpt>
      <trkpt lat="43.61474" lon="3.82757">
        <ele>60</ele>
        <time>2021-02-07T15:32:35Z</time>
      </trkpt>
      <trkpt lat="43.61473" lon="3.8276">
        <ele>60</ele>
        <time>2021-02-07T15:32:36Z</time>
      </trkpt>
      <trkpt lat="43.61472" lon="3.82763">
        <ele>60</ele>
        <time>2021-02-07T15:32:37Z</time>
      </trkpt>
      <trkpt lat="43.61472" lon="3.82766">
        <ele>60</ele>
        <time>2021-02-07T15:32:38Z</time>
      </trkpt>
      <trkpt lat="43.61471" lon="3.82769">
        <ele>65</ele>
        <time>2021-02-07T15:32:39Z</time>
      </trkpt>
      <trkpt lat="43.6147" lon="3.82772">
        <ele>60.1</ele>
        <time>2021-02-07T15:32:40Z</time>
      </trkpt>
      <trkpt lat="43.6147" lon="3.82776">
        <ele>60.1</ele>
        <time>2021-02-07T15:32:41Z</time>
      </trkpt>
      <trkpt lat="43.61469" lon="3.82778">
        <ele>60.1</ele>
        <time>2021-02-07T15:32:42Z</time>
      </trkpt>
      <trkpt lat="43.61468" lon="3.82781">
        <ele>60.3</ele>
        <time>2021-02-07T15:32:43Z</time>
      </trkpt>
      <trkpt lat="43.61468" lon="3.82784">
        <ele>60.3</ele>
        <time>2021-02-07T15:32:44Z</time>
      </trkpt>
      <trkpt lat="43.61468" lon="3.82787">
        <ele>60.4</ele>
        <time>2021-02-07T15:32:45Z</time>
      </trkpt>
      <trkpt lat="43.61467" lon="3.8279">
        <ele>60.5</ele>
        <time>2021-02-07T15:32:46Z</time>
      </trkpt>
      <trkpt lat="43.61466" lon="3.82793">
        <ele>60.6</ele>
        <time>2021-02-07T15:32:47Z</time>
      </trkpt>
      <trkpt lat="43.61466" lon="3.82796">
        <ele>60.7</ele>
        <time>2021-02-07T15:32:48Z</time>
      </trkpt>
      <trkpt lat="43.61465" lon="3.82799">
        <ele>65</ele>
        <time>2021-02-07T15:32:49Z</time>
      </trkpt>
      <trkpt lat="43.61464" lon="3.82802">
        <ele>60.9</ele>
        <time>2021-02-07T15:32:50Z</time>
      </trkpt>
      <trkpt lat="43.61464" lon="3.82805">
        <ele>61</ele>
        <time>2021-02-07T15:32:51Z</time>
      </trkpt>
      <trkpt lat="43.61463" lon="3.82809">
        <ele>61.1</ele>
        <time>2021-02-07T15:32:52Z</time>
      </trkpt>
      <trkpt lat="43.61463" lon="3.82812">
        <ele>61.2</ele>
        <time>2021-02-07T15:32:53Z</time>
      </trkpt>
      <trkpt lat="43.61463" lon="3.82816">
        <ele>61.3</ele>
        <time>2021-02-07T15:32:54Z</time>
      </trkpt>
      <trkpt lat="43.61462" lon="3.82819">
        <ele>61.3</ele>
        <time>2021-02-07T15:32:55Z</time>
      </trkpt>
      <trkpt lat="43.61462" lon="3.82823">
        <ele>61.4</ele>
        <time>2021-02-07T15:32:56Z</time>
      </trkpt>
      <trkpt lat="43.61462" lon="3.82826">
        <ele>61.5</ele>
        <time>2021-02-07T15:32:57Z</time>
      </trkpt>
      <trkpt lat="43.61462" lon="3.82829">
        <ele>61.5</ele>
        <time>2021-02-07T15:32:58Z</time>
      </trkpt>
      <trkpt lat="43.61462" lon="3.82832">
        <ele>65</ele>
        <time>2021-02-07T15:32:59Z</time>
      </trkpt>
      <trkpt lat="43.61462" lon="3.82836">
        <ele>61.6</ele>
        <time>2021-02-07T15:33:00Z</time>
      </trkpt>
      <trkpt lat="43.61462" lon="3.82839">
        <ele>61.6</ele>
        <time>2021-02-07T15:33:01Z</time>
      </trkpt>
      <trkpt lat="43.61461" lon="3.82843">
        <ele>61.6</ele>
        <time>2021-02-07T15:33:02Z</time>
      </trkpt>
      <trkpt lat="43.61461" lon="3.82847">
        <ele>61.6</ele>
        <time>2021-02-07T15:33:03Z</time>
      </trkpt>
      <trkpt lat="43.61461" lon="3.8285">
        <ele>61.6</ele>
        <time>2021-02-07T15:33:04Z</time>
      </trkpt>
      <trkpt lat="43.6146" lon="3.82854">
        <ele>61.6</ele>
        <time>2021-02-07T15:33:05Z</time>
      </trkpt>
      <trkpt lat="43.6146" lon="3.82857">
        <ele>61.6</ele>
        <time>2021-02-07T15:33:06Z</time>
      </trkpt>
      <trkpt lat="43.6146" lon="3.82861">
        <ele>61.6</ele>
        <time>2021-02-07T15:33:07Z</time>
      </trkpt>
      <trkpt lat="43.61459" lon="3.82864">
        <ele>61.6</ele>
        <time>2021-02-07T15:33:08Z</time>
      </trkpt>
      <trkpt lat="43.61458" lon="3.82867">
        <ele>65</ele>
        <time>2021-02-07T15:33:09Z</time>
      </trkpt>
      <trkpt lat="43.61458" lon="3.8287">
        <ele>61.8</ele>
        <time>2021-02-07T15:33:10Z</time>
      </trkpt>
      <trkpt lat="43.61457" lon="3.82873">
        <ele>61.9</ele>
        <time>2021-02-07T15:33:11Z</time>
      </trkpt>
      <trkpt lat="43.61456" lon="3.82876">
        <ele>62</ele>
        <time>2021-02-07T15:33:12Z</time>
      </trkpt>
      <trkpt lat="43.61456" lon="3.82878">
        <ele>62</ele>
        <time>2021-02-07T15:33:13Z</time>
      </trkpt>
      <trkpt lat="43.61459" lon="3.82891">
        <ele>66</ele>
        <time>2021-02-07T15:34:36Z</time>
      </trkpt>
      <trkpt lat="43.6146" lon="3.82894">
        <ele>62.5</ele>
        <time>2021-02-07T15:34:37Z</time>
      </trkpt>
      <trkpt lat="43.6146" lon="3.82897">
        <ele>62.4</ele>
        <time>2021-02-07T15:34:38Z</time>
      </trkpt>
      <trkpt lat="43.6146" lon="3.829">
        <ele>62.3</ele>
        <time>2021-02-07T15:34:39Z</time>
      </trkpt>
      <trkpt lat="43.61461" lon="3.82904">
        <ele>62.3</ele>
        <time>2021-02-07T15:34:41Z</time>
      </trkpt>
      <trkpt lat="43.61462" lon="3.82908">
        <ele>62.2</ele>
        <time>2021-02-07T15:34:43Z</time>
      </trkpt>
      <trkpt lat="43.61462" lon="3.8291">
        <ele>62.2</ele>
        <time>2021-02-07T15:34:44Z</time>
      </trkpt>
      <trkpt lat="43.61464" lon="3.82912">
        <ele>62.1</ele>
        <time>2021-02-07T15:34:45Z</time>
      </trkpt>
      <trkpt lat="43.61465" lon="3.82917">
        <ele>62</ele>
        <time>2021-02-07T15:34:47Z</time>
      </trkpt>
      <trkpt lat="43.61466" lon="3.82919">
        <ele>62.1</ele>
        <time>2021-02-07T15:34:48Z</time>
      </trkpt>
      <trkpt lat="43.61468" lon="3.82921">
        <ele>62.1</ele>
        <time>2021-02-07T15:34:50Z</time>
      </trkpt>
      <trkpt lat="43.61469" lon="3.82924">
        <ele>62.2</ele>
        <time>2021-02-07T15:34:55Z</time>
      </trkpt>
      <trkpt lat="43.61469" lon="3.82926">
        <ele>69</ele>
        <time>2021-02-07T15:34:56Z</time>
      </trkpt>
      <trkpt lat="43.61468" lon="3.82929">
        <ele>62.4</ele>
        <time>2021-02-07T15:34:57Z</time>
      </trkpt>
      <trkpt lat="43.61468" lon="3.82932">
        <ele>62.5</ele>
        <time>2021-02-07T15:34:58Z</time>
      </trkpt>
      <trkpt lat="43.61468" lon="3.82936">
        <ele>62.6</ele>
        <time>2021-02-07T15:34:59Z</time>
      </trkpt>
      <trkpt lat="43.61468" lon="3.8294">
        <ele>62.7</ele>
        <time>2021-02-07T15:35:00Z</time>
      </trkpt>
      <trkpt lat="43.61469" lon="3.82944">
        <ele>62.9</ele>
        <time>2021-02-07T15:35:01Z</time>
      </trkpt>
      <trkpt lat="43.61469" lon="3.82948">
        <ele>62.9</ele>
        <time>2021-02-07T15:35:02Z</time>
      </trkpt>
      <trkpt lat="43.61469" lon="3.82953">
        <ele>62.9</ele>
        <time>2021-02-07T15:35:03Z</time>
      </trkpt>
      <trkpt lat="43.61469" lon="3.82957">
        <ele>62.9</ele>
        <time>2021-02-07T15:35:04Z</time>
      </trkpt>
      <trkpt lat="43.6147" lon="3.82961">
        <ele>68</ele>
        <time>2021-02-07T15:35:05Z</time>
      </trkpt>
      <trkpt lat="43.6147" lon="3.82966">
        <ele>62.9</ele>
        <time>2021-02-07T15:35:06Z</time>
      </trkpt>
      <trkpt lat="43.6147" lon="3.8297">
        <ele>62.9</ele>
        <time>2021-02-07T15:35:07Z</time>
      </trkpt>
      <trkpt lat="43.61471" lon="3.82975">
        <ele>63</ele>
        <time>2021-02-07T15:35:08Z</time>
      </trkpt>
      <trkpt lat="43.61471" lon="3.82979">
        <ele>63</ele>
        <time>2021-02-07T15:35:09Z</time>
      </trkpt>
      <trkpt lat="43.6147" lon="3.82983">
        <ele>62.9</ele>
        <time>2021-02-07T15:35:10Z</time>
      </trkpt>
      <trkpt lat="43.6147" lon="3.82988">
        <ele>62.9</ele>
        <time>2021-02-07T15:35:11Z</time>
      </trkpt>
      <trkpt lat="43.61471" lon="3.82991">
        <ele>63</ele>
        <time>2021-02-07T15:35:12Z</time>
      </trkpt>
      <trkpt lat="43.61472" lon="3.82995">
        <ele>63</ele>
        <time>2021-02-07T15:35:13Z</time>
      </trkpt>
      <trkpt lat="43.61472" lon="3.82999">
        <ele>63</ele>
        <time>2021-02-07T15:35:14Z</time>
      </trkpt>
      <trkpt lat="43.61473" lon="3.83003">
        <ele>63</ele>
        <time>2021-02-07T15:35:15Z</time>
      </trkpt>
      <trkpt lat="43.61473" lon="3.83007">
        <ele>68</ele>
        <time>2021-02-07T15:35:16Z</time>
      </trkpt>
      <trkpt lat="43.61474" lon="3.83011">
        <ele>63.1</ele>
        <time>2021-02-07T15:35:17Z</time>
      </trkpt>
      <trkpt lat="43.61474" lon="3.83015">
        <ele>63.1</ele>
        <time>2021-02-07T15:35:18Z</time>
      </trkpt>
      <trkpt lat="43.61474" lon="3.83018">
        <ele>63.1</ele>
        <time>2021-02-07T15:35:19Z</time>
      </trkpt>
      <trkpt lat="43.61475" lon="3.8302">
        <ele>63.1</ele>
        <time>2021-02-07T15:35:20Z</time>
      </trkpt>
      <trkpt lat="43.61474" lon="3.83025">
        <ele>63.1</ele>
        <time>2021-02-07T15:35:22Z</time>
      </trkpt>
      <trkpt lat="43.61474" lon="3.8303">
        <ele>63.1</ele>
        <time>2021-02-07T15:35:24Z</time>
      </trkpt>
      <trkpt lat="43.61474" lon="3.83033">
        <ele>69</ele>
        <time>2021-02-07T15:35:25Z</time>
      </trkpt>
      <trkpt lat="43.61473" lon="3.83036">
        <ele>63.3</ele>
        <time>2021-02-07T15:35:26Z</time>
      </trkpt>
      <trkpt lat="43.61473" lon="3.83038">
        <ele>63.4</ele>
        <time>2021-02-07T15:35:27Z</time>
      </trkpt>
      <trkpt lat="43.61473" lon="3.83041">
        <ele>63.5</ele>
        <time>2021-02-07T15:35:28Z</time>
      </trkpt>
      <trkpt lat="43.61473" lon="3.83044">
        <ele>63.6</ele>
        <time>2021-02-07T15:35:29Z</time>
      </trkpt>
      <trkpt lat="43.61473" lon="3.83048">
        <ele>63.8</ele>
        <time>2021-02-07T15:35:31Z</time>
      </trkpt>
      <trkpt lat="43.61473" lon="3.83052">
        <ele>63.9</ele>
        <time>2021-02-07T15:35:33Z</time>
      </trkpt>
      <trkpt lat="43.61474" lon="3.83055">
        <ele>69</ele>
        <time>2021-02-07T15:35:35Z</time>
      </trkpt>
      <trkpt lat="43.61475" lon="3.83057">
        <ele>64.1</ele>
        <time>2021-02-07T15:35:37Z</time>
      </trkpt>
      <trkpt lat="43.61475" lon="3.8306">
        <ele>64.1</ele>
        <time>2021-02-07T15:35:39Z</time>
      </trkpt>
      <trkpt lat="43.61476" lon="3.83064">
        <ele>64.1</ele>
        <time>2021-02-07T15:35:41Z</time>
      </trkpt>
      <trkpt lat="43.61476" lon="3.83068">
        <ele>64.1</ele>
        <time>2021-02-07T15:35:43Z</time>
      </trkpt>
      <trkpt lat="43.61476" lon="3.83071">
        <ele>64.1</ele>
        <time>2021-02-07T15:35:45Z</time>
      </trkpt>
      <trkpt lat="43.61475" lon="3.83075">
        <ele>64.1</ele>
        <time>2021-02-07T15:35:47Z</time>
      </trkpt>
      <trkpt lat="43.61475" lon="3.83078">
        <ele>64.1</ele>
        <time>2021-02-07T15:35:52Z</time>
      </trkpt>
      <trkpt lat="43.61475" lon="3.8308">
        <ele>64.1</ele>
        <time>2021-02-07T15:35:54Z</time>
      </trkpt>
      <trkpt lat="43.61476" lon="3.83085">
        <ele>64.1</ele>
        <time>2021-02-07T15:35:56Z</time>
      </trkpt>
      <trkpt lat="43.61477" lon="3.83089">
        <ele>64.2</ele>
        <time>2021-02-07T15:35:58Z</time>
      </trkpt>
      <trkpt lat="43.61477" lon="3.83092">
        <ele>64.2</ele>
        <time>2021-02-07T15:35:59Z</time>
      </trkpt>
      <trkpt lat="43.61478" lon="3.83095">
        <ele>64.2</ele>
        <time>2021-02-07T15:36:00Z</time>
      </trkpt>
      <trkpt lat="43.61479" lon="3.83097">
        <ele>64.2</ele>
        <time>2021-02-07T15:36:01Z</time>
      </trkpt>
      <trkpt lat="43.61479" lon="3.83102">
        <ele>64.2</ele>
        <time>2021-02-07T15:36:03Z</time>
      </trkpt>
      <trkpt lat="43.61479" lon="3.83105">
        <ele>64.2</ele>
        <time>2021-02-07T15:36:04Z</time>
      </trkpt>
      <trkpt lat="43.61479" lon="3.83108">
        <ele>69</ele>
        <time>2021-02-07T15:36:05Z</time>
      </trkpt>
      <trkpt lat="43.61479" lon="3.83111">
        <ele>64.2</ele>
        <time>2021-02-07T15:36:06Z</time>
      </trkpt>
      <trkpt lat="43.61479" lon="3.83115">
        <ele>64.3</ele>
        <time>2021-02-07T15:36:07Z</time>
      </trkpt>
      <trkpt lat="43.6148" lon="3.83118">
        <ele>64.5</ele>
        <time>2021-02-07T15:36:08Z</time>
      </trkpt>
      <trkpt lat="43.6148" lon="3.83122">
        <ele>64.6</ele>
        <time>2021-02-07T15:36:09Z</time>
      </trkpt>
      <trkpt lat="43.6148" lon="3.83126">
        <ele>64.7</ele>
        <time>2021-02-07T15:36:10Z</time>
      </trkpt>
      <trkpt lat="43.6148" lon="3.83129">
        <ele>64.7</ele>
        <time>2021-02-07T15:36:11Z</time>
      </trkpt>
      <trkpt lat="43.6148" lon="3.83133">
        <ele>64.8</ele>
        <time>2021-02-07T15:36:12Z</time>
      </trkpt>
      <trkpt lat="43.6148" lon="3.83136">
        <ele>64.9</ele>
        <time>2021-02-07T15:36:13Z</time>
      </trkpt>
      <trkpt lat="43.6148" lon="3.83139">
        <ele>65</ele>
        <time>2021-02-07T15:36:14Z</time>
      </trkpt>
      <trkpt lat="43.61478" lon="3.83142">
        <ele>69</ele>
        <time>2021-02-07T15:36:15Z</time>
      </trkpt>
      <trkpt lat="43.61478" lon="3.83146">
        <ele>65.1</ele>
        <time>2021-02-07T15:36:16Z</time>
      </trkpt>
      <trkpt lat="43.61478" lon="3.83149">
        <ele>65.1</ele>
        <time>2021-02-07T15:36:17Z</time>
      </trkpt>
      <trkpt lat="43.61477" lon="3.83152">
        <ele>65.1</ele>
        <time>2021-02-07T15:36:18Z</time>
      </trkpt>
      <trkpt lat="43.61477" lon="3.83155">
        <ele>65.1</ele>
        <time>2021-02-07T15:36:19Z</time>
      </trkpt>
      <trkpt lat="43.61476" lon="3.83159">
        <ele>65.1</ele>
        <time>2021-02-07T15:36:20Z</time>
      </trkpt>
      <trkpt lat="43.61476" lon="3.83163">
        <ele>65.1</ele>
        <time>2021-02-07T15:36:21Z</time>
      </trkpt>
      <trkpt lat="43.61476" lon="3.83167">
        <ele>65.1</ele>
        <time>2021-02-07T15:36:22Z</time>
      </trkpt>
      <trkpt lat="43.61476" lon="3.8317">
        <ele>65.1</ele>
        <time>2021-02-07T15:36:23Z</time>
      </trkpt>
      <trkpt lat="43.61475" lon="3.83174">
        <ele>65.1</ele>
        <time>2021-02-07T15:36:24Z</time>
      </trkpt>
      <trkpt lat="43.61475" lon="3.83178">
        <ele>70</ele>
        <time>2021-02-07T15:36:25Z</time>
      </trkpt>
      <trkpt lat="43.61474" lon="3.83181">
        <ele>65.1</ele>
        <time>2021-02-07T15:36:26Z</time>
      </trkpt>
      <trkpt lat="43.61475" lon="3.83184">
        <ele>65.1</ele>
        <time>2021-02-07T15:36:27Z</time>
      </trkpt>
      <trkpt lat="43.61475" lon="3.83187">
        <ele>65.1</ele>
        <time>2021-02-07T15:36:28Z</time>
      </trkpt>
      <trkpt lat="43.61475" lon="3.8319">
        <ele>65.1</ele>
        <time>2021-02-07T15:36:29Z</time>
      </trkpt>
      <trkpt lat="43.61474" lon="3.83192">
        <ele>65.1</ele>
        <time>2021-02-07T15:36:30Z</time>
      </trkpt>
      <trkpt lat="43.61474" lon="3.83197">
        <ele>65.1</ele>
        <time>2021-02-07T15:36:32Z</time>
      </trkpt>
      <trkpt lat="43.61474" lon="3.832">
        <ele>65.1</ele>
        <time>2021-02-07T15:36:33Z</time>
      </trkpt>
      <trkpt lat="43.61474" lon="3.83204">
        <ele>65.1</ele>
        <time>2021-02-07T15:36:34Z</time>
      </trkpt>
      <trkpt lat="43.61474" lon="3.83208">
        <ele>70</ele>
        <time>2021-02-07T15:36:35Z</time>
      </trkpt>
      <trkpt lat="43.61474" lon="3.83211">
        <ele>65.1</ele>
        <time>2021-02-07T15:36:36Z</time>
      </trkpt>
      <trkpt lat="43.61474" lon="3.83215">
        <ele>65.1</ele>
        <time>2021-02-07T15:36:37Z</time>
      </trkpt>
      <trkpt lat="43.61473" lon="3.83218">
        <ele>65</ele>
        <time>2021-02-07T15:36:38Z</time>
      </trkpt>
      <trkpt lat="43.61473" lon="3.83221">
        <ele>65</ele>
        <time>2021-02-07T15:36:39Z</time>
      </trkpt>
      <trkpt lat="43.61472" lon="3.83224">
        <ele>65</ele>
        <time>2021-02-07T15:36:40Z</time>
      </trkpt>
      <trkpt lat="43.61471" lon="3.83227">
        <ele>65.1</ele>
        <time>2021-02-07T15:36:41Z</time>
      </trkpt>
      <trkpt lat="43.61471" lon="3.83231">
        <ele>65.2</ele>
        <time>2021-02-07T15:36:42Z</time>
      </trkpt>
      <trkpt lat="43.61471" lon="3.83234">
        <ele>65.3</ele>
        <time>2021-02-07T15:36:43Z</time>
      </trkpt>
      <trkpt lat="43.61471" lon="3.83238">
        <ele>65.5</ele>
        <time>2021-02-07T15:36:44Z</time>
      </trkpt>
      <trkpt lat="43.61471" lon="3.83243">
        <ele>70</ele>
        <time>2021-02-07T15:36:45Z</time>
      </trkpt>
      <trkpt lat="43.61471" lon="3.83247">
        <ele>65.8</ele>
        <time>2021-02-07T15:36:46Z</time>
      </trkpt>
      <trkpt lat="43.61471" lon="3.83251">
        <ele>65.9</ele>
        <time>2021-02-07T15:36:47Z</time>
      </trkpt>
      <trkpt lat="43.61472" lon="3.83255">
        <ele>66</ele>
        <time>2021-02-07T15:36:48Z</time>
      </trkpt>
      <trkpt lat="43.61473" lon="3.8326">
        <ele>66</ele>
        <time>2021-02-07T15:36:49Z</time>
      </trkpt>
      <trkpt lat="43.61475" lon="3.83263">
        <ele>66</ele>
        <time>2021-02-07T15:36:50Z</time>
      </trkpt>
      <trkpt lat="43.61475" lon="3.83267">
        <ele>66</ele>
        <time>2021-02-07T15:36:51Z</time>
      </trkpt>
      <trkpt lat="43.61476" lon="3.83271">
        <ele>66</ele>
        <time>2021-02-07T15:36:52Z</time>
      </trkpt>
      <trkpt lat="43.61477" lon="3.83275">
        <ele>66</ele>
        <time>2021-02-07T15:36:53Z</time>
      </trkpt>
      <trkpt lat="43.61477" lon="3.8328">
        <ele>66</ele>
        <time>2021-02-07T15:36:54Z</time>
      </trkpt>
      <trkpt lat="43.61477" lon="3.83283">
        <ele>72</ele>
        <time>2021-02-07T15:36:55Z</time>
      </trkpt>
      <trkpt lat="43.61476" lon="3.83287">
        <ele>66</ele>
        <time>2021-02-07T15:36:56Z</time>
      </trkpt>
      <trkpt lat="43.61474" lon="3.8329">
        <ele>66</ele>
        <time>2021-02-07T15:36:57Z</time>
      </trkpt>
      <trkpt lat="43.61472" lon="3.83292">
        <ele>66</ele>
        <time>2021-02-07T15:36:58Z</time>
      </trkpt>
      <trkpt lat="43.61471" lon="3.83295">
        <ele>66</ele>
        <time>2021-02-07T15:36:59Z</time>
      </trkpt>
      <trkpt lat="43.6147" lon="3.83297">
        <ele>65.9</ele>
        <time>2021-02-07T15:37:00Z</time>
      </trkpt>
      <trkpt lat="43.61471" lon="3.833">
        <ele>66</ele>
        <time>2021-02-07T15:37:01Z</time>
      </trkpt>
      <trkpt lat="43.61471" lon="3.83303">
        <ele>66</ele>
        <time>2021-02-07T15:37:02Z</time>
      </trkpt>
      <trkpt lat="43.61471" lon="3.83306">
        <ele>66</ele>
        <time>2021-02-07T15:37:03Z</time>
      </trkpt>
      <trkpt lat="43.61471" lon="3.8331">
        <ele>66</ele>
        <time>2021-02-07T15:37:04Z</time>
      </trkpt>
      <trkpt lat="43.61471" lon="3.83313">
        <ele>73</ele>
        <time>2021-02-07T15:37:05Z</time>
      </trkpt>
      <trkpt lat="43.61471" lon="3.83317">
        <ele>66</ele>
        <time>2021-02-07T15:37:06Z</time>
      </trkpt>
      <trkpt lat="43.61471" lon="3.83322">
        <ele>66</ele>
        <time>2021-02-07T15:37:07Z</time>
      </trkpt>
      <trkpt lat="43.61471" lon="3.83326">
        <ele>66</ele>
        <time>2021-02-07T15:37:08Z</time>
      </trkpt>
      <trkpt lat="43.61471" lon="3.8333">
        <ele>66</ele>
        <time>2021-02-07T15:37:09Z</time>
      </trkpt>
      <trkpt lat="43.6147" lon="3.83334">
        <ele>65.9</ele>
        <time>2021-02-07T15:37:10Z</time>
      </trkpt>
      <trkpt lat="43.6147" lon="3.83339">
        <ele>65.9</ele>
        <time>2021-02-07T15:37:11Z</time>
      </trkpt>
      <trkpt lat="43.6147" lon="3.83343">
        <ele>65.9</ele>
        <time>2021-02-07T15:37:12Z</time>
      </trkpt>
      <trkpt lat="43.6147" lon="3.83347">
        <ele>65.9</ele>
        <time>2021-02-07T15:37:13Z</time>
      </trkpt>
      <trkpt lat="43.61469" lon="3.83351">
        <ele>65.9</ele>
        <time>2021-02-07T15:37:14Z</time>
      </trkpt>
      <trkpt lat="43.61469" lon="3.83355">
        <ele>72</ele>
        <time>2021-02-07T15:37:15Z</time>
      </trkpt>
      <trkpt lat="43.61469" lon="3.83361">
        <ele>65.9</ele>
        <time>2021-02-07T15:37:16Z</time>
      </trkpt>
      <trkpt lat="43.61469" lon="3.83368">
        <ele>65.9</ele>
        <time>2021-02-07T15:37:17Z</time>
      </trkpt>
      <trkpt lat="43.61469" lon="3.83374">
        <ele>65.9</ele>
        <time>2021-02-07T15:37:18Z</time>
      </trkpt>
      <trkpt lat="43.61468" lon="3.83381">
        <ele>65.8</ele>
        <time>2021-02-07T15:37:19Z</time>
      </trkpt>
      <trkpt lat="43.61468" lon="3.83388">
        <ele>65.8</ele>
        <time>2021-02-07T15:37:20Z</time>
      </trkpt>
      <trkpt lat="43.61468" lon="3.83394">
        <ele>65.8</ele>
        <time>2021-02-07T15:37:21Z</time>
      </trkpt>
      <trkpt lat="43.61468" lon="3.83401">
        <ele>65.8</ele>
        <time>2021-02-07T15:37:22Z</time>
      </trkpt>
      <trkpt lat="43.61468" lon="3.83406">
        <ele>65.8</ele>
        <time>2021-02-07T15:37:23Z</time>
      </trkpt>
      <trkpt lat="43.61468" lon="3.83412">
        <ele>65.8</ele>
        <time>2021-02-07T15:37:24Z</time>
      </trkpt>
      <trkpt lat="43.61467" lon="3.83418">
        <ele>71</ele>
        <time>2021-02-07T15:37:25Z</time>
      </trkpt>
      <trkpt lat="43.61467" lon="3.83423">
        <ele>65.8</ele>
        <time>2021-02-07T15:37:26Z</time>
      </trkpt>
      <trkpt lat="43.61466" lon="3.83428">
        <ele>65.8</ele>
        <time>2021-02-07T15:37:27Z</time>
      </trkpt>
      <trkpt lat="43.61466" lon="3.83433">
        <ele>65.8</ele>
        <time>2021-02-07T15:37:28Z</time>
      </trkpt>
      <trkpt lat="43.61465" lon="3.83438">
        <ele>65.7</ele>
        <time>2021-02-07T15:37:29Z</time>
      </trkpt>
      <trkpt lat="43.61465" lon="3.83443">
        <ele>65.7</ele>
        <time>2021-02-07T15:37:30Z</time>
      </trkpt>
      <trkpt lat="43.61465" lon="3.83448">
        <ele>65.8</ele>
        <time>2021-02-07T15:37:31Z</time>
      </trkpt>
      <trkpt lat="43.61465" lon="3.83452">
        <ele>65.8</ele>
        <time>2021-02-07T15:37:32Z</time>
      </trkpt>
      <trkpt lat="43.61464" lon="3.83456">
        <ele>65.8</ele>
        <time>2021-02-07T15:37:33Z</time>
      </trkpt>
      <trkpt lat="43.61465" lon="3.83461">
        <ele>65.9</ele>
        <time>2021-02-07T15:37:34Z</time>
      </trkpt>
      <trkpt lat="43.61464" lon="3.83465">
        <ele>70</ele>
        <time>2021-02-07T15:37:35Z</time>
      </trkpt>
      <trkpt lat="43.61463" lon="3.83468">
        <ele>65.9</ele>
        <time>2021-02-07T15:37:36Z</time>
      </trkpt>
      <trkpt lat="43.61462" lon="3.83471">
        <ele>66</ele>
        <time>2021-02-07T15:37:37Z</time>
      </trkpt>
      <trkpt lat="43.61462" lon="3.83475">
        <ele>66</ele>
        <time>2021-02-07T15:37:39Z</time>
      </trkpt>
      <trkpt lat="43.61462" lon="3.83479">
        <ele>66</ele>
        <time>2021-02-07T15:37:41Z</time>
      </trkpt>
      <trkpt lat="43.61462" lon="3.83482">
        <ele>66</ele>
        <time>2021-02-07T15:37:42Z</time>
      </trkpt>
      <trkpt lat="43.61462" lon="3.83486">
        <ele>66</ele>
        <time>2021-02-07T15:37:43Z</time>
      </trkpt>
      <trkpt lat="43.61461" lon="3.8349">
        <ele>66</ele>
        <time>2021-02-07T15:37:44Z</time>
      </trkpt>
      <trkpt lat="43.61461" lon="3.83494">
        <ele>69</ele>
        <time>2021-02-07T15:37:45Z</time>
      </trkpt>
      <trkpt lat="43.6146" lon="3.83499">
        <ele>66</ele>
        <time>2021-02-07T15:37:46Z</time>
      </trkpt>
      <trkpt lat="43.6146" lon="3.83503">
        <ele>66</ele>
        <time>2021-02-07T15:37:47Z</time>
      </trkpt>
      <trkpt lat="43.61459" lon="3.83508">
        <ele>66</ele>
        <time>2021-02-07T15:37:48Z</time>
      </trkpt>
      <trkpt lat="43.61458" lon="3.83512">
        <ele>66</ele>
        <time>2021-02-07T15:37:49Z</time>
      </trkpt>
      <trkpt lat="43.61457" lon="3.83516">
        <ele>66</ele>
        <time>2021-02-07T15:37:50Z</time>
      </trkpt>
      <trkpt lat="43.61456" lon="3.8352">
        <ele>66</ele>
        <time>2021-02-07T15:37:51Z</time>
      </trkpt>
      <trkpt lat="43.61456" lon="3.83524">
        <ele>66</ele>
        <time>2021-02-07T15:37:52Z</time>
      </trkpt>
      <trkpt lat="43.61455" lon="3.83529">
        <ele>66</ele>
        <time>2021-02-07T15:37:53Z</time>
      </trkpt>
      <trkpt lat="43.61455" lon="3.83533">
        <ele>66.1</ele>
        <time>2021-02-07T15:37:54Z</time>
      </trkpt>
      <trkpt lat="43.61454" lon="3.83537">
        <ele>68</ele>
        <time>2021-02-07T15:37:55Z</time>
      </trkpt>
      <trkpt lat="43.61454" lon="3.83542">
        <ele>66.2</ele>
        <time>2021-02-07T15:37:56Z</time>
      </trkpt>
      <trkpt lat="43.61453" lon="3.83546">
        <ele>66.2</ele>
        <time>2021-02-07T15:37:57Z</time>
      </trkpt>
      <trkpt lat="43.61452" lon="3.8355">
        <ele>66.2</ele>
        <time>2021-02-07T15:37:58Z</time>
      </trkpt>
      <trkpt lat="43.61451" lon="3.83555">
        <ele>66.2</ele>
        <time>2021-02-07T15:37:59Z</time>
      </trkpt>
      <trkpt lat="43.6145" lon="3.8356">
        <ele>66.3</ele>
        <time>2021-02-07T15:38:00Z</time>
      </trkpt>
      <trkpt lat="43.61449" lon="3.83564">
        <ele>66.4</ele>
        <time>2021-02-07T15:38:01Z</time>
      </trkpt>
      <trkpt lat="43.61448" lon="3.83569">
        <ele>66.6</ele>
        <time>2021-02-07T15:38:02Z</time>
      </trkpt>
      <trkpt lat="43.61447" lon="3.83573">
        <ele>66.7</ele>
        <time>2021-02-07T15:38:03Z</time>
      </trkpt>
      <trkpt lat="43.61446" lon="3.83577">
        <ele>66.8</ele>
        <time>2021-02-07T15:38:04Z</time>
      </trkpt>
      <trkpt lat="43.61446" lon="3.83581">
        <ele>66.9</ele>
        <time>2021-02-07T15:38:05Z</time>
      </trkpt>
      <trkpt lat="43.61445" lon="3.83585">
        <ele>68</ele>
        <time>2021-02-07T15:38:06Z</time>
      </trkpt>
      <trkpt lat="43.61444" lon="3.83589">
        <ele>67</ele>
        <time>2021-02-07T15:38:07Z</time>
      </trkpt>
      <trkpt lat="43.61443" lon="3.83593">
        <ele>67</ele>
        <time>2021-02-07T15:38:08Z</time>
      </trkpt>
      <trkpt lat="43.61442" lon="3.83597">
        <ele>67</ele>
        <time>2021-02-07T15:38:09Z</time>
      </trkpt>
      <trkpt lat="43.61441" lon="3.83602">
        <ele>67</ele>
        <time>2021-02-07T15:38:10Z</time>
      </trkpt>
      <trkpt lat="43.6144" lon="3.83606">
        <ele>67</ele>
        <time>2021-02-07T15:38:11Z</time>
      </trkpt>
      <trkpt lat="43.61439" lon="3.8361">
        <ele>67</ele>
        <time>2021-02-07T15:38:12Z</time>
      </trkpt>
      <trkpt lat="43.61438" lon="3.83614">
        <ele>67</ele>
        <time>2021-02-07T15:38:13Z</time>
      </trkpt>
      <trkpt lat="43.61437" lon="3.83618">
        <ele>67</ele>
        <time>2021-02-07T15:38:14Z</time>
      </trkpt>
      <trkpt lat="43.61437" lon="3.83623">
        <ele>70</ele>
        <time>2021-02-07T15:38:15Z</time>
      </trkpt>
      <trkpt lat="43.61436" lon="3.83627">
        <ele>67</ele>
        <time>2021-02-07T15:38:16Z</time>
      </trkpt>
      <trkpt lat="43.61434" lon="3.83631">
        <ele>67</ele>
        <time>2021-02-07T15:38:17Z</time>
      </trkpt>
      <trkpt lat="43.61434" lon="3.83635">
        <ele>67</ele>
        <time>2021-02-07T15:38:18Z</time>
      </trkpt>
      <trkpt lat="43.61433" lon="3.83638">
        <ele>67</ele>
        <time>2021-02-07T15:38:19Z</time>
      </trkpt>
      <trkpt lat="43.61432" lon="3.83641">
        <ele>67</ele>
        <time>2021-02-07T15:38:20Z</time>
      </trkpt>
      <trkpt lat="43.61431" lon="3.83645">
        <ele>67.1</ele>
        <time>2021-02-07T15:38:21Z</time>
      </trkpt>
      <trkpt lat="43.61431" lon="3.83649">
        <ele>67.2</ele>
        <time>2021-02-07T15:38:22Z</time>
      </trkpt>
      <trkpt lat="43.6143" lon="3.83653">
        <ele>67.2</ele>
        <time>2021-02-07T15:38:23Z</time>
      </trkpt>
      <trkpt lat="43.61429" lon="3.83657">
        <ele>67.3</ele>
        <time>2021-02-07T15:38:24Z</time>
      </trkpt>
      <trkpt lat="43.61429" lon="3.83661">
        <ele>71</ele>
        <time>2021-02-07T15:38:25Z</time>
      </trkpt>
      <trkpt lat="43.61428" lon="3.83666">
        <ele>67.4</ele>
        <time>2021-02-07T15:38:26Z</time>
      </trkpt>
      <trkpt lat="43.61427" lon="3.8367">
        <ele>67.4</ele>
        <time>2021-02-07T15:38:27Z</time>
      </trkpt>
      <trkpt lat="43.61426" lon="3.83674">
        <ele>67.4</ele>
        <time>2021-02-07T15:38:28Z</time>
      </trkpt>
      <trkpt lat="43.61426" lon="3.83678">
        <ele>67.5</ele>
        <time>2021-02-07T15:38:29Z</time>
      </trkpt>
      <trkpt lat="43.61425" lon="3.83682">
        <ele>67.5</ele>
        <time>2021-02-07T15:38:30Z</time>
      </trkpt>
      <trkpt lat="43.61424" lon="3.83687">
        <ele>67.5</ele>
        <time>2021-02-07T15:38:31Z</time>
      </trkpt>
      <trkpt lat="43.61424" lon="3.83691">
        <ele>67.5</ele>
        <time>2021-02-07T15:38:32Z</time>
      </trkpt>
      <trkpt lat="43.61423" lon="3.83694">
        <ele>67.5</ele>
        <time>2021-02-07T15:38:33Z</time>
      </trkpt>
      <trkpt lat="43.61423" lon="3.83698">
        <ele>67.6</ele>
        <time>2021-02-07T15:38:34Z</time>
      </trkpt>
      <trkpt lat="43.61422" lon="3.83702">
        <ele>72</ele>
        <time>2021-02-07T15:38:35Z</time>
      </trkpt>
      <trkpt lat="43.61422" lon="3.83706">
        <ele>67.7</ele>
        <time>2021-02-07T15:38:36Z</time>
      </trkpt>
      <trkpt lat="43.61421" lon="3.83709">
        <ele>67.8</ele>
        <time>2021-02-07T15:38:37Z</time>
      </trkpt>
      <trkpt lat="43.6142" lon="3.83714">
        <ele>67.9</ele>
        <time>2021-02-07T15:38:38Z</time>
      </trkpt>
      <trkpt lat="43.61419" lon="3.83718">
        <ele>67.9</ele>
        <time>2021-02-07T15:38:39Z</time>
      </trkpt>
      <trkpt lat="43.61418" lon="3.83722">
        <ele>68</ele>
        <time>2021-02-07T15:38:40Z</time>
      </trkpt>
      <trkpt lat="43.61417" lon="3.83726">
        <ele>68</ele>
        <time>2021-02-07T15:38:41Z</time>
      </trkpt>
      <trkpt lat="43.61416" lon="3.8373">
        <ele>68</ele>
        <time>2021-02-07T15:38:42Z</time>
      </trkpt>
      <trkpt lat="43.61415" lon="3.83734">
        <ele>67.9</ele>
        <time>2021-02-07T15:38:43Z</time>
      </trkpt>
      <trkpt lat="43.61414" lon="3.83739">
        <ele>67.9</ele>
        <time>2021-02-07T15:38:44Z</time>
      </trkpt>
      <trkpt lat="43.61412" lon="3.83744">
        <ele>73</ele>
        <time>2021-02-07T15:38:45Z</time>
      </trkpt>
      <trkpt lat="43.6141" lon="3.83749">
        <ele>67.8</ele>
        <time>2021-02-07T15:38:46Z</time>
      </trkpt>
      <trkpt lat="43.61409" lon="3.83755">
        <ele>67.8</ele>
        <time>2021-02-07T15:38:47Z</time>
      </trkpt>
      <trkpt lat="43.61407" lon="3.83761">
        <ele>67.8</ele>
        <time>2021-02-07T15:38:48Z</time>
      </trkpt>
      <trkpt lat="43.61406" lon="3.83767">
        <ele>67.9</ele>
        <time>2021-02-07T15:38:49Z</time>
      </trkpt>
      <trkpt lat="43.61405" lon="3.83772">
        <ele>67.9</ele>
        <time>2021-02-07T15:38:50Z</time>
      </trkpt>
      <trkpt lat="43.61404" lon="3.83778">
        <ele>68</ele>
        <time>2021-02-07T15:38:51Z</time>
      </trkpt>
      <trkpt lat="43.61403" lon="3.83783">
        <ele>68.1</ele>
        <time>2021-02-07T15:38:52Z</time>
      </trkpt>
      <trkpt lat="43.61402" lon="3.83787">
        <ele>68.2</ele>
        <time>2021-02-07T15:38:53Z</time>
      </trkpt>
      <trkpt lat="43.61401" lon="3.83791">
        <ele>68.2</ele>
        <time>2021-02-07T15:38:54Z</time>
      </trkpt>
      <trkpt lat="43.614" lon="3.83795">
        <ele>73</ele>
        <time>2021-02-07T15:38:55Z</time>
      </trkpt>
      <trkpt lat="43.61399" lon="3.83799">
        <ele>68.3</ele>
        <time>2021-02-07T15:38:56Z</time>
      </trkpt>
      <trkpt lat="43.61398" lon="3.83803">
        <ele>68.3</ele>
        <time>2021-02-07T15:38:57Z</time>
      </trkpt>
      <trkpt lat="43.61396" lon="3.83806">
        <ele>68.3</ele>
        <time>2021-02-07T15:38:58Z</time>
      </trkpt>
      <trkpt lat="43.61395" lon="3.83809">
        <ele>68.2</ele>
        <time>2021-02-07T15:38:59Z</time>
      </trkpt>
      <trkpt lat="43.61395" lon="3.83813">
        <ele>68.2</ele>
        <time>2021-02-07T15:39:00Z</time>
      </trkpt>
      <trkpt lat="43.61395" lon="3.83816">
        <ele>68.2</ele>
        <time>2021-02-07T15:39:01Z</time>
      </trkpt>
      <trkpt lat="43.61394" lon="3.83819">
        <ele>68.2</ele>
        <time>2021-02-07T15:39:02Z</time>
      </trkpt>
      <trkpt lat="43.61393" lon="3.83822">
        <ele>68.1</ele>
        <time>2021-02-07T15:39:03Z</time>
      </trkpt>
      <trkpt lat="43.61392" lon="3.83825">
        <ele>68.1</ele>
        <time>2021-02-07T15:39:04Z</time>
      </trkpt>
      <trkpt lat="43.61391" lon="3.83828">
        <ele>74</ele>
        <time>2021-02-07T15:39:05Z</time>
      </trkpt>
      <trkpt lat="43.6139" lon="3.83832">
        <ele>68</ele>
        <time>2021-02-07T15:39:06Z</time>
      </trkpt>
      <trkpt lat="43.61389" lon="3.83835">
        <ele>68</ele>
        <time>2021-02-07T15:39:07Z</time>
      </trkpt>
      <trkpt lat="43.61388" lon="3.83838">
        <ele>68</ele>
        <time>2021-02-07T15:39:08Z</time>
      </trkpt>
      <trkpt lat="43.61387" lon="3.83841">
        <ele>67.9</ele>
        <time>2021-02-07T15:39:09Z</time>
      </trkpt>
      <trkpt lat="43.61386" lon="3.83844">
        <ele>67.9</ele>
        <time>2021-02-07T15:39:10Z</time>
      </trkpt>
      <trkpt lat="43.61385" lon="3.83847">
        <ele>67.9</ele>
        <time>2021-02-07T15:39:11Z</time>
      </trkpt>
      <trkpt lat="43.61384" lon="3.8385">
        <ele>67.8</ele>
        <time>2021-02-07T15:39:12Z</time>
      </trkpt>
      <trkpt lat="43.61383" lon="3.83852">
        <ele>67.8</ele>
        <time>2021-02-07T15:39:13Z</time>
      </trkpt>
      <trkpt lat="43.61382" lon="3.83854">
        <ele>67.8</ele>
        <time>2021-02-07T15:39:14Z</time>
      </trkpt>
      <trkpt lat="43.61382" lon="3.83857">
        <ele>74</ele>
        <time>2021-02-07T15:39:15Z</time>
      </trkpt>
      <trkpt lat="43.61381" lon="3.83859">
        <ele>67.7</ele>
        <time>2021-02-07T15:39:16Z</time>
      </trkpt>
      <trkpt lat="43.61379" lon="3.83863">
        <ele>67.7</ele>
        <time>2021-02-07T15:39:18Z</time>
      </trkpt>
      <trkpt lat="43.61378" lon="3.83866">
        <ele>67.8</ele>
        <time>2021-02-07T15:39:20Z</time>
      </trkpt>
      <trkpt lat="43.61377" lon="3.83869">
        <ele>67.9</ele>
        <time>2021-02-07T15:39:22Z</time>
      </trkpt>
      <trkpt lat="43.61376" lon="3.83871">
        <ele>74</ele>
        <time>2021-02-07T15:39:25Z</time>
      </trkpt>
      <trkpt lat="43.61375" lon="3.83875">
        <ele>68</ele>
        <time>2021-02-07T15:39:29Z</time>
      </trkpt>
      <trkpt lat="43.61373" lon="3.83879">
        <ele>68.1</ele>
        <time>2021-02-07T15:39:31Z</time>
      </trkpt>
      <trkpt lat="43.61373" lon="3.83882">
        <ele>68.2</ele>
        <time>2021-02-07T15:39:33Z</time>
      </trkpt>
      <trkpt lat="43.61371" lon="3.83884">
        <ele>68.2</ele>
        <time>2021-02-07T15:39:36Z</time>
      </trkpt>
      <trkpt lat="43.61369" lon="3.83887">
        <ele>68.2</ele>
        <time>2021-02-07T15:39:38Z</time>
      </trkpt>
      <trkpt lat="43.61366" lon="3.83891">
        <ele>68</ele>
        <time>2021-02-07T15:39:39Z</time>
      </trkpt>
      <trkpt lat="43.61363" lon="3.83895">
        <ele>67.8</ele>
        <time>2021-02-07T15:39:40Z</time>
      </trkpt>
      <trkpt lat="43.61359" lon="3.83899">
        <ele>67.6</ele>
        <time>2021-02-07T15:39:41Z</time>
      </trkpt>
      <trkpt lat="43.61355" lon="3.83903">
        <ele>67.4</ele>
        <time>2021-02-07T15:39:42Z</time>
      </trkpt>
      <trkpt lat="43.61352" lon="3.83909">
        <ele>67.2</ele>
        <time>2021-02-07T15:39:43Z</time>
      </trkpt>
      <trkpt lat="43.61351" lon="3.83914">
        <ele>67.1</ele>
        <time>2021-02-07T15:39:44Z</time>
      </trkpt>
      <trkpt lat="43.61349" lon="3.83919">
        <ele>74</ele>
        <time>2021-02-07T15:39:45Z</time>
      </trkpt>
      <trkpt lat="43.61347" lon="3.83925">
        <ele>67</ele>
        <time>2021-02-07T15:39:46Z</time>
      </trkpt>
      <trkpt lat="43.61345" lon="3.83931">
        <ele>66.9</ele>
        <time>2021-02-07T15:39:47Z</time>
      </trkpt>
      <trkpt lat="43.61344" lon="3.83937">
        <ele>66.8</ele>
        <time>2021-02-07T15:39:48Z</time>
      </trkpt>
      <trkpt lat="43.61344" lon="3.83944">
        <ele>66.8</ele>
        <time>2021-02-07T15:39:49Z</time>
      </trkpt>
      <trkpt lat="43.61344" lon="3.83951">
        <ele>66.8</ele>
        <time>2021-02-07T15:39:50Z</time>
      </trkpt>
      <trkpt lat="43.61343" lon="3.83958">
        <ele>66.7</ele>
        <time>2021-02-07T15:39:51Z</time>
      </trkpt>
      <trkpt lat="43.61343" lon="3.83966">
        <ele>66.7</ele>
        <time>2021-02-07T15:39:52Z</time>
      </trkpt>
      <trkpt lat="43.61344" lon="3.83973">
        <ele>66.8</ele>
        <time>2021-02-07T15:39:53Z</time>
      </trkpt>
      <trkpt lat="43.61344" lon="3.83981">
        <ele>66.8</ele>
        <time>2021-02-07T15:39:54Z</time>
      </trkpt>
      <trkpt lat="43.61344" lon="3.83988">
        <ele>66.8</ele>
        <time>2021-02-07T15:39:55Z</time>
      </trkpt>
      <trkpt lat="43.61344" lon="3.83996">
        <ele>74</ele>
        <time>2021-02-07T15:39:56Z</time>
      </trkpt>
      <trkpt lat="43.61344" lon="3.84004">
        <ele>66.7</ele>
        <time>2021-02-07T15:39:57Z</time>
      </trkpt>
      <trkpt lat="43.61345" lon="3.84012">
        <ele>66.7</ele>
        <time>2021-02-07T15:39:58Z</time>
      </trkpt>
      <trkpt lat="43.61345" lon="3.8402">
        <ele>66.5</ele>
        <time>2021-02-07T15:39:59Z</time>
      </trkpt>
      <trkpt lat="43.61346" lon="3.84027">
        <ele>66.5</ele>
        <time>2021-02-07T15:40:00Z</time>
      </trkpt>
      <trkpt lat="43.61345" lon="3.84035">
        <ele>66.4</ele>
        <time>2021-02-07T15:40:01Z</time>
      </trkpt>
      <trkpt lat="43.61344" lon="3.84042">
        <ele>66.4</ele>
        <time>2021-02-07T15:40:02Z</time>
      </trkpt>
      <trkpt lat="43.61343" lon="3.8405">
        <ele>66.3</ele>
        <time>2021-02-07T15:40:03Z</time>
      </trkpt>
      <trkpt lat="43.61342" lon="3.84057">
        <ele>66.4</ele>
        <time>2021-02-07T15:40:04Z</time>
      </trkpt>
      <trkpt lat="43.61341" lon="3.84065">
        <ele>73</ele>
        <time>2021-02-07T15:40:05Z</time>
      </trkpt>
      <trkpt lat="43.6134" lon="3.84073">
        <ele>66.9</ele>
        <time>2021-02-07T15:40:06Z</time>
      </trkpt>
      <trkpt lat="43.61339" lon="3.84081">
        <ele>67.1</ele>
        <time>2021-02-07T15:40:07Z</time>
      </trkpt>
      <trkpt lat="43.61338" lon="3.84089">
        <ele>67.2</ele>
        <time>2021-02-07T15:40:08Z</time>
      </trkpt>
      <trkpt lat="43.61337" lon="3.84097">
        <ele>67.1</ele>
        <time>2021-02-07T15:40:09Z</time>
      </trkpt>
      <trkpt lat="43.61336" lon="3.84104">
        <ele>67.1</ele>
        <time>2021-02-07T15:40:10Z</time>
      </trkpt>
      <trkpt lat="43.61334" lon="3.84112">
        <ele>67</ele>
        <time>2021-02-07T15:40:11Z</time>
      </trkpt>
      <trkpt lat="43.61333" lon="3.84119">
        <ele>67</ele>
        <time>2021-02-07T15:40:12Z</time>
      </trkpt>
      <trkpt lat="43.61331" lon="3.84126">
        <ele>66.8</ele>
        <time>2021-02-07T15:40:13Z</time>
      </trkpt>
      <trkpt lat="43.6133" lon="3.84133">
        <ele>66.8</ele>
        <time>2021-02-07T15:40:14Z</time>
      </trkpt>
      <trkpt lat="43.61329" lon="3.84139">
        <ele>72</ele>
        <time>2021-02-07T15:40:15Z</time>
      </trkpt>
      <trkpt lat="43.61328" lon="3.84146">
        <ele>66.6</ele>
        <time>2021-02-07T15:40:16Z</time>
      </trkpt>
      <trkpt lat="43.61327" lon="3.84152">
        <ele>66.5</ele>
        <time>2021-02-07T15:40:17Z</time>
      </trkpt>
      <trkpt lat="43.61326" lon="3.84159">
        <ele>66.5</ele>
        <time>2021-02-07T15:40:18Z</time>
      </trkpt>
      <trkpt lat="43.61325" lon="3.84165">
        <ele>66.4</ele>
        <time>2021-02-07T15:40:19Z</time>
      </trkpt>
      <trkpt lat="43.61324" lon="3.84172">
        <ele>66.4</ele>
        <time>2021-02-07T15:40:20Z</time>
      </trkpt>
      <trkpt lat="43.61324" lon="3.84178">
        <ele>66.5</ele>
        <time>2021-02-07T15:40:21Z</time>
      </trkpt>
      <trkpt lat="43.61323" lon="3.84185">
        <ele>66.5</ele>
        <time>2021-02-07T15:40:22Z</time>
      </trkpt>
      <trkpt lat="43.61322" lon="3.84192">
        <ele>66.6</ele>
        <time>2021-02-07T15:40:23Z</time>
      </trkpt>
      <trkpt lat="43.61321" lon="3.84198">
        <ele>66.6</ele>
        <time>2021-02-07T15:40:24Z</time>
      </trkpt>
      <trkpt lat="43.6132" lon="3.84205">
        <ele>72</ele>
        <time>2021-02-07T15:40:25Z</time>
      </trkpt>
      <trkpt lat="43.61319" lon="3.84212">
        <ele>66.5</ele>
        <time>2021-02-07T15:40:26Z</time>
      </trkpt>
      <trkpt lat="43.61318" lon="3.84219">
        <ele>66.4</ele>
        <time>2021-02-07T15:40:27Z</time>
      </trkpt>
      <trkpt lat="43.61317" lon="3.84225">
        <ele>66.4</ele>
        <time>2021-02-07T15:40:28Z</time>
      </trkpt>
      <trkpt lat="43.61315" lon="3.84232">
        <ele>66.3</ele>
        <time>2021-02-07T15:40:29Z</time>
      </trkpt>
      <trkpt lat="43.61315" lon="3.84238">
        <ele>66.3</ele>
        <time>2021-02-07T15:40:30Z</time>
      </trkpt>
      <trkpt lat="43.61314" lon="3.84244">
        <ele>66.3</ele>
        <time>2021-02-07T15:40:31Z</time>
      </trkpt>
      <trkpt lat="43.61313" lon="3.8425">
        <ele>66.3</ele>
        <time>2021-02-07T15:40:32Z</time>
      </trkpt>
      <trkpt lat="43.61312" lon="3.84257">
        <ele>66.2</ele>
        <time>2021-02-07T15:40:33Z</time>
      </trkpt>
      <trkpt lat="43.61311" lon="3.84263">
        <ele>66.2</ele>
        <time>2021-02-07T15:40:34Z</time>
      </trkpt>
      <trkpt lat="43.6131" lon="3.8427">
        <ele>71</ele>
        <time>2021-02-07T15:40:35Z</time>
      </trkpt>
      <trkpt lat="43.61309" lon="3.84277">
        <ele>66.1</ele>
        <time>2021-02-07T15:40:36Z</time>
      </trkpt>
      <trkpt lat="43.61308" lon="3.84284">
        <ele>66.3</ele>
        <time>2021-02-07T15:40:37Z</time>
      </trkpt>
      <trkpt lat="43.61306" lon="3.8429">
        <ele>66.5</ele>
        <time>2021-02-07T15:40:38Z</time>
      </trkpt>
      <trkpt lat="43.61305" lon="3.84297">
        <ele>66.7</ele>
        <time>2021-02-07T15:40:39Z</time>
      </trkpt>
      <trkpt lat="43.61303" lon="3.84304">
        <ele>66.8</ele>
        <time>2021-02-07T15:40:40Z</time>
      </trkpt>
      <trkpt lat="43.61302" lon="3.84311">
        <ele>66.8</ele>
        <time>2021-02-07T15:40:41Z</time>
      </trkpt>
      <trkpt lat="43.613" lon="3.84318">
        <ele>66.7</ele>
        <time>2021-02-07T15:40:42Z</time>
      </trkpt>
      <trkpt lat="43.61298" lon="3.84325">
        <ele>66.6</ele>
        <time>2021-02-07T15:40:43Z</time>
      </trkpt>
      <trkpt lat="43.61297" lon="3.84331">
        <ele>66.7</ele>
        <time>2021-02-07T15:40:44Z</time>
      </trkpt>
      <trkpt lat="43.61295" lon="3.84338">
        <ele>71</ele>
        <time>2021-02-07T15:40:45Z</time>
      </trkpt>
      <trkpt lat="43.61293" lon="3.84345">
        <ele>66.8</ele>
        <time>2021-02-07T15:40:46Z</time>
      </trkpt>
      <trkpt lat="43.61291" lon="3.84352">
        <ele>66.8</ele>
        <time>2021-02-07T15:40:47Z</time>
      </trkpt>
      <trkpt lat="43.61289" lon="3.84358">
        <ele>66.8</ele>
        <time>2021-02-07T15:40:48Z</time>
      </trkpt>
      <trkpt lat="43.61288" lon="3.84365">
        <ele>66.9</ele>
        <time>2021-02-07T15:40:49Z</time>
      </trkpt>
      <trkpt lat="43.61286" lon="3.84371">
        <ele>66.9</ele>
        <time>2021-02-07T15:40:50Z</time>
      </trkpt>
      <trkpt lat="43.61284" lon="3.84377">
        <ele>67</ele>
        <time>2021-02-07T15:40:51Z</time>
      </trkpt>
      <trkpt lat="43.61282" lon="3.84384">
        <ele>67.1</ele>
        <time>2021-02-07T15:40:52Z</time>
      </trkpt>
      <trkpt lat="43.6128" lon="3.8439">
        <ele>67.2</ele>
        <time>2021-02-07T15:40:53Z</time>
      </trkpt>
      <trkpt lat="43.61279" lon="3.84396">
        <ele>67.1</ele>
        <time>2021-02-07T15:40:54Z</time>
      </trkpt>
      <trkpt lat="43.61277" lon="3.84403">
        <ele>67</ele>
        <time>2021-02-07T15:40:55Z</time>
      </trkpt>
      <trkpt lat="43.61275" lon="3.84409">
        <ele>71</ele>
        <time>2021-02-07T15:40:56Z</time>
      </trkpt>
      <trkpt lat="43.61273" lon="3.84415">
        <ele>67</ele>
        <time>2021-02-07T15:40:57Z</time>
      </trkpt>
      <trkpt lat="43.61271" lon="3.84422">
        <ele>67.1</ele>
        <time>2021-02-07T15:40:58Z</time>
      </trkpt>
      <trkpt lat="43.61269" lon="3.84428">
        <ele>67.3</ele>
        <time>2021-02-07T15:40:59Z</time>
      </trkpt>
      <trkpt lat="43.61268" lon="3.84434">
        <ele>67.4</ele>
        <time>2021-02-07T15:41:00Z</time>
      </trkpt>
      <trkpt lat="43.61266" lon="3.8444">
        <ele>67.5</ele>
        <time>2021-02-07T15:41:01Z</time>
      </trkpt>
      <trkpt lat="43.61264" lon="3.84446">
        <ele>67.5</ele>
        <time>2021-02-07T15:41:02Z</time>
      </trkpt>
      <trkpt lat="43.61261" lon="3.84452">
        <ele>67.6</ele>
        <time>2021-02-07T15:41:03Z</time>
      </trkpt>
      <trkpt lat="43.61259" lon="3.84457">
        <ele>67.6</ele>
        <time>2021-02-07T15:41:04Z</time>
      </trkpt>
      <trkpt lat="43.61257" lon="3.84463">
        <ele>71</ele>
        <time>2021-02-07T15:41:05Z</time>
      </trkpt>
      <trkpt lat="43.61254" lon="3.84469">
        <ele>67.9</ele>
        <time>2021-02-07T15:41:06Z</time>
      </trkpt>
      <trkpt lat="43.61252" lon="3.84475">
        <ele>68</ele>
        <time>2021-02-07T15:41:07Z</time>
      </trkpt>
      <trkpt lat="43.61249" lon="3.8448">
        <ele>68</ele>
        <time>2021-02-07T15:41:08Z</time>
      </trkpt>
      <trkpt lat="43.61247" lon="3.84486">
        <ele>68</ele>
        <time>2021-02-07T15:41:09Z</time>
      </trkpt>
      <trkpt lat="43.61244" lon="3.84492">
        <ele>68</ele>
        <time>2021-02-07T15:41:10Z</time>
      </trkpt>
      <trkpt lat="43.61242" lon="3.84498">
        <ele>68</ele>
        <time>2021-02-07T15:41:11Z</time>
      </trkpt>
      <trkpt lat="43.61239" lon="3.84503">
        <ele>68.1</ele>
        <time>2021-02-07T15:41:12Z</time>
      </trkpt>
      <trkpt lat="43.61236" lon="3.84509">
        <ele>68.2</ele>
        <time>2021-02-07T15:41:13Z</time>
      </trkpt>
      <trkpt lat="43.61234" lon="3.84514">
        <ele>68.2</ele>
        <time>2021-02-07T15:41:14Z</time>
      </trkpt>
      <trkpt lat="43.61231" lon="3.8452">
        <ele>68.2</ele>
        <time>2021-02-07T15:41:15Z</time>
      </trkpt>
      <trkpt lat="43.61228" lon="3.84526">
        <ele>72</ele>
        <time>2021-02-07T15:41:16Z</time>
      </trkpt>
      <trkpt lat="43.61226" lon="3.84532">
        <ele>68.3</ele>
        <time>2021-02-07T15:41:17Z</time>
      </trkpt>
      <trkpt lat="43.61223" lon="3.84537">
        <ele>68.4</ele>
        <time>2021-02-07T15:41:18Z</time>
      </trkpt>
      <trkpt lat="43.6122" lon="3.84543">
        <ele>68.5</ele>
        <time>2021-02-07T15:41:19Z</time>
      </trkpt>
      <trkpt lat="43.61217" lon="3.84548">
        <ele>68.6</ele>
        <time>2021-02-07T15:41:20Z</time>
      </trkpt>
      <trkpt lat="43.61215" lon="3.84553">
        <ele>68.7</ele>
        <time>2021-02-07T15:41:21Z</time>
      </trkpt>
      <trkpt lat="43.61212" lon="3.84558">
        <ele>68.7</ele>
        <time>2021-02-07T15:41:22Z</time>
      </trkpt>
      <trkpt lat="43.61209" lon="3.84563">
        <ele>68.7</ele>
        <time>2021-02-07T15:41:23Z</time>
      </trkpt>
      <trkpt lat="43.61206" lon="3.84568">
        <ele>68.7</ele>
        <time>2021-02-07T15:41:24Z</time>
      </trkpt>
      <trkpt lat="43.61203" lon="3.84572">
        <ele>72</ele>
        <time>2021-02-07T15:41:25Z</time>
      </trkpt>
      <trkpt lat="43.612" lon="3.84577">
        <ele>68.8</ele>
        <time>2021-02-07T15:41:26Z</time>
      </trkpt>
      <trkpt lat="43.61196" lon="3.84581">
        <ele>68.9</ele>
        <time>2021-02-07T15:41:27Z</time>
      </trkpt>
      <trkpt lat="43.61193" lon="3.84586">
        <ele>69</ele>
        <time>2021-02-07T15:41:28Z</time>
      </trkpt>
      <trkpt lat="43.6119" lon="3.8459">
        <ele>69.1</ele>
        <time>2021-02-07T15:41:29Z</time>
      </trkpt>
      <trkpt lat="43.61187" lon="3.84595">
        <ele>69.2</ele>
        <time>2021-02-07T15:41:30Z</time>
      </trkpt>
      <trkpt lat="43.61183" lon="3.84599">
        <ele>69.2</ele>
        <time>2021-02-07T15:41:31Z</time>
      </trkpt>
      <trkpt lat="43.6118" lon="3.84604">
        <ele>69.1</ele>
        <time>2021-02-07T15:41:32Z</time>
      </trkpt>
      <trkpt lat="43.61177" lon="3.84608">
        <ele>69.1</ele>
        <time>2021-02-07T15:41:33Z</time>
      </trkpt>
      <trkpt lat="43.61173" lon="3.84613">
        <ele>69</ele>
        <time>2021-02-07T15:41:34Z</time>
      </trkpt>
      <trkpt lat="43.6117" lon="3.84617">
        <ele>73</ele>
        <time>2021-02-07T15:41:35Z</time>
      </trkpt>
      <trkpt lat="43.61166" lon="3.8462">
        <ele>69</ele>
        <time>2021-02-07T15:41:36Z</time>
      </trkpt>
      <trkpt lat="43.61163" lon="3.84624">
        <ele>69</ele>
        <time>2021-02-07T15:41:37Z</time>
      </trkpt>
      <trkpt lat="43.61161" lon="3.84628">
        <ele>69</ele>
        <time>2021-02-07T15:41:38Z</time>
      </trkpt>
      <trkpt lat="43.61158" lon="3.84633">
        <ele>69</ele>
        <time>2021-02-07T15:41:39Z</time>
      </trkpt>
      <trkpt lat="43.61155" lon="3.84637">
        <ele>69</ele>
        <time>2021-02-07T15:41:40Z</time>
      </trkpt>
      <trkpt lat="43.61151" lon="3.84641">
        <ele>69</ele>
        <time>2021-02-07T15:41:41Z</time>
      </trkpt>
      <trkpt lat="43.61148" lon="3.84645">
        <ele>69</ele>
        <time>2021-02-07T15:41:42Z</time>
      </trkpt>
      <trkpt lat="43.61145" lon="3.84649">
        <ele>69</ele>
        <time>2021-02-07T15:41:43Z</time>
      </trkpt>
      <trkpt lat="43.61143" lon="3.84654">
        <ele>69</ele>
        <time>2021-02-07T15:41:44Z</time>
      </trkpt>
      <trkpt lat="43.6114" lon="3.84659">
        <ele>73</ele>
        <time>2021-02-07T15:41:45Z</time>
      </trkpt>
      <trkpt lat="43.61137" lon="3.84665">
        <ele>69</ele>
        <time>2021-02-07T15:41:46Z</time>
      </trkpt>
      <trkpt lat="43.61134" lon="3.8467">
        <ele>68.9</ele>
        <time>2021-02-07T15:41:47Z</time>
      </trkpt>
      <trkpt lat="43.61131" lon="3.84675">
        <ele>68.7</ele>
        <time>2021-02-07T15:41:48Z</time>
      </trkpt>
      <trkpt lat="43.61128" lon="3.8468">
        <ele>68.5</ele>
        <time>2021-02-07T15:41:49Z</time>
      </trkpt>
      <trkpt lat="43.61125" lon="3.84686">
        <ele>68.3</ele>
        <time>2021-02-07T15:41:50Z</time>
      </trkpt>
      <trkpt lat="43.61122" lon="3.84691">
        <ele>68.1</ele>
        <time>2021-02-07T15:41:51Z</time>
      </trkpt>
      <trkpt lat="43.61119" lon="3.84697">
        <ele>68</ele>
        <time>2021-02-07T15:41:52Z</time>
      </trkpt>
      <trkpt lat="43.61116" lon="3.84702">
        <ele>68</ele>
        <time>2021-02-07T15:41:53Z</time>
      </trkpt>
      <trkpt lat="43.61113" lon="3.84708">
        <ele>68</ele>
        <time>2021-02-07T15:41:54Z</time>
      </trkpt>
      <trkpt lat="43.6111" lon="3.84714">
        <ele>73</ele>
        <time>2021-02-07T15:41:55Z</time>
      </trkpt>
      <trkpt lat="43.61108" lon="3.84719">
        <ele>68.1</ele>
        <time>2021-02-07T15:41:56Z</time>
      </trkpt>
      <trkpt lat="43.61106" lon="3.84726">
        <ele>68</ele>
        <time>2021-02-07T15:41:57Z</time>
      </trkpt>
      <trkpt lat="43.61104" lon="3.84732">
        <ele>67.9</ele>
        <time>2021-02-07T15:41:58Z</time>
      </trkpt>
      <trkpt lat="43.61102" lon="3.84738">
        <ele>67.8</ele>
        <time>2021-02-07T15:41:59Z</time>
      </trkpt>
      <trkpt lat="43.61101" lon="3.84744">
        <ele>67.6</ele>
        <time>2021-02-07T15:42:00Z</time>
      </trkpt>
      <trkpt lat="43.61099" lon="3.8475">
        <ele>67.4</ele>
        <time>2021-02-07T15:42:01Z</time>
      </trkpt>
      <trkpt lat="43.61098" lon="3.84756">
        <ele>67.5</ele>
        <time>2021-02-07T15:42:02Z</time>
      </trkpt>
      <trkpt lat="43.61096" lon="3.84763">
        <ele>67.5</ele>
        <time>2021-02-07T15:42:03Z</time>
      </trkpt>
      <trkpt lat="43.61095" lon="3.84769">
        <ele>67.5</ele>
        <time>2021-02-07T15:42:04Z</time>
      </trkpt>
      <trkpt lat="43.61093" lon="3.84775">
        <ele>73</ele>
        <time>2021-02-07T15:42:05Z</time>
      </trkpt>
      <trkpt lat="43.61091" lon="3.84781">
        <ele>67.3</ele>
        <time>2021-02-07T15:42:06Z</time>
      </trkpt>
      <trkpt lat="43.6109" lon="3.84787">
        <ele>67.2</ele>
        <time>2021-02-07T15:42:07Z</time>
      </trkpt>
      <trkpt lat="43.61089" lon="3.84794">
        <ele>67.2</ele>
        <time>2021-02-07T15:42:08Z</time>
      </trkpt>
      <trkpt lat="43.61087" lon="3.848">
        <ele>67.1</ele>
        <time>2021-02-07T15:42:09Z</time>
      </trkpt>
      <trkpt lat="43.61086" lon="3.84806">
        <ele>67.1</ele>
        <time>2021-02-07T15:42:10Z</time>
      </trkpt>
      <trkpt lat="43.61084" lon="3.84812">
        <ele>66.8</ele>
        <time>2021-02-07T15:42:11Z</time>
      </trkpt>
      <trkpt lat="43.61083" lon="3.84818">
        <ele>66.6</ele>
        <time>2021-02-07T15:42:12Z</time>
      </trkpt>
      <trkpt lat="43.61082" lon="3.84824">
        <ele>66.4</ele>
        <time>2021-02-07T15:42:13Z</time>
      </trkpt>
      <trkpt lat="43.61081" lon="3.8483">
        <ele>66.3</ele>
        <time>2021-02-07T15:42:14Z</time>
      </trkpt>
      <trkpt lat="43.6108" lon="3.84835">
        <ele>66.2</ele>
        <time>2021-02-07T15:42:15Z</time>
      </trkpt>
      <trkpt lat="43.61079" lon="3.84841">
        <ele>72</ele>
        <time>2021-02-07T15:42:16Z</time>
      </trkpt>
      <trkpt lat="43.61078" lon="3.84847">
        <ele>66.3</ele>
        <time>2021-02-07T15:42:17Z</time>
      </trkpt>
      <trkpt lat="43.61077" lon="3.84852">
        <ele>66.3</ele>
        <time>2021-02-07T15:42:18Z</time>
      </trkpt>
      <trkpt lat="43.61076" lon="3.84858">
        <ele>66.3</ele>
        <time>2021-02-07T15:42:19Z</time>
      </trkpt>
      <trkpt lat="43.61075" lon="3.84864">
        <ele>66.3</ele>
        <time>2021-02-07T15:42:20Z</time>
      </trkpt>
      <trkpt lat="43.61074" lon="3.8487">
        <ele>66.2</ele>
        <time>2021-02-07T15:42:21Z</time>
      </trkpt>
      <trkpt lat="43.61073" lon="3.84876">
        <ele>66.2</ele>
        <time>2021-02-07T15:42:22Z</time>
      </trkpt>
      <trkpt lat="43.61072" lon="3.84882">
        <ele>66.1</ele>
        <time>2021-02-07T15:42:23Z</time>
      </trkpt>
      <trkpt lat="43.61071" lon="3.84888">
        <ele>66</ele>
        <time>2021-02-07T15:42:24Z</time>
      </trkpt>
      <trkpt lat="43.6107" lon="3.84894">
        <ele>70</ele>
        <time>2021-02-07T15:42:25Z</time>
      </trkpt>
      <trkpt lat="43.61068" lon="3.84901">
        <ele>66</ele>
        <time>2021-02-07T15:42:26Z</time>
      </trkpt>
      <trkpt lat="43.61067" lon="3.84908">
        <ele>66</ele>
        <time>2021-02-07T15:42:27Z</time>
      </trkpt>
      <trkpt lat="43.61065" lon="3.84915">
        <ele>66</ele>
        <time>2021-02-07T15:42:28Z</time>
      </trkpt>
      <trkpt lat="43.61063" lon="3.84922">
        <ele>66</ele>
        <time>2021-02-07T15:42:29Z</time>
      </trkpt>
      <trkpt lat="43.61062" lon="3.84928">
        <ele>66</ele>
        <time>2021-02-07T15:42:30Z</time>
      </trkpt>
      <trkpt lat="43.61059" lon="3.84935">
        <ele>66</ele>
        <time>2021-02-07T15:42:31Z</time>
      </trkpt>
      <trkpt lat="43.61057" lon="3.84942">
        <ele>66</ele>
        <time>2021-02-07T15:42:32Z</time>
      </trkpt>
      <trkpt lat="43.61055" lon="3.84949">
        <ele>66</ele>
        <time>2021-02-07T15:42:33Z</time>
      </trkpt>
      <trkpt lat="43.61052" lon="3.84956">
        <ele>66</ele>
        <time>2021-02-07T15:42:34Z</time>
      </trkpt>
      <trkpt lat="43.6105" lon="3.84963">
        <ele>69</ele>
        <time>2021-02-07T15:42:35Z</time>
      </trkpt>
      <trkpt lat="43.61048" lon="3.8497">
        <ele>66</ele>
        <time>2021-02-07T15:42:36Z</time>
      </trkpt>
      <trkpt lat="43.61046" lon="3.84977">
        <ele>65.9</ele>
        <time>2021-02-07T15:42:37Z</time>
      </trkpt>
      <trkpt lat="43.61045" lon="3.84984">
        <ele>65.9</ele>
        <time>2021-02-07T15:42:38Z</time>
      </trkpt>
      <trkpt lat="43.61043" lon="3.84992">
        <ele>65.9</ele>
        <time>2021-02-07T15:42:39Z</time>
      </trkpt>
      <trkpt lat="43.61042" lon="3.84999">
        <ele>66</ele>
        <time>2021-02-07T15:42:40Z</time>
      </trkpt>
      <trkpt lat="43.6104" lon="3.85007">
        <ele>66</ele>
        <time>2021-02-07T15:42:41Z</time>
      </trkpt>
      <trkpt lat="43.61039" lon="3.85014">
        <ele>65.9</ele>
        <time>2021-02-07T15:42:42Z</time>
      </trkpt>
      <trkpt lat="43.61037" lon="3.85021">
        <ele>65.8</ele>
        <time>2021-02-07T15:42:43Z</time>
      </trkpt>
      <trkpt lat="43.61036" lon="3.85029">
        <ele>65.7</ele>
        <time>2021-02-07T15:42:44Z</time>
      </trkpt>
      <trkpt lat="43.61035" lon="3.85036">
        <ele>69</ele>
        <time>2021-02-07T15:42:45Z</time>
      </trkpt>
      <trkpt lat="43.61035" lon="3.85043">
        <ele>65.7</ele>
        <time>2021-02-07T15:42:46Z</time>
      </trkpt>
      <trkpt lat="43.61034" lon="3.8505">
        <ele>65.8</ele>
        <time>2021-02-07T15:42:47Z</time>
      </trkpt>
      <trkpt lat="43.61033" lon="3.85056">
        <ele>65.8</ele>
        <time>2021-02-07T15:42:48Z</time>
      </trkpt>
      <trkpt lat="43.61032" lon="3.85063">
        <ele>65.7</ele>
        <time>2021-02-07T15:42:49Z</time>
      </trkpt>
      <trkpt lat="43.61031" lon="3.85069">
        <ele>65.5</ele>
        <time>2021-02-07T15:42:50Z</time>
      </trkpt>
      <trkpt lat="43.61031" lon="3.85075">
        <ele>65.3</ele>
        <time>2021-02-07T15:42:51Z</time>
      </trkpt>
      <trkpt lat="43.6103" lon="3.85082">
        <ele>65.1</ele>
        <time>2021-02-07T15:42:52Z</time>
      </trkpt>
      <trkpt lat="43.61029" lon="3.85088">
        <ele>64.9</ele>
        <time>2021-02-07T15:42:53Z</time>
      </trkpt>
      <trkpt lat="43.61028" lon="3.85094">
        <ele>64.6</ele>
        <time>2021-02-07T15:42:54Z</time>
      </trkpt>
      <trkpt lat="43.61027" lon="3.85098">
        <ele>69</ele>
        <time>2021-02-07T15:42:55Z</time>
      </trkpt>
      <trkpt lat="43.61027" lon="3.85102">
        <ele>64.3</ele>
        <time>2021-02-07T15:42:56Z</time>
      </trkpt>
      <trkpt lat="43.61027" lon="3.85105">
        <ele>64.2</ele>
        <time>2021-02-07T15:42:57Z</time>
      </trkpt>
      <trkpt lat="43.61026" lon="3.85109">
        <ele>64.1</ele>
        <time>2021-02-07T15:42:58Z</time>
      </trkpt>
      <trkpt lat="43.61025" lon="3.85114">
        <ele>64.1</ele>
        <time>2021-02-07T15:42:59Z</time>
      </trkpt>
      <trkpt lat="43.61024" lon="3.85119">
        <ele>64.1</ele>
        <time>2021-02-07T15:43:00Z</time>
      </trkpt>
      <trkpt lat="43.61023" lon="3.85124">
        <ele>64.2</ele>
        <time>2021-02-07T15:43:01Z</time>
      </trkpt>
      <trkpt lat="43.61022" lon="3.8513">
        <ele>64.2</ele>
        <time>2021-02-07T15:43:02Z</time>
      </trkpt>
      <trkpt lat="43.61022" lon="3.85136">
        <ele>64.2</ele>
        <time>2021-02-07T15:43:03Z</time>
      </trkpt>
      <trkpt lat="43.61021" lon="3.85143">
        <ele>64.3</ele>
        <time>2021-02-07T15:43:04Z</time>
      </trkpt>
      <trkpt lat="43.6102" lon="3.85149">
        <ele>69</ele>
        <time>2021-02-07T15:43:05Z</time>
      </trkpt>
      <trkpt lat="43.6102" lon="3.85155">
        <ele>64.4</ele>
        <time>2021-02-07T15:43:06Z</time>
      </trkpt>
      <trkpt lat="43.6102" lon="3.85162">
        <ele>64.5</ele>
        <time>2021-02-07T15:43:07Z</time>
      </trkpt>
      <trkpt lat="43.61019" lon="3.85169">
        <ele>64.6</ele>
        <time>2021-02-07T15:43:08Z</time>
      </trkpt>
      <trkpt lat="43.61019" lon="3.85176">
        <ele>64.6</ele>
        <time>2021-02-07T15:43:09Z</time>
      </trkpt>
      <trkpt lat="43.61019" lon="3.85183">
        <ele>64.6</ele>
        <time>2021-02-07T15:43:10Z</time>
      </trkpt>
      <trkpt lat="43.61018" lon="3.8519">
        <ele>64.7</ele>
        <time>2021-02-07T15:43:11Z</time>
      </trkpt>
      <trkpt lat="43.61018" lon="3.85197">
        <ele>64.6</ele>
        <time>2021-02-07T15:43:12Z</time>
      </trkpt>
      <trkpt lat="43.61018" lon="3.85204">
        <ele>64.5</ele>
        <time>2021-02-07T15:43:13Z</time>
      </trkpt>
      <trkpt lat="43.61018" lon="3.85211">
        <ele>64.3</ele>
        <time>2021-02-07T15:43:14Z</time>
      </trkpt>
      <trkpt lat="43.61018" lon="3.85218">
        <ele>70</ele>
        <time>2021-02-07T15:43:15Z</time>
      </trkpt>
      <trkpt lat="43.61017" lon="3.85225">
        <ele>64</ele>
        <time>2021-02-07T15:43:16Z</time>
      </trkpt>
      <trkpt lat="43.61016" lon="3.85232">
        <ele>63.9</ele>
        <time>2021-02-07T15:43:17Z</time>
      </trkpt>
      <trkpt lat="43.61015" lon="3.85238">
        <ele>64</ele>
        <time>2021-02-07T15:43:18Z</time>
      </trkpt>
      <trkpt lat="43.61014" lon="3.85245">
        <ele>64</ele>
        <time>2021-02-07T15:43:19Z</time>
      </trkpt>
      <trkpt lat="43.61014" lon="3.85251">
        <ele>64</ele>
        <time>2021-02-07T15:43:20Z</time>
      </trkpt>
      <trkpt lat="43.61014" lon="3.85258">
        <ele>63.8</ele>
        <time>2021-02-07T15:43:21Z</time>
      </trkpt>
      <trkpt lat="43.61014" lon="3.85264">
        <ele>63.7</ele>
        <time>2021-02-07T15:43:22Z</time>
      </trkpt>
      <trkpt lat="43.61014" lon="3.85271">
        <ele>63.6</ele>
        <time>2021-02-07T15:43:23Z</time>
      </trkpt>
      <trkpt lat="43.61014" lon="3.85277">
        <ele>63.5</ele>
        <time>2021-02-07T15:43:24Z</time>
      </trkpt>
      <trkpt lat="43.61014" lon="3.85283">
        <ele>69</ele>
        <time>2021-02-07T15:43:25Z</time>
      </trkpt>
      <trkpt lat="43.61014" lon="3.8529">
        <ele>63.5</ele>
        <time>2021-02-07T15:43:26Z</time>
      </trkpt>
      <trkpt lat="43.61013" lon="3.85296">
        <ele>63.6</ele>
        <time>2021-02-07T15:43:27Z</time>
      </trkpt>
      <trkpt lat="43.61013" lon="3.85302">
        <ele>63.6</ele>
        <time>2021-02-07T15:43:28Z</time>
      </trkpt>
      <trkpt lat="43.61013" lon="3.85307">
        <ele>63.6</ele>
        <time>2021-02-07T15:43:29Z</time>
      </trkpt>
      <trkpt lat="43.61012" lon="3.85313">
        <ele>63.6</ele>
        <time>2021-02-07T15:43:30Z</time>
      </trkpt>
      <trkpt lat="43.61012" lon="3.85317">
        <ele>63.5</ele>
        <time>2021-02-07T15:43:31Z</time>
      </trkpt>
      <trkpt lat="43.61012" lon="3.8532">
        <ele>63.4</ele>
        <time>2021-02-07T15:43:32Z</time>
      </trkpt>
      <trkpt lat="43.61011" lon="3.85324">
        <ele>63.4</ele>
        <time>2021-02-07T15:43:34Z</time>
      </trkpt>
      <trkpt lat="43.6101" lon="3.85327">
        <ele>63.4</ele>
        <time>2021-02-07T15:43:37Z</time>
      </trkpt>
      <trkpt lat="43.6101" lon="3.85331">
        <ele>63.3</ele>
        <time>2021-02-07T15:43:39Z</time>
      </trkpt>
      <trkpt lat="43.6101" lon="3.85334">
        <ele>63.3</ele>
        <time>2021-02-07T15:43:40Z</time>
      </trkpt>
      <trkpt lat="43.6101" lon="3.85337">
        <ele>63.2</ele>
        <time>2021-02-07T15:43:41Z</time>
      </trkpt>
      <trkpt lat="43.6101" lon="3.85341">
        <ele>63.1</ele>
        <time>2021-02-07T15:43:42Z</time>
      </trkpt>
      <trkpt lat="43.6101" lon="3.85346">
        <ele>63</ele>
        <time>2021-02-07T15:43:43Z</time>
      </trkpt>
      <trkpt lat="43.6101" lon="3.85351">
        <ele>62.9</ele>
        <time>2021-02-07T15:43:44Z</time>
      </trkpt>
      <trkpt lat="43.61011" lon="3.85356">
        <ele>69</ele>
        <time>2021-02-07T15:43:45Z</time>
      </trkpt>
      <trkpt lat="43.61012" lon="3.85362">
        <ele>62.6</ele>
        <time>2021-02-07T15:43:46Z</time>
      </trkpt>
      <trkpt lat="43.61012" lon="3.85368">
        <ele>62.7</ele>
        <time>2021-02-07T15:43:47Z</time>
      </trkpt>
      <trkpt lat="43.61012" lon="3.85374">
        <ele>62.8</ele>
        <time>2021-02-07T15:43:48Z</time>
      </trkpt>
      <trkpt lat="43.61012" lon="3.8538">
        <ele>63</ele>
        <time>2021-02-07T15:43:49Z</time>
      </trkpt>
      <trkpt lat="43.61012" lon="3.85386">
        <ele>63.1</ele>
        <time>2021-02-07T15:43:50Z</time>
      </trkpt>
      <trkpt lat="43.61012" lon="3.85393">
        <ele>63.1</ele>
        <time>2021-02-07T15:43:51Z</time>
      </trkpt>
      <trkpt lat="43.61012" lon="3.85399">
        <ele>63</ele>
        <time>2021-02-07T15:43:52Z</time>
      </trkpt>
      <trkpt lat="43.61012" lon="3.85406">
        <ele>62.9</ele>
        <time>2021-02-07T15:43:53Z</time>
      </trkpt>
      <trkpt lat="43.61013" lon="3.85413">
        <ele>62.7</ele>
        <time>2021-02-07T15:43:54Z</time>
      </trkpt>
      <trkpt lat="43.61013" lon="3.8542">
        <ele>67</ele>
        <time>2021-02-07T15:43:55Z</time>
      </trkpt>
      <trkpt lat="43.61014" lon="3.85427">
        <ele>62.5</ele>
        <time>2021-02-07T15:43:56Z</time>
      </trkpt>
      <trkpt lat="43.61014" lon="3.85434">
        <ele>62.5</ele>
        <time>2021-02-07T15:43:57Z</time>
      </trkpt>
      <trkpt lat="43.61015" lon="3.85441">
        <ele>62.4</ele>
        <time>2021-02-07T15:43:58Z</time>
      </trkpt>
      <trkpt lat="43.61015" lon="3.85448">
        <ele>62.4</ele>
        <time>2021-02-07T15:43:59Z</time>
      </trkpt>
      <trkpt lat="43.61016" lon="3.85455">
        <ele>62.3</ele>
        <time>2021-02-07T15:44:00Z</time>
      </trkpt>
      <trkpt lat="43.61017" lon="3.85462">
        <ele>62.2</ele>
        <time>2021-02-07T15:44:01Z</time>
      </trkpt>
      <trkpt lat="43.61018" lon="3.85469">
        <ele>62.1</ele>
        <time>2021-02-07T15:44:02Z</time>
      </trkpt>
      <trkpt lat="43.61019" lon="3.85475">
        <ele>61.9</ele>
        <time>2021-02-07T15:44:03Z</time>
      </trkpt>
      <trkpt lat="43.61019" lon="3.85482">
        <ele>61.7</ele>
        <time>2021-02-07T15:44:04Z</time>
      </trkpt>
      <trkpt lat="43.6102" lon="3.85488">
        <ele>66</ele>
        <time>2021-02-07T15:44:05Z</time>
      </trkpt>
      <trkpt lat="43.61021" lon="3.85495">
        <ele>61.1</ele>
        <time>2021-02-07T15:44:06Z</time>
      </trkpt>
      <trkpt lat="43.61022" lon="3.85501">
        <ele>60.8</ele>
        <time>2021-02-07T15:44:07Z</time>
      </trkpt>
      <trkpt lat="43.61023" lon="3.85507">
        <ele>60.6</ele>
        <time>2021-02-07T15:44:08Z</time>
      </trkpt>
      <trkpt lat="43.61023" lon="3.85513">
        <ele>60.6</ele>
        <time>2021-02-07T15:44:09Z</time>
      </trkpt>
      <trkpt lat="43.61024" lon="3.85519">
        <ele>60.5</ele>
        <time>2021-02-07T15:44:10Z</time>
      </trkpt>
      <trkpt lat="43.61025" lon="3.85525">
        <ele>60.3</ele>
        <time>2021-02-07T15:44:11Z</time>
      </trkpt>
      <trkpt lat="43.61026" lon="3.85532">
        <ele>60.2</ele>
        <time>2021-02-07T15:44:12Z</time>
      </trkpt>
      <trkpt lat="43.61027" lon="3.85538">
        <ele>60.1</ele>
        <time>2021-02-07T15:44:13Z</time>
      </trkpt>
      <trkpt lat="43.61028" lon="3.85544">
        <ele>60</ele>
        <time>2021-02-07T15:44:14Z</time>
      </trkpt>
      <trkpt lat="43.61028" lon="3.85549">
        <ele>65</ele>
        <time>2021-02-07T15:44:15Z</time>
      </trkpt>
      <trkpt lat="43.61028" lon="3.85555">
        <ele>60</ele>
        <time>2021-02-07T15:44:16Z</time>
      </trkpt>
      <trkpt lat="43.61028" lon="3.85561">
        <ele>60</ele>
        <time>2021-02-07T15:44:17Z</time>
      </trkpt>
      <trkpt lat="43.61029" lon="3.85566">
        <ele>59.9</ele>
        <time>2021-02-07T15:44:18Z</time>
      </trkpt>
      <trkpt lat="43.61029" lon="3.85572">
        <ele>59.9</ele>
        <time>2021-02-07T15:44:19Z</time>
      </trkpt>
      <trkpt lat="43.6103" lon="3.85578">
        <ele>59.8</ele>
        <time>2021-02-07T15:44:20Z</time>
      </trkpt>
      <trkpt lat="43.6103" lon="3.85583">
        <ele>59.8</ele>
        <time>2021-02-07T15:44:21Z</time>
      </trkpt>
      <trkpt lat="43.61031" lon="3.85589">
        <ele>59.8</ele>
        <time>2021-02-07T15:44:22Z</time>
      </trkpt>
      <trkpt lat="43.61031" lon="3.85595">
        <ele>59.8</ele>
        <time>2021-02-07T15:44:23Z</time>
      </trkpt>
      <trkpt lat="43.61031" lon="3.856">
        <ele>59.8</ele>
        <time>2021-02-07T15:44:24Z</time>
      </trkpt>
      <trkpt lat="43.61032" lon="3.85606">
        <ele>59.7</ele>
        <time>2021-02-07T15:44:25Z</time>
      </trkpt>
      <trkpt lat="43.61034" lon="3.85612">
        <ele>64</ele>
        <time>2021-02-07T15:44:26Z</time>
      </trkpt>
      <trkpt lat="43.61035" lon="3.85618">
        <ele>59.8</ele>
        <time>2021-02-07T15:44:27Z</time>
      </trkpt>
      <trkpt lat="43.61036" lon="3.85625">
        <ele>60.1</ele>
        <time>2021-02-07T15:44:28Z</time>
      </trkpt>
      <trkpt lat="43.61036" lon="3.85631">
        <ele>60.4</ele>
        <time>2021-02-07T15:44:29Z</time>
      </trkpt>
      <trkpt lat="43.61036" lon="3.85638">
        <ele>60.8</ele>
        <time>2021-02-07T15:44:30Z</time>
      </trkpt>
      <trkpt lat="43.61037" lon="3.85645">
        <ele>60.7</ele>
        <time>2021-02-07T15:44:31Z</time>
      </trkpt>
      <trkpt lat="43.61037" lon="3.85652">
        <ele>60.8</ele>
        <time>2021-02-07T15:44:32Z</time>
      </trkpt>
      <trkpt lat="43.61038" lon="3.85658">
        <ele>60.8</ele>
        <time>2021-02-07T15:44:33Z</time>
      </trkpt>
      <trkpt lat="43.61039" lon="3.85665">
        <ele>60.8</ele>
        <time>2021-02-07T15:44:34Z</time>
      </trkpt>
      <trkpt lat="43.6104" lon="3.85671">
        <ele>64</ele>
        <time>2021-02-07T15:44:35Z</time>
      </trkpt>
      <trkpt lat="43.6104" lon="3.85678">
        <ele>61</ele>
        <time>2021-02-07T15:44:36Z</time>
      </trkpt>
      <trkpt lat="43.61041" lon="3.85684">
        <ele>61.1</ele>
        <time>2021-02-07T15:44:37Z</time>
      </trkpt>
      <trkpt lat="43.61042" lon="3.85691">
        <ele>61.4</ele>
        <time>2021-02-07T15:44:38Z</time>
      </trkpt>
      <trkpt lat="43.61043" lon="3.85697">
        <ele>61.4</ele>
        <time>2021-02-07T15:44:39Z</time>
      </trkpt>
      <trkpt lat="43.61043" lon="3.85704">
        <ele>61.2</ele>
        <time>2021-02-07T15:44:40Z</time>
      </trkpt>
      <trkpt lat="43.61044" lon="3.8571">
        <ele>60.9</ele>
        <time>2021-02-07T15:44:41Z</time>
      </trkpt>
      <trkpt lat="43.61044" lon="3.85717">
        <ele>60.6</ele>
        <time>2021-02-07T15:44:42Z</time>
      </trkpt>
      <trkpt lat="43.61045" lon="3.85723">
        <ele>60.4</ele>
        <time>2021-02-07T15:44:43Z</time>
      </trkpt>
      <trkpt lat="43.61046" lon="3.8573">
        <ele>60.4</ele>
        <time>2021-02-07T15:44:44Z</time>
      </trkpt>
      <trkpt lat="43.61047" lon="3.85736">
        <ele>64</ele>
        <time>2021-02-07T15:44:45Z</time>
      </trkpt>
      <trkpt lat="43.61048" lon="3.85741">
        <ele>60.5</ele>
        <time>2021-02-07T15:44:46Z</time>
      </trkpt>
      <trkpt lat="43.61048" lon="3.85748">
        <ele>60.5</ele>
        <time>2021-02-07T15:44:47Z</time>
      </trkpt>
      <trkpt lat="43.61049" lon="3.85754">
        <ele>60.5</ele>
        <time>2021-02-07T15:44:48Z</time>
      </trkpt>
      <trkpt lat="43.6105" lon="3.8576">
        <ele>60.6</ele>
        <time>2021-02-07T15:44:49Z</time>
      </trkpt>
      <trkpt lat="43.61051" lon="3.85767">
        <ele>60.7</ele>
        <time>2021-02-07T15:44:50Z</time>
      </trkpt>
      <trkpt lat="43.61053" lon="3.85774">
        <ele>60.9</ele>
        <time>2021-02-07T15:44:51Z</time>
      </trkpt>
      <trkpt lat="43.61054" lon="3.8578">
        <ele>61</ele>
        <time>2021-02-07T15:44:52Z</time>
      </trkpt>
      <trkpt lat="43.61055" lon="3.85787">
        <ele>61</ele>
        <time>2021-02-07T15:44:53Z</time>
      </trkpt>
      <trkpt lat="43.61055" lon="3.85793">
        <ele>61</ele>
        <time>2021-02-07T15:44:54Z</time>
      </trkpt>
      <trkpt lat="43.61056" lon="3.858">
        <ele>61</ele>
        <time>2021-02-07T15:44:55Z</time>
      </trkpt>
      <trkpt lat="43.61056" lon="3.85806">
        <ele>65</ele>
        <time>2021-02-07T15:44:56Z</time>
      </trkpt>
      <trkpt lat="43.61056" lon="3.85812">
        <ele>60.8</ele>
        <time>2021-02-07T15:44:57Z</time>
      </trkpt>
      <trkpt lat="43.61055" lon="3.85818">
        <ele>60.6</ele>
        <time>2021-02-07T15:44:58Z</time>
      </trkpt>
      <trkpt lat="43.61054" lon="3.85824">
        <ele>60.3</ele>
        <time>2021-02-07T15:44:59Z</time>
      </trkpt>
      <trkpt lat="43.61053" lon="3.85831">
        <ele>60.1</ele>
        <time>2021-02-07T15:45:00Z</time>
      </trkpt>
      <trkpt lat="43.61052" lon="3.85837">
        <ele>59.9</ele>
        <time>2021-02-07T15:45:01Z</time>
      </trkpt>
      <trkpt lat="43.6105" lon="3.85843">
        <ele>59.7</ele>
        <time>2021-02-07T15:45:02Z</time>
      </trkpt>
      <trkpt lat="43.61048" lon="3.85849">
        <ele>59.4</ele>
        <time>2021-02-07T15:45:03Z</time>
      </trkpt>
      <trkpt lat="43.61046" lon="3.85856">
        <ele>59.2</ele>
        <time>2021-02-07T15:45:04Z</time>
      </trkpt>
      <trkpt lat="43.61044" lon="3.85862">
        <ele>59</ele>
        <time>2021-02-07T15:45:05Z</time>
      </trkpt>
      <trkpt lat="43.61043" lon="3.85869">
        <ele>65</ele>
        <time>2021-02-07T15:45:06Z</time>
      </trkpt>
      <trkpt lat="43.61042" lon="3.85876">
        <ele>59.3</ele>
        <time>2021-02-07T15:45:07Z</time>
      </trkpt>
      <trkpt lat="43.6104" lon="3.85884">
        <ele>59.4</ele>
        <time>2021-02-07T15:45:08Z</time>
      </trkpt>
      <trkpt lat="43.61039" lon="3.85892">
        <ele>59.3</ele>
        <time>2021-02-07T15:45:09Z</time>
      </trkpt>
      <trkpt lat="43.61038" lon="3.859">
        <ele>58.9</ele>
        <time>2021-02-07T15:45:10Z</time>
      </trkpt>
      <trkpt lat="43.61037" lon="3.85908">
        <ele>58.4</ele>
        <time>2021-02-07T15:45:11Z</time>
      </trkpt>
      <trkpt lat="43.61036" lon="3.85917">
        <ele>57.9</ele>
        <time>2021-02-07T15:45:12Z</time>
      </trkpt>
      <trkpt lat="43.61034" lon="3.85925">
        <ele>57.7</ele>
        <time>2021-02-07T15:45:13Z</time>
      </trkpt>
      <trkpt lat="43.61032" lon="3.85934">
        <ele>57.5</ele>
        <time>2021-02-07T15:45:14Z</time>
      </trkpt>
      <trkpt lat="43.61031" lon="3.85943">
        <ele>65</ele>
        <time>2021-02-07T15:45:15Z</time>
      </trkpt>
      <trkpt lat="43.6103" lon="3.85952">
        <ele>57.2</ele>
        <time>2021-02-07T15:45:16Z</time>
      </trkpt>
      <trkpt lat="43.61029" lon="3.85961">
        <ele>57.1</ele>
        <time>2021-02-07T15:45:17Z</time>
      </trkpt>
      <trkpt lat="43.61027" lon="3.85971">
        <ele>57</ele>
        <time>2021-02-07T15:45:18Z</time>
      </trkpt>
      <trkpt lat="43.61025" lon="3.8598">
        <ele>57.1</ele>
        <time>2021-02-07T15:45:19Z</time>
      </trkpt>
      <trkpt lat="43.61024" lon="3.8599">
        <ele>57.1</ele>
        <time>2021-02-07T15:45:20Z</time>
      </trkpt>
      <trkpt lat="43.61023" lon="3.86001">
        <ele>57.1</ele>
        <time>2021-02-07T15:45:21Z</time>
      </trkpt>
      <trkpt lat="43.61022" lon="3.86011">
        <ele>56</ele>
        <time>2021-02-07T15:45:22Z</time>
      </trkpt>
      <trkpt lat="43.61021" lon="3.86022">
        <ele>54.9</ele>
        <time>2021-02-07T15:45:23Z</time>
      </trkpt>
      <trkpt lat="43.61019" lon="3.86033">
        <ele>54.4</ele>
        <time>2021-02-07T15:45:24Z</time>
      </trkpt>
      <trkpt lat="43.61017" lon="3.86044">
        <ele>65</ele>
        <time>2021-02-07T15:45:25Z</time>
      </trkpt>
      <trkpt lat="43.61015" lon="3.86054">
        <ele>55</ele>
        <time>2021-02-07T15:45:26Z</time>
      </trkpt>
      <trkpt lat="43.61013" lon="3.86065">
        <ele>54.5</ele>
        <time>2021-02-07T15:45:27Z</time>
      </trkpt>
      <trkpt lat="43.61011" lon="3.86076">
        <ele>53.8</ele>
        <time>2021-02-07T15:45:28Z</time>
      </trkpt>
      <trkpt lat="43.6101" lon="3.86087">
        <ele>53</ele>
        <time>2021-02-07T15:45:29Z</time>
      </trkpt>
      <trkpt lat="43.61008" lon="3.86099">
        <ele>51.6</ele>
        <time>2021-02-07T15:45:30Z</time>
      </trkpt>
      <trkpt lat="43.61007" lon="3.8611">
        <ele>50.4</ele>
        <time>2021-02-07T15:45:31Z</time>
      </trkpt>
      <trkpt lat="43.61005" lon="3.86122">
        <ele>49.7</ele>
        <time>2021-02-07T15:45:32Z</time>
      </trkpt>
      <trkpt lat="43.61004" lon="3.86134">
        <ele>49.2</ele>
        <time>2021-02-07T15:45:33Z</time>
      </trkpt>
      <trkpt lat="43.61003" lon="3.86145">
        <ele>48.8</ele>
        <time>2021-02-07T15:45:34Z</time>
      </trkpt>
      <trkpt lat="43.61001" lon="3.86157">
        <ele>60</ele>
        <time>2021-02-07T15:45:35Z</time>
      </trkpt>
      <trkpt lat="43.61" lon="3.86169">
        <ele>47.9</ele>
        <time>2021-02-07T15:45:36Z</time>
      </trkpt>
      <trkpt lat="43.60999" lon="3.86182">
        <ele>47.5</ele>
        <time>2021-02-07T15:45:37Z</time>
      </trkpt>
      <trkpt lat="43.60998" lon="3.86194">
        <ele>47.2</ele>
        <time>2021-02-07T15:45:38Z</time>
      </trkpt>
      <trkpt lat="43.60997" lon="3.86206">
        <ele>46.7</ele>
        <time>2021-02-07T15:45:39Z</time>
      </trkpt>
      <trkpt lat="43.60996" lon="3.86219">
        <ele>46.1</ele>
        <time>2021-02-07T15:45:40Z</time>
      </trkpt>
      <trkpt lat="43.60994" lon="3.86231">
        <ele>45.5</ele>
        <time>2021-02-07T15:45:41Z</time>
      </trkpt>
      <trkpt lat="43.60992" lon="3.86244">
        <ele>44.9</ele>
        <time>2021-02-07T15:45:42Z</time>
      </trkpt>
      <trkpt lat="43.6099" lon="3.86257">
        <ele>44.7</ele>
        <time>2021-02-07T15:45:43Z</time>
      </trkpt>
      <trkpt lat="43.60988" lon="3.86269">
        <ele>44.7</ele>
        <time>2021-02-07T15:45:44Z</time>
      </trkpt>
      <trkpt lat="43.60987" lon="3.86282">
        <ele>56</ele>
        <time>2021-02-07T15:45:45Z</time>
      </trkpt>
      <trkpt lat="43.60985" lon="3.86295">
        <ele>56</ele>
        <time>2021-02-07T15:45:46Z</time>
      </trkpt>
      <trkpt lat="43.60983" lon="3.86308">
        <ele>42.8</ele>
        <time>2021-02-07T15:45:47Z</time>
      </trkpt>
      <trkpt lat="43.60981" lon="3.86321">
        <ele>41.9</ele>
        <time>2021-02-07T15:45:48Z</time>
      </trkpt>
      <trkpt lat="43.60979" lon="3.86334">
        <ele>41</ele>
        <time>2021-02-07T15:45:49Z</time>
      </trkpt>
      <trkpt lat="43.60977" lon="3.86347">
        <ele>40.5</ele>
        <time>2021-02-07T15:45:50Z</time>
      </trkpt>
      <trkpt lat="43.60975" lon="3.8636">
        <ele>40</ele>
        <time>2021-02-07T15:45:51Z</time>
      </trkpt>
      <trkpt lat="43.60973" lon="3.86373">
        <ele>40</ele>
        <time>2021-02-07T15:45:52Z</time>
      </trkpt>
      <trkpt lat="43.60971" lon="3.86386">
        <ele>39.9</ele>
        <time>2021-02-07T15:45:53Z</time>
      </trkpt>
      <trkpt lat="43.60969" lon="3.86398">
        <ele>39.5</ele>
        <time>2021-02-07T15:45:54Z</time>
      </trkpt>
      <trkpt lat="43.60966" lon="3.86411">
        <ele>38.9</ele>
        <time>2021-02-07T15:45:55Z</time>
      </trkpt>
      <trkpt lat="43.60964" lon="3.86423">
        <ele>53</ele>
        <time>2021-02-07T15:45:56Z</time>
      </trkpt>
      <trkpt lat="43.60962" lon="3.86434">
        <ele>38</ele>
        <time>2021-02-07T15:45:57Z</time>
      </trkpt>
      <trkpt lat="43.6096" lon="3.86446">
        <ele>37.6</ele>
        <time>2021-02-07T15:45:58Z</time>
      </trkpt>
      <trkpt lat="43.60958" lon="3.86458">
        <ele>37.5</ele>
        <time>2021-02-07T15:45:59Z</time>
      </trkpt>
      <trkpt lat="43.60955" lon="3.8647">
        <ele>37.4</ele>
        <time>2021-02-07T15:46:00Z</time>
      </trkpt>
      <trkpt lat="43.60953" lon="3.86482">
        <ele>37.2</ele>
        <time>2021-02-07T15:46:01Z</time>
      </trkpt>
      <trkpt lat="43.6095" lon="3.86494">
        <ele>37</ele>
        <time>2021-02-07T15:46:02Z</time>
      </trkpt>
      <trkpt lat="43.60948" lon="3.86505">
        <ele>36.8</ele>
        <time>2021-02-07T15:46:03Z</time>
      </trkpt>
      <trkpt lat="43.60946" lon="3.86517">
        <ele>36.4</ele>
        <time>2021-02-07T15:46:04Z</time>
      </trkpt>
      <trkpt lat="43.60945" lon="3.86529">
        <ele>49</ele>
        <time>2021-02-07T15:46:05Z</time>
      </trkpt>
      <trkpt lat="43.60943" lon="3.86541">
        <ele>36</ele>
        <time>2021-02-07T15:46:06Z</time>
      </trkpt>
      <trkpt lat="43.60941" lon="3.86552">
        <ele>36</ele>
        <time>2021-02-07T15:46:07Z</time>
      </trkpt>
      <trkpt lat="43.60939" lon="3.86563">
        <ele>35.7</ele>
        <time>2021-02-07T15:46:08Z</time>
      </trkpt>
      <trkpt lat="43.60938" lon="3.86575">
        <ele>35.3</ele>
        <time>2021-02-07T15:46:09Z</time>
      </trkpt>
      <trkpt lat="43.60937" lon="3.86586">
        <ele>35</ele>
        <time>2021-02-07T15:46:10Z</time>
      </trkpt>
      <trkpt lat="43.60935" lon="3.86597">
        <ele>35</ele>
        <time>2021-02-07T15:46:11Z</time>
      </trkpt>
      <trkpt lat="43.60934" lon="3.86608">
        <ele>35</ele>
        <time>2021-02-07T15:46:12Z</time>
      </trkpt>
      <trkpt lat="43.60932" lon="3.86619">
        <ele>34.9</ele>
        <time>2021-02-07T15:46:13Z</time>
      </trkpt>
      <trkpt lat="43.60928" lon="3.86629">
        <ele>34.6</ele>
        <time>2021-02-07T15:46:14Z</time>
      </trkpt>
      <trkpt lat="43.60926" lon="3.86639">
        <ele>34.3</ele>
        <time>2021-02-07T15:46:15Z</time>
      </trkpt>
      <trkpt lat="43.60924" lon="3.86649">
        <ele>48</ele>
        <time>2021-02-07T15:46:16Z</time>
      </trkpt>
      <trkpt lat="43.60923" lon="3.8666">
        <ele>34.1</ele>
        <time>2021-02-07T15:46:17Z</time>
      </trkpt>
      <trkpt lat="43.60922" lon="3.86668">
        <ele>34</ele>
        <time>2021-02-07T15:46:18Z</time>
      </trkpt>
      <trkpt lat="43.60919" lon="3.86675">
        <ele>34</ele>
        <time>2021-02-07T15:46:19Z</time>
      </trkpt>
      <trkpt lat="43.60916" lon="3.86681">
        <ele>34</ele>
        <time>2021-02-07T15:46:20Z</time>
      </trkpt>
      <trkpt lat="43.60914" lon="3.86687">
        <ele>33.9</ele>
        <time>2021-02-07T15:46:21Z</time>
      </trkpt>
      <trkpt lat="43.60912" lon="3.86692">
        <ele>33.8</ele>
        <time>2021-02-07T15:46:22Z</time>
      </trkpt>
      <trkpt lat="43.6091" lon="3.86697">
        <ele>33.7</ele>
        <time>2021-02-07T15:46:23Z</time>
      </trkpt>
      <trkpt lat="43.60907" lon="3.86702">
        <ele>33.5</ele>
        <time>2021-02-07T15:46:24Z</time>
      </trkpt>
      <trkpt lat="43.60905" lon="3.86708">
        <ele>46</ele>
        <time>2021-02-07T15:46:25Z</time>
      </trkpt>
      <trkpt lat="43.60903" lon="3.86714">
        <ele>33.2</ele>
        <time>2021-02-07T15:46:26Z</time>
      </trkpt>
      <trkpt lat="43.60901" lon="3.86719">
        <ele>33.1</ele>
        <time>2021-02-07T15:46:27Z</time>
      </trkpt>
      <trkpt lat="43.60898" lon="3.86725">
        <ele>33</ele>
        <time>2021-02-07T15:46:28Z</time>
      </trkpt>
      <trkpt lat="43.60894" lon="3.8673">
        <ele>33.1</ele>
        <time>2021-02-07T15:46:29Z</time>
      </trkpt>
      <trkpt lat="43.60891" lon="3.86736">
        <ele>33</ele>
        <time>2021-02-07T15:46:30Z</time>
      </trkpt>
      <trkpt lat="43.60889" lon="3.86742">
        <ele>33</ele>
        <time>2021-02-07T15:46:31Z</time>
      </trkpt>
      <trkpt lat="43.60886" lon="3.86749">
        <ele>33</ele>
        <time>2021-02-07T15:46:32Z</time>
      </trkpt>
      <trkpt lat="43.60885" lon="3.86756">
        <ele>33</ele>
        <time>2021-02-07T15:46:33Z</time>
      </trkpt>
      <trkpt lat="43.60885" lon="3.86762">
        <ele>33</ele>
        <time>2021-02-07T15:46:34Z</time>
      </trkpt>
      <trkpt lat="43.60885" lon="3.86769">
        <ele>44</ele>
        <time>2021-02-07T15:46:35Z</time>
      </trkpt>
      <trkpt lat="43.60885" lon="3.86772">
        <ele>33</ele>
        <time>2021-02-07T15:46:36Z</time>
      </trkpt>
      <trkpt lat="43.60883" lon="3.86775">
        <ele>33</ele>
        <time>2021-02-07T15:46:38Z</time>
      </trkpt>
      <trkpt lat="43.60876" lon="3.86787">
        <ele>46</ele>
        <time>2021-02-07T15:46:54Z</time>
      </trkpt>
      <trkpt lat="43.60875" lon="3.86792">
        <ele>33</ele>
        <time>2021-02-07T15:46:55Z</time>
      </trkpt>
      <trkpt lat="43.60874" lon="3.86797">
        <ele>33</ele>
        <time>2021-02-07T15:46:56Z</time>
      </trkpt>
      <trkpt lat="43.60873" lon="3.86802">
        <ele>33</ele>
        <time>2021-02-07T15:46:57Z</time>
      </trkpt>
      <trkpt lat="43.60871" lon="3.86807">
        <ele>33</ele>
        <time>2021-02-07T15:46:58Z</time>
      </trkpt>
      <trkpt lat="43.6087" lon="3.86813">
        <ele>33.1</ele>
        <time>2021-02-07T15:46:59Z</time>
      </trkpt>
      <trkpt lat="43.60869" lon="3.86819">
        <ele>33.1</ele>
        <time>2021-02-07T15:47:00Z</time>
      </trkpt>
      <trkpt lat="43.60868" lon="3.86825">
        <ele>33.2</ele>
        <time>2021-02-07T15:47:01Z</time>
      </trkpt>
      <trkpt lat="43.60867" lon="3.86831">
        <ele>33.2</ele>
        <time>2021-02-07T15:47:02Z</time>
      </trkpt>
      <trkpt lat="43.60866" lon="3.86837">
        <ele>46</ele>
        <time>2021-02-07T15:47:03Z</time>
      </trkpt>
      <trkpt lat="43.60864" lon="3.86842">
        <ele>32.8</ele>
        <time>2021-02-07T15:47:04Z</time>
      </trkpt>
      <trkpt lat="43.60863" lon="3.86848">
        <ele>32.6</ele>
        <time>2021-02-07T15:47:05Z</time>
      </trkpt>
      <trkpt lat="43.60863" lon="3.86854">
        <ele>32.4</ele>
        <time>2021-02-07T15:47:06Z</time>
      </trkpt>
      <trkpt lat="43.60863" lon="3.8686">
        <ele>32.2</ele>
        <time>2021-02-07T15:47:07Z</time>
      </trkpt>
      <trkpt lat="43.60863" lon="3.86866">
        <ele>32.1</ele>
        <time>2021-02-07T15:47:08Z</time>
      </trkpt>
      <trkpt lat="43.60862" lon="3.86871">
        <ele>32.1</ele>
        <time>2021-02-07T15:47:09Z</time>
      </trkpt>
      <trkpt lat="43.60861" lon="3.86876">
        <ele>32</ele>
        <time>2021-02-07T15:47:10Z</time>
      </trkpt>
      <trkpt lat="43.6086" lon="3.86882">
        <ele>32</ele>
        <time>2021-02-07T15:47:11Z</time>
      </trkpt>
      <trkpt lat="43.6086" lon="3.86887">
        <ele>32</ele>
        <time>2021-02-07T15:47:12Z</time>
      </trkpt>
      <trkpt lat="43.60859" lon="3.86892">
        <ele>45</ele>
        <time>2021-02-07T15:47:13Z</time>
      </trkpt>
      <trkpt lat="43.60858" lon="3.86897">
        <ele>32</ele>
        <time>2021-02-07T15:47:14Z</time>
      </trkpt>
      <trkpt lat="43.60858" lon="3.86902">
        <ele>32</ele>
        <time>2021-02-07T15:47:15Z</time>
      </trkpt>
      <trkpt lat="43.60858" lon="3.86907">
        <ele>32</ele>
        <time>2021-02-07T15:47:16Z</time>
      </trkpt>
      <trkpt lat="43.60858" lon="3.86911">
        <ele>32</ele>
        <time>2021-02-07T15:47:17Z</time>
      </trkpt>
      <trkpt lat="43.60858" lon="3.86915">
        <ele>32</ele>
        <time>2021-02-07T15:47:18Z</time>
      </trkpt>
      <trkpt lat="43.60858" lon="3.86921">
        <ele>32.1</ele>
        <time>2021-02-07T15:47:20Z</time>
      </trkpt>
      <trkpt lat="43.60857" lon="3.86925">
        <ele>32.3</ele>
        <time>2021-02-07T15:47:21Z</time>
      </trkpt>
      <trkpt lat="43.60856" lon="3.86931">
        <ele>32.4</ele>
        <time>2021-02-07T15:47:22Z</time>
      </trkpt>
      <trkpt lat="43.60855" lon="3.86936">
        <ele>45</ele>
        <time>2021-02-07T15:47:23Z</time>
      </trkpt>
      <trkpt lat="43.60854" lon="3.86942">
        <ele>32.7</ele>
        <time>2021-02-07T15:47:24Z</time>
      </trkpt>
      <trkpt lat="43.60853" lon="3.86947">
        <ele>32.7</ele>
        <time>2021-02-07T15:47:25Z</time>
      </trkpt>
      <trkpt lat="43.60852" lon="3.86953">
        <ele>32.8</ele>
        <time>2021-02-07T15:47:26Z</time>
      </trkpt>
      <trkpt lat="43.60851" lon="3.86959">
        <ele>32.8</ele>
        <time>2021-02-07T15:47:27Z</time>
      </trkpt>
      <trkpt lat="43.6085" lon="3.86965">
        <ele>32.9</ele>
        <time>2021-02-07T15:47:28Z</time>
      </trkpt>
      <trkpt lat="43.6085" lon="3.8697">
        <ele>33</ele>
        <time>2021-02-07T15:47:29Z</time>
      </trkpt>
      <trkpt lat="43.6085" lon="3.86976">
        <ele>33.1</ele>
        <time>2021-02-07T15:47:30Z</time>
      </trkpt>
      <trkpt lat="43.60849" lon="3.86982">
        <ele>33.2</ele>
        <time>2021-02-07T15:47:31Z</time>
      </trkpt>
      <trkpt lat="43.60848" lon="3.86988">
        <ele>33.3</ele>
        <time>2021-02-07T15:47:32Z</time>
      </trkpt>
      <trkpt lat="43.60848" lon="3.86993">
        <ele>45</ele>
        <time>2021-02-07T15:47:33Z</time>
      </trkpt>
      <trkpt lat="43.60848" lon="3.86998">
        <ele>33.5</ele>
        <time>2021-02-07T15:47:34Z</time>
      </trkpt>
      <trkpt lat="43.60848" lon="3.87001">
        <ele>33.5</ele>
        <time>2021-02-07T15:47:35Z</time>
      </trkpt>
      <trkpt lat="43.60848" lon="3.87005">
        <ele>33.4</ele>
        <time>2021-02-07T15:47:37Z</time>
      </trkpt>
      <trkpt lat="43.60846" lon="3.87007">
        <ele>33.3</ele>
        <time>2021-02-07T15:47:39Z</time>
      </trkpt>
      <trkpt lat="43.60845" lon="3.87011">
        <ele>33.2</ele>
        <time>2021-02-07T15:47:41Z</time>
      </trkpt>
      <trkpt lat="43.60844" lon="3.87015">
        <ele>45</ele>
        <time>2021-02-07T15:47:43Z</time>
      </trkpt>
      <trkpt lat="43.60845" lon="3.87019">
        <ele>33</ele>
        <time>2021-02-07T15:47:45Z</time>
      </trkpt>
      <trkpt lat="43.60845" lon="3.87022">
        <ele>33</ele>
        <time>2021-02-07T15:47:46Z</time>
      </trkpt>
      <trkpt lat="43.60845" lon="3.87025">
        <ele>32.9</ele>
        <time>2021-02-07T15:47:47Z</time>
      </trkpt>
      <trkpt lat="43.60846" lon="3.87028">
        <ele>32.9</ele>
        <time>2021-02-07T15:47:48Z</time>
      </trkpt>
      <trkpt lat="43.60846" lon="3.87031">
        <ele>32.9</ele>
        <time>2021-02-07T15:47:49Z</time>
      </trkpt>
      <trkpt lat="43.60846" lon="3.87034">
        <ele>32.9</ele>
        <time>2021-02-07T15:47:50Z</time>
      </trkpt>
      <trkpt lat="43.60847" lon="3.87037">
        <ele>33</ele>
        <time>2021-02-07T15:47:51Z</time>
      </trkpt>
      <trkpt lat="43.60848" lon="3.8704">
        <ele>33.1</ele>
        <time>2021-02-07T15:47:52Z</time>
      </trkpt>
      <trkpt lat="43.60847" lon="3.87044">
        <ele>45</ele>
        <time>2021-02-07T15:47:53Z</time>
      </trkpt>
      <trkpt lat="43.60847" lon="3.87047">
        <ele>33</ele>
        <time>2021-02-07T15:47:54Z</time>
      </trkpt>
      <trkpt lat="43.60847" lon="3.8705">
        <ele>33</ele>
        <time>2021-02-07T15:47:55Z</time>
      </trkpt>
      <trkpt lat="43.60847" lon="3.87053">
        <ele>33</ele>
        <time>2021-02-07T15:47:56Z</time>
      </trkpt>
      <trkpt lat="43.60846" lon="3.87056">
        <ele>32.9</ele>
        <time>2021-02-07T15:47:57Z</time>
      </trkpt>
      <trkpt lat="43.60846" lon="3.87059">
        <ele>32.9</ele>
        <time>2021-02-07T15:47:58Z</time>
      </trkpt>
      <trkpt lat="43.60845" lon="3.87062">
        <ele>32.7</ele>
        <time>2021-02-07T15:47:59Z</time>
      </trkpt>
      <trkpt lat="43.60844" lon="3.87078">
        <ele>32.5</ele>
        <time>2021-02-07T15:48:04Z</time>
      </trkpt>
      <trkpt lat="43.60841" lon="3.87094">
        <ele>32.7</ele>
        <time>2021-02-07T15:48:08Z</time>
      </trkpt>
      <trkpt lat="43.60839" lon="3.87112">
        <ele>33.2</ele>
        <time>2021-02-07T15:48:11Z</time>
      </trkpt>
      <trkpt lat="43.60838" lon="3.87125">
        <ele>45</ele>
        <time>2021-02-07T15:48:13Z</time>
      </trkpt>
      <trkpt lat="43.60836" lon="3.87141">
        <ele>33.1</ele>
        <time>2021-02-07T15:48:16Z</time>
      </trkpt>
      <trkpt lat="43.60833" lon="3.87159">
        <ele>33</ele>
        <time>2021-02-07T15:48:20Z</time>
      </trkpt>
      <trkpt lat="43.60833" lon="3.87172">
        <ele>44</ele>
        <time>2021-02-07T15:48:23Z</time>
      </trkpt>
      <trkpt lat="43.60833" lon="3.87183">
        <ele>33.6</ele>
        <time>2021-02-07T15:48:25Z</time>
      </trkpt>
      <trkpt lat="43.60834" lon="3.87189">
        <ele>33.8</ele>
        <time>2021-02-07T15:48:26Z</time>
      </trkpt>
      <trkpt lat="43.60835" lon="3.87195">
        <ele>34.1</ele>
        <time>2021-02-07T15:48:27Z</time>
      </trkpt>
      <trkpt lat="43.60836" lon="3.872">
        <ele>34.1</ele>
        <time>2021-02-07T15:48:28Z</time>
      </trkpt>
      <trkpt lat="43.60838" lon="3.87206">
        <ele>34.1</ele>
        <time>2021-02-07T15:48:29Z</time>
      </trkpt>
      <trkpt lat="43.60839" lon="3.87211">
        <ele>34.1</ele>
        <time>2021-02-07T15:48:30Z</time>
      </trkpt>
      <trkpt lat="43.60841" lon="3.87216">
        <ele>34.1</ele>
        <time>2021-02-07T15:48:31Z</time>
      </trkpt>
      <trkpt lat="43.60843" lon="3.87221">
        <ele>34</ele>
        <time>2021-02-07T15:48:32Z</time>
      </trkpt>
      <trkpt lat="43.60844" lon="3.87226">
        <ele>41</ele>
        <time>2021-02-07T15:48:33Z</time>
      </trkpt>
      <trkpt lat="43.60846" lon="3.87232">
        <ele>34.2</ele>
        <time>2021-02-07T15:48:34Z</time>
      </trkpt>
      <trkpt lat="43.6085" lon="3.87249">
        <ele>34.6</ele>
        <time>2021-02-07T15:48:37Z</time>
      </trkpt>
      <trkpt lat="43.6085" lon="3.87255">
        <ele>34.4</ele>
        <time>2021-02-07T15:48:38Z</time>
      </trkpt>
      <trkpt lat="43.60851" lon="3.87261">
        <ele>34.2</ele>
        <time>2021-02-07T15:48:39Z</time>
      </trkpt>
      <trkpt lat="43.60852" lon="3.87267">
        <ele>34.1</ele>
        <time>2021-02-07T15:48:40Z</time>
      </trkpt>
      <trkpt lat="43.60853" lon="3.87273">
        <ele>33.9</ele>
        <time>2021-02-07T15:48:41Z</time>
      </trkpt>
      <trkpt lat="43.60854" lon="3.87278">
        <ele>33.7</ele>
        <time>2021-02-07T15:48:42Z</time>
      </trkpt>
      <trkpt lat="43.60856" lon="3.87283">
        <ele>39</ele>
        <time>2021-02-07T15:48:43Z</time>
      </trkpt>
      <trkpt lat="43.60857" lon="3.87288">
        <ele>33.5</ele>
        <time>2021-02-07T15:48:44Z</time>
      </trkpt>
      <trkpt lat="43.60857" lon="3.87293">
        <ele>33.4</ele>
        <time>2021-02-07T15:48:45Z</time>
      </trkpt>
      <trkpt lat="43.60858" lon="3.87298">
        <ele>33.2</ele>
        <time>2021-02-07T15:48:46Z</time>
      </trkpt>
      <trkpt lat="43.60859" lon="3.87303">
        <ele>33.1</ele>
        <time>2021-02-07T15:48:47Z</time>
      </trkpt>
      <trkpt lat="43.6086" lon="3.87308">
        <ele>33</ele>
        <time>2021-02-07T15:48:48Z</time>
      </trkpt>
      <trkpt lat="43.6086" lon="3.87312">
        <ele>33</ele>
        <time>2021-02-07T15:48:49Z</time>
      </trkpt>
      <trkpt lat="43.60861" lon="3.87316">
        <ele>33</ele>
        <time>2021-02-07T15:48:50Z</time>
      </trkpt>
      <trkpt lat="43.60863" lon="3.8732">
        <ele>33.1</ele>
        <time>2021-02-07T15:48:51Z</time>
      </trkpt>
      <trkpt lat="43.60864" lon="3.87323">
        <ele>33.2</ele>
        <time>2021-02-07T15:48:52Z</time>
      </trkpt>
      <trkpt lat="43.60866" lon="3.87327">
        <ele>37</ele>
        <time>2021-02-07T15:48:53Z</time>
      </trkpt>
      <trkpt lat="43.60868" lon="3.87331">
        <ele>33.5</ele>
        <time>2021-02-07T15:48:54Z</time>
      </trkpt>
      <trkpt lat="43.6087" lon="3.87335">
        <ele>33.6</ele>
        <time>2021-02-07T15:48:55Z</time>
      </trkpt>
      <trkpt lat="43.60873" lon="3.87339">
        <ele>33.8</ele>
        <time>2021-02-07T15:48:56Z</time>
      </trkpt>
      <trkpt lat="43.60874" lon="3.87343">
        <ele>33.8</ele>
        <time>2021-02-07T15:48:57Z</time>
      </trkpt>
      <trkpt lat="43.60877" lon="3.87346">
        <ele>33.9</ele>
        <time>2021-02-07T15:48:58Z</time>
      </trkpt>
      <trkpt lat="43.60879" lon="3.8735">
        <ele>33.9</ele>
        <time>2021-02-07T15:48:59Z</time>
      </trkpt>
      <trkpt lat="43.60881" lon="3.87353">
        <ele>33.9</ele>
        <time>2021-02-07T15:49:00Z</time>
      </trkpt>
      <trkpt lat="43.60883" lon="3.87357">
        <ele>33.9</ele>
        <time>2021-02-07T15:49:01Z</time>
      </trkpt>
      <trkpt lat="43.60884" lon="3.87361">
        <ele>33.8</ele>
        <time>2021-02-07T15:49:02Z</time>
      </trkpt>
      <trkpt lat="43.60885" lon="3.87365">
        <ele>37</ele>
        <time>2021-02-07T15:49:03Z</time>
      </trkpt>
      <trkpt lat="43.60887" lon="3.87368">
        <ele>33.9</ele>
        <time>2021-02-07T15:49:04Z</time>
      </trkpt>
      <trkpt lat="43.60888" lon="3.87372">
        <ele>34</ele>
        <time>2021-02-07T15:49:05Z</time>
      </trkpt>
      <trkpt lat="43.60892" lon="3.8738">
        <ele>34.2</ele>
        <time>2021-02-07T15:49:07Z</time>
      </trkpt>
      <trkpt lat="43.60893" lon="3.87384">
        <ele>34.3</ele>
        <time>2021-02-07T15:49:08Z</time>
      </trkpt>
      <trkpt lat="43.60895" lon="3.87387">
        <ele>34.4</ele>
        <time>2021-02-07T15:49:09Z</time>
      </trkpt>
      <trkpt lat="43.60896" lon="3.87391">
        <ele>34.6</ele>
        <time>2021-02-07T15:49:10Z</time>
      </trkpt>
      <trkpt lat="43.60898" lon="3.87395">
        <ele>34.8</ele>
        <time>2021-02-07T15:49:11Z</time>
      </trkpt>
      <trkpt lat="43.609" lon="3.87399">
        <ele>35</ele>
        <time>2021-02-07T15:49:12Z</time>
      </trkpt>
      <trkpt lat="43.60901" lon="3.87402">
        <ele>38</ele>
        <time>2021-02-07T15:49:13Z</time>
      </trkpt>
      <trkpt lat="43.60902" lon="3.87406">
        <ele>35.3</ele>
        <time>2021-02-07T15:49:14Z</time>
      </trkpt>
      <trkpt lat="43.60904" lon="3.8741">
        <ele>35.4</ele>
        <time>2021-02-07T15:49:15Z</time>
      </trkpt>
      <trkpt lat="43.60905" lon="3.87414">
        <ele>35.5</ele>
        <time>2021-02-07T15:49:16Z</time>
      </trkpt>
      <trkpt lat="43.60907" lon="3.87417">
        <ele>35.7</ele>
        <time>2021-02-07T15:49:17Z</time>
      </trkpt>
      <trkpt lat="43.60909" lon="3.87421">
        <ele>35.7</ele>
        <time>2021-02-07T15:49:18Z</time>
      </trkpt>
      <trkpt lat="43.6091" lon="3.87424">
        <ele>35.8</ele>
        <time>2021-02-07T15:49:19Z</time>
      </trkpt>
      <trkpt lat="43.60912" lon="3.87428">
        <ele>35.8</ele>
        <time>2021-02-07T15:49:20Z</time>
      </trkpt>
      <trkpt lat="43.60913" lon="3.87432">
        <ele>35.9</ele>
        <time>2021-02-07T15:49:21Z</time>
      </trkpt>
      <trkpt lat="43.60914" lon="3.87436">
        <ele>35.9</ele>
        <time>2021-02-07T15:49:22Z</time>
      </trkpt>
      <trkpt lat="43.60915" lon="3.87439">
        <ele>39</ele>
        <time>2021-02-07T15:49:23Z</time>
      </trkpt>
      <trkpt lat="43.60917" lon="3.87443">
        <ele>36</ele>
        <time>2021-02-07T15:49:24Z</time>
      </trkpt>
      <trkpt lat="43.60918" lon="3.87446">
        <ele>36.2</ele>
        <time>2021-02-07T15:49:25Z</time>
      </trkpt>
      <trkpt lat="43.60921" lon="3.87453">
        <ele>36.6</ele>
        <time>2021-02-07T15:49:27Z</time>
      </trkpt>
      <trkpt lat="43.60923" lon="3.87456">
        <ele>36.9</ele>
        <time>2021-02-07T15:49:28Z</time>
      </trkpt>
      <trkpt lat="43.60925" lon="3.87459">
        <ele>37.1</ele>
        <time>2021-02-07T15:49:29Z</time>
      </trkpt>
      <trkpt lat="43.60926" lon="3.87462">
        <ele>37.3</ele>
        <time>2021-02-07T15:49:30Z</time>
      </trkpt>
      <trkpt lat="43.60928" lon="3.87464">
        <ele>37.5</ele>
        <time>2021-02-07T15:49:31Z</time>
      </trkpt>
      <trkpt lat="43.6093" lon="3.87467">
        <ele>37.8</ele>
        <time>2021-02-07T15:49:32Z</time>
      </trkpt>
      <trkpt lat="43.60932" lon="3.87469">
        <ele>40</ele>
        <time>2021-02-07T15:49:33Z</time>
      </trkpt>
      <trkpt lat="43.60933" lon="3.87472">
        <ele>38.2</ele>
        <time>2021-02-07T15:49:34Z</time>
      </trkpt>
      <trkpt lat="43.60935" lon="3.87474">
        <ele>38.3</ele>
        <time>2021-02-07T15:49:35Z</time>
      </trkpt>
      <trkpt lat="43.60936" lon="3.87477">
        <ele>38.4</ele>
        <time>2021-02-07T15:49:36Z</time>
      </trkpt>
      <trkpt lat="43.60938" lon="3.87479">
        <ele>38.6</ele>
        <time>2021-02-07T15:49:37Z</time>
      </trkpt>
      <trkpt lat="43.60939" lon="3.87482">
        <ele>38.7</ele>
        <time>2021-02-07T15:49:38Z</time>
      </trkpt>
      <trkpt lat="43.6094" lon="3.87484">
        <ele>38.7</ele>
        <time>2021-02-07T15:49:39Z</time>
      </trkpt>
      <trkpt lat="43.60942" lon="3.87487">
        <ele>38.9</ele>
        <time>2021-02-07T15:49:40Z</time>
      </trkpt>
      <trkpt lat="43.60943" lon="3.87489">
        <ele>38.9</ele>
        <time>2021-02-07T15:49:41Z</time>
      </trkpt>
      <trkpt lat="43.60945" lon="3.87491">
        <ele>39.1</ele>
        <time>2021-02-07T15:49:42Z</time>
      </trkpt>
      <trkpt lat="43.60946" lon="3.87493">
        <ele>41</ele>
        <time>2021-02-07T15:49:43Z</time>
      </trkpt>
      <trkpt lat="43.60948" lon="3.87496">
        <ele>39.5</ele>
        <time>2021-02-07T15:49:44Z</time>
      </trkpt>
      <trkpt lat="43.60949" lon="3.87498">
        <ele>39.7</ele>
        <time>2021-02-07T15:49:45Z</time>
      </trkpt>
      <trkpt lat="43.60951" lon="3.875">
        <ele>39.9</ele>
        <time>2021-02-07T15:49:46Z</time>
      </trkpt>
      <trkpt lat="43.60952" lon="3.87503">
        <ele>40.1</ele>
        <time>2021-02-07T15:49:47Z</time>
      </trkpt>
      <trkpt lat="43.60953" lon="3.87506">
        <ele>40.3</ele>
        <time>2021-02-07T15:49:48Z</time>
      </trkpt>
      <trkpt lat="43.60954" lon="3.87509">
        <ele>40.5</ele>
        <time>2021-02-07T15:49:49Z</time>
      </trkpt>
      <trkpt lat="43.60955" lon="3.87512">
        <ele>40.6</ele>
        <time>2021-02-07T15:49:50Z</time>
      </trkpt>
      <trkpt lat="43.60956" lon="3.87514">
        <ele>40.7</ele>
        <time>2021-02-07T15:49:51Z</time>
      </trkpt>
      <trkpt lat="43.60958" lon="3.87517">
        <ele>41</ele>
        <time>2021-02-07T15:49:52Z</time>
      </trkpt>
      <trkpt lat="43.60959" lon="3.87519">
        <ele>41.1</ele>
        <time>2021-02-07T15:49:53Z</time>
      </trkpt>
      <trkpt lat="43.6096" lon="3.87522">
        <ele>43</ele>
        <time>2021-02-07T15:49:54Z</time>
      </trkpt>
      <trkpt lat="43.60962" lon="3.87523">
        <ele>41.3</ele>
        <time>2021-02-07T15:49:55Z</time>
      </trkpt>
      <trkpt lat="43.60964" lon="3.87525">
        <ele>41.4</ele>
        <time>2021-02-07T15:49:56Z</time>
      </trkpt>
      <trkpt lat="43.60965" lon="3.87527">
        <ele>41.5</ele>
        <time>2021-02-07T15:49:57Z</time>
      </trkpt>
      <trkpt lat="43.60967" lon="3.8753">
        <ele>41.6</ele>
        <time>2021-02-07T15:49:58Z</time>
      </trkpt>
      <trkpt lat="43.60969" lon="3.87532">
        <ele>41.8</ele>
        <time>2021-02-07T15:49:59Z</time>
      </trkpt>
      <trkpt lat="43.6097" lon="3.87534">
        <ele>41.9</ele>
        <time>2021-02-07T15:50:00Z</time>
      </trkpt>
      <trkpt lat="43.60971" lon="3.87537">
        <ele>41.9</ele>
        <time>2021-02-07T15:50:01Z</time>
      </trkpt>
      <trkpt lat="43.60973" lon="3.87542">
        <ele>44</ele>
        <time>2021-02-07T15:50:03Z</time>
      </trkpt>
      <trkpt lat="43.60974" lon="3.87545">
        <ele>42.3</ele>
        <time>2021-02-07T15:50:04Z</time>
      </trkpt>
      <trkpt lat="43.60976" lon="3.87547">
        <ele>42.5</ele>
        <time>2021-02-07T15:50:05Z</time>
      </trkpt>
      <trkpt lat="43.60978" lon="3.87549">
        <ele>42.8</ele>
        <time>2021-02-07T15:50:06Z</time>
      </trkpt>
      <trkpt lat="43.60979" lon="3.87552">
        <ele>43</ele>
        <time>2021-02-07T15:50:07Z</time>
      </trkpt>
      <trkpt lat="43.6098" lon="3.87555">
        <ele>43.1</ele>
        <time>2021-02-07T15:50:08Z</time>
      </trkpt>
      <trkpt lat="43.60981" lon="3.87557">
        <ele>43.3</ele>
        <time>2021-02-07T15:50:09Z</time>
      </trkpt>
      <trkpt lat="43.60983" lon="3.87559">
        <ele>43.7</ele>
        <time>2021-02-07T15:50:10Z</time>
      </trkpt>
      <trkpt lat="43.60984" lon="3.87562">
        <ele>43.9</ele>
        <time>2021-02-07T15:50:11Z</time>
      </trkpt>
      <trkpt lat="43.60985" lon="3.87565">
        <ele>44.1</ele>
        <time>2021-02-07T15:50:12Z</time>
      </trkpt>
      <trkpt lat="43.60987" lon="3.87568">
        <ele>47</ele>
        <time>2021-02-07T15:50:13Z</time>
      </trkpt>
      <trkpt lat="43.60989" lon="3.8757">
        <ele>44.5</ele>
        <time>2021-02-07T15:50:14Z</time>
      </trkpt>
      <trkpt lat="43.6099" lon="3.87573">
        <ele>44.6</ele>
        <time>2021-02-07T15:50:15Z</time>
      </trkpt>
      <trkpt lat="43.60992" lon="3.87576">
        <ele>44.7</ele>
        <time>2021-02-07T15:50:16Z</time>
      </trkpt>
      <trkpt lat="43.60993" lon="3.87578">
        <ele>44.8</ele>
        <time>2021-02-07T15:50:17Z</time>
      </trkpt>
      <trkpt lat="43.60999" lon="3.87589">
        <ele>45.2</ele>
        <time>2021-02-07T15:50:21Z</time>
      </trkpt>
      <trkpt lat="43.61002" lon="3.87594">
        <ele>45.4</ele>
        <time>2021-02-07T15:50:23Z</time>
      </trkpt>
      <trkpt lat="43.61003" lon="3.87596">
        <ele>50</ele>
        <time>2021-02-07T15:50:24Z</time>
      </trkpt>
      <trkpt lat="43.61004" lon="3.87599">
        <ele>45.6</ele>
        <time>2021-02-07T15:50:25Z</time>
      </trkpt>
      <trkpt lat="43.61006" lon="3.87601">
        <ele>45.7</ele>
        <time>2021-02-07T15:50:26Z</time>
      </trkpt>
      <trkpt lat="43.61008" lon="3.87603">
        <ele>45.8</ele>
        <time>2021-02-07T15:50:27Z</time>
      </trkpt>
      <trkpt lat="43.61009" lon="3.87606">
        <ele>45.9</ele>
        <time>2021-02-07T15:50:28Z</time>
      </trkpt>
      <trkpt lat="43.61011" lon="3.87609">
        <ele>46</ele>
        <time>2021-02-07T15:50:29Z</time>
      </trkpt>
      <trkpt lat="43.61013" lon="3.87612">
        <ele>46</ele>
        <time>2021-02-07T15:50:30Z</time>
      </trkpt>
      <trkpt lat="43.61014" lon="3.87615">
        <ele>45.9</ele>
        <time>2021-02-07T15:50:31Z</time>
      </trkpt>
      <trkpt lat="43.61014" lon="3.87619">
        <ele>45.9</ele>
        <time>2021-02-07T15:50:32Z</time>
      </trkpt>
      <trkpt lat="43.61016" lon="3.87621">
        <ele>52</ele>
        <time>2021-02-07T15:50:33Z</time>
      </trkpt>
      <trkpt lat="43.61018" lon="3.87623">
        <ele>45.8</ele>
        <time>2021-02-07T15:50:34Z</time>
      </trkpt>
      <trkpt lat="43.6102" lon="3.87626">
        <ele>45.8</ele>
        <time>2021-02-07T15:50:35Z</time>
      </trkpt>
      <trkpt lat="43.61023" lon="3.87629">
        <ele>45.9</ele>
        <time>2021-02-07T15:50:36Z</time>
      </trkpt>
      <trkpt lat="43.61025" lon="3.87631">
        <ele>45.9</ele>
        <time>2021-02-07T15:50:37Z</time>
      </trkpt>
      <trkpt lat="43.61027" lon="3.87634">
        <ele>46</ele>
        <time>2021-02-07T15:50:38Z</time>
      </trkpt>
      <trkpt lat="43.6103" lon="3.87637">
        <ele>46.1</ele>
        <time>2021-02-07T15:50:39Z</time>
      </trkpt>
      <trkpt lat="43.61032" lon="3.8764">
        <ele>46.1</ele>
        <time>2021-02-07T15:50:40Z</time>
      </trkpt>
      <trkpt lat="43.61035" lon="3.87643">
        <ele>46.2</ele>
        <time>2021-02-07T15:50:41Z</time>
      </trkpt>
      <trkpt lat="43.61037" lon="3.87645">
        <ele>46.3</ele>
        <time>2021-02-07T15:50:42Z</time>
      </trkpt>
      <trkpt lat="43.6104" lon="3.87648">
        <ele>53</ele>
        <time>2021-02-07T15:50:43Z</time>
      </trkpt>
      <trkpt lat="43.61043" lon="3.8765">
        <ele>46.3</ele>
        <time>2021-02-07T15:50:44Z</time>
      </trkpt>
      <trkpt lat="43.61046" lon="3.87653">
        <ele>46.3</ele>
        <time>2021-02-07T15:50:45Z</time>
      </trkpt>
      <trkpt lat="43.61048" lon="3.87655">
        <ele>46.3</ele>
        <time>2021-02-07T15:50:46Z</time>
      </trkpt>
      <trkpt lat="43.61051" lon="3.87657">
        <ele>46.3</ele>
        <time>2021-02-07T15:50:47Z</time>
      </trkpt>
      <trkpt lat="43.61053" lon="3.87659">
        <ele>46.3</ele>
        <time>2021-02-07T15:50:48Z</time>
      </trkpt>
      <trkpt lat="43.61056" lon="3.8766">
        <ele>46.3</ele>
        <time>2021-02-07T15:50:49Z</time>
      </trkpt>
      <trkpt lat="43.61059" lon="3.87661">
        <ele>46.4</ele>
        <time>2021-02-07T15:50:50Z</time>
      </trkpt>
      <trkpt lat="43.61064" lon="3.87663">
        <ele>46.7</ele>
        <time>2021-02-07T15:50:52Z</time>
      </trkpt>
      <trkpt lat="43.61068" lon="3.87665">
        <ele>52</ele>
        <time>2021-02-07T15:50:53Z</time>
      </trkpt>
      <trkpt lat="43.6107" lon="3.87669">
        <ele>47</ele>
        <time>2021-02-07T15:50:54Z</time>
      </trkpt>
      <trkpt lat="43.61073" lon="3.87674">
        <ele>46.9</ele>
        <time>2021-02-07T15:50:55Z</time>
      </trkpt>
      <trkpt lat="43.61075" lon="3.87678">
        <ele>46.8</ele>
        <time>2021-02-07T15:50:56Z</time>
      </trkpt>
      <trkpt lat="43.61077" lon="3.87682">
        <ele>46.7</ele>
        <time>2021-02-07T15:50:57Z</time>
      </trkpt>
      <trkpt lat="43.6108" lon="3.87686">
        <ele>46.5</ele>
        <time>2021-02-07T15:50:58Z</time>
      </trkpt>
      <trkpt lat="43.61082" lon="3.8769">
        <ele>46.3</ele>
        <time>2021-02-07T15:50:59Z</time>
      </trkpt>
      <trkpt lat="43.61084" lon="3.87693">
        <ele>46.1</ele>
        <time>2021-02-07T15:51:00Z</time>
      </trkpt>
      <trkpt lat="43.61086" lon="3.87696">
        <ele>46.1</ele>
        <time>2021-02-07T15:51:01Z</time>
      </trkpt>
      <trkpt lat="43.61089" lon="3.87698">
        <ele>46.2</ele>
        <time>2021-02-07T15:51:02Z</time>
      </trkpt>
      <trkpt lat="43.61092" lon="3.87699">
        <ele>46.3</ele>
        <time>2021-02-07T15:51:03Z</time>
      </trkpt>
      <trkpt lat="43.61095" lon="3.87701">
        <ele>52</ele>
        <time>2021-02-07T15:51:04Z</time>
      </trkpt>
      <trkpt lat="43.61097" lon="3.87702">
        <ele>46.5</ele>
        <time>2021-02-07T15:51:05Z</time>
      </trkpt>
      <trkpt lat="43.611" lon="3.87703">
        <ele>46.6</ele>
        <time>2021-02-07T15:51:06Z</time>
      </trkpt>
      <trkpt lat="43.61102" lon="3.87705">
        <ele>46.7</ele>
        <time>2021-02-07T15:51:07Z</time>
      </trkpt>
      <trkpt lat="43.61105" lon="3.87706">
        <ele>46.8</ele>
        <time>2021-02-07T15:51:08Z</time>
      </trkpt>
      <trkpt lat="43.61108" lon="3.87707">
        <ele>46.9</ele>
        <time>2021-02-07T15:51:09Z</time>
      </trkpt>
      <trkpt lat="43.61111" lon="3.87708">
        <ele>47</ele>
        <time>2021-02-07T15:51:10Z</time>
      </trkpt>
      <trkpt lat="43.61114" lon="3.87709">
        <ele>47</ele>
        <time>2021-02-07T15:51:11Z</time>
      </trkpt>
      <trkpt lat="43.61117" lon="3.87711">
        <ele>47.1</ele>
        <time>2021-02-07T15:51:12Z</time>
      </trkpt>
      <trkpt lat="43.61119" lon="3.87714">
        <ele>54</ele>
        <time>2021-02-07T15:51:13Z</time>
      </trkpt>
      <trkpt lat="43.61121" lon="3.87718">
        <ele>47.1</ele>
        <time>2021-02-07T15:51:14Z</time>
      </trkpt>
      <trkpt lat="43.61122" lon="3.87722">
        <ele>47</ele>
        <time>2021-02-07T15:51:15Z</time>
      </trkpt>
      <trkpt lat="43.61124" lon="3.87725">
        <ele>47</ele>
        <time>2021-02-07T15:51:16Z</time>
      </trkpt>
      <trkpt lat="43.61126" lon="3.87728">
        <ele>47</ele>
        <time>2021-02-07T15:51:17Z</time>
      </trkpt>
      <trkpt lat="43.61133" lon="3.87732">
        <ele>47</ele>
        <time>2021-02-07T15:51:19Z</time>
      </trkpt>
      <trkpt lat="43.61136" lon="3.87733">
        <ele>47</ele>
        <time>2021-02-07T15:51:20Z</time>
      </trkpt>
      <trkpt lat="43.61139" lon="3.87734">
        <ele>47</ele>
        <time>2021-02-07T15:51:21Z</time>
      </trkpt>
      <trkpt lat="43.61143" lon="3.87736">
        <ele>47</ele>
        <time>2021-02-07T15:51:22Z</time>
      </trkpt>
      <trkpt lat="43.61145" lon="3.87738">
        <ele>54</ele>
        <time>2021-02-07T15:51:23Z</time>
      </trkpt>
      <trkpt lat="43.61148" lon="3.87739">
        <ele>47</ele>
        <time>2021-02-07T15:51:24Z</time>
      </trkpt>
      <trkpt lat="43.6115" lon="3.87741">
        <ele>47</ele>
        <time>2021-02-07T15:51:25Z</time>
      </trkpt>
      <trkpt lat="43.61153" lon="3.87742">
        <ele>47</ele>
        <time>2021-02-07T15:51:26Z</time>
      </trkpt>
      <trkpt lat="43.61154" lon="3.87743">
        <ele>47</ele>
        <time>2021-02-07T15:51:27Z</time>
      </trkpt>
      <trkpt lat="43.61158" lon="3.87745">
        <ele>47</ele>
        <time>2021-02-07T15:51:29Z</time>
      </trkpt>
      <trkpt lat="43.61161" lon="3.87744">
        <ele>47</ele>
        <time>2021-02-07T15:51:31Z</time>
      </trkpt>
      <trkpt lat="43.61163" lon="3.87743">
        <ele>53</ele>
        <time>2021-02-07T15:51:33Z</time>
      </trkpt>
      <trkpt lat="43.61163" lon="3.87743">
        <ele>54</ele>
        <time>2021-02-07T15:51:41Z</time>
      </trkpt>
    </trkseg>
  </trk>
</gpx>